<?xml version='1.0' encoding='UTF-8'?><gpx version="1.1" creator="JPX - https://github.com/jenetics/jpx" xmlns="http://www.topografix.com/GPX/1/1"><trk><trkseg><trkpt lat="45.3053169" lon="7.7464084"><ele>279.0</ele><time>2026-03-29T08:38:29.187Z</time></trkpt><trkpt lat="45.3052826" lon="7.7463037"><ele>279.0</ele><time>2026-03-29T08:38:35.179Z</time></trkpt><trkpt lat="45.3052174" lon="7.7462923"><ele>279.0</ele><time>2026-03-29T08:38:37.187Z</time></trkpt><trkpt lat="45.3051875" lon="7.7464137"><ele>279.0</ele><time>2026-03-29T08:38:40.192Z</time></trkpt><trkpt lat="45.3052076" lon="7.7465495"><ele>279.0</ele><time>2026-03-29T08:38:42.189Z</time></trkpt><trkpt lat="45.305224" lon="7.7466591"><ele>279.0</ele><time>2026-03-29T08:38:44.18Z</time></trkpt><trkpt lat="45.305243" lon="7.7467678"><ele>279.0</ele><time>2026-03-29T08:38:46.194Z</time></trkpt><trkpt lat="45.3052643" lon="7.746855"><ele>279.0</ele><time>2026-03-29T08:38:48.245Z</time></trkpt><trkpt lat="45.3052913" lon="7.7470002"><ele>279.0</ele><time>2026-03-29T08:38:50.199Z</time></trkpt><trkpt lat="45.3053441" lon="7.7471355"><ele>279.0</ele><time>2026-03-29T08:38:52.199Z</time></trkpt><trkpt lat="45.3053881" lon="7.7472633"><ele>279.0</ele><time>2026-03-29T08:38:54.191Z</time></trkpt><trkpt lat="45.3054192" lon="7.74743"><ele>278.6666666666667</ele><time>2026-03-29T08:38:56.2Z</time></trkpt><trkpt lat="45.3054329" lon="7.7475215"><ele>278.3333333333333</ele><time>2026-03-29T08:38:57.193Z</time></trkpt><trkpt lat="45.3054528" lon="7.747614"><ele>278.0</ele><time>2026-03-29T08:38:58.189Z</time></trkpt><trkpt lat="45.3054714" lon="7.7477059"><ele>277.66666666666663</ele><time>2026-03-29T08:38:59.194Z</time></trkpt><trkpt lat="45.3054939" lon="7.7478137"><ele>277.3333333333333</ele><time>2026-03-29T08:39:00.183Z</time></trkpt><trkpt lat="45.3055195" lon="7.7479321"><ele>277.0</ele><time>2026-03-29T08:39:01.185Z</time></trkpt><trkpt lat="45.3055454" lon="7.7480556"><ele>277.0</ele><time>2026-03-29T08:39:02.182Z</time></trkpt><trkpt lat="45.3055893" lon="7.7483056"><ele>277.0</ele><time>2026-03-29T08:39:04.185Z</time></trkpt><trkpt lat="45.3056123" lon="7.7484268"><ele>277.0</ele><time>2026-03-29T08:39:05.175Z</time></trkpt><trkpt lat="45.3056713" lon="7.7486646"><ele>277.0</ele><time>2026-03-29T08:39:07.196Z</time></trkpt><trkpt lat="45.3056984" lon="7.748784"><ele>276.75</ele><time>2026-03-29T08:39:08.184Z</time></trkpt><trkpt lat="45.3057233" lon="7.748928"><ele>276.5</ele><time>2026-03-29T08:39:09.196Z</time></trkpt><trkpt lat="45.305752" lon="7.7490976"><ele>276.25</ele><time>2026-03-29T08:39:10.201Z</time></trkpt><trkpt lat="45.3057828" lon="7.7492801"><ele>276.0</ele><time>2026-03-29T08:39:11.185Z</time></trkpt><trkpt lat="45.3058114" lon="7.7494955"><ele>273.6666666666667</ele><time>2026-03-29T08:39:12.178Z</time></trkpt><trkpt lat="45.3058549" lon="7.7497239"><ele>271.33333333333337</ele><time>2026-03-29T08:39:13.208Z</time></trkpt><trkpt lat="45.3059044" lon="7.7499604"><ele>269.0</ele><time>2026-03-29T08:39:14.195Z</time></trkpt><trkpt lat="45.3059573" lon="7.7502212"><ele>267.6666666666667</ele><time>2026-03-29T08:39:15.195Z</time></trkpt><trkpt lat="45.3060162" lon="7.750499"><ele>266.3333333333333</ele><time>2026-03-29T08:39:16.198Z</time></trkpt><trkpt lat="45.3060728" lon="7.7507702"><ele>265.0</ele><time>2026-03-29T08:39:17.201Z</time></trkpt><trkpt lat="45.3061194" lon="7.7510245"><ele>264.3333333333333</ele><time>2026-03-29T08:39:18.199Z</time></trkpt><trkpt lat="45.3061648" lon="7.7512625"><ele>263.6666666666667</ele><time>2026-03-29T08:39:19.199Z</time></trkpt><trkpt lat="45.3062151" lon="7.7514907"><ele>263.0</ele><time>2026-03-29T08:39:20.197Z</time></trkpt><trkpt lat="45.3062627" lon="7.7516973"><ele>262.6666666666667</ele><time>2026-03-29T08:39:21.187Z</time></trkpt><trkpt lat="45.3063189" lon="7.7519126"><ele>262.3333333333333</ele><time>2026-03-29T08:39:22.195Z</time></trkpt><trkpt lat="45.3063771" lon="7.7521254"><ele>262.0</ele><time>2026-03-29T08:39:23.192Z</time></trkpt><trkpt lat="45.3064417" lon="7.7523336"><ele>262.25</ele><time>2026-03-29T08:39:24.179Z</time></trkpt><trkpt lat="45.3065128" lon="7.7525298"><ele>262.5</ele><time>2026-03-29T08:39:25.176Z</time></trkpt><trkpt lat="45.3065887" lon="7.7527036"><ele>262.75</ele><time>2026-03-29T08:39:26.179Z</time></trkpt><trkpt lat="45.3066555" lon="7.7528581"><ele>263.0</ele><time>2026-03-29T08:39:27.171Z</time></trkpt><trkpt lat="45.3067142" lon="7.7529855"><ele>263.0</ele><time>2026-03-29T08:39:28.195Z</time></trkpt><trkpt lat="45.3067501" lon="7.7530903"><ele>263.0</ele><time>2026-03-29T08:39:29.181Z</time></trkpt><trkpt lat="45.306764" lon="7.753178"><ele>263.0</ele><time>2026-03-29T08:39:30.177Z</time></trkpt><trkpt lat="45.3067415" lon="7.7532657"><ele>263.0</ele><time>2026-03-29T08:39:31.187Z</time></trkpt><trkpt lat="45.3066962" lon="7.7533476"><ele>263.0</ele><time>2026-03-29T08:39:32.186Z</time></trkpt><trkpt lat="45.3066032" lon="7.7534556"><ele>263.0</ele><time>2026-03-29T08:39:33.21Z</time></trkpt><trkpt lat="45.3065017" lon="7.7535716"><ele>262.75</ele><time>2026-03-29T08:39:34.182Z</time></trkpt><trkpt lat="45.3063859" lon="7.7536944"><ele>262.5</ele><time>2026-03-29T08:39:35.184Z</time></trkpt><trkpt lat="45.3062786" lon="7.7538212"><ele>262.25</ele><time>2026-03-29T08:39:36.188Z</time></trkpt><trkpt lat="45.3061845" lon="7.7539517"><ele>262.0</ele><time>2026-03-29T08:39:37.199Z</time></trkpt><trkpt lat="45.3060819" lon="7.7540847"><ele>262.0</ele><time>2026-03-29T08:39:38.198Z</time></trkpt><trkpt lat="45.305977" lon="7.754215"><ele>262.0</ele><time>2026-03-29T08:39:39.195Z</time></trkpt><trkpt lat="45.3058701" lon="7.754357"><ele>262.0</ele><time>2026-03-29T08:39:40.206Z</time></trkpt><trkpt lat="45.3057593" lon="7.754505"><ele>262.0</ele><time>2026-03-29T08:39:41.178Z</time></trkpt><trkpt lat="45.3056493" lon="7.754656"><ele>261.0</ele><time>2026-03-29T08:39:42.194Z</time></trkpt><trkpt lat="45.3055536" lon="7.7547856"><ele>260.0</ele><time>2026-03-29T08:39:43.188Z</time></trkpt><trkpt lat="45.3054601" lon="7.7549098"><ele>259.0</ele><time>2026-03-29T08:39:44.181Z</time></trkpt><trkpt lat="45.3053724" lon="7.7550254"><ele>258.0</ele><time>2026-03-29T08:39:45.213Z</time></trkpt><trkpt lat="45.3052853" lon="7.7551387"><ele>258.25</ele><time>2026-03-29T08:39:46.196Z</time></trkpt><trkpt lat="45.3052017" lon="7.7552628"><ele>258.5</ele><time>2026-03-29T08:39:47.204Z</time></trkpt><trkpt lat="45.3051154" lon="7.7553878"><ele>258.75</ele><time>2026-03-29T08:39:48.192Z</time></trkpt><trkpt lat="45.3050226" lon="7.755519"><ele>259.0</ele><time>2026-03-29T08:39:49.192Z</time></trkpt><trkpt lat="45.3049271" lon="7.755655"><ele>259.0</ele><time>2026-03-29T08:39:50.188Z</time></trkpt><trkpt lat="45.3048287" lon="7.7557882"><ele>259.0</ele><time>2026-03-29T08:39:51.189Z</time></trkpt><trkpt lat="45.3047292" lon="7.755925"><ele>259.0</ele><time>2026-03-29T08:39:52.183Z</time></trkpt><trkpt lat="45.3046306" lon="7.7560614"><ele>259.0</ele><time>2026-03-29T08:39:53.182Z</time></trkpt><trkpt lat="45.3045308" lon="7.7561945"><ele>259.0</ele><time>2026-03-29T08:39:54.187Z</time></trkpt><trkpt lat="45.3044321" lon="7.7563367"><ele>259.0</ele><time>2026-03-29T08:39:55.187Z</time></trkpt><trkpt lat="45.3043308" lon="7.7564788"><ele>259.0</ele><time>2026-03-29T08:39:56.198Z</time></trkpt><trkpt lat="45.3042402" lon="7.7566109"><ele>259.0</ele><time>2026-03-29T08:39:57.199Z</time></trkpt><trkpt lat="45.3041647" lon="7.7567093"><ele>259.0</ele><time>2026-03-29T08:39:58.189Z</time></trkpt><trkpt lat="45.3041097" lon="7.7567916"><ele>259.0</ele><time>2026-03-29T08:39:59.185Z</time></trkpt><trkpt lat="45.3040659" lon="7.7568595"><ele>259.0</ele><time>2026-03-29T08:40:00.18Z</time></trkpt><trkpt lat="45.3040291" lon="7.7569899"><ele>259.0</ele><time>2026-03-29T08:40:02.194Z</time></trkpt><trkpt lat="45.3040449" lon="7.7571957"><ele>259.0</ele><time>2026-03-29T08:40:04.186Z</time></trkpt><trkpt lat="45.304059" lon="7.7573409"><ele>258.75</ele><time>2026-03-29T08:40:05.187Z</time></trkpt><trkpt lat="45.3040815" lon="7.7575065"><ele>258.5</ele><time>2026-03-29T08:40:06.191Z</time></trkpt><trkpt lat="45.3041055" lon="7.7576499"><ele>258.25</ele><time>2026-03-29T08:40:07.177Z</time></trkpt><trkpt lat="45.3041351" lon="7.7578235"><ele>258.0</ele><time>2026-03-29T08:40:08.189Z</time></trkpt><trkpt lat="45.304169" lon="7.7580069"><ele>257.75</ele><time>2026-03-29T08:40:09.197Z</time></trkpt><trkpt lat="45.3041967" lon="7.7581725"><ele>257.5</ele><time>2026-03-29T08:40:10.196Z</time></trkpt><trkpt lat="45.3042241" lon="7.7583375"><ele>257.25</ele><time>2026-03-29T08:40:11.219Z</time></trkpt><trkpt lat="45.3042477" lon="7.758508"><ele>257.0</ele><time>2026-03-29T08:40:12.189Z</time></trkpt><trkpt lat="45.3042728" lon="7.7586668"><ele>257.0</ele><time>2026-03-29T08:40:13.183Z</time></trkpt><trkpt lat="45.3042973" lon="7.7588227"><ele>257.0</ele><time>2026-03-29T08:40:14.174Z</time></trkpt><trkpt lat="45.3043209" lon="7.7589732"><ele>257.0</ele><time>2026-03-29T08:40:15.192Z</time></trkpt><trkpt lat="45.3043462" lon="7.7591323"><ele>257.0</ele><time>2026-03-29T08:40:16.193Z</time></trkpt><trkpt lat="45.3043719" lon="7.7592873"><ele>257.0</ele><time>2026-03-29T08:40:17.18Z</time></trkpt><trkpt lat="45.3043956" lon="7.7594414"><ele>257.2</ele><time>2026-03-29T08:40:18.227Z</time></trkpt><trkpt lat="45.3044187" lon="7.7595898"><ele>257.4</ele><time>2026-03-29T08:40:19.188Z</time></trkpt><trkpt lat="45.3044429" lon="7.7597518"><ele>257.6</ele><time>2026-03-29T08:40:20.19Z</time></trkpt><trkpt lat="45.3044663" lon="7.7599028"><ele>257.8</ele><time>2026-03-29T08:40:21.2Z</time></trkpt><trkpt lat="45.3044807" lon="7.7600325"><ele>258.0</ele><time>2026-03-29T08:40:22.201Z</time></trkpt><trkpt lat="45.3044916" lon="7.7601487"><ele>258.0</ele><time>2026-03-29T08:40:23.186Z</time></trkpt><trkpt lat="45.3044819" lon="7.7602501"><ele>258.0</ele><time>2026-03-29T08:40:24.165Z</time></trkpt><trkpt lat="45.3044676" lon="7.7603675"><ele>258.0</ele><time>2026-03-29T08:40:25.187Z</time></trkpt><trkpt lat="45.3044344" lon="7.760484"><ele>258.0</ele><time>2026-03-29T08:40:26.189Z</time></trkpt><trkpt lat="45.3043841" lon="7.760605"><ele>258.0</ele><time>2026-03-29T08:40:27.196Z</time></trkpt><trkpt lat="45.3043179" lon="7.7607573"><ele>258.0</ele><time>2026-03-29T08:40:28.2Z</time></trkpt><trkpt lat="45.3042354" lon="7.7609194"><ele>258.0</ele><time>2026-03-29T08:40:29.194Z</time></trkpt><trkpt lat="45.3041501" lon="7.761073"><ele>258.0</ele><time>2026-03-29T08:40:30.185Z</time></trkpt><trkpt lat="45.304064" lon="7.7612162"><ele>258.0</ele><time>2026-03-29T08:40:31.194Z</time></trkpt><trkpt lat="45.3039836" lon="7.761352"><ele>258.0</ele><time>2026-03-29T08:40:32.187Z</time></trkpt><trkpt lat="45.3039065" lon="7.7614632"><ele>258.0</ele><time>2026-03-29T08:40:33.2Z</time></trkpt><trkpt lat="45.3038233" lon="7.7615594"><ele>258.0</ele><time>2026-03-29T08:40:34.196Z</time></trkpt><trkpt lat="45.3037282" lon="7.7616463"><ele>258.0</ele><time>2026-03-29T08:40:35.189Z</time></trkpt><trkpt lat="45.3036328" lon="7.7617565"><ele>258.0</ele><time>2026-03-29T08:40:36.187Z</time></trkpt><trkpt lat="45.3035372" lon="7.7618606"><ele>258.0</ele><time>2026-03-29T08:40:37.192Z</time></trkpt><trkpt lat="45.3034606" lon="7.761943"><ele>258.0</ele><time>2026-03-29T08:40:38.191Z</time></trkpt><trkpt lat="45.3033917" lon="7.7620211"><ele>258.0</ele><time>2026-03-29T08:40:39.199Z</time></trkpt><trkpt lat="45.3033308" lon="7.7621125"><ele>258.0</ele><time>2026-03-29T08:40:40.187Z</time></trkpt><trkpt lat="45.3032772" lon="7.7622224"><ele>258.0</ele><time>2026-03-29T08:40:41.214Z</time></trkpt><trkpt lat="45.3032331" lon="7.7623557"><ele>258.0</ele><time>2026-03-29T08:40:42.181Z</time></trkpt><trkpt lat="45.3031916" lon="7.7624911"><ele>258.0</ele><time>2026-03-29T08:40:43.177Z</time></trkpt><trkpt lat="45.303155" lon="7.762617"><ele>258.0</ele><time>2026-03-29T08:40:44.178Z</time></trkpt><trkpt lat="45.3031032" lon="7.7627185"><ele>258.0</ele><time>2026-03-29T08:40:45.187Z</time></trkpt><trkpt lat="45.303036" lon="7.7628111"><ele>257.8</ele><time>2026-03-29T08:40:46.191Z</time></trkpt><trkpt lat="45.3029659" lon="7.7628946"><ele>257.6</ele><time>2026-03-29T08:40:47.193Z</time></trkpt><trkpt lat="45.3029112" lon="7.7629611"><ele>257.4</ele><time>2026-03-29T08:40:48.194Z</time></trkpt><trkpt lat="45.3029054" lon="7.763096"><ele>257.2</ele><time>2026-03-29T08:40:50.178Z</time></trkpt><trkpt lat="45.3029448" lon="7.7632174"><ele>257.0</ele><time>2026-03-29T08:40:51.179Z</time></trkpt><trkpt lat="45.3029926" lon="7.7634058"><ele>257.25</ele><time>2026-03-29T08:40:52.183Z</time></trkpt><trkpt lat="45.3030537" lon="7.763589"><ele>257.5</ele><time>2026-03-29T08:40:53.177Z</time></trkpt><trkpt lat="45.3031164" lon="7.7637939"><ele>257.75</ele><time>2026-03-29T08:40:54.178Z</time></trkpt><trkpt lat="45.3031612" lon="7.7639601"><ele>258.0</ele><time>2026-03-29T08:40:55.179Z</time></trkpt><trkpt lat="45.3032003" lon="7.7640902"><ele>258.0</ele><time>2026-03-29T08:40:56.195Z</time></trkpt><trkpt lat="45.3032267" lon="7.7642063"><ele>258.0</ele><time>2026-03-29T08:40:57.195Z</time></trkpt><trkpt lat="45.3032457" lon="7.7643221"><ele>258.0</ele><time>2026-03-29T08:40:58.192Z</time></trkpt><trkpt lat="45.3032683" lon="7.7644561"><ele>258.0</ele><time>2026-03-29T08:40:59.192Z</time></trkpt><trkpt lat="45.3032809" lon="7.7646096"><ele>258.0</ele><time>2026-03-29T08:41:00.191Z</time></trkpt><trkpt lat="45.3032775" lon="7.7647903"><ele>257.8</ele><time>2026-03-29T08:41:01.187Z</time></trkpt><trkpt lat="45.3032596" lon="7.7649745"><ele>257.6</ele><time>2026-03-29T08:41:02.194Z</time></trkpt><trkpt lat="45.3032377" lon="7.7651288"><ele>257.4</ele><time>2026-03-29T08:41:03.19Z</time></trkpt><trkpt lat="45.303221" lon="7.7652544"><ele>257.2</ele><time>2026-03-29T08:41:04.194Z</time></trkpt><trkpt lat="45.3031715" lon="7.7654032"><ele>257.0</ele><time>2026-03-29T08:41:06.188Z</time></trkpt><trkpt lat="45.3031128" lon="7.7654854"><ele>257.0</ele><time>2026-03-29T08:41:07.187Z</time></trkpt><trkpt lat="45.3030303" lon="7.7655985"><ele>257.0</ele><time>2026-03-29T08:41:08.181Z</time></trkpt><trkpt lat="45.3029234" lon="7.7657158"><ele>257.0</ele><time>2026-03-29T08:41:09.194Z</time></trkpt><trkpt lat="45.3028153" lon="7.7658244"><ele>257.0</ele><time>2026-03-29T08:41:10.192Z</time></trkpt><trkpt lat="45.3027545" lon="7.7658912"><ele>257.0</ele><time>2026-03-29T08:41:11.18Z</time></trkpt><trkpt lat="45.302718" lon="7.765987"><ele>257.0</ele><time>2026-03-29T08:41:12.182Z</time></trkpt><trkpt lat="45.3026897" lon="7.7660823"><ele>257.0</ele><time>2026-03-29T08:41:13.184Z</time></trkpt><trkpt lat="45.3026695" lon="7.7661864"><ele>257.0</ele><time>2026-03-29T08:41:14.208Z</time></trkpt><trkpt lat="45.302657" lon="7.7663128"><ele>257.0</ele><time>2026-03-29T08:41:15.187Z</time></trkpt><trkpt lat="45.3026568" lon="7.7664452"><ele>257.0</ele><time>2026-03-29T08:41:16.18Z</time></trkpt><trkpt lat="45.3026529" lon="7.7665779"><ele>257.0</ele><time>2026-03-29T08:41:17.181Z</time></trkpt><trkpt lat="45.3026334" lon="7.7666916"><ele>257.0</ele><time>2026-03-29T08:41:18.177Z</time></trkpt><trkpt lat="45.3026079" lon="7.7667856"><ele>257.0</ele><time>2026-03-29T08:41:19.179Z</time></trkpt><trkpt lat="45.3025541" lon="7.7668887"><ele>257.0</ele><time>2026-03-29T08:41:20.19Z</time></trkpt><trkpt lat="45.302486" lon="7.7669756"><ele>257.0</ele><time>2026-03-29T08:41:21.185Z</time></trkpt><trkpt lat="45.3024059" lon="7.7670746"><ele>257.0</ele><time>2026-03-29T08:41:22.186Z</time></trkpt><trkpt lat="45.3023014" lon="7.7671721"><ele>257.33333333333337</ele><time>2026-03-29T08:41:23.197Z</time></trkpt><trkpt lat="45.3021712" lon="7.7672904"><ele>257.6666666666667</ele><time>2026-03-29T08:41:24.188Z</time></trkpt><trkpt lat="45.3020261" lon="7.7674163"><ele>258.0</ele><time>2026-03-29T08:41:25.19Z</time></trkpt><trkpt lat="45.3018945" lon="7.767555"><ele>257.3333333333333</ele><time>2026-03-29T08:41:26.204Z</time></trkpt><trkpt lat="45.3017675" lon="7.7676963"><ele>256.66666666666663</ele><time>2026-03-29T08:41:27.189Z</time></trkpt><trkpt lat="45.3016389" lon="7.767828"><ele>256.0</ele><time>2026-03-29T08:41:28.182Z</time></trkpt><trkpt lat="45.3015184" lon="7.7679465"><ele>255.66666666666666</ele><time>2026-03-29T08:41:29.192Z</time></trkpt><trkpt lat="45.3013925" lon="7.7680516"><ele>255.33333333333331</ele><time>2026-03-29T08:41:30.195Z</time></trkpt><trkpt lat="45.3012677" lon="7.7681764"><ele>255.0</ele><time>2026-03-29T08:41:31.204Z</time></trkpt><trkpt lat="45.3011381" lon="7.7683045"><ele>255.0</ele><time>2026-03-29T08:41:32.184Z</time></trkpt><trkpt lat="45.3009956" lon="7.7684349"><ele>255.0</ele><time>2026-03-29T08:41:33.194Z</time></trkpt><trkpt lat="45.3008566" lon="7.7685629"><ele>255.0</ele><time>2026-03-29T08:41:34.191Z</time></trkpt><trkpt lat="45.300725" lon="7.7686806"><ele>254.5</ele><time>2026-03-29T08:41:35.183Z</time></trkpt><trkpt lat="45.3005998" lon="7.7687971"><ele>254.0</ele><time>2026-03-29T08:41:36.186Z</time></trkpt><trkpt lat="45.3004757" lon="7.7689162"><ele>253.5</ele><time>2026-03-29T08:41:37.182Z</time></trkpt><trkpt lat="45.3003544" lon="7.7690352"><ele>253.0</ele><time>2026-03-29T08:41:38.195Z</time></trkpt><trkpt lat="45.3002255" lon="7.7691577"><ele>253.0</ele><time>2026-03-29T08:41:39.193Z</time></trkpt><trkpt lat="45.3000902" lon="7.7692943"><ele>253.0</ele><time>2026-03-29T08:41:40.196Z</time></trkpt><trkpt lat="45.2999501" lon="7.7694216"><ele>253.0</ele><time>2026-03-29T08:41:41.201Z</time></trkpt><trkpt lat="45.2998237" lon="7.7695512"><ele>253.0</ele><time>2026-03-29T08:41:42.172Z</time></trkpt><trkpt lat="45.2996955" lon="7.7696683"><ele>253.0</ele><time>2026-03-29T08:41:43.206Z</time></trkpt><trkpt lat="45.2995766" lon="7.7697866"><ele>253.0</ele><time>2026-03-29T08:41:44.186Z</time></trkpt><trkpt lat="45.2994615" lon="7.769897"><ele>253.0</ele><time>2026-03-29T08:41:45.191Z</time></trkpt><trkpt lat="45.2993503" lon="7.7700054"><ele>253.0</ele><time>2026-03-29T08:41:46.188Z</time></trkpt><trkpt lat="45.2992538" lon="7.7700961"><ele>253.0</ele><time>2026-03-29T08:41:47.184Z</time></trkpt><trkpt lat="45.2991727" lon="7.7701761"><ele>253.0</ele><time>2026-03-29T08:41:48.193Z</time></trkpt><trkpt lat="45.2991108" lon="7.7702193"><ele>253.0</ele><time>2026-03-29T08:41:49.183Z</time></trkpt><trkpt lat="45.2990102" lon="7.7702247"><ele>253.0</ele><time>2026-03-29T08:41:51.185Z</time></trkpt><trkpt lat="45.2989182" lon="7.7700883"><ele>253.25</ele><time>2026-03-29T08:41:53.176Z</time></trkpt><trkpt lat="45.2988687" lon="7.7699266"><ele>253.5</ele><time>2026-03-29T08:41:54.174Z</time></trkpt><trkpt lat="45.2988212" lon="7.7697414"><ele>253.75</ele><time>2026-03-29T08:41:55.179Z</time></trkpt><trkpt lat="45.2987776" lon="7.7695845"><ele>254.0</ele><time>2026-03-29T08:41:56.187Z</time></trkpt><trkpt lat="45.2987411" lon="7.7694709"><ele>254.00000000000003</ele><time>2026-03-29T08:41:57.19Z</time></trkpt><trkpt lat="45.2987063" lon="7.7693643"><ele>254.0</ele><time>2026-03-29T08:41:58.177Z</time></trkpt><trkpt lat="45.2986781" lon="7.7692537"><ele>254.0</ele><time>2026-03-29T08:41:59.203Z</time></trkpt><trkpt lat="45.2986432" lon="7.7691398"><ele>254.0</ele><time>2026-03-29T08:42:00.188Z</time></trkpt><trkpt lat="45.2986104" lon="7.7690257"><ele>254.00000000000003</ele><time>2026-03-29T08:42:01.197Z</time></trkpt><trkpt lat="45.2985833" lon="7.7689192"><ele>254.0</ele><time>2026-03-29T08:42:02.205Z</time></trkpt><trkpt lat="45.2985548" lon="7.7688118"><ele>253.57142857142858</ele><time>2026-03-29T08:42:03.192Z</time></trkpt><trkpt lat="45.2985216" lon="7.7687005"><ele>253.1428571428571</ele><time>2026-03-29T08:42:04.191Z</time></trkpt><trkpt lat="45.2984914" lon="7.7685914"><ele>252.7142857142857</ele><time>2026-03-29T08:42:05.191Z</time></trkpt><trkpt lat="45.2984657" lon="7.7684945"><ele>252.28571428571428</ele><time>2026-03-29T08:42:06.198Z</time></trkpt><trkpt lat="45.2984432" lon="7.7683992"><ele>251.85714285714283</ele><time>2026-03-29T08:42:07.205Z</time></trkpt><trkpt lat="45.2984198" lon="7.7683067"><ele>251.4285714285714</ele><time>2026-03-29T08:42:08.2Z</time></trkpt><trkpt lat="45.2983939" lon="7.7682155"><ele>250.99999999999997</ele><time>2026-03-29T08:42:09.199Z</time></trkpt><trkpt lat="45.2983584" lon="7.7681138"><ele>250.83333333333334</ele><time>2026-03-29T08:42:10.18Z</time></trkpt><trkpt lat="45.2983328" lon="7.7680176"><ele>250.66666666666669</ele><time>2026-03-29T08:42:11.181Z</time></trkpt><trkpt lat="45.2983011" lon="7.7679241"><ele>250.5</ele><time>2026-03-29T08:42:12.195Z</time></trkpt><trkpt lat="45.2982669" lon="7.7678135"><ele>250.33333333333331</ele><time>2026-03-29T08:42:13.185Z</time></trkpt><trkpt lat="45.2982276" lon="7.7676988"><ele>250.16666666666666</ele><time>2026-03-29T08:42:14.201Z</time></trkpt><trkpt lat="45.2981847" lon="7.7675685"><ele>250.0</ele><time>2026-03-29T08:42:15.177Z</time></trkpt><trkpt lat="45.2981393" lon="7.7674192"><ele>250.5</ele><time>2026-03-29T08:42:16.185Z</time></trkpt><trkpt lat="45.2980818" lon="7.7672517"><ele>251.0</ele><time>2026-03-29T08:42:17.178Z</time></trkpt><trkpt lat="45.2980212" lon="7.767068"><ele>251.5</ele><time>2026-03-29T08:42:18.203Z</time></trkpt><trkpt lat="45.2979586" lon="7.7668779"><ele>252.0</ele><time>2026-03-29T08:42:19.19Z</time></trkpt><trkpt lat="45.2978956" lon="7.7666934"><ele>252.0</ele><time>2026-03-29T08:42:20.196Z</time></trkpt><trkpt lat="45.2978361" lon="7.7665053"><ele>252.0</ele><time>2026-03-29T08:42:21.192Z</time></trkpt><trkpt lat="45.2977725" lon="7.7663214"><ele>252.0</ele><time>2026-03-29T08:42:22.193Z</time></trkpt><trkpt lat="45.2977139" lon="7.7661312"><ele>252.0</ele><time>2026-03-29T08:42:23.206Z</time></trkpt><trkpt lat="45.2976589" lon="7.7659455"><ele>252.25</ele><time>2026-03-29T08:42:24.184Z</time></trkpt><trkpt lat="45.2976014" lon="7.7657648"><ele>252.5</ele><time>2026-03-29T08:42:25.187Z</time></trkpt><trkpt lat="45.2975523" lon="7.7655976"><ele>252.75</ele><time>2026-03-29T08:42:26.185Z</time></trkpt><trkpt lat="45.2974969" lon="7.7654321"><ele>253.0</ele><time>2026-03-29T08:42:27.205Z</time></trkpt><trkpt lat="45.2974401" lon="7.7652636"><ele>253.0</ele><time>2026-03-29T08:42:28.189Z</time></trkpt><trkpt lat="45.2973911" lon="7.7651088"><ele>253.0</ele><time>2026-03-29T08:42:29.198Z</time></trkpt><trkpt lat="45.2973386" lon="7.7649443"><ele>253.0</ele><time>2026-03-29T08:42:30.198Z</time></trkpt><trkpt lat="45.2972813" lon="7.7647703"><ele>253.0</ele><time>2026-03-29T08:42:31.198Z</time></trkpt><trkpt lat="45.297227" lon="7.7645835"><ele>252.5</ele><time>2026-03-29T08:42:32.176Z</time></trkpt><trkpt lat="45.2971637" lon="7.7643892"><ele>252.0</ele><time>2026-03-29T08:42:33.193Z</time></trkpt><trkpt lat="45.2971041" lon="7.7641973"><ele>251.5</ele><time>2026-03-29T08:42:34.192Z</time></trkpt><trkpt lat="45.2970469" lon="7.7640137"><ele>251.0</ele><time>2026-03-29T08:42:35.183Z</time></trkpt><trkpt lat="45.2969958" lon="7.7638235"><ele>250.75</ele><time>2026-03-29T08:42:36.175Z</time></trkpt><trkpt lat="45.2969446" lon="7.7636438"><ele>250.5</ele><time>2026-03-29T08:42:37.192Z</time></trkpt><trkpt lat="45.2968907" lon="7.763476"><ele>250.25</ele><time>2026-03-29T08:42:38.176Z</time></trkpt><trkpt lat="45.2968514" lon="7.7633289"><ele>250.0</ele><time>2026-03-29T08:42:39.186Z</time></trkpt><trkpt lat="45.296812" lon="7.7631937"><ele>250.33333333333331</ele><time>2026-03-29T08:42:40.172Z</time></trkpt><trkpt lat="45.2967757" lon="7.7630623"><ele>250.66666666666666</ele><time>2026-03-29T08:42:41.176Z</time></trkpt><trkpt lat="45.2967493" lon="7.7629565"><ele>251.0</ele><time>2026-03-29T08:42:42.181Z</time></trkpt><trkpt lat="45.2967" lon="7.762835"><ele>251.33333333333331</ele><time>2026-03-29T08:42:44.179Z</time></trkpt><trkpt lat="45.2966275" lon="7.7628275"><ele>251.66666666666666</ele><time>2026-03-29T08:42:46.175Z</time></trkpt><trkpt lat="45.29658" lon="7.7629061"><ele>252.0</ele><time>2026-03-29T08:42:47.182Z</time></trkpt><trkpt lat="45.296487" lon="7.7630207"><ele>252.0</ele><time>2026-03-29T08:42:48.187Z</time></trkpt><trkpt lat="45.2963822" lon="7.7631303"><ele>252.0</ele><time>2026-03-29T08:42:49.183Z</time></trkpt><trkpt lat="45.2962871" lon="7.7632182"><ele>252.0</ele><time>2026-03-29T08:42:50.177Z</time></trkpt><trkpt lat="45.2961855" lon="7.7633047"><ele>252.0</ele><time>2026-03-29T08:42:51.182Z</time></trkpt><trkpt lat="45.2960735" lon="7.7633907"><ele>252.0</ele><time>2026-03-29T08:42:52.198Z</time></trkpt><trkpt lat="45.2959403" lon="7.7634848"><ele>252.0</ele><time>2026-03-29T08:42:53.179Z</time></trkpt><trkpt lat="45.2958058" lon="7.7635925"><ele>252.0</ele><time>2026-03-29T08:42:54.201Z</time></trkpt><trkpt lat="45.2956651" lon="7.7636973"><ele>251.5</ele><time>2026-03-29T08:42:55.196Z</time></trkpt><trkpt lat="45.2955336" lon="7.763791"><ele>251.0</ele><time>2026-03-29T08:42:56.198Z</time></trkpt><trkpt lat="45.2954038" lon="7.7639004"><ele>250.5</ele><time>2026-03-29T08:42:57.184Z</time></trkpt><trkpt lat="45.2952853" lon="7.7639951"><ele>250.0</ele><time>2026-03-29T08:42:58.193Z</time></trkpt><trkpt lat="45.2951693" lon="7.7641034"><ele>250.0</ele><time>2026-03-29T08:42:59.192Z</time></trkpt><trkpt lat="45.2950474" lon="7.7642242"><ele>250.0</ele><time>2026-03-29T08:43:00.193Z</time></trkpt><trkpt lat="45.2949312" lon="7.7643366"><ele>250.0</ele><time>2026-03-29T08:43:01.196Z</time></trkpt><trkpt lat="45.2948117" lon="7.7644317"><ele>250.0</ele><time>2026-03-29T08:43:02.177Z</time></trkpt><trkpt lat="45.2946856" lon="7.7645234"><ele>250.0</ele><time>2026-03-29T08:43:03.187Z</time></trkpt><trkpt lat="45.2945496" lon="7.7646156"><ele>250.0</ele><time>2026-03-29T08:43:04.183Z</time></trkpt><trkpt lat="45.2944171" lon="7.7647094"><ele>250.0</ele><time>2026-03-29T08:43:05.184Z</time></trkpt><trkpt lat="45.2942896" lon="7.7647948"><ele>250.0</ele><time>2026-03-29T08:43:06.182Z</time></trkpt><trkpt lat="45.2941568" lon="7.7648893"><ele>250.0</ele><time>2026-03-29T08:43:07.192Z</time></trkpt><trkpt lat="45.2940181" lon="7.7649799"><ele>250.0</ele><time>2026-03-29T08:43:08.199Z</time></trkpt><trkpt lat="45.29388" lon="7.7650684"><ele>250.0</ele><time>2026-03-29T08:43:09.192Z</time></trkpt><trkpt lat="45.2937599" lon="7.7651508"><ele>250.0</ele><time>2026-03-29T08:43:10.182Z</time></trkpt><trkpt lat="45.2936448" lon="7.7652231"><ele>250.0</ele><time>2026-03-29T08:43:11.185Z</time></trkpt><trkpt lat="45.2935471" lon="7.7652886"><ele>250.0</ele><time>2026-03-29T08:43:12.193Z</time></trkpt><trkpt lat="45.2934567" lon="7.7653554"><ele>250.0</ele><time>2026-03-29T08:43:13.194Z</time></trkpt><trkpt lat="45.2933653" lon="7.7654463"><ele>250.0</ele><time>2026-03-29T08:43:14.188Z</time></trkpt><trkpt lat="45.293263" lon="7.7655707"><ele>250.0</ele><time>2026-03-29T08:43:15.175Z</time></trkpt><trkpt lat="45.2931571" lon="7.7656783"><ele>250.0</ele><time>2026-03-29T08:43:16.196Z</time></trkpt><trkpt lat="45.2930554" lon="7.7657704"><ele>250.0</ele><time>2026-03-29T08:43:17.182Z</time></trkpt><trkpt lat="45.2929543" lon="7.7658628"><ele>250.0</ele><time>2026-03-29T08:43:18.173Z</time></trkpt><trkpt lat="45.292842" lon="7.7659476"><ele>249.5</ele><time>2026-03-29T08:43:19.168Z</time></trkpt><trkpt lat="45.292728" lon="7.7660425"><ele>249.0</ele><time>2026-03-29T08:43:20.177Z</time></trkpt><trkpt lat="45.2926088" lon="7.7661379"><ele>248.5</ele><time>2026-03-29T08:43:21.17Z</time></trkpt><trkpt lat="45.2924888" lon="7.7662323"><ele>248.0</ele><time>2026-03-29T08:43:22.167Z</time></trkpt><trkpt lat="45.2923648" lon="7.766319"><ele>247.75</ele><time>2026-03-29T08:43:23.165Z</time></trkpt><trkpt lat="45.2922377" lon="7.7664091"><ele>247.5</ele><time>2026-03-29T08:43:24.197Z</time></trkpt><trkpt lat="45.2921056" lon="7.7665024"><ele>247.25</ele><time>2026-03-29T08:43:25.206Z</time></trkpt><trkpt lat="45.2919687" lon="7.7665921"><ele>247.0</ele><time>2026-03-29T08:43:26.204Z</time></trkpt><trkpt lat="45.2918307" lon="7.7666835"><ele>247.0</ele><time>2026-03-29T08:43:27.193Z</time></trkpt><trkpt lat="45.2916933" lon="7.7667742"><ele>247.0</ele><time>2026-03-29T08:43:28.198Z</time></trkpt><trkpt lat="45.2915658" lon="7.7668552"><ele>247.0</ele><time>2026-03-29T08:43:29.198Z</time></trkpt><trkpt lat="45.291443" lon="7.7669328"><ele>247.0</ele><time>2026-03-29T08:43:30.183Z</time></trkpt><trkpt lat="45.2913198" lon="7.7670114"><ele>247.0</ele><time>2026-03-29T08:43:31.19Z</time></trkpt><trkpt lat="45.2911959" lon="7.7670978"><ele>247.0</ele><time>2026-03-29T08:43:32.186Z</time></trkpt><trkpt lat="45.2910751" lon="7.7672008"><ele>247.0</ele><time>2026-03-29T08:43:33.182Z</time></trkpt><trkpt lat="45.2909594" lon="7.767313"><ele>247.0</ele><time>2026-03-29T08:43:34.2Z</time></trkpt><trkpt lat="45.2908377" lon="7.7674265"><ele>247.0</ele><time>2026-03-29T08:43:35.181Z</time></trkpt><trkpt lat="45.2907142" lon="7.7675514"><ele>247.0</ele><time>2026-03-29T08:43:36.19Z</time></trkpt><trkpt lat="45.2905955" lon="7.7676693"><ele>247.0</ele><time>2026-03-29T08:43:37.181Z</time></trkpt><trkpt lat="45.2904855" lon="7.7677797"><ele>247.0</ele><time>2026-03-29T08:43:38.187Z</time></trkpt><trkpt lat="45.2903764" lon="7.7678929"><ele>247.5</ele><time>2026-03-29T08:43:39.188Z</time></trkpt><trkpt lat="45.2902621" lon="7.7680079"><ele>248.0</ele><time>2026-03-29T08:43:40.188Z</time></trkpt><trkpt lat="45.2901433" lon="7.7681325"><ele>248.5</ele><time>2026-03-29T08:43:41.187Z</time></trkpt><trkpt lat="45.2900227" lon="7.7682614"><ele>249.0</ele><time>2026-03-29T08:43:42.186Z</time></trkpt><trkpt lat="45.2899056" lon="7.7683824"><ele>249.0</ele><time>2026-03-29T08:43:43.187Z</time></trkpt><trkpt lat="45.2897903" lon="7.768515"><ele>249.0</ele><time>2026-03-29T08:43:44.193Z</time></trkpt><trkpt lat="45.2896753" lon="7.7686454"><ele>249.0</ele><time>2026-03-29T08:43:45.194Z</time></trkpt><trkpt lat="45.2895476" lon="7.7687951"><ele>248.66666666666669</ele><time>2026-03-29T08:43:46.172Z</time></trkpt><trkpt lat="45.289432" lon="7.7689516"><ele>248.33333333333334</ele><time>2026-03-29T08:43:47.189Z</time></trkpt><trkpt lat="45.2893156" lon="7.7691095"><ele>248.0</ele><time>2026-03-29T08:43:48.2Z</time></trkpt><trkpt lat="45.2891912" lon="7.7692676"><ele>248.0</ele><time>2026-03-29T08:43:49.201Z</time></trkpt><trkpt lat="45.2890728" lon="7.7694137"><ele>248.0</ele><time>2026-03-29T08:43:50.192Z</time></trkpt><trkpt lat="45.2889657" lon="7.7695417"><ele>248.0</ele><time>2026-03-29T08:43:51.191Z</time></trkpt><trkpt lat="45.2888712" lon="7.7696501"><ele>248.0</ele><time>2026-03-29T08:43:52.187Z</time></trkpt><trkpt lat="45.2887749" lon="7.7697515"><ele>248.0</ele><time>2026-03-29T08:43:53.201Z</time></trkpt><trkpt lat="45.2886711" lon="7.7698389"><ele>248.0</ele><time>2026-03-29T08:43:54.19Z</time></trkpt><trkpt lat="45.2885465" lon="7.7699201"><ele>248.0</ele><time>2026-03-29T08:43:55.209Z</time></trkpt><trkpt lat="45.2884173" lon="7.7700031"><ele>248.0</ele><time>2026-03-29T08:43:56.176Z</time></trkpt><trkpt lat="45.2883097" lon="7.770091"><ele>248.0</ele><time>2026-03-29T08:43:57.195Z</time></trkpt><trkpt lat="45.2882198" lon="7.7701757"><ele>248.0</ele><time>2026-03-29T08:43:58.179Z</time></trkpt><trkpt lat="45.2881301" lon="7.7702702"><ele>248.0</ele><time>2026-03-29T08:43:59.193Z</time></trkpt><trkpt lat="45.2880582" lon="7.7703735"><ele>248.0</ele><time>2026-03-29T08:44:00.191Z</time></trkpt><trkpt lat="45.2879868" lon="7.7704676"><ele>248.0</ele><time>2026-03-29T08:44:01.183Z</time></trkpt><trkpt lat="45.2879058" lon="7.7705427"><ele>247.8</ele><time>2026-03-29T08:44:02.19Z</time></trkpt><trkpt lat="45.2878008" lon="7.7706199"><ele>247.60000000000002</ele><time>2026-03-29T08:44:03.183Z</time></trkpt><trkpt lat="45.2876773" lon="7.770687"><ele>247.39999999999998</ele><time>2026-03-29T08:44:04.186Z</time></trkpt><trkpt lat="45.2875767" lon="7.7707487"><ele>247.2</ele><time>2026-03-29T08:44:05.189Z</time></trkpt><trkpt lat="45.2875048" lon="7.7707967"><ele>247.0</ele><time>2026-03-29T08:44:06.194Z</time></trkpt><trkpt lat="45.2874553" lon="7.7708611"><ele>246.99999999999997</ele><time>2026-03-29T08:44:07.192Z</time></trkpt><trkpt lat="45.2874158" lon="7.7709463"><ele>247.0</ele><time>2026-03-29T08:44:08.188Z</time></trkpt><trkpt lat="45.2873716" lon="7.7710709"><ele>247.0</ele><time>2026-03-29T08:44:09.182Z</time></trkpt><trkpt lat="45.2873373" lon="7.7711907"><ele>247.0</ele><time>2026-03-29T08:44:10.175Z</time></trkpt><trkpt lat="45.2872802" lon="7.7712894"><ele>246.99999999999997</ele><time>2026-03-29T08:44:11.185Z</time></trkpt><trkpt lat="45.2872028" lon="7.7713641"><ele>247.0</ele><time>2026-03-29T08:44:12.182Z</time></trkpt><trkpt lat="45.2871046" lon="7.7714354"><ele>246.75</ele><time>2026-03-29T08:44:13.19Z</time></trkpt><trkpt lat="45.2870011" lon="7.7715"><ele>246.5</ele><time>2026-03-29T08:44:14.195Z</time></trkpt><trkpt lat="45.2868684" lon="7.7715837"><ele>246.25</ele><time>2026-03-29T08:44:15.193Z</time></trkpt><trkpt lat="45.2867238" lon="7.7716773"><ele>246.0</ele><time>2026-03-29T08:44:16.201Z</time></trkpt><trkpt lat="45.2865795" lon="7.7717828"><ele>246.0</ele><time>2026-03-29T08:44:17.179Z</time></trkpt><trkpt lat="45.2864211" lon="7.7718997"><ele>246.0</ele><time>2026-03-29T08:44:18.203Z</time></trkpt><trkpt lat="45.2862798" lon="7.7720167"><ele>246.0</ele><time>2026-03-29T08:44:19.173Z</time></trkpt><trkpt lat="45.2861455" lon="7.7721224"><ele>246.0</ele><time>2026-03-29T08:44:20.181Z</time></trkpt><trkpt lat="45.2860316" lon="7.772202"><ele>246.00000000000003</ele><time>2026-03-29T08:44:21.177Z</time></trkpt><trkpt lat="45.2859431" lon="7.7722683"><ele>246.00000000000003</ele><time>2026-03-29T08:44:22.185Z</time></trkpt><trkpt lat="45.2858697" lon="7.7723425"><ele>246.0</ele><time>2026-03-29T08:44:23.175Z</time></trkpt><trkpt lat="45.285802" lon="7.772436"><ele>246.0</ele><time>2026-03-29T08:44:24.175Z</time></trkpt><trkpt lat="45.2857295" lon="7.7725363"><ele>246.0</ele><time>2026-03-29T08:44:25.205Z</time></trkpt><trkpt lat="45.2856592" lon="7.7726187"><ele>246.00000000000003</ele><time>2026-03-29T08:44:26.176Z</time></trkpt><trkpt lat="45.2855828" lon="7.7726794"><ele>246.00000000000003</ele><time>2026-03-29T08:44:27.201Z</time></trkpt><trkpt lat="45.2854911" lon="7.7727293"><ele>246.0</ele><time>2026-03-29T08:44:28.205Z</time></trkpt><trkpt lat="45.2853668" lon="7.7727885"><ele>246.0</ele><time>2026-03-29T08:44:29.182Z</time></trkpt><trkpt lat="45.2852441" lon="7.7728554"><ele>246.0</ele><time>2026-03-29T08:44:30.185Z</time></trkpt><trkpt lat="45.2851469" lon="7.7728991"><ele>246.00000000000003</ele><time>2026-03-29T08:44:31.199Z</time></trkpt><trkpt lat="45.2850637" lon="7.7729528"><ele>246.00000000000003</ele><time>2026-03-29T08:44:32.198Z</time></trkpt><trkpt lat="45.2849903" lon="7.7730222"><ele>246.0</ele><time>2026-03-29T08:44:33.196Z</time></trkpt><trkpt lat="45.2849084" lon="7.7731135"><ele>246.0</ele><time>2026-03-29T08:44:34.187Z</time></trkpt><trkpt lat="45.284817" lon="7.7732105"><ele>245.5</ele><time>2026-03-29T08:44:35.197Z</time></trkpt><trkpt lat="45.2847089" lon="7.7733634"><ele>245.0</ele><time>2026-03-29T08:44:36.184Z</time></trkpt><trkpt lat="45.2846058" lon="7.7735003"><ele>244.5</ele><time>2026-03-29T08:44:37.175Z</time></trkpt><trkpt lat="45.2845193" lon="7.7736145"><ele>244.0</ele><time>2026-03-29T08:44:38.193Z</time></trkpt><trkpt lat="45.2844448" lon="7.7737097"><ele>244.0</ele><time>2026-03-29T08:44:39.188Z</time></trkpt><trkpt lat="45.2843785" lon="7.773782"><ele>243.99999999999997</ele><time>2026-03-29T08:44:40.183Z</time></trkpt><trkpt lat="45.2843" lon="7.7738353"><ele>243.99999999999997</ele><time>2026-03-29T08:44:41.182Z</time></trkpt><trkpt lat="45.2842025" lon="7.773864"><ele>244.0</ele><time>2026-03-29T08:44:42.188Z</time></trkpt><trkpt lat="45.2840611" lon="7.7738846"><ele>244.0</ele><time>2026-03-29T08:44:43.176Z</time></trkpt><trkpt lat="45.283901" lon="7.7739211"><ele>243.79999999999998</ele><time>2026-03-29T08:44:44.188Z</time></trkpt><trkpt lat="45.2837687" lon="7.7739584"><ele>243.59999999999997</ele><time>2026-03-29T08:44:45.187Z</time></trkpt><trkpt lat="45.2836583" lon="7.7739797"><ele>243.4</ele><time>2026-03-29T08:44:46.187Z</time></trkpt><trkpt lat="45.2835699" lon="7.7739985"><ele>243.2</ele><time>2026-03-29T08:44:47.203Z</time></trkpt><trkpt lat="45.2834657" lon="7.7740432"><ele>243.0</ele><time>2026-03-29T08:44:49.183Z</time></trkpt><trkpt lat="45.2834448" lon="7.7741867"><ele>243.0</ele><time>2026-03-29T08:44:51.183Z</time></trkpt><trkpt lat="45.2834744" lon="7.7743045"><ele>243.0</ele><time>2026-03-29T08:44:52.183Z</time></trkpt><trkpt lat="45.2835196" lon="7.7744445"><ele>243.0</ele><time>2026-03-29T08:44:53.182Z</time></trkpt><trkpt lat="45.2835548" lon="7.7745816"><ele>243.0</ele><time>2026-03-29T08:44:54.184Z</time></trkpt><trkpt lat="45.2835858" lon="7.7747248"><ele>243.0</ele><time>2026-03-29T08:44:55.188Z</time></trkpt><trkpt lat="45.2836192" lon="7.7748545"><ele>242.8</ele><time>2026-03-29T08:44:56.19Z</time></trkpt><trkpt lat="45.2836524" lon="7.7749523"><ele>242.60000000000002</ele><time>2026-03-29T08:44:57.181Z</time></trkpt><trkpt lat="45.2836891" lon="7.7750636"><ele>242.39999999999998</ele><time>2026-03-29T08:44:59.182Z</time></trkpt><trkpt lat="45.2836154" lon="7.7751512"><ele>242.2</ele><time>2026-03-29T08:45:02.18Z</time></trkpt><trkpt lat="45.2834941" lon="7.7751815"><ele>242.0</ele><time>2026-03-29T08:45:04.181Z</time></trkpt><trkpt lat="45.283401" lon="7.7752003"><ele>242.00000000000003</ele><time>2026-03-29T08:45:05.177Z</time></trkpt><trkpt lat="45.2833122" lon="7.7752203"><ele>242.0</ele><time>2026-03-29T08:45:06.189Z</time></trkpt><trkpt lat="45.2832326" lon="7.7752349"><ele>242.0</ele><time>2026-03-29T08:45:07.185Z</time></trkpt><trkpt lat="45.2831517" lon="7.775253"><ele>242.0</ele><time>2026-03-29T08:45:08.201Z</time></trkpt><trkpt lat="45.2830753" lon="7.7752696"><ele>242.00000000000003</ele><time>2026-03-29T08:45:09.198Z</time></trkpt><trkpt lat="45.283006" lon="7.7752875"><ele>242.0</ele><time>2026-03-29T08:45:10.182Z</time></trkpt><trkpt lat="45.2828673" lon="7.7753183"><ele>241.6</ele><time>2026-03-29T08:45:12.185Z</time></trkpt><trkpt lat="45.2827913" lon="7.7753345"><ele>241.2</ele><time>2026-03-29T08:45:13.191Z</time></trkpt><trkpt lat="45.2827228" lon="7.7753569"><ele>240.8</ele><time>2026-03-29T08:45:14.19Z</time></trkpt><trkpt lat="45.2826234" lon="7.77543"><ele>240.4</ele><time>2026-03-29T08:45:16.181Z</time></trkpt><trkpt lat="45.2825056" lon="7.7754968"><ele>240.0</ele><time>2026-03-29T08:45:18.187Z</time></trkpt><trkpt lat="45.2824112" lon="7.7755594"><ele>240.0</ele><time>2026-03-29T08:45:19.186Z</time></trkpt><trkpt lat="45.2823245" lon="7.7756133"><ele>240.0</ele><time>2026-03-29T08:45:20.188Z</time></trkpt><trkpt lat="45.2822481" lon="7.7756761"><ele>240.0</ele><time>2026-03-29T08:45:21.193Z</time></trkpt><trkpt lat="45.2821591" lon="7.7757316"><ele>240.0</ele><time>2026-03-29T08:45:22.192Z</time></trkpt><trkpt lat="45.2820898" lon="7.7757829"><ele>240.0</ele><time>2026-03-29T08:45:23.191Z</time></trkpt><trkpt lat="45.2819995" lon="7.7758481"><ele>240.2</ele><time>2026-03-29T08:45:25.181Z</time></trkpt><trkpt lat="45.2819576" lon="7.7759479"><ele>240.4</ele><time>2026-03-29T08:45:27.198Z</time></trkpt><trkpt lat="45.2819731" lon="7.7760893"><ele>240.60000000000002</ele><time>2026-03-29T08:45:29.207Z</time></trkpt><trkpt lat="45.2820185" lon="7.7762109"><ele>240.8</ele><time>2026-03-29T08:45:30.187Z</time></trkpt><trkpt lat="45.2820658" lon="7.7763191"><ele>241.0</ele><time>2026-03-29T08:45:31.187Z</time></trkpt><trkpt lat="45.2821025" lon="7.7764318"><ele>240.60000000000002</ele><time>2026-03-29T08:45:32.179Z</time></trkpt><trkpt lat="45.2821431" lon="7.7765452"><ele>240.20000000000002</ele><time>2026-03-29T08:45:33.193Z</time></trkpt><trkpt lat="45.2821772" lon="7.7766401"><ele>239.79999999999998</ele><time>2026-03-29T08:45:34.194Z</time></trkpt><trkpt lat="45.2822216" lon="7.7767796"><ele>239.39999999999998</ele><time>2026-03-29T08:45:36.193Z</time></trkpt><trkpt lat="45.282199" lon="7.776886"><ele>239.0</ele><time>2026-03-29T08:45:38.196Z</time></trkpt><trkpt lat="45.2821193" lon="7.776974"><ele>238.79999999999998</ele><time>2026-03-29T08:45:40.182Z</time></trkpt><trkpt lat="45.2820229" lon="7.7770091"><ele>238.59999999999997</ele><time>2026-03-29T08:45:41.189Z</time></trkpt><trkpt lat="45.2819201" lon="7.7770602"><ele>238.4</ele><time>2026-03-29T08:45:42.189Z</time></trkpt><trkpt lat="45.2818231" lon="7.77712"><ele>238.2</ele><time>2026-03-29T08:45:43.181Z</time></trkpt><trkpt lat="45.2817248" lon="7.777174"><ele>238.0</ele><time>2026-03-29T08:45:44.185Z</time></trkpt><trkpt lat="45.2816296" lon="7.7772277"><ele>238.0</ele><time>2026-03-29T08:45:45.195Z</time></trkpt><trkpt lat="45.2815512" lon="7.7772723"><ele>238.0</ele><time>2026-03-29T08:45:46.179Z</time></trkpt><trkpt lat="45.2814796" lon="7.7773078"><ele>238.0</ele><time>2026-03-29T08:45:47.195Z</time></trkpt><trkpt lat="45.2814049" lon="7.7773437"><ele>238.0</ele><time>2026-03-29T08:45:48.178Z</time></trkpt><trkpt lat="45.2813179" lon="7.7773835"><ele>238.0</ele><time>2026-03-29T08:45:49.193Z</time></trkpt><trkpt lat="45.2811958" lon="7.7774375"><ele>238.0</ele><time>2026-03-29T08:45:50.194Z</time></trkpt><trkpt lat="45.2810639" lon="7.7775032"><ele>238.0</ele><time>2026-03-29T08:45:51.184Z</time></trkpt><trkpt lat="45.2809656" lon="7.7775485"><ele>238.0</ele><time>2026-03-29T08:45:52.182Z</time></trkpt><trkpt lat="45.2808907" lon="7.7775861"><ele>238.0</ele><time>2026-03-29T08:45:53.204Z</time></trkpt><trkpt lat="45.2808181" lon="7.7776168"><ele>238.0</ele><time>2026-03-29T08:45:54.188Z</time></trkpt><trkpt lat="45.2807407" lon="7.7776418"><ele>238.0</ele><time>2026-03-29T08:45:55.217Z</time></trkpt><trkpt lat="45.2806656" lon="7.7776823"><ele>238.0</ele><time>2026-03-29T08:45:56.191Z</time></trkpt><trkpt lat="45.2805636" lon="7.7777912"><ele>238.0</ele><time>2026-03-29T08:45:58.183Z</time></trkpt><trkpt lat="45.2805217" lon="7.7778869"><ele>238.0</ele><time>2026-03-29T08:45:59.185Z</time></trkpt><trkpt lat="45.2804687" lon="7.7779737"><ele>238.0</ele><time>2026-03-29T08:46:00.195Z</time></trkpt><trkpt lat="45.2803447" lon="7.7780948"><ele>238.0</ele><time>2026-03-29T08:46:02.199Z</time></trkpt><trkpt lat="45.2802302" lon="7.7781611"><ele>238.0</ele><time>2026-03-29T08:46:03.175Z</time></trkpt><trkpt lat="45.2801161" lon="7.7782142"><ele>238.0</ele><time>2026-03-29T08:46:04.18Z</time></trkpt><trkpt lat="45.2800247" lon="7.7782548"><ele>238.0</ele><time>2026-03-29T08:46:05.178Z</time></trkpt><trkpt lat="45.2799367" lon="7.7782841"><ele>238.0</ele><time>2026-03-29T08:46:06.18Z</time></trkpt><trkpt lat="45.2798689" lon="7.778326"><ele>238.0</ele><time>2026-03-29T08:46:07.188Z</time></trkpt><trkpt lat="45.2798166" lon="7.7783784"><ele>238.0</ele><time>2026-03-29T08:46:08.197Z</time></trkpt><trkpt lat="45.2797675" lon="7.7784688"><ele>238.0</ele><time>2026-03-29T08:46:09.182Z</time></trkpt><trkpt lat="45.2797211" lon="7.7785486"><ele>238.0</ele><time>2026-03-29T08:46:10.207Z</time></trkpt><trkpt lat="45.2796711" lon="7.7786053"><ele>238.0</ele><time>2026-03-29T08:46:11.189Z</time></trkpt><trkpt lat="45.2796136" lon="7.7786485"><ele>238.0</ele><time>2026-03-29T08:46:12.177Z</time></trkpt><trkpt lat="45.2795141" lon="7.7786864"><ele>238.0</ele><time>2026-03-29T08:46:13.192Z</time></trkpt><trkpt lat="45.2794037" lon="7.7787072"><ele>237.83333333333331</ele><time>2026-03-29T08:46:14.178Z</time></trkpt><trkpt lat="45.2793185" lon="7.7787247"><ele>237.66666666666666</ele><time>2026-03-29T08:46:15.186Z</time></trkpt><trkpt lat="45.2792333" lon="7.7787358"><ele>237.5</ele><time>2026-03-29T08:46:16.18Z</time></trkpt><trkpt lat="45.2791515" lon="7.778756"><ele>237.33333333333331</ele><time>2026-03-29T08:46:17.193Z</time></trkpt><trkpt lat="45.2790656" lon="7.7787834"><ele>237.16666666666666</ele><time>2026-03-29T08:46:18.185Z</time></trkpt><trkpt lat="45.2789959" lon="7.7788105"><ele>237.0</ele><time>2026-03-29T08:46:19.185Z</time></trkpt><trkpt lat="45.2788966" lon="7.7787944"><ele>237.75</ele><time>2026-03-29T08:46:21.183Z</time></trkpt><trkpt lat="45.2788206" lon="7.7786863"><ele>238.5</ele><time>2026-03-29T08:46:23.177Z</time></trkpt><trkpt lat="45.2787933" lon="7.7785617"><ele>239.25</ele><time>2026-03-29T08:46:24.197Z</time></trkpt><trkpt lat="45.2787425" lon="7.7783913"><ele>240.0</ele><time>2026-03-29T08:46:25.182Z</time></trkpt><trkpt lat="45.2786931" lon="7.7782215"><ele>240.0</ele><time>2026-03-29T08:46:26.19Z</time></trkpt><trkpt lat="45.2786437" lon="7.7780689"><ele>240.0</ele><time>2026-03-29T08:46:27.186Z</time></trkpt><trkpt lat="45.278614" lon="7.7779273"><ele>240.0</ele><time>2026-03-29T08:46:28.184Z</time></trkpt><trkpt lat="45.2785628" lon="7.7777778"><ele>240.0</ele><time>2026-03-29T08:46:29.185Z</time></trkpt><trkpt lat="45.2785046" lon="7.7776373"><ele>239.8</ele><time>2026-03-29T08:46:30.202Z</time></trkpt><trkpt lat="45.2784452" lon="7.7775031"><ele>239.6</ele><time>2026-03-29T08:46:31.187Z</time></trkpt><trkpt lat="45.2783902" lon="7.7773578"><ele>239.39999999999998</ele><time>2026-03-29T08:46:32.181Z</time></trkpt><trkpt lat="45.2783325" lon="7.7772143"><ele>239.2</ele><time>2026-03-29T08:46:33.188Z</time></trkpt><trkpt lat="45.2782912" lon="7.7771009"><ele>239.0</ele><time>2026-03-29T08:46:34.177Z</time></trkpt><trkpt lat="45.278266" lon="7.7769898"><ele>239.0</ele><time>2026-03-29T08:46:35.192Z</time></trkpt><trkpt lat="45.2782392" lon="7.7768795"><ele>238.99999999999997</ele><time>2026-03-29T08:46:36.175Z</time></trkpt><trkpt lat="45.2782012" lon="7.7767523"><ele>238.99999999999997</ele><time>2026-03-29T08:46:37.176Z</time></trkpt><trkpt lat="45.2781456" lon="7.7766086"><ele>239.0</ele><time>2026-03-29T08:46:38.186Z</time></trkpt><trkpt lat="45.2780833" lon="7.7764542"><ele>239.0</ele><time>2026-03-29T08:46:39.183Z</time></trkpt><trkpt lat="45.2780319" lon="7.7763059"><ele>239.0</ele><time>2026-03-29T08:46:40.187Z</time></trkpt><trkpt lat="45.2779804" lon="7.7761376"><ele>239.0</ele><time>2026-03-29T08:46:41.196Z</time></trkpt><trkpt lat="45.2779248" lon="7.7759559"><ele>239.0</ele><time>2026-03-29T08:46:42.19Z</time></trkpt><trkpt lat="45.2778721" lon="7.7757693"><ele>239.0</ele><time>2026-03-29T08:46:43.189Z</time></trkpt><trkpt lat="45.2778298" lon="7.7756061"><ele>239.0</ele><time>2026-03-29T08:46:44.187Z</time></trkpt><trkpt lat="45.2777924" lon="7.7754856"><ele>238.99999999999997</ele><time>2026-03-29T08:46:45.179Z</time></trkpt><trkpt lat="45.2777699" lon="7.775397"><ele>238.99999999999997</ele><time>2026-03-29T08:46:46.188Z</time></trkpt><trkpt lat="45.2777295" lon="7.7752359"><ele>239.0</ele><time>2026-03-29T08:46:48.193Z</time></trkpt><trkpt lat="45.2776801" lon="7.7751049"><ele>239.0</ele><time>2026-03-29T08:46:49.181Z</time></trkpt><trkpt lat="45.2776202" lon="7.774962"><ele>239.2</ele><time>2026-03-29T08:46:50.178Z</time></trkpt><trkpt lat="45.2775725" lon="7.7748251"><ele>239.39999999999998</ele><time>2026-03-29T08:46:51.186Z</time></trkpt><trkpt lat="45.2775327" lon="7.7746972"><ele>239.6</ele><time>2026-03-29T08:46:52.183Z</time></trkpt><trkpt lat="45.2774987" lon="7.7745726"><ele>239.8</ele><time>2026-03-29T08:46:53.201Z</time></trkpt><trkpt lat="45.2774665" lon="7.774456"><ele>240.0</ele><time>2026-03-29T08:46:54.19Z</time></trkpt><trkpt lat="45.2774345" lon="7.7743523"><ele>240.16666666666666</ele><time>2026-03-29T08:46:55.179Z</time></trkpt><trkpt lat="45.2774077" lon="7.7742466"><ele>240.33333333333331</ele><time>2026-03-29T08:46:56.203Z</time></trkpt><trkpt lat="45.2773791" lon="7.7741469"><ele>240.5</ele><time>2026-03-29T08:46:57.2Z</time></trkpt><trkpt lat="45.2773437" lon="7.7740633"><ele>240.66666666666666</ele><time>2026-03-29T08:46:58.188Z</time></trkpt><trkpt lat="45.277294" lon="7.7739836"><ele>240.83333333333331</ele><time>2026-03-29T08:46:59.195Z</time></trkpt><trkpt lat="45.2772403" lon="7.7739049"><ele>241.0</ele><time>2026-03-29T08:47:00.179Z</time></trkpt><trkpt lat="45.2771182" lon="7.773859"><ele>241.20000000000002</ele><time>2026-03-29T08:47:02.182Z</time></trkpt><trkpt lat="45.277044" lon="7.7738591"><ele>241.40000000000003</ele><time>2026-03-29T08:47:03.199Z</time></trkpt><trkpt lat="45.2769658" lon="7.7738675"><ele>241.6</ele><time>2026-03-29T08:47:04.172Z</time></trkpt><trkpt lat="45.2768285" lon="7.7739164"><ele>241.8</ele><time>2026-03-29T08:47:06.185Z</time></trkpt><trkpt lat="45.2767152" lon="7.7739552"><ele>242.0</ele><time>2026-03-29T08:47:07.176Z</time></trkpt><trkpt lat="45.2765899" lon="7.7739773"><ele>242.0</ele><time>2026-03-29T08:47:08.194Z</time></trkpt><trkpt lat="45.276495" lon="7.7739883"><ele>242.0</ele><time>2026-03-29T08:47:09.181Z</time></trkpt><trkpt lat="45.2764103" lon="7.7740099"><ele>242.0</ele><time>2026-03-29T08:47:10.197Z</time></trkpt><trkpt lat="45.2763215" lon="7.7740465"><ele>242.0</ele><time>2026-03-29T08:47:11.185Z</time></trkpt><trkpt lat="45.2762426" lon="7.774096"><ele>242.0</ele><time>2026-03-29T08:47:12.187Z</time></trkpt><trkpt lat="45.2761575" lon="7.7741723"><ele>241.75</ele><time>2026-03-29T08:47:13.186Z</time></trkpt><trkpt lat="45.2760552" lon="7.7742643"><ele>241.5</ele><time>2026-03-29T08:47:14.17Z</time></trkpt><trkpt lat="45.2759429" lon="7.7743699"><ele>241.25</ele><time>2026-03-29T08:47:15.187Z</time></trkpt><trkpt lat="45.2758301" lon="7.7744738"><ele>241.0</ele><time>2026-03-29T08:47:16.179Z</time></trkpt><trkpt lat="45.2757352" lon="7.7745599"><ele>240.4</ele><time>2026-03-29T08:47:17.179Z</time></trkpt><trkpt lat="45.275643" lon="7.7746283"><ele>239.8</ele><time>2026-03-29T08:47:18.2Z</time></trkpt><trkpt lat="45.2755489" lon="7.7747095"><ele>239.20000000000002</ele><time>2026-03-29T08:47:19.184Z</time></trkpt><trkpt lat="45.2754545" lon="7.7747891"><ele>238.60000000000002</ele><time>2026-03-29T08:47:20.176Z</time></trkpt><trkpt lat="45.2753713" lon="7.7748651"><ele>238.0</ele><time>2026-03-29T08:47:21.21Z</time></trkpt><trkpt lat="45.2752867" lon="7.7749251"><ele>238.0</ele><time>2026-03-29T08:47:22.188Z</time></trkpt><trkpt lat="45.2752005" lon="7.7749616"><ele>238.0</ele><time>2026-03-29T08:47:23.178Z</time></trkpt><trkpt lat="45.2751093" lon="7.7749903"><ele>238.0</ele><time>2026-03-29T08:47:24.183Z</time></trkpt><trkpt lat="45.2750182" lon="7.7750313"><ele>238.0</ele><time>2026-03-29T08:47:25.186Z</time></trkpt><trkpt lat="45.2749354" lon="7.7750647"><ele>238.0</ele><time>2026-03-29T08:47:26.183Z</time></trkpt><trkpt lat="45.274845" lon="7.7750934"><ele>237.75</ele><time>2026-03-29T08:47:27.197Z</time></trkpt><trkpt lat="45.2747562" lon="7.7751252"><ele>237.5</ele><time>2026-03-29T08:47:28.196Z</time></trkpt><trkpt lat="45.2746543" lon="7.77516"><ele>237.25</ele><time>2026-03-29T08:47:29.184Z</time></trkpt><trkpt lat="45.2745357" lon="7.7752064"><ele>237.0</ele><time>2026-03-29T08:47:30.185Z</time></trkpt><trkpt lat="45.2744033" lon="7.7752582"><ele>237.0</ele><time>2026-03-29T08:47:31.198Z</time></trkpt><trkpt lat="45.274267" lon="7.7753087"><ele>237.0</ele><time>2026-03-29T08:47:32.183Z</time></trkpt><trkpt lat="45.2741343" lon="7.7753548"><ele>237.0</ele><time>2026-03-29T08:47:33.196Z</time></trkpt><trkpt lat="45.2739941" lon="7.7754039"><ele>237.0</ele><time>2026-03-29T08:47:34.194Z</time></trkpt><trkpt lat="45.2738553" lon="7.7754551"><ele>237.0</ele><time>2026-03-29T08:47:35.196Z</time></trkpt><trkpt lat="45.2737099" lon="7.7755105"><ele>237.0</ele><time>2026-03-29T08:47:36.196Z</time></trkpt><trkpt lat="45.273565" lon="7.7755628"><ele>237.0</ele><time>2026-03-29T08:47:37.185Z</time></trkpt><trkpt lat="45.2734184" lon="7.7756099"><ele>237.0</ele><time>2026-03-29T08:47:38.194Z</time></trkpt><trkpt lat="45.273269" lon="7.7756569"><ele>237.0</ele><time>2026-03-29T08:47:39.2Z</time></trkpt><trkpt lat="45.2731167" lon="7.7757123"><ele>237.0</ele><time>2026-03-29T08:47:40.192Z</time></trkpt><trkpt lat="45.2729635" lon="7.775772"><ele>236.33333333333331</ele><time>2026-03-29T08:47:41.201Z</time></trkpt><trkpt lat="45.2727977" lon="7.775826"><ele>235.66666666666666</ele><time>2026-03-29T08:47:42.212Z</time></trkpt><trkpt lat="45.2726411" lon="7.775876"><ele>235.0</ele><time>2026-03-29T08:47:43.184Z</time></trkpt><trkpt lat="45.2724857" lon="7.7759209"><ele>235.0</ele><time>2026-03-29T08:47:44.195Z</time></trkpt><trkpt lat="45.2723257" lon="7.7759835"><ele>235.0</ele><time>2026-03-29T08:47:45.183Z</time></trkpt><trkpt lat="45.2721656" lon="7.776051"><ele>235.0</ele><time>2026-03-29T08:47:46.181Z</time></trkpt><trkpt lat="45.2720058" lon="7.7761084"><ele>235.0</ele><time>2026-03-29T08:47:47.188Z</time></trkpt><trkpt lat="45.271855" lon="7.7761679"><ele>235.0</ele><time>2026-03-29T08:47:48.19Z</time></trkpt><trkpt lat="45.2717153" lon="7.7762157"><ele>235.0</ele><time>2026-03-29T08:47:49.18Z</time></trkpt><trkpt lat="45.2715937" lon="7.7762378"><ele>235.0</ele><time>2026-03-29T08:47:50.187Z</time></trkpt><trkpt lat="45.2714736" lon="7.7762721"><ele>235.0</ele><time>2026-03-29T08:47:51.177Z</time></trkpt><trkpt lat="45.2713625" lon="7.7763097"><ele>235.0</ele><time>2026-03-29T08:47:52.196Z</time></trkpt><trkpt lat="45.2712693" lon="7.7763408"><ele>235.0</ele><time>2026-03-29T08:47:53.187Z</time></trkpt><trkpt lat="45.2711952" lon="7.7763616"><ele>235.0</ele><time>2026-03-29T08:47:54.197Z</time></trkpt><trkpt lat="45.2710979" lon="7.7763962"><ele>235.0</ele><time>2026-03-29T08:47:56.18Z</time></trkpt><trkpt lat="45.2710417" lon="7.77652"><ele>235.0</ele><time>2026-03-29T08:47:58.182Z</time></trkpt><trkpt lat="45.2710184" lon="7.7766514"><ele>235.0</ele><time>2026-03-29T08:47:59.194Z</time></trkpt><trkpt lat="45.2710126" lon="7.7768266"><ele>235.0</ele><time>2026-03-29T08:48:00.218Z</time></trkpt><trkpt lat="45.2710201" lon="7.7770736"><ele>235.0</ele><time>2026-03-29T08:48:01.191Z</time></trkpt><trkpt lat="45.2710158" lon="7.7773245"><ele>234.66666666666666</ele><time>2026-03-29T08:48:02.179Z</time></trkpt><trkpt lat="45.2710117" lon="7.7775892"><ele>234.33333333333331</ele><time>2026-03-29T08:48:03.182Z</time></trkpt><trkpt lat="45.2709977" lon="7.7778367"><ele>234.0</ele><time>2026-03-29T08:48:04.185Z</time></trkpt><trkpt lat="45.2709814" lon="7.7780592"><ele>234.0</ele><time>2026-03-29T08:48:05.188Z</time></trkpt><trkpt lat="45.2709766" lon="7.7782619"><ele>234.0</ele><time>2026-03-29T08:48:06.191Z</time></trkpt><trkpt lat="45.270974" lon="7.7784269"><ele>234.0</ele><time>2026-03-29T08:48:07.186Z</time></trkpt><trkpt lat="45.2709633" lon="7.778581"><ele>234.0</ele><time>2026-03-29T08:48:08.176Z</time></trkpt><trkpt lat="45.270956" lon="7.7787117"><ele>233.79999999999998</ele><time>2026-03-29T08:48:09.216Z</time></trkpt><trkpt lat="45.2709371" lon="7.7788318"><ele>233.59999999999997</ele><time>2026-03-29T08:48:10.177Z</time></trkpt><trkpt lat="45.2709082" lon="7.7789222"><ele>233.4</ele><time>2026-03-29T08:48:11.175Z</time></trkpt><trkpt lat="45.270856" lon="7.7790106"><ele>233.2</ele><time>2026-03-29T08:48:12.184Z</time></trkpt><trkpt lat="45.270781" lon="7.7791058"><ele>233.0</ele><time>2026-03-29T08:48:13.188Z</time></trkpt><trkpt lat="45.2706599" lon="7.7792539"><ele>233.66666666666669</ele><time>2026-03-29T08:48:14.183Z</time></trkpt><trkpt lat="45.2705216" lon="7.7794187"><ele>234.33333333333331</ele><time>2026-03-29T08:48:15.184Z</time></trkpt><trkpt lat="45.2703954" lon="7.7795906"><ele>235.0</ele><time>2026-03-29T08:48:16.185Z</time></trkpt><trkpt lat="45.2702871" lon="7.7797364"><ele>235.0</ele><time>2026-03-29T08:48:17.196Z</time></trkpt><trkpt lat="45.2701876" lon="7.7798517"><ele>235.0</ele><time>2026-03-29T08:48:18.188Z</time></trkpt><trkpt lat="45.2700969" lon="7.779957"><ele>235.0</ele><time>2026-03-29T08:48:19.186Z</time></trkpt><trkpt lat="45.2700259" lon="7.7800491"><ele>235.0</ele><time>2026-03-29T08:48:20.183Z</time></trkpt><trkpt lat="45.2699615" lon="7.7801267"><ele>235.0</ele><time>2026-03-29T08:48:21.196Z</time></trkpt><trkpt lat="45.2699064" lon="7.7802052"><ele>235.14285714285714</ele><time>2026-03-29T08:48:22.179Z</time></trkpt><trkpt lat="45.2698546" lon="7.7802771"><ele>235.28571428571428</ele><time>2026-03-29T08:48:23.18Z</time></trkpt><trkpt lat="45.2697996" lon="7.7803461"><ele>235.42857142857142</ele><time>2026-03-29T08:48:24.177Z</time></trkpt><trkpt lat="45.26974" lon="7.7804207"><ele>235.57142857142856</ele><time>2026-03-29T08:48:25.189Z</time></trkpt><trkpt lat="45.2696843" lon="7.7804942"><ele>235.71428571428572</ele><time>2026-03-29T08:48:26.189Z</time></trkpt><trkpt lat="45.2696284" lon="7.7805605"><ele>235.85714285714283</ele><time>2026-03-29T08:48:27.171Z</time></trkpt><trkpt lat="45.269573" lon="7.7806289"><ele>236.0</ele><time>2026-03-29T08:48:28.179Z</time></trkpt><trkpt lat="45.2695144" lon="7.7806946"><ele>236.00000000000003</ele><time>2026-03-29T08:48:29.183Z</time></trkpt><trkpt lat="45.2694539" lon="7.7807693"><ele>236.0</ele><time>2026-03-29T08:48:30.182Z</time></trkpt><trkpt lat="45.2693983" lon="7.7808367"><ele>236.0</ele><time>2026-03-29T08:48:31.191Z</time></trkpt><trkpt lat="45.2693443" lon="7.7809049"><ele>236.0</ele><time>2026-03-29T08:48:32.183Z</time></trkpt><trkpt lat="45.2692856" lon="7.780988"><ele>236.00000000000003</ele><time>2026-03-29T08:48:33.193Z</time></trkpt><trkpt lat="45.2692238" lon="7.7810746"><ele>236.0</ele><time>2026-03-29T08:48:34.187Z</time></trkpt><trkpt lat="45.2691637" lon="7.7811518"><ele>236.0</ele><time>2026-03-29T08:48:35.187Z</time></trkpt><trkpt lat="45.2691088" lon="7.7812286"><ele>236.0</ele><time>2026-03-29T08:48:36.178Z</time></trkpt><trkpt lat="45.2690534" lon="7.7813002"><ele>236.0</ele><time>2026-03-29T08:48:37.185Z</time></trkpt><trkpt lat="45.2689995" lon="7.7813685"><ele>236.0</ele><time>2026-03-29T08:48:38.195Z</time></trkpt><trkpt lat="45.2689474" lon="7.7814352"><ele>236.0</ele><time>2026-03-29T08:48:39.203Z</time></trkpt><trkpt lat="45.2688916" lon="7.7814963"><ele>236.0</ele><time>2026-03-29T08:48:40.181Z</time></trkpt><trkpt lat="45.2688363" lon="7.7815652"><ele>236.0</ele><time>2026-03-29T08:48:41.173Z</time></trkpt><trkpt lat="45.268781" lon="7.7816375"><ele>235.8</ele><time>2026-03-29T08:48:42.193Z</time></trkpt><trkpt lat="45.2687184" lon="7.7817128"><ele>235.60000000000002</ele><time>2026-03-29T08:48:43.168Z</time></trkpt><trkpt lat="45.2686529" lon="7.7817954"><ele>235.4</ele><time>2026-03-29T08:48:44.188Z</time></trkpt><trkpt lat="45.268588" lon="7.7818809"><ele>235.2</ele><time>2026-03-29T08:48:45.212Z</time></trkpt><trkpt lat="45.2685193" lon="7.7819651"><ele>235.0</ele><time>2026-03-29T08:48:46.201Z</time></trkpt><trkpt lat="45.2684365" lon="7.782057"><ele>235.0</ele><time>2026-03-29T08:48:47.235Z</time></trkpt><trkpt lat="45.2683487" lon="7.7821522"><ele>235.0</ele><time>2026-03-29T08:48:48.233Z</time></trkpt><trkpt lat="45.2682544" lon="7.7822565"><ele>235.0</ele><time>2026-03-29T08:48:49.204Z</time></trkpt><trkpt lat="45.2681577" lon="7.7823784"><ele>235.0</ele><time>2026-03-29T08:48:50.207Z</time></trkpt><trkpt lat="45.2680628" lon="7.7824999"><ele>235.0</ele><time>2026-03-29T08:48:51.191Z</time></trkpt><trkpt lat="45.2679648" lon="7.7826257"><ele>235.0</ele><time>2026-03-29T08:48:52.193Z</time></trkpt><trkpt lat="45.2678564" lon="7.7827574"><ele>235.0</ele><time>2026-03-29T08:48:53.166Z</time></trkpt><trkpt lat="45.2677383" lon="7.7828901"><ele>235.0</ele><time>2026-03-29T08:48:54.167Z</time></trkpt><trkpt lat="45.2676169" lon="7.7830221"><ele>235.0</ele><time>2026-03-29T08:48:55.224Z</time></trkpt><trkpt lat="45.2675092" lon="7.7831529"><ele>235.0</ele><time>2026-03-29T08:48:56.22Z</time></trkpt><trkpt lat="45.2674096" lon="7.7832746"><ele>235.0</ele><time>2026-03-29T08:48:57.213Z</time></trkpt><trkpt lat="45.2673168" lon="7.78338"><ele>235.0</ele><time>2026-03-29T08:48:58.209Z</time></trkpt><trkpt lat="45.2672287" lon="7.7834707"><ele>235.25</ele><time>2026-03-29T08:48:59.183Z</time></trkpt><trkpt lat="45.2671318" lon="7.7835662"><ele>235.5</ele><time>2026-03-29T08:49:00.233Z</time></trkpt><trkpt lat="45.2670224" lon="7.7836515"><ele>235.75</ele><time>2026-03-29T08:49:01.201Z</time></trkpt><trkpt lat="45.2669044" lon="7.7837254"><ele>236.0</ele><time>2026-03-29T08:49:02.176Z</time></trkpt><trkpt lat="45.2667549" lon="7.7838222"><ele>236.0</ele><time>2026-03-29T08:49:03.215Z</time></trkpt><trkpt lat="45.2665643" lon="7.7839376"><ele>236.0</ele><time>2026-03-29T08:49:04.206Z</time></trkpt><trkpt lat="45.2663827" lon="7.7840381"><ele>236.0</ele><time>2026-03-29T08:49:05.185Z</time></trkpt><trkpt lat="45.2662272" lon="7.7841275"><ele>236.0</ele><time>2026-03-29T08:49:06.209Z</time></trkpt><trkpt lat="45.26609" lon="7.7842041"><ele>236.0</ele><time>2026-03-29T08:49:07.205Z</time></trkpt><trkpt lat="45.2659629" lon="7.7842836"><ele>236.0</ele><time>2026-03-29T08:49:08.209Z</time></trkpt><trkpt lat="45.2658333" lon="7.7843523"><ele>236.0</ele><time>2026-03-29T08:49:09.213Z</time></trkpt><trkpt lat="45.2657034" lon="7.7844197"><ele>235.75</ele><time>2026-03-29T08:49:10.177Z</time></trkpt><trkpt lat="45.2655705" lon="7.7844885"><ele>235.5</ele><time>2026-03-29T08:49:11.169Z</time></trkpt><trkpt lat="45.2654424" lon="7.7845615"><ele>235.25</ele><time>2026-03-29T08:49:12.176Z</time></trkpt><trkpt lat="45.2653251" lon="7.7846276"><ele>235.0</ele><time>2026-03-29T08:49:13.216Z</time></trkpt><trkpt lat="45.2652027" lon="7.7847032"><ele>235.0</ele><time>2026-03-29T08:49:14.192Z</time></trkpt><trkpt lat="45.2650794" lon="7.7847769"><ele>235.0</ele><time>2026-03-29T08:49:15.217Z</time></trkpt><trkpt lat="45.2649626" lon="7.7848506"><ele>235.0</ele><time>2026-03-29T08:49:16.217Z</time></trkpt><trkpt lat="45.2648376" lon="7.784932"><ele>235.0</ele><time>2026-03-29T08:49:17.209Z</time></trkpt><trkpt lat="45.2647105" lon="7.7850152"><ele>234.0</ele><time>2026-03-29T08:49:18.212Z</time></trkpt><trkpt lat="45.264574" lon="7.7850998"><ele>233.0</ele><time>2026-03-29T08:49:19.207Z</time></trkpt><trkpt lat="45.2644332" lon="7.7851759"><ele>232.0</ele><time>2026-03-29T08:49:20.185Z</time></trkpt><trkpt lat="45.2642946" lon="7.7852598"><ele>232.0</ele><time>2026-03-29T08:49:21.198Z</time></trkpt><trkpt lat="45.264154" lon="7.7853387"><ele>232.0</ele><time>2026-03-29T08:49:22.203Z</time></trkpt><trkpt lat="45.2640028" lon="7.7854103"><ele>232.0</ele><time>2026-03-29T08:49:23.204Z</time></trkpt><trkpt lat="45.2638498" lon="7.7854781"><ele>230.0</ele><time>2026-03-29T08:49:24.233Z</time></trkpt><trkpt lat="45.263694" lon="7.7855357"><ele>228.0</ele><time>2026-03-29T08:49:25.189Z</time></trkpt><trkpt lat="45.2635474" lon="7.7855888"><ele>226.0</ele><time>2026-03-29T08:49:26.215Z</time></trkpt><trkpt lat="45.2634005" lon="7.7856314"><ele>226.0</ele><time>2026-03-29T08:49:27.22Z</time></trkpt><trkpt lat="45.263251" lon="7.7856713"><ele>226.0</ele><time>2026-03-29T08:49:28.238Z</time></trkpt><trkpt lat="45.2631022" lon="7.785717"><ele>226.0</ele><time>2026-03-29T08:49:29.238Z</time></trkpt><trkpt lat="45.2629564" lon="7.7857616"><ele>226.0</ele><time>2026-03-29T08:49:30.235Z</time></trkpt><trkpt lat="45.2628071" lon="7.7858053"><ele>226.0</ele><time>2026-03-29T08:49:31.203Z</time></trkpt><trkpt lat="45.2626609" lon="7.7858468"><ele>226.0</ele><time>2026-03-29T08:49:32.233Z</time></trkpt><trkpt lat="45.2625122" lon="7.7858794"><ele>226.0</ele><time>2026-03-29T08:49:33.182Z</time></trkpt><trkpt lat="45.2623574" lon="7.7859188"><ele>226.0</ele><time>2026-03-29T08:49:34.227Z</time></trkpt><trkpt lat="45.2621996" lon="7.7859587"><ele>226.0</ele><time>2026-03-29T08:49:35.203Z</time></trkpt><trkpt lat="45.2620457" lon="7.7860014"><ele>227.0</ele><time>2026-03-29T08:49:36.219Z</time></trkpt><trkpt lat="45.2618906" lon="7.7860431"><ele>228.0</ele><time>2026-03-29T08:49:37.223Z</time></trkpt><trkpt lat="45.261741" lon="7.7860911"><ele>229.0</ele><time>2026-03-29T08:49:38.219Z</time></trkpt><trkpt lat="45.2615984" lon="7.7861271"><ele>228.33333333333331</ele><time>2026-03-29T08:49:39.221Z</time></trkpt><trkpt lat="45.2614411" lon="7.7861586"><ele>227.66666666666669</ele><time>2026-03-29T08:49:40.225Z</time></trkpt><trkpt lat="45.2612863" lon="7.7861993"><ele>227.0</ele><time>2026-03-29T08:49:41.164Z</time></trkpt><trkpt lat="45.2611278" lon="7.7862462"><ele>227.0</ele><time>2026-03-29T08:49:42.189Z</time></trkpt><trkpt lat="45.2609685" lon="7.7862927"><ele>227.0</ele><time>2026-03-29T08:49:43.188Z</time></trkpt><trkpt lat="45.2608073" lon="7.7863367"><ele>227.0</ele><time>2026-03-29T08:49:44.176Z</time></trkpt><trkpt lat="45.2606353" lon="7.7863806"><ele>227.0</ele><time>2026-03-29T08:49:45.181Z</time></trkpt><trkpt lat="45.2604613" lon="7.7864109"><ele>227.0</ele><time>2026-03-29T08:49:46.255Z</time></trkpt><trkpt lat="45.2602949" lon="7.786443"><ele>227.0</ele><time>2026-03-29T08:49:47.231Z</time></trkpt><trkpt lat="45.2601446" lon="7.7864806"><ele>227.0</ele><time>2026-03-29T08:49:48.224Z</time></trkpt><trkpt lat="45.2599975" lon="7.7865211"><ele>227.0</ele><time>2026-03-29T08:49:49.248Z</time></trkpt><trkpt lat="45.2598517" lon="7.7865588"><ele>227.0</ele><time>2026-03-29T08:49:50.227Z</time></trkpt><trkpt lat="45.2597141" lon="7.7865974"><ele>227.0</ele><time>2026-03-29T08:49:51.191Z</time></trkpt><trkpt lat="45.259588" lon="7.7866329"><ele>227.2</ele><time>2026-03-29T08:49:52.226Z</time></trkpt><trkpt lat="45.2594657" lon="7.7866631"><ele>227.39999999999998</ele><time>2026-03-29T08:49:53.207Z</time></trkpt><trkpt lat="45.2593644" lon="7.786691"><ele>227.60000000000002</ele><time>2026-03-29T08:49:54.212Z</time></trkpt><trkpt lat="45.2592793" lon="7.7867118"><ele>227.8</ele><time>2026-03-29T08:49:55.178Z</time></trkpt><trkpt lat="45.259193" lon="7.7867386"><ele>228.0</ele><time>2026-03-29T08:49:56.205Z</time></trkpt><trkpt lat="45.2590885" lon="7.7867554"><ele>228.0</ele><time>2026-03-29T08:49:57.204Z</time></trkpt><trkpt lat="45.2589844" lon="7.7867557"><ele>228.0</ele><time>2026-03-29T08:49:58.24Z</time></trkpt><trkpt lat="45.2588942" lon="7.7867708"><ele>228.0</ele><time>2026-03-29T08:49:59.243Z</time></trkpt><trkpt lat="45.2588166" lon="7.7867759"><ele>228.0</ele><time>2026-03-29T08:50:00.211Z</time></trkpt><trkpt lat="45.258742" lon="7.7867473"><ele>228.0</ele><time>2026-03-29T08:50:02.219Z</time></trkpt><trkpt lat="45.2586511" lon="7.7866818"><ele>228.2</ele><time>2026-03-29T08:50:04.215Z</time></trkpt><trkpt lat="45.2585744" lon="7.7865996"><ele>228.4</ele><time>2026-03-29T08:50:05.204Z</time></trkpt><trkpt lat="45.2585136" lon="7.7865313"><ele>228.59999999999997</ele><time>2026-03-29T08:50:06.238Z</time></trkpt><trkpt lat="45.2584363" lon="7.7864371"><ele>228.79999999999998</ele><time>2026-03-29T08:50:08.233Z</time></trkpt><trkpt lat="45.2583551" lon="7.7863643"><ele>229.0</ele><time>2026-03-29T08:50:10.196Z</time></trkpt><trkpt lat="45.2582396" lon="7.7863473"><ele>228.99999999999997</ele><time>2026-03-29T08:50:12.22Z</time></trkpt><trkpt lat="45.2581637" lon="7.7863703"><ele>229.0</ele><time>2026-03-29T08:50:13.234Z</time></trkpt><trkpt lat="45.2580979" lon="7.7863743"><ele>229.0</ele><time>2026-03-29T08:50:14.223Z</time></trkpt><trkpt lat="45.2580337" lon="7.7863681"><ele>229.0</ele><time>2026-03-29T08:50:15.229Z</time></trkpt><trkpt lat="45.2578967" lon="7.786385"><ele>228.99999999999997</ele><time>2026-03-29T08:50:17.217Z</time></trkpt><trkpt lat="45.2578183" lon="7.7863968"><ele>229.0</ele><time>2026-03-29T08:50:18.238Z</time></trkpt><trkpt lat="45.257754" lon="7.7864071"><ele>228.49999999999997</ele><time>2026-03-29T08:50:19.241Z</time></trkpt><trkpt lat="45.257667" lon="7.7864171"><ele>228.0</ele><time>2026-03-29T08:50:21.247Z</time></trkpt><trkpt lat="45.257551" lon="7.7864456"><ele>227.5</ele><time>2026-03-29T08:50:23.222Z</time></trkpt><trkpt lat="45.2574779" lon="7.7864608"><ele>227.0</ele><time>2026-03-29T08:50:24.184Z</time></trkpt><trkpt lat="45.2574037" lon="7.7864787"><ele>226.49999999999997</ele><time>2026-03-29T08:50:25.229Z</time></trkpt><trkpt lat="45.257323" lon="7.7864895"><ele>226.0</ele><time>2026-03-29T08:50:26.23Z</time></trkpt><trkpt lat="45.2572458" lon="7.7865011"><ele>225.83333333333331</ele><time>2026-03-29T08:50:27.227Z</time></trkpt><trkpt lat="45.2571702" lon="7.786517"><ele>225.66666666666666</ele><time>2026-03-29T08:50:28.236Z</time></trkpt><trkpt lat="45.2570902" lon="7.7865376"><ele>225.5</ele><time>2026-03-29T08:50:29.215Z</time></trkpt><trkpt lat="45.2570176" lon="7.7865524"><ele>225.33333333333331</ele><time>2026-03-29T08:50:30.231Z</time></trkpt><trkpt lat="45.2569501" lon="7.786561"><ele>225.16666666666666</ele><time>2026-03-29T08:50:31.225Z</time></trkpt><trkpt lat="45.2568776" lon="7.7865979"><ele>225.0</ele><time>2026-03-29T08:50:32.217Z</time></trkpt><trkpt lat="45.2567882" lon="7.7866312"><ele>225.0</ele><time>2026-03-29T08:50:33.229Z</time></trkpt><trkpt lat="45.2567149" lon="7.7866623"><ele>225.0</ele><time>2026-03-29T08:50:34.235Z</time></trkpt><trkpt lat="45.2566476" lon="7.7866825"><ele>225.0</ele><time>2026-03-29T08:50:35.23Z</time></trkpt><trkpt lat="45.2565802" lon="7.7866983"><ele>225.0</ele><time>2026-03-29T08:50:36.202Z</time></trkpt><trkpt lat="45.2564776" lon="7.7867579"><ele>225.0</ele><time>2026-03-29T08:50:38.255Z</time></trkpt><trkpt lat="45.2564134" lon="7.7868472"><ele>225.0</ele><time>2026-03-29T08:50:40.221Z</time></trkpt><trkpt lat="45.2563426" lon="7.7869963"><ele>225.00000000000003</ele><time>2026-03-29T08:50:42.206Z</time></trkpt><trkpt lat="45.2563075" lon="7.7870972"><ele>225.0</ele><time>2026-03-29T08:50:43.185Z</time></trkpt><trkpt lat="45.256266" lon="7.7871882"><ele>225.00000000000003</ele><time>2026-03-29T08:50:44.217Z</time></trkpt><trkpt lat="45.2562264" lon="7.7872776"><ele>225.00000000000003</ele><time>2026-03-29T08:50:45.222Z</time></trkpt><trkpt lat="45.2561911" lon="7.7873771"><ele>225.0</ele><time>2026-03-29T08:50:46.232Z</time></trkpt><trkpt lat="45.2561622" lon="7.7874586"><ele>225.00000000000003</ele><time>2026-03-29T08:50:47.214Z</time></trkpt><trkpt lat="45.256128" lon="7.7875389"><ele>225.00000000000003</ele><time>2026-03-29T08:50:48.241Z</time></trkpt><trkpt lat="45.2560972" lon="7.787622"><ele>225.33333333333334</ele><time>2026-03-29T08:50:49.235Z</time></trkpt><trkpt lat="45.2560583" lon="7.7876973"><ele>225.66666666666669</ele><time>2026-03-29T08:50:50.221Z</time></trkpt><trkpt lat="45.2560201" lon="7.7877781"><ele>226.0</ele><time>2026-03-29T08:50:51.253Z</time></trkpt><trkpt lat="45.2559806" lon="7.7878684"><ele>226.33333333333334</ele><time>2026-03-29T08:50:52.251Z</time></trkpt><trkpt lat="45.2559353" lon="7.7879641"><ele>226.66666666666669</ele><time>2026-03-29T08:50:53.233Z</time></trkpt><trkpt lat="45.2558787" lon="7.7880616"><ele>227.0</ele><time>2026-03-29T08:50:54.191Z</time></trkpt><trkpt lat="45.2558244" lon="7.7881547"><ele>227.0</ele><time>2026-03-29T08:50:55.217Z</time></trkpt><trkpt lat="45.2557898" lon="7.7882322"><ele>227.0</ele><time>2026-03-29T08:50:56.218Z</time></trkpt><trkpt lat="45.2557562" lon="7.7883586"><ele>227.0</ele><time>2026-03-29T08:50:58.218Z</time></trkpt><trkpt lat="45.2557163" lon="7.7885198"><ele>227.0</ele><time>2026-03-29T08:51:00.208Z</time></trkpt><trkpt lat="45.2556533" lon="7.7886617"><ele>227.0</ele><time>2026-03-29T08:51:02.197Z</time></trkpt><trkpt lat="45.2555773" lon="7.7888074"><ele>227.00000000000003</ele><time>2026-03-29T08:51:04.199Z</time></trkpt><trkpt lat="45.2555275" lon="7.7888851"><ele>227.0</ele><time>2026-03-29T08:51:05.237Z</time></trkpt><trkpt lat="45.2554848" lon="7.78897"><ele>227.0</ele><time>2026-03-29T08:51:06.227Z</time></trkpt><trkpt lat="45.255431" lon="7.7890691"><ele>227.0</ele><time>2026-03-29T08:51:07.203Z</time></trkpt><trkpt lat="45.2553788" lon="7.7891772"><ele>227.00000000000003</ele><time>2026-03-29T08:51:08.24Z</time></trkpt><trkpt lat="45.255328" lon="7.7892854"><ele>227.0</ele><time>2026-03-29T08:51:09.224Z</time></trkpt><trkpt lat="45.2552775" lon="7.7893752"><ele>227.00000000000003</ele><time>2026-03-29T08:51:10.217Z</time></trkpt><trkpt lat="45.255235" lon="7.7894567"><ele>227.0</ele><time>2026-03-29T08:51:11.229Z</time></trkpt><trkpt lat="45.2551979" lon="7.7895407"><ele>227.0</ele><time>2026-03-29T08:51:12.231Z</time></trkpt><trkpt lat="45.2551544" lon="7.7896459"><ele>227.0</ele><time>2026-03-29T08:51:13.222Z</time></trkpt><trkpt lat="45.255121" lon="7.7897544"><ele>227.00000000000003</ele><time>2026-03-29T08:51:14.246Z</time></trkpt><trkpt lat="45.2550907" lon="7.7898407"><ele>227.0</ele><time>2026-03-29T08:51:15.219Z</time></trkpt><trkpt lat="45.2550521" lon="7.7900059"><ele>227.0</ele><time>2026-03-29T08:51:17.226Z</time></trkpt><trkpt lat="45.2550397" lon="7.7901075"><ele>227.0</ele><time>2026-03-29T08:51:18.232Z</time></trkpt><trkpt lat="45.2550278" lon="7.790283"><ele>227.0</ele><time>2026-03-29T08:51:20.241Z</time></trkpt><trkpt lat="45.2549904" lon="7.7904262"><ele>227.0</ele><time>2026-03-29T08:51:22.232Z</time></trkpt><trkpt lat="45.2549903" lon="7.7905615"><ele>227.0</ele><time>2026-03-29T08:51:24.231Z</time></trkpt><trkpt lat="45.2550055" lon="7.7907265"><ele>226.8</ele><time>2026-03-29T08:51:26.215Z</time></trkpt><trkpt lat="45.2550283" lon="7.7908658"><ele>226.6</ele><time>2026-03-29T08:51:28.226Z</time></trkpt><trkpt lat="45.2550013" lon="7.7909972"><ele>226.40000000000003</ele><time>2026-03-29T08:51:30.201Z</time></trkpt><trkpt lat="45.2549705" lon="7.7911295"><ele>226.20000000000002</ele><time>2026-03-29T08:51:32.208Z</time></trkpt><trkpt lat="45.2549536" lon="7.7912919"><ele>226.0</ele><time>2026-03-29T08:51:34.202Z</time></trkpt><trkpt lat="45.2549508" lon="7.7913818"><ele>226.0</ele><time>2026-03-29T08:51:35.223Z</time></trkpt><trkpt lat="45.2549537" lon="7.7915501"><ele>226.00000000000003</ele><time>2026-03-29T08:51:37.232Z</time></trkpt><trkpt lat="45.254957" lon="7.7916818"><ele>226.00000000000003</ele><time>2026-03-29T08:51:39.212Z</time></trkpt><trkpt lat="45.2549581" lon="7.7917955"><ele>226.0</ele><time>2026-03-29T08:51:42.209Z</time></trkpt><trkpt lat="45.2549603" lon="7.7919271"><ele>226.0</ele><time>2026-03-29T08:51:45.239Z</time></trkpt><trkpt lat="45.2549832" lon="7.7920606"><ele>225.99999999999997</ele><time>2026-03-29T08:51:47.221Z</time></trkpt><trkpt lat="45.2549948" lon="7.7922038"><ele>226.0</ele><time>2026-03-29T08:51:49.244Z</time></trkpt><trkpt lat="45.2550143" lon="7.7923684"><ele>226.0</ele><time>2026-03-29T08:51:51.207Z</time></trkpt><trkpt lat="45.2550429" lon="7.7924758"><ele>226.0</ele><time>2026-03-29T08:51:52.244Z</time></trkpt><trkpt lat="45.255074" lon="7.792574"><ele>225.99999999999997</ele><time>2026-03-29T08:51:53.239Z</time></trkpt><trkpt lat="45.2551069" lon="7.7926544"><ele>226.0</ele><time>2026-03-29T08:51:54.232Z</time></trkpt><trkpt lat="45.2551387" lon="7.7927346"><ele>226.0</ele><time>2026-03-29T08:51:55.207Z</time></trkpt><trkpt lat="45.2552109" lon="7.7928876"><ele>226.00000000000003</ele><time>2026-03-29T08:51:57.195Z</time></trkpt><trkpt lat="45.2552554" lon="7.7929652"><ele>226.00000000000003</ele><time>2026-03-29T08:51:58.226Z</time></trkpt><trkpt lat="45.2553146" lon="7.7930743"><ele>226.0</ele><time>2026-03-29T08:52:00.227Z</time></trkpt><trkpt lat="45.2553833" lon="7.7931877"><ele>226.0</ele><time>2026-03-29T08:52:02.22Z</time></trkpt><trkpt lat="45.2554364" lon="7.7932582"><ele>226.0</ele><time>2026-03-29T08:52:03.219Z</time></trkpt><trkpt lat="45.2554815" lon="7.7933373"><ele>226.00000000000003</ele><time>2026-03-29T08:52:04.22Z</time></trkpt><trkpt lat="45.255561" lon="7.793459"><ele>226.00000000000003</ele><time>2026-03-29T08:52:06.215Z</time></trkpt><trkpt lat="45.255584" lon="7.7935437"><ele>226.0</ele><time>2026-03-29T08:52:07.222Z</time></trkpt><trkpt lat="45.2555769" lon="7.7936872"><ele>226.0</ele><time>2026-03-29T08:52:09.224Z</time></trkpt><trkpt lat="45.2555109" lon="7.7938019"><ele>225.60000000000002</ele><time>2026-03-29T08:52:11.215Z</time></trkpt><trkpt lat="45.2554148" lon="7.7939037"><ele>225.20000000000002</ele><time>2026-03-29T08:52:13.212Z</time></trkpt><trkpt lat="45.2553397" lon="7.7939744"><ele>224.79999999999998</ele><time>2026-03-29T08:52:15.218Z</time></trkpt><trkpt lat="45.2553105" lon="7.7941122"><ele>224.39999999999998</ele><time>2026-03-29T08:52:17.229Z</time></trkpt><trkpt lat="45.255324" lon="7.7942269"><ele>224.0</ele><time>2026-03-29T08:52:19.213Z</time></trkpt><trkpt lat="45.2553557" lon="7.7943658"><ele>223.79999999999998</ele><time>2026-03-29T08:52:21.195Z</time></trkpt><trkpt lat="45.2553776" lon="7.7945089"><ele>223.59999999999997</ele><time>2026-03-29T08:52:23.213Z</time></trkpt><trkpt lat="45.2553626" lon="7.7946646"><ele>223.4</ele><time>2026-03-29T08:52:25.222Z</time></trkpt><trkpt lat="45.2553278" lon="7.7947732"><ele>223.2</ele><time>2026-03-29T08:52:27.223Z</time></trkpt><trkpt lat="45.2552919" lon="7.7948765"><ele>223.0</ele><time>2026-03-29T08:52:30.23Z</time></trkpt><trkpt lat="45.2552497" lon="7.7949586"><ele>222.99999999999997</ele><time>2026-03-29T08:57:19.195Z</time></trkpt><trkpt lat="45.2551775" lon="7.7949778"><ele>223.0</ele><time>2026-03-29T08:57:22.196Z</time></trkpt><trkpt lat="45.2551119" lon="7.7950165"><ele>223.0</ele><time>2026-03-29T08:57:24.205Z</time></trkpt><trkpt lat="45.2550014" lon="7.7950545"><ele>223.0</ele><time>2026-03-29T08:57:26.207Z</time></trkpt><trkpt lat="45.2549318" lon="7.7950618"><ele>222.99999999999997</ele><time>2026-03-29T08:57:28.193Z</time></trkpt><trkpt lat="45.2548391" lon="7.7950554"><ele>223.0</ele><time>2026-03-29T08:57:32.21Z</time></trkpt><trkpt lat="45.2547634" lon="7.7950549"><ele>223.33333333333331</ele><time>2026-03-29T08:57:33.219Z</time></trkpt><trkpt lat="45.2546974" lon="7.7950577"><ele>223.66666666666666</ele><time>2026-03-29T08:57:34.171Z</time></trkpt><trkpt lat="45.2546317" lon="7.7950557"><ele>224.0</ele><time>2026-03-29T08:57:35.182Z</time></trkpt><trkpt lat="45.2545382" lon="7.7950761"><ele>224.33333333333331</ele><time>2026-03-29T08:57:37.191Z</time></trkpt><trkpt lat="45.2544641" lon="7.7950886"><ele>224.66666666666666</ele><time>2026-03-29T08:57:38.212Z</time></trkpt><trkpt lat="45.2544027" lon="7.7951117"><ele>225.0</ele><time>2026-03-29T08:57:39.185Z</time></trkpt><trkpt lat="45.2543058" lon="7.7951482"><ele>225.0</ele><time>2026-03-29T08:57:41.206Z</time></trkpt><trkpt lat="45.2542277" lon="7.7951554"><ele>225.0</ele><time>2026-03-29T08:57:43.167Z</time></trkpt><trkpt lat="45.2540836" lon="7.7951507"><ele>225.0</ele><time>2026-03-29T08:57:45.182Z</time></trkpt><trkpt lat="45.2540015" lon="7.7951522"><ele>225.0</ele><time>2026-03-29T08:57:46.175Z</time></trkpt><trkpt lat="45.2539375" lon="7.7951651"><ele>225.0</ele><time>2026-03-29T08:57:47.196Z</time></trkpt><trkpt lat="45.253856" lon="7.7951767"><ele>224.83333333333334</ele><time>2026-03-29T08:57:48.197Z</time></trkpt><trkpt lat="45.2537938" lon="7.7951972"><ele>224.66666666666669</ele><time>2026-03-29T08:57:49.194Z</time></trkpt><trkpt lat="45.2537234" lon="7.7952194"><ele>224.5</ele><time>2026-03-29T08:57:50.192Z</time></trkpt><trkpt lat="45.2536539" lon="7.7952259"><ele>224.33333333333334</ele><time>2026-03-29T08:57:51.188Z</time></trkpt><trkpt lat="45.2535558" lon="7.7952301"><ele>224.16666666666669</ele><time>2026-03-29T08:57:53.19Z</time></trkpt><trkpt lat="45.253488" lon="7.7952514"><ele>224.0</ele><time>2026-03-29T08:57:55.198Z</time></trkpt><trkpt lat="45.2534121" lon="7.7953218"><ele>224.0</ele><time>2026-03-29T08:57:58.196Z</time></trkpt><trkpt lat="45.2533609" lon="7.7953813"><ele>223.99999999999997</ele><time>2026-03-29T08:58:00.187Z</time></trkpt><trkpt lat="45.2532955" lon="7.7954295"><ele>223.99999999999997</ele><time>2026-03-29T08:58:02.184Z</time></trkpt><trkpt lat="45.2532339" lon="7.7955308"><ele>224.0</ele><time>2026-03-29T08:58:04.19Z</time></trkpt><trkpt lat="45.2531575" lon="7.7956612"><ele>224.0</ele><time>2026-03-29T08:58:06.183Z</time></trkpt><trkpt lat="45.2530715" lon="7.7957947"><ele>224.00000000000003</ele><time>2026-03-29T08:58:08.191Z</time></trkpt><trkpt lat="45.2530299" lon="7.795867"><ele>224.0</ele><time>2026-03-29T08:58:09.169Z</time></trkpt><trkpt lat="45.2529913" lon="7.7959427"><ele>224.0</ele><time>2026-03-29T08:58:10.184Z</time></trkpt><trkpt lat="45.2529237" lon="7.7960672"><ele>224.0</ele><time>2026-03-29T08:58:12.188Z</time></trkpt><trkpt lat="45.2528742" lon="7.7961368"><ele>224.00000000000003</ele><time>2026-03-29T08:58:14.188Z</time></trkpt><trkpt lat="45.2528184" lon="7.7962187"><ele>224.0</ele><time>2026-03-29T08:58:16.194Z</time></trkpt><trkpt lat="45.2527448" lon="7.7963351"><ele>224.00000000000003</ele><time>2026-03-29T08:58:18.184Z</time></trkpt><trkpt lat="45.2526984" lon="7.7964198"><ele>224.0</ele><time>2026-03-29T08:58:20.196Z</time></trkpt><trkpt lat="45.2526477" lon="7.7965333"><ele>224.0</ele><time>2026-03-29T08:58:22.188Z</time></trkpt><trkpt lat="45.252594" lon="7.7966131"><ele>224.0</ele><time>2026-03-29T08:58:24.191Z</time></trkpt><trkpt lat="45.2525183" lon="7.796709"><ele>224.00000000000003</ele><time>2026-03-29T08:58:26.186Z</time></trkpt><trkpt lat="45.2524587" lon="7.7967789"><ele>224.0</ele><time>2026-03-29T08:58:28.182Z</time></trkpt><trkpt lat="45.2523933" lon="7.796876"><ele>224.00000000000003</ele><time>2026-03-29T08:58:31.185Z</time></trkpt><trkpt lat="45.2523367" lon="7.7969715"><ele>224.0</ele><time>2026-03-29T08:58:34.18Z</time></trkpt><trkpt lat="45.2522683" lon="7.7970902"><ele>224.0</ele><time>2026-03-29T08:58:37.196Z</time></trkpt><trkpt lat="45.2522267" lon="7.7971943"><ele>224.0</ele><time>2026-03-29T08:58:39.185Z</time></trkpt><trkpt lat="45.2521741" lon="7.7972808"><ele>224.00000000000003</ele><time>2026-03-29T08:58:41.193Z</time></trkpt><trkpt lat="45.252149" lon="7.7973648"><ele>224.0</ele><time>2026-03-29T08:58:43.197Z</time></trkpt><trkpt lat="45.2521143" lon="7.7974434"><ele>224.0</ele><time>2026-03-29T08:58:45.179Z</time></trkpt><trkpt lat="45.2520767" lon="7.7975246"><ele>223.99999999999997</ele><time>2026-03-29T08:58:47.189Z</time></trkpt><trkpt lat="45.2520494" lon="7.7976222"><ele>223.99999999999997</ele><time>2026-03-29T08:58:49.185Z</time></trkpt><trkpt lat="45.2520369" lon="7.7977301"><ele>224.0</ele><time>2026-03-29T08:58:51.187Z</time></trkpt><trkpt lat="45.2520519" lon="7.7979008"><ele>224.0</ele><time>2026-03-29T08:58:53.183Z</time></trkpt><trkpt lat="45.2520648" lon="7.7980689"><ele>224.16666666666669</ele><time>2026-03-29T08:58:55.188Z</time></trkpt><trkpt lat="45.2520583" lon="7.7981884"><ele>224.33333333333334</ele><time>2026-03-29T08:58:57.181Z</time></trkpt><trkpt lat="45.2520184" lon="7.7983074"><ele>224.5</ele><time>2026-03-29T08:58:59.207Z</time></trkpt><trkpt lat="45.2519773" lon="7.7983849"><ele>224.66666666666669</ele><time>2026-03-29T08:59:01.19Z</time></trkpt><trkpt lat="45.2518767" lon="7.7984285"><ele>224.83333333333334</ele><time>2026-03-29T08:59:04.187Z</time></trkpt><trkpt lat="45.2517949" lon="7.7984533"><ele>225.0</ele><time>2026-03-29T08:59:06.192Z</time></trkpt><trkpt lat="45.2516821" lon="7.7984792"><ele>224.8</ele><time>2026-03-29T08:59:08.169Z</time></trkpt><trkpt lat="45.2515774" lon="7.7985018"><ele>224.6</ele><time>2026-03-29T08:59:10.192Z</time></trkpt><trkpt lat="45.2514819" lon="7.7985081"><ele>224.39999999999998</ele><time>2026-03-29T08:59:12.193Z</time></trkpt><trkpt lat="45.2513884" lon="7.7985365"><ele>224.2</ele><time>2026-03-29T08:59:14.203Z</time></trkpt><trkpt lat="45.2513129" lon="7.798571"><ele>224.0</ele><time>2026-03-29T08:59:16.201Z</time></trkpt><trkpt lat="45.2512485" lon="7.7986364"><ele>223.2</ele><time>2026-03-29T08:59:18.185Z</time></trkpt><trkpt lat="45.2511781" lon="7.7987549"><ele>222.39999999999998</ele><time>2026-03-29T08:59:20.192Z</time></trkpt><trkpt lat="45.2511086" lon="7.7988994"><ele>221.6</ele><time>2026-03-29T08:59:22.175Z</time></trkpt><trkpt lat="45.25107" lon="7.7990184"><ele>220.8</ele><time>2026-03-29T08:59:24.183Z</time></trkpt><trkpt lat="45.2510246" lon="7.7991338"><ele>220.0</ele><time>2026-03-29T08:59:26.213Z</time></trkpt><trkpt lat="45.2509747" lon="7.7992682"><ele>220.2</ele><time>2026-03-29T08:59:28.193Z</time></trkpt><trkpt lat="45.250915" lon="7.7994062"><ele>220.4</ele><time>2026-03-29T08:59:30.186Z</time></trkpt><trkpt lat="45.2508345" lon="7.7995326"><ele>220.60000000000002</ele><time>2026-03-29T08:59:32.188Z</time></trkpt><trkpt lat="45.2507626" lon="7.7996632"><ele>220.8</ele><time>2026-03-29T08:59:34.193Z</time></trkpt><trkpt lat="45.250715" lon="7.7997595"><ele>221.0</ele><time>2026-03-29T08:59:36.2Z</time></trkpt><trkpt lat="45.250638" lon="7.7998613"><ele>221.20000000000002</ele><time>2026-03-29T08:59:38.186Z</time></trkpt><trkpt lat="45.2505482" lon="7.7999382"><ele>221.40000000000003</ele><time>2026-03-29T08:59:40.185Z</time></trkpt><trkpt lat="45.2504395" lon="7.7999962"><ele>221.6</ele><time>2026-03-29T08:59:42.182Z</time></trkpt><trkpt lat="45.2503392" lon="7.8000703"><ele>221.8</ele><time>2026-03-29T08:59:44.193Z</time></trkpt><trkpt lat="45.2502508" lon="7.8001739"><ele>222.0</ele><time>2026-03-29T08:59:46.191Z</time></trkpt><trkpt lat="45.2501646" lon="7.8002742"><ele>222.0</ele><time>2026-03-29T08:59:48.184Z</time></trkpt><trkpt lat="45.2500997" lon="7.8003593"><ele>222.0</ele><time>2026-03-29T08:59:50.191Z</time></trkpt><trkpt lat="45.2500252" lon="7.800442"><ele>222.0</ele><time>2026-03-29T08:59:52.194Z</time></trkpt><trkpt lat="45.2499621" lon="7.8005367"><ele>222.0</ele><time>2026-03-29T08:59:55.183Z</time></trkpt><trkpt lat="45.2499012" lon="7.8006249"><ele>222.0</ele><time>2026-03-29T08:59:57.191Z</time></trkpt><trkpt lat="45.2498353" lon="7.8007054"><ele>222.0</ele><time>2026-03-29T08:59:59.194Z</time></trkpt><trkpt lat="45.2497704" lon="7.8008034"><ele>222.0</ele><time>2026-03-29T09:00:02.22Z</time></trkpt><trkpt lat="45.2497303" lon="7.8008807"><ele>222.0</ele><time>2026-03-29T09:00:05.187Z</time></trkpt><trkpt lat="45.2496737" lon="7.8009496"><ele>222.0</ele><time>2026-03-29T09:00:10.188Z</time></trkpt><trkpt lat="45.2496099" lon="7.8009925"><ele>222.0</ele><time>2026-03-29T09:00:13.196Z</time></trkpt><trkpt lat="45.2495533" lon="7.8010529"><ele>222.0</ele><time>2026-03-29T09:00:16.187Z</time></trkpt><trkpt lat="45.2494634" lon="7.8011574"><ele>222.0</ele><time>2026-03-29T09:00:18.184Z</time></trkpt><trkpt lat="45.2494087" lon="7.8012087"><ele>222.0</ele><time>2026-03-29T09:00:19.184Z</time></trkpt><trkpt lat="45.2493546" lon="7.8012598"><ele>222.0</ele><time>2026-03-29T09:00:20.186Z</time></trkpt><trkpt lat="45.2492633" lon="7.8013441"><ele>222.0</ele><time>2026-03-29T09:00:22.18Z</time></trkpt><trkpt lat="45.249175" lon="7.8013835"><ele>222.0</ele><time>2026-03-29T09:00:24.188Z</time></trkpt><trkpt lat="45.2490758" lon="7.8013949"><ele>222.0</ele><time>2026-03-29T09:00:26.181Z</time></trkpt><trkpt lat="45.2489586" lon="7.8013817"><ele>222.0</ele><time>2026-03-29T09:00:28.189Z</time></trkpt><trkpt lat="45.2488767" lon="7.8013861"><ele>222.0</ele><time>2026-03-29T09:00:30.184Z</time></trkpt><trkpt lat="45.2488111" lon="7.8014066"><ele>222.0</ele><time>2026-03-29T09:00:32.191Z</time></trkpt><trkpt lat="45.2487588" lon="7.8015044"><ele>222.0</ele><time>2026-03-29T09:00:35.183Z</time></trkpt><trkpt lat="45.2487196" lon="7.801635"><ele>222.0</ele><time>2026-03-29T09:00:38.196Z</time></trkpt><trkpt lat="45.2486595" lon="7.801729"><ele>222.0</ele><time>2026-03-29T09:00:40.177Z</time></trkpt><trkpt lat="45.2485781" lon="7.801798"><ele>221.6</ele><time>2026-03-29T09:00:42.174Z</time></trkpt><trkpt lat="45.2485025" lon="7.8018725"><ele>221.2</ele><time>2026-03-29T09:00:44.193Z</time></trkpt><trkpt lat="45.2484433" lon="7.8019667"><ele>220.8</ele><time>2026-03-29T09:00:46.174Z</time></trkpt><trkpt lat="45.2483915" lon="7.8020992"><ele>220.4</ele><time>2026-03-29T09:00:48.193Z</time></trkpt><trkpt lat="45.248341" lon="7.8022264"><ele>220.0</ele><time>2026-03-29T09:00:50.193Z</time></trkpt><trkpt lat="45.2482775" lon="7.8023572"><ele>219.99999999999997</ele><time>2026-03-29T09:00:52.191Z</time></trkpt><trkpt lat="45.2482054" lon="7.8024859"><ele>220.0</ele><time>2026-03-29T09:00:54.191Z</time></trkpt><trkpt lat="45.2481504" lon="7.8025545"><ele>220.0</ele><time>2026-03-29T09:00:55.193Z</time></trkpt><trkpt lat="45.2480795" lon="7.8026259"><ele>220.0</ele><time>2026-03-29T09:00:56.182Z</time></trkpt><trkpt lat="45.2480071" lon="7.8026787"><ele>219.99999999999997</ele><time>2026-03-29T09:00:57.185Z</time></trkpt><trkpt lat="45.2479252" lon="7.8027195"><ele>220.0</ele><time>2026-03-29T09:00:58.187Z</time></trkpt><trkpt lat="45.247857" lon="7.8027318"><ele>219.83333333333331</ele><time>2026-03-29T09:00:59.186Z</time></trkpt><trkpt lat="45.2477875" lon="7.8027471"><ele>219.66666666666666</ele><time>2026-03-29T09:01:00.184Z</time></trkpt><trkpt lat="45.2477189" lon="7.8027712"><ele>219.5</ele><time>2026-03-29T09:01:01.203Z</time></trkpt><trkpt lat="45.247654" lon="7.802779"><ele>219.33333333333331</ele><time>2026-03-29T09:01:02.189Z</time></trkpt><trkpt lat="45.2475316" lon="7.80278"><ele>219.16666666666666</ele><time>2026-03-29T09:01:04.192Z</time></trkpt><trkpt lat="45.2474417" lon="7.8027961"><ele>219.0</ele><time>2026-03-29T09:01:05.181Z</time></trkpt><trkpt lat="45.2473528" lon="7.8028463"><ele>219.39999999999998</ele><time>2026-03-29T09:01:06.185Z</time></trkpt><trkpt lat="45.2472745" lon="7.802896"><ele>219.79999999999998</ele><time>2026-03-29T09:01:07.181Z</time></trkpt><trkpt lat="45.2471834" lon="7.8029323"><ele>220.20000000000002</ele><time>2026-03-29T09:01:08.18Z</time></trkpt><trkpt lat="45.2470881" lon="7.8029872"><ele>220.60000000000002</ele><time>2026-03-29T09:01:09.195Z</time></trkpt><trkpt lat="45.2469944" lon="7.803027"><ele>221.0</ele><time>2026-03-29T09:01:10.183Z</time></trkpt><trkpt lat="45.2468992" lon="7.8030781"><ele>221.00000000000003</ele><time>2026-03-29T09:01:11.202Z</time></trkpt><trkpt lat="45.2468142" lon="7.8031214"><ele>221.0</ele><time>2026-03-29T09:01:12.203Z</time></trkpt><trkpt lat="45.2467437" lon="7.8031659"><ele>221.0</ele><time>2026-03-29T09:01:13.183Z</time></trkpt><trkpt lat="45.2466621" lon="7.8032051"><ele>221.0</ele><time>2026-03-29T09:01:14.195Z</time></trkpt><trkpt lat="45.246587" lon="7.8032492"><ele>221.00000000000003</ele><time>2026-03-29T09:01:15.192Z</time></trkpt><trkpt lat="45.2465114" lon="7.8033042"><ele>221.0</ele><time>2026-03-29T09:01:16.194Z</time></trkpt><trkpt lat="45.246431" lon="7.8033788"><ele>220.50000000000003</ele><time>2026-03-29T09:01:17.197Z</time></trkpt><trkpt lat="45.2463593" lon="7.803445"><ele>220.0</ele><time>2026-03-29T09:01:18.184Z</time></trkpt><trkpt lat="45.2462946" lon="7.8035223"><ele>219.5</ele><time>2026-03-29T09:01:20.187Z</time></trkpt><trkpt lat="45.2462307" lon="7.8035786"><ele>219.0</ele><time>2026-03-29T09:01:22.2Z</time></trkpt><trkpt lat="45.2461787" lon="7.8036403"><ele>218.50000000000003</ele><time>2026-03-29T09:01:59.191Z</time></trkpt><trkpt lat="45.2460939" lon="7.8036922"><ele>218.0</ele><time>2026-03-29T09:02:01.193Z</time></trkpt><trkpt lat="45.2460065" lon="7.8037565"><ele>218.00000000000003</ele><time>2026-03-29T09:02:02.193Z</time></trkpt><trkpt lat="45.2459244" lon="7.8038325"><ele>218.0</ele><time>2026-03-29T09:02:03.193Z</time></trkpt><trkpt lat="45.2458572" lon="7.8038992"><ele>218.0</ele><time>2026-03-29T09:02:04.182Z</time></trkpt><trkpt lat="45.2457975" lon="7.8039468"><ele>218.0</ele><time>2026-03-29T09:02:05.197Z</time></trkpt><trkpt lat="45.24573" lon="7.8040007"><ele>218.00000000000003</ele><time>2026-03-29T09:02:07.19Z</time></trkpt><trkpt lat="45.2456897" lon="7.804095"><ele>218.0</ele><time>2026-03-29T09:02:10.198Z</time></trkpt><trkpt lat="45.245738" lon="7.8042816"><ele>218.0</ele><time>2026-03-29T09:02:12.199Z</time></trkpt><trkpt lat="45.2458179" lon="7.8044236"><ele>218.0</ele><time>2026-03-29T09:02:13.195Z</time></trkpt><trkpt lat="45.2459069" lon="7.8045902"><ele>218.0</ele><time>2026-03-29T09:02:14.186Z</time></trkpt><trkpt lat="45.246" lon="7.8047331"><ele>218.0</ele><time>2026-03-29T09:02:15.186Z</time></trkpt><trkpt lat="45.2460694" lon="7.8048731"><ele>218.0</ele><time>2026-03-29T09:02:16.192Z</time></trkpt><trkpt lat="45.2461358" lon="7.8049965"><ele>218.0</ele><time>2026-03-29T09:02:17.189Z</time></trkpt><trkpt lat="45.2461935" lon="7.8051165"><ele>218.0</ele><time>2026-03-29T09:02:18.194Z</time></trkpt><trkpt lat="45.2462464" lon="7.8052298"><ele>218.0</ele><time>2026-03-29T09:02:19.17Z</time></trkpt><trkpt lat="45.2463128" lon="7.8053587"><ele>218.0</ele><time>2026-03-29T09:02:20.193Z</time></trkpt><trkpt lat="45.2463772" lon="7.8054869"><ele>217.75</ele><time>2026-03-29T09:02:21.2Z</time></trkpt><trkpt lat="45.246458" lon="7.8056558"><ele>217.5</ele><time>2026-03-29T09:02:22.19Z</time></trkpt><trkpt lat="45.2465485" lon="7.8058305"><ele>217.25</ele><time>2026-03-29T09:02:23.189Z</time></trkpt><trkpt lat="45.2466315" lon="7.8059991"><ele>217.0</ele><time>2026-03-29T09:02:24.201Z</time></trkpt><trkpt lat="45.2467217" lon="7.8061682"><ele>215.0</ele><time>2026-03-29T09:02:25.196Z</time></trkpt><trkpt lat="45.2468087" lon="7.8063462"><ele>213.0</ele><time>2026-03-29T09:02:26.185Z</time></trkpt><trkpt lat="45.2468935" lon="7.8065169"><ele>211.0</ele><time>2026-03-29T09:02:27.202Z</time></trkpt><trkpt lat="45.2469808" lon="7.8066926"><ele>211.33333333333331</ele><time>2026-03-29T09:02:28.204Z</time></trkpt><trkpt lat="45.24707" lon="7.8068741"><ele>211.66666666666669</ele><time>2026-03-29T09:02:29.183Z</time></trkpt><trkpt lat="45.2471688" lon="7.8070585"><ele>212.0</ele><time>2026-03-29T09:02:30.194Z</time></trkpt><trkpt lat="45.2472584" lon="7.8072411"><ele>213.33333333333334</ele><time>2026-03-29T09:02:31.193Z</time></trkpt><trkpt lat="45.2473515" lon="7.8074255"><ele>214.66666666666669</ele><time>2026-03-29T09:02:32.189Z</time></trkpt><trkpt lat="45.2474464" lon="7.8076172"><ele>216.0</ele><time>2026-03-29T09:02:33.193Z</time></trkpt><trkpt lat="45.2475323" lon="7.807797"><ele>217.0</ele><time>2026-03-29T09:02:34.194Z</time></trkpt><trkpt lat="45.2476131" lon="7.8079701"><ele>218.0</ele><time>2026-03-29T09:02:35.192Z</time></trkpt><trkpt lat="45.2477027" lon="7.8081482"><ele>219.0</ele><time>2026-03-29T09:02:36.199Z</time></trkpt><trkpt lat="45.2477973" lon="7.8083253"><ele>219.0</ele><time>2026-03-29T09:02:37.189Z</time></trkpt><trkpt lat="45.2478904" lon="7.8084906"><ele>219.0</ele><time>2026-03-29T09:02:38.198Z</time></trkpt><trkpt lat="45.2480022" lon="7.8086504"><ele>219.0</ele><time>2026-03-29T09:02:39.198Z</time></trkpt><trkpt lat="45.248109" lon="7.8087934"><ele>219.0</ele><time>2026-03-29T09:02:40.201Z</time></trkpt><trkpt lat="45.2482238" lon="7.8089215"><ele>219.0</ele><time>2026-03-29T09:02:41.185Z</time></trkpt><trkpt lat="45.2483386" lon="7.809054"><ele>219.0</ele><time>2026-03-29T09:02:42.191Z</time></trkpt><trkpt lat="45.2484625" lon="7.8091743"><ele>219.0</ele><time>2026-03-29T09:02:43.192Z</time></trkpt><trkpt lat="45.2485979" lon="7.809285"><ele>218.33333333333331</ele><time>2026-03-29T09:02:44.198Z</time></trkpt><trkpt lat="45.2487367" lon="7.8093894"><ele>217.66666666666666</ele><time>2026-03-29T09:02:45.198Z</time></trkpt><trkpt lat="45.2488819" lon="7.8094738"><ele>217.0</ele><time>2026-03-29T09:02:46.197Z</time></trkpt><trkpt lat="45.2490303" lon="7.8095515"><ele>217.0</ele><time>2026-03-29T09:02:47.188Z</time></trkpt><trkpt lat="45.2491838" lon="7.8096192"><ele>217.0</ele><time>2026-03-29T09:02:48.192Z</time></trkpt><trkpt lat="45.2493456" lon="7.8096753"><ele>217.0</ele><time>2026-03-29T09:02:49.192Z</time></trkpt><trkpt lat="45.2495171" lon="7.8097197"><ele>217.0</ele><time>2026-03-29T09:02:50.176Z</time></trkpt><trkpt lat="45.2497015" lon="7.8097524"><ele>217.0</ele><time>2026-03-29T09:02:51.185Z</time></trkpt><trkpt lat="45.2498834" lon="7.8097742"><ele>217.0</ele><time>2026-03-29T09:02:52.185Z</time></trkpt><trkpt lat="45.2500696" lon="7.8097851"><ele>217.0</ele><time>2026-03-29T09:02:53.186Z</time></trkpt><trkpt lat="45.2502521" lon="7.8097929"><ele>217.0</ele><time>2026-03-29T09:02:54.192Z</time></trkpt><trkpt lat="45.2504301" lon="7.8098019"><ele>217.0</ele><time>2026-03-29T09:02:55.191Z</time></trkpt><trkpt lat="45.2505985" lon="7.8098118"><ele>217.33333333333331</ele><time>2026-03-29T09:02:56.191Z</time></trkpt><trkpt lat="45.2507688" lon="7.8098208"><ele>217.66666666666669</ele><time>2026-03-29T09:02:57.199Z</time></trkpt><trkpt lat="45.2509393" lon="7.8098337"><ele>218.0</ele><time>2026-03-29T09:02:58.196Z</time></trkpt><trkpt lat="45.2511045" lon="7.8098522"><ele>218.0</ele><time>2026-03-29T09:02:59.187Z</time></trkpt><trkpt lat="45.2512677" lon="7.8098727"><ele>218.0</ele><time>2026-03-29T09:03:00.192Z</time></trkpt><trkpt lat="45.2514344" lon="7.8098835"><ele>218.0</ele><time>2026-03-29T09:03:01.188Z</time></trkpt><trkpt lat="45.2516023" lon="7.8098951"><ele>218.33333333333334</ele><time>2026-03-29T09:03:02.206Z</time></trkpt><trkpt lat="45.2517737" lon="7.8099032"><ele>218.66666666666669</ele><time>2026-03-29T09:03:03.195Z</time></trkpt><trkpt lat="45.2519456" lon="7.8099179"><ele>219.0</ele><time>2026-03-29T09:03:04.193Z</time></trkpt><trkpt lat="45.2521225" lon="7.8099374"><ele>218.66666666666669</ele><time>2026-03-29T09:03:05.19Z</time></trkpt><trkpt lat="45.2522962" lon="7.8099526"><ele>218.33333333333334</ele><time>2026-03-29T09:03:06.186Z</time></trkpt><trkpt lat="45.2524707" lon="7.809969"><ele>218.0</ele><time>2026-03-29T09:03:07.188Z</time></trkpt><trkpt lat="45.2526506" lon="7.8099897"><ele>218.0</ele><time>2026-03-29T09:03:08.187Z</time></trkpt><trkpt lat="45.2528333" lon="7.8100091"><ele>218.0</ele><time>2026-03-29T09:03:09.19Z</time></trkpt><trkpt lat="45.2530169" lon="7.8100177"><ele>218.0</ele><time>2026-03-29T09:03:10.19Z</time></trkpt><trkpt lat="45.2532045" lon="7.8100351"><ele>218.66666666666669</ele><time>2026-03-29T09:03:11.185Z</time></trkpt><trkpt lat="45.2533933" lon="7.8100488"><ele>219.33333333333331</ele><time>2026-03-29T09:03:12.196Z</time></trkpt><trkpt lat="45.2535827" lon="7.8100616"><ele>220.0</ele><time>2026-03-29T09:03:13.186Z</time></trkpt><trkpt lat="45.2537767" lon="7.8100786"><ele>220.0</ele><time>2026-03-29T09:03:14.182Z</time></trkpt><trkpt lat="45.2539713" lon="7.8100909"><ele>220.0</ele><time>2026-03-29T09:03:15.195Z</time></trkpt><trkpt lat="45.2541629" lon="7.8101039"><ele>220.0</ele><time>2026-03-29T09:03:16.182Z</time></trkpt><trkpt lat="45.2543543" lon="7.8101207"><ele>220.0</ele><time>2026-03-29T09:03:17.2Z</time></trkpt><trkpt lat="45.2545457" lon="7.8101328"><ele>220.0</ele><time>2026-03-29T09:03:18.183Z</time></trkpt><trkpt lat="45.2547314" lon="7.8101438"><ele>220.0</ele><time>2026-03-29T09:03:19.199Z</time></trkpt><trkpt lat="45.2549124" lon="7.810156"><ele>219.66666666666666</ele><time>2026-03-29T09:03:20.191Z</time></trkpt><trkpt lat="45.2550962" lon="7.8101769"><ele>219.33333333333331</ele><time>2026-03-29T09:03:21.185Z</time></trkpt><trkpt lat="45.2552815" lon="7.8101913"><ele>219.0</ele><time>2026-03-29T09:03:22.193Z</time></trkpt><trkpt lat="45.255464" lon="7.8102074"><ele>219.0</ele><time>2026-03-29T09:03:23.193Z</time></trkpt><trkpt lat="45.2556492" lon="7.8102261"><ele>219.0</ele><time>2026-03-29T09:03:24.194Z</time></trkpt><trkpt lat="45.2558355" lon="7.8102414"><ele>219.0</ele><time>2026-03-29T09:03:25.192Z</time></trkpt><trkpt lat="45.2560211" lon="7.8102598"><ele>219.0</ele><time>2026-03-29T09:03:26.185Z</time></trkpt><trkpt lat="45.2562039" lon="7.8102769"><ele>219.0</ele><time>2026-03-29T09:03:27.173Z</time></trkpt><trkpt lat="45.2563795" lon="7.8102891"><ele>219.0</ele><time>2026-03-29T09:03:28.195Z</time></trkpt><trkpt lat="45.256554" lon="7.8103038"><ele>219.66666666666669</ele><time>2026-03-29T09:03:29.186Z</time></trkpt><trkpt lat="45.2567288" lon="7.8103233"><ele>220.33333333333334</ele><time>2026-03-29T09:03:30.174Z</time></trkpt><trkpt lat="45.2569025" lon="7.8103387"><ele>221.0</ele><time>2026-03-29T09:03:31.187Z</time></trkpt><trkpt lat="45.2570783" lon="7.8103522"><ele>221.0</ele><time>2026-03-29T09:03:32.195Z</time></trkpt><trkpt lat="45.2572606" lon="7.8103678"><ele>221.0</ele><time>2026-03-29T09:03:33.188Z</time></trkpt><trkpt lat="45.25744" lon="7.8103823"><ele>221.0</ele><time>2026-03-29T09:03:34.197Z</time></trkpt><trkpt lat="45.2576217" lon="7.8103878"><ele>220.66666666666669</ele><time>2026-03-29T09:03:35.19Z</time></trkpt><trkpt lat="45.2578055" lon="7.8104018"><ele>220.33333333333331</ele><time>2026-03-29T09:03:36.183Z</time></trkpt><trkpt lat="45.2579897" lon="7.810419"><ele>220.0</ele><time>2026-03-29T09:03:37.193Z</time></trkpt><trkpt lat="45.2581692" lon="7.8104347"><ele>220.0</ele><time>2026-03-29T09:03:38.193Z</time></trkpt><trkpt lat="45.2583495" lon="7.8104517"><ele>220.0</ele><time>2026-03-29T09:03:39.193Z</time></trkpt><trkpt lat="45.2585303" lon="7.8104724"><ele>220.0</ele><time>2026-03-29T09:03:40.195Z</time></trkpt><trkpt lat="45.2587081" lon="7.8105079"><ele>220.0</ele><time>2026-03-29T09:03:41.191Z</time></trkpt><trkpt lat="45.2588893" lon="7.8105582"><ele>220.0</ele><time>2026-03-29T09:03:42.186Z</time></trkpt><trkpt lat="45.2590748" lon="7.810618"><ele>220.0</ele><time>2026-03-29T09:03:43.189Z</time></trkpt><trkpt lat="45.2592559" lon="7.8106826"><ele>220.33333333333331</ele><time>2026-03-29T09:03:44.185Z</time></trkpt><trkpt lat="45.2594344" lon="7.8107486"><ele>220.66666666666669</ele><time>2026-03-29T09:03:45.19Z</time></trkpt><trkpt lat="45.2596129" lon="7.8108137"><ele>221.0</ele><time>2026-03-29T09:03:46.198Z</time></trkpt><trkpt lat="45.2597856" lon="7.8108776"><ele>221.66666666666669</ele><time>2026-03-29T09:03:47.186Z</time></trkpt><trkpt lat="45.2599592" lon="7.8109381"><ele>222.33333333333331</ele><time>2026-03-29T09:03:48.203Z</time></trkpt><trkpt lat="45.2601353" lon="7.8110007"><ele>223.0</ele><time>2026-03-29T09:03:49.179Z</time></trkpt><trkpt lat="45.260314" lon="7.8110638"><ele>223.0</ele><time>2026-03-29T09:03:50.197Z</time></trkpt><trkpt lat="45.2604948" lon="7.8111235"><ele>223.0</ele><time>2026-03-29T09:03:51.19Z</time></trkpt><trkpt lat="45.2606859" lon="7.8111708"><ele>223.0</ele><time>2026-03-29T09:03:52.204Z</time></trkpt><trkpt lat="45.2608799" lon="7.8112021"><ele>222.66666666666666</ele><time>2026-03-29T09:03:53.19Z</time></trkpt><trkpt lat="45.2610608" lon="7.8112324"><ele>222.33333333333331</ele><time>2026-03-29T09:03:54.178Z</time></trkpt><trkpt lat="45.2612252" lon="7.8112446"><ele>222.0</ele><time>2026-03-29T09:03:55.186Z</time></trkpt><trkpt lat="45.261382" lon="7.8112591"><ele>223.0</ele><time>2026-03-29T09:03:56.187Z</time></trkpt><trkpt lat="45.2615406" lon="7.8112726"><ele>224.0</ele><time>2026-03-29T09:03:57.183Z</time></trkpt><trkpt lat="45.2616965" lon="7.8112786"><ele>225.0</ele><time>2026-03-29T09:03:58.186Z</time></trkpt><trkpt lat="45.2618569" lon="7.8112876"><ele>225.0</ele><time>2026-03-29T09:03:59.191Z</time></trkpt><trkpt lat="45.2620212" lon="7.811303"><ele>225.0</ele><time>2026-03-29T09:04:00.188Z</time></trkpt><trkpt lat="45.2621895" lon="7.8113079"><ele>225.0</ele><time>2026-03-29T09:04:01.186Z</time></trkpt><trkpt lat="45.2623574" lon="7.8113132"><ele>225.33333333333331</ele><time>2026-03-29T09:04:02.188Z</time></trkpt><trkpt lat="45.2625294" lon="7.8113174"><ele>225.66666666666666</ele><time>2026-03-29T09:04:03.19Z</time></trkpt><trkpt lat="45.2627062" lon="7.8113243"><ele>226.0</ele><time>2026-03-29T09:04:04.185Z</time></trkpt><trkpt lat="45.2628932" lon="7.8113322"><ele>226.0</ele><time>2026-03-29T09:04:05.185Z</time></trkpt><trkpt lat="45.2630773" lon="7.8113416"><ele>226.0</ele><time>2026-03-29T09:04:06.198Z</time></trkpt><trkpt lat="45.2632588" lon="7.8113427"><ele>226.0</ele><time>2026-03-29T09:04:07.194Z</time></trkpt><trkpt lat="45.2634381" lon="7.8113466"><ele>226.0</ele><time>2026-03-29T09:04:08.183Z</time></trkpt><trkpt lat="45.263618" lon="7.8113612"><ele>226.0</ele><time>2026-03-29T09:04:09.176Z</time></trkpt><trkpt lat="45.2637926" lon="7.8113828"><ele>226.0</ele><time>2026-03-29T09:04:10.177Z</time></trkpt><trkpt lat="45.2639659" lon="7.8114295"><ele>226.0</ele><time>2026-03-29T09:04:11.18Z</time></trkpt><trkpt lat="45.2641371" lon="7.8114914"><ele>226.0</ele><time>2026-03-29T09:04:12.171Z</time></trkpt><trkpt lat="45.2643049" lon="7.811552"><ele>226.0</ele><time>2026-03-29T09:04:13.188Z</time></trkpt><trkpt lat="45.264474" lon="7.8115966"><ele>226.0</ele><time>2026-03-29T09:04:14.17Z</time></trkpt><trkpt lat="45.2646429" lon="7.8116318"><ele>226.0</ele><time>2026-03-29T09:04:15.188Z</time></trkpt><trkpt lat="45.2648101" lon="7.811663"><ele>226.0</ele><time>2026-03-29T09:04:16.192Z</time></trkpt><trkpt lat="45.2649562" lon="7.8116896"><ele>226.25</ele><time>2026-03-29T09:04:17.186Z</time></trkpt><trkpt lat="45.2650884" lon="7.8117138"><ele>226.5</ele><time>2026-03-29T09:04:18.193Z</time></trkpt><trkpt lat="45.2652082" lon="7.8117538"><ele>226.75</ele><time>2026-03-29T09:04:19.184Z</time></trkpt><trkpt lat="45.265324" lon="7.8118225"><ele>227.0</ele><time>2026-03-29T09:04:20.188Z</time></trkpt><trkpt lat="45.265418" lon="7.8119234"><ele>227.0</ele><time>2026-03-29T09:04:21.188Z</time></trkpt><trkpt lat="45.2654941" lon="7.8120596"><ele>227.0</ele><time>2026-03-29T09:04:22.19Z</time></trkpt><trkpt lat="45.2655389" lon="7.8122373"><ele>227.0</ele><time>2026-03-29T09:04:23.19Z</time></trkpt><trkpt lat="45.2655571" lon="7.8124501"><ele>227.0</ele><time>2026-03-29T09:04:24.195Z</time></trkpt><trkpt lat="45.2655658" lon="7.8127018"><ele>227.0</ele><time>2026-03-29T09:04:25.179Z</time></trkpt><trkpt lat="45.2655732" lon="7.8129756"><ele>227.0</ele><time>2026-03-29T09:04:26.196Z</time></trkpt><trkpt lat="45.2655863" lon="7.813233"><ele>227.0</ele><time>2026-03-29T09:04:27.187Z</time></trkpt><trkpt lat="45.2656023" lon="7.8134694"><ele>226.33333333333334</ele><time>2026-03-29T09:04:28.206Z</time></trkpt><trkpt lat="45.2656077" lon="7.8136954"><ele>225.66666666666669</ele><time>2026-03-29T09:04:29.184Z</time></trkpt><trkpt lat="45.2656272" lon="7.8139165"><ele>225.0</ele><time>2026-03-29T09:04:30.197Z</time></trkpt><trkpt lat="45.2656578" lon="7.8141234"><ele>225.66666666666669</ele><time>2026-03-29T09:04:31.18Z</time></trkpt><trkpt lat="45.2657061" lon="7.8143293"><ele>226.33333333333334</ele><time>2026-03-29T09:04:32.18Z</time></trkpt><trkpt lat="45.2657731" lon="7.8145209"><ele>227.0</ele><time>2026-03-29T09:04:33.194Z</time></trkpt><trkpt lat="45.2658589" lon="7.8147118"><ele>227.0</ele><time>2026-03-29T09:04:34.191Z</time></trkpt><trkpt lat="45.2659808" lon="7.8149052"><ele>227.0</ele><time>2026-03-29T09:04:35.193Z</time></trkpt><trkpt lat="45.2661184" lon="7.8150828"><ele>227.0</ele><time>2026-03-29T09:04:36.194Z</time></trkpt><trkpt lat="45.2662564" lon="7.8152536"><ele>226.66666666666669</ele><time>2026-03-29T09:04:37.19Z</time></trkpt><trkpt lat="45.2663898" lon="7.8154151"><ele>226.33333333333331</ele><time>2026-03-29T09:04:38.19Z</time></trkpt><trkpt lat="45.2665154" lon="7.8155697"><ele>226.0</ele><time>2026-03-29T09:04:39.188Z</time></trkpt><trkpt lat="45.2666355" lon="7.815722"><ele>226.66666666666666</ele><time>2026-03-29T09:04:40.188Z</time></trkpt><trkpt lat="45.2667591" lon="7.8158654"><ele>227.33333333333331</ele><time>2026-03-29T09:04:41.174Z</time></trkpt><trkpt lat="45.2668798" lon="7.816022"><ele>228.0</ele><time>2026-03-29T09:04:42.182Z</time></trkpt><trkpt lat="45.2670028" lon="7.8161761"><ele>228.33333333333331</ele><time>2026-03-29T09:04:43.172Z</time></trkpt><trkpt lat="45.2671244" lon="7.8163205"><ele>228.66666666666666</ele><time>2026-03-29T09:04:44.183Z</time></trkpt><trkpt lat="45.2672507" lon="7.8164692"><ele>229.0</ele><time>2026-03-29T09:04:45.183Z</time></trkpt><trkpt lat="45.2673752" lon="7.8166061"><ele>229.0</ele><time>2026-03-29T09:04:46.175Z</time></trkpt><trkpt lat="45.2675041" lon="7.8167437"><ele>229.0</ele><time>2026-03-29T09:04:47.187Z</time></trkpt><trkpt lat="45.2676279" lon="7.8168871"><ele>229.0</ele><time>2026-03-29T09:04:48.18Z</time></trkpt><trkpt lat="45.2677526" lon="7.8170258"><ele>229.0</ele><time>2026-03-29T09:04:49.184Z</time></trkpt><trkpt lat="45.2678697" lon="7.8171572"><ele>229.0</ele><time>2026-03-29T09:04:50.172Z</time></trkpt><trkpt lat="45.2679954" lon="7.8172958"><ele>229.0</ele><time>2026-03-29T09:04:51.18Z</time></trkpt><trkpt lat="45.268115" lon="7.817426"><ele>229.0</ele><time>2026-03-29T09:04:52.197Z</time></trkpt><trkpt lat="45.2682408" lon="7.817562"><ele>229.0</ele><time>2026-03-29T09:04:53.178Z</time></trkpt><trkpt lat="45.2683666" lon="7.817692"><ele>229.0</ele><time>2026-03-29T09:04:54.187Z</time></trkpt><trkpt lat="45.2684825" lon="7.8178272"><ele>229.0</ele><time>2026-03-29T09:04:55.192Z</time></trkpt><trkpt lat="45.268601" lon="7.8179648"><ele>229.0</ele><time>2026-03-29T09:04:56.197Z</time></trkpt><trkpt lat="45.2687221" lon="7.8181022"><ele>229.0</ele><time>2026-03-29T09:04:57.189Z</time></trkpt><trkpt lat="45.2688445" lon="7.8182459"><ele>229.33333333333331</ele><time>2026-03-29T09:04:58.179Z</time></trkpt><trkpt lat="45.2689695" lon="7.8183758"><ele>229.66666666666669</ele><time>2026-03-29T09:04:59.194Z</time></trkpt><trkpt lat="45.2690907" lon="7.8185089"><ele>230.0</ele><time>2026-03-29T09:05:00.19Z</time></trkpt><trkpt lat="45.2692184" lon="7.8186439"><ele>230.0</ele><time>2026-03-29T09:05:01.187Z</time></trkpt><trkpt lat="45.26934" lon="7.8187706"><ele>230.0</ele><time>2026-03-29T09:05:02.191Z</time></trkpt><trkpt lat="45.2694584" lon="7.8189064"><ele>230.0</ele><time>2026-03-29T09:05:03.189Z</time></trkpt><trkpt lat="45.2695721" lon="7.8190324"><ele>230.0</ele><time>2026-03-29T09:05:04.191Z</time></trkpt><trkpt lat="45.2696842" lon="7.8191493"><ele>230.0</ele><time>2026-03-29T09:05:05.191Z</time></trkpt><trkpt lat="45.2697863" lon="7.8192688"><ele>230.0</ele><time>2026-03-29T09:05:06.195Z</time></trkpt><trkpt lat="45.2698878" lon="7.8193886"><ele>230.0</ele><time>2026-03-29T09:05:07.179Z</time></trkpt><trkpt lat="45.2699912" lon="7.8195034"><ele>230.0</ele><time>2026-03-29T09:05:08.172Z</time></trkpt><trkpt lat="45.2700919" lon="7.8196208"><ele>230.2</ele><time>2026-03-29T09:05:09.192Z</time></trkpt><trkpt lat="45.2701864" lon="7.8197296"><ele>230.4</ele><time>2026-03-29T09:05:10.187Z</time></trkpt><trkpt lat="45.2702627" lon="7.819833"><ele>230.60000000000002</ele><time>2026-03-29T09:05:11.178Z</time></trkpt><trkpt lat="45.2703129" lon="7.8199499"><ele>230.8</ele><time>2026-03-29T09:05:12.177Z</time></trkpt><trkpt lat="45.2703377" lon="7.8200764"><ele>231.0</ele><time>2026-03-29T09:05:13.185Z</time></trkpt><trkpt lat="45.2703612" lon="7.8202016"><ele>231.0</ele><time>2026-03-29T09:05:14.179Z</time></trkpt><trkpt lat="45.2703798" lon="7.8203165"><ele>231.00000000000003</ele><time>2026-03-29T09:05:15.18Z</time></trkpt><trkpt lat="45.2704062" lon="7.8204417"><ele>231.00000000000003</ele><time>2026-03-29T09:05:16.184Z</time></trkpt><trkpt lat="45.2704482" lon="7.8205596"><ele>231.0</ele><time>2026-03-29T09:05:17.181Z</time></trkpt><trkpt lat="45.2704885" lon="7.820668"><ele>231.0</ele><time>2026-03-29T09:05:18.177Z</time></trkpt><trkpt lat="45.2705543" lon="7.8207701"><ele>231.4</ele><time>2026-03-29T09:05:19.192Z</time></trkpt><trkpt lat="45.2706367" lon="7.8208596"><ele>231.8</ele><time>2026-03-29T09:05:20.184Z</time></trkpt><trkpt lat="45.2707156" lon="7.8209428"><ele>232.20000000000002</ele><time>2026-03-29T09:05:21.182Z</time></trkpt><trkpt lat="45.2707906" lon="7.8210164"><ele>232.60000000000002</ele><time>2026-03-29T09:05:22.176Z</time></trkpt><trkpt lat="45.2708579" lon="7.8210947"><ele>233.0</ele><time>2026-03-29T09:05:23.181Z</time></trkpt><trkpt lat="45.2709251" lon="7.8211968"><ele>233.00000000000003</ele><time>2026-03-29T09:05:24.176Z</time></trkpt><trkpt lat="45.2709817" lon="7.8212887"><ele>233.0</ele><time>2026-03-29T09:05:25.183Z</time></trkpt><trkpt lat="45.2710291" lon="7.8213701"><ele>233.0</ele><time>2026-03-29T09:05:26.197Z</time></trkpt><trkpt lat="45.2710858" lon="7.8214426"><ele>233.0</ele><time>2026-03-29T09:05:27.185Z</time></trkpt><trkpt lat="45.2711474" lon="7.8215421"><ele>233.00000000000003</ele><time>2026-03-29T09:05:29.188Z</time></trkpt><trkpt lat="45.2711466" lon="7.8216722"><ele>233.0</ele><time>2026-03-29T09:05:33.195Z</time></trkpt><trkpt lat="45.2711117" lon="7.8217599"><ele>233.00000000000003</ele><time>2026-03-29T09:05:34.183Z</time></trkpt><trkpt lat="45.2710778" lon="7.821856"><ele>233.0</ele><time>2026-03-29T09:05:35.196Z</time></trkpt><trkpt lat="45.2710329" lon="7.8219604"><ele>233.0</ele><time>2026-03-29T09:05:36.194Z</time></trkpt><trkpt lat="45.2709978" lon="7.8220718"><ele>233.0</ele><time>2026-03-29T09:05:37.195Z</time></trkpt><trkpt lat="45.2709696" lon="7.8221933"><ele>233.00000000000003</ele><time>2026-03-29T09:05:38.191Z</time></trkpt><trkpt lat="45.2709463" lon="7.8223095"><ele>233.0</ele><time>2026-03-29T09:05:39.2Z</time></trkpt><trkpt lat="45.270916" lon="7.8224214"><ele>233.0</ele><time>2026-03-29T09:05:40.184Z</time></trkpt><trkpt lat="45.2708938" lon="7.8225545"><ele>233.0</ele><time>2026-03-29T09:05:41.188Z</time></trkpt><trkpt lat="45.2708682" lon="7.8226847"><ele>233.0</ele><time>2026-03-29T09:05:42.192Z</time></trkpt><trkpt lat="45.2708497" lon="7.8228129"><ele>233.0</ele><time>2026-03-29T09:05:43.19Z</time></trkpt><trkpt lat="45.2708382" lon="7.8229439"><ele>233.0</ele><time>2026-03-29T09:05:44.179Z</time></trkpt><trkpt lat="45.2708314" lon="7.8230715"><ele>233.0</ele><time>2026-03-29T09:05:45.192Z</time></trkpt><trkpt lat="45.2708285" lon="7.8231998"><ele>233.0</ele><time>2026-03-29T09:05:46.176Z</time></trkpt><trkpt lat="45.2708283" lon="7.8233257"><ele>233.0</ele><time>2026-03-29T09:05:47.191Z</time></trkpt><trkpt lat="45.2708216" lon="7.8234655"><ele>233.0</ele><time>2026-03-29T09:05:48.184Z</time></trkpt><trkpt lat="45.2708223" lon="7.8235995"><ele>233.0</ele><time>2026-03-29T09:05:49.186Z</time></trkpt><trkpt lat="45.2708218" lon="7.8237313"><ele>233.60000000000002</ele><time>2026-03-29T09:05:50.184Z</time></trkpt><trkpt lat="45.2708258" lon="7.8238475"><ele>234.20000000000002</ele><time>2026-03-29T09:05:51.177Z</time></trkpt><trkpt lat="45.2708262" lon="7.8239548"><ele>234.8</ele><time>2026-03-29T09:05:52.179Z</time></trkpt><trkpt lat="45.2708247" lon="7.824134"><ele>235.4</ele><time>2026-03-29T09:05:54.187Z</time></trkpt><trkpt lat="45.2708301" lon="7.8243284"><ele>236.0</ele><time>2026-03-29T09:05:56.18Z</time></trkpt><trkpt lat="45.2708354" lon="7.8244688"><ele>236.8</ele><time>2026-03-29T09:05:57.176Z</time></trkpt><trkpt lat="45.270834" lon="7.8246152"><ele>237.60000000000002</ele><time>2026-03-29T09:05:58.182Z</time></trkpt><trkpt lat="45.2708291" lon="7.8247604"><ele>238.4</ele><time>2026-03-29T09:05:59.192Z</time></trkpt><trkpt lat="45.2708222" lon="7.8249061"><ele>239.2</ele><time>2026-03-29T09:06:00.181Z</time></trkpt><trkpt lat="45.2708137" lon="7.8250469"><ele>240.0</ele><time>2026-03-29T09:06:01.177Z</time></trkpt><trkpt lat="45.2707991" lon="7.8252042"><ele>241.25</ele><time>2026-03-29T09:06:02.177Z</time></trkpt><trkpt lat="45.2707902" lon="7.8253947"><ele>242.5</ele><time>2026-03-29T09:06:03.183Z</time></trkpt><trkpt lat="45.2707826" lon="7.8255718"><ele>243.75</ele><time>2026-03-29T09:06:04.188Z</time></trkpt><trkpt lat="45.2707815" lon="7.8257388"><ele>245.0</ele><time>2026-03-29T09:06:05.195Z</time></trkpt><trkpt lat="45.2707887" lon="7.8259052"><ele>245.5</ele><time>2026-03-29T09:06:06.198Z</time></trkpt><trkpt lat="45.2707976" lon="7.8260722"><ele>246.0</ele><time>2026-03-29T09:06:07.182Z</time></trkpt><trkpt lat="45.2708268" lon="7.8262561"><ele>246.5</ele><time>2026-03-29T09:06:08.184Z</time></trkpt><trkpt lat="45.2708625" lon="7.8264546"><ele>247.0</ele><time>2026-03-29T09:06:09.19Z</time></trkpt><trkpt lat="45.2708948" lon="7.8266555"><ele>247.0</ele><time>2026-03-29T09:06:10.185Z</time></trkpt><trkpt lat="45.2709224" lon="7.8268452"><ele>247.0</ele><time>2026-03-29T09:06:11.197Z</time></trkpt><trkpt lat="45.2709601" lon="7.8270333"><ele>247.0</ele><time>2026-03-29T09:06:12.163Z</time></trkpt><trkpt lat="45.2709938" lon="7.8272056"><ele>247.0</ele><time>2026-03-29T09:06:13.181Z</time></trkpt><trkpt lat="45.2710228" lon="7.8273607"><ele>247.0</ele><time>2026-03-29T09:06:14.182Z</time></trkpt><trkpt lat="45.2710512" lon="7.8275184"><ele>247.0</ele><time>2026-03-29T09:06:15.184Z</time></trkpt><trkpt lat="45.2710819" lon="7.8276688"><ele>247.0</ele><time>2026-03-29T09:06:16.184Z</time></trkpt><trkpt lat="45.2711059" lon="7.8278419"><ele>247.0</ele><time>2026-03-29T09:06:17.182Z</time></trkpt><trkpt lat="45.2711124" lon="7.8280171"><ele>246.5</ele><time>2026-03-29T09:06:18.179Z</time></trkpt><trkpt lat="45.2711148" lon="7.8282057"><ele>246.0</ele><time>2026-03-29T09:06:19.181Z</time></trkpt><trkpt lat="45.2710992" lon="7.8283972"><ele>245.5</ele><time>2026-03-29T09:06:20.183Z</time></trkpt><trkpt lat="45.2710773" lon="7.8285972"><ele>245.0</ele><time>2026-03-29T09:06:21.188Z</time></trkpt><trkpt lat="45.2710566" lon="7.8287964"><ele>245.0</ele><time>2026-03-29T09:06:22.185Z</time></trkpt><trkpt lat="45.2710322" lon="7.8290043"><ele>245.0</ele><time>2026-03-29T09:06:23.173Z</time></trkpt><trkpt lat="45.271002" lon="7.829223"><ele>245.0</ele><time>2026-03-29T09:06:24.197Z</time></trkpt><trkpt lat="45.2709798" lon="7.8294379"><ele>245.0</ele><time>2026-03-29T09:06:25.183Z</time></trkpt><trkpt lat="45.270952" lon="7.8296497"><ele>245.0</ele><time>2026-03-29T09:06:26.183Z</time></trkpt><trkpt lat="45.2709221" lon="7.829857"><ele>245.0</ele><time>2026-03-29T09:06:27.172Z</time></trkpt><trkpt lat="45.2708987" lon="7.8300641"><ele>245.0</ele><time>2026-03-29T09:06:28.18Z</time></trkpt><trkpt lat="45.2708715" lon="7.8302684"><ele>244.75</ele><time>2026-03-29T09:06:29.181Z</time></trkpt><trkpt lat="45.2708391" lon="7.8304671"><ele>244.5</ele><time>2026-03-29T09:06:30.182Z</time></trkpt><trkpt lat="45.2708052" lon="7.8306621"><ele>244.25</ele><time>2026-03-29T09:06:31.174Z</time></trkpt><trkpt lat="45.2707723" lon="7.8308702"><ele>244.0</ele><time>2026-03-29T09:06:32.185Z</time></trkpt><trkpt lat="45.270733" lon="7.8310824"><ele>244.0</ele><time>2026-03-29T09:06:33.187Z</time></trkpt><trkpt lat="45.2706931" lon="7.8312954"><ele>244.0</ele><time>2026-03-29T09:06:34.186Z</time></trkpt><trkpt lat="45.2706576" lon="7.8315026"><ele>244.0</ele><time>2026-03-29T09:06:35.176Z</time></trkpt><trkpt lat="45.2706222" lon="7.8317052"><ele>243.0</ele><time>2026-03-29T09:06:36.191Z</time></trkpt><trkpt lat="45.2705926" lon="7.8319076"><ele>242.0</ele><time>2026-03-29T09:06:37.19Z</time></trkpt><trkpt lat="45.2705661" lon="7.8321229"><ele>241.0</ele><time>2026-03-29T09:06:38.185Z</time></trkpt><trkpt lat="45.2705467" lon="7.8323474"><ele>241.0</ele><time>2026-03-29T09:06:39.178Z</time></trkpt><trkpt lat="45.2705328" lon="7.832576"><ele>241.0</ele><time>2026-03-29T09:06:40.188Z</time></trkpt><trkpt lat="45.2705235" lon="7.8328064"><ele>241.0</ele><time>2026-03-29T09:06:41.191Z</time></trkpt><trkpt lat="45.2705128" lon="7.8330436"><ele>241.0</ele><time>2026-03-29T09:06:42.187Z</time></trkpt><trkpt lat="45.2705002" lon="7.8332737"><ele>241.0</ele><time>2026-03-29T09:06:43.193Z</time></trkpt><trkpt lat="45.2704935" lon="7.8335063"><ele>241.0</ele><time>2026-03-29T09:06:44.193Z</time></trkpt><trkpt lat="45.2704883" lon="7.8337348"><ele>241.0</ele><time>2026-03-29T09:06:45.168Z</time></trkpt><trkpt lat="45.270479" lon="7.8339626"><ele>241.0</ele><time>2026-03-29T09:06:46.201Z</time></trkpt><trkpt lat="45.2704679" lon="7.8341877"><ele>241.0</ele><time>2026-03-29T09:06:47.17Z</time></trkpt><trkpt lat="45.2704629" lon="7.8344173"><ele>241.33333333333331</ele><time>2026-03-29T09:06:48.182Z</time></trkpt><trkpt lat="45.2704571" lon="7.834639"><ele>241.66666666666669</ele><time>2026-03-29T09:06:49.19Z</time></trkpt><trkpt lat="45.2704552" lon="7.8348661"><ele>242.0</ele><time>2026-03-29T09:06:50.173Z</time></trkpt><trkpt lat="45.2704492" lon="7.8351018"><ele>243.0</ele><time>2026-03-29T09:06:51.182Z</time></trkpt><trkpt lat="45.2704443" lon="7.8353275"><ele>244.0</ele><time>2026-03-29T09:06:52.194Z</time></trkpt><trkpt lat="45.2704357" lon="7.8355493"><ele>245.0</ele><time>2026-03-29T09:06:53.184Z</time></trkpt><trkpt lat="45.2704297" lon="7.8357724"><ele>244.5</ele><time>2026-03-29T09:06:54.187Z</time></trkpt><trkpt lat="45.2704258" lon="7.8359758"><ele>244.0</ele><time>2026-03-29T09:06:55.178Z</time></trkpt><trkpt lat="45.2704284" lon="7.8361821"><ele>243.5</ele><time>2026-03-29T09:06:56.187Z</time></trkpt><trkpt lat="45.2704411" lon="7.8363868"><ele>243.0</ele><time>2026-03-29T09:06:57.181Z</time></trkpt><trkpt lat="45.2704746" lon="7.8365931"><ele>243.0</ele><time>2026-03-29T09:06:58.182Z</time></trkpt><trkpt lat="45.2705131" lon="7.8367915"><ele>243.0</ele><time>2026-03-29T09:06:59.179Z</time></trkpt><trkpt lat="45.2705578" lon="7.8369889"><ele>243.0</ele><time>2026-03-29T09:07:00.185Z</time></trkpt><trkpt lat="45.2706023" lon="7.8371765"><ele>243.0</ele><time>2026-03-29T09:07:01.183Z</time></trkpt><trkpt lat="45.2706454" lon="7.8373422"><ele>243.33333333333334</ele><time>2026-03-29T09:07:02.177Z</time></trkpt><trkpt lat="45.2706866" lon="7.8374644"><ele>243.66666666666669</ele><time>2026-03-29T09:07:03.183Z</time></trkpt><trkpt lat="45.2707208" lon="7.8375616"><ele>244.0</ele><time>2026-03-29T09:07:04.207Z</time></trkpt><trkpt lat="45.2707654" lon="7.8376346"><ele>244.33333333333334</ele><time>2026-03-29T09:07:05.185Z</time></trkpt><trkpt lat="45.2708186" lon="7.8376891"><ele>244.66666666666669</ele><time>2026-03-29T09:07:06.199Z</time></trkpt><trkpt lat="45.2709454" lon="7.8377328"><ele>245.0</ele><time>2026-03-29T09:07:08.175Z</time></trkpt><trkpt lat="45.2710461" lon="7.8377091"><ele>245.25</ele><time>2026-03-29T09:07:09.185Z</time></trkpt><trkpt lat="45.2711685" lon="7.8376783"><ele>245.5</ele><time>2026-03-29T09:07:10.183Z</time></trkpt><trkpt lat="45.271317" lon="7.8376431"><ele>245.75</ele><time>2026-03-29T09:07:11.181Z</time></trkpt><trkpt lat="45.2714716" lon="7.8375961"><ele>246.0</ele><time>2026-03-29T09:07:12.183Z</time></trkpt><trkpt lat="45.2716152" lon="7.8375655"><ele>246.0</ele><time>2026-03-29T09:07:13.185Z</time></trkpt><trkpt lat="45.2717427" lon="7.8375391"><ele>246.0</ele><time>2026-03-29T09:07:14.189Z</time></trkpt><trkpt lat="45.2718709" lon="7.8375106"><ele>246.0</ele><time>2026-03-29T09:07:15.184Z</time></trkpt><trkpt lat="45.272" lon="7.8374744"><ele>246.0</ele><time>2026-03-29T09:07:16.173Z</time></trkpt><trkpt lat="45.2721314" lon="7.8374512"><ele>246.0</ele><time>2026-03-29T09:07:17.187Z</time></trkpt><trkpt lat="45.2722546" lon="7.8374297"><ele>246.00000000000003</ele><time>2026-03-29T09:07:18.193Z</time></trkpt><trkpt lat="45.2723619" lon="7.8374169"><ele>246.00000000000003</ele><time>2026-03-29T09:07:19.176Z</time></trkpt><trkpt lat="45.2724615" lon="7.8374007"><ele>246.0</ele><time>2026-03-29T09:07:20.18Z</time></trkpt><trkpt lat="45.2725603" lon="7.8374022"><ele>246.0</ele><time>2026-03-29T09:07:21.188Z</time></trkpt><trkpt lat="45.2726741" lon="7.8373993"><ele>245.8</ele><time>2026-03-29T09:07:22.186Z</time></trkpt><trkpt lat="45.2727956" lon="7.8373888"><ele>245.60000000000002</ele><time>2026-03-29T09:07:23.189Z</time></trkpt><trkpt lat="45.2729125" lon="7.8373644"><ele>245.4</ele><time>2026-03-29T09:07:24.202Z</time></trkpt><trkpt lat="45.2730063" lon="7.8373603"><ele>245.2</ele><time>2026-03-29T09:07:25.188Z</time></trkpt><trkpt lat="45.2730775" lon="7.8373724"><ele>245.0</ele><time>2026-03-29T09:07:26.19Z</time></trkpt><trkpt lat="45.2731792" lon="7.8374302"><ele>245.16666666666669</ele><time>2026-03-29T09:07:28.187Z</time></trkpt><trkpt lat="45.2732232" lon="7.8374981"><ele>245.33333333333334</ele><time>2026-03-29T09:07:29.182Z</time></trkpt><trkpt lat="45.273281" lon="7.8376103"><ele>245.5</ele><time>2026-03-29T09:07:30.177Z</time></trkpt><trkpt lat="45.2733261" lon="7.8377344"><ele>245.66666666666669</ele><time>2026-03-29T09:07:31.181Z</time></trkpt><trkpt lat="45.2733587" lon="7.8378184"><ele>245.83333333333334</ele><time>2026-03-29T09:07:32.178Z</time></trkpt><trkpt lat="45.2734151" lon="7.8379564"><ele>246.0</ele><time>2026-03-29T09:07:35.181Z</time></trkpt><trkpt lat="45.2734807" lon="7.8380048"><ele>246.0</ele><time>2026-03-29T09:07:36.185Z</time></trkpt><trkpt lat="45.2735761" lon="7.8380539"><ele>246.00000000000003</ele><time>2026-03-29T09:07:37.18Z</time></trkpt><trkpt lat="45.2736742" lon="7.8381002"><ele>246.00000000000003</ele><time>2026-03-29T09:07:38.183Z</time></trkpt><trkpt lat="45.2737773" lon="7.8381342"><ele>246.0</ele><time>2026-03-29T09:07:39.176Z</time></trkpt><trkpt lat="45.2738895" lon="7.838158"><ele>246.0</ele><time>2026-03-29T09:07:40.191Z</time></trkpt><trkpt lat="45.2740209" lon="7.8381653"><ele>246.25</ele><time>2026-03-29T09:07:41.186Z</time></trkpt><trkpt lat="45.2741747" lon="7.8381709"><ele>246.5</ele><time>2026-03-29T09:07:42.189Z</time></trkpt><trkpt lat="45.2743241" lon="7.8381762"><ele>246.75</ele><time>2026-03-29T09:07:43.188Z</time></trkpt><trkpt lat="45.2744523" lon="7.8381775"><ele>247.0</ele><time>2026-03-29T09:07:44.17Z</time></trkpt><trkpt lat="45.2745686" lon="7.8381555"><ele>247.0</ele><time>2026-03-29T09:07:45.189Z</time></trkpt><trkpt lat="45.274682" lon="7.8381372"><ele>247.0</ele><time>2026-03-29T09:07:46.199Z</time></trkpt><trkpt lat="45.2747882" lon="7.8381184"><ele>247.0</ele><time>2026-03-29T09:07:47.183Z</time></trkpt><trkpt lat="45.2748729" lon="7.8381052"><ele>247.0</ele><time>2026-03-29T09:07:48.189Z</time></trkpt><trkpt lat="45.2749437" lon="7.8380962"><ele>247.0</ele><time>2026-03-29T09:07:49.185Z</time></trkpt><trkpt lat="45.2750474" lon="7.8381083"><ele>247.0</ele><time>2026-03-29T09:07:51.179Z</time></trkpt><trkpt lat="45.2751292" lon="7.8381789"><ele>247.0</ele><time>2026-03-29T09:07:53.179Z</time></trkpt><trkpt lat="45.2751613" lon="7.838352"><ele>247.0</ele><time>2026-03-29T09:07:55.186Z</time></trkpt><trkpt lat="45.2751816" lon="7.8385305"><ele>247.0</ele><time>2026-03-29T09:07:56.196Z</time></trkpt><trkpt lat="45.2751926" lon="7.8387202"><ele>246.75</ele><time>2026-03-29T09:07:57.175Z</time></trkpt><trkpt lat="45.2752029" lon="7.8389046"><ele>246.5</ele><time>2026-03-29T09:07:58.176Z</time></trkpt><trkpt lat="45.2752201" lon="7.8390927"><ele>246.25</ele><time>2026-03-29T09:07:59.176Z</time></trkpt><trkpt lat="45.2752397" lon="7.8392864"><ele>246.0</ele><time>2026-03-29T09:08:00.198Z</time></trkpt><trkpt lat="45.2752611" lon="7.8394738"><ele>246.0</ele><time>2026-03-29T09:08:01.181Z</time></trkpt><trkpt lat="45.2752831" lon="7.8396802"><ele>246.0</ele><time>2026-03-29T09:08:02.181Z</time></trkpt><trkpt lat="45.2753135" lon="7.8398965"><ele>246.0</ele><time>2026-03-29T09:08:03.177Z</time></trkpt><trkpt lat="45.2753488" lon="7.8401207"><ele>246.0</ele><time>2026-03-29T09:08:04.194Z</time></trkpt><trkpt lat="45.2753891" lon="7.8403339"><ele>246.0</ele><time>2026-03-29T09:08:05.185Z</time></trkpt><trkpt lat="45.2754225" lon="7.8405366"><ele>246.0</ele><time>2026-03-29T09:08:06.185Z</time></trkpt><trkpt lat="45.2754532" lon="7.8407308"><ele>246.0</ele><time>2026-03-29T09:08:07.184Z</time></trkpt><trkpt lat="45.2754869" lon="7.8409221"><ele>246.0</ele><time>2026-03-29T09:08:08.194Z</time></trkpt><trkpt lat="45.2755223" lon="7.8411033"><ele>246.0</ele><time>2026-03-29T09:08:09.184Z</time></trkpt><trkpt lat="45.2755513" lon="7.8412864"><ele>246.0</ele><time>2026-03-29T09:08:10.181Z</time></trkpt><trkpt lat="45.2755857" lon="7.8414802"><ele>246.0</ele><time>2026-03-29T09:08:11.192Z</time></trkpt><trkpt lat="45.2756201" lon="7.8416802"><ele>246.25</ele><time>2026-03-29T09:08:12.17Z</time></trkpt><trkpt lat="45.2756485" lon="7.8418609"><ele>246.5</ele><time>2026-03-29T09:08:13.187Z</time></trkpt><trkpt lat="45.2756767" lon="7.8420455"><ele>246.75</ele><time>2026-03-29T09:08:14.188Z</time></trkpt><trkpt lat="45.2757067" lon="7.8422322"><ele>247.0</ele><time>2026-03-29T09:08:15.177Z</time></trkpt><trkpt lat="45.2757349" lon="7.8424169"><ele>247.0</ele><time>2026-03-29T09:08:16.162Z</time></trkpt><trkpt lat="45.2757673" lon="7.8426192"><ele>247.0</ele><time>2026-03-29T09:08:17.179Z</time></trkpt><trkpt lat="45.2758024" lon="7.8428259"><ele>247.0</ele><time>2026-03-29T09:08:18.179Z</time></trkpt><trkpt lat="45.2758348" lon="7.8430056"><ele>247.0</ele><time>2026-03-29T09:08:19.179Z</time></trkpt><trkpt lat="45.2758683" lon="7.8431864"><ele>246.5</ele><time>2026-03-29T09:08:20.175Z</time></trkpt><trkpt lat="45.2759015" lon="7.8433784"><ele>246.0</ele><time>2026-03-29T09:08:21.176Z</time></trkpt><trkpt lat="45.2759323" lon="7.8435661"><ele>245.5</ele><time>2026-03-29T09:08:22.193Z</time></trkpt><trkpt lat="45.2759597" lon="7.843744"><ele>245.0</ele><time>2026-03-29T09:08:23.183Z</time></trkpt><trkpt lat="45.2759851" lon="7.843914"><ele>244.75</ele><time>2026-03-29T09:08:24.181Z</time></trkpt><trkpt lat="45.2760107" lon="7.8440869"><ele>244.5</ele><time>2026-03-29T09:08:25.183Z</time></trkpt><trkpt lat="45.2760317" lon="7.8442731"><ele>244.25</ele><time>2026-03-29T09:08:26.194Z</time></trkpt><trkpt lat="45.2760631" lon="7.8444663"><ele>244.0</ele><time>2026-03-29T09:08:27.217Z</time></trkpt><trkpt lat="45.2760946" lon="7.8446667"><ele>244.5</ele><time>2026-03-29T09:08:28.183Z</time></trkpt><trkpt lat="45.276125" lon="7.8448678"><ele>245.0</ele><time>2026-03-29T09:08:29.19Z</time></trkpt><trkpt lat="45.2761502" lon="7.8450723"><ele>245.5</ele><time>2026-03-29T09:08:30.187Z</time></trkpt><trkpt lat="45.2761773" lon="7.845261"><ele>246.0</ele><time>2026-03-29T09:08:31.181Z</time></trkpt><trkpt lat="45.2762109" lon="7.8454452"><ele>246.0</ele><time>2026-03-29T09:08:32.181Z</time></trkpt><trkpt lat="45.2762433" lon="7.8456262"><ele>246.0</ele><time>2026-03-29T09:08:33.174Z</time></trkpt><trkpt lat="45.2762726" lon="7.8457991"><ele>246.0</ele><time>2026-03-29T09:08:34.177Z</time></trkpt><trkpt lat="45.2762973" lon="7.8459539"><ele>246.0</ele><time>2026-03-29T09:08:35.19Z</time></trkpt><trkpt lat="45.276312" lon="7.8460741"><ele>246.0</ele><time>2026-03-29T09:08:36.194Z</time></trkpt><trkpt lat="45.2763318" lon="7.8461728"><ele>246.0</ele><time>2026-03-29T09:08:37.194Z</time></trkpt><trkpt lat="45.2763524" lon="7.8463105"><ele>246.0</ele><time>2026-03-29T09:08:39.188Z</time></trkpt><trkpt lat="45.2763644" lon="7.8464225"><ele>246.0</ele><time>2026-03-29T09:09:24.186Z</time></trkpt><trkpt lat="45.2763816" lon="7.8465125"><ele>246.0</ele><time>2026-03-29T09:09:25.187Z</time></trkpt><trkpt lat="45.2764034" lon="7.8466489"><ele>246.0</ele><time>2026-03-29T09:09:26.186Z</time></trkpt><trkpt lat="45.2764242" lon="7.8468018"><ele>245.60000000000002</ele><time>2026-03-29T09:09:27.184Z</time></trkpt><trkpt lat="45.2764464" lon="7.8469538"><ele>245.20000000000002</ele><time>2026-03-29T09:09:28.186Z</time></trkpt><trkpt lat="45.2764647" lon="7.8470836"><ele>244.79999999999998</ele><time>2026-03-29T09:09:29.195Z</time></trkpt><trkpt lat="45.2764808" lon="7.8472066"><ele>244.39999999999998</ele><time>2026-03-29T09:09:30.176Z</time></trkpt><trkpt lat="45.2764852" lon="7.8473341"><ele>244.0</ele><time>2026-03-29T09:09:31.179Z</time></trkpt><trkpt lat="45.2764974" lon="7.8474709"><ele>243.99999999999997</ele><time>2026-03-29T09:09:32.179Z</time></trkpt><trkpt lat="45.2765064" lon="7.8476077"><ele>244.0</ele><time>2026-03-29T09:09:33.189Z</time></trkpt><trkpt lat="45.2765079" lon="7.8477408"><ele>244.0</ele><time>2026-03-29T09:09:34.189Z</time></trkpt><trkpt lat="45.2765054" lon="7.8478598"><ele>244.0</ele><time>2026-03-29T09:09:35.189Z</time></trkpt><trkpt lat="45.2764933" lon="7.8479743"><ele>243.99999999999997</ele><time>2026-03-29T09:09:36.171Z</time></trkpt><trkpt lat="45.2764879" lon="7.8480841"><ele>244.0</ele><time>2026-03-29T09:09:37.193Z</time></trkpt><trkpt lat="45.2764797" lon="7.8481768"><ele>243.79999999999998</ele><time>2026-03-29T09:09:38.182Z</time></trkpt><trkpt lat="45.276467" lon="7.8482871"><ele>243.59999999999997</ele><time>2026-03-29T09:09:39.183Z</time></trkpt><trkpt lat="45.2764563" lon="7.8483991"><ele>243.4</ele><time>2026-03-29T09:09:40.176Z</time></trkpt><trkpt lat="45.2764688" lon="7.8485662"><ele>243.2</ele><time>2026-03-29T09:09:42.198Z</time></trkpt><trkpt lat="45.276515" lon="7.8486892"><ele>243.0</ele><time>2026-03-29T09:09:44.18Z</time></trkpt><trkpt lat="45.2766207" lon="7.8487754"><ele>243.0</ele><time>2026-03-29T09:09:46.19Z</time></trkpt><trkpt lat="45.2766828" lon="7.8488197"><ele>243.0</ele><time>2026-03-29T09:09:47.181Z</time></trkpt><trkpt lat="45.2767556" lon="7.8489285"><ele>243.0</ele><time>2026-03-29T09:09:49.181Z</time></trkpt><trkpt lat="45.2767856" lon="7.8490398"><ele>243.0</ele><time>2026-03-29T09:09:50.195Z</time></trkpt><trkpt lat="45.2768141" lon="7.8491647"><ele>243.0</ele><time>2026-03-29T09:09:51.181Z</time></trkpt><trkpt lat="45.276851" lon="7.8492792"><ele>243.0</ele><time>2026-03-29T09:09:52.195Z</time></trkpt><trkpt lat="45.2769022" lon="7.8493963"><ele>243.2</ele><time>2026-03-29T09:09:53.181Z</time></trkpt><trkpt lat="45.276977" lon="7.849503"><ele>243.4</ele><time>2026-03-29T09:09:54.188Z</time></trkpt><trkpt lat="45.2770553" lon="7.849596"><ele>243.59999999999997</ele><time>2026-03-29T09:09:55.175Z</time></trkpt><trkpt lat="45.2771154" lon="7.8496856"><ele>243.79999999999998</ele><time>2026-03-29T09:09:56.186Z</time></trkpt><trkpt lat="45.2771616" lon="7.8497885"><ele>244.0</ele><time>2026-03-29T09:09:57.181Z</time></trkpt><trkpt lat="45.2772036" lon="7.849909"><ele>243.99999999999997</ele><time>2026-03-29T09:09:58.187Z</time></trkpt><trkpt lat="45.2772324" lon="7.8500234"><ele>244.0</ele><time>2026-03-29T09:09:59.185Z</time></trkpt><trkpt lat="45.2772404" lon="7.850116"><ele>244.0</ele><time>2026-03-29T09:10:00.197Z</time></trkpt><trkpt lat="45.2772206" lon="7.8502481"><ele>244.0</ele><time>2026-03-29T09:10:02.185Z</time></trkpt><trkpt lat="45.2771877" lon="7.8503342"><ele>243.99999999999997</ele><time>2026-03-29T09:10:04.193Z</time></trkpt><trkpt lat="45.2771448" lon="7.8504369"><ele>244.0</ele><time>2026-03-29T09:13:11.176Z</time></trkpt><trkpt lat="45.2770867" lon="7.8505395"><ele>244.6</ele><time>2026-03-29T09:13:13.169Z</time></trkpt><trkpt lat="45.2770155" lon="7.8506183"><ele>245.2</ele><time>2026-03-29T09:13:15.185Z</time></trkpt><trkpt lat="45.2769367" lon="7.8507267"><ele>245.79999999999998</ele><time>2026-03-29T09:13:17.205Z</time></trkpt><trkpt lat="45.2768441" lon="7.8508686"><ele>246.39999999999998</ele><time>2026-03-29T09:13:19.173Z</time></trkpt><trkpt lat="45.2767805" lon="7.8509511"><ele>247.0</ele><time>2026-03-29T09:13:20.188Z</time></trkpt><trkpt lat="45.2767257" lon="7.8510342"><ele>247.2</ele><time>2026-03-29T09:13:21.182Z</time></trkpt><trkpt lat="45.2766894" lon="7.8511303"><ele>247.39999999999998</ele><time>2026-03-29T09:13:22.21Z</time></trkpt><trkpt lat="45.2766573" lon="7.8512818"><ele>247.60000000000002</ele><time>2026-03-29T09:13:24.185Z</time></trkpt><trkpt lat="45.2767417" lon="7.8514166"><ele>247.8</ele><time>2026-03-29T09:13:26.176Z</time></trkpt><trkpt lat="45.2768277" lon="7.8514978"><ele>248.0</ele><time>2026-03-29T09:13:27.19Z</time></trkpt><trkpt lat="45.2768936" lon="7.8515779"><ele>248.0</ele><time>2026-03-29T09:13:28.185Z</time></trkpt><trkpt lat="45.2769331" lon="7.8516607"><ele>248.0</ele><time>2026-03-29T09:13:29.184Z</time></trkpt><trkpt lat="45.2769557" lon="7.8517591"><ele>248.0</ele><time>2026-03-29T09:13:30.189Z</time></trkpt><trkpt lat="45.2769686" lon="7.8519067"><ele>248.0</ele><time>2026-03-29T09:13:31.179Z</time></trkpt><trkpt lat="45.2769878" lon="7.8520871"><ele>248.0</ele><time>2026-03-29T09:13:32.183Z</time></trkpt><trkpt lat="45.2770173" lon="7.8522823"><ele>248.25</ele><time>2026-03-29T09:13:33.19Z</time></trkpt><trkpt lat="45.2770397" lon="7.8524869"><ele>248.5</ele><time>2026-03-29T09:13:34.19Z</time></trkpt><trkpt lat="45.2770523" lon="7.8526955"><ele>248.75</ele><time>2026-03-29T09:13:35.198Z</time></trkpt><trkpt lat="45.277063" lon="7.8529032"><ele>249.0</ele><time>2026-03-29T09:13:36.18Z</time></trkpt><trkpt lat="45.2770842" lon="7.8531111"><ele>249.25</ele><time>2026-03-29T09:13:37.179Z</time></trkpt><trkpt lat="45.2771085" lon="7.8533163"><ele>249.5</ele><time>2026-03-29T09:13:38.18Z</time></trkpt><trkpt lat="45.2771299" lon="7.8535135"><ele>249.75</ele><time>2026-03-29T09:13:39.171Z</time></trkpt><trkpt lat="45.2771522" lon="7.8537104"><ele>250.0</ele><time>2026-03-29T09:13:40.179Z</time></trkpt><trkpt lat="45.2771765" lon="7.8539111"><ele>250.0</ele><time>2026-03-29T09:13:41.181Z</time></trkpt><trkpt lat="45.2772005" lon="7.8541204"><ele>250.0</ele><time>2026-03-29T09:13:42.18Z</time></trkpt><trkpt lat="45.2772232" lon="7.8543567"><ele>250.0</ele><time>2026-03-29T09:13:43.184Z</time></trkpt><trkpt lat="45.2772476" lon="7.8545951"><ele>249.75</ele><time>2026-03-29T09:13:44.166Z</time></trkpt><trkpt lat="45.2772653" lon="7.8548186"><ele>249.5</ele><time>2026-03-29T09:13:45.187Z</time></trkpt><trkpt lat="45.2772889" lon="7.8550146"><ele>249.25</ele><time>2026-03-29T09:13:46.19Z</time></trkpt><trkpt lat="45.2773095" lon="7.8551835"><ele>249.0</ele><time>2026-03-29T09:13:47.24Z</time></trkpt><trkpt lat="45.2773283" lon="7.85534"><ele>249.0</ele><time>2026-03-29T09:13:48.184Z</time></trkpt><trkpt lat="45.2773352" lon="7.8554573"><ele>248.99999999999997</ele><time>2026-03-29T09:13:49.19Z</time></trkpt><trkpt lat="45.2773443" lon="7.8555553"><ele>248.99999999999997</ele><time>2026-03-29T09:13:50.195Z</time></trkpt><trkpt lat="45.2773615" lon="7.8556997"><ele>249.0</ele><time>2026-03-29T09:13:52.184Z</time></trkpt><trkpt lat="45.2774026" lon="7.855835"><ele>249.0</ele><time>2026-03-29T09:26:37.173Z</time></trkpt><trkpt lat="45.2774449" lon="7.8559666"><ele>249.0</ele><time>2026-03-29T09:26:39.186Z</time></trkpt><trkpt lat="45.2774695" lon="7.8560545"><ele>248.99999999999997</ele><time>2026-03-29T09:26:40.176Z</time></trkpt><trkpt lat="45.2775166" lon="7.856187"><ele>248.99999999999997</ele><time>2026-03-29T09:26:41.168Z</time></trkpt><trkpt lat="45.2775705" lon="7.856329"><ele>249.0</ele><time>2026-03-29T09:26:42.167Z</time></trkpt><trkpt lat="45.2776176" lon="7.8564822"><ele>249.0</ele><time>2026-03-29T09:26:43.175Z</time></trkpt><trkpt lat="45.2776759" lon="7.8566377"><ele>248.75</ele><time>2026-03-29T09:26:44.184Z</time></trkpt><trkpt lat="45.2777392" lon="7.8567952"><ele>248.5</ele><time>2026-03-29T09:26:45.177Z</time></trkpt><trkpt lat="45.2778038" lon="7.8569634"><ele>248.25</ele><time>2026-03-29T09:26:46.175Z</time></trkpt><trkpt lat="45.277871" lon="7.857132"><ele>248.0</ele><time>2026-03-29T09:26:47.179Z</time></trkpt><trkpt lat="45.2779387" lon="7.8573192"><ele>248.0</ele><time>2026-03-29T09:26:48.18Z</time></trkpt><trkpt lat="45.2780099" lon="7.8575264"><ele>248.0</ele><time>2026-03-29T09:26:49.194Z</time></trkpt><trkpt lat="45.278078" lon="7.8577285"><ele>248.0</ele><time>2026-03-29T09:26:50.174Z</time></trkpt><trkpt lat="45.2781431" lon="7.8579088"><ele>248.0</ele><time>2026-03-29T09:26:51.196Z</time></trkpt><trkpt lat="45.2781996" lon="7.8580744"><ele>248.0</ele><time>2026-03-29T09:26:52.178Z</time></trkpt><trkpt lat="45.2782627" lon="7.8582454"><ele>248.0</ele><time>2026-03-29T09:26:53.166Z</time></trkpt><trkpt lat="45.2783283" lon="7.8584281"><ele>248.0</ele><time>2026-03-29T09:26:54.205Z</time></trkpt><trkpt lat="45.2783998" lon="7.8586169"><ele>248.0</ele><time>2026-03-29T09:26:55.19Z</time></trkpt><trkpt lat="45.2784732" lon="7.8588089"><ele>248.0</ele><time>2026-03-29T09:26:56.173Z</time></trkpt><trkpt lat="45.2785479" lon="7.8590068"><ele>248.0</ele><time>2026-03-29T09:26:57.168Z</time></trkpt><trkpt lat="45.2786191" lon="7.8592038"><ele>247.5</ele><time>2026-03-29T09:26:58.178Z</time></trkpt><trkpt lat="45.2786873" lon="7.8593913"><ele>247.0</ele><time>2026-03-29T09:26:59.169Z</time></trkpt><trkpt lat="45.2787461" lon="7.8595548"><ele>246.5</ele><time>2026-03-29T09:27:00.163Z</time></trkpt><trkpt lat="45.2787926" lon="7.8597026"><ele>246.0</ele><time>2026-03-29T09:27:01.172Z</time></trkpt><trkpt lat="45.2788365" lon="7.8598429"><ele>246.0</ele><time>2026-03-29T09:27:02.171Z</time></trkpt><trkpt lat="45.2788688" lon="7.8599701"><ele>246.0</ele><time>2026-03-29T09:27:03.172Z</time></trkpt><trkpt lat="45.2788869" lon="7.8600689"><ele>246.0</ele><time>2026-03-29T09:27:04.171Z</time></trkpt><trkpt lat="45.2789261" lon="7.8601611"><ele>246.0</ele><time>2026-03-29T09:27:06.175Z</time></trkpt><trkpt lat="45.2790196" lon="7.8602148"><ele>246.0</ele><time>2026-03-29T09:27:08.209Z</time></trkpt><trkpt lat="45.2790947" lon="7.8602266"><ele>246.0</ele><time>2026-03-29T09:27:09.18Z</time></trkpt><trkpt lat="45.2791841" lon="7.8602461"><ele>246.33333333333334</ele><time>2026-03-29T09:27:10.185Z</time></trkpt><trkpt lat="45.2792694" lon="7.8602558"><ele>246.66666666666669</ele><time>2026-03-29T09:27:11.18Z</time></trkpt><trkpt lat="45.2793636" lon="7.8602556"><ele>247.0</ele><time>2026-03-29T09:27:12.183Z</time></trkpt><trkpt lat="45.2794663" lon="7.860259"><ele>247.33333333333334</ele><time>2026-03-29T09:27:13.186Z</time></trkpt><trkpt lat="45.279565" lon="7.8602646"><ele>247.66666666666669</ele><time>2026-03-29T09:27:14.191Z</time></trkpt><trkpt lat="45.2796301" lon="7.860272"><ele>248.0</ele><time>2026-03-29T09:27:15.17Z</time></trkpt><trkpt lat="45.2796931" lon="7.8602785"><ele>248.4</ele><time>2026-03-29T09:27:17.167Z</time></trkpt><trkpt lat="45.2797967" lon="7.8603021"><ele>248.8</ele><time>2026-03-29T09:27:41.184Z</time></trkpt><trkpt lat="45.2798628" lon="7.8603089"><ele>249.2</ele><time>2026-03-29T09:27:42.174Z</time></trkpt><trkpt lat="45.2799375" lon="7.8603138"><ele>249.6</ele><time>2026-03-29T09:27:43.171Z</time></trkpt><trkpt lat="45.2800345" lon="7.8603251"><ele>250.0</ele><time>2026-03-29T09:27:44.184Z</time></trkpt><trkpt lat="45.2801406" lon="7.8603385"><ele>250.0</ele><time>2026-03-29T09:27:45.184Z</time></trkpt><trkpt lat="45.2802398" lon="7.8603451"><ele>250.0</ele><time>2026-03-29T09:27:46.193Z</time></trkpt><trkpt lat="45.2803388" lon="7.8603587"><ele>250.0</ele><time>2026-03-29T09:27:47.179Z</time></trkpt><trkpt lat="45.2804465" lon="7.8603636"><ele>250.0</ele><time>2026-03-29T09:27:48.175Z</time></trkpt><trkpt lat="45.2805446" lon="7.8603693"><ele>250.0</ele><time>2026-03-29T09:27:49.165Z</time></trkpt><trkpt lat="45.2806434" lon="7.8603827"><ele>250.25</ele><time>2026-03-29T09:27:50.168Z</time></trkpt><trkpt lat="45.2807458" lon="7.8603915"><ele>250.5</ele><time>2026-03-29T09:27:51.169Z</time></trkpt><trkpt lat="45.2808608" lon="7.8604002"><ele>250.75</ele><time>2026-03-29T09:27:52.175Z</time></trkpt><trkpt lat="45.2809816" lon="7.8604071"><ele>251.0</ele><time>2026-03-29T09:27:53.179Z</time></trkpt><trkpt lat="45.281101" lon="7.8604256"><ele>251.0</ele><time>2026-03-29T09:27:54.174Z</time></trkpt><trkpt lat="45.2812201" lon="7.8604332"><ele>251.0</ele><time>2026-03-29T09:27:55.169Z</time></trkpt><trkpt lat="45.2813345" lon="7.8604449"><ele>251.0</ele><time>2026-03-29T09:27:56.184Z</time></trkpt><trkpt lat="45.2814592" lon="7.8604601"><ele>251.0</ele><time>2026-03-29T09:27:57.175Z</time></trkpt><trkpt lat="45.281583" lon="7.8604781"><ele>250.83333333333334</ele><time>2026-03-29T09:27:58.185Z</time></trkpt><trkpt lat="45.2817025" lon="7.8604933"><ele>250.66666666666669</ele><time>2026-03-29T09:27:59.184Z</time></trkpt><trkpt lat="45.2817837" lon="7.8605105"><ele>250.5</ele><time>2026-03-29T09:28:00.174Z</time></trkpt><trkpt lat="45.2818487" lon="7.8605159"><ele>250.33333333333331</ele><time>2026-03-29T09:28:01.201Z</time></trkpt><trkpt lat="45.2819233" lon="7.8605275"><ele>250.16666666666666</ele><time>2026-03-29T09:28:02.156Z</time></trkpt><trkpt lat="45.2820141" lon="7.8605418"><ele>250.0</ele><time>2026-03-29T09:28:03.183Z</time></trkpt><trkpt lat="45.2821293" lon="7.860546"><ele>250.5</ele><time>2026-03-29T09:28:04.175Z</time></trkpt><trkpt lat="45.282266" lon="7.8605593"><ele>251.0</ele><time>2026-03-29T09:28:05.179Z</time></trkpt><trkpt lat="45.2824058" lon="7.8605748"><ele>251.5</ele><time>2026-03-29T09:28:06.173Z</time></trkpt><trkpt lat="45.282548" lon="7.8605816"><ele>252.0</ele><time>2026-03-29T09:28:07.181Z</time></trkpt><trkpt lat="45.2826926" lon="7.8605966"><ele>252.0</ele><time>2026-03-29T09:28:08.159Z</time></trkpt><trkpt lat="45.2828278" lon="7.8606111"><ele>252.0</ele><time>2026-03-29T09:28:09.179Z</time></trkpt><trkpt lat="45.2829633" lon="7.8606232"><ele>252.0</ele><time>2026-03-29T09:28:10.165Z</time></trkpt><trkpt lat="45.2830999" lon="7.8606417"><ele>252.0</ele><time>2026-03-29T09:28:11.176Z</time></trkpt><trkpt lat="45.2832443" lon="7.860656"><ele>252.5</ele><time>2026-03-29T09:28:12.166Z</time></trkpt><trkpt lat="45.283388" lon="7.8606669"><ele>253.0</ele><time>2026-03-29T09:28:13.176Z</time></trkpt><trkpt lat="45.2835305" lon="7.860681"><ele>253.5</ele><time>2026-03-29T09:28:14.184Z</time></trkpt><trkpt lat="45.2836658" lon="7.860687"><ele>254.0</ele><time>2026-03-29T09:28:15.175Z</time></trkpt><trkpt lat="45.2837873" lon="7.8606925"><ele>254.0</ele><time>2026-03-29T09:28:16.204Z</time></trkpt><trkpt lat="45.2839077" lon="7.8606977"><ele>253.99999999999997</ele><time>2026-03-29T09:28:17.177Z</time></trkpt><trkpt lat="45.2840202" lon="7.8607075"><ele>253.99999999999997</ele><time>2026-03-29T09:28:18.183Z</time></trkpt><trkpt lat="45.2841292" lon="7.8607149"><ele>254.0</ele><time>2026-03-29T09:28:19.169Z</time></trkpt><trkpt lat="45.2842301" lon="7.8607179"><ele>254.0</ele><time>2026-03-29T09:28:20.183Z</time></trkpt><trkpt lat="45.284335" lon="7.8607263"><ele>254.0</ele><time>2026-03-29T09:28:21.174Z</time></trkpt><trkpt lat="45.2844449" lon="7.860737"><ele>254.0</ele><time>2026-03-29T09:28:22.175Z</time></trkpt><trkpt lat="45.2845696" lon="7.8607542"><ele>254.0</ele><time>2026-03-29T09:28:23.198Z</time></trkpt><trkpt lat="45.2847066" lon="7.8607668"><ele>254.0</ele><time>2026-03-29T09:28:24.179Z</time></trkpt><trkpt lat="45.2848423" lon="7.8607773"><ele>254.0</ele><time>2026-03-29T09:28:25.183Z</time></trkpt><trkpt lat="45.2849741" lon="7.8607884"><ele>254.0</ele><time>2026-03-29T09:28:26.172Z</time></trkpt><trkpt lat="45.285107" lon="7.8607971"><ele>254.0</ele><time>2026-03-29T09:28:27.174Z</time></trkpt><trkpt lat="45.2852328" lon="7.8608044"><ele>254.0</ele><time>2026-03-29T09:28:28.164Z</time></trkpt><trkpt lat="45.2853608" lon="7.8608215"><ele>254.0</ele><time>2026-03-29T09:28:29.173Z</time></trkpt><trkpt lat="45.2855" lon="7.8608364"><ele>254.0</ele><time>2026-03-29T09:28:30.175Z</time></trkpt><trkpt lat="45.2856395" lon="7.8608513"><ele>254.0</ele><time>2026-03-29T09:28:31.161Z</time></trkpt><trkpt lat="45.2857804" lon="7.8608699"><ele>254.0</ele><time>2026-03-29T09:28:32.183Z</time></trkpt><trkpt lat="45.2859241" lon="7.8608868"><ele>254.25</ele><time>2026-03-29T09:28:33.182Z</time></trkpt><trkpt lat="45.2860704" lon="7.8608976"><ele>254.5</ele><time>2026-03-29T09:28:34.183Z</time></trkpt><trkpt lat="45.2862075" lon="7.860907"><ele>254.75</ele><time>2026-03-29T09:28:35.185Z</time></trkpt><trkpt lat="45.2863413" lon="7.860918"><ele>255.0</ele><time>2026-03-29T09:28:36.179Z</time></trkpt><trkpt lat="45.2864652" lon="7.8609298"><ele>255.25</ele><time>2026-03-29T09:28:37.176Z</time></trkpt><trkpt lat="45.2865762" lon="7.8609422"><ele>255.5</ele><time>2026-03-29T09:28:38.172Z</time></trkpt><trkpt lat="45.2866818" lon="7.8609495"><ele>255.75</ele><time>2026-03-29T09:28:39.18Z</time></trkpt><trkpt lat="45.2868022" lon="7.8609613"><ele>256.0</ele><time>2026-03-29T09:28:40.18Z</time></trkpt><trkpt lat="45.2869254" lon="7.8609682"><ele>256.0</ele><time>2026-03-29T09:28:41.175Z</time></trkpt><trkpt lat="45.2870487" lon="7.8609706"><ele>256.0</ele><time>2026-03-29T09:28:42.17Z</time></trkpt><trkpt lat="45.2871628" lon="7.8609774"><ele>256.0</ele><time>2026-03-29T09:28:43.174Z</time></trkpt><trkpt lat="45.2872745" lon="7.8609825"><ele>256.0</ele><time>2026-03-29T09:28:44.175Z</time></trkpt><trkpt lat="45.2873783" lon="7.8609917"><ele>256.0</ele><time>2026-03-29T09:28:45.176Z</time></trkpt><trkpt lat="45.2874776" lon="7.8609915"><ele>256.0</ele><time>2026-03-29T09:28:46.192Z</time></trkpt><trkpt lat="45.2875776" lon="7.8609963"><ele>256.0</ele><time>2026-03-29T09:28:47.181Z</time></trkpt><trkpt lat="45.2876801" lon="7.8610045"><ele>256.0</ele><time>2026-03-29T09:28:48.181Z</time></trkpt><trkpt lat="45.2877874" lon="7.8610101"><ele>256.0</ele><time>2026-03-29T09:28:49.185Z</time></trkpt><trkpt lat="45.2879097" lon="7.8610262"><ele>256.0</ele><time>2026-03-29T09:28:50.18Z</time></trkpt><trkpt lat="45.288034" lon="7.8610426"><ele>256.0</ele><time>2026-03-29T09:28:51.192Z</time></trkpt><trkpt lat="45.2881566" lon="7.8610506"><ele>256.0</ele><time>2026-03-29T09:28:52.188Z</time></trkpt><trkpt lat="45.2882877" lon="7.8610673"><ele>256.0</ele><time>2026-03-29T09:28:53.224Z</time></trkpt><trkpt lat="45.2884127" lon="7.8610818"><ele>256.0</ele><time>2026-03-29T09:28:54.183Z</time></trkpt><trkpt lat="45.2885292" lon="7.8610934"><ele>256.0</ele><time>2026-03-29T09:28:55.174Z</time></trkpt><trkpt lat="45.2886468" lon="7.8611086"><ele>256.0</ele><time>2026-03-29T09:28:56.181Z</time></trkpt><trkpt lat="45.2887617" lon="7.8611208"><ele>256.0</ele><time>2026-03-29T09:28:57.176Z</time></trkpt><trkpt lat="45.288882" lon="7.8611375"><ele>256.25</ele><time>2026-03-29T09:28:58.177Z</time></trkpt><trkpt lat="45.2890025" lon="7.8611529"><ele>256.5</ele><time>2026-03-29T09:28:59.203Z</time></trkpt><trkpt lat="45.2891146" lon="7.8611692"><ele>256.75</ele><time>2026-03-29T09:29:00.184Z</time></trkpt><trkpt lat="45.2892337" lon="7.8611876"><ele>257.0</ele><time>2026-03-29T09:29:01.161Z</time></trkpt><trkpt lat="45.2893689" lon="7.8612007"><ele>257.0</ele><time>2026-03-29T09:29:02.157Z</time></trkpt><trkpt lat="45.2894918" lon="7.8612147"><ele>257.0</ele><time>2026-03-29T09:29:03.183Z</time></trkpt><trkpt lat="45.2895917" lon="7.8612261"><ele>257.0</ele><time>2026-03-29T09:29:04.175Z</time></trkpt><trkpt lat="45.2896825" lon="7.8612345"><ele>257.0</ele><time>2026-03-29T09:29:05.172Z</time></trkpt><trkpt lat="45.2897601" lon="7.861244"><ele>257.0</ele><time>2026-03-29T09:29:06.168Z</time></trkpt><trkpt lat="45.2898555" lon="7.8612724"><ele>257.0</ele><time>2026-03-29T09:29:08.177Z</time></trkpt><trkpt lat="45.2899005" lon="7.8613382"><ele>257.0</ele><time>2026-03-29T09:29:10.167Z</time></trkpt><trkpt lat="45.2899085" lon="7.8614981"><ele>257.0</ele><time>2026-03-29T09:29:12.185Z</time></trkpt><trkpt lat="45.28989" lon="7.8616207"><ele>257.0</ele><time>2026-03-29T09:29:13.177Z</time></trkpt><trkpt lat="45.2898734" lon="7.861744"><ele>257.0</ele><time>2026-03-29T09:29:14.175Z</time></trkpt><trkpt lat="45.2898618" lon="7.8618649"><ele>257.0</ele><time>2026-03-29T09:29:15.172Z</time></trkpt><trkpt lat="45.2898555" lon="7.8619633"><ele>257.0</ele><time>2026-03-29T09:29:16.173Z</time></trkpt><trkpt lat="45.2898565" lon="7.8620587"><ele>257.0</ele><time>2026-03-29T09:29:17.173Z</time></trkpt><trkpt lat="45.2898577" lon="7.862181"><ele>257.0</ele><time>2026-03-29T09:29:18.173Z</time></trkpt><trkpt lat="45.2898597" lon="7.8623141"><ele>257.0</ele><time>2026-03-29T09:29:19.168Z</time></trkpt><trkpt lat="45.2898629" lon="7.8624572"><ele>257.0</ele><time>2026-03-29T09:29:20.199Z</time></trkpt><trkpt lat="45.2898643" lon="7.862618"><ele>257.0</ele><time>2026-03-29T09:29:21.167Z</time></trkpt><trkpt lat="45.2898709" lon="7.8627713"><ele>257.0</ele><time>2026-03-29T09:29:22.18Z</time></trkpt><trkpt lat="45.2898754" lon="7.8629169"><ele>257.0</ele><time>2026-03-29T09:29:23.166Z</time></trkpt><trkpt lat="45.2898808" lon="7.8630586"><ele>257.0</ele><time>2026-03-29T09:29:24.173Z</time></trkpt><trkpt lat="45.2898854" lon="7.8631929"><ele>257.0</ele><time>2026-03-29T09:29:25.169Z</time></trkpt><trkpt lat="45.289892" lon="7.863333"><ele>256.8</ele><time>2026-03-29T09:29:26.164Z</time></trkpt><trkpt lat="45.2899013" lon="7.8634857"><ele>256.6</ele><time>2026-03-29T09:29:27.17Z</time></trkpt><trkpt lat="45.289911" lon="7.8636406"><ele>256.40000000000003</ele><time>2026-03-29T09:29:28.172Z</time></trkpt><trkpt lat="45.2899203" lon="7.863792"><ele>256.2</ele><time>2026-03-29T09:29:29.175Z</time></trkpt><trkpt lat="45.2899233" lon="7.86393"><ele>256.0</ele><time>2026-03-29T09:29:30.193Z</time></trkpt><trkpt lat="45.2899285" lon="7.86406"><ele>255.99999999999997</ele><time>2026-03-29T09:29:31.186Z</time></trkpt><trkpt lat="45.2899359" lon="7.8641924"><ele>256.0</ele><time>2026-03-29T09:29:32.172Z</time></trkpt><trkpt lat="45.2899461" lon="7.8643341"><ele>256.0</ele><time>2026-03-29T09:29:33.17Z</time></trkpt><trkpt lat="45.2899528" lon="7.8644502"><ele>256.0</ele><time>2026-03-29T09:29:34.175Z</time></trkpt><trkpt lat="45.2899579" lon="7.8645537"><ele>255.99999999999997</ele><time>2026-03-29T09:29:35.189Z</time></trkpt><trkpt lat="45.2899634" lon="7.8646514"><ele>256.0</ele><time>2026-03-29T09:29:36.18Z</time></trkpt><trkpt lat="45.2899692" lon="7.8647501"><ele>255.99999999999997</ele><time>2026-03-29T09:29:37.197Z</time></trkpt><trkpt lat="45.2899693" lon="7.8648626"><ele>256.0</ele><time>2026-03-29T09:29:38.186Z</time></trkpt><trkpt lat="45.2899689" lon="7.8649775"><ele>256.0</ele><time>2026-03-29T09:29:39.176Z</time></trkpt><trkpt lat="45.2899723" lon="7.8650961"><ele>256.0</ele><time>2026-03-29T09:29:40.214Z</time></trkpt><trkpt lat="45.2899856" lon="7.8652376"><ele>255.99999999999997</ele><time>2026-03-29T09:29:41.173Z</time></trkpt><trkpt lat="45.2899982" lon="7.865376"><ele>256.0</ele><time>2026-03-29T09:29:42.173Z</time></trkpt><trkpt lat="45.2900116" lon="7.8655126"><ele>256.0</ele><time>2026-03-29T09:29:43.166Z</time></trkpt><trkpt lat="45.2900224" lon="7.8656517"><ele>256.0</ele><time>2026-03-29T09:29:44.178Z</time></trkpt><trkpt lat="45.2900389" lon="7.8657866"><ele>256.0</ele><time>2026-03-29T09:29:45.173Z</time></trkpt><trkpt lat="45.2900535" lon="7.8659268"><ele>256.0</ele><time>2026-03-29T09:29:46.165Z</time></trkpt><trkpt lat="45.2900641" lon="7.8660716"><ele>256.0</ele><time>2026-03-29T09:29:47.177Z</time></trkpt><trkpt lat="45.290067" lon="7.8662149"><ele>256.0</ele><time>2026-03-29T09:29:48.176Z</time></trkpt><trkpt lat="45.2900749" lon="7.8663638"><ele>256.0</ele><time>2026-03-29T09:29:49.174Z</time></trkpt><trkpt lat="45.2900768" lon="7.8665042"><ele>256.0</ele><time>2026-03-29T09:29:50.176Z</time></trkpt><trkpt lat="45.2900814" lon="7.8666424"><ele>256.0</ele><time>2026-03-29T09:29:51.168Z</time></trkpt><trkpt lat="45.2900887" lon="7.8667714"><ele>256.0</ele><time>2026-03-29T09:29:52.183Z</time></trkpt><trkpt lat="45.2900928" lon="7.8669029"><ele>256.0</ele><time>2026-03-29T09:29:53.186Z</time></trkpt><trkpt lat="45.2900988" lon="7.8670506"><ele>256.0</ele><time>2026-03-29T09:29:54.169Z</time></trkpt><trkpt lat="45.2901055" lon="7.867209"><ele>256.0</ele><time>2026-03-29T09:29:55.188Z</time></trkpt><trkpt lat="45.2901165" lon="7.8673728"><ele>256.0</ele><time>2026-03-29T09:29:56.165Z</time></trkpt><trkpt lat="45.290127" lon="7.867537"><ele>256.0</ele><time>2026-03-29T09:29:57.163Z</time></trkpt><trkpt lat="45.290138" lon="7.8677188"><ele>256.0</ele><time>2026-03-29T09:29:58.185Z</time></trkpt><trkpt lat="45.2901447" lon="7.8678921"><ele>256.0</ele><time>2026-03-29T09:29:59.168Z</time></trkpt><trkpt lat="45.2901493" lon="7.8680518"><ele>256.0</ele><time>2026-03-29T09:30:00.172Z</time></trkpt><trkpt lat="45.2901574" lon="7.8681998"><ele>256.0</ele><time>2026-03-29T09:30:01.164Z</time></trkpt><trkpt lat="45.2901704" lon="7.8683711"><ele>256.0</ele><time>2026-03-29T09:30:02.182Z</time></trkpt><trkpt lat="45.2901827" lon="7.8685471"><ele>256.0</ele><time>2026-03-29T09:30:03.188Z</time></trkpt><trkpt lat="45.2901867" lon="7.8687177"><ele>256.0</ele><time>2026-03-29T09:30:04.177Z</time></trkpt><trkpt lat="45.2901984" lon="7.8688969"><ele>256.0</ele><time>2026-03-29T09:30:05.196Z</time></trkpt><trkpt lat="45.2902038" lon="7.8690712"><ele>256.0</ele><time>2026-03-29T09:30:06.172Z</time></trkpt><trkpt lat="45.2902138" lon="7.869234"><ele>256.0</ele><time>2026-03-29T09:30:07.175Z</time></trkpt><trkpt lat="45.2902228" lon="7.8693806"><ele>256.0</ele><time>2026-03-29T09:30:08.171Z</time></trkpt><trkpt lat="45.2902283" lon="7.8695355"><ele>256.0</ele><time>2026-03-29T09:30:09.166Z</time></trkpt><trkpt lat="45.2902247" lon="7.8697008"><ele>256.0</ele><time>2026-03-29T09:30:10.168Z</time></trkpt><trkpt lat="45.290213" lon="7.8698855"><ele>256.25</ele><time>2026-03-29T09:30:11.172Z</time></trkpt><trkpt lat="45.290203" lon="7.8700649"><ele>256.5</ele><time>2026-03-29T09:30:12.208Z</time></trkpt><trkpt lat="45.2902009" lon="7.8702379"><ele>256.75</ele><time>2026-03-29T09:30:13.185Z</time></trkpt><trkpt lat="45.2902008" lon="7.8704037"><ele>257.0</ele><time>2026-03-29T09:30:14.173Z</time></trkpt><trkpt lat="45.2902029" lon="7.8705556"><ele>257.0</ele><time>2026-03-29T09:30:15.181Z</time></trkpt><trkpt lat="45.2902035" lon="7.8707"><ele>257.0</ele><time>2026-03-29T09:30:16.176Z</time></trkpt><trkpt lat="45.290202" lon="7.8708352"><ele>257.0</ele><time>2026-03-29T09:30:17.183Z</time></trkpt><trkpt lat="45.2902037" lon="7.87096"><ele>257.0</ele><time>2026-03-29T09:30:18.167Z</time></trkpt><trkpt lat="45.290201" lon="7.8710737"><ele>257.0</ele><time>2026-03-29T09:30:19.204Z</time></trkpt><trkpt lat="45.2901999" lon="7.8712007"><ele>257.0</ele><time>2026-03-29T09:30:20.177Z</time></trkpt><trkpt lat="45.2901996" lon="7.8713526"><ele>257.0</ele><time>2026-03-29T09:30:21.173Z</time></trkpt><trkpt lat="45.2902048" lon="7.8715034"><ele>257.0</ele><time>2026-03-29T09:30:22.165Z</time></trkpt><trkpt lat="45.2902072" lon="7.8716433"><ele>257.0</ele><time>2026-03-29T09:30:23.178Z</time></trkpt><trkpt lat="45.2902047" lon="7.8717794"><ele>257.0</ele><time>2026-03-29T09:30:24.18Z</time></trkpt><trkpt lat="45.2902033" lon="7.8719126"><ele>256.83333333333337</ele><time>2026-03-29T09:30:25.17Z</time></trkpt><trkpt lat="45.2901992" lon="7.872038"><ele>256.6666666666667</ele><time>2026-03-29T09:30:26.189Z</time></trkpt><trkpt lat="45.2901965" lon="7.8721587"><ele>256.5</ele><time>2026-03-29T09:30:27.205Z</time></trkpt><trkpt lat="45.2901913" lon="7.8722513"><ele>256.3333333333333</ele><time>2026-03-29T09:30:28.167Z</time></trkpt><trkpt lat="45.2901714" lon="7.8723485"><ele>256.16666666666663</ele><time>2026-03-29T09:30:30.171Z</time></trkpt><trkpt lat="45.2900782" lon="7.8724096"><ele>256.0</ele><time>2026-03-29T09:30:32.174Z</time></trkpt><trkpt lat="45.289977" lon="7.8724333"><ele>256.0</ele><time>2026-03-29T09:30:33.166Z</time></trkpt><trkpt lat="45.2898556" lon="7.8724745"><ele>256.0</ele><time>2026-03-29T09:30:34.174Z</time></trkpt><trkpt lat="45.2897152" lon="7.8725226"><ele>256.0</ele><time>2026-03-29T09:30:35.182Z</time></trkpt><trkpt lat="45.2896258" lon="7.8725499"><ele>256.0</ele><time>2026-03-29T09:30:36.177Z</time></trkpt><trkpt lat="45.2895614" lon="7.8726345"><ele>256.0</ele><time>2026-03-29T09:30:38.189Z</time></trkpt><trkpt lat="45.2895215" lon="7.87284"><ele>256.0</ele><time>2026-03-29T09:30:40.177Z</time></trkpt><trkpt lat="45.2895127" lon="7.8730105"><ele>256.0</ele><time>2026-03-29T09:30:41.205Z</time></trkpt><trkpt lat="45.2894956" lon="7.8731828"><ele>256.0</ele><time>2026-03-29T09:30:42.183Z</time></trkpt><trkpt lat="45.2894896" lon="7.8733402"><ele>256.0</ele><time>2026-03-29T09:30:43.178Z</time></trkpt><trkpt lat="45.2894765" lon="7.8734922"><ele>256.0</ele><time>2026-03-29T09:30:44.182Z</time></trkpt><trkpt lat="45.2894614" lon="7.8736347"><ele>256.0</ele><time>2026-03-29T09:30:45.18Z</time></trkpt><trkpt lat="45.2894525" lon="7.873785"><ele>256.0</ele><time>2026-03-29T09:30:46.177Z</time></trkpt><trkpt lat="45.289448" lon="7.8739437"><ele>256.0</ele><time>2026-03-29T09:30:47.173Z</time></trkpt><trkpt lat="45.2894357" lon="7.8740862"><ele>256.0</ele><time>2026-03-29T09:30:48.173Z</time></trkpt><trkpt lat="45.2894195" lon="7.8742362"><ele>256.0</ele><time>2026-03-29T09:30:49.171Z</time></trkpt><trkpt lat="45.2894089" lon="7.8743856"><ele>256.0</ele><time>2026-03-29T09:30:50.16Z</time></trkpt><trkpt lat="45.2893948" lon="7.8745566"><ele>256.0</ele><time>2026-03-29T09:30:51.21Z</time></trkpt><trkpt lat="45.2893829" lon="7.8747348"><ele>256.0</ele><time>2026-03-29T09:30:52.169Z</time></trkpt><trkpt lat="45.2893704" lon="7.8748981"><ele>256.0</ele><time>2026-03-29T09:30:53.17Z</time></trkpt><trkpt lat="45.2893635" lon="7.8750507"><ele>256.0</ele><time>2026-03-29T09:30:54.179Z</time></trkpt><trkpt lat="45.2893528" lon="7.8752094"><ele>256.0</ele><time>2026-03-29T09:30:55.17Z</time></trkpt><trkpt lat="45.289331" lon="7.8753908"><ele>256.0</ele><time>2026-03-29T09:30:56.178Z</time></trkpt><trkpt lat="45.2893033" lon="7.8755804"><ele>256.40000000000003</ele><time>2026-03-29T09:30:57.178Z</time></trkpt><trkpt lat="45.2892851" lon="7.8757673"><ele>256.8</ele><time>2026-03-29T09:30:58.174Z</time></trkpt><trkpt lat="45.2892861" lon="7.8759355"><ele>257.20000000000005</ele><time>2026-03-29T09:30:59.168Z</time></trkpt><trkpt lat="45.2892824" lon="7.8760665"><ele>257.6</ele><time>2026-03-29T09:31:00.173Z</time></trkpt><trkpt lat="45.2892811" lon="7.8761651"><ele>258.0</ele><time>2026-03-29T09:31:01.173Z</time></trkpt><trkpt lat="45.2892654" lon="7.876273"><ele>258.2</ele><time>2026-03-29T09:31:03.177Z</time></trkpt><trkpt lat="45.2892118" lon="7.8763418"><ele>258.4</ele><time>2026-03-29T09:31:05.172Z</time></trkpt><trkpt lat="45.2891009" lon="7.8764037"><ele>258.59999999999997</ele><time>2026-03-29T09:31:07.182Z</time></trkpt><trkpt lat="45.2889869" lon="7.876441"><ele>258.8</ele><time>2026-03-29T09:31:08.192Z</time></trkpt><trkpt lat="45.288876" lon="7.8764873"><ele>259.0</ele><time>2026-03-29T09:31:09.18Z</time></trkpt><trkpt lat="45.2887903" lon="7.8765239"><ele>258.59999999999997</ele><time>2026-03-29T09:31:10.16Z</time></trkpt><trkpt lat="45.2886899" lon="7.8765348"><ele>258.2</ele><time>2026-03-29T09:31:11.157Z</time></trkpt><trkpt lat="45.2885773" lon="7.8765331"><ele>257.79999999999995</ele><time>2026-03-29T09:31:12.157Z</time></trkpt><trkpt lat="45.2884863" lon="7.8765301"><ele>257.4</ele><time>2026-03-29T09:31:13.172Z</time></trkpt><trkpt lat="45.2884062" lon="7.8765128"><ele>257.0</ele><time>2026-03-29T09:31:14.165Z</time></trkpt><trkpt lat="45.2883244" lon="7.8765245"><ele>257.0</ele><time>2026-03-29T09:31:16.18Z</time></trkpt><trkpt lat="45.2882844" lon="7.8766362"><ele>257.0</ele><time>2026-03-29T09:31:18.158Z</time></trkpt><trkpt lat="45.2882619" lon="7.8767648"><ele>257.0</ele><time>2026-03-29T09:31:19.175Z</time></trkpt><trkpt lat="45.2882411" lon="7.8769136"><ele>257.0</ele><time>2026-03-29T09:31:20.163Z</time></trkpt><trkpt lat="45.288227" lon="7.8770777"><ele>257.0</ele><time>2026-03-29T09:31:21.178Z</time></trkpt><trkpt lat="45.2882091" lon="7.8772405"><ele>257.0</ele><time>2026-03-29T09:31:22.18Z</time></trkpt><trkpt lat="45.2881898" lon="7.8774063"><ele>257.0</ele><time>2026-03-29T09:31:23.168Z</time></trkpt><trkpt lat="45.2881701" lon="7.8775891"><ele>257.0</ele><time>2026-03-29T09:31:24.185Z</time></trkpt><trkpt lat="45.2881529" lon="7.8777762"><ele>257.0</ele><time>2026-03-29T09:31:25.174Z</time></trkpt><trkpt lat="45.288134" lon="7.8779573"><ele>257.0</ele><time>2026-03-29T09:31:26.209Z</time></trkpt><trkpt lat="45.2881147" lon="7.8781299"><ele>257.0</ele><time>2026-03-29T09:31:27.168Z</time></trkpt><trkpt lat="45.2881029" lon="7.8782831"><ele>257.0</ele><time>2026-03-29T09:31:28.175Z</time></trkpt><trkpt lat="45.2880851" lon="7.8784257"><ele>257.0</ele><time>2026-03-29T09:31:29.182Z</time></trkpt><trkpt lat="45.2880715" lon="7.8785616"><ele>257.0</ele><time>2026-03-29T09:31:30.165Z</time></trkpt><trkpt lat="45.2880551" lon="7.8787113"><ele>256.8</ele><time>2026-03-29T09:31:31.166Z</time></trkpt><trkpt lat="45.2880345" lon="7.8788642"><ele>256.6</ele><time>2026-03-29T09:31:32.172Z</time></trkpt><trkpt lat="45.288014" lon="7.8790146"><ele>256.40000000000003</ele><time>2026-03-29T09:31:33.17Z</time></trkpt><trkpt lat="45.2880021" lon="7.8791707"><ele>256.2</ele><time>2026-03-29T09:31:34.175Z</time></trkpt><trkpt lat="45.2879948" lon="7.8793117"><ele>256.0</ele><time>2026-03-29T09:31:35.208Z</time></trkpt><trkpt lat="45.2879897" lon="7.8794306"><ele>255.8</ele><time>2026-03-29T09:31:36.164Z</time></trkpt><trkpt lat="45.2879791" lon="7.8795569"><ele>255.60000000000002</ele><time>2026-03-29T09:31:37.166Z</time></trkpt><trkpt lat="45.2879653" lon="7.8796993"><ele>255.4</ele><time>2026-03-29T09:31:38.181Z</time></trkpt><trkpt lat="45.287939" lon="7.879868"><ele>255.2</ele><time>2026-03-29T09:31:39.17Z</time></trkpt><trkpt lat="45.2879265" lon="7.8800491"><ele>255.0</ele><time>2026-03-29T09:31:40.163Z</time></trkpt><trkpt lat="45.2879114" lon="7.8802089"><ele>255.4</ele><time>2026-03-29T09:31:41.179Z</time></trkpt><trkpt lat="45.2878973" lon="7.880359"><ele>255.8</ele><time>2026-03-29T09:31:42.189Z</time></trkpt><trkpt lat="45.2878789" lon="7.8805051"><ele>256.2</ele><time>2026-03-29T09:31:43.209Z</time></trkpt><trkpt lat="45.2878661" lon="7.8806711"><ele>256.6</ele><time>2026-03-29T09:31:44.173Z</time></trkpt><trkpt lat="45.287847" lon="7.8808383"><ele>257.0</ele><time>2026-03-29T09:31:45.163Z</time></trkpt><trkpt lat="45.2878328" lon="7.8810045"><ele>257.6</ele><time>2026-03-29T09:31:46.164Z</time></trkpt><trkpt lat="45.2878158" lon="7.8811686"><ele>258.2</ele><time>2026-03-29T09:31:47.176Z</time></trkpt><trkpt lat="45.2877979" lon="7.8813305"><ele>258.8</ele><time>2026-03-29T09:31:48.186Z</time></trkpt><trkpt lat="45.2877828" lon="7.881478"><ele>259.4</ele><time>2026-03-29T09:31:49.169Z</time></trkpt><trkpt lat="45.2877695" lon="7.8816203"><ele>260.0</ele><time>2026-03-29T09:31:50.169Z</time></trkpt><trkpt lat="45.2877596" lon="7.8817626"><ele>259.0</ele><time>2026-03-29T09:31:51.182Z</time></trkpt><trkpt lat="45.2877433" lon="7.8819224"><ele>258.0</ele><time>2026-03-29T09:31:52.175Z</time></trkpt><trkpt lat="45.2877242" lon="7.8820798"><ele>257.0</ele><time>2026-03-29T09:31:53.18Z</time></trkpt><trkpt lat="45.2877076" lon="7.8822373"><ele>256.0</ele><time>2026-03-29T09:31:54.175Z</time></trkpt><trkpt lat="45.2876855" lon="7.8824075"><ele>256.0</ele><time>2026-03-29T09:31:55.183Z</time></trkpt><trkpt lat="45.2876638" lon="7.8825725"><ele>256.0</ele><time>2026-03-29T09:31:56.169Z</time></trkpt><trkpt lat="45.2876374" lon="7.8827291"><ele>256.0</ele><time>2026-03-29T09:31:57.195Z</time></trkpt><trkpt lat="45.2876209" lon="7.8828881"><ele>256.0</ele><time>2026-03-29T09:31:58.171Z</time></trkpt><trkpt lat="45.2876054" lon="7.8830481"><ele>256.25</ele><time>2026-03-29T09:31:59.168Z</time></trkpt><trkpt lat="45.2875859" lon="7.8832395"><ele>256.5</ele><time>2026-03-29T09:32:00.177Z</time></trkpt><trkpt lat="45.2875603" lon="7.8834562"><ele>256.75</ele><time>2026-03-29T09:32:01.171Z</time></trkpt><trkpt lat="45.2875437" lon="7.8836673"><ele>257.0</ele><time>2026-03-29T09:32:02.155Z</time></trkpt><trkpt lat="45.2875227" lon="7.8838636"><ele>257.0</ele><time>2026-03-29T09:32:03.172Z</time></trkpt><trkpt lat="45.2875014" lon="7.8840561"><ele>257.0</ele><time>2026-03-29T09:32:04.177Z</time></trkpt><trkpt lat="45.2874795" lon="7.8842511"><ele>257.0</ele><time>2026-03-29T09:32:05.199Z</time></trkpt><trkpt lat="45.287455" lon="7.8844616"><ele>257.0</ele><time>2026-03-29T09:32:06.18Z</time></trkpt><trkpt lat="45.2874326" lon="7.8846919"><ele>257.0</ele><time>2026-03-29T09:32:07.186Z</time></trkpt><trkpt lat="45.2874104" lon="7.8849243"><ele>257.0</ele><time>2026-03-29T09:32:08.171Z</time></trkpt><trkpt lat="45.2873945" lon="7.8851468"><ele>257.0</ele><time>2026-03-29T09:32:09.169Z</time></trkpt><trkpt lat="45.2873826" lon="7.8853526"><ele>257.25</ele><time>2026-03-29T09:32:10.183Z</time></trkpt><trkpt lat="45.287368" lon="7.8855507"><ele>257.5</ele><time>2026-03-29T09:32:11.165Z</time></trkpt><trkpt lat="45.2873594" lon="7.8857383"><ele>257.75</ele><time>2026-03-29T09:32:12.171Z</time></trkpt><trkpt lat="45.2873559" lon="7.8859159"><ele>258.0</ele><time>2026-03-29T09:32:13.165Z</time></trkpt><trkpt lat="45.2873567" lon="7.8860578"><ele>258.0</ele><time>2026-03-29T09:32:14.166Z</time></trkpt><trkpt lat="45.2873537" lon="7.886172"><ele>258.0</ele><time>2026-03-29T09:32:15.183Z</time></trkpt><trkpt lat="45.2873414" lon="7.8862718"><ele>258.0</ele><time>2026-03-29T09:32:16.182Z</time></trkpt><trkpt lat="45.2873245" lon="7.8863866"><ele>258.0</ele><time>2026-03-29T09:32:18.211Z</time></trkpt><trkpt lat="45.2873753" lon="7.8865391"><ele>258.0</ele><time>2026-03-29T09:32:48.163Z</time></trkpt><trkpt lat="45.2874306" lon="7.8866088"><ele>258.0</ele><time>2026-03-29T09:32:49.169Z</time></trkpt><trkpt lat="45.2875084" lon="7.8866851"><ele>258.0</ele><time>2026-03-29T09:32:50.17Z</time></trkpt><trkpt lat="45.2875972" lon="7.8867634"><ele>258.0</ele><time>2026-03-29T09:32:51.186Z</time></trkpt><trkpt lat="45.2876923" lon="7.8868614"><ele>258.0</ele><time>2026-03-29T09:32:52.166Z</time></trkpt><trkpt lat="45.2877978" lon="7.8869681"><ele>258.0</ele><time>2026-03-29T09:32:53.159Z</time></trkpt><trkpt lat="45.2879144" lon="7.8870896"><ele>258.0</ele><time>2026-03-29T09:32:54.164Z</time></trkpt><trkpt lat="45.2880361" lon="7.8872048"><ele>258.0</ele><time>2026-03-29T09:32:55.164Z</time></trkpt><trkpt lat="45.2881634" lon="7.8873307"><ele>258.0</ele><time>2026-03-29T09:32:56.184Z</time></trkpt><trkpt lat="45.288289" lon="7.8874519"><ele>257.6666666666667</ele><time>2026-03-29T09:32:57.174Z</time></trkpt><trkpt lat="45.2884149" lon="7.8875751"><ele>257.33333333333337</ele><time>2026-03-29T09:32:58.177Z</time></trkpt><trkpt lat="45.2885405" lon="7.8877078"><ele>257.0</ele><time>2026-03-29T09:32:59.184Z</time></trkpt><trkpt lat="45.2886683" lon="7.887842"><ele>257.0</ele><time>2026-03-29T09:33:00.181Z</time></trkpt><trkpt lat="45.2887983" lon="7.8879707"><ele>257.0</ele><time>2026-03-29T09:33:01.18Z</time></trkpt><trkpt lat="45.2889252" lon="7.8880949"><ele>257.0</ele><time>2026-03-29T09:33:02.154Z</time></trkpt><trkpt lat="45.2890503" lon="7.8882218"><ele>257.33333333333337</ele><time>2026-03-29T09:33:03.185Z</time></trkpt><trkpt lat="45.289179" lon="7.8883511"><ele>257.6666666666667</ele><time>2026-03-29T09:33:04.175Z</time></trkpt><trkpt lat="45.2893107" lon="7.8884789"><ele>258.0</ele><time>2026-03-29T09:33:05.188Z</time></trkpt><trkpt lat="45.2894442" lon="7.8886104"><ele>258.3333333333333</ele><time>2026-03-29T09:33:06.186Z</time></trkpt><trkpt lat="45.2895755" lon="7.8887433"><ele>258.66666666666663</ele><time>2026-03-29T09:33:07.174Z</time></trkpt><trkpt lat="45.2897045" lon="7.8888783"><ele>259.0</ele><time>2026-03-29T09:33:08.195Z</time></trkpt><trkpt lat="45.289837" lon="7.8890122"><ele>259.0</ele><time>2026-03-29T09:33:09.181Z</time></trkpt><trkpt lat="45.2899722" lon="7.8891475"><ele>259.0</ele><time>2026-03-29T09:33:10.159Z</time></trkpt><trkpt lat="45.2901087" lon="7.8892823"><ele>259.0</ele><time>2026-03-29T09:33:11.177Z</time></trkpt><trkpt lat="45.2902394" lon="7.8894128"><ele>259.3333333333333</ele><time>2026-03-29T09:33:12.159Z</time></trkpt><trkpt lat="45.2903778" lon="7.8895446"><ele>259.6666666666667</ele><time>2026-03-29T09:33:13.168Z</time></trkpt><trkpt lat="45.2905095" lon="7.8896757"><ele>260.0</ele><time>2026-03-29T09:33:14.18Z</time></trkpt><trkpt lat="45.2906435" lon="7.8898104"><ele>260.0</ele><time>2026-03-29T09:33:15.201Z</time></trkpt><trkpt lat="45.2907769" lon="7.889944"><ele>260.0</ele><time>2026-03-29T09:33:16.168Z</time></trkpt><trkpt lat="45.2909085" lon="7.8900815"><ele>260.0</ele><time>2026-03-29T09:33:17.176Z</time></trkpt><trkpt lat="45.2910389" lon="7.8902183"><ele>260.0</ele><time>2026-03-29T09:33:18.172Z</time></trkpt><trkpt lat="45.2911701" lon="7.8903547"><ele>260.0</ele><time>2026-03-29T09:33:19.164Z</time></trkpt><trkpt lat="45.2912998" lon="7.8904874"><ele>260.0</ele><time>2026-03-29T09:33:20.17Z</time></trkpt><trkpt lat="45.2914302" lon="7.8906166"><ele>260.6666666666667</ele><time>2026-03-29T09:33:21.172Z</time></trkpt><trkpt lat="45.2915611" lon="7.8907469"><ele>261.3333333333333</ele><time>2026-03-29T09:33:22.184Z</time></trkpt><trkpt lat="45.2916894" lon="7.8908761"><ele>262.0</ele><time>2026-03-29T09:33:23.183Z</time></trkpt><trkpt lat="45.2918256" lon="7.8909981"><ele>262.0</ele><time>2026-03-29T09:33:24.177Z</time></trkpt><trkpt lat="45.2919611" lon="7.8911059"><ele>262.0</ele><time>2026-03-29T09:33:25.173Z</time></trkpt><trkpt lat="45.2921008" lon="7.8912016"><ele>262.0</ele><time>2026-03-29T09:33:26.167Z</time></trkpt><trkpt lat="45.2922535" lon="7.891274"><ele>262.3333333333333</ele><time>2026-03-29T09:33:27.196Z</time></trkpt><trkpt lat="45.2924065" lon="7.8913176"><ele>262.6666666666667</ele><time>2026-03-29T09:33:28.166Z</time></trkpt><trkpt lat="45.2925718" lon="7.8913363"><ele>263.0</ele><time>2026-03-29T09:33:29.163Z</time></trkpt><trkpt lat="45.2927411" lon="7.891333"><ele>263.0</ele><time>2026-03-29T09:33:30.16Z</time></trkpt><trkpt lat="45.2929078" lon="7.8913089"><ele>263.0</ele><time>2026-03-29T09:33:31.171Z</time></trkpt><trkpt lat="45.2930798" lon="7.8912768"><ele>263.0</ele><time>2026-03-29T09:33:32.186Z</time></trkpt><trkpt lat="45.2932492" lon="7.891243"><ele>264.0</ele><time>2026-03-29T09:33:33.183Z</time></trkpt><trkpt lat="45.2934167" lon="7.8912124"><ele>265.0</ele><time>2026-03-29T09:33:34.184Z</time></trkpt><trkpt lat="45.2935915" lon="7.8911808"><ele>266.0</ele><time>2026-03-29T09:33:35.173Z</time></trkpt><trkpt lat="45.2937698" lon="7.8911408"><ele>265.6666666666667</ele><time>2026-03-29T09:33:36.176Z</time></trkpt><trkpt lat="45.2939469" lon="7.8911064"><ele>265.3333333333333</ele><time>2026-03-29T09:33:37.171Z</time></trkpt><trkpt lat="45.2941268" lon="7.891076"><ele>265.0</ele><time>2026-03-29T09:33:38.173Z</time></trkpt><trkpt lat="45.2943033" lon="7.8910428"><ele>265.0</ele><time>2026-03-29T09:33:39.155Z</time></trkpt><trkpt lat="45.2944853" lon="7.89101"><ele>265.0</ele><time>2026-03-29T09:33:40.164Z</time></trkpt><trkpt lat="45.2946656" lon="7.8909783"><ele>265.0</ele><time>2026-03-29T09:33:41.186Z</time></trkpt><trkpt lat="45.2948432" lon="7.8909448"><ele>265.3333333333333</ele><time>2026-03-29T09:33:42.18Z</time></trkpt><trkpt lat="45.2950153" lon="7.8909096"><ele>265.6666666666667</ele><time>2026-03-29T09:33:43.174Z</time></trkpt><trkpt lat="45.2951802" lon="7.8908797"><ele>266.0</ele><time>2026-03-29T09:33:44.174Z</time></trkpt><trkpt lat="45.2953416" lon="7.8908507"><ele>266.0</ele><time>2026-03-29T09:33:45.165Z</time></trkpt><trkpt lat="45.2954926" lon="7.8908207"><ele>266.0</ele><time>2026-03-29T09:33:46.19Z</time></trkpt><trkpt lat="45.2956272" lon="7.8908031"><ele>266.0</ele><time>2026-03-29T09:33:47.17Z</time></trkpt><trkpt lat="45.2957443" lon="7.8907863"><ele>266.0</ele><time>2026-03-29T09:33:48.175Z</time></trkpt><trkpt lat="45.2958412" lon="7.8907816"><ele>266.1666666666667</ele><time>2026-03-29T09:33:49.169Z</time></trkpt><trkpt lat="45.2959209" lon="7.8908029"><ele>266.33333333333337</ele><time>2026-03-29T09:33:50.167Z</time></trkpt><trkpt lat="45.2959916" lon="7.8908629"><ele>266.5</ele><time>2026-03-29T09:33:51.169Z</time></trkpt><trkpt lat="45.2960664" lon="7.8909492"><ele>266.6666666666667</ele><time>2026-03-29T09:33:52.164Z</time></trkpt><trkpt lat="45.2961075" lon="7.8910598"><ele>266.8333333333333</ele><time>2026-03-29T09:33:53.163Z</time></trkpt><trkpt lat="45.2961256" lon="7.8912019"><ele>267.0</ele><time>2026-03-29T09:33:54.165Z</time></trkpt><trkpt lat="45.2961256" lon="7.8913815"><ele>267.0</ele><time>2026-03-29T09:33:55.18Z</time></trkpt><trkpt lat="45.296113" lon="7.8915786"><ele>267.0</ele><time>2026-03-29T09:33:56.168Z</time></trkpt><trkpt lat="45.2960845" lon="7.8917826"><ele>267.0</ele><time>2026-03-29T09:33:57.167Z</time></trkpt><trkpt lat="45.2960524" lon="7.8919829"><ele>267.0</ele><time>2026-03-29T09:33:58.18Z</time></trkpt><trkpt lat="45.2960093" lon="7.8921645"><ele>266.75</ele><time>2026-03-29T09:33:59.167Z</time></trkpt><trkpt lat="45.2959618" lon="7.8923489"><ele>266.5</ele><time>2026-03-29T09:34:00.173Z</time></trkpt><trkpt lat="45.2959026" lon="7.8925304"><ele>266.25</ele><time>2026-03-29T09:34:01.162Z</time></trkpt><trkpt lat="45.2958356" lon="7.8927017"><ele>266.0</ele><time>2026-03-29T09:34:02.164Z</time></trkpt><trkpt lat="45.2957596" lon="7.8928632"><ele>266.0</ele><time>2026-03-29T09:34:03.166Z</time></trkpt><trkpt lat="45.2956775" lon="7.893041"><ele>266.0</ele><time>2026-03-29T09:34:04.16Z</time></trkpt><trkpt lat="45.2955965" lon="7.8932121"><ele>266.0</ele><time>2026-03-29T09:34:05.174Z</time></trkpt><trkpt lat="45.2955101" lon="7.8933898"><ele>266.0</ele><time>2026-03-29T09:34:06.188Z</time></trkpt><trkpt lat="45.2954174" lon="7.8935712"><ele>266.0</ele><time>2026-03-29T09:34:07.185Z</time></trkpt><trkpt lat="45.2953157" lon="7.8937605"><ele>266.0</ele><time>2026-03-29T09:34:08.207Z</time></trkpt><trkpt lat="45.2952131" lon="7.8939459"><ele>266.0</ele><time>2026-03-29T09:34:09.182Z</time></trkpt><trkpt lat="45.2951186" lon="7.8941383"><ele>266.33333333333337</ele><time>2026-03-29T09:34:10.185Z</time></trkpt><trkpt lat="45.2950254" lon="7.8943269"><ele>266.6666666666667</ele><time>2026-03-29T09:34:11.179Z</time></trkpt><trkpt lat="45.2949338" lon="7.8945172"><ele>267.0</ele><time>2026-03-29T09:34:12.181Z</time></trkpt><trkpt lat="45.2948411" lon="7.8947105"><ele>266.3333333333333</ele><time>2026-03-29T09:34:13.169Z</time></trkpt><trkpt lat="45.294743" lon="7.8949012"><ele>265.66666666666663</ele><time>2026-03-29T09:34:14.183Z</time></trkpt><trkpt lat="45.2946493" lon="7.8950972"><ele>265.0</ele><time>2026-03-29T09:34:15.174Z</time></trkpt><trkpt lat="45.29455" lon="7.8952961"><ele>265.0</ele><time>2026-03-29T09:34:16.184Z</time></trkpt><trkpt lat="45.2944521" lon="7.8954879"><ele>265.0</ele><time>2026-03-29T09:34:17.171Z</time></trkpt><trkpt lat="45.2943491" lon="7.8956798"><ele>265.0</ele><time>2026-03-29T09:34:18.174Z</time></trkpt><trkpt lat="45.2942355" lon="7.8958757"><ele>265.0</ele><time>2026-03-29T09:34:19.177Z</time></trkpt><trkpt lat="45.2941092" lon="7.8960659"><ele>265.0</ele><time>2026-03-29T09:34:20.153Z</time></trkpt><trkpt lat="45.293973" lon="7.8962456"><ele>265.0</ele><time>2026-03-29T09:34:21.173Z</time></trkpt><trkpt lat="45.2938315" lon="7.896417"><ele>265.0</ele><time>2026-03-29T09:34:22.164Z</time></trkpt><trkpt lat="45.2936933" lon="7.8965849"><ele>265.0</ele><time>2026-03-29T09:34:23.171Z</time></trkpt><trkpt lat="45.2935545" lon="7.8967357"><ele>265.0</ele><time>2026-03-29T09:34:24.166Z</time></trkpt><trkpt lat="45.2934159" lon="7.8968798"><ele>265.25</ele><time>2026-03-29T09:34:25.168Z</time></trkpt><trkpt lat="45.2932864" lon="7.8969985"><ele>265.5</ele><time>2026-03-29T09:34:26.166Z</time></trkpt><trkpt lat="45.2931643" lon="7.8970972"><ele>265.75</ele><time>2026-03-29T09:34:27.171Z</time></trkpt><trkpt lat="45.293039" lon="7.8971678"><ele>266.0</ele><time>2026-03-29T09:34:28.172Z</time></trkpt><trkpt lat="45.292908" lon="7.8972164"><ele>266.0</ele><time>2026-03-29T09:34:29.168Z</time></trkpt><trkpt lat="45.2927768" lon="7.8972264"><ele>266.0</ele><time>2026-03-29T09:34:30.156Z</time></trkpt><trkpt lat="45.292662" lon="7.8972311"><ele>266.0</ele><time>2026-03-29T09:34:31.177Z</time></trkpt><trkpt lat="45.2925636" lon="7.8972699"><ele>266.0</ele><time>2026-03-29T09:34:32.161Z</time></trkpt><trkpt lat="45.2924761" lon="7.8973742"><ele>266.0</ele><time>2026-03-29T09:34:33.174Z</time></trkpt><trkpt lat="45.2924112" lon="7.897522"><ele>266.0</ele><time>2026-03-29T09:34:34.175Z</time></trkpt><trkpt lat="45.2923335" lon="7.897688"><ele>266.0</ele><time>2026-03-29T09:34:35.184Z</time></trkpt><trkpt lat="45.2922271" lon="7.8978389"><ele>266.0</ele><time>2026-03-29T09:34:36.175Z</time></trkpt><trkpt lat="45.2921019" lon="7.8979648"><ele>264.6666666666667</ele><time>2026-03-29T09:34:37.199Z</time></trkpt><trkpt lat="45.2919492" lon="7.898099"><ele>263.3333333333333</ele><time>2026-03-29T09:34:38.184Z</time></trkpt><trkpt lat="45.2917831" lon="7.8982389"><ele>262.0</ele><time>2026-03-29T09:34:39.17Z</time></trkpt><trkpt lat="45.2916155" lon="7.8983817"><ele>262.66666666666663</ele><time>2026-03-29T09:34:40.163Z</time></trkpt><trkpt lat="45.2914371" lon="7.8985254"><ele>263.3333333333333</ele><time>2026-03-29T09:34:41.178Z</time></trkpt><trkpt lat="45.2912597" lon="7.8986735"><ele>264.0</ele><time>2026-03-29T09:34:42.161Z</time></trkpt><trkpt lat="45.2910858" lon="7.8988135"><ele>264.3333333333333</ele><time>2026-03-29T09:34:43.161Z</time></trkpt><trkpt lat="45.2909126" lon="7.8989605"><ele>264.66666666666663</ele><time>2026-03-29T09:34:44.164Z</time></trkpt><trkpt lat="45.290738" lon="7.8991058"><ele>265.0</ele><time>2026-03-29T09:34:45.175Z</time></trkpt><trkpt lat="45.2905692" lon="7.8992423"><ele>263.66666666666663</ele><time>2026-03-29T09:34:46.175Z</time></trkpt><trkpt lat="45.2904062" lon="7.8993842"><ele>262.3333333333333</ele><time>2026-03-29T09:34:47.169Z</time></trkpt><trkpt lat="45.2902339" lon="7.8995179"><ele>261.0</ele><time>2026-03-29T09:34:48.17Z</time></trkpt><trkpt lat="45.2900654" lon="7.8996577"><ele>261.0</ele><time>2026-03-29T09:34:49.168Z</time></trkpt><trkpt lat="45.289893" lon="7.8997935"><ele>261.0</ele><time>2026-03-29T09:34:50.171Z</time></trkpt><trkpt lat="45.2897161" lon="7.8999303"><ele>261.0</ele><time>2026-03-29T09:34:51.18Z</time></trkpt><trkpt lat="45.2895452" lon="7.9000662"><ele>260.6666666666667</ele><time>2026-03-29T09:34:52.167Z</time></trkpt><trkpt lat="45.2893689" lon="7.9002123"><ele>260.33333333333337</ele><time>2026-03-29T09:34:53.169Z</time></trkpt><trkpt lat="45.2891909" lon="7.9003521"><ele>260.0</ele><time>2026-03-29T09:34:54.163Z</time></trkpt><trkpt lat="45.2890085" lon="7.9004959"><ele>260.0</ele><time>2026-03-29T09:34:55.168Z</time></trkpt><trkpt lat="45.2888242" lon="7.900648"><ele>260.0</ele><time>2026-03-29T09:34:56.17Z</time></trkpt><trkpt lat="45.2886371" lon="7.9007951"><ele>260.0</ele><time>2026-03-29T09:34:57.174Z</time></trkpt><trkpt lat="45.2884505" lon="7.9009372"><ele>260.33333333333337</ele><time>2026-03-29T09:34:58.171Z</time></trkpt><trkpt lat="45.2882596" lon="7.901064"><ele>260.6666666666667</ele><time>2026-03-29T09:34:59.178Z</time></trkpt><trkpt lat="45.2880642" lon="7.9011833"><ele>261.0</ele><time>2026-03-29T09:35:00.176Z</time></trkpt><trkpt lat="45.2878561" lon="7.9012781"><ele>260.0</ele><time>2026-03-29T09:35:01.176Z</time></trkpt><trkpt lat="45.2876484" lon="7.9013653"><ele>259.0</ele><time>2026-03-29T09:35:02.175Z</time></trkpt><trkpt lat="45.2874358" lon="7.9014355"><ele>258.0</ele><time>2026-03-29T09:35:03.184Z</time></trkpt><trkpt lat="45.2872243" lon="7.9014925"><ele>257.6666666666667</ele><time>2026-03-29T09:35:04.174Z</time></trkpt><trkpt lat="45.287011" lon="7.901535"><ele>257.33333333333337</ele><time>2026-03-29T09:35:05.178Z</time></trkpt><trkpt lat="45.2867963" lon="7.901568"><ele>257.0</ele><time>2026-03-29T09:35:06.17Z</time></trkpt><trkpt lat="45.2865797" lon="7.9015905"><ele>256.33333333333337</ele><time>2026-03-29T09:35:07.172Z</time></trkpt><trkpt lat="45.2863627" lon="7.9015997"><ele>255.66666666666669</ele><time>2026-03-29T09:35:08.165Z</time></trkpt><trkpt lat="45.2861505" lon="7.9016112"><ele>255.0</ele><time>2026-03-29T09:35:09.181Z</time></trkpt><trkpt lat="45.2859356" lon="7.9016223"><ele>255.0</ele><time>2026-03-29T09:35:10.173Z</time></trkpt><trkpt lat="45.2857203" lon="7.9016264"><ele>255.0</ele><time>2026-03-29T09:35:11.18Z</time></trkpt><trkpt lat="45.2855063" lon="7.9016375"><ele>255.0</ele><time>2026-03-29T09:35:12.164Z</time></trkpt><trkpt lat="45.2852987" lon="7.9016524"><ele>255.0</ele><time>2026-03-29T09:35:13.161Z</time></trkpt><trkpt lat="45.2851035" lon="7.9016598"><ele>255.0</ele><time>2026-03-29T09:35:14.172Z</time></trkpt><trkpt lat="45.2849153" lon="7.9016734"><ele>255.0</ele><time>2026-03-29T09:35:15.166Z</time></trkpt><trkpt lat="45.2847286" lon="7.9016846"><ele>255.0</ele><time>2026-03-29T09:35:16.174Z</time></trkpt><trkpt lat="45.2845429" lon="7.9016925"><ele>255.0</ele><time>2026-03-29T09:35:17.173Z</time></trkpt><trkpt lat="45.2843559" lon="7.9017032"><ele>255.0</ele><time>2026-03-29T09:35:18.183Z</time></trkpt><trkpt lat="45.2841743" lon="7.9017134"><ele>255.0</ele><time>2026-03-29T09:35:19.183Z</time></trkpt><trkpt lat="45.2839906" lon="7.9017267"><ele>255.0</ele><time>2026-03-29T09:35:20.169Z</time></trkpt><trkpt lat="45.2838028" lon="7.9017367"><ele>255.0</ele><time>2026-03-29T09:35:21.174Z</time></trkpt><trkpt lat="45.283616" lon="7.9017514"><ele>254.66666666666669</ele><time>2026-03-29T09:35:22.179Z</time></trkpt><trkpt lat="45.283421" lon="7.9017636"><ele>254.33333333333334</ele><time>2026-03-29T09:35:23.17Z</time></trkpt><trkpt lat="45.2832352" lon="7.9017682"><ele>254.0</ele><time>2026-03-29T09:35:24.187Z</time></trkpt><trkpt lat="45.2830469" lon="7.9017783"><ele>253.33333333333334</ele><time>2026-03-29T09:35:25.188Z</time></trkpt><trkpt lat="45.2828447" lon="7.9017911"><ele>252.66666666666669</ele><time>2026-03-29T09:35:26.179Z</time></trkpt><trkpt lat="45.2826414" lon="7.9018034"><ele>252.0</ele><time>2026-03-29T09:35:27.168Z</time></trkpt><trkpt lat="45.2824323" lon="7.9018128"><ele>252.0</ele><time>2026-03-29T09:35:28.15Z</time></trkpt><trkpt lat="45.2822333" lon="7.9018197"><ele>252.0</ele><time>2026-03-29T09:35:29.149Z</time></trkpt><trkpt lat="45.2820373" lon="7.9018314"><ele>252.0</ele><time>2026-03-29T09:35:30.151Z</time></trkpt><trkpt lat="45.2818481" lon="7.9018406"><ele>252.0</ele><time>2026-03-29T09:35:31.152Z</time></trkpt><trkpt lat="45.2816554" lon="7.9018475"><ele>252.0</ele><time>2026-03-29T09:35:32.152Z</time></trkpt><trkpt lat="45.2814593" lon="7.9018596"><ele>252.0</ele><time>2026-03-29T09:35:33.171Z</time></trkpt><trkpt lat="45.2812621" lon="7.9018656"><ele>251.33333333333331</ele><time>2026-03-29T09:35:34.167Z</time></trkpt><trkpt lat="45.2810689" lon="7.9018693"><ele>250.66666666666666</ele><time>2026-03-29T09:35:35.161Z</time></trkpt><trkpt lat="45.2808699" lon="7.9018634"><ele>250.0</ele><time>2026-03-29T09:35:36.155Z</time></trkpt><trkpt lat="45.2806792" lon="7.9018445"><ele>250.0</ele><time>2026-03-29T09:35:37.184Z</time></trkpt><trkpt lat="45.2804794" lon="7.9018177"><ele>250.0</ele><time>2026-03-29T09:35:38.162Z</time></trkpt><trkpt lat="45.2802853" lon="7.9017753"><ele>250.0</ele><time>2026-03-29T09:35:39.171Z</time></trkpt><trkpt lat="45.2800953" lon="7.9017029"><ele>250.0</ele><time>2026-03-29T09:35:40.177Z</time></trkpt><trkpt lat="45.279904" lon="7.9016139"><ele>250.0</ele><time>2026-03-29T09:35:41.163Z</time></trkpt><trkpt lat="45.2797155" lon="7.9015133"><ele>250.0</ele><time>2026-03-29T09:35:42.177Z</time></trkpt><trkpt lat="45.2795287" lon="7.9013993"><ele>249.0</ele><time>2026-03-29T09:35:43.166Z</time></trkpt><trkpt lat="45.2793474" lon="7.9012716"><ele>248.0</ele><time>2026-03-29T09:35:44.162Z</time></trkpt><trkpt lat="45.2791662" lon="7.901139"><ele>247.0</ele><time>2026-03-29T09:35:45.184Z</time></trkpt><trkpt lat="45.278998" lon="7.9009896"><ele>247.33333333333331</ele><time>2026-03-29T09:35:46.166Z</time></trkpt><trkpt lat="45.2788367" lon="7.9008288"><ele>247.66666666666669</ele><time>2026-03-29T09:35:47.17Z</time></trkpt><trkpt lat="45.2786866" lon="7.9006586"><ele>248.0</ele><time>2026-03-29T09:35:48.17Z</time></trkpt><trkpt lat="45.2785396" lon="7.9004731"><ele>248.0</ele><time>2026-03-29T09:35:49.163Z</time></trkpt><trkpt lat="45.2783988" lon="7.9002787"><ele>248.0</ele><time>2026-03-29T09:35:50.171Z</time></trkpt><trkpt lat="45.2782602" lon="7.9000725"><ele>248.0</ele><time>2026-03-29T09:35:51.167Z</time></trkpt><trkpt lat="45.2781295" lon="7.8998691"><ele>247.0</ele><time>2026-03-29T09:35:52.164Z</time></trkpt><trkpt lat="45.2780023" lon="7.8996622"><ele>246.0</ele><time>2026-03-29T09:35:53.162Z</time></trkpt><trkpt lat="45.2778745" lon="7.8994558"><ele>245.0</ele><time>2026-03-29T09:35:54.158Z</time></trkpt><trkpt lat="45.2777553" lon="7.8992499"><ele>245.0</ele><time>2026-03-29T09:35:55.165Z</time></trkpt><trkpt lat="45.2776301" lon="7.8990404"><ele>245.0</ele><time>2026-03-29T09:35:56.169Z</time></trkpt><trkpt lat="45.2775069" lon="7.898835"><ele>245.0</ele><time>2026-03-29T09:35:57.163Z</time></trkpt><trkpt lat="45.2773802" lon="7.898627"><ele>245.33333333333334</ele><time>2026-03-29T09:35:58.165Z</time></trkpt><trkpt lat="45.2772591" lon="7.8984151"><ele>245.66666666666669</ele><time>2026-03-29T09:35:59.165Z</time></trkpt><trkpt lat="45.2771289" lon="7.8982058"><ele>246.0</ele><time>2026-03-29T09:36:00.163Z</time></trkpt><trkpt lat="45.2770058" lon="7.8979981"><ele>246.0</ele><time>2026-03-29T09:36:01.169Z</time></trkpt><trkpt lat="45.2768811" lon="7.8977924"><ele>246.0</ele><time>2026-03-29T09:36:02.173Z</time></trkpt><trkpt lat="45.2767562" lon="7.8975824"><ele>246.0</ele><time>2026-03-29T09:36:03.16Z</time></trkpt><trkpt lat="45.2766261" lon="7.8973748"><ele>246.0</ele><time>2026-03-29T09:36:04.168Z</time></trkpt><trkpt lat="45.2764961" lon="7.8971674"><ele>246.0</ele><time>2026-03-29T09:36:05.169Z</time></trkpt><trkpt lat="45.2763687" lon="7.8969527"><ele>246.0</ele><time>2026-03-29T09:36:06.187Z</time></trkpt><trkpt lat="45.2762464" lon="7.8967427"><ele>245.66666666666669</ele><time>2026-03-29T09:36:07.167Z</time></trkpt><trkpt lat="45.2761276" lon="7.8965449"><ele>245.33333333333334</ele><time>2026-03-29T09:36:08.169Z</time></trkpt><trkpt lat="45.2760079" lon="7.8963457"><ele>245.0</ele><time>2026-03-29T09:36:09.185Z</time></trkpt><trkpt lat="45.2758864" lon="7.89615"><ele>245.0</ele><time>2026-03-29T09:36:10.178Z</time></trkpt><trkpt lat="45.2757674" lon="7.8959519"><ele>245.0</ele><time>2026-03-29T09:36:11.198Z</time></trkpt><trkpt lat="45.2756535" lon="7.8957599"><ele>245.0</ele><time>2026-03-29T09:36:12.167Z</time></trkpt><trkpt lat="45.2755406" lon="7.8955667"><ele>244.66666666666669</ele><time>2026-03-29T09:36:13.171Z</time></trkpt><trkpt lat="45.2754285" lon="7.8953773"><ele>244.33333333333331</ele><time>2026-03-29T09:36:14.169Z</time></trkpt><trkpt lat="45.2753144" lon="7.8951868"><ele>244.0</ele><time>2026-03-29T09:36:15.178Z</time></trkpt><trkpt lat="45.2752009" lon="7.8949965"><ele>244.0</ele><time>2026-03-29T09:36:16.167Z</time></trkpt><trkpt lat="45.2750912" lon="7.8948077"><ele>244.0</ele><time>2026-03-29T09:36:17.173Z</time></trkpt><trkpt lat="45.2749787" lon="7.8946215"><ele>244.0</ele><time>2026-03-29T09:36:18.161Z</time></trkpt><trkpt lat="45.2748733" lon="7.8944383"><ele>244.0</ele><time>2026-03-29T09:36:19.172Z</time></trkpt><trkpt lat="45.2747625" lon="7.8942528"><ele>244.0</ele><time>2026-03-29T09:36:20.172Z</time></trkpt><trkpt lat="45.2746524" lon="7.8940701"><ele>244.0</ele><time>2026-03-29T09:36:21.174Z</time></trkpt><trkpt lat="45.27454" lon="7.8938909"><ele>244.0</ele><time>2026-03-29T09:36:22.169Z</time></trkpt><trkpt lat="45.274435" lon="7.8937153"><ele>244.0</ele><time>2026-03-29T09:36:23.17Z</time></trkpt><trkpt lat="45.2743362" lon="7.8935521"><ele>244.0</ele><time>2026-03-29T09:36:24.166Z</time></trkpt><trkpt lat="45.27425" lon="7.8934023"><ele>243.79999999999998</ele><time>2026-03-29T09:36:25.173Z</time></trkpt><trkpt lat="45.2741711" lon="7.893267"><ele>243.59999999999997</ele><time>2026-03-29T09:36:26.16Z</time></trkpt><trkpt lat="45.2740932" lon="7.893143"><ele>243.4</ele><time>2026-03-29T09:36:27.174Z</time></trkpt><trkpt lat="45.2740343" lon="7.8930212"><ele>243.2</ele><time>2026-03-29T09:36:28.164Z</time></trkpt><trkpt lat="45.2739919" lon="7.8929004"><ele>243.0</ele><time>2026-03-29T09:36:29.174Z</time></trkpt><trkpt lat="45.2739555" lon="7.8927946"><ele>243.0</ele><time>2026-03-29T09:36:30.17Z</time></trkpt><trkpt lat="45.2739449" lon="7.8926971"><ele>243.0</ele><time>2026-03-29T09:36:31.168Z</time></trkpt><trkpt lat="45.2739662" lon="7.8926115"><ele>243.0</ele><time>2026-03-29T09:36:32.17Z</time></trkpt><trkpt lat="45.2740813" lon="7.8925325"><ele>243.0</ele><time>2026-03-29T09:36:34.17Z</time></trkpt><trkpt lat="45.2741592" lon="7.8925128"><ele>243.0</ele><time>2026-03-29T09:36:35.169Z</time></trkpt><trkpt lat="45.2742472" lon="7.8925099"><ele>243.0</ele><time>2026-03-29T09:36:36.163Z</time></trkpt><trkpt lat="45.2743319" lon="7.8925127"><ele>243.0</ele><time>2026-03-29T09:36:37.176Z</time></trkpt><trkpt lat="45.2744196" lon="7.8925174"><ele>243.0</ele><time>2026-03-29T09:36:38.173Z</time></trkpt><trkpt lat="45.2745057" lon="7.892519"><ele>243.0</ele><time>2026-03-29T09:36:39.167Z</time></trkpt><trkpt lat="45.2745786" lon="7.8925277"><ele>243.0</ele><time>2026-03-29T09:36:40.188Z</time></trkpt><trkpt lat="45.2746722" lon="7.8926255"><ele>243.0</ele><time>2026-03-29T09:36:42.175Z</time></trkpt><trkpt lat="45.2746971" lon="7.8927495"><ele>243.0</ele><time>2026-03-29T09:36:43.175Z</time></trkpt><trkpt lat="45.2746938" lon="7.8929116"><ele>243.0</ele><time>2026-03-29T09:36:44.183Z</time></trkpt><trkpt lat="45.2747004" lon="7.8931178"><ele>243.0</ele><time>2026-03-29T09:36:45.165Z</time></trkpt><trkpt lat="45.2747028" lon="7.8933564"><ele>243.0</ele><time>2026-03-29T09:36:46.182Z</time></trkpt><trkpt lat="45.2747051" lon="7.8935509"><ele>243.2</ele><time>2026-03-29T09:36:47.164Z</time></trkpt><trkpt lat="45.2747254" lon="7.8937086"><ele>243.4</ele><time>2026-03-29T09:36:48.176Z</time></trkpt><trkpt lat="45.2747485" lon="7.893856"><ele>243.59999999999997</ele><time>2026-03-29T09:36:49.175Z</time></trkpt><trkpt lat="45.2747846" lon="7.8939842"><ele>243.79999999999998</ele><time>2026-03-29T09:36:50.167Z</time></trkpt><trkpt lat="45.2748326" lon="7.8941057"><ele>244.0</ele><time>2026-03-29T09:36:51.163Z</time></trkpt><trkpt lat="45.274903" lon="7.8942449"><ele>244.0</ele><time>2026-03-29T09:36:52.165Z</time></trkpt><trkpt lat="45.2749915" lon="7.8943997"><ele>244.0</ele><time>2026-03-29T09:36:53.16Z</time></trkpt><trkpt lat="45.2750688" lon="7.8945398"><ele>244.0</ele><time>2026-03-29T09:36:54.17Z</time></trkpt><trkpt lat="45.2751462" lon="7.8946716"><ele>244.0</ele><time>2026-03-29T09:36:55.172Z</time></trkpt><trkpt lat="45.275228" lon="7.8948236"><ele>244.0</ele><time>2026-03-29T09:36:56.184Z</time></trkpt><trkpt lat="45.2753228" lon="7.8949829"><ele>244.0</ele><time>2026-03-29T09:36:57.172Z</time></trkpt><trkpt lat="45.275433" lon="7.8951484"><ele>244.0</ele><time>2026-03-29T09:36:58.184Z</time></trkpt><trkpt lat="45.2755369" lon="7.895321"><ele>244.66666666666666</ele><time>2026-03-29T09:36:59.163Z</time></trkpt><trkpt lat="45.2756445" lon="7.8954966"><ele>245.33333333333331</ele><time>2026-03-29T09:37:00.167Z</time></trkpt><trkpt lat="45.2757554" lon="7.8956797"><ele>246.0</ele><time>2026-03-29T09:37:01.173Z</time></trkpt><trkpt lat="45.2758647" lon="7.8958581"><ele>245.66666666666669</ele><time>2026-03-29T09:37:02.205Z</time></trkpt><trkpt lat="45.2759661" lon="7.8960293"><ele>245.33333333333334</ele><time>2026-03-29T09:37:03.168Z</time></trkpt><trkpt lat="45.276071" lon="7.8962056"><ele>245.0</ele><time>2026-03-29T09:37:04.18Z</time></trkpt><trkpt lat="45.2761816" lon="7.8963846"><ele>245.0</ele><time>2026-03-29T09:37:05.163Z</time></trkpt><trkpt lat="45.276299" lon="7.896581"><ele>245.0</ele><time>2026-03-29T09:37:06.175Z</time></trkpt><trkpt lat="45.2764125" lon="7.8967784"><ele>245.0</ele><time>2026-03-29T09:37:07.171Z</time></trkpt><trkpt lat="45.2765244" lon="7.8969687"><ele>245.0</ele><time>2026-03-29T09:37:08.164Z</time></trkpt><trkpt lat="45.2766348" lon="7.8971446"><ele>245.0</ele><time>2026-03-29T09:37:09.175Z</time></trkpt><trkpt lat="45.2767402" lon="7.8973231"><ele>245.0</ele><time>2026-03-29T09:37:10.19Z</time></trkpt><trkpt lat="45.2768484" lon="7.8975051"><ele>245.25</ele><time>2026-03-29T09:37:11.165Z</time></trkpt><trkpt lat="45.2769485" lon="7.8976662"><ele>245.5</ele><time>2026-03-29T09:37:12.199Z</time></trkpt><trkpt lat="45.2770434" lon="7.897823"><ele>245.75</ele><time>2026-03-29T09:37:13.17Z</time></trkpt><trkpt lat="45.2771377" lon="7.8979734"><ele>246.0</ele><time>2026-03-29T09:37:14.165Z</time></trkpt><trkpt lat="45.2772328" lon="7.8981224"><ele>245.75</ele><time>2026-03-29T09:37:15.173Z</time></trkpt><trkpt lat="45.2773254" lon="7.8982664"><ele>245.5</ele><time>2026-03-29T09:37:16.169Z</time></trkpt><trkpt lat="45.2774151" lon="7.8984164"><ele>245.25</ele><time>2026-03-29T09:37:17.172Z</time></trkpt><trkpt lat="45.2775046" lon="7.898578"><ele>245.0</ele><time>2026-03-29T09:37:18.171Z</time></trkpt><trkpt lat="45.2775984" lon="7.8987479"><ele>245.0</ele><time>2026-03-29T09:37:19.18Z</time></trkpt><trkpt lat="45.2776939" lon="7.898923"><ele>245.0</ele><time>2026-03-29T09:37:20.177Z</time></trkpt><trkpt lat="45.2777943" lon="7.8990973"><ele>245.0</ele><time>2026-03-29T09:37:21.165Z</time></trkpt><trkpt lat="45.277899" lon="7.8992801"><ele>245.0</ele><time>2026-03-29T09:37:22.167Z</time></trkpt><trkpt lat="45.2780051" lon="7.8994614"><ele>245.0</ele><time>2026-03-29T09:37:23.17Z</time></trkpt><trkpt lat="45.2780988" lon="7.8996109"><ele>245.0</ele><time>2026-03-29T09:37:24.197Z</time></trkpt><trkpt lat="45.2781847" lon="7.8997312"><ele>245.0</ele><time>2026-03-29T09:37:25.161Z</time></trkpt><trkpt lat="45.2782422" lon="7.8998362"><ele>245.6</ele><time>2026-03-29T09:37:26.161Z</time></trkpt><trkpt lat="45.2782923" lon="7.899909"><ele>246.2</ele><time>2026-03-29T09:37:27.167Z</time></trkpt><trkpt lat="45.2783969" lon="7.8999655"><ele>246.8</ele><time>2026-03-29T09:37:29.157Z</time></trkpt><trkpt lat="45.2784775" lon="7.8999694"><ele>247.4</ele><time>2026-03-29T09:37:30.177Z</time></trkpt><trkpt lat="45.2785903" lon="7.8999546"><ele>248.0</ele><time>2026-03-29T09:37:31.173Z</time></trkpt><trkpt lat="45.2787167" lon="7.8999355"><ele>248.00000000000003</ele><time>2026-03-29T09:37:32.169Z</time></trkpt><trkpt lat="45.2788182" lon="7.8999245"><ele>248.0</ele><time>2026-03-29T09:37:33.161Z</time></trkpt><trkpt lat="45.2788871" lon="7.8999323"><ele>248.0</ele><time>2026-03-29T09:37:34.187Z</time></trkpt><trkpt lat="45.2789716" lon="7.8999349"><ele>248.0</ele><time>2026-03-29T09:37:35.169Z</time></trkpt><trkpt lat="45.2790562" lon="7.8999307"><ele>248.00000000000003</ele><time>2026-03-29T09:37:36.168Z</time></trkpt><trkpt lat="45.2791459" lon="7.8999344"><ele>248.0</ele><time>2026-03-29T09:37:37.179Z</time></trkpt><trkpt lat="45.2792459" lon="7.8999344"><ele>248.5</ele><time>2026-03-29T09:37:38.181Z</time></trkpt><trkpt lat="45.2793542" lon="7.8999313"><ele>249.0</ele><time>2026-03-29T09:37:39.174Z</time></trkpt><trkpt lat="45.2794731" lon="7.8999254"><ele>249.5</ele><time>2026-03-29T09:37:40.184Z</time></trkpt><trkpt lat="45.2795954" lon="7.899917"><ele>250.0</ele><time>2026-03-29T09:37:41.166Z</time></trkpt><trkpt lat="45.279717" lon="7.8999224"><ele>250.0</ele><time>2026-03-29T09:37:42.17Z</time></trkpt><trkpt lat="45.2798438" lon="7.8999324"><ele>250.0</ele><time>2026-03-29T09:37:43.165Z</time></trkpt><trkpt lat="45.2799785" lon="7.899931"><ele>250.0</ele><time>2026-03-29T09:37:44.168Z</time></trkpt><trkpt lat="45.2800986" lon="7.8999205"><ele>250.0</ele><time>2026-03-29T09:37:45.163Z</time></trkpt><trkpt lat="45.2802183" lon="7.8999127"><ele>250.0</ele><time>2026-03-29T09:37:46.171Z</time></trkpt><trkpt lat="45.2803345" lon="7.8999026"><ele>250.0</ele><time>2026-03-29T09:37:47.173Z</time></trkpt><trkpt lat="45.2804587" lon="7.8998977"><ele>250.0</ele><time>2026-03-29T09:37:48.178Z</time></trkpt><trkpt lat="45.2805938" lon="7.8998879"><ele>250.0</ele><time>2026-03-29T09:37:49.175Z</time></trkpt><trkpt lat="45.280728" lon="7.8998825"><ele>249.75</ele><time>2026-03-29T09:37:50.163Z</time></trkpt><trkpt lat="45.280856" lon="7.8998747"><ele>249.5</ele><time>2026-03-29T09:37:51.162Z</time></trkpt><trkpt lat="45.2809712" lon="7.8998656"><ele>249.25</ele><time>2026-03-29T09:37:52.175Z</time></trkpt><trkpt lat="45.2810854" lon="7.8998562"><ele>249.0</ele><time>2026-03-29T09:37:53.171Z</time></trkpt><trkpt lat="45.2811999" lon="7.8998455"><ele>249.0</ele><time>2026-03-29T09:37:54.175Z</time></trkpt><trkpt lat="45.2813178" lon="7.8998353"><ele>249.0</ele><time>2026-03-29T09:37:55.172Z</time></trkpt><trkpt lat="45.2814362" lon="7.8998287"><ele>249.0</ele><time>2026-03-29T09:37:56.16Z</time></trkpt><trkpt lat="45.2815506" lon="7.8998256"><ele>249.0</ele><time>2026-03-29T09:37:57.183Z</time></trkpt><trkpt lat="45.2816651" lon="7.8998224"><ele>249.75</ele><time>2026-03-29T09:37:58.156Z</time></trkpt><trkpt lat="45.2817804" lon="7.8998264"><ele>250.5</ele><time>2026-03-29T09:37:59.157Z</time></trkpt><trkpt lat="45.2818929" lon="7.8998318"><ele>251.25</ele><time>2026-03-29T09:38:00.161Z</time></trkpt><trkpt lat="45.2820102" lon="7.8998266"><ele>252.0</ele><time>2026-03-29T09:38:01.161Z</time></trkpt><trkpt lat="45.2821255" lon="7.8998201"><ele>252.0</ele><time>2026-03-29T09:38:02.172Z</time></trkpt><trkpt lat="45.2822544" lon="7.8998106"><ele>252.0</ele><time>2026-03-29T09:38:03.169Z</time></trkpt><trkpt lat="45.2823971" lon="7.8997986"><ele>252.0</ele><time>2026-03-29T09:38:04.178Z</time></trkpt><trkpt lat="45.2825423" lon="7.8997885"><ele>252.0</ele><time>2026-03-29T09:38:05.178Z</time></trkpt><trkpt lat="45.2826748" lon="7.8997718"><ele>252.0</ele><time>2026-03-29T09:38:06.159Z</time></trkpt><trkpt lat="45.282809" lon="7.8997561"><ele>252.0</ele><time>2026-03-29T09:38:07.17Z</time></trkpt><trkpt lat="45.2829439" lon="7.899735"><ele>252.0</ele><time>2026-03-29T09:38:08.179Z</time></trkpt><trkpt lat="45.2830854" lon="7.8997163"><ele>252.0</ele><time>2026-03-29T09:38:09.179Z</time></trkpt><trkpt lat="45.2832267" lon="7.8996987"><ele>252.0</ele><time>2026-03-29T09:38:10.179Z</time></trkpt><trkpt lat="45.2833556" lon="7.8996895"><ele>252.0</ele><time>2026-03-29T09:38:11.193Z</time></trkpt><trkpt lat="45.283479" lon="7.899678"><ele>252.0</ele><time>2026-03-29T09:38:12.179Z</time></trkpt><trkpt lat="45.2836011" lon="7.8996678"><ele>252.0</ele><time>2026-03-29T09:38:13.171Z</time></trkpt><trkpt lat="45.2837242" lon="7.8996524"><ele>252.0</ele><time>2026-03-29T09:38:14.168Z</time></trkpt><trkpt lat="45.2838503" lon="7.8996458"><ele>252.0</ele><time>2026-03-29T09:38:15.174Z</time></trkpt><trkpt lat="45.2839708" lon="7.8996375"><ele>252.0</ele><time>2026-03-29T09:38:16.167Z</time></trkpt><trkpt lat="45.2840808" lon="7.899637"><ele>252.0</ele><time>2026-03-29T09:38:17.173Z</time></trkpt><trkpt lat="45.2841826" lon="7.8996453"><ele>252.6</ele><time>2026-03-29T09:38:18.197Z</time></trkpt><trkpt lat="45.2842742" lon="7.8996499"><ele>253.2</ele><time>2026-03-29T09:38:19.163Z</time></trkpt><trkpt lat="45.2843611" lon="7.8996572"><ele>253.8</ele><time>2026-03-29T09:38:20.174Z</time></trkpt><trkpt lat="45.2844569" lon="7.8996681"><ele>254.4</ele><time>2026-03-29T09:38:21.181Z</time></trkpt><trkpt lat="45.2845792" lon="7.89968"><ele>255.0</ele><time>2026-03-29T09:38:22.173Z</time></trkpt><trkpt lat="45.2846949" lon="7.8996911"><ele>255.0</ele><time>2026-03-29T09:38:23.171Z</time></trkpt><trkpt lat="45.2847944" lon="7.89969"><ele>255.0</ele><time>2026-03-29T09:38:24.167Z</time></trkpt><trkpt lat="45.2848728" lon="7.8996854"><ele>255.0</ele><time>2026-03-29T09:38:25.183Z</time></trkpt><trkpt lat="45.2849442" lon="7.8996893"><ele>255.0</ele><time>2026-03-29T09:38:26.18Z</time></trkpt><trkpt lat="45.2850338" lon="7.8997008"><ele>255.0</ele><time>2026-03-29T09:38:28.175Z</time></trkpt><trkpt lat="45.2850794" lon="7.8997696"><ele>255.0</ele><time>2026-03-29T09:38:30.172Z</time></trkpt><trkpt lat="45.2850738" lon="7.8999735"><ele>255.0</ele><time>2026-03-29T09:38:32.172Z</time></trkpt><trkpt lat="45.2850586" lon="7.9001442"><ele>255.0</ele><time>2026-03-29T09:38:33.171Z</time></trkpt><trkpt lat="45.2850436" lon="7.9003159"><ele>255.0</ele><time>2026-03-29T09:38:34.182Z</time></trkpt><trkpt lat="45.2850343" lon="7.9004793"><ele>255.0</ele><time>2026-03-29T09:38:35.162Z</time></trkpt><trkpt lat="45.2850294" lon="7.9006576"><ele>255.0</ele><time>2026-03-29T09:38:36.18Z</time></trkpt><trkpt lat="45.2850242" lon="7.9008305"><ele>255.0</ele><time>2026-03-29T09:38:37.169Z</time></trkpt><trkpt lat="45.2850105" lon="7.9010058"><ele>255.0</ele><time>2026-03-29T09:38:38.185Z</time></trkpt><trkpt lat="45.2850011" lon="7.9011852"><ele>255.0</ele><time>2026-03-29T09:38:39.169Z</time></trkpt><trkpt lat="45.2849922" lon="7.901376"><ele>255.0</ele><time>2026-03-29T09:38:40.184Z</time></trkpt><trkpt lat="45.2849803" lon="7.9015627"><ele>255.0</ele><time>2026-03-29T09:38:41.165Z</time></trkpt><trkpt lat="45.2849664" lon="7.9017389"><ele>255.0</ele><time>2026-03-29T09:38:42.183Z</time></trkpt><trkpt lat="45.2849464" lon="7.9019206"><ele>255.0</ele><time>2026-03-29T09:38:43.176Z</time></trkpt><trkpt lat="45.2849384" lon="7.9020855"><ele>255.0</ele><time>2026-03-29T09:38:44.172Z</time></trkpt><trkpt lat="45.2849371" lon="7.9022549"><ele>255.0</ele><time>2026-03-29T09:38:45.162Z</time></trkpt><trkpt lat="45.2849223" lon="7.9024393"><ele>255.0</ele><time>2026-03-29T09:38:46.17Z</time></trkpt><trkpt lat="45.2849066" lon="7.9026464"><ele>255.0</ele><time>2026-03-29T09:38:47.18Z</time></trkpt><trkpt lat="45.2848905" lon="7.9028596"><ele>255.0</ele><time>2026-03-29T09:38:48.156Z</time></trkpt><trkpt lat="45.2848775" lon="7.903073"><ele>255.0</ele><time>2026-03-29T09:38:49.21Z</time></trkpt><trkpt lat="45.2848599" lon="7.9032857"><ele>255.0</ele><time>2026-03-29T09:38:50.178Z</time></trkpt><trkpt lat="45.2848386" lon="7.9035029"><ele>255.0</ele><time>2026-03-29T09:38:51.165Z</time></trkpt><trkpt lat="45.2848207" lon="7.90372"><ele>255.0</ele><time>2026-03-29T09:38:52.174Z</time></trkpt><trkpt lat="45.2848001" lon="7.9039384"><ele>255.0</ele><time>2026-03-29T09:38:53.172Z</time></trkpt><trkpt lat="45.2847843" lon="7.9041692"><ele>255.0</ele><time>2026-03-29T09:38:54.177Z</time></trkpt><trkpt lat="45.2847774" lon="7.9044086"><ele>255.0</ele><time>2026-03-29T09:38:55.166Z</time></trkpt><trkpt lat="45.2847615" lon="7.9046459"><ele>255.0</ele><time>2026-03-29T09:38:56.178Z</time></trkpt><trkpt lat="45.2847501" lon="7.9048684"><ele>254.66666666666669</ele><time>2026-03-29T09:38:57.183Z</time></trkpt><trkpt lat="45.2847397" lon="7.905096"><ele>254.33333333333334</ele><time>2026-03-29T09:38:58.18Z</time></trkpt><trkpt lat="45.2847374" lon="7.9053195"><ele>254.0</ele><time>2026-03-29T09:38:59.18Z</time></trkpt><trkpt lat="45.2847406" lon="7.9055396"><ele>254.0</ele><time>2026-03-29T09:39:00.162Z</time></trkpt><trkpt lat="45.2847457" lon="7.9057639"><ele>254.0</ele><time>2026-03-29T09:39:01.177Z</time></trkpt><trkpt lat="45.2847536" lon="7.905984"><ele>254.0</ele><time>2026-03-29T09:39:02.169Z</time></trkpt><trkpt lat="45.2847677" lon="7.906207"><ele>254.0</ele><time>2026-03-29T09:39:03.21Z</time></trkpt><trkpt lat="45.2847783" lon="7.9064266"><ele>254.0</ele><time>2026-03-29T09:39:04.161Z</time></trkpt><trkpt lat="45.2847915" lon="7.9066347"><ele>254.0</ele><time>2026-03-29T09:39:05.186Z</time></trkpt><trkpt lat="45.2848031" lon="7.9068312"><ele>254.0</ele><time>2026-03-29T09:39:06.175Z</time></trkpt><trkpt lat="45.2848135" lon="7.9069946"><ele>254.2</ele><time>2026-03-29T09:39:07.172Z</time></trkpt><trkpt lat="45.2848236" lon="7.9071437"><ele>254.39999999999998</ele><time>2026-03-29T09:39:08.17Z</time></trkpt><trkpt lat="45.2848305" lon="7.907274"><ele>254.6</ele><time>2026-03-29T09:39:09.179Z</time></trkpt><trkpt lat="45.2848251" lon="7.9073755"><ele>254.8</ele><time>2026-03-29T09:39:10.178Z</time></trkpt><trkpt lat="45.2847695" lon="7.9075123"><ele>255.0</ele><time>2026-03-29T09:39:12.176Z</time></trkpt><trkpt lat="45.2846545" lon="7.9075631"><ele>254.6</ele><time>2026-03-29T09:39:14.165Z</time></trkpt><trkpt lat="45.2845739" lon="7.9075733"><ele>254.2</ele><time>2026-03-29T09:39:15.181Z</time></trkpt><trkpt lat="45.2844746" lon="7.9075948"><ele>253.8</ele><time>2026-03-29T09:39:16.165Z</time></trkpt><trkpt lat="45.2843671" lon="7.9076194"><ele>253.4</ele><time>2026-03-29T09:39:17.196Z</time></trkpt><trkpt lat="45.284248" lon="7.907646"><ele>253.0</ele><time>2026-03-29T09:39:18.159Z</time></trkpt><trkpt lat="45.2841187" lon="7.9076631"><ele>253.0</ele><time>2026-03-29T09:39:19.167Z</time></trkpt><trkpt lat="45.2839916" lon="7.9076884"><ele>253.0</ele><time>2026-03-29T09:39:20.173Z</time></trkpt><trkpt lat="45.2838829" lon="7.9077095"><ele>253.0</ele><time>2026-03-29T09:39:21.157Z</time></trkpt><trkpt lat="45.2837722" lon="7.9077295"><ele>253.0</ele><time>2026-03-29T09:39:22.192Z</time></trkpt><trkpt lat="45.283669" lon="7.9077456"><ele>252.83333333333331</ele><time>2026-03-29T09:39:23.169Z</time></trkpt><trkpt lat="45.2835798" lon="7.9077671"><ele>252.66666666666666</ele><time>2026-03-29T09:39:24.176Z</time></trkpt><trkpt lat="45.283503" lon="7.9077811"><ele>252.5</ele><time>2026-03-29T09:39:25.176Z</time></trkpt><trkpt lat="45.2834411" lon="7.9078034"><ele>252.33333333333331</ele><time>2026-03-29T09:39:26.18Z</time></trkpt><trkpt lat="45.2833359" lon="7.907895"><ele>252.16666666666666</ele><time>2026-03-29T09:39:28.166Z</time></trkpt><trkpt lat="45.2832831" lon="7.9079828"><ele>252.0</ele><time>2026-03-29T09:39:29.164Z</time></trkpt><trkpt lat="45.283241" lon="7.9080992"><ele>252.0</ele><time>2026-03-29T09:39:30.172Z</time></trkpt><trkpt lat="45.283187" lon="7.9082286"><ele>252.0</ele><time>2026-03-29T09:39:31.169Z</time></trkpt><trkpt lat="45.2831318" lon="7.9083732"><ele>252.0</ele><time>2026-03-29T09:39:32.187Z</time></trkpt><trkpt lat="45.283078" lon="7.9085227"><ele>252.0</ele><time>2026-03-29T09:39:33.174Z</time></trkpt><trkpt lat="45.2830154" lon="7.9086674"><ele>252.0</ele><time>2026-03-29T09:39:34.185Z</time></trkpt><trkpt lat="45.2829427" lon="7.9088315"><ele>252.0</ele><time>2026-03-29T09:39:35.172Z</time></trkpt><trkpt lat="45.2828713" lon="7.9089937"><ele>252.0</ele><time>2026-03-29T09:39:36.174Z</time></trkpt><trkpt lat="45.2828137" lon="7.9091316"><ele>252.0</ele><time>2026-03-29T09:39:37.181Z</time></trkpt><trkpt lat="45.2827464" lon="7.9092587"><ele>252.0</ele><time>2026-03-29T09:39:38.167Z</time></trkpt><trkpt lat="45.2826668" lon="7.9094037"><ele>252.0</ele><time>2026-03-29T09:39:39.162Z</time></trkpt><trkpt lat="45.2825771" lon="7.9095575"><ele>252.0</ele><time>2026-03-29T09:39:40.174Z</time></trkpt><trkpt lat="45.2824813" lon="7.9097152"><ele>252.0</ele><time>2026-03-29T09:39:41.18Z</time></trkpt><trkpt lat="45.2823908" lon="7.9098565"><ele>252.0</ele><time>2026-03-29T09:39:42.189Z</time></trkpt><trkpt lat="45.2822961" lon="7.9099872"><ele>252.0</ele><time>2026-03-29T09:39:43.17Z</time></trkpt><trkpt lat="45.2822142" lon="7.9101052"><ele>252.0</ele><time>2026-03-29T09:39:44.178Z</time></trkpt><trkpt lat="45.2821401" lon="7.9102247"><ele>252.0</ele><time>2026-03-29T09:39:45.167Z</time></trkpt><trkpt lat="45.2820808" lon="7.910339"><ele>252.0</ele><time>2026-03-29T09:39:46.166Z</time></trkpt><trkpt lat="45.2820274" lon="7.9104468"><ele>252.0</ele><time>2026-03-29T09:39:47.157Z</time></trkpt><trkpt lat="45.2819813" lon="7.9105361"><ele>252.0</ele><time>2026-03-29T09:39:48.172Z</time></trkpt><trkpt lat="45.2819432" lon="7.9106105"><ele>252.0</ele><time>2026-03-29T09:39:49.177Z</time></trkpt><trkpt lat="45.2819053" lon="7.9106911"><ele>252.0</ele><time>2026-03-29T09:39:50.18Z</time></trkpt><trkpt lat="45.2818506" lon="7.9107979"><ele>252.0</ele><time>2026-03-29T09:39:52.18Z</time></trkpt><trkpt lat="45.2818093" lon="7.9108766"><ele>252.16666666666666</ele><time>2026-03-29T09:39:54.162Z</time></trkpt><trkpt lat="45.2817697" lon="7.9109504"><ele>252.33333333333331</ele><time>2026-03-29T09:39:56.171Z</time></trkpt><trkpt lat="45.2817227" lon="7.9110552"><ele>252.5</ele><time>2026-03-29T09:39:58.17Z</time></trkpt><trkpt lat="45.2816716" lon="7.911151"><ele>252.66666666666666</ele><time>2026-03-29T09:40:00.191Z</time></trkpt><trkpt lat="45.2816112" lon="7.9112588"><ele>252.83333333333331</ele><time>2026-03-29T09:40:02.171Z</time></trkpt><trkpt lat="45.2815448" lon="7.9113735"><ele>253.0</ele><time>2026-03-29T09:40:04.172Z</time></trkpt><trkpt lat="45.281471" lon="7.9115096"><ele>252.49999999999997</ele><time>2026-03-29T09:40:06.179Z</time></trkpt><trkpt lat="45.2814271" lon="7.9115934"><ele>252.0</ele><time>2026-03-29T09:40:07.167Z</time></trkpt><trkpt lat="45.2813779" lon="7.9116997"><ele>251.5</ele><time>2026-03-29T09:40:08.206Z</time></trkpt><trkpt lat="45.2813247" lon="7.9118007"><ele>251.0</ele><time>2026-03-29T09:40:09.173Z</time></trkpt><trkpt lat="45.2812732" lon="7.9119046"><ele>250.49999999999997</ele><time>2026-03-29T09:40:10.188Z</time></trkpt><trkpt lat="45.2812178" lon="7.9120178"><ele>250.0</ele><time>2026-03-29T09:40:11.173Z</time></trkpt><trkpt lat="45.2811577" lon="7.9121539"><ele>250.0</ele><time>2026-03-29T09:40:12.176Z</time></trkpt><trkpt lat="45.2810885" lon="7.9122981"><ele>250.0</ele><time>2026-03-29T09:40:13.171Z</time></trkpt><trkpt lat="45.2810169" lon="7.9124365"><ele>250.0</ele><time>2026-03-29T09:40:14.169Z</time></trkpt><trkpt lat="45.2809461" lon="7.9125676"><ele>250.0</ele><time>2026-03-29T09:40:15.164Z</time></trkpt><trkpt lat="45.28087" lon="7.9126909"><ele>249.5</ele><time>2026-03-29T09:40:16.179Z</time></trkpt><trkpt lat="45.2807965" lon="7.9128342"><ele>249.0</ele><time>2026-03-29T09:40:17.178Z</time></trkpt><trkpt lat="45.2807195" lon="7.9129726"><ele>248.5</ele><time>2026-03-29T09:40:18.19Z</time></trkpt><trkpt lat="45.2806394" lon="7.9131071"><ele>248.0</ele><time>2026-03-29T09:40:19.178Z</time></trkpt><trkpt lat="45.2805559" lon="7.9132344"><ele>247.75</ele><time>2026-03-29T09:40:20.175Z</time></trkpt><trkpt lat="45.2804628" lon="7.9133613"><ele>247.5</ele><time>2026-03-29T09:40:21.196Z</time></trkpt><trkpt lat="45.2803695" lon="7.9134911"><ele>247.25</ele><time>2026-03-29T09:40:22.172Z</time></trkpt><trkpt lat="45.2802793" lon="7.9136052"><ele>247.0</ele><time>2026-03-29T09:40:23.179Z</time></trkpt><trkpt lat="45.2801949" lon="7.9137188"><ele>246.8</ele><time>2026-03-29T09:40:24.179Z</time></trkpt><trkpt lat="45.2801171" lon="7.9138249"><ele>246.6</ele><time>2026-03-29T09:40:25.167Z</time></trkpt><trkpt lat="45.2800471" lon="7.9139075"><ele>246.40000000000003</ele><time>2026-03-29T09:40:26.179Z</time></trkpt><trkpt lat="45.2799728" lon="7.9139595"><ele>246.20000000000002</ele><time>2026-03-29T09:40:27.17Z</time></trkpt><trkpt lat="45.2798832" lon="7.9139937"><ele>246.0</ele><time>2026-03-29T09:40:28.18Z</time></trkpt><trkpt lat="45.2797722" lon="7.9140139"><ele>245.75</ele><time>2026-03-29T09:40:29.165Z</time></trkpt><trkpt lat="45.2796373" lon="7.9140196"><ele>245.5</ele><time>2026-03-29T09:40:30.18Z</time></trkpt><trkpt lat="45.279504" lon="7.9140215"><ele>245.25</ele><time>2026-03-29T09:40:31.179Z</time></trkpt><trkpt lat="45.2793815" lon="7.9140263"><ele>245.0</ele><time>2026-03-29T09:40:32.161Z</time></trkpt><trkpt lat="45.2792711" lon="7.9140239"><ele>245.0</ele><time>2026-03-29T09:40:33.181Z</time></trkpt><trkpt lat="45.2791862" lon="7.9140239"><ele>245.0</ele><time>2026-03-29T09:40:34.179Z</time></trkpt><trkpt lat="45.2791214" lon="7.9140165"><ele>245.0</ele><time>2026-03-29T09:40:35.181Z</time></trkpt><trkpt lat="45.2790131" lon="7.9140886"><ele>245.0</ele><time>2026-03-29T09:40:37.182Z</time></trkpt><trkpt lat="45.278982" lon="7.9141944"><ele>245.0</ele><time>2026-03-29T09:40:38.171Z</time></trkpt><trkpt lat="45.2789636" lon="7.9143393"><ele>245.0</ele><time>2026-03-29T09:40:39.164Z</time></trkpt><trkpt lat="45.2789329" lon="7.9145361"><ele>245.0</ele><time>2026-03-29T09:40:40.205Z</time></trkpt><trkpt lat="45.2789032" lon="7.9147537"><ele>245.0</ele><time>2026-03-29T09:40:41.175Z</time></trkpt><trkpt lat="45.278879" lon="7.9149366"><ele>245.0</ele><time>2026-03-29T09:40:42.159Z</time></trkpt><trkpt lat="45.2788558" lon="7.9150985"><ele>245.0</ele><time>2026-03-29T09:40:43.171Z</time></trkpt><trkpt lat="45.2788313" lon="7.9152545"><ele>245.0</ele><time>2026-03-29T09:40:44.183Z</time></trkpt><trkpt lat="45.2788075" lon="7.915411"><ele>245.0</ele><time>2026-03-29T09:40:45.174Z</time></trkpt><trkpt lat="45.2787782" lon="7.915553"><ele>245.0</ele><time>2026-03-29T09:40:46.18Z</time></trkpt><trkpt lat="45.2787568" lon="7.9156727"><ele>245.0</ele><time>2026-03-29T09:40:47.189Z</time></trkpt><trkpt lat="45.2787421" lon="7.9157686"><ele>245.2</ele><time>2026-03-29T09:40:48.172Z</time></trkpt><trkpt lat="45.2787223" lon="7.9159328"><ele>245.4</ele><time>2026-03-29T09:40:50.163Z</time></trkpt><trkpt lat="45.278701" lon="7.9160878"><ele>245.60000000000002</ele><time>2026-03-29T09:40:52.171Z</time></trkpt><trkpt lat="45.278681" lon="7.9162581"><ele>245.8</ele><time>2026-03-29T09:40:54.177Z</time></trkpt><trkpt lat="45.2786741" lon="7.9163644"><ele>246.0</ele><time>2026-03-29T09:40:55.173Z</time></trkpt><trkpt lat="45.2786664" lon="7.9164798"><ele>246.0</ele><time>2026-03-29T09:40:56.163Z</time></trkpt><trkpt lat="45.2786513" lon="7.9165918"><ele>246.0</ele><time>2026-03-29T09:40:57.166Z</time></trkpt><trkpt lat="45.2786324" lon="7.9167014"><ele>246.0</ele><time>2026-03-29T09:40:58.178Z</time></trkpt><trkpt lat="45.2786077" lon="7.9168201"><ele>246.0</ele><time>2026-03-29T09:40:59.173Z</time></trkpt><trkpt lat="45.2785894" lon="7.9169189"><ele>246.0</ele><time>2026-03-29T09:41:00.178Z</time></trkpt><trkpt lat="45.278575" lon="7.917014"><ele>246.0</ele><time>2026-03-29T09:41:01.171Z</time></trkpt><trkpt lat="45.278543" lon="7.9171418"><ele>246.0</ele><time>2026-03-29T09:41:03.175Z</time></trkpt><trkpt lat="45.2784791" lon="7.9172298"><ele>246.00000000000003</ele><time>2026-03-29T09:41:05.166Z</time></trkpt><trkpt lat="45.278341" lon="7.9172369"><ele>246.00000000000003</ele><time>2026-03-29T09:41:07.177Z</time></trkpt><trkpt lat="45.2782555" lon="7.9172539"><ele>246.0</ele><time>2026-03-29T09:41:08.17Z</time></trkpt><trkpt lat="45.2781725" lon="7.9172599"><ele>246.0</ele><time>2026-03-29T09:41:09.184Z</time></trkpt><trkpt lat="45.2780946" lon="7.9172801"><ele>245.4</ele><time>2026-03-29T09:41:10.189Z</time></trkpt><trkpt lat="45.2780102" lon="7.9172911"><ele>244.8</ele><time>2026-03-29T09:41:11.176Z</time></trkpt><trkpt lat="45.2779233" lon="7.917307"><ele>244.20000000000002</ele><time>2026-03-29T09:41:12.161Z</time></trkpt><trkpt lat="45.2778306" lon="7.9173156"><ele>243.60000000000002</ele><time>2026-03-29T09:41:13.177Z</time></trkpt><trkpt lat="45.2777365" lon="7.9173255"><ele>243.0</ele><time>2026-03-29T09:41:14.182Z</time></trkpt><trkpt lat="45.2776414" lon="7.9173394"><ele>243.0</ele><time>2026-03-29T09:41:15.169Z</time></trkpt><trkpt lat="45.2775546" lon="7.9173517"><ele>243.0</ele><time>2026-03-29T09:41:16.177Z</time></trkpt><trkpt lat="45.2774755" lon="7.9173676"><ele>243.0</ele><time>2026-03-29T09:41:17.175Z</time></trkpt><trkpt lat="45.2774083" lon="7.9173819"><ele>243.0</ele><time>2026-03-29T09:41:18.197Z</time></trkpt><trkpt lat="45.2772948" lon="7.917405"><ele>243.0</ele><time>2026-03-29T09:41:20.175Z</time></trkpt><trkpt lat="45.2772312" lon="7.9174887"><ele>243.0</ele><time>2026-03-29T09:41:22.17Z</time></trkpt><trkpt lat="45.277208" lon="7.9176738"><ele>242.8</ele><time>2026-03-29T09:41:24.168Z</time></trkpt><trkpt lat="45.2772218" lon="7.9178118"><ele>242.60000000000002</ele><time>2026-03-29T09:41:25.186Z</time></trkpt><trkpt lat="45.2772379" lon="7.9179596"><ele>242.39999999999998</ele><time>2026-03-29T09:41:26.175Z</time></trkpt><trkpt lat="45.2772606" lon="7.9181082"><ele>242.2</ele><time>2026-03-29T09:41:27.169Z</time></trkpt><trkpt lat="45.2772746" lon="7.9182631"><ele>242.0</ele><time>2026-03-29T09:41:28.18Z</time></trkpt><trkpt lat="45.2772874" lon="7.9184213"><ele>242.0</ele><time>2026-03-29T09:41:29.166Z</time></trkpt><trkpt lat="45.2772993" lon="7.9185872"><ele>242.0</ele><time>2026-03-29T09:41:30.168Z</time></trkpt><trkpt lat="45.2773244" lon="7.9187722"><ele>242.0</ele><time>2026-03-29T09:41:31.175Z</time></trkpt><trkpt lat="45.277343" lon="7.9189558"><ele>242.0</ele><time>2026-03-29T09:41:32.177Z</time></trkpt><trkpt lat="45.2773637" lon="7.9191476"><ele>242.0</ele><time>2026-03-29T09:41:33.175Z</time></trkpt><trkpt lat="45.2773794" lon="7.9193758"><ele>242.0</ele><time>2026-03-29T09:41:34.195Z</time></trkpt><trkpt lat="45.2773952" lon="7.9196158"><ele>242.0</ele><time>2026-03-29T09:41:35.181Z</time></trkpt><trkpt lat="45.2774172" lon="7.9198481"><ele>241.33333333333334</ele><time>2026-03-29T09:41:36.2Z</time></trkpt><trkpt lat="45.2774354" lon="7.9200899"><ele>240.66666666666669</ele><time>2026-03-29T09:41:37.175Z</time></trkpt><trkpt lat="45.2774618" lon="7.9203263"><ele>240.0</ele><time>2026-03-29T09:41:38.167Z</time></trkpt><trkpt lat="45.277486" lon="7.9205489"><ele>240.0</ele><time>2026-03-29T09:41:39.184Z</time></trkpt><trkpt lat="45.2775124" lon="7.9207415"><ele>240.0</ele><time>2026-03-29T09:41:40.177Z</time></trkpt><trkpt lat="45.277528" lon="7.9209156"><ele>240.0</ele><time>2026-03-29T09:41:41.188Z</time></trkpt><trkpt lat="45.2775449" lon="7.9210594"><ele>240.0</ele><time>2026-03-29T09:41:42.171Z</time></trkpt><trkpt lat="45.2775635" lon="7.9211779"><ele>239.83333333333334</ele><time>2026-03-29T09:41:43.18Z</time></trkpt><trkpt lat="45.2775795" lon="7.9212692"><ele>239.66666666666669</ele><time>2026-03-29T09:41:44.193Z</time></trkpt><trkpt lat="45.2776073" lon="7.9213999"><ele>239.5</ele><time>2026-03-29T09:41:46.184Z</time></trkpt><trkpt lat="45.2776432" lon="7.921497"><ele>239.33333333333334</ele><time>2026-03-29T09:41:48.168Z</time></trkpt><trkpt lat="45.2777099" lon="7.9215307"><ele>239.16666666666669</ele><time>2026-03-29T09:41:50.18Z</time></trkpt><trkpt lat="45.2777754" lon="7.9215204"><ele>239.0</ele><time>2026-03-29T09:41:51.178Z</time></trkpt><trkpt lat="45.2778801" lon="7.9214847"><ele>239.00000000000003</ele><time>2026-03-29T09:41:52.17Z</time></trkpt><trkpt lat="45.2779898" lon="7.9214539"><ele>239.0</ele><time>2026-03-29T09:41:53.171Z</time></trkpt><trkpt lat="45.2780747" lon="7.9214276"><ele>239.0</ele><time>2026-03-29T09:41:54.167Z</time></trkpt><trkpt lat="45.2781416" lon="7.9214244"><ele>239.0</ele><time>2026-03-29T09:41:55.169Z</time></trkpt><trkpt lat="45.2782483" lon="7.9214683"><ele>239.00000000000003</ele><time>2026-03-29T09:41:57.174Z</time></trkpt><trkpt lat="45.2782992" lon="7.9215367"><ele>239.0</ele><time>2026-03-29T09:41:58.195Z</time></trkpt><trkpt lat="45.2783374" lon="7.9216373"><ele>239.75</ele><time>2026-03-29T09:41:59.185Z</time></trkpt><trkpt lat="45.2783461" lon="7.9217777"><ele>240.5</ele><time>2026-03-29T09:42:00.169Z</time></trkpt><trkpt lat="45.2783599" lon="7.9219721"><ele>241.25</ele><time>2026-03-29T09:42:01.177Z</time></trkpt><trkpt lat="45.278369" lon="7.9222118"><ele>242.0</ele><time>2026-03-29T09:42:02.175Z</time></trkpt><trkpt lat="45.2783816" lon="7.9224538"><ele>241.75</ele><time>2026-03-29T09:42:03.185Z</time></trkpt><trkpt lat="45.2783949" lon="7.922685"><ele>241.5</ele><time>2026-03-29T09:42:04.168Z</time></trkpt><trkpt lat="45.2784097" lon="7.9228955"><ele>241.25</ele><time>2026-03-29T09:42:05.169Z</time></trkpt><trkpt lat="45.2784132" lon="7.923049"><ele>241.0</ele><time>2026-03-29T09:42:06.179Z</time></trkpt><trkpt lat="45.2784276" lon="7.9231635"><ele>241.0</ele><time>2026-03-29T09:42:07.179Z</time></trkpt><trkpt lat="45.2784363" lon="7.923259"><ele>241.00000000000003</ele><time>2026-03-29T09:42:08.175Z</time></trkpt><trkpt lat="45.2785096" lon="7.9233775"><ele>241.00000000000003</ele><time>2026-03-29T09:42:10.176Z</time></trkpt><trkpt lat="45.2785738" lon="7.9233719"><ele>241.0</ele><time>2026-03-29T09:42:11.166Z</time></trkpt><trkpt lat="45.2786728" lon="7.9233475"><ele>241.0</ele><time>2026-03-29T09:42:12.178Z</time></trkpt><trkpt lat="45.2787924" lon="7.923327"><ele>241.0</ele><time>2026-03-29T09:42:13.162Z</time></trkpt><trkpt lat="45.2789327" lon="7.9232965"><ele>241.0</ele><time>2026-03-29T09:42:14.187Z</time></trkpt><trkpt lat="45.2790728" lon="7.9232727"><ele>241.0</ele><time>2026-03-29T09:42:15.194Z</time></trkpt><trkpt lat="45.2792168" lon="7.9232529"><ele>241.0</ele><time>2026-03-29T09:42:16.165Z</time></trkpt><trkpt lat="45.279355" lon="7.923238"><ele>241.25</ele><time>2026-03-29T09:42:17.172Z</time></trkpt><trkpt lat="45.2794921" lon="7.9232174"><ele>241.5</ele><time>2026-03-29T09:42:18.168Z</time></trkpt><trkpt lat="45.2796195" lon="7.9231944"><ele>241.75</ele><time>2026-03-29T09:42:19.177Z</time></trkpt><trkpt lat="45.2797404" lon="7.9231752"><ele>242.0</ele><time>2026-03-29T09:42:20.174Z</time></trkpt><trkpt lat="45.2798658" lon="7.9231552"><ele>242.5</ele><time>2026-03-29T09:42:21.168Z</time></trkpt><trkpt lat="45.2800002" lon="7.9231289"><ele>243.0</ele><time>2026-03-29T09:42:22.189Z</time></trkpt><trkpt lat="45.2801347" lon="7.9231055"><ele>243.5</ele><time>2026-03-29T09:42:23.172Z</time></trkpt><trkpt lat="45.280278" lon="7.923079"><ele>244.0</ele><time>2026-03-29T09:42:24.182Z</time></trkpt><trkpt lat="45.2804205" lon="7.9230614"><ele>244.0</ele><time>2026-03-29T09:42:25.197Z</time></trkpt><trkpt lat="45.2805516" lon="7.9230567"><ele>244.0</ele><time>2026-03-29T09:42:26.172Z</time></trkpt><trkpt lat="45.2806755" lon="7.9230469"><ele>244.0</ele><time>2026-03-29T09:42:27.19Z</time></trkpt><trkpt lat="45.280796" lon="7.9230418"><ele>244.0</ele><time>2026-03-29T09:42:28.17Z</time></trkpt><trkpt lat="45.2809154" lon="7.9230445"><ele>244.0</ele><time>2026-03-29T09:42:29.175Z</time></trkpt><trkpt lat="45.2810479" lon="7.9230483"><ele>244.0</ele><time>2026-03-29T09:42:30.161Z</time></trkpt><trkpt lat="45.2811769" lon="7.9230586"><ele>244.0</ele><time>2026-03-29T09:42:31.178Z</time></trkpt><trkpt lat="45.2813032" lon="7.9230778"><ele>244.0</ele><time>2026-03-29T09:42:32.168Z</time></trkpt><trkpt lat="45.2814282" lon="7.9231012"><ele>244.0</ele><time>2026-03-29T09:42:33.18Z</time></trkpt><trkpt lat="45.2815479" lon="7.9231366"><ele>244.0</ele><time>2026-03-29T09:42:34.167Z</time></trkpt><trkpt lat="45.2816688" lon="7.9231915"><ele>244.0</ele><time>2026-03-29T09:42:35.179Z</time></trkpt><trkpt lat="45.2817798" lon="7.923248"><ele>244.0</ele><time>2026-03-29T09:42:36.176Z</time></trkpt><trkpt lat="45.2818772" lon="7.9233111"><ele>244.0</ele><time>2026-03-29T09:42:37.178Z</time></trkpt><trkpt lat="45.2819692" lon="7.9233809"><ele>244.0</ele><time>2026-03-29T09:42:38.173Z</time></trkpt><trkpt lat="45.2820681" lon="7.9234742"><ele>244.0</ele><time>2026-03-29T09:42:39.177Z</time></trkpt><trkpt lat="45.2821714" lon="7.9236033"><ele>244.0</ele><time>2026-03-29T09:42:40.176Z</time></trkpt><trkpt lat="45.2822836" lon="7.923737"><ele>244.5</ele><time>2026-03-29T09:42:41.171Z</time></trkpt><trkpt lat="45.2823942" lon="7.9238743"><ele>245.0</ele><time>2026-03-29T09:42:42.173Z</time></trkpt><trkpt lat="45.2825014" lon="7.9239937"><ele>245.5</ele><time>2026-03-29T09:42:43.164Z</time></trkpt><trkpt lat="45.2826023" lon="7.9241136"><ele>246.0</ele><time>2026-03-29T09:42:44.179Z</time></trkpt><trkpt lat="45.2827026" lon="7.9242118"><ele>245.75</ele><time>2026-03-29T09:42:45.174Z</time></trkpt><trkpt lat="45.2828015" lon="7.9242999"><ele>245.5</ele><time>2026-03-29T09:42:46.18Z</time></trkpt><trkpt lat="45.2829108" lon="7.924367"><ele>245.25</ele><time>2026-03-29T09:42:47.156Z</time></trkpt><trkpt lat="45.2830402" lon="7.9244177"><ele>245.0</ele><time>2026-03-29T09:42:48.179Z</time></trkpt><trkpt lat="45.2831795" lon="7.9244741"><ele>245.0</ele><time>2026-03-29T09:42:49.18Z</time></trkpt><trkpt lat="45.2833172" lon="7.9245155"><ele>245.0</ele><time>2026-03-29T09:42:50.188Z</time></trkpt><trkpt lat="45.2834507" lon="7.9245614"><ele>245.0</ele><time>2026-03-29T09:42:51.176Z</time></trkpt><trkpt lat="45.2835832" lon="7.9245938"><ele>245.0</ele><time>2026-03-29T09:42:52.172Z</time></trkpt><trkpt lat="45.2837288" lon="7.9246142"><ele>245.0</ele><time>2026-03-29T09:42:53.18Z</time></trkpt><trkpt lat="45.2838799" lon="7.9246259"><ele>245.0</ele><time>2026-03-29T09:42:54.189Z</time></trkpt><trkpt lat="45.2840296" lon="7.9246383"><ele>245.0</ele><time>2026-03-29T09:42:55.177Z</time></trkpt><trkpt lat="45.2841754" lon="7.9246487"><ele>245.0</ele><time>2026-03-29T09:42:56.175Z</time></trkpt><trkpt lat="45.2843195" lon="7.9246534"><ele>245.66666666666669</ele><time>2026-03-29T09:42:57.171Z</time></trkpt><trkpt lat="45.28447" lon="7.9246735"><ele>246.33333333333331</ele><time>2026-03-29T09:42:58.177Z</time></trkpt><trkpt lat="45.2846177" lon="7.9246937"><ele>247.0</ele><time>2026-03-29T09:42:59.173Z</time></trkpt><trkpt lat="45.2847692" lon="7.9247248"><ele>247.66666666666666</ele><time>2026-03-29T09:43:00.17Z</time></trkpt><trkpt lat="45.2849308" lon="7.9247623"><ele>248.33333333333331</ele><time>2026-03-29T09:43:01.172Z</time></trkpt><trkpt lat="45.2850814" lon="7.9247999"><ele>249.0</ele><time>2026-03-29T09:43:02.171Z</time></trkpt><trkpt lat="45.2852208" lon="7.9248327"><ele>249.0</ele><time>2026-03-29T09:43:03.173Z</time></trkpt><trkpt lat="45.2853447" lon="7.9248605"><ele>249.0</ele><time>2026-03-29T09:43:04.166Z</time></trkpt><trkpt lat="45.285466" lon="7.9248739"><ele>249.0</ele><time>2026-03-29T09:43:05.173Z</time></trkpt><trkpt lat="45.2855864" lon="7.9248665"><ele>249.0</ele><time>2026-03-29T09:43:06.183Z</time></trkpt><trkpt lat="45.285709" lon="7.9248474"><ele>248.75</ele><time>2026-03-29T09:43:07.182Z</time></trkpt><trkpt lat="45.2858284" lon="7.9248203"><ele>248.5</ele><time>2026-03-29T09:43:08.191Z</time></trkpt><trkpt lat="45.2859444" lon="7.924784"><ele>248.25</ele><time>2026-03-29T09:43:09.2Z</time></trkpt><trkpt lat="45.2860595" lon="7.9247488"><ele>248.0</ele><time>2026-03-29T09:43:10.182Z</time></trkpt><trkpt lat="45.2861724" lon="7.9247122"><ele>248.0</ele><time>2026-03-29T09:43:11.182Z</time></trkpt><trkpt lat="45.2862712" lon="7.9246836"><ele>248.0</ele><time>2026-03-29T09:43:12.182Z</time></trkpt><trkpt lat="45.2863406" lon="7.9246847"><ele>248.0</ele><time>2026-03-29T09:43:13.172Z</time></trkpt><trkpt lat="45.2864276" lon="7.9247158"><ele>248.0</ele><time>2026-03-29T09:43:15.175Z</time></trkpt><trkpt lat="45.2864651" lon="7.9248502"><ele>248.0</ele><time>2026-03-29T09:43:17.199Z</time></trkpt><trkpt lat="45.2865145" lon="7.925018"><ele>248.16666666666669</ele><time>2026-03-29T09:43:19.173Z</time></trkpt><trkpt lat="45.286536" lon="7.9251246"><ele>248.33333333333334</ele><time>2026-03-29T09:43:20.19Z</time></trkpt><trkpt lat="45.2865641" lon="7.9252374"><ele>248.5</ele><time>2026-03-29T09:43:21.181Z</time></trkpt><trkpt lat="45.2865958" lon="7.9253663"><ele>248.66666666666669</ele><time>2026-03-29T09:43:22.152Z</time></trkpt><trkpt lat="45.2866328" lon="7.9254888"><ele>248.83333333333334</ele><time>2026-03-29T09:43:23.166Z</time></trkpt><trkpt lat="45.2866672" lon="7.9255959"><ele>249.0</ele><time>2026-03-29T09:43:24.177Z</time></trkpt><trkpt lat="45.2866915" lon="7.9256822"><ele>249.0</ele><time>2026-03-29T09:43:25.178Z</time></trkpt><trkpt lat="45.2867397" lon="7.9258529"><ele>249.0</ele><time>2026-03-29T09:43:27.153Z</time></trkpt><trkpt lat="45.2867654" lon="7.9259437"><ele>249.0</ele><time>2026-03-29T09:43:28.17Z</time></trkpt><trkpt lat="45.2867907" lon="7.9260393"><ele>249.0</ele><time>2026-03-29T09:43:29.174Z</time></trkpt><trkpt lat="45.2868129" lon="7.9261352"><ele>249.0</ele><time>2026-03-29T09:43:30.172Z</time></trkpt><trkpt lat="45.286841" lon="7.9262306"><ele>249.0</ele><time>2026-03-29T09:43:31.183Z</time></trkpt><trkpt lat="45.2868694" lon="7.926325"><ele>249.0</ele><time>2026-03-29T09:43:32.181Z</time></trkpt><trkpt lat="45.2868972" lon="7.9264184"><ele>249.0</ele><time>2026-03-29T09:43:33.172Z</time></trkpt><trkpt lat="45.2869192" lon="7.9265202"><ele>249.0</ele><time>2026-03-29T09:43:34.176Z</time></trkpt><trkpt lat="45.2869446" lon="7.9266251"><ele>249.0</ele><time>2026-03-29T09:43:35.169Z</time></trkpt><trkpt lat="45.2869695" lon="7.9267371"><ele>249.0</ele><time>2026-03-29T09:43:36.193Z</time></trkpt><trkpt lat="45.2869946" lon="7.9268614"><ele>249.0</ele><time>2026-03-29T09:43:37.167Z</time></trkpt><trkpt lat="45.2870195" lon="7.9269957"><ele>248.79999999999998</ele><time>2026-03-29T09:43:38.169Z</time></trkpt><trkpt lat="45.287051" lon="7.9271355"><ele>248.59999999999997</ele><time>2026-03-29T09:43:39.175Z</time></trkpt><trkpt lat="45.2870817" lon="7.9272851"><ele>248.4</ele><time>2026-03-29T09:43:40.175Z</time></trkpt><trkpt lat="45.2871179" lon="7.9274284"><ele>248.2</ele><time>2026-03-29T09:43:41.184Z</time></trkpt><trkpt lat="45.2871485" lon="7.9275614"><ele>248.0</ele><time>2026-03-29T09:43:42.167Z</time></trkpt><trkpt lat="45.2871913" lon="7.9277209"><ele>248.0</ele><time>2026-03-29T09:43:43.203Z</time></trkpt><trkpt lat="45.2872324" lon="7.9278963"><ele>248.0</ele><time>2026-03-29T09:43:44.175Z</time></trkpt><trkpt lat="45.2872767" lon="7.9280804"><ele>248.0</ele><time>2026-03-29T09:43:45.169Z</time></trkpt><trkpt lat="45.2873216" lon="7.9282648"><ele>248.0</ele><time>2026-03-29T09:43:46.165Z</time></trkpt><trkpt lat="45.2873687" lon="7.9284616"><ele>248.0</ele><time>2026-03-29T09:43:47.165Z</time></trkpt><trkpt lat="45.2874129" lon="7.9286642"><ele>248.0</ele><time>2026-03-29T09:43:48.173Z</time></trkpt><trkpt lat="45.2874579" lon="7.9288626"><ele>248.0</ele><time>2026-03-29T09:43:49.175Z</time></trkpt><trkpt lat="45.2875004" lon="7.9290531"><ele>248.0</ele><time>2026-03-29T09:43:50.16Z</time></trkpt><trkpt lat="45.2875416" lon="7.9292298"><ele>248.2</ele><time>2026-03-29T09:43:51.192Z</time></trkpt><trkpt lat="45.2875792" lon="7.9293875"><ele>248.4</ele><time>2026-03-29T09:43:52.179Z</time></trkpt><trkpt lat="45.2876087" lon="7.9295283"><ele>248.59999999999997</ele><time>2026-03-29T09:43:53.174Z</time></trkpt><trkpt lat="45.2876339" lon="7.9296468"><ele>248.79999999999998</ele><time>2026-03-29T09:43:54.203Z</time></trkpt><trkpt lat="45.2876257" lon="7.9297873"><ele>249.0</ele><time>2026-03-29T09:43:56.159Z</time></trkpt><trkpt lat="45.2875565" lon="7.9298696"><ele>249.0</ele><time>2026-03-29T09:43:58.162Z</time></trkpt><trkpt lat="45.2874779" lon="7.9299257"><ele>248.99999999999997</ele><time>2026-03-29T09:43:59.177Z</time></trkpt><trkpt lat="45.2874015" lon="7.9299849"><ele>248.99999999999997</ele><time>2026-03-29T09:44:00.171Z</time></trkpt><trkpt lat="45.2873491" lon="7.9301402"><ele>249.0</ele><time>2026-03-29T09:44:02.187Z</time></trkpt><trkpt lat="45.2873569" lon="7.9302741"><ele>249.0</ele><time>2026-03-29T09:44:03.17Z</time></trkpt><trkpt lat="45.2873707" lon="7.9304472"><ele>249.0</ele><time>2026-03-29T09:44:04.161Z</time></trkpt><trkpt lat="45.2873767" lon="7.9306475"><ele>249.0</ele><time>2026-03-29T09:44:05.17Z</time></trkpt><trkpt lat="45.2873814" lon="7.9308663"><ele>249.0</ele><time>2026-03-29T09:44:06.164Z</time></trkpt><trkpt lat="45.2873844" lon="7.9311018"><ele>249.0</ele><time>2026-03-29T09:44:07.164Z</time></trkpt><trkpt lat="45.2873891" lon="7.9313268"><ele>249.0</ele><time>2026-03-29T09:44:08.159Z</time></trkpt><trkpt lat="45.2873962" lon="7.9315417"><ele>249.0</ele><time>2026-03-29T09:44:09.16Z</time></trkpt><trkpt lat="45.2874032" lon="7.9317578"><ele>249.25</ele><time>2026-03-29T09:44:10.157Z</time></trkpt><trkpt lat="45.2874073" lon="7.9319713"><ele>249.5</ele><time>2026-03-29T09:44:11.162Z</time></trkpt><trkpt lat="45.2874012" lon="7.9321616"><ele>249.75</ele><time>2026-03-29T09:44:12.17Z</time></trkpt><trkpt lat="45.2874056" lon="7.9323411"><ele>250.0</ele><time>2026-03-29T09:44:13.199Z</time></trkpt><trkpt lat="45.2874104" lon="7.932541"><ele>250.0</ele><time>2026-03-29T09:44:14.167Z</time></trkpt><trkpt lat="45.287414" lon="7.9327538"><ele>250.0</ele><time>2026-03-29T09:44:15.172Z</time></trkpt><trkpt lat="45.2874144" lon="7.9329609"><ele>250.0</ele><time>2026-03-29T09:44:16.165Z</time></trkpt><trkpt lat="45.2874118" lon="7.9331563"><ele>250.0</ele><time>2026-03-29T09:44:17.175Z</time></trkpt><trkpt lat="45.2874108" lon="7.933347"><ele>250.0</ele><time>2026-03-29T09:44:18.181Z</time></trkpt><trkpt lat="45.2874159" lon="7.933546"><ele>250.0</ele><time>2026-03-29T09:44:19.17Z</time></trkpt><trkpt lat="45.2874189" lon="7.9337514"><ele>250.0</ele><time>2026-03-29T09:44:20.167Z</time></trkpt><trkpt lat="45.2874206" lon="7.9339609"><ele>250.0</ele><time>2026-03-29T09:44:21.172Z</time></trkpt><trkpt lat="45.2874244" lon="7.9341656"><ele>250.0</ele><time>2026-03-29T09:44:22.163Z</time></trkpt><trkpt lat="45.2874272" lon="7.9343709"><ele>250.0</ele><time>2026-03-29T09:44:23.198Z</time></trkpt><trkpt lat="45.2874329" lon="7.9345864"><ele>250.0</ele><time>2026-03-29T09:44:24.175Z</time></trkpt><trkpt lat="45.2874321" lon="7.9347907"><ele>250.0</ele><time>2026-03-29T09:44:25.166Z</time></trkpt><trkpt lat="45.2874393" lon="7.9349854"><ele>250.0</ele><time>2026-03-29T09:44:26.181Z</time></trkpt><trkpt lat="45.2874399" lon="7.9351634"><ele>250.0</ele><time>2026-03-29T09:44:27.188Z</time></trkpt><trkpt lat="45.2874457" lon="7.9353582"><ele>250.0</ele><time>2026-03-29T09:44:28.158Z</time></trkpt><trkpt lat="45.2874544" lon="7.9355512"><ele>250.0</ele><time>2026-03-29T09:44:29.166Z</time></trkpt><trkpt lat="45.2874603" lon="7.9357394"><ele>249.8</ele><time>2026-03-29T09:44:30.167Z</time></trkpt><trkpt lat="45.2874579" lon="7.9359158"><ele>249.6</ele><time>2026-03-29T09:44:31.155Z</time></trkpt><trkpt lat="45.2874512" lon="7.936074"><ele>249.39999999999998</ele><time>2026-03-29T09:44:32.171Z</time></trkpt><trkpt lat="45.2874494" lon="7.9362269"><ele>249.2</ele><time>2026-03-29T09:44:33.161Z</time></trkpt><trkpt lat="45.287457" lon="7.9363665"><ele>249.0</ele><time>2026-03-29T09:44:34.166Z</time></trkpt><trkpt lat="45.2874611" lon="7.9364925"><ele>249.0</ele><time>2026-03-29T09:44:35.187Z</time></trkpt><trkpt lat="45.2874693" lon="7.9366028"><ele>249.0</ele><time>2026-03-29T09:44:36.169Z</time></trkpt><trkpt lat="45.2874768" lon="7.9367055"><ele>249.0</ele><time>2026-03-29T09:44:37.181Z</time></trkpt><trkpt lat="45.2874923" lon="7.9368037"><ele>249.0</ele><time>2026-03-29T09:44:38.162Z</time></trkpt><trkpt lat="45.287523" lon="7.9368991"><ele>249.0</ele><time>2026-03-29T09:44:39.204Z</time></trkpt><trkpt lat="45.2875562" lon="7.937015"><ele>249.0</ele><time>2026-03-29T09:44:40.182Z</time></trkpt><trkpt lat="45.287585" lon="7.9371191"><ele>249.39999999999998</ele><time>2026-03-29T09:44:41.169Z</time></trkpt><trkpt lat="45.287595" lon="7.9372205"><ele>249.79999999999998</ele><time>2026-03-29T09:44:42.166Z</time></trkpt><trkpt lat="45.2875766" lon="7.9373668"><ele>250.20000000000002</ele><time>2026-03-29T09:44:44.166Z</time></trkpt><trkpt lat="45.287531" lon="7.9375169"><ele>250.60000000000002</ele><time>2026-03-29T09:44:46.156Z</time></trkpt><trkpt lat="45.2875025" lon="7.9376654"><ele>251.0</ele><time>2026-03-29T09:44:48.166Z</time></trkpt><trkpt lat="45.2874687" lon="7.9377453"><ele>251.16666666666669</ele><time>2026-03-29T09:45:16.165Z</time></trkpt><trkpt lat="45.2875299" lon="7.9377971"><ele>251.33333333333334</ele><time>2026-03-29T09:45:18.168Z</time></trkpt><trkpt lat="45.2875955" lon="7.9378392"><ele>251.5</ele><time>2026-03-29T09:45:19.17Z</time></trkpt><trkpt lat="45.2876717" lon="7.9378698"><ele>251.66666666666669</ele><time>2026-03-29T09:45:20.186Z</time></trkpt><trkpt lat="45.2877496" lon="7.9379002"><ele>251.83333333333334</ele><time>2026-03-29T09:45:21.157Z</time></trkpt><trkpt lat="45.2878455" lon="7.937947"><ele>252.0</ele><time>2026-03-29T09:45:22.184Z</time></trkpt><trkpt lat="45.2879367" lon="7.9380083"><ele>252.0</ele><time>2026-03-29T09:45:23.18Z</time></trkpt><trkpt lat="45.2880224" lon="7.938085"><ele>252.0</ele><time>2026-03-29T09:45:24.183Z</time></trkpt><trkpt lat="45.2881101" lon="7.93815"><ele>252.0</ele><time>2026-03-29T09:45:25.169Z</time></trkpt><trkpt lat="45.2881824" lon="7.938215"><ele>252.0</ele><time>2026-03-29T09:45:26.19Z</time></trkpt><trkpt lat="45.2882467" lon="7.938253"><ele>252.0</ele><time>2026-03-29T09:45:27.157Z</time></trkpt><trkpt lat="45.288327" lon="7.9383095"><ele>252.0</ele><time>2026-03-29T09:45:29.16Z</time></trkpt><trkpt lat="45.2883999" lon="7.9383347"><ele>253.0</ele><time>2026-03-29T09:45:31.202Z</time></trkpt><trkpt lat="45.2884735" lon="7.9383156"><ele>253.0</ele><time>2026-03-29T09:45:33.161Z</time></trkpt><trkpt lat="45.2885471" lon="7.9382937"><ele>253.0</ele><time>2026-03-29T09:45:35.172Z</time></trkpt><trkpt lat="45.288639" lon="7.9383471"><ele>253.0</ele><time>2026-03-29T09:45:38.181Z</time></trkpt></trkseg><trkseg><trkpt lat="45.3003939" lon="7.9491246"><ele>222.5</ele><time>2026-03-29T09:56:31.138Z</time></trkpt><trkpt lat="45.3005128" lon="7.9497173"><ele>221.0</ele><time>2026-03-29T09:56:34.149Z</time></trkpt><trkpt lat="45.3005606" lon="7.9499327"><ele>219.33333333333334</ele><time>2026-03-29T09:56:35.158Z</time></trkpt><trkpt lat="45.3006087" lon="7.9501603"><ele>217.66666666666669</ele><time>2026-03-29T09:56:36.168Z</time></trkpt><trkpt lat="45.3006595" lon="7.9504049"><ele>216.0</ele><time>2026-03-29T09:56:37.154Z</time></trkpt><trkpt lat="45.30071" lon="7.9506554"><ele>216.33333333333331</ele><time>2026-03-29T09:56:38.175Z</time></trkpt><trkpt lat="45.3007482" lon="7.9508962"><ele>216.66666666666666</ele><time>2026-03-29T09:56:39.152Z</time></trkpt><trkpt lat="45.3007791" lon="7.951146"><ele>217.0</ele><time>2026-03-29T09:56:40.151Z</time></trkpt><trkpt lat="45.3007887" lon="7.9514052"><ele>217.0</ele><time>2026-03-29T09:56:41.182Z</time></trkpt><trkpt lat="45.3007853" lon="7.9516737"><ele>217.0</ele><time>2026-03-29T09:56:42.165Z</time></trkpt><trkpt lat="45.3007682" lon="7.951941"><ele>217.0</ele><time>2026-03-29T09:56:43.173Z</time></trkpt><trkpt lat="45.3007315" lon="7.9522164"><ele>217.0</ele><time>2026-03-29T09:56:44.18Z</time></trkpt><trkpt lat="45.3006934" lon="7.9524994"><ele>217.0</ele><time>2026-03-29T09:56:45.179Z</time></trkpt><trkpt lat="45.3006504" lon="7.9527869"><ele>217.0</ele><time>2026-03-29T09:56:46.161Z</time></trkpt><trkpt lat="45.3006038" lon="7.9530712"><ele>216.66666666666666</ele><time>2026-03-29T09:56:47.173Z</time></trkpt><trkpt lat="45.3005686" lon="7.9533443"><ele>216.33333333333331</ele><time>2026-03-29T09:56:48.162Z</time></trkpt><trkpt lat="45.3005272" lon="7.9536156"><ele>216.0</ele><time>2026-03-29T09:56:49.16Z</time></trkpt><trkpt lat="45.3004937" lon="7.9538825"><ele>216.0</ele><time>2026-03-29T09:56:50.177Z</time></trkpt><trkpt lat="45.300458" lon="7.9541389"><ele>216.0</ele><time>2026-03-29T09:56:51.169Z</time></trkpt><trkpt lat="45.3004229" lon="7.9543989"><ele>216.0</ele><time>2026-03-29T09:56:52.165Z</time></trkpt><trkpt lat="45.3003854" lon="7.9546528"><ele>216.25</ele><time>2026-03-29T09:56:53.159Z</time></trkpt><trkpt lat="45.3003465" lon="7.9548962"><ele>216.5</ele><time>2026-03-29T09:56:54.165Z</time></trkpt><trkpt lat="45.3003194" lon="7.9551028"><ele>216.75</ele><time>2026-03-29T09:56:55.167Z</time></trkpt><trkpt lat="45.3003146" lon="7.9552777"><ele>217.0</ele><time>2026-03-29T09:56:56.192Z</time></trkpt><trkpt lat="45.3003358" lon="7.9554515"><ele>217.0</ele><time>2026-03-29T09:56:57.154Z</time></trkpt><trkpt lat="45.3003971" lon="7.9556217"><ele>217.0</ele><time>2026-03-29T09:56:58.151Z</time></trkpt><trkpt lat="45.3004906" lon="7.9557624"><ele>217.0</ele><time>2026-03-29T09:56:59.158Z</time></trkpt><trkpt lat="45.3006281" lon="7.9558813"><ele>217.0</ele><time>2026-03-29T09:57:00.164Z</time></trkpt><trkpt lat="45.3007933" lon="7.9559689"><ele>215.66666666666666</ele><time>2026-03-29T09:57:01.166Z</time></trkpt><trkpt lat="45.3009589" lon="7.9560513"><ele>214.33333333333331</ele><time>2026-03-29T09:57:02.171Z</time></trkpt><trkpt lat="45.3011165" lon="7.9561356"><ele>213.0</ele><time>2026-03-29T09:57:03.161Z</time></trkpt><trkpt lat="45.301265" lon="7.9562167"><ele>213.0</ele><time>2026-03-29T09:57:04.157Z</time></trkpt><trkpt lat="45.3014137" lon="7.9563012"><ele>213.0</ele><time>2026-03-29T09:57:05.152Z</time></trkpt><trkpt lat="45.3015665" lon="7.9563821"><ele>213.0</ele><time>2026-03-29T09:57:06.165Z</time></trkpt><trkpt lat="45.3017302" lon="7.9564636"><ele>211.66666666666669</ele><time>2026-03-29T09:57:07.155Z</time></trkpt><trkpt lat="45.3018859" lon="7.956547"><ele>210.33333333333334</ele><time>2026-03-29T09:57:08.165Z</time></trkpt><trkpt lat="45.3020347" lon="7.956626"><ele>209.0</ele><time>2026-03-29T09:57:09.165Z</time></trkpt><trkpt lat="45.3021777" lon="7.9567085"><ele>210.39999999999998</ele><time>2026-03-29T09:57:10.158Z</time></trkpt><trkpt lat="45.302307" lon="7.9567824"><ele>211.8</ele><time>2026-03-29T09:57:11.167Z</time></trkpt><trkpt lat="45.3024087" lon="7.956846"><ele>213.20000000000002</ele><time>2026-03-29T09:57:12.161Z</time></trkpt><trkpt lat="45.3024839" lon="7.9568832"><ele>214.60000000000002</ele><time>2026-03-29T09:57:13.158Z</time></trkpt><trkpt lat="45.3025702" lon="7.9569168"><ele>216.0</ele><time>2026-03-29T09:57:15.157Z</time></trkpt><trkpt lat="45.3026326" lon="7.9568737"><ele>216.0</ele><time>2026-03-29T09:57:25.166Z</time></trkpt><trkpt lat="45.3026845" lon="7.9567601"><ele>216.0</ele><time>2026-03-29T09:57:28.161Z</time></trkpt><trkpt lat="45.3027063" lon="7.9566513"><ele>216.0</ele><time>2026-03-29T09:57:30.158Z</time></trkpt><trkpt lat="45.3027312" lon="7.956534"><ele>216.0</ele><time>2026-03-29T09:57:32.16Z</time></trkpt><trkpt lat="45.3027903" lon="7.956397"><ele>216.0</ele><time>2026-03-29T09:57:34.174Z</time></trkpt><trkpt lat="45.3028227" lon="7.9563172"><ele>216.0</ele><time>2026-03-29T09:57:35.164Z</time></trkpt><trkpt lat="45.3028686" lon="7.9561571"><ele>215.8</ele><time>2026-03-29T09:57:37.157Z</time></trkpt><trkpt lat="45.302901" lon="7.9560763"><ele>215.60000000000002</ele><time>2026-03-29T09:57:38.168Z</time></trkpt><trkpt lat="45.3029377" lon="7.9559934"><ele>215.4</ele><time>2026-03-29T09:57:39.156Z</time></trkpt><trkpt lat="45.3029874" lon="7.9558448"><ele>215.2</ele><time>2026-03-29T09:57:41.154Z</time></trkpt><trkpt lat="45.3030488" lon="7.955698"><ele>215.0</ele><time>2026-03-29T09:57:43.164Z</time></trkpt><trkpt lat="45.3030843" lon="7.9555828"><ele>218.75</ele><time>2026-03-29T09:57:44.154Z</time></trkpt><trkpt lat="45.3031273" lon="7.9554581"><ele>222.5</ele><time>2026-03-29T09:57:45.164Z</time></trkpt><trkpt lat="45.3031644" lon="7.9553164"><ele>226.25</ele><time>2026-03-29T09:57:46.156Z</time></trkpt><trkpt lat="45.3032044" lon="7.9551459"><ele>230.0</ele><time>2026-03-29T09:57:47.153Z</time></trkpt><trkpt lat="45.3032405" lon="7.9549821"><ele>230.0</ele><time>2026-03-29T09:57:48.165Z</time></trkpt><trkpt lat="45.3032782" lon="7.9548336"><ele>230.0</ele><time>2026-03-29T09:57:49.162Z</time></trkpt><trkpt lat="45.3033251" lon="7.954679"><ele>230.0</ele><time>2026-03-29T09:57:50.162Z</time></trkpt><trkpt lat="45.303371" lon="7.9545207"><ele>230.0</ele><time>2026-03-29T09:57:51.157Z</time></trkpt><trkpt lat="45.3034225" lon="7.9543677"><ele>230.0</ele><time>2026-03-29T09:57:52.158Z</time></trkpt><trkpt lat="45.3034626" lon="7.9542338"><ele>230.0</ele><time>2026-03-29T09:57:53.16Z</time></trkpt><trkpt lat="45.3035019" lon="7.9541051"><ele>230.0</ele><time>2026-03-29T09:57:54.151Z</time></trkpt><trkpt lat="45.3035537" lon="7.9539753"><ele>230.0</ele><time>2026-03-29T09:57:55.162Z</time></trkpt><trkpt lat="45.3036146" lon="7.9538292"><ele>230.0</ele><time>2026-03-29T09:57:56.15Z</time></trkpt><trkpt lat="45.303676" lon="7.9536767"><ele>231.75</ele><time>2026-03-29T09:57:57.16Z</time></trkpt><trkpt lat="45.3037429" lon="7.9535044"><ele>233.5</ele><time>2026-03-29T09:57:58.156Z</time></trkpt><trkpt lat="45.3038245" lon="7.9533464"><ele>235.25</ele><time>2026-03-29T09:57:59.154Z</time></trkpt><trkpt lat="45.3039012" lon="7.9532086"><ele>237.0</ele><time>2026-03-29T09:58:00.167Z</time></trkpt><trkpt lat="45.3039734" lon="7.9530666"><ele>237.0</ele><time>2026-03-29T09:58:01.155Z</time></trkpt><trkpt lat="45.3040472" lon="7.9529073"><ele>237.0</ele><time>2026-03-29T09:58:02.161Z</time></trkpt><trkpt lat="45.3041335" lon="7.9527486"><ele>237.0</ele><time>2026-03-29T09:58:03.156Z</time></trkpt><trkpt lat="45.3042229" lon="7.952589"><ele>237.0</ele><time>2026-03-29T09:58:04.15Z</time></trkpt><trkpt lat="45.3043098" lon="7.9524359"><ele>234.75</ele><time>2026-03-29T09:58:05.161Z</time></trkpt><trkpt lat="45.3043965" lon="7.9522836"><ele>232.5</ele><time>2026-03-29T09:58:06.159Z</time></trkpt><trkpt lat="45.3044873" lon="7.9521274"><ele>230.25</ele><time>2026-03-29T09:58:07.165Z</time></trkpt><trkpt lat="45.3045734" lon="7.9519789"><ele>228.0</ele><time>2026-03-29T09:58:08.165Z</time></trkpt><trkpt lat="45.3046611" lon="7.9518261"><ele>230.25</ele><time>2026-03-29T09:58:09.184Z</time></trkpt><trkpt lat="45.3047482" lon="7.9516731"><ele>232.5</ele><time>2026-03-29T09:58:10.153Z</time></trkpt><trkpt lat="45.304831" lon="7.9515267"><ele>234.75</ele><time>2026-03-29T09:58:11.161Z</time></trkpt><trkpt lat="45.3049097" lon="7.9513783"><ele>237.0</ele><time>2026-03-29T09:58:12.152Z</time></trkpt><trkpt lat="45.3049833" lon="7.9512344"><ele>237.0</ele><time>2026-03-29T09:58:13.151Z</time></trkpt><trkpt lat="45.305065" lon="7.9510799"><ele>237.0</ele><time>2026-03-29T09:58:14.157Z</time></trkpt><trkpt lat="45.3051514" lon="7.9509319"><ele>237.0</ele><time>2026-03-29T09:58:15.165Z</time></trkpt><trkpt lat="45.3052175" lon="7.9507957"><ele>237.0</ele><time>2026-03-29T09:58:16.161Z</time></trkpt><trkpt lat="45.3052758" lon="7.9506635"><ele>234.8</ele><time>2026-03-29T09:58:17.153Z</time></trkpt><trkpt lat="45.3053255" lon="7.9505325"><ele>232.6</ele><time>2026-03-29T09:58:18.152Z</time></trkpt><trkpt lat="45.3053745" lon="7.9503984"><ele>230.40000000000003</ele><time>2026-03-29T09:58:19.161Z</time></trkpt><trkpt lat="45.3054223" lon="7.9502569"><ele>228.20000000000002</ele><time>2026-03-29T09:58:20.163Z</time></trkpt><trkpt lat="45.3054683" lon="7.9500924"><ele>226.0</ele><time>2026-03-29T09:58:21.178Z</time></trkpt><trkpt lat="45.3055076" lon="7.9499213"><ele>223.0</ele><time>2026-03-29T09:58:22.161Z</time></trkpt><trkpt lat="45.3055531" lon="7.9497299"><ele>220.0</ele><time>2026-03-29T09:58:23.154Z</time></trkpt><trkpt lat="45.3055816" lon="7.9495133"><ele>217.0</ele><time>2026-03-29T09:58:24.159Z</time></trkpt><trkpt lat="45.3056045" lon="7.94928"><ele>222.5</ele><time>2026-03-29T09:58:25.148Z</time></trkpt><trkpt lat="45.3056306" lon="7.9490676"><ele>228.0</ele><time>2026-03-29T09:58:26.154Z</time></trkpt><trkpt lat="45.3056459" lon="7.9488782"><ele>233.5</ele><time>2026-03-29T09:58:27.159Z</time></trkpt><trkpt lat="45.3056761" lon="7.9487003"><ele>239.0</ele><time>2026-03-29T09:58:28.163Z</time></trkpt><trkpt lat="45.3057009" lon="7.9485356"><ele>239.00000000000003</ele><time>2026-03-29T09:58:29.161Z</time></trkpt><trkpt lat="45.3057252" lon="7.9483968"><ele>239.0</ele><time>2026-03-29T09:58:30.159Z</time></trkpt><trkpt lat="45.305757" lon="7.9482734"><ele>239.0</ele><time>2026-03-29T09:58:31.16Z</time></trkpt><trkpt lat="45.305802" lon="7.9481693"><ele>239.0</ele><time>2026-03-29T09:58:32.156Z</time></trkpt><trkpt lat="45.305836" lon="7.9480829"><ele>239.00000000000003</ele><time>2026-03-29T09:58:33.167Z</time></trkpt><trkpt lat="45.3058832" lon="7.9480171"><ele>239.0</ele><time>2026-03-29T09:58:34.165Z</time></trkpt><trkpt lat="45.3059501" lon="7.9479401"><ele>237.39999999999998</ele><time>2026-03-29T09:58:35.158Z</time></trkpt><trkpt lat="45.3060266" lon="7.9478499"><ele>235.79999999999998</ele><time>2026-03-29T09:58:36.153Z</time></trkpt><trkpt lat="45.3061018" lon="7.9477674"><ele>234.20000000000002</ele><time>2026-03-29T09:58:37.163Z</time></trkpt><trkpt lat="45.3061748" lon="7.9477002"><ele>232.60000000000002</ele><time>2026-03-29T09:58:38.163Z</time></trkpt><trkpt lat="45.3062469" lon="7.9476415"><ele>231.0</ele><time>2026-03-29T09:58:39.18Z</time></trkpt><trkpt lat="45.3063246" lon="7.9475895"><ele>231.0</ele><time>2026-03-29T09:58:40.156Z</time></trkpt><trkpt lat="45.3064078" lon="7.9475462"><ele>231.00000000000003</ele><time>2026-03-29T09:58:41.145Z</time></trkpt><trkpt lat="45.3064949" lon="7.9475094"><ele>231.00000000000003</ele><time>2026-03-29T09:58:42.151Z</time></trkpt><trkpt lat="45.3065916" lon="7.9474784"><ele>231.0</ele><time>2026-03-29T09:58:43.153Z</time></trkpt><trkpt lat="45.3066978" lon="7.9474466"><ele>231.0</ele><time>2026-03-29T09:58:44.161Z</time></trkpt><trkpt lat="45.3068138" lon="7.9474003"><ele>230.75</ele><time>2026-03-29T09:58:45.155Z</time></trkpt><trkpt lat="45.3069269" lon="7.9473621"><ele>230.5</ele><time>2026-03-29T09:58:46.155Z</time></trkpt><trkpt lat="45.3070447" lon="7.9473131"><ele>230.25</ele><time>2026-03-29T09:58:47.151Z</time></trkpt><trkpt lat="45.3071673" lon="7.9472654"><ele>230.0</ele><time>2026-03-29T09:58:48.145Z</time></trkpt><trkpt lat="45.3072912" lon="7.947215"><ele>232.0</ele><time>2026-03-29T09:58:49.18Z</time></trkpt><trkpt lat="45.3074105" lon="7.9471664"><ele>234.0</ele><time>2026-03-29T09:58:50.176Z</time></trkpt><trkpt lat="45.307523" lon="7.9471041"><ele>236.0</ele><time>2026-03-29T09:58:51.159Z</time></trkpt><trkpt lat="45.3076324" lon="7.9470418"><ele>238.0</ele><time>2026-03-29T09:58:52.155Z</time></trkpt><trkpt lat="45.3077414" lon="7.946986"><ele>238.0</ele><time>2026-03-29T09:58:53.152Z</time></trkpt><trkpt lat="45.3078333" lon="7.9469311"><ele>238.0</ele><time>2026-03-29T09:58:54.159Z</time></trkpt><trkpt lat="45.3079282" lon="7.9468702"><ele>238.0</ele><time>2026-03-29T09:58:55.172Z</time></trkpt><trkpt lat="45.3080206" lon="7.9468307"><ele>238.0</ele><time>2026-03-29T09:58:56.151Z</time></trkpt><trkpt lat="45.3081064" lon="7.9467957"><ele>238.0</ele><time>2026-03-29T09:58:57.163Z</time></trkpt><trkpt lat="45.3081857" lon="7.9467697"><ele>239.5</ele><time>2026-03-29T09:58:58.169Z</time></trkpt><trkpt lat="45.3082734" lon="7.9467712"><ele>241.0</ele><time>2026-03-29T09:58:59.164Z</time></trkpt><trkpt lat="45.3083856" lon="7.9467779"><ele>242.5</ele><time>2026-03-29T09:59:00.188Z</time></trkpt><trkpt lat="45.3085066" lon="7.946784"><ele>244.0</ele><time>2026-03-29T09:59:01.164Z</time></trkpt><trkpt lat="45.3086428" lon="7.9467834"><ele>244.0</ele><time>2026-03-29T09:59:02.155Z</time></trkpt><trkpt lat="45.3087731" lon="7.946783"><ele>243.99999999999997</ele><time>2026-03-29T09:59:03.147Z</time></trkpt><trkpt lat="45.3088799" lon="7.9467689"><ele>243.99999999999997</ele><time>2026-03-29T09:59:04.166Z</time></trkpt><trkpt lat="45.3089821" lon="7.9467567"><ele>244.0</ele><time>2026-03-29T09:59:05.159Z</time></trkpt><trkpt lat="45.3090761" lon="7.9467492"><ele>244.0</ele><time>2026-03-29T09:59:06.158Z</time></trkpt><trkpt lat="45.3091571" lon="7.9467495"><ele>244.1428571428571</ele><time>2026-03-29T09:59:07.169Z</time></trkpt><trkpt lat="45.3092226" lon="7.9467608"><ele>244.28571428571428</ele><time>2026-03-29T09:59:08.161Z</time></trkpt><trkpt lat="45.3092851" lon="7.9467885"><ele>244.42857142857142</ele><time>2026-03-29T09:59:09.188Z</time></trkpt><trkpt lat="45.3093514" lon="7.9468262"><ele>244.57142857142856</ele><time>2026-03-29T09:59:10.167Z</time></trkpt><trkpt lat="45.309412" lon="7.9468854"><ele>244.71428571428572</ele><time>2026-03-29T09:59:11.16Z</time></trkpt><trkpt lat="45.3094685" lon="7.9469564"><ele>244.85714285714286</ele><time>2026-03-29T09:59:12.167Z</time></trkpt><trkpt lat="45.3095279" lon="7.9470443"><ele>245.0</ele><time>2026-03-29T09:59:13.175Z</time></trkpt><trkpt lat="45.3095871" lon="7.9471378"><ele>245.0</ele><time>2026-03-29T09:59:14.147Z</time></trkpt><trkpt lat="45.3096494" lon="7.9472484"><ele>245.0</ele><time>2026-03-29T09:59:15.16Z</time></trkpt><trkpt lat="45.3097148" lon="7.9473799"><ele>245.0</ele><time>2026-03-29T09:59:16.158Z</time></trkpt><trkpt lat="45.3097907" lon="7.9475392"><ele>245.0</ele><time>2026-03-29T09:59:17.165Z</time></trkpt><trkpt lat="45.3098653" lon="7.9477154"><ele>242.75</ele><time>2026-03-29T09:59:18.162Z</time></trkpt><trkpt lat="45.3099414" lon="7.9478799"><ele>240.5</ele><time>2026-03-29T09:59:19.173Z</time></trkpt><trkpt lat="45.3100074" lon="7.9480379"><ele>238.25</ele><time>2026-03-29T09:59:20.169Z</time></trkpt><trkpt lat="45.3100712" lon="7.9481903"><ele>236.0</ele><time>2026-03-29T09:59:21.181Z</time></trkpt><trkpt lat="45.3101287" lon="7.9483478"><ele>238.8</ele><time>2026-03-29T09:59:22.174Z</time></trkpt><trkpt lat="45.3101901" lon="7.9484952"><ele>241.60000000000002</ele><time>2026-03-29T09:59:23.191Z</time></trkpt><trkpt lat="45.3102452" lon="7.9486248"><ele>244.4</ele><time>2026-03-29T09:59:24.155Z</time></trkpt><trkpt lat="45.3103007" lon="7.9487475"><ele>247.2</ele><time>2026-03-29T09:59:25.152Z</time></trkpt><trkpt lat="45.3103552" lon="7.948872"><ele>250.0</ele><time>2026-03-29T09:59:26.16Z</time></trkpt><trkpt lat="45.310403" lon="7.9489785"><ele>249.99999999999997</ele><time>2026-03-29T09:59:27.152Z</time></trkpt><trkpt lat="45.3104415" lon="7.9490768"><ele>250.0</ele><time>2026-03-29T09:59:28.165Z</time></trkpt><trkpt lat="45.3104784" lon="7.9491763"><ele>250.0</ele><time>2026-03-29T09:59:29.167Z</time></trkpt><trkpt lat="45.3105154" lon="7.9492636"><ele>250.0</ele><time>2026-03-29T09:59:30.157Z</time></trkpt><trkpt lat="45.3105564" lon="7.949349"><ele>249.99999999999997</ele><time>2026-03-29T09:59:31.158Z</time></trkpt><trkpt lat="45.310595" lon="7.9494291"><ele>250.0</ele><time>2026-03-29T09:59:32.164Z</time></trkpt><trkpt lat="45.3106594" lon="7.9495777"><ele>247.6</ele><time>2026-03-29T09:59:34.176Z</time></trkpt><trkpt lat="45.3107072" lon="7.9497204"><ele>245.2</ele><time>2026-03-29T09:59:36.163Z</time></trkpt><trkpt lat="45.3107782" lon="7.9498823"><ele>242.8</ele><time>2026-03-29T09:59:38.165Z</time></trkpt><trkpt lat="45.3108136" lon="7.9499716"><ele>240.4</ele><time>2026-03-29T09:59:39.134Z</time></trkpt><trkpt lat="45.3108502" lon="7.9500643"><ele>238.0</ele><time>2026-03-29T09:59:40.171Z</time></trkpt><trkpt lat="45.3108791" lon="7.9501582"><ele>237.99999999999997</ele><time>2026-03-29T09:59:41.156Z</time></trkpt><trkpt lat="45.3109122" lon="7.9502546"><ele>238.0</ele><time>2026-03-29T09:59:42.174Z</time></trkpt><trkpt lat="45.3109415" lon="7.9503677"><ele>238.0</ele><time>2026-03-29T09:59:43.163Z</time></trkpt><trkpt lat="45.310975" lon="7.9504806"><ele>238.0</ele><time>2026-03-29T09:59:44.171Z</time></trkpt><trkpt lat="45.3110215" lon="7.9505938"><ele>237.99999999999997</ele><time>2026-03-29T09:59:45.17Z</time></trkpt><trkpt lat="45.3110728" lon="7.9507151"><ele>238.0</ele><time>2026-03-29T09:59:46.16Z</time></trkpt><trkpt lat="45.3111262" lon="7.9508286"><ele>238.49999999999997</ele><time>2026-03-29T09:59:47.17Z</time></trkpt><trkpt lat="45.3111673" lon="7.9509343"><ele>239.0</ele><time>2026-03-29T09:59:48.162Z</time></trkpt><trkpt lat="45.3112114" lon="7.9510298"><ele>239.5</ele><time>2026-03-29T09:59:49.198Z</time></trkpt><trkpt lat="45.3112438" lon="7.9511308"><ele>240.0</ele><time>2026-03-29T09:59:50.172Z</time></trkpt><trkpt lat="45.3112655" lon="7.9512502"><ele>240.49999999999997</ele><time>2026-03-29T09:59:51.162Z</time></trkpt><trkpt lat="45.3112783" lon="7.9513757"><ele>241.0</ele><time>2026-03-29T09:59:52.159Z</time></trkpt><trkpt lat="45.3112849" lon="7.9514893"><ele>241.0</ele><time>2026-03-29T09:59:53.173Z</time></trkpt><trkpt lat="45.3113049" lon="7.9516064"><ele>241.00000000000003</ele><time>2026-03-29T09:59:54.172Z</time></trkpt><trkpt lat="45.3113409" lon="7.9517343"><ele>241.00000000000003</ele><time>2026-03-29T09:59:55.164Z</time></trkpt><trkpt lat="45.3113981" lon="7.951853"><ele>241.0</ele><time>2026-03-29T09:59:56.166Z</time></trkpt><trkpt lat="45.3114528" lon="7.9519671"><ele>241.0</ele><time>2026-03-29T09:59:57.151Z</time></trkpt><trkpt lat="45.3115008" lon="7.9520838"><ele>240.60000000000002</ele><time>2026-03-29T09:59:58.156Z</time></trkpt><trkpt lat="45.311548" lon="7.9522017"><ele>240.20000000000002</ele><time>2026-03-29T09:59:59.15Z</time></trkpt><trkpt lat="45.3115887" lon="7.9523349"><ele>239.79999999999998</ele><time>2026-03-29T10:00:00.165Z</time></trkpt><trkpt lat="45.3116243" lon="7.9524803"><ele>239.39999999999998</ele><time>2026-03-29T10:00:01.153Z</time></trkpt><trkpt lat="45.3116506" lon="7.9526375"><ele>239.0</ele><time>2026-03-29T10:00:02.16Z</time></trkpt><trkpt lat="45.3116783" lon="7.9527744"><ele>239.0</ele><time>2026-03-29T10:00:03.174Z</time></trkpt><trkpt lat="45.3117143" lon="7.9528875"><ele>238.99999999999997</ele><time>2026-03-29T10:00:04.162Z</time></trkpt><trkpt lat="45.3117614" lon="7.9529797"><ele>238.99999999999997</ele><time>2026-03-29T10:00:05.164Z</time></trkpt><trkpt lat="45.3118218" lon="7.9530688"><ele>239.0</ele><time>2026-03-29T10:00:06.166Z</time></trkpt><trkpt lat="45.3118948" lon="7.9531708"><ele>239.0</ele><time>2026-03-29T10:00:07.171Z</time></trkpt><trkpt lat="45.3119764" lon="7.9532611"><ele>239.00000000000003</ele><time>2026-03-29T10:00:08.169Z</time></trkpt><trkpt lat="45.3120543" lon="7.953332"><ele>239.0</ele><time>2026-03-29T10:00:09.145Z</time></trkpt><trkpt lat="45.3121309" lon="7.9533904"><ele>239.0</ele><time>2026-03-29T10:00:10.163Z</time></trkpt><trkpt lat="45.3122028" lon="7.9534318"><ele>239.0</ele><time>2026-03-29T10:00:11.155Z</time></trkpt><trkpt lat="45.3122699" lon="7.9534573"><ele>239.00000000000003</ele><time>2026-03-29T10:00:12.163Z</time></trkpt><trkpt lat="45.3123383" lon="7.9534764"><ele>239.0</ele><time>2026-03-29T10:00:13.149Z</time></trkpt><trkpt lat="45.3124129" lon="7.9535028"><ele>239.00000000000003</ele><time>2026-03-29T10:00:14.169Z</time></trkpt><trkpt lat="45.3124841" lon="7.953517"><ele>239.0</ele><time>2026-03-29T10:00:15.167Z</time></trkpt><trkpt lat="45.312553" lon="7.9535449"><ele>239.00000000000003</ele><time>2026-03-29T10:00:16.168Z</time></trkpt><trkpt lat="45.3126218" lon="7.9535858"><ele>239.00000000000003</ele><time>2026-03-29T10:00:17.169Z</time></trkpt><trkpt lat="45.312682" lon="7.9536323"><ele>239.0</ele><time>2026-03-29T10:00:18.157Z</time></trkpt><trkpt lat="45.3127423" lon="7.9536791"><ele>239.00000000000003</ele><time>2026-03-29T10:00:19.175Z</time></trkpt><trkpt lat="45.3127991" lon="7.953735"><ele>239.00000000000003</ele><time>2026-03-29T10:00:20.172Z</time></trkpt><trkpt lat="45.3128962" lon="7.953828"><ele>239.00000000000003</ele><time>2026-03-29T10:00:22.164Z</time></trkpt><trkpt lat="45.3130005" lon="7.9539338"><ele>239.0</ele><time>2026-03-29T10:00:24.16Z</time></trkpt><trkpt lat="45.3130536" lon="7.9539945"><ele>239.0</ele><time>2026-03-29T10:00:25.164Z</time></trkpt><trkpt lat="45.3131095" lon="7.9540576"><ele>239.0</ele><time>2026-03-29T10:00:26.162Z</time></trkpt><trkpt lat="45.3131738" lon="7.9541215"><ele>239.00000000000003</ele><time>2026-03-29T10:00:27.185Z</time></trkpt><trkpt lat="45.3132508" lon="7.9541912"><ele>239.0</ele><time>2026-03-29T10:00:28.169Z</time></trkpt><trkpt lat="45.3133407" lon="7.9542714"><ele>239.2</ele><time>2026-03-29T10:00:29.165Z</time></trkpt><trkpt lat="45.3134446" lon="7.9543566"><ele>239.39999999999998</ele><time>2026-03-29T10:00:30.196Z</time></trkpt><trkpt lat="45.3135495" lon="7.9544332"><ele>239.6</ele><time>2026-03-29T10:00:31.174Z</time></trkpt><trkpt lat="45.3136406" lon="7.9545024"><ele>239.8</ele><time>2026-03-29T10:00:32.155Z</time></trkpt><trkpt lat="45.3137172" lon="7.9545571"><ele>240.0</ele><time>2026-03-29T10:00:33.167Z</time></trkpt><trkpt lat="45.313794" lon="7.9546041"><ele>240.0</ele><time>2026-03-29T10:00:34.163Z</time></trkpt><trkpt lat="45.3138628" lon="7.9546404"><ele>240.0</ele><time>2026-03-29T10:00:35.16Z</time></trkpt><trkpt lat="45.3139324" lon="7.9546655"><ele>240.0</ele><time>2026-03-29T10:00:36.166Z</time></trkpt><trkpt lat="45.3140095" lon="7.9546766"><ele>240.0</ele><time>2026-03-29T10:00:37.174Z</time></trkpt><trkpt lat="45.3141092" lon="7.9546782"><ele>240.0</ele><time>2026-03-29T10:00:38.168Z</time></trkpt><trkpt lat="45.3142236" lon="7.9546749"><ele>240.0</ele><time>2026-03-29T10:00:39.208Z</time></trkpt><trkpt lat="45.3143336" lon="7.9546593"><ele>240.0</ele><time>2026-03-29T10:00:40.164Z</time></trkpt><trkpt lat="45.3144566" lon="7.9546367"><ele>240.0</ele><time>2026-03-29T10:00:41.161Z</time></trkpt><trkpt lat="45.3145812" lon="7.9546246"><ele>240.0</ele><time>2026-03-29T10:00:42.172Z</time></trkpt><trkpt lat="45.3147159" lon="7.9546163"><ele>240.0</ele><time>2026-03-29T10:00:43.171Z</time></trkpt><trkpt lat="45.314846" lon="7.9546117"><ele>239.8</ele><time>2026-03-29T10:00:44.174Z</time></trkpt><trkpt lat="45.3149802" lon="7.9546065"><ele>239.6</ele><time>2026-03-29T10:00:45.164Z</time></trkpt><trkpt lat="45.315105" lon="7.9546008"><ele>239.39999999999998</ele><time>2026-03-29T10:00:46.177Z</time></trkpt><trkpt lat="45.3152012" lon="7.9546015"><ele>239.2</ele><time>2026-03-29T10:00:47.178Z</time></trkpt><trkpt lat="45.3152795" lon="7.9545972"><ele>239.0</ele><time>2026-03-29T10:00:48.178Z</time></trkpt><trkpt lat="45.3153461" lon="7.954603"><ele>239.00000000000003</ele><time>2026-03-29T10:00:49.157Z</time></trkpt><trkpt lat="45.3154111" lon="7.9546164"><ele>239.0</ele><time>2026-03-29T10:00:50.165Z</time></trkpt><trkpt lat="45.3154773" lon="7.9546408"><ele>239.0</ele><time>2026-03-29T10:00:51.166Z</time></trkpt><trkpt lat="45.3155481" lon="7.9546761"><ele>239.0</ele><time>2026-03-29T10:00:52.154Z</time></trkpt><trkpt lat="45.3156141" lon="7.9547375"><ele>239.00000000000003</ele><time>2026-03-29T10:00:53.17Z</time></trkpt><trkpt lat="45.3156785" lon="7.9548454"><ele>239.0</ele><time>2026-03-29T10:00:54.175Z</time></trkpt><trkpt lat="45.3157453" lon="7.9549821"><ele>238.5</ele><time>2026-03-29T10:00:55.154Z</time></trkpt><trkpt lat="45.3158127" lon="7.9551342"><ele>238.0</ele><time>2026-03-29T10:00:56.16Z</time></trkpt><trkpt lat="45.3158875" lon="7.9552822"><ele>237.5</ele><time>2026-03-29T10:00:57.167Z</time></trkpt><trkpt lat="45.3159622" lon="7.9554415"><ele>237.0</ele><time>2026-03-29T10:00:58.16Z</time></trkpt><trkpt lat="45.3160327" lon="7.9556163"><ele>237.0</ele><time>2026-03-29T10:00:59.166Z</time></trkpt><trkpt lat="45.3160966" lon="7.9557971"><ele>237.0</ele><time>2026-03-29T10:01:00.161Z</time></trkpt><trkpt lat="45.3161568" lon="7.9559602"><ele>237.0</ele><time>2026-03-29T10:01:01.187Z</time></trkpt><trkpt lat="45.3162189" lon="7.9561081"><ele>237.0</ele><time>2026-03-29T10:01:02.162Z</time></trkpt><trkpt lat="45.3162784" lon="7.956256"><ele>237.39999999999998</ele><time>2026-03-29T10:01:03.17Z</time></trkpt><trkpt lat="45.3163328" lon="7.9563942"><ele>237.79999999999998</ele><time>2026-03-29T10:01:04.154Z</time></trkpt><trkpt lat="45.3163765" lon="7.9565257"><ele>238.2</ele><time>2026-03-29T10:01:05.167Z</time></trkpt><trkpt lat="45.3164356" lon="7.9566571"><ele>238.6</ele><time>2026-03-29T10:01:06.164Z</time></trkpt><trkpt lat="45.3165109" lon="7.9567735"><ele>239.0</ele><time>2026-03-29T10:01:07.169Z</time></trkpt><trkpt lat="45.3165948" lon="7.9568808"><ele>236.75</ele><time>2026-03-29T10:01:08.166Z</time></trkpt><trkpt lat="45.316683" lon="7.9569842"><ele>234.5</ele><time>2026-03-29T10:01:09.157Z</time></trkpt><trkpt lat="45.3167813" lon="7.9570754"><ele>232.25</ele><time>2026-03-29T10:01:10.165Z</time></trkpt><trkpt lat="45.3169006" lon="7.9571646"><ele>230.0</ele><time>2026-03-29T10:01:11.152Z</time></trkpt><trkpt lat="45.3170292" lon="7.9572562"><ele>230.0</ele><time>2026-03-29T10:01:12.165Z</time></trkpt><trkpt lat="45.3171571" lon="7.9573387"><ele>230.0</ele><time>2026-03-29T10:01:13.181Z</time></trkpt><trkpt lat="45.31727" lon="7.9574094"><ele>230.0</ele><time>2026-03-29T10:01:14.174Z</time></trkpt><trkpt lat="45.3173776" lon="7.9574798"><ele>230.0</ele><time>2026-03-29T10:01:15.168Z</time></trkpt><trkpt lat="45.3174866" lon="7.9575504"><ele>230.4</ele><time>2026-03-29T10:01:16.163Z</time></trkpt><trkpt lat="45.3175848" lon="7.9576146"><ele>230.8</ele><time>2026-03-29T10:01:17.168Z</time></trkpt><trkpt lat="45.3176751" lon="7.9576769"><ele>231.2</ele><time>2026-03-29T10:01:18.171Z</time></trkpt><trkpt lat="45.3177738" lon="7.9577352"><ele>231.6</ele><time>2026-03-29T10:01:19.179Z</time></trkpt><trkpt lat="45.3178682" lon="7.957791"><ele>232.0</ele><time>2026-03-29T10:01:20.178Z</time></trkpt><trkpt lat="45.3179566" lon="7.9578422"><ele>232.0</ele><time>2026-03-29T10:01:21.17Z</time></trkpt><trkpt lat="45.3180341" lon="7.9579007"><ele>232.0</ele><time>2026-03-29T10:01:22.151Z</time></trkpt><trkpt lat="45.318113" lon="7.9579668"><ele>232.0</ele><time>2026-03-29T10:01:23.16Z</time></trkpt><trkpt lat="45.3181976" lon="7.9580489"><ele>232.0</ele><time>2026-03-29T10:01:24.16Z</time></trkpt><trkpt lat="45.3182782" lon="7.9581359"><ele>232.0</ele><time>2026-03-29T10:01:25.173Z</time></trkpt><trkpt lat="45.3183504" lon="7.9582174"><ele>232.33333333333331</ele><time>2026-03-29T10:01:26.163Z</time></trkpt><trkpt lat="45.3184203" lon="7.9583103"><ele>232.66666666666666</ele><time>2026-03-29T10:01:27.161Z</time></trkpt><trkpt lat="45.3184867" lon="7.9583922"><ele>233.0</ele><time>2026-03-29T10:01:28.164Z</time></trkpt><trkpt lat="45.3185572" lon="7.9584705"><ele>233.33333333333331</ele><time>2026-03-29T10:01:29.158Z</time></trkpt><trkpt lat="45.3186204" lon="7.9585515"><ele>233.66666666666666</ele><time>2026-03-29T10:01:30.163Z</time></trkpt><trkpt lat="45.3186893" lon="7.9586171"><ele>234.0</ele><time>2026-03-29T10:01:31.156Z</time></trkpt><trkpt lat="45.3187509" lon="7.9586837"><ele>234.0</ele><time>2026-03-29T10:01:32.159Z</time></trkpt><trkpt lat="45.318805" lon="7.9587678"><ele>233.99999999999997</ele><time>2026-03-29T10:01:33.164Z</time></trkpt><trkpt lat="45.3188606" lon="7.9588825"><ele>233.99999999999997</ele><time>2026-03-29T10:01:34.169Z</time></trkpt><trkpt lat="45.3189222" lon="7.9590095"><ele>234.0</ele><time>2026-03-29T10:01:35.162Z</time></trkpt><trkpt lat="45.3189764" lon="7.9591522"><ele>234.0</ele><time>2026-03-29T10:01:36.151Z</time></trkpt><trkpt lat="45.3190247" lon="7.9592846"><ele>233.39999999999998</ele><time>2026-03-29T10:01:37.167Z</time></trkpt><trkpt lat="45.3190628" lon="7.9594108"><ele>232.79999999999998</ele><time>2026-03-29T10:01:38.166Z</time></trkpt><trkpt lat="45.3190946" lon="7.9595419"><ele>232.20000000000002</ele><time>2026-03-29T10:01:39.192Z</time></trkpt><trkpt lat="45.3191133" lon="7.9596913"><ele>231.60000000000002</ele><time>2026-03-29T10:01:40.162Z</time></trkpt><trkpt lat="45.3191262" lon="7.9598632"><ele>231.0</ele><time>2026-03-29T10:01:41.164Z</time></trkpt><trkpt lat="45.3191368" lon="7.9600401"><ele>230.25</ele><time>2026-03-29T10:01:42.166Z</time></trkpt><trkpt lat="45.3191435" lon="7.9602235"><ele>229.5</ele><time>2026-03-29T10:01:43.16Z</time></trkpt><trkpt lat="45.3191454" lon="7.9604197"><ele>228.75</ele><time>2026-03-29T10:01:44.168Z</time></trkpt><trkpt lat="45.319133" lon="7.9606088"><ele>228.0</ele><time>2026-03-29T10:01:45.158Z</time></trkpt><trkpt lat="45.3191227" lon="7.9607912"><ele>227.75</ele><time>2026-03-29T10:01:46.153Z</time></trkpt><trkpt lat="45.319118" lon="7.9609731"><ele>227.5</ele><time>2026-03-29T10:01:47.168Z</time></trkpt><trkpt lat="45.3191058" lon="7.9611555"><ele>227.25</ele><time>2026-03-29T10:01:48.153Z</time></trkpt><trkpt lat="45.3190943" lon="7.9613409"><ele>227.0</ele><time>2026-03-29T10:01:49.155Z</time></trkpt><trkpt lat="45.3190831" lon="7.9615193"><ele>227.0</ele><time>2026-03-29T10:01:50.169Z</time></trkpt><trkpt lat="45.3190834" lon="7.9616913"><ele>227.0</ele><time>2026-03-29T10:01:51.163Z</time></trkpt><trkpt lat="45.3190958" lon="7.9618653"><ele>227.0</ele><time>2026-03-29T10:01:52.172Z</time></trkpt><trkpt lat="45.3191076" lon="7.9620407"><ele>227.0</ele><time>2026-03-29T10:01:53.175Z</time></trkpt><trkpt lat="45.3191331" lon="7.96221"><ele>227.0</ele><time>2026-03-29T10:01:54.178Z</time></trkpt><trkpt lat="45.3191607" lon="7.962384"><ele>227.0</ele><time>2026-03-29T10:01:55.159Z</time></trkpt><trkpt lat="45.3191946" lon="7.9625711"><ele>227.0</ele><time>2026-03-29T10:01:56.169Z</time></trkpt><trkpt lat="45.3192303" lon="7.9627649"><ele>227.0</ele><time>2026-03-29T10:01:57.16Z</time></trkpt><trkpt lat="45.3192646" lon="7.9629671"><ele>227.0</ele><time>2026-03-29T10:01:58.165Z</time></trkpt><trkpt lat="45.3192984" lon="7.9631771"><ele>227.0</ele><time>2026-03-29T10:01:59.163Z</time></trkpt><trkpt lat="45.3193313" lon="7.9633813"><ele>227.0</ele><time>2026-03-29T10:02:00.168Z</time></trkpt><trkpt lat="45.3193605" lon="7.9635812"><ele>227.0</ele><time>2026-03-29T10:02:01.192Z</time></trkpt><trkpt lat="45.3193921" lon="7.9637839"><ele>227.0</ele><time>2026-03-29T10:02:02.149Z</time></trkpt><trkpt lat="45.3194209" lon="7.9639804"><ele>227.0</ele><time>2026-03-29T10:02:03.165Z</time></trkpt><trkpt lat="45.3194473" lon="7.9641917"><ele>227.0</ele><time>2026-03-29T10:02:04.161Z</time></trkpt><trkpt lat="45.319467" lon="7.9643903"><ele>227.0</ele><time>2026-03-29T10:02:05.171Z</time></trkpt><trkpt lat="45.3194879" lon="7.9645825"><ele>227.0</ele><time>2026-03-29T10:02:06.169Z</time></trkpt><trkpt lat="45.3195085" lon="7.9647659"><ele>227.0</ele><time>2026-03-29T10:02:07.172Z</time></trkpt><trkpt lat="45.3195257" lon="7.9649337"><ele>227.0</ele><time>2026-03-29T10:02:08.15Z</time></trkpt><trkpt lat="45.3195503" lon="7.965098"><ele>227.0</ele><time>2026-03-29T10:02:09.166Z</time></trkpt><trkpt lat="45.319579" lon="7.965242"><ele>227.33333333333334</ele><time>2026-03-29T10:02:10.153Z</time></trkpt><trkpt lat="45.3196108" lon="7.9653753"><ele>227.66666666666669</ele><time>2026-03-29T10:02:11.165Z</time></trkpt><trkpt lat="45.3196406" lon="7.9654848"><ele>228.0</ele><time>2026-03-29T10:02:12.163Z</time></trkpt><trkpt lat="45.3196655" lon="7.9655719"><ele>228.33333333333331</ele><time>2026-03-29T10:02:13.165Z</time></trkpt><trkpt lat="45.3196726" lon="7.9657135"><ele>228.66666666666666</ele><time>2026-03-29T10:02:15.183Z</time></trkpt><trkpt lat="45.319615" lon="7.9657893"><ele>229.0</ele><time>2026-03-29T10:02:17.165Z</time></trkpt><trkpt lat="45.3195379" lon="7.9658583"><ele>230.33333333333331</ele><time>2026-03-29T10:02:18.161Z</time></trkpt><trkpt lat="45.3194223" lon="7.9659556"><ele>231.66666666666669</ele><time>2026-03-29T10:02:19.166Z</time></trkpt><trkpt lat="45.3192901" lon="7.9660537"><ele>233.0</ele><time>2026-03-29T10:02:20.162Z</time></trkpt><trkpt lat="45.3191359" lon="7.9661768"><ele>233.0</ele><time>2026-03-29T10:02:21.168Z</time></trkpt><trkpt lat="45.3189879" lon="7.9662898"><ele>233.0</ele><time>2026-03-29T10:02:22.182Z</time></trkpt><trkpt lat="45.3188781" lon="7.9663882"><ele>233.0</ele><time>2026-03-29T10:02:23.159Z</time></trkpt><trkpt lat="45.3188201" lon="7.9664515"><ele>233.0</ele><time>2026-03-29T10:02:24.165Z</time></trkpt><trkpt lat="45.3187364" lon="7.9664769"><ele>235.83333333333334</ele><time>2026-03-29T10:02:26.178Z</time></trkpt><trkpt lat="45.31871" lon="7.9663579"><ele>238.66666666666669</ele><time>2026-03-29T10:02:28.159Z</time></trkpt><trkpt lat="45.3186837" lon="7.9662425"><ele>241.5</ele><time>2026-03-29T10:02:29.159Z</time></trkpt><trkpt lat="45.3186409" lon="7.9661303"><ele>244.33333333333331</ele><time>2026-03-29T10:02:30.153Z</time></trkpt><trkpt lat="45.3185911" lon="7.9660333"><ele>247.16666666666666</ele><time>2026-03-29T10:02:31.163Z</time></trkpt><trkpt lat="45.31854" lon="7.9659626"><ele>250.0</ele><time>2026-03-29T10:02:32.174Z</time></trkpt><trkpt lat="45.3184841" lon="7.9659026"><ele>248.99999999999997</ele><time>2026-03-29T10:02:33.159Z</time></trkpt><trkpt lat="45.3184385" lon="7.9658389"><ele>248.0</ele><time>2026-03-29T10:02:34.159Z</time></trkpt><trkpt lat="45.318389" lon="7.9657695"><ele>247.0</ele><time>2026-03-29T10:02:35.165Z</time></trkpt><trkpt lat="45.3183385" lon="7.9657128"><ele>246.0</ele><time>2026-03-29T10:02:36.166Z</time></trkpt><trkpt lat="45.3182447" lon="7.9655853"><ele>244.99999999999997</ele><time>2026-03-29T10:02:38.159Z</time></trkpt><trkpt lat="45.3181957" lon="7.965519"><ele>244.0</ele><time>2026-03-29T10:02:39.161Z</time></trkpt><trkpt lat="45.3181371" lon="7.9654494"><ele>243.99999999999997</ele><time>2026-03-29T10:02:40.154Z</time></trkpt><trkpt lat="45.3180744" lon="7.9653684"><ele>244.0</ele><time>2026-03-29T10:02:41.153Z</time></trkpt><trkpt lat="45.3180112" lon="7.965282"><ele>244.0</ele><time>2026-03-29T10:02:42.163Z</time></trkpt><trkpt lat="45.3179392" lon="7.9651819"><ele>244.0</ele><time>2026-03-29T10:02:43.153Z</time></trkpt><trkpt lat="45.317873" lon="7.9651021"><ele>243.99999999999997</ele><time>2026-03-29T10:02:44.173Z</time></trkpt><trkpt lat="45.3178113" lon="7.9650499"><ele>244.0</ele><time>2026-03-29T10:02:45.161Z</time></trkpt><trkpt lat="45.3177387" lon="7.9650247"><ele>244.79999999999998</ele><time>2026-03-29T10:02:46.157Z</time></trkpt><trkpt lat="45.3176548" lon="7.965007"><ele>245.59999999999997</ele><time>2026-03-29T10:02:47.174Z</time></trkpt><trkpt lat="45.3175778" lon="7.9649583"><ele>246.4</ele><time>2026-03-29T10:02:48.166Z</time></trkpt><trkpt lat="45.3175121" lon="7.9648657"><ele>247.2</ele><time>2026-03-29T10:02:49.169Z</time></trkpt><trkpt lat="45.3174479" lon="7.9647384"><ele>248.0</ele><time>2026-03-29T10:02:50.16Z</time></trkpt><trkpt lat="45.3173785" lon="7.9646046"><ele>248.0</ele><time>2026-03-29T10:02:51.177Z</time></trkpt><trkpt lat="45.3173021" lon="7.9644613"><ele>248.0</ele><time>2026-03-29T10:02:52.174Z</time></trkpt><trkpt lat="45.3172155" lon="7.9643391"><ele>248.0</ele><time>2026-03-29T10:02:53.157Z</time></trkpt><trkpt lat="45.3171449" lon="7.9642076"><ele>248.0</ele><time>2026-03-29T10:02:54.156Z</time></trkpt><trkpt lat="45.3170906" lon="7.9640837"><ele>249.2</ele><time>2026-03-29T10:02:55.154Z</time></trkpt><trkpt lat="45.3170579" lon="7.9639662"><ele>250.4</ele><time>2026-03-29T10:02:56.152Z</time></trkpt><trkpt lat="45.3170167" lon="7.963848"><ele>251.59999999999997</ele><time>2026-03-29T10:02:57.156Z</time></trkpt><trkpt lat="45.3169694" lon="7.9637282"><ele>252.79999999999998</ele><time>2026-03-29T10:02:58.153Z</time></trkpt><trkpt lat="45.3169247" lon="7.963631"><ele>254.0</ele><time>2026-03-29T10:02:59.156Z</time></trkpt><trkpt lat="45.3168539" lon="7.9635149"><ele>254.00000000000003</ele><time>2026-03-29T10:03:01.171Z</time></trkpt><trkpt lat="45.3167315" lon="7.9634598"><ele>254.0</ele><time>2026-03-29T10:03:03.164Z</time></trkpt><trkpt lat="45.3166648" lon="7.9634631"><ele>254.0</ele><time>2026-03-29T10:03:04.149Z</time></trkpt><trkpt lat="45.3165996" lon="7.9634657"><ele>254.0</ele><time>2026-03-29T10:03:05.157Z</time></trkpt><trkpt lat="45.3165308" lon="7.9634845"><ele>254.00000000000003</ele><time>2026-03-29T10:03:06.156Z</time></trkpt><trkpt lat="45.3164497" lon="7.9635889"><ele>254.0</ele><time>2026-03-29T10:03:08.15Z</time></trkpt><trkpt lat="45.3164417" lon="7.9637911"><ele>254.00000000000003</ele><time>2026-03-29T10:03:10.169Z</time></trkpt><trkpt lat="45.3164574" lon="7.9639042"><ele>254.0</ele><time>2026-03-29T10:03:11.173Z</time></trkpt><trkpt lat="45.3164723" lon="7.9640036"><ele>254.0</ele><time>2026-03-29T10:03:12.161Z</time></trkpt><trkpt lat="45.3164846" lon="7.9640946"><ele>254.0</ele><time>2026-03-29T10:03:13.153Z</time></trkpt><trkpt lat="45.3164883" lon="7.9642645"><ele>254.00000000000003</ele><time>2026-03-29T10:03:15.16Z</time></trkpt><trkpt lat="45.3164719" lon="7.9643705"><ele>254.0</ele><time>2026-03-29T10:03:16.148Z</time></trkpt><trkpt lat="45.3164402" lon="7.9644946"><ele>254.2</ele><time>2026-03-29T10:03:17.157Z</time></trkpt><trkpt lat="45.3163883" lon="7.9646179"><ele>254.39999999999998</ele><time>2026-03-29T10:03:18.154Z</time></trkpt><trkpt lat="45.3163267" lon="7.9647432"><ele>254.6</ele><time>2026-03-29T10:03:19.163Z</time></trkpt><trkpt lat="45.3162596" lon="7.9648663"><ele>254.8</ele><time>2026-03-29T10:03:20.158Z</time></trkpt><trkpt lat="45.3161817" lon="7.9649975"><ele>255.0</ele><time>2026-03-29T10:03:21.173Z</time></trkpt><trkpt lat="45.3161042" lon="7.965127"><ele>255.66666666666666</ele><time>2026-03-29T10:03:22.175Z</time></trkpt><trkpt lat="45.3160313" lon="7.9652364"><ele>256.3333333333333</ele><time>2026-03-29T10:03:23.163Z</time></trkpt><trkpt lat="45.3159638" lon="7.9653329"><ele>257.0</ele><time>2026-03-29T10:03:24.151Z</time></trkpt><trkpt lat="45.3159067" lon="7.9654174"><ele>257.66666666666663</ele><time>2026-03-29T10:03:25.156Z</time></trkpt><trkpt lat="45.3158567" lon="7.9654981"><ele>258.3333333333333</ele><time>2026-03-29T10:03:26.153Z</time></trkpt><trkpt lat="45.3158256" lon="7.9655813"><ele>259.0</ele><time>2026-03-29T10:03:27.161Z</time></trkpt><trkpt lat="45.3158159" lon="7.9656729"><ele>259.0</ele><time>2026-03-29T10:03:28.158Z</time></trkpt><trkpt lat="45.3158193" lon="7.9657746"><ele>259.0</ele><time>2026-03-29T10:03:29.166Z</time></trkpt><trkpt lat="45.3158289" lon="7.9658753"><ele>259.0</ele><time>2026-03-29T10:03:30.158Z</time></trkpt><trkpt lat="45.3158354" lon="7.9660371"><ele>259.0</ele><time>2026-03-29T10:03:32.173Z</time></trkpt><trkpt lat="45.3158115" lon="7.9661923"><ele>259.0</ele><time>2026-03-29T10:03:34.155Z</time></trkpt><trkpt lat="45.315775" lon="7.9663106"><ele>259.57142857142856</ele><time>2026-03-29T10:03:36.162Z</time></trkpt><trkpt lat="45.3157453" lon="7.9664043"><ele>260.1428571428571</ele><time>2026-03-29T10:03:38.172Z</time></trkpt><trkpt lat="45.3157068" lon="7.9665042"><ele>260.7142857142857</ele><time>2026-03-29T10:03:41.16Z</time></trkpt><trkpt lat="45.3156931" lon="7.9665948"><ele>261.2857142857143</ele><time>2026-03-29T10:03:50.157Z</time></trkpt><trkpt lat="45.3157224" lon="7.9665126"><ele>261.85714285714283</ele><time>2026-03-29T10:05:24.17Z</time></trkpt><trkpt lat="45.3157495" lon="7.9664138"><ele>262.42857142857144</ele><time>2026-03-29T10:05:25.162Z</time></trkpt><trkpt lat="45.3157811" lon="7.9663101"><ele>263.0</ele><time>2026-03-29T10:05:26.17Z</time></trkpt><trkpt lat="45.3158157" lon="7.9662119"><ele>263.0</ele><time>2026-03-29T10:05:27.157Z</time></trkpt><trkpt lat="45.3158283" lon="7.9661152"><ele>263.0</ele><time>2026-03-29T10:05:28.161Z</time></trkpt><trkpt lat="45.3158379" lon="7.9660184"><ele>263.0</ele><time>2026-03-29T10:05:29.157Z</time></trkpt><trkpt lat="45.3158342" lon="7.9659242"><ele>263.0</ele><time>2026-03-29T10:05:30.188Z</time></trkpt><trkpt lat="45.3158312" lon="7.9657528"><ele>263.0</ele><time>2026-03-29T10:05:32.162Z</time></trkpt><trkpt lat="45.3158419" lon="7.9656163"><ele>263.0</ele><time>2026-03-29T10:05:34.163Z</time></trkpt><trkpt lat="45.3158785" lon="7.965499"><ele>262.2</ele><time>2026-03-29T10:05:36.166Z</time></trkpt><trkpt lat="45.3159542" lon="7.9653518"><ele>261.4</ele><time>2026-03-29T10:05:38.166Z</time></trkpt><trkpt lat="45.316008" lon="7.9652707"><ele>260.59999999999997</ele><time>2026-03-29T10:05:39.161Z</time></trkpt><trkpt lat="45.316059" lon="7.9651876"><ele>259.8</ele><time>2026-03-29T10:05:40.175Z</time></trkpt><trkpt lat="45.3161179" lon="7.9650992"><ele>259.0</ele><time>2026-03-29T10:05:41.157Z</time></trkpt><trkpt lat="45.3161786" lon="7.965"><ele>258.2</ele><time>2026-03-29T10:05:42.161Z</time></trkpt><trkpt lat="45.316246" lon="7.9648856"><ele>257.4</ele><time>2026-03-29T10:05:43.159Z</time></trkpt><trkpt lat="45.3163082" lon="7.9647606"><ele>256.6</ele><time>2026-03-29T10:05:44.154Z</time></trkpt><trkpt lat="45.3163684" lon="7.9646451"><ele>255.8</ele><time>2026-03-29T10:05:45.161Z</time></trkpt><trkpt lat="45.3164142" lon="7.9645403"><ele>255.0</ele><time>2026-03-29T10:05:46.158Z</time></trkpt><trkpt lat="45.3164557" lon="7.964443"><ele>254.83333333333334</ele><time>2026-03-29T10:05:47.158Z</time></trkpt><trkpt lat="45.3164797" lon="7.9643495"><ele>254.66666666666669</ele><time>2026-03-29T10:05:48.173Z</time></trkpt><trkpt lat="45.3164937" lon="7.9642506"><ele>254.5</ele><time>2026-03-29T10:05:49.171Z</time></trkpt><trkpt lat="45.3164892" lon="7.9641374"><ele>254.33333333333334</ele><time>2026-03-29T10:05:50.16Z</time></trkpt><trkpt lat="45.3164702" lon="7.9640169"><ele>254.16666666666669</ele><time>2026-03-29T10:05:51.168Z</time></trkpt><trkpt lat="45.3164588" lon="7.9639031"><ele>254.0</ele><time>2026-03-29T10:05:52.167Z</time></trkpt><trkpt lat="45.3164499" lon="7.9638096"><ele>254.0</ele><time>2026-03-29T10:05:53.166Z</time></trkpt><trkpt lat="45.3164513" lon="7.9636562"><ele>253.99999999999997</ele><time>2026-03-29T10:05:55.161Z</time></trkpt><trkpt lat="45.3164948" lon="7.963533"><ele>253.99999999999997</ele><time>2026-03-29T10:05:57.157Z</time></trkpt><trkpt lat="45.3165707" lon="7.9634775"><ele>254.0</ele><time>2026-03-29T10:05:59.156Z</time></trkpt><trkpt lat="45.3166898" lon="7.9634668"><ele>254.0</ele><time>2026-03-29T10:06:01.173Z</time></trkpt><trkpt lat="45.3167598" lon="7.963475"><ele>254.00000000000003</ele><time>2026-03-29T10:06:02.17Z</time></trkpt><trkpt lat="45.3168247" lon="7.9634982"><ele>254.0</ele><time>2026-03-29T10:06:03.157Z</time></trkpt><trkpt lat="45.3168864" lon="7.963563"><ele>254.0</ele><time>2026-03-29T10:06:04.178Z</time></trkpt><trkpt lat="45.3169425" lon="7.9636487"><ele>254.0</ele><time>2026-03-29T10:06:05.151Z</time></trkpt><trkpt lat="45.3169918" lon="7.9637521"><ele>254.00000000000003</ele><time>2026-03-29T10:06:06.158Z</time></trkpt><trkpt lat="45.3170355" lon="7.9638699"><ele>254.0</ele><time>2026-03-29T10:06:07.157Z</time></trkpt><trkpt lat="45.3170773" lon="7.9639982"><ele>254.0</ele><time>2026-03-29T10:06:08.157Z</time></trkpt><trkpt lat="45.3171288" lon="7.9641347"><ele>254.0</ele><time>2026-03-29T10:06:09.158Z</time></trkpt><trkpt lat="45.3171927" lon="7.9642774"><ele>254.0</ele><time>2026-03-29T10:06:10.162Z</time></trkpt><trkpt lat="45.3172855" lon="7.9644215"><ele>254.0</ele><time>2026-03-29T10:06:11.16Z</time></trkpt><trkpt lat="45.3173897" lon="7.9645785"><ele>252.79999999999998</ele><time>2026-03-29T10:06:12.189Z</time></trkpt><trkpt lat="45.3174653" lon="7.9647303"><ele>251.59999999999997</ele><time>2026-03-29T10:06:13.157Z</time></trkpt><trkpt lat="45.3175276" lon="7.9648576"><ele>250.4</ele><time>2026-03-29T10:06:14.157Z</time></trkpt><trkpt lat="45.3175948" lon="7.9649446"><ele>249.2</ele><time>2026-03-29T10:06:15.167Z</time></trkpt><trkpt lat="45.3176688" lon="7.9649912"><ele>248.0</ele><time>2026-03-29T10:06:16.17Z</time></trkpt><trkpt lat="45.3177457" lon="7.9650218"><ele>247.2</ele><time>2026-03-29T10:06:17.16Z</time></trkpt><trkpt lat="45.3178258" lon="7.9650533"><ele>246.4</ele><time>2026-03-29T10:06:18.161Z</time></trkpt><trkpt lat="45.3178994" lon="7.9651289"><ele>245.59999999999997</ele><time>2026-03-29T10:06:19.169Z</time></trkpt><trkpt lat="45.3179873" lon="7.9652491"><ele>244.79999999999998</ele><time>2026-03-29T10:06:20.194Z</time></trkpt><trkpt lat="45.318093" lon="7.9653917"><ele>244.0</ele><time>2026-03-29T10:06:21.161Z</time></trkpt><trkpt lat="45.3182083" lon="7.9655429"><ele>244.0</ele><time>2026-03-29T10:06:22.164Z</time></trkpt><trkpt lat="45.3183276" lon="7.9657045"><ele>244.0</ele><time>2026-03-29T10:06:23.159Z</time></trkpt><trkpt lat="45.3184342" lon="7.9658534"><ele>244.0</ele><time>2026-03-29T10:06:24.16Z</time></trkpt><trkpt lat="45.3185308" lon="7.9659858"><ele>244.0</ele><time>2026-03-29T10:06:25.16Z</time></trkpt><trkpt lat="45.318609" lon="7.966109"><ele>245.2</ele><time>2026-03-29T10:06:26.158Z</time></trkpt><trkpt lat="45.3186573" lon="7.9662231"><ele>246.39999999999998</ele><time>2026-03-29T10:06:27.158Z</time></trkpt><trkpt lat="45.3186911" lon="7.96634"><ele>247.6</ele><time>2026-03-29T10:06:28.155Z</time></trkpt><trkpt lat="45.3187128" lon="7.9664603"><ele>248.8</ele><time>2026-03-29T10:06:29.151Z</time></trkpt><trkpt lat="45.3187343" lon="7.9666022"><ele>250.0</ele><time>2026-03-29T10:06:30.174Z</time></trkpt><trkpt lat="45.3187602" lon="7.9667456"><ele>251.25</ele><time>2026-03-29T10:06:31.162Z</time></trkpt><trkpt lat="45.3188031" lon="7.9668854"><ele>252.5</ele><time>2026-03-29T10:06:32.177Z</time></trkpt><trkpt lat="45.3188769" lon="7.9670184"><ele>253.75</ele><time>2026-03-29T10:06:33.152Z</time></trkpt><trkpt lat="45.3189597" lon="7.9671585"><ele>255.0</ele><time>2026-03-29T10:06:34.169Z</time></trkpt><trkpt lat="45.319055" lon="7.9673061"><ele>255.25</ele><time>2026-03-29T10:06:35.174Z</time></trkpt><trkpt lat="45.3191581" lon="7.9674531"><ele>255.5</ele><time>2026-03-29T10:06:36.152Z</time></trkpt><trkpt lat="45.3192549" lon="7.9675846"><ele>255.75</ele><time>2026-03-29T10:06:37.165Z</time></trkpt><trkpt lat="45.3193508" lon="7.9676978"><ele>256.0</ele><time>2026-03-29T10:06:38.166Z</time></trkpt><trkpt lat="45.3194458" lon="7.9677945"><ele>256.0</ele><time>2026-03-29T10:06:39.182Z</time></trkpt><trkpt lat="45.3195399" lon="7.9679013"><ele>256.0</ele><time>2026-03-29T10:06:40.156Z</time></trkpt><trkpt lat="45.3196302" lon="7.9680258"><ele>256.0</ele><time>2026-03-29T10:06:41.148Z</time></trkpt><trkpt lat="45.319719" lon="7.968149"><ele>256.0</ele><time>2026-03-29T10:06:42.148Z</time></trkpt><trkpt lat="45.3198057" lon="7.9682754"><ele>255.75</ele><time>2026-03-29T10:06:43.176Z</time></trkpt><trkpt lat="45.3199028" lon="7.9683961"><ele>255.5</ele><time>2026-03-29T10:06:44.187Z</time></trkpt><trkpt lat="45.3199946" lon="7.9685193"><ele>255.25</ele><time>2026-03-29T10:06:45.177Z</time></trkpt><trkpt lat="45.3200875" lon="7.9686479"><ele>255.0</ele><time>2026-03-29T10:06:46.136Z</time></trkpt><trkpt lat="45.3201706" lon="7.9687612"><ele>255.0</ele><time>2026-03-29T10:06:47.17Z</time></trkpt><trkpt lat="45.3202484" lon="7.9688641"><ele>255.0</ele><time>2026-03-29T10:06:48.149Z</time></trkpt><trkpt lat="45.3203257" lon="7.9689665"><ele>255.0</ele><time>2026-03-29T10:06:49.147Z</time></trkpt><trkpt lat="45.3204163" lon="7.969047"><ele>255.0</ele><time>2026-03-29T10:06:50.144Z</time></trkpt><trkpt lat="45.3205162" lon="7.9691142"><ele>255.0</ele><time>2026-03-29T10:06:51.157Z</time></trkpt><trkpt lat="45.3206298" lon="7.9691767"><ele>255.0</ele><time>2026-03-29T10:06:52.149Z</time></trkpt><trkpt lat="45.3207441" lon="7.969242"><ele>255.0</ele><time>2026-03-29T10:06:53.151Z</time></trkpt><trkpt lat="45.3208497" lon="7.9693025"><ele>255.0</ele><time>2026-03-29T10:06:54.142Z</time></trkpt><trkpt lat="45.3209533" lon="7.9693609"><ele>255.0</ele><time>2026-03-29T10:06:55.154Z</time></trkpt><trkpt lat="45.3210481" lon="7.9694226"><ele>255.0</ele><time>2026-03-29T10:06:56.16Z</time></trkpt><trkpt lat="45.3211294" lon="7.9694768"><ele>255.0</ele><time>2026-03-29T10:06:57.156Z</time></trkpt><trkpt lat="45.321215" lon="7.9695541"><ele>255.0</ele><time>2026-03-29T10:06:58.151Z</time></trkpt><trkpt lat="45.3213106" lon="7.9696406"><ele>255.0</ele><time>2026-03-29T10:06:59.168Z</time></trkpt><trkpt lat="45.3213985" lon="7.9697274"><ele>255.0</ele><time>2026-03-29T10:07:00.158Z</time></trkpt><trkpt lat="45.321496" lon="7.9698215"><ele>254.75</ele><time>2026-03-29T10:07:01.15Z</time></trkpt><trkpt lat="45.3216077" lon="7.9699155"><ele>254.5</ele><time>2026-03-29T10:07:02.172Z</time></trkpt><trkpt lat="45.3217104" lon="7.9700059"><ele>254.25</ele><time>2026-03-29T10:07:03.158Z</time></trkpt><trkpt lat="45.3218116" lon="7.9700894"><ele>254.0</ele><time>2026-03-29T10:07:04.157Z</time></trkpt><trkpt lat="45.321912" lon="7.9701829"><ele>254.0</ele><time>2026-03-29T10:07:05.153Z</time></trkpt><trkpt lat="45.3220168" lon="7.9702765"><ele>254.0</ele><time>2026-03-29T10:07:06.156Z</time></trkpt><trkpt lat="45.322125" lon="7.9703652"><ele>254.0</ele><time>2026-03-29T10:07:07.163Z</time></trkpt><trkpt lat="45.322237" lon="7.9704405"><ele>254.0</ele><time>2026-03-29T10:07:08.154Z</time></trkpt><trkpt lat="45.3223511" lon="7.970508"><ele>254.5</ele><time>2026-03-29T10:07:09.157Z</time></trkpt><trkpt lat="45.322457" lon="7.970593"><ele>255.0</ele><time>2026-03-29T10:07:10.161Z</time></trkpt><trkpt lat="45.3225648" lon="7.9706827"><ele>255.5</ele><time>2026-03-29T10:07:11.159Z</time></trkpt><trkpt lat="45.3226707" lon="7.9707731"><ele>256.0</ele><time>2026-03-29T10:07:12.172Z</time></trkpt><trkpt lat="45.3227826" lon="7.9708608"><ele>256.0</ele><time>2026-03-29T10:07:13.155Z</time></trkpt><trkpt lat="45.3228927" lon="7.9709518"><ele>256.0</ele><time>2026-03-29T10:07:14.199Z</time></trkpt><trkpt lat="45.3229934" lon="7.971039"><ele>256.0</ele><time>2026-03-29T10:07:15.143Z</time></trkpt><trkpt lat="45.3230977" lon="7.9711434"><ele>256.0</ele><time>2026-03-29T10:07:16.163Z</time></trkpt><trkpt lat="45.3231919" lon="7.9712677"><ele>253.25</ele><time>2026-03-29T10:07:17.162Z</time></trkpt><trkpt lat="45.3232752" lon="7.9713914"><ele>250.5</ele><time>2026-03-29T10:07:18.15Z</time></trkpt><trkpt lat="45.3233558" lon="7.9715247"><ele>247.75</ele><time>2026-03-29T10:07:19.156Z</time></trkpt><trkpt lat="45.323436" lon="7.9716586"><ele>245.0</ele><time>2026-03-29T10:07:20.162Z</time></trkpt><trkpt lat="45.3235155" lon="7.9717894"><ele>245.0</ele><time>2026-03-29T10:07:21.16Z</time></trkpt><trkpt lat="45.323595" lon="7.9719259"><ele>245.0</ele><time>2026-03-29T10:07:22.161Z</time></trkpt><trkpt lat="45.323677" lon="7.9720631"><ele>245.0</ele><time>2026-03-29T10:07:23.189Z</time></trkpt><trkpt lat="45.3237602" lon="7.9722087"><ele>245.0</ele><time>2026-03-29T10:07:24.159Z</time></trkpt><trkpt lat="45.3238347" lon="7.9723599"><ele>241.75</ele><time>2026-03-29T10:07:25.166Z</time></trkpt><trkpt lat="45.3239069" lon="7.9724949"><ele>238.5</ele><time>2026-03-29T10:07:26.18Z</time></trkpt><trkpt lat="45.3239839" lon="7.9726349"><ele>235.25</ele><time>2026-03-29T10:07:27.153Z</time></trkpt><trkpt lat="45.3240595" lon="7.9727861"><ele>232.0</ele><time>2026-03-29T10:07:28.151Z</time></trkpt><trkpt lat="45.3241422" lon="7.9729496"><ele>232.0</ele><time>2026-03-29T10:07:29.17Z</time></trkpt><trkpt lat="45.3242169" lon="7.9731198"><ele>232.0</ele><time>2026-03-29T10:07:30.161Z</time></trkpt><trkpt lat="45.3242897" lon="7.9732789"><ele>232.0</ele><time>2026-03-29T10:07:31.16Z</time></trkpt><trkpt lat="45.3243569" lon="7.9734268"><ele>232.0</ele><time>2026-03-29T10:07:32.159Z</time></trkpt><trkpt lat="45.3244067" lon="7.9735619"><ele>232.2</ele><time>2026-03-29T10:07:33.156Z</time></trkpt><trkpt lat="45.324438" lon="7.9736798"><ele>232.39999999999998</ele><time>2026-03-29T10:07:34.184Z</time></trkpt><trkpt lat="45.3244639" lon="7.9738033"><ele>232.60000000000002</ele><time>2026-03-29T10:07:36.153Z</time></trkpt><trkpt lat="45.3245271" lon="7.9739299"><ele>232.8</ele><time>2026-03-29T10:07:46.157Z</time></trkpt><trkpt lat="45.3245701" lon="7.9740212"><ele>233.0</ele><time>2026-03-29T10:07:47.155Z</time></trkpt><trkpt lat="45.3246245" lon="7.9741167"><ele>233.00000000000003</ele><time>2026-03-29T10:07:48.177Z</time></trkpt><trkpt lat="45.3246706" lon="7.9742274"><ele>233.0</ele><time>2026-03-29T10:07:49.149Z</time></trkpt><trkpt lat="45.3247121" lon="7.9743408"><ele>233.0</ele><time>2026-03-29T10:07:50.147Z</time></trkpt><trkpt lat="45.3247462" lon="7.9744406"><ele>233.0</ele><time>2026-03-29T10:07:51.162Z</time></trkpt><trkpt lat="45.3247727" lon="7.9745403"><ele>233.00000000000003</ele><time>2026-03-29T10:07:52.16Z</time></trkpt><trkpt lat="45.3247806" lon="7.9746451"><ele>233.0</ele><time>2026-03-29T10:07:53.151Z</time></trkpt><trkpt lat="45.3247462" lon="7.9747587"><ele>233.0</ele><time>2026-03-29T10:07:54.162Z</time></trkpt><trkpt lat="45.3246857" lon="7.9748873"><ele>233.0</ele><time>2026-03-29T10:07:55.164Z</time></trkpt><trkpt lat="45.3246173" lon="7.9750208"><ele>233.0</ele><time>2026-03-29T10:07:56.163Z</time></trkpt><trkpt lat="45.3245397" lon="7.9751574"><ele>233.0</ele><time>2026-03-29T10:07:57.165Z</time></trkpt><trkpt lat="45.3244718" lon="7.9752738"><ele>233.60000000000002</ele><time>2026-03-29T10:07:58.161Z</time></trkpt><trkpt lat="45.3244086" lon="7.9753985"><ele>234.20000000000002</ele><time>2026-03-29T10:07:59.192Z</time></trkpt><trkpt lat="45.3243423" lon="7.9755214"><ele>234.8</ele><time>2026-03-29T10:08:00.153Z</time></trkpt><trkpt lat="45.3242781" lon="7.9756466"><ele>235.4</ele><time>2026-03-29T10:08:01.158Z</time></trkpt><trkpt lat="45.3242101" lon="7.9757643"><ele>236.0</ele><time>2026-03-29T10:08:02.159Z</time></trkpt><trkpt lat="45.3241572" lon="7.9758684"><ele>236.20000000000002</ele><time>2026-03-29T10:08:03.159Z</time></trkpt><trkpt lat="45.3241115" lon="7.9759477"><ele>236.40000000000003</ele><time>2026-03-29T10:08:04.175Z</time></trkpt><trkpt lat="45.3240664" lon="7.9760798"><ele>236.6</ele><time>2026-03-29T10:08:06.187Z</time></trkpt><trkpt lat="45.3240895" lon="7.9762355"><ele>236.8</ele><time>2026-03-29T10:08:08.145Z</time></trkpt><trkpt lat="45.3241457" lon="7.9763243"><ele>237.0</ele><time>2026-03-29T10:08:09.159Z</time></trkpt><trkpt lat="45.324203" lon="7.9764315"><ele>237.0</ele><time>2026-03-29T10:08:10.157Z</time></trkpt><trkpt lat="45.3242665" lon="7.9765465"><ele>237.0</ele><time>2026-03-29T10:08:11.16Z</time></trkpt><trkpt lat="45.3243253" lon="7.9766721"><ele>237.0</ele><time>2026-03-29T10:08:12.154Z</time></trkpt><trkpt lat="45.324391" lon="7.9767967"><ele>237.0</ele><time>2026-03-29T10:08:13.146Z</time></trkpt><trkpt lat="45.3244508" lon="7.9769229"><ele>237.0</ele><time>2026-03-29T10:08:14.153Z</time></trkpt><trkpt lat="45.324507" lon="7.9770462"><ele>237.66666666666666</ele><time>2026-03-29T10:08:15.163Z</time></trkpt><trkpt lat="45.3245467" lon="7.9771624"><ele>238.33333333333331</ele><time>2026-03-29T10:08:16.157Z</time></trkpt><trkpt lat="45.3245671" lon="7.9772849"><ele>239.0</ele><time>2026-03-29T10:08:17.161Z</time></trkpt><trkpt lat="45.3245709" lon="7.9773973"><ele>239.66666666666666</ele><time>2026-03-29T10:08:18.14Z</time></trkpt><trkpt lat="45.3245661" lon="7.9775087"><ele>240.33333333333331</ele><time>2026-03-29T10:08:19.146Z</time></trkpt><trkpt lat="45.324553" lon="7.9776308"><ele>241.0</ele><time>2026-03-29T10:08:20.153Z</time></trkpt><trkpt lat="45.3245265" lon="7.9777664"><ele>241.4</ele><time>2026-03-29T10:08:21.159Z</time></trkpt><trkpt lat="45.3245094" lon="7.9779142"><ele>241.8</ele><time>2026-03-29T10:08:22.151Z</time></trkpt><trkpt lat="45.3245072" lon="7.9780586"><ele>242.20000000000002</ele><time>2026-03-29T10:08:23.167Z</time></trkpt><trkpt lat="45.3245131" lon="7.9782004"><ele>242.60000000000002</ele><time>2026-03-29T10:08:24.151Z</time></trkpt><trkpt lat="45.3245268" lon="7.9783419"><ele>243.0</ele><time>2026-03-29T10:08:25.156Z</time></trkpt><trkpt lat="45.3245529" lon="7.9784965"><ele>243.0</ele><time>2026-03-29T10:08:26.161Z</time></trkpt><trkpt lat="45.3245796" lon="7.9786409"><ele>243.0</ele><time>2026-03-29T10:08:27.157Z</time></trkpt><trkpt lat="45.3246041" lon="7.9787743"><ele>243.0</ele><time>2026-03-29T10:08:28.136Z</time></trkpt><trkpt lat="45.3246364" lon="7.9788907"><ele>243.0</ele><time>2026-03-29T10:08:29.166Z</time></trkpt><trkpt lat="45.324692" lon="7.9790118"><ele>243.0</ele><time>2026-03-29T10:08:30.165Z</time></trkpt><trkpt lat="45.3247628" lon="7.9791469"><ele>245.25</ele><time>2026-03-29T10:08:31.168Z</time></trkpt><trkpt lat="45.3248323" lon="7.9792816"><ele>247.5</ele><time>2026-03-29T10:08:32.175Z</time></trkpt><trkpt lat="45.3248917" lon="7.9794264"><ele>249.75</ele><time>2026-03-29T10:08:33.165Z</time></trkpt><trkpt lat="45.3249447" lon="7.9795823"><ele>252.0</ele><time>2026-03-29T10:08:34.175Z</time></trkpt><trkpt lat="45.3249773" lon="7.9797548"><ele>252.0</ele><time>2026-03-29T10:08:35.175Z</time></trkpt><trkpt lat="45.3250116" lon="7.9799124"><ele>252.0</ele><time>2026-03-29T10:08:36.168Z</time></trkpt><trkpt lat="45.3250391" lon="7.9800718"><ele>252.0</ele><time>2026-03-29T10:08:37.158Z</time></trkpt><trkpt lat="45.3250602" lon="7.9802299"><ele>252.0</ele><time>2026-03-29T10:08:38.156Z</time></trkpt><trkpt lat="45.3250613" lon="7.9803748"><ele>252.0</ele><time>2026-03-29T10:08:39.158Z</time></trkpt><trkpt lat="45.3250349" lon="7.9805078"><ele>252.6</ele><time>2026-03-29T10:08:40.157Z</time></trkpt><trkpt lat="45.3250099" lon="7.9806542"><ele>253.2</ele><time>2026-03-29T10:08:41.156Z</time></trkpt><trkpt lat="45.3249738" lon="7.9808101"><ele>253.8</ele><time>2026-03-29T10:08:42.163Z</time></trkpt><trkpt lat="45.3249391" lon="7.9809644"><ele>254.4</ele><time>2026-03-29T10:08:43.173Z</time></trkpt><trkpt lat="45.3249178" lon="7.9811085"><ele>255.0</ele><time>2026-03-29T10:08:44.15Z</time></trkpt><trkpt lat="45.3249117" lon="7.9812511"><ele>255.4</ele><time>2026-03-29T10:08:45.165Z</time></trkpt><trkpt lat="45.3249166" lon="7.981393"><ele>255.8</ele><time>2026-03-29T10:08:46.167Z</time></trkpt><trkpt lat="45.3249363" lon="7.9815377"><ele>256.2</ele><time>2026-03-29T10:08:47.154Z</time></trkpt><trkpt lat="45.3249603" lon="7.9816805"><ele>256.6</ele><time>2026-03-29T10:08:48.179Z</time></trkpt><trkpt lat="45.324972" lon="7.9818253"><ele>257.0</ele><time>2026-03-29T10:08:49.146Z</time></trkpt><trkpt lat="45.3249873" lon="7.9819745"><ele>257.4</ele><time>2026-03-29T10:08:50.162Z</time></trkpt><trkpt lat="45.3249871" lon="7.9821179"><ele>257.79999999999995</ele><time>2026-03-29T10:08:51.158Z</time></trkpt><trkpt lat="45.3249888" lon="7.9822529"><ele>258.2</ele><time>2026-03-29T10:08:52.178Z</time></trkpt><trkpt lat="45.3249875" lon="7.9824008"><ele>258.59999999999997</ele><time>2026-03-29T10:08:53.156Z</time></trkpt><trkpt lat="45.3249941" lon="7.982546"><ele>259.0</ele><time>2026-03-29T10:08:54.156Z</time></trkpt><trkpt lat="45.325007" lon="7.9826902"><ele>260.0</ele><time>2026-03-29T10:08:55.154Z</time></trkpt><trkpt lat="45.325029" lon="7.9828371"><ele>261.0</ele><time>2026-03-29T10:08:56.155Z</time></trkpt><trkpt lat="45.3250596" lon="7.9829781"><ele>262.0</ele><time>2026-03-29T10:08:57.144Z</time></trkpt><trkpt lat="45.3250914" lon="7.9830914"><ele>263.0</ele><time>2026-03-29T10:08:58.158Z</time></trkpt><trkpt lat="45.3251272" lon="7.9831901"><ele>264.0</ele><time>2026-03-29T10:08:59.149Z</time></trkpt><trkpt lat="45.3251727" lon="7.9832807"><ele>265.0</ele><time>2026-03-29T10:09:00.146Z</time></trkpt><trkpt lat="45.3252237" lon="7.9833965"><ele>266.0</ele><time>2026-03-29T10:09:01.146Z</time></trkpt><trkpt lat="45.325278" lon="7.9835296"><ele>267.0</ele><time>2026-03-29T10:09:02.156Z</time></trkpt><trkpt lat="45.3253236" lon="7.9836702"><ele>268.0</ele><time>2026-03-29T10:09:03.17Z</time></trkpt><trkpt lat="45.3253614" lon="7.9838139"><ele>269.0</ele><time>2026-03-29T10:09:04.16Z</time></trkpt><trkpt lat="45.3253948" lon="7.9839482"><ele>269.0</ele><time>2026-03-29T10:09:05.145Z</time></trkpt><trkpt lat="45.325419" lon="7.9840609"><ele>269.0</ele><time>2026-03-29T10:09:06.161Z</time></trkpt><trkpt lat="45.3254476" lon="7.9841508"><ele>269.0</ele><time>2026-03-29T10:09:07.164Z</time></trkpt><trkpt lat="45.3254808" lon="7.9842476"><ele>269.0</ele><time>2026-03-29T10:09:08.165Z</time></trkpt><trkpt lat="45.3255221" lon="7.9843538"><ele>269.0</ele><time>2026-03-29T10:09:09.181Z</time></trkpt><trkpt lat="45.3255697" lon="7.9844593"><ele>269.0</ele><time>2026-03-29T10:09:10.165Z</time></trkpt><trkpt lat="45.3256237" lon="7.9845727"><ele>268.59999999999997</ele><time>2026-03-29T10:09:11.184Z</time></trkpt><trkpt lat="45.3256893" lon="7.9846874"><ele>268.2</ele><time>2026-03-29T10:09:12.172Z</time></trkpt><trkpt lat="45.3257657" lon="7.9847911"><ele>267.79999999999995</ele><time>2026-03-29T10:09:13.171Z</time></trkpt><trkpt lat="45.3258386" lon="7.9848807"><ele>267.4</ele><time>2026-03-29T10:09:14.16Z</time></trkpt><trkpt lat="45.3259193" lon="7.9849679"><ele>267.0</ele><time>2026-03-29T10:09:15.162Z</time></trkpt><trkpt lat="45.3260066" lon="7.9850491"><ele>267.6</ele><time>2026-03-29T10:09:16.165Z</time></trkpt><trkpt lat="45.3260929" lon="7.9851385"><ele>268.2</ele><time>2026-03-29T10:09:17.163Z</time></trkpt><trkpt lat="45.3261813" lon="7.9852211"><ele>268.8</ele><time>2026-03-29T10:09:18.16Z</time></trkpt><trkpt lat="45.326273" lon="7.985305"><ele>269.4</ele><time>2026-03-29T10:09:19.155Z</time></trkpt><trkpt lat="45.3263689" lon="7.9853784"><ele>270.0</ele><time>2026-03-29T10:09:20.155Z</time></trkpt><trkpt lat="45.3264694" lon="7.9854481"><ele>270.0</ele><time>2026-03-29T10:09:21.175Z</time></trkpt><trkpt lat="45.3265753" lon="7.9855163"><ele>270.0</ele><time>2026-03-29T10:09:22.151Z</time></trkpt><trkpt lat="45.3266726" lon="7.9855807"><ele>270.0</ele><time>2026-03-29T10:09:23.144Z</time></trkpt><trkpt lat="45.3267734" lon="7.9856447"><ele>270.0</ele><time>2026-03-29T10:09:24.156Z</time></trkpt><trkpt lat="45.3268727" lon="7.9857121"><ele>270.0</ele><time>2026-03-29T10:09:25.157Z</time></trkpt><trkpt lat="45.326978" lon="7.9857734"><ele>271.75</ele><time>2026-03-29T10:09:26.158Z</time></trkpt><trkpt lat="45.3270892" lon="7.9858522"><ele>273.5</ele><time>2026-03-29T10:09:27.155Z</time></trkpt><trkpt lat="45.3272002" lon="7.9859349"><ele>275.25</ele><time>2026-03-29T10:09:28.175Z</time></trkpt><trkpt lat="45.3273127" lon="7.9860267"><ele>277.0</ele><time>2026-03-29T10:09:29.166Z</time></trkpt><trkpt lat="45.3274098" lon="7.9861103"><ele>277.0</ele><time>2026-03-29T10:09:30.163Z</time></trkpt><trkpt lat="45.327504" lon="7.9861837"><ele>277.0</ele><time>2026-03-29T10:09:31.165Z</time></trkpt><trkpt lat="45.3275798" lon="7.9862597"><ele>277.0</ele><time>2026-03-29T10:09:32.173Z</time></trkpt><trkpt lat="45.3276396" lon="7.9863516"><ele>277.0</ele><time>2026-03-29T10:09:33.158Z</time></trkpt><trkpt lat="45.3276869" lon="7.9864576"><ele>277.0</ele><time>2026-03-29T10:09:34.156Z</time></trkpt><trkpt lat="45.3277199" lon="7.9865564"><ele>277.0</ele><time>2026-03-29T10:09:35.16Z</time></trkpt><trkpt lat="45.3277437" lon="7.9866397"><ele>277.0</ele><time>2026-03-29T10:09:36.167Z</time></trkpt><trkpt lat="45.32778" lon="7.9867444"><ele>277.0</ele><time>2026-03-29T10:09:38.185Z</time></trkpt><trkpt lat="45.3278274" lon="7.9868851"><ele>277.0</ele><time>2026-03-29T10:09:40.154Z</time></trkpt><trkpt lat="45.3278744" lon="7.9869841"><ele>277.0</ele><time>2026-03-29T10:09:41.175Z</time></trkpt><trkpt lat="45.3279193" lon="7.987104"><ele>277.0</ele><time>2026-03-29T10:09:42.156Z</time></trkpt><trkpt lat="45.3279848" lon="7.9872363"><ele>277.4</ele><time>2026-03-29T10:09:43.156Z</time></trkpt><trkpt lat="45.3280477" lon="7.9873592"><ele>277.79999999999995</ele><time>2026-03-29T10:09:44.158Z</time></trkpt><trkpt lat="45.3281144" lon="7.987478"><ele>278.2</ele><time>2026-03-29T10:09:45.146Z</time></trkpt><trkpt lat="45.328189" lon="7.9875854"><ele>278.59999999999997</ele><time>2026-03-29T10:09:46.16Z</time></trkpt><trkpt lat="45.3282593" lon="7.9876767"><ele>279.0</ele><time>2026-03-29T10:09:47.145Z</time></trkpt><trkpt lat="45.3283413" lon="7.987763"><ele>280.0</ele><time>2026-03-29T10:09:48.157Z</time></trkpt><trkpt lat="45.328426" lon="7.9878461"><ele>281.0</ele><time>2026-03-29T10:09:49.157Z</time></trkpt><trkpt lat="45.3285213" lon="7.9879235"><ele>282.0</ele><time>2026-03-29T10:09:50.157Z</time></trkpt><trkpt lat="45.3286068" lon="7.9880035"><ele>283.0</ele><time>2026-03-29T10:09:51.165Z</time></trkpt><trkpt lat="45.328697" lon="7.9880846"><ele>284.0</ele><time>2026-03-29T10:09:52.166Z</time></trkpt><trkpt lat="45.3287689" lon="7.9881745"><ele>284.0</ele><time>2026-03-29T10:09:53.164Z</time></trkpt><trkpt lat="45.3288245" lon="7.9882651"><ele>284.0</ele><time>2026-03-29T10:09:54.165Z</time></trkpt><trkpt lat="45.3288788" lon="7.9883603"><ele>284.0</ele><time>2026-03-29T10:09:55.163Z</time></trkpt><trkpt lat="45.3289187" lon="7.988454"><ele>284.0</ele><time>2026-03-29T10:09:56.162Z</time></trkpt><trkpt lat="45.3289416" lon="7.9885562"><ele>284.0</ele><time>2026-03-29T10:09:57.156Z</time></trkpt><trkpt lat="45.3289552" lon="7.9886665"><ele>284.0</ele><time>2026-03-29T10:09:58.155Z</time></trkpt><trkpt lat="45.3289579" lon="7.9887878"><ele>284.8</ele><time>2026-03-29T10:09:59.166Z</time></trkpt><trkpt lat="45.3289521" lon="7.9889119"><ele>285.59999999999997</ele><time>2026-03-29T10:10:00.166Z</time></trkpt><trkpt lat="45.3289384" lon="7.9890465"><ele>286.4</ele><time>2026-03-29T10:10:01.173Z</time></trkpt><trkpt lat="45.3289319" lon="7.9891774"><ele>287.2</ele><time>2026-03-29T10:10:02.155Z</time></trkpt><trkpt lat="45.3289354" lon="7.9893141"><ele>288.0</ele><time>2026-03-29T10:10:03.171Z</time></trkpt><trkpt lat="45.3289467" lon="7.9894357"><ele>289.1666666666667</ele><time>2026-03-29T10:10:04.158Z</time></trkpt><trkpt lat="45.328962" lon="7.9895483"><ele>290.3333333333333</ele><time>2026-03-29T10:10:05.15Z</time></trkpt><trkpt lat="45.3289827" lon="7.9896672"><ele>291.5</ele><time>2026-03-29T10:10:06.161Z</time></trkpt><trkpt lat="45.3290002" lon="7.9897816"><ele>292.66666666666663</ele><time>2026-03-29T10:10:07.163Z</time></trkpt><trkpt lat="45.3290147" lon="7.9899025"><ele>293.8333333333333</ele><time>2026-03-29T10:10:08.154Z</time></trkpt><trkpt lat="45.3290335" lon="7.9900151"><ele>295.0</ele><time>2026-03-29T10:10:09.155Z</time></trkpt><trkpt lat="45.3290363" lon="7.9901334"><ele>296.0</ele><time>2026-03-29T10:10:10.162Z</time></trkpt><trkpt lat="45.3290302" lon="7.9902458"><ele>297.0</ele><time>2026-03-29T10:10:11.148Z</time></trkpt><trkpt lat="45.3290181" lon="7.9903566"><ele>298.0</ele><time>2026-03-29T10:10:12.166Z</time></trkpt><trkpt lat="45.3290047" lon="7.9904822"><ele>299.0</ele><time>2026-03-29T10:10:13.154Z</time></trkpt><trkpt lat="45.3289972" lon="7.9906051"><ele>300.0</ele><time>2026-03-29T10:10:14.149Z</time></trkpt><trkpt lat="45.3290011" lon="7.9907389"><ele>301.0</ele><time>2026-03-29T10:10:15.159Z</time></trkpt><trkpt lat="45.3290117" lon="7.9908783"><ele>302.0</ele><time>2026-03-29T10:10:16.163Z</time></trkpt><trkpt lat="45.3290289" lon="7.9910202"><ele>303.0</ele><time>2026-03-29T10:10:17.144Z</time></trkpt><trkpt lat="45.3290591" lon="7.9911544"><ele>304.0</ele><time>2026-03-29T10:10:18.147Z</time></trkpt><trkpt lat="45.3290801" lon="7.9913033"><ele>305.0</ele><time>2026-03-29T10:10:19.153Z</time></trkpt><trkpt lat="45.3291027" lon="7.9914522"><ele>306.0</ele><time>2026-03-29T10:10:20.149Z</time></trkpt><trkpt lat="45.3291261" lon="7.9915925"><ele>306.8</ele><time>2026-03-29T10:10:21.155Z</time></trkpt><trkpt lat="45.3291511" lon="7.9917321"><ele>307.6</ele><time>2026-03-29T10:10:22.155Z</time></trkpt><trkpt lat="45.3291757" lon="7.9918739"><ele>308.4</ele><time>2026-03-29T10:10:23.152Z</time></trkpt><trkpt lat="45.3291999" lon="7.9920247"><ele>309.2</ele><time>2026-03-29T10:10:24.152Z</time></trkpt><trkpt lat="45.3292246" lon="7.9921808"><ele>310.0</ele><time>2026-03-29T10:10:25.154Z</time></trkpt><trkpt lat="45.3292486" lon="7.9923168"><ele>310.0</ele><time>2026-03-29T10:10:26.145Z</time></trkpt><trkpt lat="45.3292746" lon="7.9924321"><ele>310.0</ele><time>2026-03-29T10:10:27.147Z</time></trkpt><trkpt lat="45.3292908" lon="7.9925503"><ele>310.0</ele><time>2026-03-29T10:10:28.181Z</time></trkpt><trkpt lat="45.329293" lon="7.9926701"><ele>310.0</ele><time>2026-03-29T10:10:29.16Z</time></trkpt><trkpt lat="45.3292899" lon="7.9927689"><ele>310.0</ele><time>2026-03-29T10:10:30.165Z</time></trkpt><trkpt lat="45.3293176" lon="7.9929122"><ele>310.0</ele><time>2026-03-29T10:10:32.166Z</time></trkpt><trkpt lat="45.3293748" lon="7.9930886"><ele>310.5</ele><time>2026-03-29T10:10:34.17Z</time></trkpt><trkpt lat="45.3293996" lon="7.9931899"><ele>311.0</ele><time>2026-03-29T10:10:35.195Z</time></trkpt><trkpt lat="45.329428" lon="7.9932978"><ele>311.5</ele><time>2026-03-29T10:10:36.162Z</time></trkpt><trkpt lat="45.3294539" lon="7.9934058"><ele>312.0</ele><time>2026-03-29T10:10:37.145Z</time></trkpt><trkpt lat="45.3294774" lon="7.9935175"><ele>312.5</ele><time>2026-03-29T10:10:38.153Z</time></trkpt><trkpt lat="45.3294964" lon="7.9936157"><ele>313.0</ele><time>2026-03-29T10:10:39.173Z</time></trkpt><trkpt lat="45.3295082" lon="7.9937087"><ele>313.3333333333333</ele><time>2026-03-29T10:10:41.164Z</time></trkpt><trkpt lat="45.329415" lon="7.993761"><ele>313.66666666666663</ele><time>2026-03-29T10:10:44.158Z</time></trkpt><trkpt lat="45.329346" lon="7.9937598"><ele>314.0</ele><time>2026-03-29T10:10:45.161Z</time></trkpt><trkpt lat="45.3292057" lon="7.9937604"><ele>314.3333333333333</ele><time>2026-03-29T10:10:47.179Z</time></trkpt><trkpt lat="45.3291382" lon="7.9937646"><ele>314.6666666666667</ele><time>2026-03-29T10:10:48.162Z</time></trkpt><trkpt lat="45.3290743" lon="7.9937689"><ele>315.0</ele><time>2026-03-29T10:10:49.186Z</time></trkpt><trkpt lat="45.3290021" lon="7.9937807"><ele>315.0</ele><time>2026-03-29T10:10:50.168Z</time></trkpt><trkpt lat="45.328936" lon="7.9938161"><ele>315.0</ele><time>2026-03-29T10:10:51.169Z</time></trkpt><trkpt lat="45.3288447" lon="7.9939074"><ele>315.0</ele><time>2026-03-29T10:10:53.159Z</time></trkpt><trkpt lat="45.3288057" lon="7.9939804"><ele>315.0</ele><time>2026-03-29T10:10:54.16Z</time></trkpt><trkpt lat="45.3287785" lon="7.9940855"><ele>315.0</ele><time>2026-03-29T10:10:55.155Z</time></trkpt><trkpt lat="45.3287584" lon="7.9942319"><ele>315.0</ele><time>2026-03-29T10:10:56.156Z</time></trkpt><trkpt lat="45.3287376" lon="7.9943611"><ele>315.8</ele><time>2026-03-29T10:10:57.147Z</time></trkpt><trkpt lat="45.3287125" lon="7.9944916"><ele>316.6</ele><time>2026-03-29T10:10:58.145Z</time></trkpt><trkpt lat="45.3286947" lon="7.9946101"><ele>317.4</ele><time>2026-03-29T10:10:59.159Z</time></trkpt><trkpt lat="45.3286233" lon="7.9947591"><ele>318.2</ele><time>2026-03-29T10:11:01.158Z</time></trkpt><trkpt lat="45.3285598" lon="7.9948208"><ele>319.0</ele><time>2026-03-29T10:11:02.158Z</time></trkpt><trkpt lat="45.32849" lon="7.9948675"><ele>319.0</ele><time>2026-03-29T10:11:03.146Z</time></trkpt><trkpt lat="45.3284183" lon="7.9949365"><ele>319.0</ele><time>2026-03-29T10:11:04.156Z</time></trkpt><trkpt lat="45.3283386" lon="7.9950025"><ele>319.0</ele><time>2026-03-29T10:11:05.151Z</time></trkpt><trkpt lat="45.3282493" lon="7.9950645"><ele>319.0</ele><time>2026-03-29T10:11:06.151Z</time></trkpt><trkpt lat="45.3281545" lon="7.9951068"><ele>319.0</ele><time>2026-03-29T10:11:07.177Z</time></trkpt><trkpt lat="45.3280679" lon="7.9951492"><ele>317.59999999999997</ele><time>2026-03-29T10:11:08.169Z</time></trkpt><trkpt lat="45.3279856" lon="7.9951921"><ele>316.2</ele><time>2026-03-29T10:11:09.153Z</time></trkpt><trkpt lat="45.3278904" lon="7.9952411"><ele>314.79999999999995</ele><time>2026-03-29T10:11:10.173Z</time></trkpt><trkpt lat="45.3277991" lon="7.9952639"><ele>313.4</ele><time>2026-03-29T10:11:11.157Z</time></trkpt><trkpt lat="45.3277088" lon="7.9952995"><ele>312.0</ele><time>2026-03-29T10:11:12.169Z</time></trkpt><trkpt lat="45.3276237" lon="7.9953259"><ele>312.0</ele><time>2026-03-29T10:11:13.167Z</time></trkpt><trkpt lat="45.3275403" lon="7.9953559"><ele>312.0</ele><time>2026-03-29T10:11:14.176Z</time></trkpt><trkpt lat="45.32747" lon="7.9954085"><ele>312.0</ele><time>2026-03-29T10:11:15.188Z</time></trkpt><trkpt lat="45.3274063" lon="7.9954751"><ele>312.0</ele><time>2026-03-29T10:11:16.168Z</time></trkpt><trkpt lat="45.3273397" lon="7.9955413"><ele>312.0</ele><time>2026-03-29T10:11:17.155Z</time></trkpt><trkpt lat="45.3272783" lon="7.9956038"><ele>312.0</ele><time>2026-03-29T10:11:18.165Z</time></trkpt><trkpt lat="45.3272228" lon="7.995675"><ele>311.3333333333333</ele><time>2026-03-29T10:11:19.164Z</time></trkpt><trkpt lat="45.3271815" lon="7.9957657"><ele>310.6666666666667</ele><time>2026-03-29T10:11:20.163Z</time></trkpt><trkpt lat="45.3271672" lon="7.9958628"><ele>310.0</ele><time>2026-03-29T10:11:21.165Z</time></trkpt><trkpt lat="45.3271566" lon="7.9959554"><ele>309.33333333333337</ele><time>2026-03-29T10:11:22.175Z</time></trkpt><trkpt lat="45.3271442" lon="7.9961245"><ele>308.6666666666667</ele><time>2026-03-29T10:11:24.169Z</time></trkpt><trkpt lat="45.3271335" lon="7.9962579"><ele>308.0</ele><time>2026-03-29T10:11:26.152Z</time></trkpt><trkpt lat="45.3270863" lon="7.9963492"><ele>307.5</ele><time>2026-03-29T10:11:29.148Z</time></trkpt><trkpt lat="45.3271101" lon="7.9964982"><ele>307.0</ele><time>2026-03-29T10:11:32.152Z</time></trkpt><trkpt lat="45.3271622" lon="7.996551"><ele>306.5</ele><time>2026-03-29T10:11:33.159Z</time></trkpt><trkpt lat="45.3272291" lon="7.9965848"><ele>306.0</ele><time>2026-03-29T10:11:34.164Z</time></trkpt><trkpt lat="45.3273002" lon="7.9966425"><ele>305.5</ele><time>2026-03-29T10:11:35.152Z</time></trkpt><trkpt lat="45.3273813" lon="7.9967175"><ele>305.0</ele><time>2026-03-29T10:11:36.18Z</time></trkpt><trkpt lat="45.3274602" lon="7.9968066"><ele>303.8</ele><time>2026-03-29T10:11:37.155Z</time></trkpt><trkpt lat="45.3275384" lon="7.9968986"><ele>302.6</ele><time>2026-03-29T10:11:38.156Z</time></trkpt><trkpt lat="45.3276215" lon="7.9969929"><ele>301.4</ele><time>2026-03-29T10:11:39.178Z</time></trkpt><trkpt lat="45.3277048" lon="7.9970968"><ele>300.2</ele><time>2026-03-29T10:11:40.165Z</time></trkpt><trkpt lat="45.3277921" lon="7.9972176"><ele>299.0</ele><time>2026-03-29T10:11:41.174Z</time></trkpt><trkpt lat="45.3278783" lon="7.9973427"><ele>299.0</ele><time>2026-03-29T10:11:42.168Z</time></trkpt><trkpt lat="45.3279713" lon="7.9974746"><ele>299.0</ele><time>2026-03-29T10:11:43.144Z</time></trkpt><trkpt lat="45.3280672" lon="7.9975978"><ele>299.0</ele><time>2026-03-29T10:11:44.15Z</time></trkpt><trkpt lat="45.3281651" lon="7.9977158"><ele>299.0</ele><time>2026-03-29T10:11:45.153Z</time></trkpt><trkpt lat="45.3282588" lon="7.9978284"><ele>297.5</ele><time>2026-03-29T10:11:46.153Z</time></trkpt><trkpt lat="45.3283587" lon="7.9979196"><ele>296.0</ele><time>2026-03-29T10:11:47.163Z</time></trkpt><trkpt lat="45.3284644" lon="7.9979869"><ele>294.5</ele><time>2026-03-29T10:11:48.141Z</time></trkpt><trkpt lat="45.3285833" lon="7.9980418"><ele>293.0</ele><time>2026-03-29T10:11:49.159Z</time></trkpt><trkpt lat="45.3287089" lon="7.9980711"><ele>293.0</ele><time>2026-03-29T10:11:50.163Z</time></trkpt><trkpt lat="45.3288324" lon="7.9980797"><ele>293.0</ele><time>2026-03-29T10:11:51.177Z</time></trkpt><trkpt lat="45.328945" lon="7.9980695"><ele>293.0</ele><time>2026-03-29T10:11:52.157Z</time></trkpt><trkpt lat="45.3290458" lon="7.9980325"><ele>293.0</ele><time>2026-03-29T10:11:53.154Z</time></trkpt><trkpt lat="45.3291449" lon="7.9979778"><ele>293.0</ele><time>2026-03-29T10:11:54.173Z</time></trkpt><trkpt lat="45.329261" lon="7.9979012"><ele>291.75</ele><time>2026-03-29T10:11:55.159Z</time></trkpt><trkpt lat="45.3293752" lon="7.9978406"><ele>290.5</ele><time>2026-03-29T10:11:56.159Z</time></trkpt><trkpt lat="45.3294939" lon="7.9977958"><ele>289.25</ele><time>2026-03-29T10:11:57.167Z</time></trkpt><trkpt lat="45.3295994" lon="7.9977835"><ele>288.0</ele><time>2026-03-29T10:11:58.162Z</time></trkpt><trkpt lat="45.3297185" lon="7.9977887"><ele>287.75</ele><time>2026-03-29T10:11:59.181Z</time></trkpt><trkpt lat="45.3298416" lon="7.9978033"><ele>287.5</ele><time>2026-03-29T10:12:00.161Z</time></trkpt><trkpt lat="45.3299615" lon="7.9978131"><ele>287.25</ele><time>2026-03-29T10:12:01.171Z</time></trkpt><trkpt lat="45.3300791" lon="7.9977999"><ele>287.0</ele><time>2026-03-29T10:12:02.175Z</time></trkpt><trkpt lat="45.3301856" lon="7.997779"><ele>287.0</ele><time>2026-03-29T10:12:03.152Z</time></trkpt><trkpt lat="45.33027" lon="7.9977675"><ele>287.0</ele><time>2026-03-29T10:12:04.163Z</time></trkpt><trkpt lat="45.3303477" lon="7.9977691"><ele>287.0</ele><time>2026-03-29T10:12:05.16Z</time></trkpt><trkpt lat="45.3304572" lon="7.9977661"><ele>287.0</ele><time>2026-03-29T10:12:07.16Z</time></trkpt><trkpt lat="45.330523" lon="7.9977921"><ele>287.0</ele><time>2026-03-29T10:12:10.167Z</time></trkpt><trkpt lat="45.3304999" lon="7.9979082"><ele>287.0</ele><time>2026-03-29T10:12:12.154Z</time></trkpt><trkpt lat="45.3304587" lon="7.9980297"><ele>287.0</ele><time>2026-03-29T10:12:13.141Z</time></trkpt><trkpt lat="45.3304055" lon="7.9981862"><ele>287.0</ele><time>2026-03-29T10:12:14.146Z</time></trkpt><trkpt lat="45.3303679" lon="7.9983479"><ele>287.0</ele><time>2026-03-29T10:12:15.158Z</time></trkpt><trkpt lat="45.3303393" lon="7.9984994"><ele>287.0</ele><time>2026-03-29T10:12:16.157Z</time></trkpt><trkpt lat="45.33032" lon="7.9986373"><ele>286.6666666666667</ele><time>2026-03-29T10:12:17.157Z</time></trkpt><trkpt lat="45.3303084" lon="7.9987709"><ele>286.33333333333337</ele><time>2026-03-29T10:12:18.154Z</time></trkpt><trkpt lat="45.3303033" lon="7.9988846"><ele>286.0</ele><time>2026-03-29T10:12:19.159Z</time></trkpt><trkpt lat="45.3302965" lon="7.9990019"><ele>285.6666666666667</ele><time>2026-03-29T10:12:21.149Z</time></trkpt><trkpt lat="45.3303685" lon="7.9990516"><ele>285.3333333333333</ele><time>2026-03-29T10:12:24.157Z</time></trkpt><trkpt lat="45.3304409" lon="7.9990218"><ele>285.0</ele><time>2026-03-29T10:12:25.167Z</time></trkpt><trkpt lat="45.3305225" lon="7.9989993"><ele>285.0</ele><time>2026-03-29T10:12:26.156Z</time></trkpt><trkpt lat="45.3306093" lon="7.9989832"><ele>285.0</ele><time>2026-03-29T10:12:27.189Z</time></trkpt><trkpt lat="45.3306918" lon="7.9989643"><ele>285.0</ele><time>2026-03-29T10:12:28.154Z</time></trkpt><trkpt lat="45.3307737" lon="7.998935"><ele>285.0</ele><time>2026-03-29T10:12:29.152Z</time></trkpt><trkpt lat="45.33086" lon="7.9989022"><ele>285.0</ele><time>2026-03-29T10:12:30.167Z</time></trkpt><trkpt lat="45.3309539" lon="7.998851"><ele>285.0</ele><time>2026-03-29T10:12:31.152Z</time></trkpt><trkpt lat="45.3310514" lon="7.9987821"><ele>285.0</ele><time>2026-03-29T10:12:32.166Z</time></trkpt><trkpt lat="45.3311354" lon="7.9987025"><ele>285.0</ele><time>2026-03-29T10:12:33.146Z</time></trkpt><trkpt lat="45.3312145" lon="7.9986448"><ele>285.0</ele><time>2026-03-29T10:12:34.156Z</time></trkpt><trkpt lat="45.3312918" lon="7.9986136"><ele>285.0</ele><time>2026-03-29T10:12:35.155Z</time></trkpt><trkpt lat="45.3313725" lon="7.9985957"><ele>285.0</ele><time>2026-03-29T10:12:36.158Z</time></trkpt><trkpt lat="45.3314638" lon="7.9985822"><ele>285.0</ele><time>2026-03-29T10:12:37.158Z</time></trkpt><trkpt lat="45.3315464" lon="7.9985702"><ele>285.6</ele><time>2026-03-29T10:12:38.172Z</time></trkpt><trkpt lat="45.331616" lon="7.9985657"><ele>286.2</ele><time>2026-03-29T10:12:39.171Z</time></trkpt><trkpt lat="45.3316778" lon="7.9985407"><ele>286.8</ele><time>2026-03-29T10:12:41.163Z</time></trkpt><trkpt lat="45.3317929" lon="7.9984313"><ele>287.4</ele><time>2026-03-29T10:12:43.159Z</time></trkpt><trkpt lat="45.3318722" lon="7.9983403"><ele>288.0</ele><time>2026-03-29T10:12:44.172Z</time></trkpt><trkpt lat="45.3319483" lon="7.9982345"><ele>289.0</ele><time>2026-03-29T10:12:45.156Z</time></trkpt><trkpt lat="45.3320172" lon="7.9981264"><ele>290.0</ele><time>2026-03-29T10:12:46.167Z</time></trkpt><trkpt lat="45.3320786" lon="7.9980267"><ele>291.0</ele><time>2026-03-29T10:12:47.177Z</time></trkpt><trkpt lat="45.3321452" lon="7.9979128"><ele>292.0</ele><time>2026-03-29T10:12:48.149Z</time></trkpt><trkpt lat="45.3322089" lon="7.9977879"><ele>293.0</ele><time>2026-03-29T10:12:49.181Z</time></trkpt><trkpt lat="45.3322685" lon="7.9976503"><ele>294.0</ele><time>2026-03-29T10:12:50.155Z</time></trkpt><trkpt lat="45.332332" lon="7.9975141"><ele>295.0</ele><time>2026-03-29T10:12:51.149Z</time></trkpt><trkpt lat="45.3323963" lon="7.9973752"><ele>296.0</ele><time>2026-03-29T10:12:52.143Z</time></trkpt><trkpt lat="45.332462" lon="7.997218"><ele>297.0</ele><time>2026-03-29T10:12:53.156Z</time></trkpt><trkpt lat="45.3325342" lon="7.9970539"><ele>298.25</ele><time>2026-03-29T10:12:54.159Z</time></trkpt><trkpt lat="45.3325987" lon="7.996878"><ele>299.5</ele><time>2026-03-29T10:12:55.164Z</time></trkpt><trkpt lat="45.3326614" lon="7.9967128"><ele>300.75</ele><time>2026-03-29T10:12:56.188Z</time></trkpt><trkpt lat="45.3327122" lon="7.9965568"><ele>302.0</ele><time>2026-03-29T10:12:57.163Z</time></trkpt><trkpt lat="45.3327517" lon="7.9964134"><ele>302.33333333333337</ele><time>2026-03-29T10:12:58.155Z</time></trkpt><trkpt lat="45.332794" lon="7.9962825"><ele>302.6666666666667</ele><time>2026-03-29T10:12:59.162Z</time></trkpt><trkpt lat="45.3328336" lon="7.996153"><ele>303.0</ele><time>2026-03-29T10:13:00.16Z</time></trkpt><trkpt lat="45.332866" lon="7.9960488"><ele>303.3333333333333</ele><time>2026-03-29T10:13:01.168Z</time></trkpt><trkpt lat="45.3329152" lon="7.9959347"><ele>303.66666666666663</ele><time>2026-03-29T10:13:03.162Z</time></trkpt><trkpt lat="45.3329558" lon="7.9958636"><ele>304.0</ele><time>2026-03-29T10:13:07.162Z</time></trkpt><trkpt lat="45.3330773" lon="7.9957871"><ele>304.0</ele><time>2026-03-29T10:13:09.173Z</time></trkpt><trkpt lat="45.3331677" lon="7.9957541"><ele>304.0</ele><time>2026-03-29T10:13:10.148Z</time></trkpt><trkpt lat="45.3332648" lon="7.9956997"><ele>304.0</ele><time>2026-03-29T10:13:11.155Z</time></trkpt><trkpt lat="45.3333268" lon="7.9956582"><ele>304.0</ele><time>2026-03-29T10:13:12.146Z</time></trkpt><trkpt lat="45.3333985" lon="7.995621"><ele>304.0</ele><time>2026-03-29T10:13:13.166Z</time></trkpt><trkpt lat="45.3334845" lon="7.9955764"><ele>304.0</ele><time>2026-03-29T10:13:14.168Z</time></trkpt><trkpt lat="45.3335783" lon="7.99551"><ele>304.0</ele><time>2026-03-29T10:13:15.165Z</time></trkpt><trkpt lat="45.3336798" lon="7.9954304"><ele>304.0</ele><time>2026-03-29T10:13:16.152Z</time></trkpt><trkpt lat="45.3337747" lon="7.9953285"><ele>304.0</ele><time>2026-03-29T10:13:17.157Z</time></trkpt><trkpt lat="45.3338665" lon="7.9952169"><ele>304.0</ele><time>2026-03-29T10:13:18.165Z</time></trkpt><trkpt lat="45.3339568" lon="7.9951068"><ele>303.0</ele><time>2026-03-29T10:13:19.156Z</time></trkpt><trkpt lat="45.3340448" lon="7.9950018"><ele>302.0</ele><time>2026-03-29T10:13:20.19Z</time></trkpt><trkpt lat="45.3341339" lon="7.9949106"><ele>301.0</ele><time>2026-03-29T10:13:21.164Z</time></trkpt><trkpt lat="45.3342262" lon="7.994829"><ele>300.0</ele><time>2026-03-29T10:13:22.164Z</time></trkpt><trkpt lat="45.3343254" lon="7.9947438"><ele>299.0</ele><time>2026-03-29T10:13:23.157Z</time></trkpt><trkpt lat="45.3344309" lon="7.9946872"><ele>299.0</ele><time>2026-03-29T10:13:24.146Z</time></trkpt><trkpt lat="45.3345343" lon="7.9946541"><ele>299.0</ele><time>2026-03-29T10:13:25.152Z</time></trkpt><trkpt lat="45.3346448" lon="7.9946378"><ele>299.0</ele><time>2026-03-29T10:13:26.156Z</time></trkpt><trkpt lat="45.3347586" lon="7.9946448"><ele>299.0</ele><time>2026-03-29T10:13:27.152Z</time></trkpt><trkpt lat="45.3348792" lon="7.9946467"><ele>298.0</ele><time>2026-03-29T10:13:28.155Z</time></trkpt><trkpt lat="45.3349953" lon="7.9946602"><ele>297.0</ele><time>2026-03-29T10:13:29.165Z</time></trkpt><trkpt lat="45.3351017" lon="7.9946618"><ele>296.0</ele><time>2026-03-29T10:13:30.172Z</time></trkpt><trkpt lat="45.3352035" lon="7.9946554"><ele>295.0</ele><time>2026-03-29T10:13:31.157Z</time></trkpt><trkpt lat="45.3352973" lon="7.9946315"><ele>294.0</ele><time>2026-03-29T10:13:32.163Z</time></trkpt><trkpt lat="45.3353814" lon="7.9946012"><ele>294.0</ele><time>2026-03-29T10:13:33.175Z</time></trkpt><trkpt lat="45.3354599" lon="7.9945769"><ele>294.0</ele><time>2026-03-29T10:13:34.158Z</time></trkpt><trkpt lat="45.3355453" lon="7.9944655"><ele>294.0</ele><time>2026-03-29T10:13:36.17Z</time></trkpt><trkpt lat="45.3355764" lon="7.9943759"><ele>294.0</ele><time>2026-03-29T10:13:37.157Z</time></trkpt><trkpt lat="45.3356151" lon="7.9942692"><ele>294.0</ele><time>2026-03-29T10:13:38.153Z</time></trkpt><trkpt lat="45.3356709" lon="7.9941669"><ele>294.0</ele><time>2026-03-29T10:13:39.155Z</time></trkpt><trkpt lat="45.3357393" lon="7.9940581"><ele>293.59999999999997</ele><time>2026-03-29T10:13:40.165Z</time></trkpt><trkpt lat="45.3358073" lon="7.9939407"><ele>293.2</ele><time>2026-03-29T10:13:41.167Z</time></trkpt><trkpt lat="45.3358792" lon="7.9938252"><ele>292.79999999999995</ele><time>2026-03-29T10:13:42.175Z</time></trkpt><trkpt lat="45.3359569" lon="7.9937131"><ele>292.4</ele><time>2026-03-29T10:13:43.169Z</time></trkpt><trkpt lat="45.3360328" lon="7.9935849"><ele>292.0</ele><time>2026-03-29T10:13:44.146Z</time></trkpt><trkpt lat="45.3361249" lon="7.9934509"><ele>291.25</ele><time>2026-03-29T10:13:45.16Z</time></trkpt><trkpt lat="45.3362259" lon="7.9933166"><ele>290.5</ele><time>2026-03-29T10:13:46.163Z</time></trkpt><trkpt lat="45.3363311" lon="7.9931817"><ele>289.75</ele><time>2026-03-29T10:13:47.169Z</time></trkpt><trkpt lat="45.3364437" lon="7.9930454"><ele>289.0</ele><time>2026-03-29T10:13:48.189Z</time></trkpt><trkpt lat="45.336562" lon="7.9929102"><ele>288.3333333333333</ele><time>2026-03-29T10:13:49.168Z</time></trkpt><trkpt lat="45.3366829" lon="7.9927732"><ele>287.6666666666667</ele><time>2026-03-29T10:13:50.179Z</time></trkpt><trkpt lat="45.3368115" lon="7.9926445"><ele>287.0</ele><time>2026-03-29T10:13:51.161Z</time></trkpt><trkpt lat="45.3369419" lon="7.9925129"><ele>284.6666666666667</ele><time>2026-03-29T10:13:52.166Z</time></trkpt><trkpt lat="45.3370709" lon="7.9923681"><ele>282.3333333333333</ele><time>2026-03-29T10:13:53.186Z</time></trkpt><trkpt lat="45.3372029" lon="7.9922174"><ele>280.0</ele><time>2026-03-29T10:13:54.164Z</time></trkpt><trkpt lat="45.3373314" lon="7.9920686"><ele>279.0</ele><time>2026-03-29T10:13:55.157Z</time></trkpt><trkpt lat="45.3374636" lon="7.9919366"><ele>278.0</ele><time>2026-03-29T10:13:56.169Z</time></trkpt><trkpt lat="45.3375998" lon="7.9918012"><ele>277.0</ele><time>2026-03-29T10:13:57.157Z</time></trkpt><trkpt lat="45.3377326" lon="7.9916657"><ele>275.0</ele><time>2026-03-29T10:13:58.167Z</time></trkpt><trkpt lat="45.3378632" lon="7.9915341"><ele>273.0</ele><time>2026-03-29T10:13:59.173Z</time></trkpt><trkpt lat="45.3379929" lon="7.9913971"><ele>271.0</ele><time>2026-03-29T10:14:00.168Z</time></trkpt><trkpt lat="45.3381289" lon="7.9912512"><ele>269.0</ele><time>2026-03-29T10:14:01.177Z</time></trkpt><trkpt lat="45.3382678" lon="7.9911123"><ele>267.0</ele><time>2026-03-29T10:14:02.168Z</time></trkpt><trkpt lat="45.3384124" lon="7.9909628"><ele>265.0</ele><time>2026-03-29T10:14:03.156Z</time></trkpt><trkpt lat="45.3385563" lon="7.9908235"><ele>264.3333333333333</ele><time>2026-03-29T10:14:04.169Z</time></trkpt><trkpt lat="45.338688" lon="7.9906874"><ele>263.6666666666667</ele><time>2026-03-29T10:14:05.164Z</time></trkpt><trkpt lat="45.3388079" lon="7.9905601"><ele>263.0</ele><time>2026-03-29T10:14:06.173Z</time></trkpt><trkpt lat="45.3389243" lon="7.9904395"><ele>262.0</ele><time>2026-03-29T10:14:07.17Z</time></trkpt><trkpt lat="45.3390328" lon="7.9903266"><ele>261.0</ele><time>2026-03-29T10:14:08.157Z</time></trkpt><trkpt lat="45.3391256" lon="7.9902328"><ele>260.0</ele><time>2026-03-29T10:14:09.161Z</time></trkpt><trkpt lat="45.3392064" lon="7.9901505"><ele>259.0</ele><time>2026-03-29T10:14:10.168Z</time></trkpt><trkpt lat="45.3392807" lon="7.9901025"><ele>258.0</ele><time>2026-03-29T10:14:11.158Z</time></trkpt><trkpt lat="45.3393781" lon="7.9900813"><ele>258.0</ele><time>2026-03-29T10:14:12.158Z</time></trkpt><trkpt lat="45.3394918" lon="7.9900905"><ele>258.0</ele><time>2026-03-29T10:14:13.168Z</time></trkpt><trkpt lat="45.3396206" lon="7.9900998"><ele>258.0</ele><time>2026-03-29T10:14:14.151Z</time></trkpt><trkpt lat="45.3397611" lon="7.9900997"><ele>258.0</ele><time>2026-03-29T10:14:15.177Z</time></trkpt><trkpt lat="45.3399153" lon="7.9901033"><ele>259.6666666666667</ele><time>2026-03-29T10:14:16.163Z</time></trkpt><trkpt lat="45.340088" lon="7.9901015"><ele>261.33333333333337</ele><time>2026-03-29T10:14:17.159Z</time></trkpt><trkpt lat="45.3402591" lon="7.9900933"><ele>263.0</ele><time>2026-03-29T10:14:18.188Z</time></trkpt><trkpt lat="45.340423" lon="7.9900794"><ele>263.5</ele><time>2026-03-29T10:14:19.163Z</time></trkpt><trkpt lat="45.340577" lon="7.9900668"><ele>264.0</ele><time>2026-03-29T10:14:20.163Z</time></trkpt><trkpt lat="45.3407225" lon="7.9900592"><ele>264.5</ele><time>2026-03-29T10:14:21.165Z</time></trkpt><trkpt lat="45.3408629" lon="7.9900426"><ele>265.0</ele><time>2026-03-29T10:14:22.174Z</time></trkpt><trkpt lat="45.3410123" lon="7.9900218"><ele>265.0</ele><time>2026-03-29T10:14:23.162Z</time></trkpt><trkpt lat="45.3411628" lon="7.9900085"><ele>265.0</ele><time>2026-03-29T10:14:24.16Z</time></trkpt><trkpt lat="45.3413139" lon="7.9899969"><ele>265.0</ele><time>2026-03-29T10:14:25.181Z</time></trkpt><trkpt lat="45.3414641" lon="7.989987"><ele>263.5</ele><time>2026-03-29T10:14:26.16Z</time></trkpt><trkpt lat="45.3416133" lon="7.9899761"><ele>262.0</ele><time>2026-03-29T10:14:27.175Z</time></trkpt><trkpt lat="45.3417641" lon="7.9899694"><ele>260.5</ele><time>2026-03-29T10:14:28.16Z</time></trkpt><trkpt lat="45.3419112" lon="7.9899676"><ele>259.0</ele><time>2026-03-29T10:14:29.168Z</time></trkpt><trkpt lat="45.3420585" lon="7.989964"><ele>259.0</ele><time>2026-03-29T10:14:30.168Z</time></trkpt><trkpt lat="45.3422039" lon="7.9899676"><ele>259.0</ele><time>2026-03-29T10:14:31.162Z</time></trkpt><trkpt lat="45.3423494" lon="7.9899844"><ele>259.0</ele><time>2026-03-29T10:14:32.164Z</time></trkpt><trkpt lat="45.342503" lon="7.9900271"><ele>259.0</ele><time>2026-03-29T10:14:33.161Z</time></trkpt><trkpt lat="45.3426649" lon="7.9900682"><ele>259.3333333333333</ele><time>2026-03-29T10:14:34.16Z</time></trkpt><trkpt lat="45.3428333" lon="7.9901045"><ele>259.6666666666667</ele><time>2026-03-29T10:14:35.162Z</time></trkpt><trkpt lat="45.3430013" lon="7.9901423"><ele>260.0</ele><time>2026-03-29T10:14:36.172Z</time></trkpt><trkpt lat="45.3431641" lon="7.9901853"><ele>260.0</ele><time>2026-03-29T10:14:37.159Z</time></trkpt><trkpt lat="45.3433238" lon="7.9902209"><ele>260.0</ele><time>2026-03-29T10:14:38.152Z</time></trkpt><trkpt lat="45.3434808" lon="7.9902565"><ele>260.0</ele><time>2026-03-29T10:14:39.148Z</time></trkpt><trkpt lat="45.3436365" lon="7.9902924"><ele>260.0</ele><time>2026-03-29T10:14:40.162Z</time></trkpt><trkpt lat="45.3437879" lon="7.9903299"><ele>260.0</ele><time>2026-03-29T10:14:41.161Z</time></trkpt><trkpt lat="45.3439366" lon="7.9903675"><ele>260.0</ele><time>2026-03-29T10:14:42.169Z</time></trkpt><trkpt lat="45.344088" lon="7.9904038"><ele>258.0</ele><time>2026-03-29T10:14:43.162Z</time></trkpt><trkpt lat="45.3442414" lon="7.9904413"><ele>256.0</ele><time>2026-03-29T10:14:44.165Z</time></trkpt><trkpt lat="45.3443987" lon="7.9904797"><ele>254.0</ele><time>2026-03-29T10:14:45.165Z</time></trkpt><trkpt lat="45.3445545" lon="7.9905089"><ele>254.0</ele><time>2026-03-29T10:14:46.169Z</time></trkpt><trkpt lat="45.3447109" lon="7.990535"><ele>254.0</ele><time>2026-03-29T10:14:47.172Z</time></trkpt><trkpt lat="45.3448597" lon="7.9905672"><ele>254.0</ele><time>2026-03-29T10:14:48.156Z</time></trkpt><trkpt lat="45.3450156" lon="7.9906021"><ele>254.0</ele><time>2026-03-29T10:14:49.178Z</time></trkpt><trkpt lat="45.3451684" lon="7.9906454"><ele>254.0</ele><time>2026-03-29T10:14:50.169Z</time></trkpt><trkpt lat="45.3453178" lon="7.9906907"><ele>254.0</ele><time>2026-03-29T10:14:51.171Z</time></trkpt><trkpt lat="45.3454604" lon="7.9907234"><ele>255.5</ele><time>2026-03-29T10:14:52.156Z</time></trkpt><trkpt lat="45.3456017" lon="7.9907379"><ele>257.0</ele><time>2026-03-29T10:14:53.162Z</time></trkpt><trkpt lat="45.3457515" lon="7.9907524"><ele>258.5</ele><time>2026-03-29T10:14:54.165Z</time></trkpt><trkpt lat="45.3458937" lon="7.9907648"><ele>260.0</ele><time>2026-03-29T10:14:55.163Z</time></trkpt><trkpt lat="45.3460167" lon="7.9907728"><ele>260.0</ele><time>2026-03-29T10:14:56.158Z</time></trkpt><trkpt lat="45.3461009" lon="7.9907874"><ele>260.0</ele><time>2026-03-29T10:14:57.143Z</time></trkpt><trkpt lat="45.3462019" lon="7.9907964"><ele>260.0</ele><time>2026-03-29T10:14:59.161Z</time></trkpt><trkpt lat="45.3463368" lon="7.9908485"><ele>260.0</ele><time>2026-03-29T10:15:01.164Z</time></trkpt><trkpt lat="45.3464427" lon="7.9908662"><ele>260.0</ele><time>2026-03-29T10:15:02.165Z</time></trkpt><trkpt lat="45.3465073" lon="7.9909329"><ele>258.0</ele><time>2026-03-29T10:15:04.175Z</time></trkpt><trkpt lat="45.3465368" lon="7.9910963"><ele>256.0</ele><time>2026-03-29T10:15:06.17Z</time></trkpt><trkpt lat="45.3465563" lon="7.9912157"><ele>254.0</ele><time>2026-03-29T10:15:07.156Z</time></trkpt><trkpt lat="45.3465759" lon="7.9913341"><ele>252.0</ele><time>2026-03-29T10:15:08.168Z</time></trkpt><trkpt lat="45.3465987" lon="7.9914549"><ele>250.0</ele><time>2026-03-29T10:15:09.165Z</time></trkpt><trkpt lat="45.3466202" lon="7.9915828"><ele>250.0</ele><time>2026-03-29T10:15:10.156Z</time></trkpt><trkpt lat="45.346645" lon="7.9917086"><ele>250.0</ele><time>2026-03-29T10:15:11.154Z</time></trkpt><trkpt lat="45.3466736" lon="7.9918577"><ele>250.0</ele><time>2026-03-29T10:15:12.153Z</time></trkpt><trkpt lat="45.3466934" lon="7.9920119"><ele>250.0</ele><time>2026-03-29T10:15:13.155Z</time></trkpt><trkpt lat="45.3467217" lon="7.992182"><ele>250.0</ele><time>2026-03-29T10:15:14.161Z</time></trkpt><trkpt lat="45.3467569" lon="7.9923432"><ele>250.0</ele><time>2026-03-29T10:15:15.158Z</time></trkpt><trkpt lat="45.346783" lon="7.9924904"><ele>250.0</ele><time>2026-03-29T10:15:16.166Z</time></trkpt><trkpt lat="45.3468131" lon="7.9926405"><ele>250.0</ele><time>2026-03-29T10:15:17.147Z</time></trkpt><trkpt lat="45.3468463" lon="7.9927838"><ele>250.0</ele><time>2026-03-29T10:15:18.156Z</time></trkpt><trkpt lat="45.3468747" lon="7.992915"><ele>250.0</ele><time>2026-03-29T10:15:19.166Z</time></trkpt><trkpt lat="45.3469028" lon="7.9930386"><ele>250.83333333333331</ele><time>2026-03-29T10:15:20.149Z</time></trkpt><trkpt lat="45.3469253" lon="7.9931595"><ele>251.66666666666666</ele><time>2026-03-29T10:15:21.163Z</time></trkpt><trkpt lat="45.3469412" lon="7.993284"><ele>252.5</ele><time>2026-03-29T10:15:22.168Z</time></trkpt><trkpt lat="45.3469373" lon="7.9934138"><ele>253.33333333333331</ele><time>2026-03-29T10:15:23.164Z</time></trkpt><trkpt lat="45.3469351" lon="7.9935458"><ele>254.16666666666666</ele><time>2026-03-29T10:15:24.151Z</time></trkpt><trkpt lat="45.3469255" lon="7.9936643"><ele>255.0</ele><time>2026-03-29T10:15:25.16Z</time></trkpt><trkpt lat="45.3469122" lon="7.9937625"><ele>255.66666666666666</ele><time>2026-03-29T10:15:26.16Z</time></trkpt><trkpt lat="45.346871" lon="7.9939452"><ele>256.3333333333333</ele><time>2026-03-29T10:15:28.159Z</time></trkpt><trkpt lat="45.3468363" lon="7.9940388"><ele>257.0</ele><time>2026-03-29T10:15:29.156Z</time></trkpt><trkpt lat="45.3468004" lon="7.9941267"><ele>257.66666666666663</ele><time>2026-03-29T10:15:30.163Z</time></trkpt><trkpt lat="45.3467572" lon="7.9942162"><ele>258.3333333333333</ele><time>2026-03-29T10:15:31.174Z</time></trkpt><trkpt lat="45.3467199" lon="7.9943088"><ele>259.0</ele><time>2026-03-29T10:15:32.164Z</time></trkpt><trkpt lat="45.3466733" lon="7.9943926"><ele>259.3333333333333</ele><time>2026-03-29T10:15:33.167Z</time></trkpt><trkpt lat="45.3466329" lon="7.9944732"><ele>259.66666666666663</ele><time>2026-03-29T10:15:34.163Z</time></trkpt><trkpt lat="45.3465969" lon="7.9945506"><ele>260.0</ele><time>2026-03-29T10:15:35.161Z</time></trkpt><trkpt lat="45.3465544" lon="7.9946189"><ele>260.3333333333333</ele><time>2026-03-29T10:15:36.161Z</time></trkpt><trkpt lat="45.3464906" lon="7.9947553"><ele>260.6666666666667</ele><time>2026-03-29T10:15:38.162Z</time></trkpt><trkpt lat="45.3464474" lon="7.9948618"><ele>261.0</ele><time>2026-03-29T10:15:40.167Z</time></trkpt><trkpt lat="45.3463956" lon="7.9949803"><ele>260.2</ele><time>2026-03-29T10:15:42.17Z</time></trkpt><trkpt lat="45.3463536" lon="7.9950886"><ele>259.40000000000003</ele><time>2026-03-29T10:15:44.163Z</time></trkpt><trkpt lat="45.3463052" lon="7.9952116"><ele>258.6</ele><time>2026-03-29T10:15:46.166Z</time></trkpt><trkpt lat="45.3462474" lon="7.9953651"><ele>257.8</ele><time>2026-03-29T10:15:48.153Z</time></trkpt><trkpt lat="45.3462011" lon="7.9955311"><ele>257.0</ele><time>2026-03-29T10:15:50.162Z</time></trkpt><trkpt lat="45.346179" lon="7.9956172"><ele>257.0</ele><time>2026-03-29T10:15:51.174Z</time></trkpt><trkpt lat="45.3461652" lon="7.9957071"><ele>257.0</ele><time>2026-03-29T10:15:52.162Z</time></trkpt><trkpt lat="45.3461573" lon="7.9958123"><ele>257.0</ele><time>2026-03-29T10:15:53.165Z</time></trkpt><trkpt lat="45.346141" lon="7.9959247"><ele>257.0</ele><time>2026-03-29T10:15:54.175Z</time></trkpt><trkpt lat="45.3461245" lon="7.9960464"><ele>257.0</ele><time>2026-03-29T10:15:55.159Z</time></trkpt><trkpt lat="45.3461023" lon="7.9961801"><ele>257.0</ele><time>2026-03-29T10:15:56.167Z</time></trkpt><trkpt lat="45.3460866" lon="7.9963253"><ele>257.2</ele><time>2026-03-29T10:15:57.148Z</time></trkpt><trkpt lat="45.3460595" lon="7.9964645"><ele>257.4</ele><time>2026-03-29T10:15:58.169Z</time></trkpt><trkpt lat="45.346027" lon="7.9966075"><ele>257.6</ele><time>2026-03-29T10:15:59.18Z</time></trkpt><trkpt lat="45.3459991" lon="7.9967421"><ele>257.8</ele><time>2026-03-29T10:16:00.169Z</time></trkpt><trkpt lat="45.3459649" lon="7.9968632"><ele>258.0</ele><time>2026-03-29T10:16:01.164Z</time></trkpt><trkpt lat="45.3459312" lon="7.9969621"><ele>258.8</ele><time>2026-03-29T10:16:02.182Z</time></trkpt><trkpt lat="45.345904" lon="7.9970529"><ele>259.6</ele><time>2026-03-29T10:16:03.157Z</time></trkpt><trkpt lat="45.3458774" lon="7.9971476"><ele>260.4</ele><time>2026-03-29T10:16:04.174Z</time></trkpt><trkpt lat="45.3458391" lon="7.9972565"><ele>261.2</ele><time>2026-03-29T10:16:05.161Z</time></trkpt><trkpt lat="45.345797" lon="7.997417"><ele>262.0</ele><time>2026-03-29T10:16:06.197Z</time></trkpt><trkpt lat="45.3457441" lon="7.9975828"><ele>262.75</ele><time>2026-03-29T10:16:07.159Z</time></trkpt><trkpt lat="45.3456934" lon="7.9977515"><ele>263.5</ele><time>2026-03-29T10:16:08.165Z</time></trkpt><trkpt lat="45.3456413" lon="7.9979108"><ele>264.25</ele><time>2026-03-29T10:16:09.162Z</time></trkpt><trkpt lat="45.3455965" lon="7.9980672"><ele>265.0</ele><time>2026-03-29T10:16:10.163Z</time></trkpt><trkpt lat="45.345551" lon="7.9982226"><ele>264.0</ele><time>2026-03-29T10:16:11.165Z</time></trkpt><trkpt lat="45.345502" lon="7.9983804"><ele>263.0</ele><time>2026-03-29T10:16:12.177Z</time></trkpt><trkpt lat="45.3454555" lon="7.9985433"><ele>262.0</ele><time>2026-03-29T10:16:13.16Z</time></trkpt><trkpt lat="45.3454104" lon="7.9987015"><ele>261.0</ele><time>2026-03-29T10:16:14.166Z</time></trkpt><trkpt lat="45.3453692" lon="7.9988479"><ele>261.0</ele><time>2026-03-29T10:16:15.158Z</time></trkpt><trkpt lat="45.3453391" lon="7.9989938"><ele>261.0</ele><time>2026-03-29T10:16:16.159Z</time></trkpt><trkpt lat="45.3453088" lon="7.9991507"><ele>261.0</ele><time>2026-03-29T10:16:17.164Z</time></trkpt><trkpt lat="45.3452731" lon="7.999316"><ele>261.0</ele><time>2026-03-29T10:16:18.147Z</time></trkpt><trkpt lat="45.3452485" lon="7.9994729"><ele>261.40000000000003</ele><time>2026-03-29T10:16:19.146Z</time></trkpt><trkpt lat="45.3452306" lon="7.9996061"><ele>261.8</ele><time>2026-03-29T10:16:20.149Z</time></trkpt><trkpt lat="45.345221" lon="7.9997262"><ele>262.20000000000005</ele><time>2026-03-29T10:16:21.151Z</time></trkpt><trkpt lat="45.3452221" lon="7.9998479"><ele>262.6</ele><time>2026-03-29T10:16:22.161Z</time></trkpt><trkpt lat="45.3452296" lon="7.9999808"><ele>263.0</ele><time>2026-03-29T10:16:23.16Z</time></trkpt><trkpt lat="45.3452626" lon="8.0001149"><ele>263.0</ele><time>2026-03-29T10:16:24.169Z</time></trkpt><trkpt lat="45.345293" lon="8.0002842"><ele>263.0</ele><time>2026-03-29T10:16:25.153Z</time></trkpt><trkpt lat="45.3453193" lon="8.0004821"><ele>263.0</ele><time>2026-03-29T10:16:26.159Z</time></trkpt><trkpt lat="45.3453566" lon="8.0006656"><ele>263.0</ele><time>2026-03-29T10:16:27.145Z</time></trkpt><trkpt lat="45.3453887" lon="8.0008446"><ele>264.0</ele><time>2026-03-29T10:16:28.15Z</time></trkpt><trkpt lat="45.3454258" lon="8.0010265"><ele>265.0</ele><time>2026-03-29T10:16:29.186Z</time></trkpt><trkpt lat="45.3454681" lon="8.0012097"><ele>266.0</ele><time>2026-03-29T10:16:30.165Z</time></trkpt><trkpt lat="45.3455033" lon="8.0013687"><ele>267.0</ele><time>2026-03-29T10:16:31.16Z</time></trkpt><trkpt lat="45.3455302" lon="8.0015049"><ele>268.8</ele><time>2026-03-29T10:16:32.155Z</time></trkpt><trkpt lat="45.3455572" lon="8.0016075"><ele>270.6</ele><time>2026-03-29T10:16:33.16Z</time></trkpt><trkpt lat="45.3455857" lon="8.0017221"><ele>272.40000000000003</ele><time>2026-03-29T10:16:34.17Z</time></trkpt><trkpt lat="45.3456101" lon="8.0018523"><ele>274.2</ele><time>2026-03-29T10:16:35.155Z</time></trkpt><trkpt lat="45.3456393" lon="8.001997"><ele>276.0</ele><time>2026-03-29T10:16:36.167Z</time></trkpt><trkpt lat="45.3456742" lon="8.0021467"><ele>276.0</ele><time>2026-03-29T10:16:37.156Z</time></trkpt><trkpt lat="45.3457096" lon="8.0023081"><ele>276.0</ele><time>2026-03-29T10:16:38.162Z</time></trkpt><trkpt lat="45.3457486" lon="8.0024805"><ele>276.0</ele><time>2026-03-29T10:16:39.159Z</time></trkpt><trkpt lat="45.3457864" lon="8.0026563"><ele>276.0</ele><time>2026-03-29T10:16:40.15Z</time></trkpt><trkpt lat="45.3458309" lon="8.0028303"><ele>276.25</ele><time>2026-03-29T10:16:41.149Z</time></trkpt><trkpt lat="45.3458785" lon="8.0030006"><ele>276.5</ele><time>2026-03-29T10:16:42.175Z</time></trkpt><trkpt lat="45.3459295" lon="8.0031674"><ele>276.75</ele><time>2026-03-29T10:16:43.168Z</time></trkpt><trkpt lat="45.3459877" lon="8.0033255"><ele>277.0</ele><time>2026-03-29T10:16:44.161Z</time></trkpt><trkpt lat="45.3460425" lon="8.0034818"><ele>277.4</ele><time>2026-03-29T10:16:45.158Z</time></trkpt><trkpt lat="45.346085" lon="8.0036263"><ele>277.79999999999995</ele><time>2026-03-29T10:16:46.149Z</time></trkpt><trkpt lat="45.3461219" lon="8.0037643"><ele>278.2</ele><time>2026-03-29T10:16:47.163Z</time></trkpt><trkpt lat="45.3461701" lon="8.0039147"><ele>278.59999999999997</ele><time>2026-03-29T10:16:48.156Z</time></trkpt><trkpt lat="45.3462146" lon="8.0040534"><ele>279.0</ele><time>2026-03-29T10:16:49.16Z</time></trkpt><trkpt lat="45.3462491" lon="8.0041916"><ele>280.0</ele><time>2026-03-29T10:16:50.146Z</time></trkpt><trkpt lat="45.3462778" lon="8.0043393"><ele>281.0</ele><time>2026-03-29T10:16:51.184Z</time></trkpt><trkpt lat="45.346296" lon="8.0044942"><ele>282.0</ele><time>2026-03-29T10:16:52.159Z</time></trkpt><trkpt lat="45.3463161" lon="8.0046412"><ele>283.0</ele><time>2026-03-29T10:16:53.17Z</time></trkpt><trkpt lat="45.3463297" lon="8.0047889"><ele>284.0</ele><time>2026-03-29T10:16:54.16Z</time></trkpt><trkpt lat="45.3463406" lon="8.0049424"><ele>284.8</ele><time>2026-03-29T10:16:55.16Z</time></trkpt><trkpt lat="45.3463518" lon="8.0050898"><ele>285.59999999999997</ele><time>2026-03-29T10:16:56.166Z</time></trkpt><trkpt lat="45.3463519" lon="8.0052435"><ele>286.4</ele><time>2026-03-29T10:16:57.154Z</time></trkpt><trkpt lat="45.3463547" lon="8.0054077"><ele>287.2</ele><time>2026-03-29T10:16:58.166Z</time></trkpt><trkpt lat="45.3463487" lon="8.0055668"><ele>288.0</ele><time>2026-03-29T10:16:59.154Z</time></trkpt><trkpt lat="45.3463484" lon="8.0057177"><ele>288.6</ele><time>2026-03-29T10:17:00.168Z</time></trkpt><trkpt lat="45.3463506" lon="8.0058773"><ele>289.20000000000005</ele><time>2026-03-29T10:17:01.164Z</time></trkpt><trkpt lat="45.3463533" lon="8.0060239"><ele>289.8</ele><time>2026-03-29T10:17:02.178Z</time></trkpt><trkpt lat="45.3463531" lon="8.0061474"><ele>290.40000000000003</ele><time>2026-03-29T10:17:03.162Z</time></trkpt><trkpt lat="45.3463495" lon="8.0062585"><ele>291.0</ele><time>2026-03-29T10:17:04.17Z</time></trkpt><trkpt lat="45.3463674" lon="8.0063878"><ele>291.0</ele><time>2026-03-29T10:17:05.17Z</time></trkpt><trkpt lat="45.3463897" lon="8.0065159"><ele>291.0</ele><time>2026-03-29T10:17:06.17Z</time></trkpt><trkpt lat="45.346425" lon="8.0066306"><ele>291.0</ele><time>2026-03-29T10:17:07.167Z</time></trkpt><trkpt lat="45.3464804" lon="8.0067347"><ele>291.0</ele><time>2026-03-29T10:17:08.159Z</time></trkpt><trkpt lat="45.3465443" lon="8.0068361"><ele>291.0</ele><time>2026-03-29T10:17:09.176Z</time></trkpt><trkpt lat="45.3466145" lon="8.0069184"><ele>291.0</ele><time>2026-03-29T10:17:10.165Z</time></trkpt><trkpt lat="45.3466897" lon="8.0069937"><ele>291.0</ele><time>2026-03-29T10:17:11.161Z</time></trkpt><trkpt lat="45.3467755" lon="8.0070635"><ele>291.0</ele><time>2026-03-29T10:17:12.163Z</time></trkpt><trkpt lat="45.3468822" lon="8.0071423"><ele>291.0</ele><time>2026-03-29T10:17:13.155Z</time></trkpt><trkpt lat="45.3469986" lon="8.0072379"><ele>291.0</ele><time>2026-03-29T10:17:14.166Z</time></trkpt><trkpt lat="45.3471112" lon="8.0073332"><ele>290.5</ele><time>2026-03-29T10:17:15.175Z</time></trkpt><trkpt lat="45.347219" lon="8.0074324"><ele>290.0</ele><time>2026-03-29T10:17:16.161Z</time></trkpt><trkpt lat="45.3473247" lon="8.0075336"><ele>289.5</ele><time>2026-03-29T10:17:17.158Z</time></trkpt><trkpt lat="45.3474382" lon="8.0076268"><ele>289.0</ele><time>2026-03-29T10:17:18.167Z</time></trkpt><trkpt lat="45.3475465" lon="8.0076959"><ele>289.8</ele><time>2026-03-29T10:17:19.171Z</time></trkpt><trkpt lat="45.347651" lon="8.0077566"><ele>290.59999999999997</ele><time>2026-03-29T10:17:20.162Z</time></trkpt><trkpt lat="45.3477373" lon="8.0078111"><ele>291.4</ele><time>2026-03-29T10:17:21.165Z</time></trkpt><trkpt lat="45.3478066" lon="8.0078638"><ele>292.2</ele><time>2026-03-29T10:17:22.177Z</time></trkpt><trkpt lat="45.3478594" lon="8.0079216"><ele>293.0</ele><time>2026-03-29T10:17:23.159Z</time></trkpt><trkpt lat="45.3479052" lon="8.0080936"><ele>293.0</ele><time>2026-03-29T10:17:25.159Z</time></trkpt><trkpt lat="45.3479137" lon="8.0082346"><ele>293.0</ele><time>2026-03-29T10:17:26.162Z</time></trkpt><trkpt lat="45.3479167" lon="8.0083816"><ele>293.0</ele><time>2026-03-29T10:17:27.154Z</time></trkpt><trkpt lat="45.3479289" lon="8.0085366"><ele>293.0</ele><time>2026-03-29T10:17:28.205Z</time></trkpt><trkpt lat="45.3479409" lon="8.0086921"><ele>293.0</ele><time>2026-03-29T10:17:29.154Z</time></trkpt><trkpt lat="45.3479475" lon="8.0088507"><ele>293.4</ele><time>2026-03-29T10:17:30.155Z</time></trkpt><trkpt lat="45.3479527" lon="8.0089977"><ele>293.8</ele><time>2026-03-29T10:17:31.163Z</time></trkpt><trkpt lat="45.3479547" lon="8.0091485"><ele>294.2</ele><time>2026-03-29T10:17:32.157Z</time></trkpt><trkpt lat="45.3479709" lon="8.0092828"><ele>294.6</ele><time>2026-03-29T10:17:33.154Z</time></trkpt><trkpt lat="45.3480021" lon="8.0093982"><ele>295.0</ele><time>2026-03-29T10:17:34.154Z</time></trkpt><trkpt lat="45.3480406" lon="8.0094819"><ele>296.0</ele><time>2026-03-29T10:17:35.169Z</time></trkpt><trkpt lat="45.3481493" lon="8.0096045"><ele>297.0</ele><time>2026-03-29T10:17:37.165Z</time></trkpt><trkpt lat="45.3482341" lon="8.0096732"><ele>298.0</ele><time>2026-03-29T10:17:38.155Z</time></trkpt><trkpt lat="45.3483234" lon="8.0097287"><ele>299.0</ele><time>2026-03-29T10:17:39.162Z</time></trkpt><trkpt lat="45.34841" lon="8.0097696"><ele>300.0</ele><time>2026-03-29T10:17:40.15Z</time></trkpt><trkpt lat="45.3484719" lon="8.0097975"><ele>300.0</ele><time>2026-03-29T10:17:41.166Z</time></trkpt><trkpt lat="45.348542" lon="8.0098226"><ele>300.0</ele><time>2026-03-29T10:17:43.169Z</time></trkpt><trkpt lat="45.3485431" lon="8.0099608"><ele>300.0</ele><time>2026-03-29T10:17:46.16Z</time></trkpt><trkpt lat="45.3484867" lon="8.010068"><ele>300.0</ele><time>2026-03-29T10:17:47.165Z</time></trkpt><trkpt lat="45.3484297" lon="8.0101913"><ele>300.0</ele><time>2026-03-29T10:17:48.163Z</time></trkpt><trkpt lat="45.34837" lon="8.0103095"><ele>300.2</ele><time>2026-03-29T10:17:49.171Z</time></trkpt><trkpt lat="45.3483143" lon="8.0104388"><ele>300.4</ele><time>2026-03-29T10:17:50.142Z</time></trkpt><trkpt lat="45.3482668" lon="8.0105562"><ele>300.6</ele><time>2026-03-29T10:17:51.175Z</time></trkpt><trkpt lat="45.348217" lon="8.0106792"><ele>300.8</ele><time>2026-03-29T10:17:52.151Z</time></trkpt><trkpt lat="45.3481577" lon="8.0108049"><ele>301.0</ele><time>2026-03-29T10:17:53.145Z</time></trkpt><trkpt lat="45.3480985" lon="8.0109309"><ele>303.0</ele><time>2026-03-29T10:17:54.15Z</time></trkpt><trkpt lat="45.3480361" lon="8.0110403"><ele>305.0</ele><time>2026-03-29T10:17:55.151Z</time></trkpt><trkpt lat="45.347974" lon="8.0111405"><ele>307.0</ele><time>2026-03-29T10:17:56.16Z</time></trkpt><trkpt lat="45.3479214" lon="8.011249"><ele>309.0</ele><time>2026-03-29T10:17:57.156Z</time></trkpt><trkpt lat="45.3478661" lon="8.0113541"><ele>311.0</ele><time>2026-03-29T10:17:58.164Z</time></trkpt><trkpt lat="45.347812" lon="8.0114469"><ele>311.0</ele><time>2026-03-29T10:17:59.172Z</time></trkpt><trkpt lat="45.3477665" lon="8.0115204"><ele>311.0</ele><time>2026-03-29T10:18:00.155Z</time></trkpt><trkpt lat="45.3477236" lon="8.0115941"><ele>311.0</ele><time>2026-03-29T10:18:01.152Z</time></trkpt><trkpt lat="45.3476516" lon="8.0117182"><ele>311.0</ele><time>2026-03-29T10:18:03.152Z</time></trkpt><trkpt lat="45.34758" lon="8.0117409"><ele>311.0</ele><time>2026-03-29T10:18:04.163Z</time></trkpt><trkpt lat="45.3475037" lon="8.0117609"><ele>311.0</ele><time>2026-03-29T10:18:05.151Z</time></trkpt><trkpt lat="45.347421" lon="8.0117595"><ele>311.33333333333337</ele><time>2026-03-29T10:18:06.16Z</time></trkpt><trkpt lat="45.3473386" lon="8.0117607"><ele>311.6666666666667</ele><time>2026-03-29T10:18:07.151Z</time></trkpt><trkpt lat="45.3472546" lon="8.0117816"><ele>312.0</ele><time>2026-03-29T10:18:08.153Z</time></trkpt><trkpt lat="45.3471865" lon="8.0118255"><ele>312.3333333333333</ele><time>2026-03-29T10:18:09.156Z</time></trkpt><trkpt lat="45.3471198" lon="8.0119096"><ele>312.66666666666663</ele><time>2026-03-29T10:18:10.175Z</time></trkpt><trkpt lat="45.347069" lon="8.0120162"><ele>313.0</ele><time>2026-03-29T10:18:11.15Z</time></trkpt><trkpt lat="45.3470256" lon="8.0121148"><ele>314.16666666666663</ele><time>2026-03-29T10:18:12.166Z</time></trkpt><trkpt lat="45.3470013" lon="8.0122242"><ele>315.3333333333333</ele><time>2026-03-29T10:18:13.164Z</time></trkpt><trkpt lat="45.346997" lon="8.0123253"><ele>316.5</ele><time>2026-03-29T10:18:14.153Z</time></trkpt><trkpt lat="45.3469843" lon="8.0124208"><ele>317.6666666666667</ele><time>2026-03-29T10:18:15.15Z</time></trkpt><trkpt lat="45.346887" lon="8.0125531"><ele>318.83333333333337</ele><time>2026-03-29T10:18:17.148Z</time></trkpt><trkpt lat="45.3468226" lon="8.0126082"><ele>320.0</ele><time>2026-03-29T10:18:18.143Z</time></trkpt><trkpt lat="45.3467574" lon="8.0126647"><ele>317.42857142857144</ele><time>2026-03-29T10:18:19.146Z</time></trkpt><trkpt lat="45.3466973" lon="8.0127364"><ele>314.8571428571429</ele><time>2026-03-29T10:18:20.156Z</time></trkpt><trkpt lat="45.346637" lon="8.0127934"><ele>312.28571428571433</ele><time>2026-03-29T10:18:21.148Z</time></trkpt><trkpt lat="45.346573" lon="8.0128368"><ele>309.7142857142857</ele><time>2026-03-29T10:18:22.176Z</time></trkpt><trkpt lat="45.346514" lon="8.0128836"><ele>307.14285714285717</ele><time>2026-03-29T10:18:23.164Z</time></trkpt><trkpt lat="45.3464524" lon="8.0129231"><ele>304.5714285714286</ele><time>2026-03-29T10:18:24.173Z</time></trkpt><trkpt lat="45.3463945" lon="8.0129621"><ele>302.0</ele><time>2026-03-29T10:18:25.171Z</time></trkpt><trkpt lat="45.3463301" lon="8.0129963"><ele>302.00000000000006</ele><time>2026-03-29T10:18:26.152Z</time></trkpt><trkpt lat="45.3462734" lon="8.013056"><ele>302.0</ele><time>2026-03-29T10:18:27.154Z</time></trkpt><trkpt lat="45.3462107" lon="8.013107"><ele>302.0</ele><time>2026-03-29T10:18:28.164Z</time></trkpt><trkpt lat="45.3461436" lon="8.0131521"><ele>302.0</ele><time>2026-03-29T10:18:29.147Z</time></trkpt><trkpt lat="45.3460864" lon="8.0132191"><ele>302.0</ele><time>2026-03-29T10:18:30.143Z</time></trkpt><trkpt lat="45.3460344" lon="8.0132744"><ele>302.00000000000006</ele><time>2026-03-29T10:18:31.159Z</time></trkpt><trkpt lat="45.3459802" lon="8.0133315"><ele>302.0</ele><time>2026-03-29T10:18:32.152Z</time></trkpt><trkpt lat="45.345933" lon="8.0134032"><ele>299.4</ele><time>2026-03-29T10:18:33.172Z</time></trkpt><trkpt lat="45.3458789" lon="8.0134751"><ele>296.79999999999995</ele><time>2026-03-29T10:18:34.164Z</time></trkpt><trkpt lat="45.345773" lon="8.0135128"><ele>294.2</ele><time>2026-03-29T10:18:36.171Z</time></trkpt><trkpt lat="45.3456823" lon="8.0135106"><ele>291.59999999999997</ele><time>2026-03-29T10:18:38.162Z</time></trkpt><trkpt lat="45.3455772" lon="8.0134869"><ele>289.0</ele><time>2026-03-29T10:18:40.16Z</time></trkpt><trkpt lat="45.3454995" lon="8.0135461"><ele>289.0</ele><time>2026-03-29T10:18:42.153Z</time></trkpt><trkpt lat="45.3455123" lon="8.013654"><ele>289.0</ele><time>2026-03-29T10:18:44.155Z</time></trkpt><trkpt lat="45.3455738" lon="8.0136733"><ele>289.0</ele><time>2026-03-29T10:18:46.163Z</time></trkpt><trkpt lat="45.345659" lon="8.0136255"><ele>289.0</ele><time>2026-03-29T10:18:49.156Z</time></trkpt><trkpt lat="45.3457766" lon="8.01354"><ele>289.0</ele><time>2026-03-29T10:18:51.157Z</time></trkpt><trkpt lat="45.3458411" lon="8.0134978"><ele>289.0</ele><time>2026-03-29T10:18:52.153Z</time></trkpt><trkpt lat="45.3459209" lon="8.0134531"><ele>289.0</ele><time>2026-03-29T10:18:53.153Z</time></trkpt><trkpt lat="45.3459926" lon="8.0133823"><ele>289.0</ele><time>2026-03-29T10:18:54.159Z</time></trkpt><trkpt lat="45.3460523" lon="8.013304"><ele>289.0</ele><time>2026-03-29T10:18:55.156Z</time></trkpt><trkpt lat="45.3461058" lon="8.0132316"><ele>289.0</ele><time>2026-03-29T10:18:56.152Z</time></trkpt><trkpt lat="45.3461661" lon="8.0131585"><ele>289.0</ele><time>2026-03-29T10:18:57.149Z</time></trkpt><trkpt lat="45.3462319" lon="8.0130947"><ele>289.0</ele><time>2026-03-29T10:18:58.156Z</time></trkpt><trkpt lat="45.3463021" lon="8.0130361"><ele>291.16666666666663</ele><time>2026-03-29T10:18:59.154Z</time></trkpt><trkpt lat="45.3463703" lon="8.0129796"><ele>293.3333333333333</ele><time>2026-03-29T10:19:00.18Z</time></trkpt><trkpt lat="45.3464426" lon="8.0129351"><ele>295.5</ele><time>2026-03-29T10:19:01.153Z</time></trkpt><trkpt lat="45.3465067" lon="8.0128914"><ele>297.6666666666667</ele><time>2026-03-29T10:19:02.153Z</time></trkpt><trkpt lat="45.3465756" lon="8.0128536"><ele>299.83333333333337</ele><time>2026-03-29T10:19:03.16Z</time></trkpt><trkpt lat="45.3466441" lon="8.012808"><ele>302.0</ele><time>2026-03-29T10:19:04.163Z</time></trkpt><trkpt lat="45.3467114" lon="8.0127484"><ele>302.0</ele><time>2026-03-29T10:19:05.158Z</time></trkpt><trkpt lat="45.3467737" lon="8.0126833"><ele>302.0</ele><time>2026-03-29T10:19:06.15Z</time></trkpt><trkpt lat="45.3468323" lon="8.0126122"><ele>302.0</ele><time>2026-03-29T10:19:07.16Z</time></trkpt><trkpt lat="45.3468847" lon="8.0125536"><ele>302.0</ele><time>2026-03-29T10:19:08.143Z</time></trkpt><trkpt lat="45.3469613" lon="8.0124535"><ele>302.0</ele><time>2026-03-29T10:19:10.152Z</time></trkpt><trkpt lat="45.347027" lon="8.0124483"><ele>302.0</ele><time>2026-03-29T10:19:13.161Z</time></trkpt><trkpt lat="45.3470672" lon="8.0125878"><ele>302.0</ele><time>2026-03-29T10:19:15.153Z</time></trkpt><trkpt lat="45.3471001" lon="8.0127023"><ele>302.0</ele><time>2026-03-29T10:19:16.137Z</time></trkpt><trkpt lat="45.3471232" lon="8.0128388"><ele>302.0</ele><time>2026-03-29T10:19:17.145Z</time></trkpt><trkpt lat="45.3471221" lon="8.0129904"><ele>302.0</ele><time>2026-03-29T10:19:18.147Z</time></trkpt><trkpt lat="45.3471216" lon="8.0131344"><ele>302.0</ele><time>2026-03-29T10:19:19.159Z</time></trkpt><trkpt lat="45.3471207" lon="8.0132722"><ele>300.2</ele><time>2026-03-29T10:19:20.148Z</time></trkpt><trkpt lat="45.3471254" lon="8.0134139"><ele>298.4</ele><time>2026-03-29T10:19:21.161Z</time></trkpt><trkpt lat="45.3471242" lon="8.0135585"><ele>296.6</ele><time>2026-03-29T10:19:22.163Z</time></trkpt><trkpt lat="45.3471263" lon="8.0136896"><ele>294.8</ele><time>2026-03-29T10:19:23.162Z</time></trkpt><trkpt lat="45.347133" lon="8.0138132"><ele>293.0</ele><time>2026-03-29T10:19:24.183Z</time></trkpt><trkpt lat="45.3471449" lon="8.0139252"><ele>293.0</ele><time>2026-03-29T10:19:25.149Z</time></trkpt><trkpt lat="45.3471617" lon="8.0140342"><ele>293.0</ele><time>2026-03-29T10:19:26.15Z</time></trkpt><trkpt lat="45.3471813" lon="8.0141372"><ele>293.0</ele><time>2026-03-29T10:19:27.172Z</time></trkpt><trkpt lat="45.3472112" lon="8.014235"><ele>293.0</ele><time>2026-03-29T10:19:28.158Z</time></trkpt><trkpt lat="45.3472425" lon="8.0143483"><ele>293.0</ele><time>2026-03-29T10:19:29.151Z</time></trkpt><trkpt lat="45.3472741" lon="8.0144525"><ele>293.0</ele><time>2026-03-29T10:19:30.173Z</time></trkpt><trkpt lat="45.3472973" lon="8.0145465"><ele>293.4</ele><time>2026-03-29T10:19:31.147Z</time></trkpt><trkpt lat="45.347325" lon="8.0146642"><ele>293.8</ele><time>2026-03-29T10:19:33.155Z</time></trkpt><trkpt lat="45.3474385" lon="8.0147627"><ele>294.2</ele><time>2026-03-29T10:19:35.165Z</time></trkpt><trkpt lat="45.3475339" lon="8.0148194"><ele>294.6</ele><time>2026-03-29T10:19:36.162Z</time></trkpt><trkpt lat="45.3476309" lon="8.0148953"><ele>295.0</ele><time>2026-03-29T10:19:37.15Z</time></trkpt><trkpt lat="45.3477259" lon="8.014978"><ele>293.75</ele><time>2026-03-29T10:19:38.154Z</time></trkpt><trkpt lat="45.3478445" lon="8.0150614"><ele>292.5</ele><time>2026-03-29T10:19:39.146Z</time></trkpt><trkpt lat="45.3479744" lon="8.0151604"><ele>291.25</ele><time>2026-03-29T10:19:40.154Z</time></trkpt><trkpt lat="45.3481084" lon="8.0152704"><ele>290.0</ele><time>2026-03-29T10:19:41.159Z</time></trkpt><trkpt lat="45.3482369" lon="8.0153906"><ele>290.0</ele><time>2026-03-29T10:19:42.161Z</time></trkpt><trkpt lat="45.3483642" lon="8.01551"><ele>290.0</ele><time>2026-03-29T10:19:43.186Z</time></trkpt><trkpt lat="45.3484767" lon="8.0156335"><ele>290.0</ele><time>2026-03-29T10:19:44.163Z</time></trkpt><trkpt lat="45.3485921" lon="8.0157531"><ele>290.0</ele><time>2026-03-29T10:19:45.144Z</time></trkpt><trkpt lat="45.3487134" lon="8.0158697"><ele>287.33333333333337</ele><time>2026-03-29T10:19:46.145Z</time></trkpt><trkpt lat="45.3488367" lon="8.0159923"><ele>284.6666666666667</ele><time>2026-03-29T10:19:47.155Z</time></trkpt><trkpt lat="45.3489674" lon="8.0161188"><ele>282.0</ele><time>2026-03-29T10:19:48.159Z</time></trkpt><trkpt lat="45.3490974" lon="8.0162434"><ele>282.0</ele><time>2026-03-29T10:19:49.16Z</time></trkpt><trkpt lat="45.3492286" lon="8.0163714"><ele>282.0</ele><time>2026-03-29T10:19:50.163Z</time></trkpt><trkpt lat="45.3493566" lon="8.0165073"><ele>282.0</ele><time>2026-03-29T10:19:51.153Z</time></trkpt><trkpt lat="45.3494897" lon="8.0166522"><ele>282.0</ele><time>2026-03-29T10:19:52.155Z</time></trkpt><trkpt lat="45.3496248" lon="8.0167991"><ele>282.0</ele><time>2026-03-29T10:19:53.147Z</time></trkpt><trkpt lat="45.3497583" lon="8.0169488"><ele>282.0</ele><time>2026-03-29T10:19:54.169Z</time></trkpt><trkpt lat="45.349888" lon="8.0170922"><ele>282.0</ele><time>2026-03-29T10:19:55.151Z</time></trkpt><trkpt lat="45.3500131" lon="8.0172301"><ele>282.0</ele><time>2026-03-29T10:19:56.16Z</time></trkpt><trkpt lat="45.35013" lon="8.0173596"><ele>282.0</ele><time>2026-03-29T10:19:57.159Z</time></trkpt><trkpt lat="45.3502389" lon="8.0174779"><ele>282.0</ele><time>2026-03-29T10:19:58.175Z</time></trkpt><trkpt lat="45.3503449" lon="8.0175843"><ele>282.25</ele><time>2026-03-29T10:19:59.152Z</time></trkpt><trkpt lat="45.3504609" lon="8.0176853"><ele>282.5</ele><time>2026-03-29T10:20:00.152Z</time></trkpt><trkpt lat="45.3505826" lon="8.01778"><ele>282.75</ele><time>2026-03-29T10:20:01.176Z</time></trkpt><trkpt lat="45.3507182" lon="8.0178727"><ele>283.0</ele><time>2026-03-29T10:20:02.172Z</time></trkpt><trkpt lat="45.3508596" lon="8.0179745"><ele>283.5</ele><time>2026-03-29T10:20:03.153Z</time></trkpt><trkpt lat="45.3509879" lon="8.0180803"><ele>284.0</ele><time>2026-03-29T10:20:04.163Z</time></trkpt><trkpt lat="45.3511105" lon="8.0181758"><ele>284.5</ele><time>2026-03-29T10:20:05.156Z</time></trkpt><trkpt lat="45.3512315" lon="8.0182637"><ele>285.0</ele><time>2026-03-29T10:20:06.161Z</time></trkpt><trkpt lat="45.3513494" lon="8.0183614"><ele>286.0</ele><time>2026-03-29T10:20:07.163Z</time></trkpt><trkpt lat="45.3514613" lon="8.018449"><ele>287.0</ele><time>2026-03-29T10:20:08.16Z</time></trkpt><trkpt lat="45.3515625" lon="8.018526"><ele>288.0</ele><time>2026-03-29T10:20:09.158Z</time></trkpt><trkpt lat="45.3516554" lon="8.0185961"><ele>289.0</ele><time>2026-03-29T10:20:10.173Z</time></trkpt><trkpt lat="45.3517434" lon="8.0186473"><ele>290.0</ele><time>2026-03-29T10:20:11.167Z</time></trkpt><trkpt lat="45.3518397" lon="8.0186902"><ele>290.0</ele><time>2026-03-29T10:20:12.157Z</time></trkpt><trkpt lat="45.351948" lon="8.0187291"><ele>290.0</ele><time>2026-03-29T10:20:13.169Z</time></trkpt><trkpt lat="45.3520673" lon="8.0187767"><ele>290.0</ele><time>2026-03-29T10:20:14.168Z</time></trkpt><trkpt lat="45.3521889" lon="8.0188255"><ele>290.0</ele><time>2026-03-29T10:20:15.136Z</time></trkpt><trkpt lat="45.3522948" lon="8.0188572"><ele>289.6</ele><time>2026-03-29T10:20:16.159Z</time></trkpt><trkpt lat="45.3523917" lon="8.0188819"><ele>289.2</ele><time>2026-03-29T10:20:17.169Z</time></trkpt><trkpt lat="45.3524828" lon="8.0189192"><ele>288.8</ele><time>2026-03-29T10:20:18.161Z</time></trkpt><trkpt lat="45.3525765" lon="8.0189686"><ele>288.4</ele><time>2026-03-29T10:20:19.154Z</time></trkpt><trkpt lat="45.3526675" lon="8.0190386"><ele>288.0</ele><time>2026-03-29T10:20:20.163Z</time></trkpt><trkpt lat="45.3527574" lon="8.0191048"><ele>289.25</ele><time>2026-03-29T10:20:21.151Z</time></trkpt><trkpt lat="45.3528537" lon="8.0191874"><ele>290.5</ele><time>2026-03-29T10:20:22.155Z</time></trkpt><trkpt lat="45.3529604" lon="8.0192768"><ele>291.75</ele><time>2026-03-29T10:20:23.153Z</time></trkpt><trkpt lat="45.3530862" lon="8.0193544"><ele>293.0</ele><time>2026-03-29T10:20:24.157Z</time></trkpt><trkpt lat="45.3531993" lon="8.0193951"><ele>293.0</ele><time>2026-03-29T10:20:25.158Z</time></trkpt><trkpt lat="45.3533071" lon="8.0194402"><ele>293.0</ele><time>2026-03-29T10:20:26.161Z</time></trkpt><trkpt lat="45.3534212" lon="8.0194771"><ele>293.0</ele><time>2026-03-29T10:20:27.16Z</time></trkpt><trkpt lat="45.3535189" lon="8.0195134"><ele>293.0</ele><time>2026-03-29T10:20:28.164Z</time></trkpt><trkpt lat="45.3536229" lon="8.0195611"><ele>293.0</ele><time>2026-03-29T10:20:29.175Z</time></trkpt><trkpt lat="45.353734" lon="8.0196147"><ele>293.0</ele><time>2026-03-29T10:20:30.172Z</time></trkpt><trkpt lat="45.3538482" lon="8.0196736"><ele>293.0</ele><time>2026-03-29T10:20:31.194Z</time></trkpt><trkpt lat="45.3539632" lon="8.0197599"><ele>293.0</ele><time>2026-03-29T10:20:32.166Z</time></trkpt><trkpt lat="45.354079" lon="8.0198573"><ele>293.0</ele><time>2026-03-29T10:20:33.155Z</time></trkpt><trkpt lat="45.3541866" lon="8.019942"><ele>294.2</ele><time>2026-03-29T10:20:34.157Z</time></trkpt><trkpt lat="45.3542863" lon="8.0200163"><ele>295.4</ele><time>2026-03-29T10:20:35.163Z</time></trkpt><trkpt lat="45.3543769" lon="8.0200774"><ele>296.59999999999997</ele><time>2026-03-29T10:20:36.158Z</time></trkpt><trkpt lat="45.3544634" lon="8.0201147"><ele>297.8</ele><time>2026-03-29T10:20:37.16Z</time></trkpt><trkpt lat="45.3545457" lon="8.0201417"><ele>299.0</ele><time>2026-03-29T10:20:38.159Z</time></trkpt><trkpt lat="45.3546389" lon="8.0201515"><ele>299.25</ele><time>2026-03-29T10:20:39.16Z</time></trkpt><trkpt lat="45.354744" lon="8.0201283"><ele>299.5</ele><time>2026-03-29T10:20:40.151Z</time></trkpt><trkpt lat="45.3548809" lon="8.0200997"><ele>299.75</ele><time>2026-03-29T10:20:41.157Z</time></trkpt><trkpt lat="45.3550187" lon="8.0200706"><ele>300.0</ele><time>2026-03-29T10:20:42.166Z</time></trkpt><trkpt lat="45.3551424" lon="8.0200508"><ele>300.0</ele><time>2026-03-29T10:20:43.157Z</time></trkpt><trkpt lat="45.355254" lon="8.0200305"><ele>300.0</ele><time>2026-03-29T10:20:44.17Z</time></trkpt><trkpt lat="45.3553675" lon="8.0200107"><ele>300.0</ele><time>2026-03-29T10:20:45.174Z</time></trkpt><trkpt lat="45.3554766" lon="8.019994"><ele>300.0</ele><time>2026-03-29T10:20:46.161Z</time></trkpt><trkpt lat="45.3555712" lon="8.0199826"><ele>300.0</ele><time>2026-03-29T10:20:47.173Z</time></trkpt><trkpt lat="45.3556611" lon="8.0199823"><ele>299.75</ele><time>2026-03-29T10:20:48.161Z</time></trkpt><trkpt lat="45.3557587" lon="8.0199838"><ele>299.5</ele><time>2026-03-29T10:20:49.174Z</time></trkpt><trkpt lat="45.3558796" lon="8.0199925"><ele>299.25</ele><time>2026-03-29T10:20:50.176Z</time></trkpt><trkpt lat="45.3560113" lon="8.0200086"><ele>299.0</ele><time>2026-03-29T10:20:51.16Z</time></trkpt><trkpt lat="45.3561459" lon="8.0200329"><ele>299.0</ele><time>2026-03-29T10:20:52.157Z</time></trkpt><trkpt lat="45.356292" lon="8.0200708"><ele>299.0</ele><time>2026-03-29T10:20:53.152Z</time></trkpt><trkpt lat="45.3564385" lon="8.0201137"><ele>299.0</ele><time>2026-03-29T10:20:54.16Z</time></trkpt><trkpt lat="45.3565768" lon="8.0201394"><ele>299.0</ele><time>2026-03-29T10:20:55.155Z</time></trkpt><trkpt lat="45.3567058" lon="8.0201752"><ele>300.0</ele><time>2026-03-29T10:20:56.175Z</time></trkpt><trkpt lat="45.3568258" lon="8.0202075"><ele>301.0</ele><time>2026-03-29T10:20:57.161Z</time></trkpt><trkpt lat="45.3569334" lon="8.0202397"><ele>302.0</ele><time>2026-03-29T10:20:58.156Z</time></trkpt><trkpt lat="45.3570377" lon="8.0202624"><ele>303.0</ele><time>2026-03-29T10:20:59.158Z</time></trkpt><trkpt lat="45.3571431" lon="8.0202903"><ele>304.0</ele><time>2026-03-29T10:21:00.155Z</time></trkpt><trkpt lat="45.3572403" lon="8.0203206"><ele>304.66666666666663</ele><time>2026-03-29T10:21:01.16Z</time></trkpt><trkpt lat="45.3573422" lon="8.0203397"><ele>305.3333333333333</ele><time>2026-03-29T10:21:02.168Z</time></trkpt><trkpt lat="45.3574353" lon="8.0203625"><ele>306.0</ele><time>2026-03-29T10:21:03.154Z</time></trkpt><trkpt lat="45.3575084" lon="8.0203742"><ele>306.6666666666667</ele><time>2026-03-29T10:21:04.17Z</time></trkpt><trkpt lat="45.3576123" lon="8.0203719"><ele>307.33333333333337</ele><time>2026-03-29T10:21:06.166Z</time></trkpt><trkpt lat="45.3576657" lon="8.0203084"><ele>308.0</ele><time>2026-03-29T10:21:08.164Z</time></trkpt><trkpt lat="45.357702" lon="8.0202007"><ele>308.0</ele><time>2026-03-29T10:21:09.156Z</time></trkpt><trkpt lat="45.3577285" lon="8.0200981"><ele>308.0</ele><time>2026-03-29T10:21:10.167Z</time></trkpt><trkpt lat="45.3577996" lon="8.0199536"><ele>308.0</ele><time>2026-03-29T10:21:12.166Z</time></trkpt><trkpt lat="45.3578618" lon="8.0198894"><ele>308.0</ele><time>2026-03-29T10:21:13.164Z</time></trkpt><trkpt lat="45.3579314" lon="8.019827"><ele>308.0</ele><time>2026-03-29T10:21:14.156Z</time></trkpt><trkpt lat="45.3580265" lon="8.0197769"><ele>308.2</ele><time>2026-03-29T10:21:15.184Z</time></trkpt><trkpt lat="45.3581268" lon="8.0197124"><ele>308.4</ele><time>2026-03-29T10:21:16.165Z</time></trkpt><trkpt lat="45.3582033" lon="8.0196408"><ele>308.59999999999997</ele><time>2026-03-29T10:21:17.189Z</time></trkpt><trkpt lat="45.3582785" lon="8.0195722"><ele>308.8</ele><time>2026-03-29T10:21:19.157Z</time></trkpt><trkpt lat="45.3583733" lon="8.0195251"><ele>309.0</ele><time>2026-03-29T10:21:22.154Z</time></trkpt><trkpt lat="45.3584649" lon="8.0194656"><ele>309.0</ele><time>2026-03-29T10:21:24.18Z</time></trkpt><trkpt lat="45.3585562" lon="8.0194342"><ele>309.0</ele><time>2026-03-29T10:21:26.18Z</time></trkpt><trkpt lat="45.3586508" lon="8.0194071"><ele>309.0</ele><time>2026-03-29T10:21:28.161Z</time></trkpt><trkpt lat="45.358772" lon="8.0193839"><ele>309.0</ele><time>2026-03-29T10:21:30.167Z</time></trkpt><trkpt lat="45.3588954" lon="8.0193736"><ele>309.0</ele><time>2026-03-29T10:21:32.167Z</time></trkpt><trkpt lat="45.3590045" lon="8.0193976"><ele>309.2</ele><time>2026-03-29T10:21:34.159Z</time></trkpt><trkpt lat="45.3591011" lon="8.0194399"><ele>309.4</ele><time>2026-03-29T10:21:36.16Z</time></trkpt><trkpt lat="45.3592095" lon="8.0194387"><ele>309.6</ele><time>2026-03-29T10:21:38.168Z</time></trkpt><trkpt lat="45.3593155" lon="8.019372"><ele>309.8</ele><time>2026-03-29T10:21:40.164Z</time></trkpt><trkpt lat="45.3594247" lon="8.0193082"><ele>310.0</ele><time>2026-03-29T10:21:42.166Z</time></trkpt><trkpt lat="45.3594834" lon="8.01927"><ele>310.0</ele><time>2026-03-29T10:21:43.164Z</time></trkpt><trkpt lat="45.3595991" lon="8.019193"><ele>310.0</ele><time>2026-03-29T10:21:45.154Z</time></trkpt><trkpt lat="45.3597028" lon="8.0191207"><ele>310.0</ele><time>2026-03-29T10:21:47.156Z</time></trkpt><trkpt lat="45.3598012" lon="8.0190547"><ele>310.0</ele><time>2026-03-29T10:21:49.165Z</time></trkpt><trkpt lat="45.3599176" lon="8.0190207"><ele>309.6</ele><time>2026-03-29T10:21:51.168Z</time></trkpt><trkpt lat="45.3600247" lon="8.0190081"><ele>309.2</ele><time>2026-03-29T10:21:53.154Z</time></trkpt><trkpt lat="45.3601291" lon="8.0189845"><ele>308.8</ele><time>2026-03-29T10:21:55.158Z</time></trkpt><trkpt lat="45.3602337" lon="8.0189595"><ele>308.4</ele><time>2026-03-29T10:21:57.162Z</time></trkpt><trkpt lat="45.3603513" lon="8.0189549"><ele>308.0</ele><time>2026-03-29T10:21:59.177Z</time></trkpt><trkpt lat="45.3604648" lon="8.0189467"><ele>308.2857142857143</ele><time>2026-03-29T10:22:01.171Z</time></trkpt><trkpt lat="45.3605331" lon="8.0189312"><ele>308.57142857142856</ele><time>2026-03-29T10:22:02.161Z</time></trkpt><trkpt lat="45.3606036" lon="8.01891"><ele>308.8571428571429</ele><time>2026-03-29T10:22:03.161Z</time></trkpt><trkpt lat="45.3606848" lon="8.0188785"><ele>309.1428571428571</ele><time>2026-03-29T10:22:04.156Z</time></trkpt><trkpt lat="45.3607588" lon="8.0188487"><ele>309.42857142857144</ele><time>2026-03-29T10:22:05.162Z</time></trkpt><trkpt lat="45.3608284" lon="8.0188171"><ele>309.7142857142857</ele><time>2026-03-29T10:22:06.171Z</time></trkpt><trkpt lat="45.3608919" lon="8.0187929"><ele>310.0</ele><time>2026-03-29T10:22:07.173Z</time></trkpt><trkpt lat="45.360959" lon="8.0187574"><ele>310.0</ele><time>2026-03-29T10:22:08.167Z</time></trkpt><trkpt lat="45.3610223" lon="8.0187172"><ele>310.0</ele><time>2026-03-29T10:22:09.171Z</time></trkpt><trkpt lat="45.3610821" lon="8.0186742"><ele>310.0</ele><time>2026-03-29T10:22:10.169Z</time></trkpt><trkpt lat="45.3611452" lon="8.0186353"><ele>310.0</ele><time>2026-03-29T10:22:11.16Z</time></trkpt><trkpt lat="45.3612047" lon="8.0186002"><ele>310.0</ele><time>2026-03-29T10:22:12.17Z</time></trkpt><trkpt lat="45.3612613" lon="8.0185555"><ele>310.0</ele><time>2026-03-29T10:22:13.155Z</time></trkpt><trkpt lat="45.3613233" lon="8.0185152"><ele>310.0</ele><time>2026-03-29T10:22:14.174Z</time></trkpt><trkpt lat="45.3613848" lon="8.0184645"><ele>309.8333333333333</ele><time>2026-03-29T10:22:15.182Z</time></trkpt><trkpt lat="45.3614443" lon="8.0184197"><ele>309.66666666666663</ele><time>2026-03-29T10:22:16.17Z</time></trkpt><trkpt lat="45.3615009" lon="8.0183711"><ele>309.5</ele><time>2026-03-29T10:22:17.169Z</time></trkpt><trkpt lat="45.3615673" lon="8.0183132"><ele>309.3333333333333</ele><time>2026-03-29T10:22:18.174Z</time></trkpt><trkpt lat="45.3616406" lon="8.0182447"><ele>309.1666666666667</ele><time>2026-03-29T10:22:19.188Z</time></trkpt><trkpt lat="45.3617097" lon="8.0181745"><ele>309.0</ele><time>2026-03-29T10:22:20.166Z</time></trkpt><trkpt lat="45.3617735" lon="8.0181116"><ele>309.00000000000006</ele><time>2026-03-29T10:22:21.193Z</time></trkpt><trkpt lat="45.3618283" lon="8.0180573"><ele>309.0</ele><time>2026-03-29T10:22:22.163Z</time></trkpt><trkpt lat="45.3618841" lon="8.0180048"><ele>309.0</ele><time>2026-03-29T10:22:23.155Z</time></trkpt><trkpt lat="45.3619452" lon="8.0179459"><ele>309.0</ele><time>2026-03-29T10:22:24.159Z</time></trkpt><trkpt lat="45.3620167" lon="8.0178901"><ele>309.0</ele><time>2026-03-29T10:22:25.169Z</time></trkpt><trkpt lat="45.3620804" lon="8.0178467"><ele>309.00000000000006</ele><time>2026-03-29T10:22:26.154Z</time></trkpt><trkpt lat="45.3621398" lon="8.0178087"><ele>309.0</ele><time>2026-03-29T10:22:27.152Z</time></trkpt><trkpt lat="45.3622428" lon="8.0177409"><ele>310.0</ele><time>2026-03-29T10:22:29.138Z</time></trkpt><trkpt lat="45.3623528" lon="8.0176804"><ele>311.0</ele><time>2026-03-29T10:22:31.161Z</time></trkpt><trkpt lat="45.3624493" lon="8.0176589"><ele>312.0</ele><time>2026-03-29T10:22:33.173Z</time></trkpt><trkpt lat="45.3625505" lon="8.0176065"><ele>313.0</ele><time>2026-03-29T10:22:35.161Z</time></trkpt><trkpt lat="45.3626688" lon="8.0175615"><ele>314.0</ele><time>2026-03-29T10:22:37.169Z</time></trkpt><trkpt lat="45.3627302" lon="8.0175357"><ele>314.0</ele><time>2026-03-29T10:22:38.158Z</time></trkpt><trkpt lat="45.362796" lon="8.0175133"><ele>314.0</ele><time>2026-03-29T10:22:39.165Z</time></trkpt><trkpt lat="45.3628723" lon="8.0174869"><ele>314.0</ele><time>2026-03-29T10:22:40.169Z</time></trkpt><trkpt lat="45.3629633" lon="8.0174434"><ele>314.0</ele><time>2026-03-29T10:22:41.165Z</time></trkpt><trkpt lat="45.3630452" lon="8.0174045"><ele>314.0</ele><time>2026-03-29T10:22:42.172Z</time></trkpt><trkpt lat="45.3631048" lon="8.0173601"><ele>314.0</ele><time>2026-03-29T10:22:43.158Z</time></trkpt><trkpt lat="45.3632006" lon="8.0172909"><ele>314.0</ele><time>2026-03-29T10:22:45.173Z</time></trkpt><trkpt lat="45.3632809" lon="8.017213"><ele>314.0</ele><time>2026-03-29T10:22:47.172Z</time></trkpt><trkpt lat="45.3633634" lon="8.0171961"><ele>314.0</ele><time>2026-03-29T10:22:50.173Z</time></trkpt><trkpt lat="45.3634317" lon="8.0172874"><ele>314.0</ele><time>2026-03-29T10:22:52.169Z</time></trkpt><trkpt lat="45.3634791" lon="8.0173998"><ele>314.0</ele><time>2026-03-29T10:22:54.151Z</time></trkpt><trkpt lat="45.3635259" lon="8.0175138"><ele>314.0</ele><time>2026-03-29T10:22:56.168Z</time></trkpt><trkpt lat="45.363574" lon="8.017602"><ele>314.0</ele><time>2026-03-29T10:22:58.157Z</time></trkpt><trkpt lat="45.3636655" lon="8.0176464"><ele>314.0</ele><time>2026-03-29T10:23:01.165Z</time></trkpt><trkpt lat="45.3637299" lon="8.0176761"><ele>314.0</ele><time>2026-03-29T10:23:03.169Z</time></trkpt><trkpt lat="45.3637945" lon="8.0177245"><ele>314.0</ele><time>2026-03-29T10:23:06.158Z</time></trkpt><trkpt lat="45.3638655" lon="8.0177677"><ele>314.0</ele><time>2026-03-29T10:23:10.174Z</time></trkpt><trkpt lat="45.363929" lon="8.0177884"><ele>314.0</ele><time>2026-03-29T10:23:17.177Z</time></trkpt><trkpt lat="45.3640104" lon="8.0178404"><ele>314.0</ele><time>2026-03-29T10:23:19.183Z</time></trkpt><trkpt lat="45.3640886" lon="8.0178898"><ele>314.0</ele><time>2026-03-29T10:23:21.181Z</time></trkpt><trkpt lat="45.3641631" lon="8.0179464"><ele>314.0</ele><time>2026-03-29T10:23:23.164Z</time></trkpt><trkpt lat="45.3642211" lon="8.0180118"><ele>314.0</ele><time>2026-03-29T10:23:25.167Z</time></trkpt><trkpt lat="45.3643047" lon="8.0180802"><ele>314.0</ele><time>2026-03-29T10:23:27.157Z</time></trkpt><trkpt lat="45.3644073" lon="8.0181495"><ele>314.0</ele><time>2026-03-29T10:23:29.158Z</time></trkpt><trkpt lat="45.3644866" lon="8.0182064"><ele>314.0</ele><time>2026-03-29T10:23:31.161Z</time></trkpt><trkpt lat="45.3645705" lon="8.0182641"><ele>314.0</ele><time>2026-03-29T10:23:33.161Z</time></trkpt><trkpt lat="45.3646564" lon="8.0183267"><ele>314.0</ele><time>2026-03-29T10:23:35.161Z</time></trkpt><trkpt lat="45.3647249" lon="8.0183883"><ele>314.0</ele><time>2026-03-29T10:23:37.168Z</time></trkpt><trkpt lat="45.3647977" lon="8.0184324"><ele>314.0</ele><time>2026-03-29T10:23:39.164Z</time></trkpt><trkpt lat="45.3648884" lon="8.0184701"><ele>312.2</ele><time>2026-03-29T10:23:41.169Z</time></trkpt><trkpt lat="45.3649889" lon="8.0184931"><ele>310.4</ele><time>2026-03-29T10:23:43.163Z</time></trkpt><trkpt lat="45.365071" lon="8.0185074"><ele>308.6</ele><time>2026-03-29T10:23:44.162Z</time></trkpt><trkpt lat="45.3651368" lon="8.0185213"><ele>306.8</ele><time>2026-03-29T10:23:45.161Z</time></trkpt><trkpt lat="45.3652503" lon="8.0185702"><ele>305.0</ele><time>2026-03-29T10:23:47.152Z</time></trkpt><trkpt lat="45.3653674" lon="8.0186197"><ele>305.0</ele><time>2026-03-29T10:23:49.166Z</time></trkpt><trkpt lat="45.3654717" lon="8.018659"><ele>305.0</ele><time>2026-03-29T10:23:51.157Z</time></trkpt><trkpt lat="45.3655599" lon="8.018704"><ele>305.0</ele><time>2026-03-29T10:23:53.165Z</time></trkpt><trkpt lat="45.3656407" lon="8.018741"><ele>305.0</ele><time>2026-03-29T10:23:55.199Z</time></trkpt><trkpt lat="45.3657226" lon="8.0187689"><ele>305.0</ele><time>2026-03-29T10:23:57.169Z</time></trkpt><trkpt lat="45.3657941" lon="8.0187997"><ele>305.0</ele><time>2026-03-29T10:23:59.161Z</time></trkpt><trkpt lat="45.365842" lon="8.0188639"><ele>304.4</ele><time>2026-03-29T10:24:02.144Z</time></trkpt><trkpt lat="45.36583" lon="8.0189586"><ele>303.8</ele><time>2026-03-29T10:24:04.147Z</time></trkpt><trkpt lat="45.3658117" lon="8.01908"><ele>303.2</ele><time>2026-03-29T10:24:06.153Z</time></trkpt><trkpt lat="45.3657759" lon="8.0191713"><ele>302.6</ele><time>2026-03-29T10:24:07.16Z</time></trkpt><trkpt lat="45.3657339" lon="8.0193042"><ele>302.0</ele><time>2026-03-29T10:24:09.163Z</time></trkpt><trkpt lat="45.3657182" lon="8.0195102"><ele>301.83333333333337</ele><time>2026-03-29T10:24:11.165Z</time></trkpt><trkpt lat="45.3657107" lon="8.0196219"><ele>301.6666666666667</ele><time>2026-03-29T10:24:12.143Z</time></trkpt><trkpt lat="45.3656959" lon="8.0197279"><ele>301.5</ele><time>2026-03-29T10:24:13.15Z</time></trkpt><trkpt lat="45.3656659" lon="8.0198319"><ele>301.3333333333333</ele><time>2026-03-29T10:24:14.156Z</time></trkpt><trkpt lat="45.365633" lon="8.0199454"><ele>301.16666666666663</ele><time>2026-03-29T10:24:15.167Z</time></trkpt><trkpt lat="45.3655984" lon="8.0200564"><ele>301.0</ele><time>2026-03-29T10:24:16.15Z</time></trkpt><trkpt lat="45.3655646" lon="8.0201665"><ele>300.66666666666663</ele><time>2026-03-29T10:24:17.167Z</time></trkpt><trkpt lat="45.3655326" lon="8.0202693"><ele>300.3333333333333</ele><time>2026-03-29T10:24:18.154Z</time></trkpt><trkpt lat="45.3655047" lon="8.0203862"><ele>300.0</ele><time>2026-03-29T10:24:19.156Z</time></trkpt><trkpt lat="45.3654746" lon="8.0205051"><ele>299.6666666666667</ele><time>2026-03-29T10:24:20.151Z</time></trkpt><trkpt lat="45.3654517" lon="8.0206159"><ele>299.33333333333337</ele><time>2026-03-29T10:24:21.15Z</time></trkpt><trkpt lat="45.3654337" lon="8.0207058"><ele>299.0</ele><time>2026-03-29T10:24:22.165Z</time></trkpt><trkpt lat="45.3653959" lon="8.0208072"><ele>298.5</ele><time>2026-03-29T10:24:23.153Z</time></trkpt><trkpt lat="45.365372" lon="8.020912"><ele>298.0</ele><time>2026-03-29T10:24:24.164Z</time></trkpt><trkpt lat="45.3653435" lon="8.0210075"><ele>297.5</ele><time>2026-03-29T10:24:25.181Z</time></trkpt><trkpt lat="45.3653139" lon="8.0211174"><ele>297.0</ele><time>2026-03-29T10:24:26.156Z</time></trkpt><trkpt lat="45.3652951" lon="8.0212427"><ele>296.5</ele><time>2026-03-29T10:24:27.156Z</time></trkpt><trkpt lat="45.3652654" lon="8.0213605"><ele>296.0</ele><time>2026-03-29T10:24:28.152Z</time></trkpt><trkpt lat="45.3652481" lon="8.0214871"><ele>296.0</ele><time>2026-03-29T10:24:29.15Z</time></trkpt><trkpt lat="45.3652292" lon="8.0216014"><ele>296.0</ele><time>2026-03-29T10:24:30.139Z</time></trkpt><trkpt lat="45.3652027" lon="8.0217041"><ele>296.0</ele><time>2026-03-29T10:24:31.148Z</time></trkpt><trkpt lat="45.3651817" lon="8.0217947"><ele>296.0</ele><time>2026-03-29T10:24:32.154Z</time></trkpt><trkpt lat="45.3651575" lon="8.0218794"><ele>296.0</ele><time>2026-03-29T10:24:33.179Z</time></trkpt><trkpt lat="45.3651438" lon="8.0219795"><ele>296.0</ele><time>2026-03-29T10:24:34.172Z</time></trkpt><trkpt lat="45.3651364" lon="8.0220849"><ele>296.0</ele><time>2026-03-29T10:24:35.156Z</time></trkpt><trkpt lat="45.3651247" lon="8.0221859"><ele>295.6666666666667</ele><time>2026-03-29T10:24:36.155Z</time></trkpt><trkpt lat="45.365097" lon="8.022295"><ele>295.33333333333337</ele><time>2026-03-29T10:24:37.152Z</time></trkpt><trkpt lat="45.3650752" lon="8.0224031"><ele>295.0</ele><time>2026-03-29T10:24:38.156Z</time></trkpt><trkpt lat="45.3650442" lon="8.0225287"><ele>294.6666666666667</ele><time>2026-03-29T10:24:39.156Z</time></trkpt><trkpt lat="45.365001" lon="8.0226458"><ele>294.3333333333333</ele><time>2026-03-29T10:24:40.178Z</time></trkpt><trkpt lat="45.3649511" lon="8.0227457"><ele>294.0</ele><time>2026-03-29T10:24:41.148Z</time></trkpt><trkpt lat="45.3649129" lon="8.0228361"><ele>294.0</ele><time>2026-03-29T10:24:42.16Z</time></trkpt><trkpt lat="45.3648815" lon="8.0229341"><ele>294.0</ele><time>2026-03-29T10:24:43.168Z</time></trkpt><trkpt lat="45.3648463" lon="8.0230415"><ele>294.0</ele><time>2026-03-29T10:24:44.155Z</time></trkpt><trkpt lat="45.3648055" lon="8.0231548"><ele>294.0</ele><time>2026-03-29T10:24:45.155Z</time></trkpt><trkpt lat="45.3647748" lon="8.0232568"><ele>294.0</ele><time>2026-03-29T10:24:46.179Z</time></trkpt><trkpt lat="45.3647448" lon="8.0233507"><ele>294.0</ele><time>2026-03-29T10:24:47.162Z</time></trkpt><trkpt lat="45.3647088" lon="8.0234401"><ele>293.3333333333333</ele><time>2026-03-29T10:24:48.156Z</time></trkpt><trkpt lat="45.3646813" lon="8.0235296"><ele>292.6666666666667</ele><time>2026-03-29T10:24:49.149Z</time></trkpt><trkpt lat="45.3646503" lon="8.0236234"><ele>292.0</ele><time>2026-03-29T10:24:50.158Z</time></trkpt><trkpt lat="45.3646112" lon="8.0237414"><ele>291.33333333333337</ele><time>2026-03-29T10:24:51.159Z</time></trkpt><trkpt lat="45.3645671" lon="8.0238643"><ele>290.6666666666667</ele><time>2026-03-29T10:24:52.167Z</time></trkpt><trkpt lat="45.364533" lon="8.0239772"><ele>290.0</ele><time>2026-03-29T10:24:53.154Z</time></trkpt><trkpt lat="45.3644951" lon="8.0240683"><ele>290.1666666666667</ele><time>2026-03-29T10:24:54.155Z</time></trkpt><trkpt lat="45.3644698" lon="8.0241791"><ele>290.33333333333337</ele><time>2026-03-29T10:24:55.152Z</time></trkpt><trkpt lat="45.3644426" lon="8.024284"><ele>290.5</ele><time>2026-03-29T10:24:56.16Z</time></trkpt><trkpt lat="45.3644086" lon="8.0243829"><ele>290.6666666666667</ele><time>2026-03-29T10:24:57.148Z</time></trkpt><trkpt lat="45.3643826" lon="8.0244673"><ele>290.8333333333333</ele><time>2026-03-29T10:24:58.16Z</time></trkpt><trkpt lat="45.3643167" lon="8.0245793"><ele>291.0</ele><time>2026-03-29T10:25:00.153Z</time></trkpt><trkpt lat="45.364244" lon="8.0246953"><ele>291.0</ele><time>2026-03-29T10:25:02.145Z</time></trkpt><trkpt lat="45.3641624" lon="8.0248124"><ele>291.0</ele><time>2026-03-29T10:25:04.156Z</time></trkpt><trkpt lat="45.3641151" lon="8.0248776"><ele>291.0</ele><time>2026-03-29T10:25:05.149Z</time></trkpt><trkpt lat="45.3640628" lon="8.0249716"><ele>291.0</ele><time>2026-03-29T10:25:06.154Z</time></trkpt><trkpt lat="45.3640206" lon="8.0250761"><ele>291.0</ele><time>2026-03-29T10:25:07.175Z</time></trkpt><trkpt lat="45.3639913" lon="8.0251868"><ele>291.0</ele><time>2026-03-29T10:25:08.153Z</time></trkpt><trkpt lat="45.3639692" lon="8.0252989"><ele>291.8333333333333</ele><time>2026-03-29T10:25:09.151Z</time></trkpt><trkpt lat="45.3639541" lon="8.0254124"><ele>292.6666666666667</ele><time>2026-03-29T10:25:10.156Z</time></trkpt><trkpt lat="45.3639373" lon="8.0255292"><ele>293.5</ele><time>2026-03-29T10:25:11.156Z</time></trkpt><trkpt lat="45.3639195" lon="8.025646"><ele>294.33333333333337</ele><time>2026-03-29T10:25:12.172Z</time></trkpt><trkpt lat="45.3639054" lon="8.0257475"><ele>295.1666666666667</ele><time>2026-03-29T10:25:13.147Z</time></trkpt><trkpt lat="45.3639034" lon="8.025849"><ele>296.0</ele><time>2026-03-29T10:25:14.152Z</time></trkpt><trkpt lat="45.3639016" lon="8.0259434"><ele>296.0</ele><time>2026-03-29T10:25:15.15Z</time></trkpt><trkpt lat="45.3639142" lon="8.026046"><ele>296.0</ele><time>2026-03-29T10:25:16.165Z</time></trkpt><trkpt lat="45.3639536" lon="8.026163"><ele>296.0</ele><time>2026-03-29T10:25:17.151Z</time></trkpt><trkpt lat="45.3640024" lon="8.0262799"><ele>296.0</ele><time>2026-03-29T10:25:18.163Z</time></trkpt><trkpt lat="45.3640566" lon="8.026373"><ele>296.0</ele><time>2026-03-29T10:25:19.167Z</time></trkpt><trkpt lat="45.3641199" lon="8.0264657"><ele>296.0</ele><time>2026-03-29T10:25:20.154Z</time></trkpt><trkpt lat="45.3641825" lon="8.0265623"><ele>294.8</ele><time>2026-03-29T10:25:21.16Z</time></trkpt><trkpt lat="45.3642436" lon="8.0266581"><ele>293.6</ele><time>2026-03-29T10:25:22.148Z</time></trkpt><trkpt lat="45.3642839" lon="8.0267363"><ele>292.4</ele><time>2026-03-29T10:25:23.149Z</time></trkpt><trkpt lat="45.3643337" lon="8.0268579"><ele>291.2</ele><time>2026-03-29T10:25:25.158Z</time></trkpt><trkpt lat="45.3643359" lon="8.0270177"><ele>290.0</ele><time>2026-03-29T10:25:27.15Z</time></trkpt><trkpt lat="45.3643221" lon="8.0272163"><ele>290.0</ele><time>2026-03-29T10:25:29.155Z</time></trkpt><trkpt lat="45.3643154" lon="8.0273509"><ele>290.0</ele><time>2026-03-29T10:25:30.144Z</time></trkpt><trkpt lat="45.3643255" lon="8.0274788"><ele>290.0</ele><time>2026-03-29T10:25:31.154Z</time></trkpt><trkpt lat="45.3643586" lon="8.0275993"><ele>290.0</ele><time>2026-03-29T10:25:32.14Z</time></trkpt><trkpt lat="45.3644066" lon="8.0277365"><ele>290.0</ele><time>2026-03-29T10:25:33.162Z</time></trkpt><trkpt lat="45.3644492" lon="8.0278773"><ele>289.1666666666667</ele><time>2026-03-29T10:25:34.161Z</time></trkpt><trkpt lat="45.3644884" lon="8.0279919"><ele>288.33333333333337</ele><time>2026-03-29T10:25:35.152Z</time></trkpt><trkpt lat="45.3645185" lon="8.0280828"><ele>287.5</ele><time>2026-03-29T10:25:36.165Z</time></trkpt><trkpt lat="45.3645721" lon="8.0282178"><ele>286.6666666666667</ele><time>2026-03-29T10:25:38.165Z</time></trkpt><trkpt lat="45.3646166" lon="8.0283164"><ele>285.8333333333333</ele><time>2026-03-29T10:25:40.154Z</time></trkpt><trkpt lat="45.364662" lon="8.0284168"><ele>285.0</ele><time>2026-03-29T10:25:43.175Z</time></trkpt><trkpt lat="45.3646952" lon="8.0285376"><ele>284.6666666666667</ele><time>2026-03-29T10:25:47.152Z</time></trkpt><trkpt lat="45.3647628" lon="8.0284839"><ele>284.3333333333333</ele><time>2026-03-29T10:25:50.154Z</time></trkpt><trkpt lat="45.364808" lon="8.0284119"><ele>284.0</ele><time>2026-03-29T10:25:51.163Z</time></trkpt><trkpt lat="45.3648457" lon="8.0283312"><ele>283.66666666666663</ele><time>2026-03-29T10:25:52.158Z</time></trkpt><trkpt lat="45.3648844" lon="8.0282526"><ele>283.3333333333333</ele><time>2026-03-29T10:25:53.154Z</time></trkpt><trkpt lat="45.364941" lon="8.0281608"><ele>283.0</ele><time>2026-03-29T10:25:54.164Z</time></trkpt><trkpt lat="45.3650192" lon="8.0280682"><ele>283.66666666666663</ele><time>2026-03-29T10:25:55.164Z</time></trkpt><trkpt lat="45.3650934" lon="8.0279958"><ele>284.3333333333333</ele><time>2026-03-29T10:25:56.159Z</time></trkpt><trkpt lat="45.3651553" lon="8.0279193"><ele>285.0</ele><time>2026-03-29T10:25:57.159Z</time></trkpt><trkpt lat="45.3652162" lon="8.0278538"><ele>285.6666666666667</ele><time>2026-03-29T10:25:58.153Z</time></trkpt><trkpt lat="45.3652848" lon="8.0277943"><ele>286.33333333333337</ele><time>2026-03-29T10:25:59.162Z</time></trkpt><trkpt lat="45.3653665" lon="8.0277383"><ele>287.0</ele><time>2026-03-29T10:26:00.155Z</time></trkpt><trkpt lat="45.3654397" lon="8.0276958"><ele>287.0</ele><time>2026-03-29T10:26:01.16Z</time></trkpt><trkpt lat="45.3654972" lon="8.02764"><ele>287.0</ele><time>2026-03-29T10:26:02.15Z</time></trkpt><trkpt lat="45.3655505" lon="8.0275765"><ele>287.0</ele><time>2026-03-29T10:26:03.166Z</time></trkpt><trkpt lat="45.3656003" lon="8.0274954"><ele>287.0</ele><time>2026-03-29T10:26:04.149Z</time></trkpt><trkpt lat="45.3656473" lon="8.0274112"><ele>287.0</ele><time>2026-03-29T10:26:05.156Z</time></trkpt><trkpt lat="45.3657053" lon="8.0273216"><ele>287.0</ele><time>2026-03-29T10:26:06.141Z</time></trkpt><trkpt lat="45.3657589" lon="8.0272327"><ele>288.2</ele><time>2026-03-29T10:26:07.163Z</time></trkpt><trkpt lat="45.3658268" lon="8.0271563"><ele>289.4</ele><time>2026-03-29T10:26:08.157Z</time></trkpt><trkpt lat="45.3658998" lon="8.0270869"><ele>290.6</ele><time>2026-03-29T10:26:09.154Z</time></trkpt><trkpt lat="45.3659845" lon="8.0270213"><ele>291.8</ele><time>2026-03-29T10:26:10.151Z</time></trkpt><trkpt lat="45.3660746" lon="8.0269603"><ele>293.0</ele><time>2026-03-29T10:26:11.157Z</time></trkpt><trkpt lat="45.366158" lon="8.0268875"><ele>293.0</ele><time>2026-03-29T10:26:12.152Z</time></trkpt><trkpt lat="45.3662506" lon="8.026808"><ele>293.0</ele><time>2026-03-29T10:26:13.154Z</time></trkpt><trkpt lat="45.3663418" lon="8.0267112"><ele>293.0</ele><time>2026-03-29T10:26:14.131Z</time></trkpt><trkpt lat="45.3664284" lon="8.0266303"><ele>293.0</ele><time>2026-03-29T10:26:15.158Z</time></trkpt><trkpt lat="45.3665161" lon="8.0265541"><ele>293.0</ele><time>2026-03-29T10:26:16.141Z</time></trkpt><trkpt lat="45.3665931" lon="8.0264984"><ele>292.83333333333337</ele><time>2026-03-29T10:26:17.142Z</time></trkpt><trkpt lat="45.3666554" lon="8.0264279"><ele>292.6666666666667</ele><time>2026-03-29T10:26:18.149Z</time></trkpt><trkpt lat="45.3667218" lon="8.0263508"><ele>292.5</ele><time>2026-03-29T10:26:19.158Z</time></trkpt><trkpt lat="45.3667839" lon="8.0262815"><ele>292.3333333333333</ele><time>2026-03-29T10:26:20.164Z</time></trkpt><trkpt lat="45.3668461" lon="8.0261962"><ele>292.16666666666663</ele><time>2026-03-29T10:26:21.151Z</time></trkpt><trkpt lat="45.366897" lon="8.0261052"><ele>292.0</ele><time>2026-03-29T10:26:22.151Z</time></trkpt><trkpt lat="45.3669413" lon="8.0260164"><ele>292.0</ele><time>2026-03-29T10:26:23.15Z</time></trkpt><trkpt lat="45.3669899" lon="8.0259255"><ele>292.0</ele><time>2026-03-29T10:26:24.165Z</time></trkpt><trkpt lat="45.3670391" lon="8.0258377"><ele>292.0</ele><time>2026-03-29T10:26:25.167Z</time></trkpt><trkpt lat="45.3671068" lon="8.0257467"><ele>292.0</ele><time>2026-03-29T10:26:26.163Z</time></trkpt><trkpt lat="45.3671641" lon="8.0256709"><ele>292.0</ele><time>2026-03-29T10:26:27.174Z</time></trkpt><trkpt lat="45.3672288" lon="8.025588"><ele>292.0</ele><time>2026-03-29T10:26:28.144Z</time></trkpt><trkpt lat="45.3673077" lon="8.025486"><ele>292.66666666666663</ele><time>2026-03-29T10:26:29.145Z</time></trkpt><trkpt lat="45.3673908" lon="8.0253787"><ele>293.3333333333333</ele><time>2026-03-29T10:26:30.15Z</time></trkpt><trkpt lat="45.367468" lon="8.0252908"><ele>294.0</ele><time>2026-03-29T10:26:31.153Z</time></trkpt><trkpt lat="45.367533" lon="8.0252205"><ele>294.6666666666667</ele><time>2026-03-29T10:26:32.159Z</time></trkpt><trkpt lat="45.3675959" lon="8.0251467"><ele>295.33333333333337</ele><time>2026-03-29T10:26:33.157Z</time></trkpt><trkpt lat="45.367648" lon="8.0250835"><ele>296.0</ele><time>2026-03-29T10:26:34.154Z</time></trkpt><trkpt lat="45.3677387" lon="8.0249653"><ele>296.6</ele><time>2026-03-29T10:26:36.159Z</time></trkpt><trkpt lat="45.3678031" lon="8.0249161"><ele>297.20000000000005</ele><time>2026-03-29T10:26:37.154Z</time></trkpt><trkpt lat="45.36787" lon="8.024869"><ele>297.79999999999995</ele><time>2026-03-29T10:26:38.159Z</time></trkpt><trkpt lat="45.3679622" lon="8.0247574"><ele>298.4</ele><time>2026-03-29T10:26:40.147Z</time></trkpt><trkpt lat="45.3680365" lon="8.0246493"><ele>299.0</ele><time>2026-03-29T10:26:42.177Z</time></trkpt><trkpt lat="45.368118" lon="8.0245857"><ele>299.0</ele><time>2026-03-29T10:26:43.15Z</time></trkpt><trkpt lat="45.368214" lon="8.0245239"><ele>299.0</ele><time>2026-03-29T10:26:44.146Z</time></trkpt><trkpt lat="45.3683054" lon="8.0244694"><ele>299.0</ele><time>2026-03-29T10:26:45.157Z</time></trkpt><trkpt lat="45.3683847" lon="8.024407"><ele>299.0</ele><time>2026-03-29T10:26:46.161Z</time></trkpt><trkpt lat="45.36846" lon="8.0243367"><ele>299.0</ele><time>2026-03-29T10:26:47.144Z</time></trkpt><trkpt lat="45.3685271" lon="8.0242849"><ele>299.0</ele><time>2026-03-29T10:26:48.153Z</time></trkpt><trkpt lat="45.3685944" lon="8.0242268"><ele>299.0</ele><time>2026-03-29T10:26:49.155Z</time></trkpt><trkpt lat="45.3686564" lon="8.0241829"><ele>299.0</ele><time>2026-03-29T10:26:50.152Z</time></trkpt><trkpt lat="45.3687247" lon="8.0241513"><ele>299.0</ele><time>2026-03-29T10:26:51.151Z</time></trkpt><trkpt lat="45.368814" lon="8.0241333"><ele>299.0</ele><time>2026-03-29T10:26:52.152Z</time></trkpt><trkpt lat="45.3689183" lon="8.0241198"><ele>299.0</ele><time>2026-03-29T10:26:53.158Z</time></trkpt><trkpt lat="45.3690178" lon="8.0240866"><ele>299.59999999999997</ele><time>2026-03-29T10:26:54.157Z</time></trkpt><trkpt lat="45.3691145" lon="8.0240451"><ele>300.2</ele><time>2026-03-29T10:26:55.162Z</time></trkpt><trkpt lat="45.3692136" lon="8.0240084"><ele>300.79999999999995</ele><time>2026-03-29T10:26:56.14Z</time></trkpt><trkpt lat="45.3693118" lon="8.0239805"><ele>301.4</ele><time>2026-03-29T10:26:57.163Z</time></trkpt><trkpt lat="45.3694024" lon="8.0239556"><ele>302.0</ele><time>2026-03-29T10:26:58.139Z</time></trkpt><trkpt lat="45.3694944" lon="8.0239424"><ele>302.0</ele><time>2026-03-29T10:26:59.167Z</time></trkpt><trkpt lat="45.3695896" lon="8.0239261"><ele>302.0</ele><time>2026-03-29T10:27:00.145Z</time></trkpt><trkpt lat="45.3696852" lon="8.023906"><ele>302.0</ele><time>2026-03-29T10:27:01.157Z</time></trkpt><trkpt lat="45.3697747" lon="8.023875"><ele>302.0</ele><time>2026-03-29T10:27:02.157Z</time></trkpt><trkpt lat="45.3698694" lon="8.0238554"><ele>302.0</ele><time>2026-03-29T10:27:03.158Z</time></trkpt><trkpt lat="45.3699456" lon="8.0238309"><ele>302.83333333333337</ele><time>2026-03-29T10:27:04.152Z</time></trkpt><trkpt lat="45.3700198" lon="8.0238097"><ele>303.6666666666667</ele><time>2026-03-29T10:27:05.159Z</time></trkpt><trkpt lat="45.3700933" lon="8.0237797"><ele>304.5</ele><time>2026-03-29T10:27:06.15Z</time></trkpt><trkpt lat="45.3701775" lon="8.023738"><ele>305.3333333333333</ele><time>2026-03-29T10:27:07.146Z</time></trkpt><trkpt lat="45.3702602" lon="8.0237002"><ele>306.16666666666663</ele><time>2026-03-29T10:27:08.144Z</time></trkpt><trkpt lat="45.3703313" lon="8.0236633"><ele>307.0</ele><time>2026-03-29T10:27:09.16Z</time></trkpt><trkpt lat="45.3704044" lon="8.0236326"><ele>307.0</ele><time>2026-03-29T10:27:10.156Z</time></trkpt><trkpt lat="45.3705241" lon="8.0235472"><ele>307.0</ele><time>2026-03-29T10:27:12.149Z</time></trkpt><trkpt lat="45.3705921" lon="8.0234816"><ele>307.0</ele><time>2026-03-29T10:27:13.137Z</time></trkpt><trkpt lat="45.370668" lon="8.0234058"><ele>307.0</ele><time>2026-03-29T10:27:14.153Z</time></trkpt><trkpt lat="45.3707589" lon="8.0233285"><ele>307.0</ele><time>2026-03-29T10:27:15.149Z</time></trkpt><trkpt lat="45.370852" lon="8.0232512"><ele>307.3333333333333</ele><time>2026-03-29T10:27:16.149Z</time></trkpt><trkpt lat="45.3709348" lon="8.0231829"><ele>307.66666666666663</ele><time>2026-03-29T10:27:17.152Z</time></trkpt><trkpt lat="45.3710103" lon="8.0231145"><ele>308.0</ele><time>2026-03-29T10:27:18.153Z</time></trkpt><trkpt lat="45.3710785" lon="8.0230614"><ele>308.3333333333333</ele><time>2026-03-29T10:27:19.162Z</time></trkpt><trkpt lat="45.3711482" lon="8.0230236"><ele>308.6666666666667</ele><time>2026-03-29T10:27:20.155Z</time></trkpt><trkpt lat="45.3712194" lon="8.0229915"><ele>309.0</ele><time>2026-03-29T10:27:21.164Z</time></trkpt><trkpt lat="45.371297" lon="8.0229611"><ele>308.6666666666667</ele><time>2026-03-29T10:27:22.15Z</time></trkpt><trkpt lat="45.3713725" lon="8.0229555"><ele>308.3333333333333</ele><time>2026-03-29T10:27:23.151Z</time></trkpt><trkpt lat="45.3714486" lon="8.02296"><ele>308.0</ele><time>2026-03-29T10:27:24.162Z</time></trkpt><trkpt lat="45.3715192" lon="8.0229649"><ele>307.66666666666663</ele><time>2026-03-29T10:27:25.159Z</time></trkpt><trkpt lat="45.3715882" lon="8.0229694"><ele>307.3333333333333</ele><time>2026-03-29T10:27:26.164Z</time></trkpt><trkpt lat="45.3716626" lon="8.0229715"><ele>307.0</ele><time>2026-03-29T10:27:27.156Z</time></trkpt><trkpt lat="45.3717552" lon="8.0229788"><ele>307.0</ele><time>2026-03-29T10:27:28.143Z</time></trkpt><trkpt lat="45.3718559" lon="8.0229705"><ele>307.0</ele><time>2026-03-29T10:27:29.162Z</time></trkpt><trkpt lat="45.3719556" lon="8.0229399"><ele>307.0</ele><time>2026-03-29T10:27:30.161Z</time></trkpt><trkpt lat="45.3720373" lon="8.0229306"><ele>307.0</ele><time>2026-03-29T10:27:31.179Z</time></trkpt><trkpt lat="45.3721294" lon="8.0229167"><ele>307.0</ele><time>2026-03-29T10:27:32.147Z</time></trkpt><trkpt lat="45.3722248" lon="8.0229255"><ele>307.2</ele><time>2026-03-29T10:27:33.163Z</time></trkpt><trkpt lat="45.3723347" lon="8.022911"><ele>307.4</ele><time>2026-03-29T10:27:34.166Z</time></trkpt><trkpt lat="45.3724285" lon="8.0228843"><ele>307.6</ele><time>2026-03-29T10:27:35.155Z</time></trkpt><trkpt lat="45.3725233" lon="8.0228475"><ele>307.8</ele><time>2026-03-29T10:27:36.182Z</time></trkpt><trkpt lat="45.3726055" lon="8.0228171"><ele>308.0</ele><time>2026-03-29T10:27:37.148Z</time></trkpt><trkpt lat="45.3727032" lon="8.0227559"><ele>308.0</ele><time>2026-03-29T10:27:39.154Z</time></trkpt><trkpt lat="45.3727664" lon="8.0227678"><ele>308.0</ele><time>2026-03-29T10:27:40.15Z</time></trkpt><trkpt lat="45.3728482" lon="8.0228977"><ele>308.0</ele><time>2026-03-29T10:27:42.163Z</time></trkpt><trkpt lat="45.3728809" lon="8.0230297"><ele>308.0</ele><time>2026-03-29T10:27:43.153Z</time></trkpt><trkpt lat="45.3729201" lon="8.0231467"><ele>308.0</ele><time>2026-03-29T10:27:44.153Z</time></trkpt><trkpt lat="45.3729654" lon="8.023261"><ele>307.0</ele><time>2026-03-29T10:27:45.155Z</time></trkpt><trkpt lat="45.3730387" lon="8.0233757"><ele>306.0</ele><time>2026-03-29T10:27:46.151Z</time></trkpt><trkpt lat="45.3731128" lon="8.0235012"><ele>305.0</ele><time>2026-03-29T10:27:47.152Z</time></trkpt><trkpt lat="45.3731825" lon="8.0235953"><ele>304.0</ele><time>2026-03-29T10:27:48.147Z</time></trkpt><trkpt lat="45.3732337" lon="8.0236791"><ele>303.0</ele><time>2026-03-29T10:27:49.175Z</time></trkpt><trkpt lat="45.3733285" lon="8.0237236"><ele>303.0</ele><time>2026-03-29T10:27:51.15Z</time></trkpt><trkpt lat="45.3734603" lon="8.0236208"><ele>303.0</ele><time>2026-03-29T10:27:53.168Z</time></trkpt><trkpt lat="45.3735412" lon="8.0235269"><ele>303.0</ele><time>2026-03-29T10:27:54.17Z</time></trkpt><trkpt lat="45.3735934" lon="8.0234441"><ele>303.0</ele><time>2026-03-29T10:27:55.154Z</time></trkpt><trkpt lat="45.3736443" lon="8.0233415"><ele>303.0</ele><time>2026-03-29T10:27:56.158Z</time></trkpt><trkpt lat="45.3737004" lon="8.0232386"><ele>304.6</ele><time>2026-03-29T10:27:57.157Z</time></trkpt><trkpt lat="45.373756" lon="8.0231486"><ele>306.20000000000005</ele><time>2026-03-29T10:27:58.166Z</time></trkpt><trkpt lat="45.3738135" lon="8.023041"><ele>307.8</ele><time>2026-03-29T10:27:59.178Z</time></trkpt><trkpt lat="45.3738755" lon="8.0229309"><ele>309.40000000000003</ele><time>2026-03-29T10:28:00.16Z</time></trkpt><trkpt lat="45.3739492" lon="8.0228386"><ele>311.0</ele><time>2026-03-29T10:28:01.169Z</time></trkpt><trkpt lat="45.3740246" lon="8.0227576"><ele>311.0</ele><time>2026-03-29T10:28:02.16Z</time></trkpt><trkpt lat="45.3740974" lon="8.022675"><ele>311.0</ele><time>2026-03-29T10:28:03.148Z</time></trkpt><trkpt lat="45.3741708" lon="8.0226102"><ele>311.0</ele><time>2026-03-29T10:28:05.151Z</time></trkpt><trkpt lat="45.3742518" lon="8.0225899"><ele>311.0</ele><time>2026-03-29T10:28:07.157Z</time></trkpt><trkpt lat="45.3743695" lon="8.0225898"><ele>311.0</ele><time>2026-03-29T10:28:09.159Z</time></trkpt><trkpt lat="45.3744803" lon="8.0226163"><ele>311.0</ele><time>2026-03-29T10:28:11.162Z</time></trkpt><trkpt lat="45.3745474" lon="8.0226016"><ele>311.0</ele><time>2026-03-29T10:28:12.131Z</time></trkpt><trkpt lat="45.3746173" lon="8.0226007"><ele>311.0</ele><time>2026-03-29T10:28:13.157Z</time></trkpt><trkpt lat="45.3746932" lon="8.0226066"><ele>311.0</ele><time>2026-03-29T10:28:14.157Z</time></trkpt><trkpt lat="45.3747635" lon="8.0226127"><ele>311.0</ele><time>2026-03-29T10:28:15.151Z</time></trkpt><trkpt lat="45.3748585" lon="8.0226255"><ele>311.0</ele><time>2026-03-29T10:28:17.157Z</time></trkpt><trkpt lat="45.3749115" lon="8.0227134"><ele>310.2</ele><time>2026-03-29T10:28:20.16Z</time></trkpt><trkpt lat="45.374909" lon="8.022839"><ele>309.40000000000003</ele><time>2026-03-29T10:28:21.158Z</time></trkpt><trkpt lat="45.3749045" lon="8.023006"><ele>308.6</ele><time>2026-03-29T10:28:22.163Z</time></trkpt><trkpt lat="45.3748923" lon="8.0231691"><ele>307.8</ele><time>2026-03-29T10:28:23.149Z</time></trkpt><trkpt lat="45.374882" lon="8.0233473"><ele>307.0</ele><time>2026-03-29T10:28:24.151Z</time></trkpt><trkpt lat="45.3748656" lon="8.0235507"><ele>306.25</ele><time>2026-03-29T10:28:25.139Z</time></trkpt><trkpt lat="45.3748532" lon="8.0237595"><ele>305.5</ele><time>2026-03-29T10:28:26.156Z</time></trkpt><trkpt lat="45.3748382" lon="8.0239695"><ele>304.75</ele><time>2026-03-29T10:28:27.183Z</time></trkpt><trkpt lat="45.3748196" lon="8.0241863"><ele>304.0</ele><time>2026-03-29T10:28:28.153Z</time></trkpt><trkpt lat="45.3748054" lon="8.0244095"><ele>303.3333333333333</ele><time>2026-03-29T10:28:29.154Z</time></trkpt><trkpt lat="45.3747879" lon="8.0246217"><ele>302.6666666666667</ele><time>2026-03-29T10:28:30.164Z</time></trkpt><trkpt lat="45.3747776" lon="8.024838"><ele>302.0</ele><time>2026-03-29T10:28:31.151Z</time></trkpt><trkpt lat="45.374767" lon="8.0250544"><ele>301.75</ele><time>2026-03-29T10:28:32.158Z</time></trkpt><trkpt lat="45.3747553" lon="8.0252655"><ele>301.5</ele><time>2026-03-29T10:28:33.16Z</time></trkpt><trkpt lat="45.3747404" lon="8.0254753"><ele>301.25</ele><time>2026-03-29T10:28:34.162Z</time></trkpt><trkpt lat="45.3747181" lon="8.0256849"><ele>301.0</ele><time>2026-03-29T10:28:35.156Z</time></trkpt><trkpt lat="45.3746815" lon="8.0258772"><ele>301.5</ele><time>2026-03-29T10:28:36.146Z</time></trkpt><trkpt lat="45.3746358" lon="8.0260494"><ele>302.0</ele><time>2026-03-29T10:28:37.152Z</time></trkpt><trkpt lat="45.3745797" lon="8.0262094"><ele>302.5</ele><time>2026-03-29T10:28:38.149Z</time></trkpt><trkpt lat="45.374518" lon="8.0263578"><ele>303.0</ele><time>2026-03-29T10:28:39.175Z</time></trkpt><trkpt lat="45.3744504" lon="8.0264871"><ele>303.0</ele><time>2026-03-29T10:28:40.17Z</time></trkpt><trkpt lat="45.3743877" lon="8.0266003"><ele>303.0</ele><time>2026-03-29T10:28:41.161Z</time></trkpt><trkpt lat="45.3743304" lon="8.0266836"><ele>303.0</ele><time>2026-03-29T10:28:42.147Z</time></trkpt><trkpt lat="45.3742928" lon="8.0267977"><ele>303.0</ele><time>2026-03-29T10:28:44.167Z</time></trkpt><trkpt lat="45.3743366" lon="8.026892"><ele>303.0</ele><time>2026-03-29T10:28:46.16Z</time></trkpt><trkpt lat="45.3743773" lon="8.0269701"><ele>303.0</ele><time>2026-03-29T10:29:04.156Z</time></trkpt><trkpt lat="45.3744346" lon="8.0270807"><ele>303.0</ele><time>2026-03-29T10:29:44.159Z</time></trkpt><trkpt lat="45.3744881" lon="8.0271597"><ele>303.0</ele><time>2026-03-29T10:29:45.163Z</time></trkpt><trkpt lat="45.3745363" lon="8.0272245"><ele>303.0</ele><time>2026-03-29T10:29:46.182Z</time></trkpt><trkpt lat="45.3745867" lon="8.0273002"><ele>303.0</ele><time>2026-03-29T10:29:47.164Z</time></trkpt><trkpt lat="45.3746437" lon="8.0273663"><ele>303.0</ele><time>2026-03-29T10:29:48.161Z</time></trkpt><trkpt lat="45.3747385" lon="8.0274886"><ele>303.0</ele><time>2026-03-29T10:29:50.162Z</time></trkpt><trkpt lat="45.3747938" lon="8.0275651"><ele>303.0</ele><time>2026-03-29T10:29:51.158Z</time></trkpt><trkpt lat="45.3748574" lon="8.0276544"><ele>303.0</ele><time>2026-03-29T10:29:53.157Z</time></trkpt><trkpt lat="45.3749113" lon="8.0277362"><ele>303.0</ele><time>2026-03-29T10:29:56.164Z</time></trkpt><trkpt lat="45.3749685" lon="8.0278336"><ele>303.0</ele><time>2026-03-29T10:29:59.166Z</time></trkpt><trkpt lat="45.3750286" lon="8.0279111"><ele>303.0</ele><time>2026-03-29T10:30:11.165Z</time></trkpt><trkpt lat="45.375121" lon="8.0279673"><ele>303.0</ele><time>2026-03-29T10:30:13.156Z</time></trkpt><trkpt lat="45.3752318" lon="8.0280442"><ele>303.0</ele><time>2026-03-29T10:30:14.175Z</time></trkpt><trkpt lat="45.3753652" lon="8.0281158"><ele>303.0</ele><time>2026-03-29T10:30:15.15Z</time></trkpt><trkpt lat="45.3754816" lon="8.028176"><ele>303.0</ele><time>2026-03-29T10:30:16.183Z</time></trkpt><trkpt lat="45.3756016" lon="8.0282258"><ele>303.0</ele><time>2026-03-29T10:30:17.17Z</time></trkpt><trkpt lat="45.375737" lon="8.0282835"><ele>303.6666666666667</ele><time>2026-03-29T10:30:18.155Z</time></trkpt><trkpt lat="45.3758796" lon="8.0283459"><ele>304.33333333333337</ele><time>2026-03-29T10:30:19.176Z</time></trkpt><trkpt lat="45.3760274" lon="8.0284182"><ele>305.0</ele><time>2026-03-29T10:30:20.16Z</time></trkpt><trkpt lat="45.3761736" lon="8.028492"><ele>305.0</ele><time>2026-03-29T10:30:21.158Z</time></trkpt><trkpt lat="45.3763145" lon="8.0285523"><ele>305.0</ele><time>2026-03-29T10:30:22.164Z</time></trkpt><trkpt lat="45.3764458" lon="8.0286054"><ele>305.0</ele><time>2026-03-29T10:30:23.16Z</time></trkpt><trkpt lat="45.3765805" lon="8.0286613"><ele>305.0</ele><time>2026-03-29T10:30:24.143Z</time></trkpt><trkpt lat="45.3767175" lon="8.0287211"><ele>305.75</ele><time>2026-03-29T10:30:25.156Z</time></trkpt><trkpt lat="45.3768492" lon="8.0287739"><ele>306.5</ele><time>2026-03-29T10:30:26.153Z</time></trkpt><trkpt lat="45.376976" lon="8.0288248"><ele>307.25</ele><time>2026-03-29T10:30:27.156Z</time></trkpt><trkpt lat="45.3770898" lon="8.0288822"><ele>308.0</ele><time>2026-03-29T10:30:28.165Z</time></trkpt><trkpt lat="45.3771904" lon="8.0289426"><ele>308.75</ele><time>2026-03-29T10:30:29.17Z</time></trkpt><trkpt lat="45.3772816" lon="8.0290089"><ele>309.5</ele><time>2026-03-29T10:30:30.192Z</time></trkpt><trkpt lat="45.3773749" lon="8.0290934"><ele>310.25</ele><time>2026-03-29T10:30:31.164Z</time></trkpt><trkpt lat="45.3774677" lon="8.0291948"><ele>311.0</ele><time>2026-03-29T10:30:32.159Z</time></trkpt><trkpt lat="45.377562" lon="8.0293074"><ele>311.0</ele><time>2026-03-29T10:30:33.162Z</time></trkpt><trkpt lat="45.377661" lon="8.0294213"><ele>311.0</ele><time>2026-03-29T10:30:34.168Z</time></trkpt><trkpt lat="45.3777717" lon="8.0295658"><ele>311.0</ele><time>2026-03-29T10:30:35.159Z</time></trkpt><trkpt lat="45.3778817" lon="8.0297113"><ele>311.0</ele><time>2026-03-29T10:30:36.171Z</time></trkpt><trkpt lat="45.377983" lon="8.0298504"><ele>311.0</ele><time>2026-03-29T10:30:37.162Z</time></trkpt><trkpt lat="45.3780882" lon="8.0299911"><ele>311.0</ele><time>2026-03-29T10:30:38.175Z</time></trkpt><trkpt lat="45.378196" lon="8.0301345"><ele>311.0</ele><time>2026-03-29T10:30:39.17Z</time></trkpt><trkpt lat="45.3782998" lon="8.0302736"><ele>311.0</ele><time>2026-03-29T10:30:40.165Z</time></trkpt><trkpt lat="45.3784006" lon="8.0304206"><ele>311.0</ele><time>2026-03-29T10:30:41.174Z</time></trkpt><trkpt lat="45.3785082" lon="8.0305699"><ele>311.0</ele><time>2026-03-29T10:30:42.146Z</time></trkpt><trkpt lat="45.3786173" lon="8.0307145"><ele>311.0</ele><time>2026-03-29T10:30:43.18Z</time></trkpt><trkpt lat="45.378732" lon="8.0308533"><ele>310.25</ele><time>2026-03-29T10:30:44.147Z</time></trkpt><trkpt lat="45.378845" lon="8.0309892"><ele>309.5</ele><time>2026-03-29T10:30:45.143Z</time></trkpt><trkpt lat="45.3789555" lon="8.0311018"><ele>308.75</ele><time>2026-03-29T10:30:46.164Z</time></trkpt><trkpt lat="45.3790691" lon="8.0311995"><ele>308.0</ele><time>2026-03-29T10:30:47.15Z</time></trkpt><trkpt lat="45.3791863" lon="8.0313001"><ele>307.6666666666667</ele><time>2026-03-29T10:30:48.168Z</time></trkpt><trkpt lat="45.3793127" lon="8.0313976"><ele>307.3333333333333</ele><time>2026-03-29T10:30:49.169Z</time></trkpt><trkpt lat="45.3794529" lon="8.0314925"><ele>307.0</ele><time>2026-03-29T10:30:50.166Z</time></trkpt><trkpt lat="45.3796006" lon="8.0315736"><ele>310.0</ele><time>2026-03-29T10:30:51.183Z</time></trkpt><trkpt lat="45.3797505" lon="8.0316614"><ele>313.0</ele><time>2026-03-29T10:30:52.161Z</time></trkpt><trkpt lat="45.3799088" lon="8.0317507"><ele>316.0</ele><time>2026-03-29T10:30:53.182Z</time></trkpt><trkpt lat="45.3800485" lon="8.0318325"><ele>316.0</ele><time>2026-03-29T10:30:54.159Z</time></trkpt><trkpt lat="45.38018" lon="8.03192"><ele>316.0</ele><time>2026-03-29T10:30:55.165Z</time></trkpt><trkpt lat="45.3803125" lon="8.0320175"><ele>316.0</ele><time>2026-03-29T10:30:56.147Z</time></trkpt><trkpt lat="45.3804369" lon="8.0321295"><ele>316.0</ele><time>2026-03-29T10:30:57.154Z</time></trkpt><trkpt lat="45.3805602" lon="8.0322372"><ele>315.75</ele><time>2026-03-29T10:30:58.156Z</time></trkpt><trkpt lat="45.3806773" lon="8.0323286"><ele>315.5</ele><time>2026-03-29T10:30:59.164Z</time></trkpt><trkpt lat="45.3807953" lon="8.0324408"><ele>315.25</ele><time>2026-03-29T10:31:00.161Z</time></trkpt><trkpt lat="45.3809159" lon="8.0325586"><ele>315.0</ele><time>2026-03-29T10:31:01.174Z</time></trkpt><trkpt lat="45.3810349" lon="8.0326821"><ele>315.75</ele><time>2026-03-29T10:31:02.163Z</time></trkpt><trkpt lat="45.3811466" lon="8.0328158"><ele>316.5</ele><time>2026-03-29T10:31:03.164Z</time></trkpt><trkpt lat="45.3812515" lon="8.0329493"><ele>317.25</ele><time>2026-03-29T10:31:04.16Z</time></trkpt><trkpt lat="45.3813456" lon="8.0330669"><ele>318.0</ele><time>2026-03-29T10:31:05.167Z</time></trkpt><trkpt lat="45.3814234" lon="8.0331655"><ele>317.1666666666667</ele><time>2026-03-29T10:31:06.158Z</time></trkpt><trkpt lat="45.3814877" lon="8.0332592"><ele>316.3333333333333</ele><time>2026-03-29T10:31:07.161Z</time></trkpt><trkpt lat="45.381554" lon="8.0333565"><ele>315.5</ele><time>2026-03-29T10:31:08.152Z</time></trkpt><trkpt lat="45.3816022" lon="8.0334495"><ele>314.66666666666663</ele><time>2026-03-29T10:31:09.166Z</time></trkpt><trkpt lat="45.3816518" lon="8.0335327"><ele>313.8333333333333</ele><time>2026-03-29T10:31:10.167Z</time></trkpt><trkpt lat="45.3817071" lon="8.0335918"><ele>313.0</ele><time>2026-03-29T10:31:11.153Z</time></trkpt><trkpt lat="45.3817715" lon="8.0336439"><ele>313.0</ele><time>2026-03-29T10:31:12.152Z</time></trkpt><trkpt lat="45.3818335" lon="8.0336922"><ele>313.0</ele><time>2026-03-29T10:31:13.147Z</time></trkpt><trkpt lat="45.3818956" lon="8.033746"><ele>313.0</ele><time>2026-03-29T10:31:14.154Z</time></trkpt><trkpt lat="45.3819484" lon="8.0337961"><ele>313.0</ele><time>2026-03-29T10:31:15.138Z</time></trkpt><trkpt lat="45.3820425" lon="8.0338994"><ele>313.0</ele><time>2026-03-29T10:31:17.146Z</time></trkpt><trkpt lat="45.3820909" lon="8.0339893"><ele>313.0</ele><time>2026-03-29T10:31:19.159Z</time></trkpt><trkpt lat="45.3820395" lon="8.0340637"><ele>313.0</ele><time>2026-03-29T10:31:22.161Z</time></trkpt><trkpt lat="45.3819236" lon="8.0341014"><ele>313.0</ele><time>2026-03-29T10:31:24.144Z</time></trkpt><trkpt lat="45.3818649" lon="8.0341549"><ele>313.0</ele><time>2026-03-29T10:31:27.151Z</time></trkpt><trkpt lat="45.3818867" lon="8.0342632"><ele>313.0</ele><time>2026-03-29T10:31:31.187Z</time></trkpt><trkpt lat="45.3818191" lon="8.0342772"><ele>313.0</ele><time>2026-03-29T11:06:11.176Z</time></trkpt><trkpt lat="45.3818769" lon="8.0342341"><ele>313.0</ele><time>2026-03-29T11:08:04.162Z</time></trkpt><trkpt lat="45.381836" lon="8.0343114"><ele>313.0</ele><time>2026-03-29T11:14:13.139Z</time></trkpt><trkpt lat="45.3817678" lon="8.0342626"><ele>313.0</ele><time>2026-03-29T11:14:15.141Z</time></trkpt><trkpt lat="45.3816685" lon="8.0342084"><ele>313.0</ele><time>2026-03-29T11:14:17.152Z</time></trkpt><trkpt lat="45.3815683" lon="8.0341995"><ele>313.0</ele><time>2026-03-29T11:14:19.139Z</time></trkpt><trkpt lat="45.3814605" lon="8.0342256"><ele>313.0</ele><time>2026-03-29T11:14:21.135Z</time></trkpt><trkpt lat="45.3813883" lon="8.0342495"><ele>312.5</ele><time>2026-03-29T11:14:23.174Z</time></trkpt><trkpt lat="45.3813057" lon="8.034296"><ele>312.0</ele><time>2026-03-29T11:14:25.15Z</time></trkpt><trkpt lat="45.38123" lon="8.0343182"><ele>311.5</ele><time>2026-03-29T11:14:27.143Z</time></trkpt><trkpt lat="45.3810995" lon="8.0343811"><ele>311.0</ele><time>2026-03-29T11:14:29.131Z</time></trkpt><trkpt lat="45.3810338" lon="8.0344142"><ele>310.5</ele><time>2026-03-29T11:14:30.166Z</time></trkpt><trkpt lat="45.3809717" lon="8.0344376"><ele>310.0</ele><time>2026-03-29T11:14:31.139Z</time></trkpt><trkpt lat="45.380846" lon="8.0344645"><ele>310.0</ele><time>2026-03-29T11:14:33.154Z</time></trkpt><trkpt lat="45.3807579" lon="8.0344699"><ele>310.0</ele><time>2026-03-29T11:14:34.152Z</time></trkpt><trkpt lat="45.3806519" lon="8.034473"><ele>310.0</ele><time>2026-03-29T11:14:35.158Z</time></trkpt><trkpt lat="45.3805551" lon="8.0344792"><ele>310.0</ele><time>2026-03-29T11:14:36.143Z</time></trkpt><trkpt lat="45.3804563" lon="8.0344828"><ele>310.0</ele><time>2026-03-29T11:14:37.148Z</time></trkpt><trkpt lat="45.3803652" lon="8.0344828"><ele>310.8333333333333</ele><time>2026-03-29T11:14:38.15Z</time></trkpt><trkpt lat="45.3802733" lon="8.0344835"><ele>311.66666666666663</ele><time>2026-03-29T11:14:39.177Z</time></trkpt><trkpt lat="45.3801795" lon="8.0344873"><ele>312.5</ele><time>2026-03-29T11:14:40.147Z</time></trkpt><trkpt lat="45.3800857" lon="8.0345133"><ele>313.3333333333333</ele><time>2026-03-29T11:14:41.149Z</time></trkpt><trkpt lat="45.38" lon="8.0345484"><ele>314.1666666666667</ele><time>2026-03-29T11:14:42.15Z</time></trkpt><trkpt lat="45.3799279" lon="8.0345881"><ele>315.0</ele><time>2026-03-29T11:14:43.16Z</time></trkpt><trkpt lat="45.3798463" lon="8.0346397"><ele>315.0</ele><time>2026-03-29T11:14:44.141Z</time></trkpt><trkpt lat="45.3797557" lon="8.0347182"><ele>315.0</ele><time>2026-03-29T11:14:45.143Z</time></trkpt><trkpt lat="45.3796678" lon="8.0348187"><ele>315.0</ele><time>2026-03-29T11:14:46.136Z</time></trkpt><trkpt lat="45.379578" lon="8.0349143"><ele>315.0</ele><time>2026-03-29T11:14:47.148Z</time></trkpt><trkpt lat="45.3794883" lon="8.0350067"><ele>315.0</ele><time>2026-03-29T11:14:48.138Z</time></trkpt><trkpt lat="45.3794083" lon="8.0350951"><ele>313.8</ele><time>2026-03-29T11:14:49.153Z</time></trkpt><trkpt lat="45.3793253" lon="8.0351869"><ele>312.6</ele><time>2026-03-29T11:14:50.152Z</time></trkpt><trkpt lat="45.379244" lon="8.035295"><ele>311.4</ele><time>2026-03-29T11:14:51.169Z</time></trkpt><trkpt lat="45.379164" lon="8.0354069"><ele>310.2</ele><time>2026-03-29T11:14:52.143Z</time></trkpt><trkpt lat="45.3790879" lon="8.0355151"><ele>309.0</ele><time>2026-03-29T11:14:53.152Z</time></trkpt><trkpt lat="45.3790131" lon="8.0356209"><ele>309.0</ele><time>2026-03-29T11:14:54.143Z</time></trkpt><trkpt lat="45.3789424" lon="8.035719"><ele>309.0</ele><time>2026-03-29T11:14:55.156Z</time></trkpt><trkpt lat="45.3788734" lon="8.0358073"><ele>309.0</ele><time>2026-03-29T11:14:56.144Z</time></trkpt><trkpt lat="45.3788051" lon="8.0358926"><ele>309.0</ele><time>2026-03-29T11:14:57.147Z</time></trkpt><trkpt lat="45.3787381" lon="8.0359578"><ele>309.0</ele><time>2026-03-29T11:14:58.142Z</time></trkpt><trkpt lat="45.3786655" lon="8.0360254"><ele>308.59999999999997</ele><time>2026-03-29T11:14:59.143Z</time></trkpt><trkpt lat="45.3785769" lon="8.0360979"><ele>308.2</ele><time>2026-03-29T11:15:00.155Z</time></trkpt><trkpt lat="45.3784968" lon="8.0361771"><ele>307.79999999999995</ele><time>2026-03-29T11:15:01.156Z</time></trkpt><trkpt lat="45.3784213" lon="8.0362467"><ele>307.4</ele><time>2026-03-29T11:15:02.172Z</time></trkpt><trkpt lat="45.3783454" lon="8.0363389"><ele>307.0</ele><time>2026-03-29T11:15:03.143Z</time></trkpt><trkpt lat="45.3782768" lon="8.0364432"><ele>307.0</ele><time>2026-03-29T11:15:04.153Z</time></trkpt><trkpt lat="45.3781966" lon="8.0365646"><ele>307.0</ele><time>2026-03-29T11:15:05.136Z</time></trkpt><trkpt lat="45.3781249" lon="8.036668"><ele>307.0</ele><time>2026-03-29T11:15:06.16Z</time></trkpt><trkpt lat="45.3780673" lon="8.0367654"><ele>307.0</ele><time>2026-03-29T11:15:07.147Z</time></trkpt><trkpt lat="45.3780107" lon="8.0368569"><ele>307.0</ele><time>2026-03-29T11:15:08.148Z</time></trkpt><trkpt lat="45.3779739" lon="8.0369428"><ele>306.6</ele><time>2026-03-29T11:15:09.148Z</time></trkpt><trkpt lat="45.3779357" lon="8.0371029"><ele>306.2</ele><time>2026-03-29T11:15:11.147Z</time></trkpt><trkpt lat="45.3779476" lon="8.0372004"><ele>305.8</ele><time>2026-03-29T11:15:12.135Z</time></trkpt><trkpt lat="45.377967" lon="8.0373058"><ele>305.4</ele><time>2026-03-29T11:15:13.128Z</time></trkpt><trkpt lat="45.3780007" lon="8.0374515"><ele>305.0</ele><time>2026-03-29T11:15:14.151Z</time></trkpt><trkpt lat="45.3780482" lon="8.0376057"><ele>304.1666666666667</ele><time>2026-03-29T11:15:15.153Z</time></trkpt><trkpt lat="45.3780957" lon="8.0377535"><ele>303.33333333333337</ele><time>2026-03-29T11:15:16.144Z</time></trkpt><trkpt lat="45.3781441" lon="8.0378887"><ele>302.5</ele><time>2026-03-29T11:15:17.143Z</time></trkpt><trkpt lat="45.378189" lon="8.0379911"><ele>301.6666666666667</ele><time>2026-03-29T11:15:18.145Z</time></trkpt><trkpt lat="45.3782208" lon="8.0380687"><ele>300.8333333333333</ele><time>2026-03-29T11:15:19.136Z</time></trkpt><trkpt lat="45.3782452" lon="8.0381641"><ele>300.0</ele><time>2026-03-29T11:15:20.139Z</time></trkpt><trkpt lat="45.3782648" lon="8.0382639"><ele>299.99999999999994</ele><time>2026-03-29T11:15:21.154Z</time></trkpt><trkpt lat="45.378271" lon="8.0383684"><ele>300.0</ele><time>2026-03-29T11:15:22.148Z</time></trkpt><trkpt lat="45.3782576" lon="8.0384637"><ele>300.0</ele><time>2026-03-29T11:15:23.153Z</time></trkpt><trkpt lat="45.378224" lon="8.0385495"><ele>300.0</ele><time>2026-03-29T11:15:24.151Z</time></trkpt><trkpt lat="45.3781828" lon="8.0386269"><ele>300.0</ele><time>2026-03-29T11:15:25.151Z</time></trkpt><trkpt lat="45.3781393" lon="8.0386946"><ele>299.99999999999994</ele><time>2026-03-29T11:15:26.138Z</time></trkpt><trkpt lat="45.3780797" lon="8.0387421"><ele>300.0</ele><time>2026-03-29T11:15:27.145Z</time></trkpt><trkpt lat="45.3779732" lon="8.0387995"><ele>300.0</ele><time>2026-03-29T11:15:29.142Z</time></trkpt><trkpt lat="45.3778748" lon="8.0388498"><ele>300.0</ele><time>2026-03-29T11:15:31.149Z</time></trkpt><trkpt lat="45.3777819" lon="8.0389467"><ele>300.0</ele><time>2026-03-29T11:15:33.128Z</time></trkpt><trkpt lat="45.3777238" lon="8.0390015"><ele>300.0</ele><time>2026-03-29T11:15:34.147Z</time></trkpt><trkpt lat="45.3776529" lon="8.0390858"><ele>300.0</ele><time>2026-03-29T11:15:35.145Z</time></trkpt><trkpt lat="45.3775718" lon="8.0392021"><ele>299.25</ele><time>2026-03-29T11:15:36.14Z</time></trkpt><trkpt lat="45.3774945" lon="8.0393247"><ele>298.5</ele><time>2026-03-29T11:15:37.15Z</time></trkpt><trkpt lat="45.3774051" lon="8.0394562"><ele>297.75</ele><time>2026-03-29T11:15:38.158Z</time></trkpt><trkpt lat="45.3773073" lon="8.0395874"><ele>297.0</ele><time>2026-03-29T11:15:39.175Z</time></trkpt><trkpt lat="45.3772122" lon="8.0397284"><ele>296.5</ele><time>2026-03-29T11:15:40.158Z</time></trkpt><trkpt lat="45.377122" lon="8.0398581"><ele>296.0</ele><time>2026-03-29T11:15:41.133Z</time></trkpt><trkpt lat="45.3770433" lon="8.0399835"><ele>295.5</ele><time>2026-03-29T11:15:42.143Z</time></trkpt><trkpt lat="45.3769592" lon="8.0401038"><ele>295.0</ele><time>2026-03-29T11:15:43.142Z</time></trkpt><trkpt lat="45.3768768" lon="8.0402354"><ele>295.0</ele><time>2026-03-29T11:15:44.148Z</time></trkpt><trkpt lat="45.3767991" lon="8.040384"><ele>295.0</ele><time>2026-03-29T11:15:45.138Z</time></trkpt><trkpt lat="45.3767315" lon="8.0405223"><ele>295.0</ele><time>2026-03-29T11:15:46.162Z</time></trkpt><trkpt lat="45.3766692" lon="8.0406658"><ele>295.0</ele><time>2026-03-29T11:15:47.148Z</time></trkpt><trkpt lat="45.3766054" lon="8.0408073"><ele>294.75</ele><time>2026-03-29T11:15:48.142Z</time></trkpt><trkpt lat="45.37655" lon="8.0409444"><ele>294.5</ele><time>2026-03-29T11:15:49.141Z</time></trkpt><trkpt lat="45.3764948" lon="8.0410937"><ele>294.25</ele><time>2026-03-29T11:15:50.136Z</time></trkpt><trkpt lat="45.3764408" lon="8.0412387"><ele>294.0</ele><time>2026-03-29T11:15:51.145Z</time></trkpt><trkpt lat="45.3763838" lon="8.0413799"><ele>294.59999999999997</ele><time>2026-03-29T11:15:52.139Z</time></trkpt><trkpt lat="45.3763258" lon="8.0415288"><ele>295.2</ele><time>2026-03-29T11:15:53.146Z</time></trkpt><trkpt lat="45.3762651" lon="8.0416632"><ele>295.79999999999995</ele><time>2026-03-29T11:15:54.155Z</time></trkpt><trkpt lat="45.3762107" lon="8.0417828"><ele>296.4</ele><time>2026-03-29T11:15:55.143Z</time></trkpt><trkpt lat="45.3761656" lon="8.0418915"><ele>297.0</ele><time>2026-03-29T11:15:56.137Z</time></trkpt><trkpt lat="45.3761194" lon="8.0419826"><ele>297.0</ele><time>2026-03-29T11:15:57.14Z</time></trkpt><trkpt lat="45.3760751" lon="8.0420632"><ele>297.0</ele><time>2026-03-29T11:15:58.152Z</time></trkpt><trkpt lat="45.3760256" lon="8.0421333"><ele>297.0</ele><time>2026-03-29T11:15:59.132Z</time></trkpt><trkpt lat="45.3759701" lon="8.042207"><ele>297.0</ele><time>2026-03-29T11:16:00.158Z</time></trkpt><trkpt lat="45.3758959" lon="8.0422851"><ele>297.0</ele><time>2026-03-29T11:16:01.144Z</time></trkpt><trkpt lat="45.3758187" lon="8.0423661"><ele>297.0</ele><time>2026-03-29T11:16:02.144Z</time></trkpt><trkpt lat="45.3757187" lon="8.0424569"><ele>296.0</ele><time>2026-03-29T11:16:03.146Z</time></trkpt><trkpt lat="45.3756268" lon="8.0425567"><ele>295.0</ele><time>2026-03-29T11:16:04.133Z</time></trkpt><trkpt lat="45.375528" lon="8.0426453"><ele>294.0</ele><time>2026-03-29T11:16:05.155Z</time></trkpt><trkpt lat="45.3754178" lon="8.0427278"><ele>293.0</ele><time>2026-03-29T11:16:06.158Z</time></trkpt><trkpt lat="45.3753147" lon="8.0427919"><ele>292.75</ele><time>2026-03-29T11:16:07.149Z</time></trkpt><trkpt lat="45.37521" lon="8.0428547"><ele>292.5</ele><time>2026-03-29T11:16:08.18Z</time></trkpt><trkpt lat="45.3750967" lon="8.0429041"><ele>292.25</ele><time>2026-03-29T11:16:09.148Z</time></trkpt><trkpt lat="45.3749947" lon="8.0429626"><ele>292.0</ele><time>2026-03-29T11:16:10.146Z</time></trkpt><trkpt lat="45.3748966" lon="8.0430396"><ele>292.0</ele><time>2026-03-29T11:16:11.145Z</time></trkpt><trkpt lat="45.3747987" lon="8.0431371"><ele>292.0</ele><time>2026-03-29T11:16:12.156Z</time></trkpt><trkpt lat="45.3747008" lon="8.0432434"><ele>292.0</ele><time>2026-03-29T11:16:13.133Z</time></trkpt><trkpt lat="45.3746161" lon="8.0433606"><ele>292.0</ele><time>2026-03-29T11:16:14.148Z</time></trkpt><trkpt lat="45.3745292" lon="8.043493"><ele>291.5</ele><time>2026-03-29T11:16:15.147Z</time></trkpt><trkpt lat="45.3744402" lon="8.0436336"><ele>291.0</ele><time>2026-03-29T11:16:16.159Z</time></trkpt><trkpt lat="45.3743538" lon="8.0437831"><ele>290.5</ele><time>2026-03-29T11:16:17.148Z</time></trkpt><trkpt lat="45.3742597" lon="8.0439302"><ele>290.0</ele><time>2026-03-29T11:16:18.145Z</time></trkpt><trkpt lat="45.3741823" lon="8.0440722"><ele>289.5</ele><time>2026-03-29T11:16:19.143Z</time></trkpt><trkpt lat="45.3741041" lon="8.0442079"><ele>289.0</ele><time>2026-03-29T11:16:20.165Z</time></trkpt><trkpt lat="45.3740224" lon="8.0443429"><ele>288.5</ele><time>2026-03-29T11:16:21.141Z</time></trkpt><trkpt lat="45.3739523" lon="8.0444674"><ele>288.0</ele><time>2026-03-29T11:16:22.141Z</time></trkpt><trkpt lat="45.3738806" lon="8.0445758"><ele>287.8333333333333</ele><time>2026-03-29T11:16:23.136Z</time></trkpt><trkpt lat="45.3738209" lon="8.0446725"><ele>287.6666666666667</ele><time>2026-03-29T11:16:24.149Z</time></trkpt><trkpt lat="45.3737688" lon="8.0447591"><ele>287.5</ele><time>2026-03-29T11:16:25.156Z</time></trkpt><trkpt lat="45.3737243" lon="8.0448302"><ele>287.33333333333337</ele><time>2026-03-29T11:16:26.156Z</time></trkpt><trkpt lat="45.3736542" lon="8.0449315"><ele>287.1666666666667</ele><time>2026-03-29T11:16:28.151Z</time></trkpt><trkpt lat="45.3735916" lon="8.0449973"><ele>287.0</ele><time>2026-03-29T11:16:30.142Z</time></trkpt><trkpt lat="45.3735409" lon="8.0450694"><ele>287.0</ele><time>2026-03-29T11:16:58.141Z</time></trkpt><trkpt lat="45.3734811" lon="8.045125"><ele>287.0</ele><time>2026-03-29T11:17:00.147Z</time></trkpt><trkpt lat="45.3734001" lon="8.0451509"><ele>287.0</ele><time>2026-03-29T11:17:02.149Z</time></trkpt><trkpt lat="45.3732777" lon="8.0451677"><ele>287.0</ele><time>2026-03-29T11:17:04.169Z</time></trkpt><trkpt lat="45.3731987" lon="8.0451491"><ele>287.0</ele><time>2026-03-29T11:17:05.145Z</time></trkpt><trkpt lat="45.3730986" lon="8.0451124"><ele>286.6</ele><time>2026-03-29T11:17:06.141Z</time></trkpt><trkpt lat="45.3729964" lon="8.0450839"><ele>286.2</ele><time>2026-03-29T11:17:07.163Z</time></trkpt><trkpt lat="45.3728962" lon="8.0450523"><ele>285.8</ele><time>2026-03-29T11:17:08.147Z</time></trkpt><trkpt lat="45.3728066" lon="8.0450176"><ele>285.4</ele><time>2026-03-29T11:17:09.155Z</time></trkpt><trkpt lat="45.3727142" lon="8.044973"><ele>285.0</ele><time>2026-03-29T11:17:10.145Z</time></trkpt><trkpt lat="45.3726169" lon="8.0449377"><ele>284.75</ele><time>2026-03-29T11:17:11.147Z</time></trkpt><trkpt lat="45.3725146" lon="8.0448873"><ele>284.5</ele><time>2026-03-29T11:17:12.168Z</time></trkpt><trkpt lat="45.3724048" lon="8.0448365"><ele>284.25</ele><time>2026-03-29T11:17:13.136Z</time></trkpt><trkpt lat="45.3722966" lon="8.0447822"><ele>284.0</ele><time>2026-03-29T11:17:14.143Z</time></trkpt><trkpt lat="45.3721804" lon="8.0447323"><ele>283.25</ele><time>2026-03-29T11:17:15.136Z</time></trkpt><trkpt lat="45.3720717" lon="8.0446829"><ele>282.5</ele><time>2026-03-29T11:17:16.144Z</time></trkpt><trkpt lat="45.3719571" lon="8.0446298"><ele>281.75</ele><time>2026-03-29T11:17:17.147Z</time></trkpt><trkpt lat="45.3718476" lon="8.0445699"><ele>281.0</ele><time>2026-03-29T11:17:18.161Z</time></trkpt><trkpt lat="45.3717381" lon="8.0445011"><ele>281.0</ele><time>2026-03-29T11:17:19.133Z</time></trkpt><trkpt lat="45.3716249" lon="8.0444265"><ele>281.0</ele><time>2026-03-29T11:17:20.162Z</time></trkpt><trkpt lat="45.3715209" lon="8.0443549"><ele>281.0</ele><time>2026-03-29T11:17:21.147Z</time></trkpt><trkpt lat="45.3714153" lon="8.0442853"><ele>281.0</ele><time>2026-03-29T11:17:22.147Z</time></trkpt><trkpt lat="45.3713136" lon="8.0442152"><ele>281.0</ele><time>2026-03-29T11:17:23.139Z</time></trkpt><trkpt lat="45.3712083" lon="8.0441317"><ele>281.0</ele><time>2026-03-29T11:17:24.135Z</time></trkpt><trkpt lat="45.3710941" lon="8.0440551"><ele>281.0</ele><time>2026-03-29T11:17:25.137Z</time></trkpt><trkpt lat="45.370991" lon="8.0439676"><ele>281.0</ele><time>2026-03-29T11:17:26.147Z</time></trkpt><trkpt lat="45.3709084" lon="8.0438914"><ele>280.83333333333337</ele><time>2026-03-29T11:17:27.156Z</time></trkpt><trkpt lat="45.3708376" lon="8.0438422"><ele>280.6666666666667</ele><time>2026-03-29T11:17:28.144Z</time></trkpt><trkpt lat="45.3707658" lon="8.0438118"><ele>280.5</ele><time>2026-03-29T11:17:29.14Z</time></trkpt><trkpt lat="45.3706946" lon="8.0437967"><ele>280.3333333333333</ele><time>2026-03-29T11:17:30.131Z</time></trkpt><trkpt lat="45.370614" lon="8.0438045"><ele>280.16666666666663</ele><time>2026-03-29T11:17:31.155Z</time></trkpt><trkpt lat="45.3705258" lon="8.0438463"><ele>280.0</ele><time>2026-03-29T11:17:32.139Z</time></trkpt><trkpt lat="45.3704328" lon="8.0438979"><ele>279.5</ele><time>2026-03-29T11:17:33.16Z</time></trkpt><trkpt lat="45.3703219" lon="8.0439761"><ele>279.0</ele><time>2026-03-29T11:17:34.147Z</time></trkpt><trkpt lat="45.3702165" lon="8.0440539"><ele>278.5</ele><time>2026-03-29T11:17:35.156Z</time></trkpt><trkpt lat="45.3701088" lon="8.0441432"><ele>278.0</ele><time>2026-03-29T11:17:36.169Z</time></trkpt><trkpt lat="45.369999" lon="8.0442229"><ele>278.0</ele><time>2026-03-29T11:17:37.153Z</time></trkpt><trkpt lat="45.3698881" lon="8.0443047"><ele>278.0</ele><time>2026-03-29T11:17:38.143Z</time></trkpt><trkpt lat="45.3697722" lon="8.0443939"><ele>278.0</ele><time>2026-03-29T11:17:39.151Z</time></trkpt><trkpt lat="45.3696637" lon="8.0444819"><ele>278.0</ele><time>2026-03-29T11:17:40.148Z</time></trkpt><trkpt lat="45.3695481" lon="8.0445686"><ele>277.0</ele><time>2026-03-29T11:17:41.145Z</time></trkpt><trkpt lat="45.3694256" lon="8.0446632"><ele>276.0</ele><time>2026-03-29T11:17:42.142Z</time></trkpt><trkpt lat="45.369308" lon="8.0447636"><ele>275.0</ele><time>2026-03-29T11:17:43.159Z</time></trkpt><trkpt lat="45.3691765" lon="8.0448581"><ele>274.0</ele><time>2026-03-29T11:17:44.145Z</time></trkpt><trkpt lat="45.369048" lon="8.0449603"><ele>274.25</ele><time>2026-03-29T11:17:45.144Z</time></trkpt><trkpt lat="45.3689272" lon="8.0450626"><ele>274.5</ele><time>2026-03-29T11:17:46.14Z</time></trkpt><trkpt lat="45.3688086" lon="8.0451565"><ele>274.75</ele><time>2026-03-29T11:17:47.144Z</time></trkpt><trkpt lat="45.3686901" lon="8.0452478"><ele>275.0</ele><time>2026-03-29T11:17:48.13Z</time></trkpt><trkpt lat="45.3685701" lon="8.0453411"><ele>274.5</ele><time>2026-03-29T11:17:49.165Z</time></trkpt><trkpt lat="45.3684494" lon="8.0454308"><ele>274.0</ele><time>2026-03-29T11:17:50.136Z</time></trkpt><trkpt lat="45.3683255" lon="8.0455205"><ele>273.5</ele><time>2026-03-29T11:17:51.143Z</time></trkpt><trkpt lat="45.3682025" lon="8.0456172"><ele>273.0</ele><time>2026-03-29T11:17:52.15Z</time></trkpt><trkpt lat="45.3680787" lon="8.0457085"><ele>272.0</ele><time>2026-03-29T11:17:53.149Z</time></trkpt><trkpt lat="45.3679637" lon="8.0457953"><ele>271.0</ele><time>2026-03-29T11:17:54.142Z</time></trkpt><trkpt lat="45.3678573" lon="8.045875"><ele>270.0</ele><time>2026-03-29T11:17:55.135Z</time></trkpt><trkpt lat="45.3677662" lon="8.0459403"><ele>269.0</ele><time>2026-03-29T11:17:56.134Z</time></trkpt><trkpt lat="45.3676843" lon="8.0460077"><ele>268.0</ele><time>2026-03-29T11:17:57.137Z</time></trkpt><trkpt lat="45.3676092" lon="8.0460742"><ele>268.0</ele><time>2026-03-29T11:17:58.151Z</time></trkpt><trkpt lat="45.3675396" lon="8.0461494"><ele>268.0</ele><time>2026-03-29T11:17:59.141Z</time></trkpt><trkpt lat="45.3674685" lon="8.0462598"><ele>268.0</ele><time>2026-03-29T11:18:00.159Z</time></trkpt><trkpt lat="45.3673912" lon="8.0463825"><ele>268.0</ele><time>2026-03-29T11:18:01.133Z</time></trkpt><trkpt lat="45.3673072" lon="8.0465101"><ele>268.0</ele><time>2026-03-29T11:18:02.154Z</time></trkpt><trkpt lat="45.3672192" lon="8.046638"><ele>268.25</ele><time>2026-03-29T11:18:03.15Z</time></trkpt><trkpt lat="45.3671193" lon="8.046779"><ele>268.5</ele><time>2026-03-29T11:18:04.14Z</time></trkpt><trkpt lat="45.3670166" lon="8.0469264"><ele>268.75</ele><time>2026-03-29T11:18:05.144Z</time></trkpt><trkpt lat="45.3669132" lon="8.0470768"><ele>269.0</ele><time>2026-03-29T11:18:06.137Z</time></trkpt><trkpt lat="45.3668172" lon="8.0472178"><ele>269.0</ele><time>2026-03-29T11:18:07.138Z</time></trkpt><trkpt lat="45.3667224" lon="8.0473621"><ele>269.0</ele><time>2026-03-29T11:18:08.143Z</time></trkpt><trkpt lat="45.3666242" lon="8.0475111"><ele>269.0</ele><time>2026-03-29T11:18:09.139Z</time></trkpt><trkpt lat="45.3665364" lon="8.0476616"><ele>269.0</ele><time>2026-03-29T11:18:10.138Z</time></trkpt><trkpt lat="45.3664514" lon="8.0478083"><ele>268.75</ele><time>2026-03-29T11:18:11.137Z</time></trkpt><trkpt lat="45.366367" lon="8.047944"><ele>268.5</ele><time>2026-03-29T11:18:12.14Z</time></trkpt><trkpt lat="45.3662732" lon="8.0480842"><ele>268.25</ele><time>2026-03-29T11:18:13.139Z</time></trkpt><trkpt lat="45.3661887" lon="8.0482162"><ele>268.0</ele><time>2026-03-29T11:18:14.143Z</time></trkpt><trkpt lat="45.366103" lon="8.0483531"><ele>267.25</ele><time>2026-03-29T11:18:15.139Z</time></trkpt><trkpt lat="45.3660135" lon="8.04849"><ele>266.5</ele><time>2026-03-29T11:18:16.15Z</time></trkpt><trkpt lat="45.3659215" lon="8.0486226"><ele>265.75</ele><time>2026-03-29T11:18:17.135Z</time></trkpt><trkpt lat="45.3658267" lon="8.0487587"><ele>265.0</ele><time>2026-03-29T11:18:18.152Z</time></trkpt><trkpt lat="45.3657364" lon="8.0488991"><ele>265.0</ele><time>2026-03-29T11:18:19.159Z</time></trkpt><trkpt lat="45.3656448" lon="8.0490335"><ele>265.0</ele><time>2026-03-29T11:18:20.157Z</time></trkpt><trkpt lat="45.365547" lon="8.0491815"><ele>265.0</ele><time>2026-03-29T11:18:21.156Z</time></trkpt><trkpt lat="45.3654477" lon="8.0493289"><ele>265.0</ele><time>2026-03-29T11:18:22.148Z</time></trkpt><trkpt lat="45.3653556" lon="8.0494756"><ele>264.5</ele><time>2026-03-29T11:18:23.156Z</time></trkpt><trkpt lat="45.3652682" lon="8.0496076"><ele>264.0</ele><time>2026-03-29T11:18:24.143Z</time></trkpt><trkpt lat="45.3651854" lon="8.0497325"><ele>263.5</ele><time>2026-03-29T11:18:25.155Z</time></trkpt><trkpt lat="45.3651055" lon="8.0498451"><ele>263.0</ele><time>2026-03-29T11:18:26.15Z</time></trkpt><trkpt lat="45.3650271" lon="8.0499546"><ele>263.0</ele><time>2026-03-29T11:18:27.14Z</time></trkpt><trkpt lat="45.3649419" lon="8.0500623"><ele>263.0</ele><time>2026-03-29T11:18:28.147Z</time></trkpt><trkpt lat="45.3648498" lon="8.050179"><ele>263.0</ele><time>2026-03-29T11:18:29.143Z</time></trkpt><trkpt lat="45.3647539" lon="8.0503053"><ele>263.0</ele><time>2026-03-29T11:18:30.14Z</time></trkpt><trkpt lat="45.3646576" lon="8.0504658"><ele>262.5</ele><time>2026-03-29T11:18:31.14Z</time></trkpt><trkpt lat="45.3645534" lon="8.0506369"><ele>262.0</ele><time>2026-03-29T11:18:32.158Z</time></trkpt><trkpt lat="45.3644551" lon="8.0507907"><ele>261.5</ele><time>2026-03-29T11:18:33.149Z</time></trkpt><trkpt lat="45.3643642" lon="8.0509379"><ele>261.0</ele><time>2026-03-29T11:18:34.149Z</time></trkpt><trkpt lat="45.3642635" lon="8.0510887"><ele>261.0</ele><time>2026-03-29T11:18:35.14Z</time></trkpt><trkpt lat="45.3641627" lon="8.0512379"><ele>261.0</ele><time>2026-03-29T11:18:36.135Z</time></trkpt><trkpt lat="45.36407" lon="8.0513877"><ele>261.0</ele><time>2026-03-29T11:18:37.143Z</time></trkpt><trkpt lat="45.363974" lon="8.0515336"><ele>261.0</ele><time>2026-03-29T11:18:38.148Z</time></trkpt><trkpt lat="45.3638736" lon="8.0516833"><ele>260.5</ele><time>2026-03-29T11:18:39.155Z</time></trkpt><trkpt lat="45.3637738" lon="8.0518381"><ele>260.0</ele><time>2026-03-29T11:18:40.15Z</time></trkpt><trkpt lat="45.3636767" lon="8.0519838"><ele>259.5</ele><time>2026-03-29T11:18:41.143Z</time></trkpt><trkpt lat="45.3635769" lon="8.0521487"><ele>259.0</ele><time>2026-03-29T11:18:42.143Z</time></trkpt><trkpt lat="45.363474" lon="8.0522992"><ele>259.0</ele><time>2026-03-29T11:18:43.141Z</time></trkpt><trkpt lat="45.3633688" lon="8.0524535"><ele>259.0</ele><time>2026-03-29T11:18:44.145Z</time></trkpt><trkpt lat="45.3632683" lon="8.0526105"><ele>259.0</ele><time>2026-03-29T11:18:45.136Z</time></trkpt><trkpt lat="45.3631699" lon="8.0527597"><ele>259.0</ele><time>2026-03-29T11:18:46.142Z</time></trkpt><trkpt lat="45.3630744" lon="8.0529067"><ele>258.8</ele><time>2026-03-29T11:18:47.142Z</time></trkpt><trkpt lat="45.3629887" lon="8.0530415"><ele>258.59999999999997</ele><time>2026-03-29T11:18:48.137Z</time></trkpt><trkpt lat="45.3629144" lon="8.0531603"><ele>258.4</ele><time>2026-03-29T11:18:49.146Z</time></trkpt><trkpt lat="45.3628544" lon="8.0532544"><ele>258.2</ele><time>2026-03-29T11:18:50.136Z</time></trkpt><trkpt lat="45.3628056" lon="8.0533192"><ele>258.0</ele><time>2026-03-29T11:18:51.128Z</time></trkpt><trkpt lat="45.3626977" lon="8.0534243"><ele>257.8</ele><time>2026-03-29T11:18:53.133Z</time></trkpt><trkpt lat="45.3626154" lon="8.0534475"><ele>257.6</ele><time>2026-03-29T11:18:54.154Z</time></trkpt><trkpt lat="45.3625122" lon="8.0534461"><ele>257.4</ele><time>2026-03-29T11:18:55.136Z</time></trkpt><trkpt lat="45.3623965" lon="8.0534296"><ele>257.2</ele><time>2026-03-29T11:18:56.143Z</time></trkpt><trkpt lat="45.3622814" lon="8.0534071"><ele>257.0</ele><time>2026-03-29T11:18:57.145Z</time></trkpt><trkpt lat="45.3621629" lon="8.0533571"><ele>256.5</ele><time>2026-03-29T11:18:58.144Z</time></trkpt><trkpt lat="45.3620498" lon="8.0533151"><ele>256.0</ele><time>2026-03-29T11:18:59.137Z</time></trkpt><trkpt lat="45.3619437" lon="8.0532795"><ele>255.5</ele><time>2026-03-29T11:19:00.147Z</time></trkpt><trkpt lat="45.3618479" lon="8.0532493"><ele>255.0</ele><time>2026-03-29T11:19:01.139Z</time></trkpt><trkpt lat="45.3616752" lon="8.0531843"><ele>255.0</ele><time>2026-03-29T11:19:03.143Z</time></trkpt><trkpt lat="45.3614904" lon="8.0531234"><ele>255.0</ele><time>2026-03-29T11:19:05.14Z</time></trkpt><trkpt lat="45.3614091" lon="8.0531058"><ele>255.0</ele><time>2026-03-29T11:19:06.141Z</time></trkpt><trkpt lat="45.3613306" lon="8.0530793"><ele>255.0</ele><time>2026-03-29T11:19:07.132Z</time></trkpt><trkpt lat="45.3612344" lon="8.0530533"><ele>254.66666666666669</ele><time>2026-03-29T11:19:08.13Z</time></trkpt><trkpt lat="45.361012" lon="8.05299"><ele>254.33333333333334</ele><time>2026-03-29T11:19:10.137Z</time></trkpt><trkpt lat="45.360896" lon="8.0529612"><ele>254.0</ele><time>2026-03-29T11:19:11.147Z</time></trkpt><trkpt lat="45.3607722" lon="8.0529302"><ele>254.0</ele><time>2026-03-29T11:19:12.179Z</time></trkpt><trkpt lat="45.3606484" lon="8.0529021"><ele>254.0</ele><time>2026-03-29T11:19:13.145Z</time></trkpt><trkpt lat="45.3605168" lon="8.0528799"><ele>254.0</ele><time>2026-03-29T11:19:14.13Z</time></trkpt><trkpt lat="45.3603795" lon="8.0528497"><ele>254.0</ele><time>2026-03-29T11:19:15.143Z</time></trkpt><trkpt lat="45.3602456" lon="8.0528148"><ele>254.0</ele><time>2026-03-29T11:19:16.147Z</time></trkpt><trkpt lat="45.3601126" lon="8.0527795"><ele>254.0</ele><time>2026-03-29T11:19:17.14Z</time></trkpt><trkpt lat="45.3599847" lon="8.0527429"><ele>254.0</ele><time>2026-03-29T11:19:18.163Z</time></trkpt><trkpt lat="45.3598466" lon="8.0526981"><ele>254.0</ele><time>2026-03-29T11:19:19.153Z</time></trkpt><trkpt lat="45.3597028" lon="8.0526537"><ele>253.25</ele><time>2026-03-29T11:19:20.144Z</time></trkpt><trkpt lat="45.3595661" lon="8.0526064"><ele>252.5</ele><time>2026-03-29T11:19:21.134Z</time></trkpt><trkpt lat="45.3594371" lon="8.0525611"><ele>251.75</ele><time>2026-03-29T11:19:22.168Z</time></trkpt><trkpt lat="45.3593239" lon="8.0525243"><ele>251.0</ele><time>2026-03-29T11:19:23.134Z</time></trkpt><trkpt lat="45.3592184" lon="8.0524855"><ele>251.0</ele><time>2026-03-29T11:19:24.147Z</time></trkpt><trkpt lat="45.3591144" lon="8.0524383"><ele>251.00000000000003</ele><time>2026-03-29T11:19:25.148Z</time></trkpt><trkpt lat="45.3590076" lon="8.052379"><ele>251.00000000000003</ele><time>2026-03-29T11:19:26.147Z</time></trkpt><trkpt lat="45.3589084" lon="8.0523117"><ele>251.0</ele><time>2026-03-29T11:19:27.148Z</time></trkpt><trkpt lat="45.3588092" lon="8.0522349"><ele>251.0</ele><time>2026-03-29T11:19:28.145Z</time></trkpt><trkpt lat="45.3587211" lon="8.0521621"><ele>251.00000000000003</ele><time>2026-03-29T11:19:29.133Z</time></trkpt><trkpt lat="45.3586367" lon="8.0520834"><ele>251.0</ele><time>2026-03-29T11:19:30.14Z</time></trkpt><trkpt lat="45.3585616" lon="8.0520118"><ele>251.0</ele><time>2026-03-29T11:19:31.143Z</time></trkpt><trkpt lat="45.3584983" lon="8.0519582"><ele>251.0</ele><time>2026-03-29T11:19:32.157Z</time></trkpt><trkpt lat="45.3584417" lon="8.0519085"><ele>251.00000000000003</ele><time>2026-03-29T11:19:33.141Z</time></trkpt><trkpt lat="45.3583857" lon="8.0518611"><ele>251.0</ele><time>2026-03-29T11:19:34.144Z</time></trkpt><trkpt lat="45.3582825" lon="8.0517667"><ele>251.00000000000003</ele><time>2026-03-29T11:19:36.158Z</time></trkpt><trkpt lat="45.3582241" lon="8.0517137"><ele>251.0</ele><time>2026-03-29T11:19:37.142Z</time></trkpt><trkpt lat="45.3581564" lon="8.05166"><ele>251.0</ele><time>2026-03-29T11:19:38.189Z</time></trkpt><trkpt lat="45.3581005" lon="8.0516069"><ele>251.0</ele><time>2026-03-29T11:19:39.151Z</time></trkpt><trkpt lat="45.357994" lon="8.0515177"><ele>251.00000000000003</ele><time>2026-03-29T11:19:41.16Z</time></trkpt><trkpt lat="45.3579089" lon="8.0514456"><ele>251.0</ele><time>2026-03-29T11:19:43.165Z</time></trkpt><trkpt lat="45.357826" lon="8.0514035"><ele>251.0</ele><time>2026-03-29T11:19:45.147Z</time></trkpt><trkpt lat="45.3577159" lon="8.0514255"><ele>251.00000000000003</ele><time>2026-03-29T11:19:47.179Z</time></trkpt><trkpt lat="45.3576502" lon="8.0514647"><ele>251.00000000000003</ele><time>2026-03-29T11:19:48.135Z</time></trkpt><trkpt lat="45.3575763" lon="8.0515196"><ele>251.0</ele><time>2026-03-29T11:19:49.143Z</time></trkpt><trkpt lat="45.3574831" lon="8.0515821"><ele>251.0</ele><time>2026-03-29T11:19:50.147Z</time></trkpt><trkpt lat="45.35738" lon="8.0516579"><ele>250.8</ele><time>2026-03-29T11:19:51.145Z</time></trkpt><trkpt lat="45.3572764" lon="8.0517244"><ele>250.60000000000002</ele><time>2026-03-29T11:19:52.134Z</time></trkpt><trkpt lat="45.3571832" lon="8.051787"><ele>250.4</ele><time>2026-03-29T11:19:53.143Z</time></trkpt><trkpt lat="45.3571015" lon="8.0518375"><ele>250.2</ele><time>2026-03-29T11:19:54.153Z</time></trkpt><trkpt lat="45.3570243" lon="8.0518827"><ele>250.0</ele><time>2026-03-29T11:19:55.152Z</time></trkpt><trkpt lat="45.3569582" lon="8.0519097"><ele>250.0</ele><time>2026-03-29T11:19:56.161Z</time></trkpt><trkpt lat="45.3568736" lon="8.0519576"><ele>250.0</ele><time>2026-03-29T11:19:58.144Z</time></trkpt><trkpt lat="45.3568509" lon="8.0520831"><ele>250.0</ele><time>2026-03-29T11:20:01.147Z</time></trkpt><trkpt lat="45.3569517" lon="8.0522136"><ele>250.0</ele><time>2026-03-29T11:20:03.148Z</time></trkpt><trkpt lat="45.3570001" lon="8.0522912"><ele>250.0</ele><time>2026-03-29T11:20:04.139Z</time></trkpt><trkpt lat="45.3570203" lon="8.052402"><ele>250.0</ele><time>2026-03-29T11:20:05.148Z</time></trkpt><trkpt lat="45.3569936" lon="8.0525353"><ele>250.0</ele><time>2026-03-29T11:20:06.147Z</time></trkpt><trkpt lat="45.356948" lon="8.0527027"><ele>250.0</ele><time>2026-03-29T11:20:07.139Z</time></trkpt><trkpt lat="45.3568889" lon="8.0528886"><ele>250.0</ele><time>2026-03-29T11:20:08.144Z</time></trkpt><trkpt lat="45.3568413" lon="8.0530559"><ele>250.0</ele><time>2026-03-29T11:20:09.148Z</time></trkpt><trkpt lat="45.3567943" lon="8.0531966"><ele>250.0</ele><time>2026-03-29T11:20:10.13Z</time></trkpt><trkpt lat="45.3567365" lon="8.0533379"><ele>250.0</ele><time>2026-03-29T11:20:11.133Z</time></trkpt><trkpt lat="45.3566739" lon="8.0534535"><ele>250.0</ele><time>2026-03-29T11:20:12.15Z</time></trkpt><trkpt lat="45.3565946" lon="8.0535644"><ele>250.0</ele><time>2026-03-29T11:20:13.153Z</time></trkpt><trkpt lat="45.3565047" lon="8.0536709"><ele>249.75</ele><time>2026-03-29T11:20:14.134Z</time></trkpt><trkpt lat="45.3563993" lon="8.0537685"><ele>249.5</ele><time>2026-03-29T11:20:15.136Z</time></trkpt><trkpt lat="45.3562954" lon="8.0538445"><ele>249.25</ele><time>2026-03-29T11:20:16.124Z</time></trkpt><trkpt lat="45.3561886" lon="8.0539151"><ele>249.0</ele><time>2026-03-29T11:20:17.134Z</time></trkpt><trkpt lat="45.3560916" lon="8.0539828"><ele>248.5</ele><time>2026-03-29T11:20:18.119Z</time></trkpt><trkpt lat="45.3559933" lon="8.0540579"><ele>248.0</ele><time>2026-03-29T11:20:19.144Z</time></trkpt><trkpt lat="45.3558961" lon="8.0541429"><ele>247.5</ele><time>2026-03-29T11:20:20.17Z</time></trkpt><trkpt lat="45.3557996" lon="8.0542298"><ele>247.0</ele><time>2026-03-29T11:20:21.137Z</time></trkpt><trkpt lat="45.3557082" lon="8.0543318"><ele>246.8</ele><time>2026-03-29T11:20:22.121Z</time></trkpt><trkpt lat="45.3556227" lon="8.0544394"><ele>246.6</ele><time>2026-03-29T11:20:23.139Z</time></trkpt><trkpt lat="45.3555434" lon="8.0545401"><ele>246.40000000000003</ele><time>2026-03-29T11:20:24.131Z</time></trkpt><trkpt lat="45.3554706" lon="8.0546317"><ele>246.20000000000002</ele><time>2026-03-29T11:20:25.146Z</time></trkpt><trkpt lat="45.3554109" lon="8.0547237"><ele>246.0</ele><time>2026-03-29T11:20:26.152Z</time></trkpt><trkpt lat="45.3553472" lon="8.0548002"><ele>246.0</ele><time>2026-03-29T11:20:27.127Z</time></trkpt><trkpt lat="45.3552678" lon="8.0548716"><ele>246.00000000000003</ele><time>2026-03-29T11:20:28.153Z</time></trkpt><trkpt lat="45.3551735" lon="8.0549354"><ele>246.00000000000003</ele><time>2026-03-29T11:20:29.134Z</time></trkpt><trkpt lat="45.3550815" lon="8.0549897"><ele>246.0</ele><time>2026-03-29T11:20:30.128Z</time></trkpt><trkpt lat="45.3550003" lon="8.0550297"><ele>246.0</ele><time>2026-03-29T11:20:31.188Z</time></trkpt><trkpt lat="45.3549239" lon="8.0550711"><ele>246.0</ele><time>2026-03-29T11:20:32.117Z</time></trkpt><trkpt lat="45.3548408" lon="8.0551283"><ele>246.00000000000003</ele><time>2026-03-29T11:20:33.165Z</time></trkpt><trkpt lat="45.3547555" lon="8.0552006"><ele>246.00000000000003</ele><time>2026-03-29T11:20:34.144Z</time></trkpt><trkpt lat="45.3546771" lon="8.0552845"><ele>246.0</ele><time>2026-03-29T11:20:35.152Z</time></trkpt><trkpt lat="45.3546146" lon="8.0553762"><ele>246.0</ele><time>2026-03-29T11:20:36.168Z</time></trkpt><trkpt lat="45.3545638" lon="8.0554548"><ele>246.0</ele><time>2026-03-29T11:20:37.153Z</time></trkpt><trkpt lat="45.354523" lon="8.0555299"><ele>246.00000000000003</ele><time>2026-03-29T11:20:38.12Z</time></trkpt><trkpt lat="45.3544427" lon="8.0556668"><ele>246.00000000000003</ele><time>2026-03-29T11:20:40.137Z</time></trkpt><trkpt lat="45.3543916" lon="8.0557581"><ele>246.0</ele><time>2026-03-29T11:20:41.133Z</time></trkpt><trkpt lat="45.354324" lon="8.0558633"><ele>246.0</ele><time>2026-03-29T11:20:42.141Z</time></trkpt><trkpt lat="45.3542511" lon="8.0559771"><ele>246.0</ele><time>2026-03-29T11:20:43.138Z</time></trkpt><trkpt lat="45.3541723" lon="8.0560875"><ele>246.0</ele><time>2026-03-29T11:20:44.127Z</time></trkpt><trkpt lat="45.354092" lon="8.0562044"><ele>246.0</ele><time>2026-03-29T11:20:45.145Z</time></trkpt><trkpt lat="45.3540184" lon="8.0563309"><ele>246.0</ele><time>2026-03-29T11:20:46.149Z</time></trkpt><trkpt lat="45.3539527" lon="8.056466"><ele>246.0</ele><time>2026-03-29T11:20:47.139Z</time></trkpt><trkpt lat="45.3539028" lon="8.0566068"><ele>246.0</ele><time>2026-03-29T11:20:48.14Z</time></trkpt><trkpt lat="45.3538645" lon="8.0567143"><ele>246.0</ele><time>2026-03-29T11:20:49.139Z</time></trkpt><trkpt lat="45.3538373" lon="8.0568007"><ele>246.0</ele><time>2026-03-29T11:20:50.152Z</time></trkpt><trkpt lat="45.3538068" lon="8.0568816"><ele>246.0</ele><time>2026-03-29T11:20:51.147Z</time></trkpt><trkpt lat="45.3537617" lon="8.0569996"><ele>246.0</ele><time>2026-03-29T11:20:53.138Z</time></trkpt><trkpt lat="45.3537602" lon="8.0570955"><ele>246.0</ele><time>2026-03-29T11:21:08.138Z</time></trkpt><trkpt lat="45.353813" lon="8.0572279"><ele>246.00000000000003</ele><time>2026-03-29T11:21:11.148Z</time></trkpt><trkpt lat="45.3538763" lon="8.0572902"><ele>246.00000000000003</ele><time>2026-03-29T11:21:12.132Z</time></trkpt><trkpt lat="45.3539741" lon="8.0573569"><ele>246.0</ele><time>2026-03-29T11:21:13.152Z</time></trkpt><trkpt lat="45.3540826" lon="8.0574471"><ele>246.0</ele><time>2026-03-29T11:21:14.147Z</time></trkpt><trkpt lat="45.3541844" lon="8.0575285"><ele>245.75</ele><time>2026-03-29T11:21:15.164Z</time></trkpt><trkpt lat="45.3542867" lon="8.0575902"><ele>245.5</ele><time>2026-03-29T11:21:16.148Z</time></trkpt><trkpt lat="45.3543912" lon="8.0576549"><ele>245.25</ele><time>2026-03-29T11:21:17.139Z</time></trkpt><trkpt lat="45.3544878" lon="8.0577355"><ele>245.0</ele><time>2026-03-29T11:21:18.14Z</time></trkpt><trkpt lat="45.3545967" lon="8.057811"><ele>245.25</ele><time>2026-03-29T11:21:19.143Z</time></trkpt><trkpt lat="45.354719" lon="8.0578961"><ele>245.5</ele><time>2026-03-29T11:21:20.148Z</time></trkpt><trkpt lat="45.3548467" lon="8.0579864"><ele>245.75</ele><time>2026-03-29T11:21:21.152Z</time></trkpt><trkpt lat="45.3549531" lon="8.0580782"><ele>246.0</ele><time>2026-03-29T11:21:22.167Z</time></trkpt><trkpt lat="45.355052" lon="8.0581822"><ele>245.75</ele><time>2026-03-29T11:21:23.135Z</time></trkpt><trkpt lat="45.3551492" lon="8.0582917"><ele>245.5</ele><time>2026-03-29T11:21:24.156Z</time></trkpt><trkpt lat="45.3552489" lon="8.0584092"><ele>245.25</ele><time>2026-03-29T11:21:25.157Z</time></trkpt><trkpt lat="45.3553365" lon="8.0585578"><ele>245.0</ele><time>2026-03-29T11:21:26.156Z</time></trkpt><trkpt lat="45.3554152" lon="8.0587026"><ele>245.0</ele><time>2026-03-29T11:21:27.155Z</time></trkpt><trkpt lat="45.3554921" lon="8.0588417"><ele>245.0</ele><time>2026-03-29T11:21:28.158Z</time></trkpt><trkpt lat="45.3555588" lon="8.0589646"><ele>245.0</ele><time>2026-03-29T11:21:29.186Z</time></trkpt><trkpt lat="45.3556216" lon="8.059069"><ele>245.0</ele><time>2026-03-29T11:21:30.135Z</time></trkpt><trkpt lat="45.3556698" lon="8.05916"><ele>245.0</ele><time>2026-03-29T11:21:31.153Z</time></trkpt><trkpt lat="45.3557198" lon="8.0592423"><ele>244.66666666666669</ele><time>2026-03-29T11:21:32.156Z</time></trkpt><trkpt lat="45.355761" lon="8.0593178"><ele>244.33333333333334</ele><time>2026-03-29T11:21:33.145Z</time></trkpt><trkpt lat="45.3558104" lon="8.0593918"><ele>244.0</ele><time>2026-03-29T11:21:34.147Z</time></trkpt><trkpt lat="45.3558615" lon="8.0594824"><ele>243.66666666666669</ele><time>2026-03-29T11:21:35.152Z</time></trkpt><trkpt lat="45.3559193" lon="8.0595776"><ele>243.33333333333334</ele><time>2026-03-29T11:21:36.148Z</time></trkpt><trkpt lat="45.3559809" lon="8.0596832"><ele>243.0</ele><time>2026-03-29T11:21:37.146Z</time></trkpt><trkpt lat="45.3560368" lon="8.0597993"><ele>243.0</ele><time>2026-03-29T11:21:38.147Z</time></trkpt><trkpt lat="45.3560949" lon="8.0599114"><ele>243.0</ele><time>2026-03-29T11:21:39.152Z</time></trkpt><trkpt lat="45.356165" lon="8.0600332"><ele>243.0</ele><time>2026-03-29T11:21:40.137Z</time></trkpt><trkpt lat="45.3562353" lon="8.0601636"><ele>243.0</ele><time>2026-03-29T11:21:41.17Z</time></trkpt><trkpt lat="45.3563177" lon="8.0603002"><ele>243.0</ele><time>2026-03-29T11:21:42.136Z</time></trkpt><trkpt lat="45.3564018" lon="8.0604379"><ele>243.0</ele><time>2026-03-29T11:21:43.135Z</time></trkpt><trkpt lat="45.3564854" lon="8.0605793"><ele>243.0</ele><time>2026-03-29T11:21:44.139Z</time></trkpt><trkpt lat="45.356572" lon="8.0607295"><ele>243.0</ele><time>2026-03-29T11:21:45.145Z</time></trkpt><trkpt lat="45.3566541" lon="8.0608717"><ele>243.0</ele><time>2026-03-29T11:21:46.152Z</time></trkpt><trkpt lat="45.3567283" lon="8.0610096"><ele>243.0</ele><time>2026-03-29T11:21:47.139Z</time></trkpt><trkpt lat="45.3567919" lon="8.0611204"><ele>243.0</ele><time>2026-03-29T11:21:48.158Z</time></trkpt><trkpt lat="45.356854" lon="8.061219"><ele>243.0</ele><time>2026-03-29T11:21:49.152Z</time></trkpt><trkpt lat="45.3569275" lon="8.0613438"><ele>243.0</ele><time>2026-03-29T11:21:50.15Z</time></trkpt><trkpt lat="45.3570164" lon="8.061502"><ele>243.25</ele><time>2026-03-29T11:21:51.159Z</time></trkpt><trkpt lat="45.3571122" lon="8.0616697"><ele>243.5</ele><time>2026-03-29T11:21:52.144Z</time></trkpt><trkpt lat="45.3572036" lon="8.0618316"><ele>243.75</ele><time>2026-03-29T11:21:53.151Z</time></trkpt><trkpt lat="45.3572857" lon="8.0620005"><ele>244.0</ele><time>2026-03-29T11:21:54.151Z</time></trkpt><trkpt lat="45.3573748" lon="8.0621694"><ele>244.33333333333331</ele><time>2026-03-29T11:21:55.16Z</time></trkpt><trkpt lat="45.3574688" lon="8.0623326"><ele>244.66666666666669</ele><time>2026-03-29T11:21:56.152Z</time></trkpt><trkpt lat="45.3575653" lon="8.062497"><ele>245.0</ele><time>2026-03-29T11:21:57.134Z</time></trkpt><trkpt lat="45.3576651" lon="8.0626728"><ele>245.0</ele><time>2026-03-29T11:21:58.146Z</time></trkpt><trkpt lat="45.3577647" lon="8.062842"><ele>245.0</ele><time>2026-03-29T11:21:59.143Z</time></trkpt><trkpt lat="45.3578613" lon="8.0630102"><ele>245.0</ele><time>2026-03-29T11:22:00.143Z</time></trkpt><trkpt lat="45.3579596" lon="8.0631892"><ele>245.0</ele><time>2026-03-29T11:22:01.141Z</time></trkpt><trkpt lat="45.3580536" lon="8.063363"><ele>245.0</ele><time>2026-03-29T11:22:02.136Z</time></trkpt><trkpt lat="45.3581527" lon="8.0635355"><ele>245.0</ele><time>2026-03-29T11:22:03.149Z</time></trkpt><trkpt lat="45.3582498" lon="8.0637122"><ele>245.0</ele><time>2026-03-29T11:22:04.141Z</time></trkpt><trkpt lat="45.3583482" lon="8.0638892"><ele>245.0</ele><time>2026-03-29T11:22:05.148Z</time></trkpt><trkpt lat="45.3584483" lon="8.0640653"><ele>245.0</ele><time>2026-03-29T11:22:06.145Z</time></trkpt><trkpt lat="45.3585457" lon="8.064235"><ele>245.0</ele><time>2026-03-29T11:22:07.152Z</time></trkpt><trkpt lat="45.3586443" lon="8.0644111"><ele>245.0</ele><time>2026-03-29T11:22:08.169Z</time></trkpt><trkpt lat="45.3587445" lon="8.0645864"><ele>245.0</ele><time>2026-03-29T11:22:09.139Z</time></trkpt><trkpt lat="45.358842" lon="8.0647567"><ele>245.0</ele><time>2026-03-29T11:22:10.142Z</time></trkpt><trkpt lat="45.3589369" lon="8.0649169"><ele>245.0</ele><time>2026-03-29T11:22:11.137Z</time></trkpt><trkpt lat="45.3590287" lon="8.065073"><ele>245.0</ele><time>2026-03-29T11:22:12.144Z</time></trkpt><trkpt lat="45.3591202" lon="8.0652292"><ele>245.0</ele><time>2026-03-29T11:22:13.152Z</time></trkpt><trkpt lat="45.3592128" lon="8.0653911"><ele>245.0</ele><time>2026-03-29T11:22:14.145Z</time></trkpt><trkpt lat="45.3593049" lon="8.0655598"><ele>245.0</ele><time>2026-03-29T11:22:15.139Z</time></trkpt><trkpt lat="45.3593989" lon="8.0657296"><ele>245.0</ele><time>2026-03-29T11:22:16.136Z</time></trkpt><trkpt lat="45.3594935" lon="8.0659078"><ele>244.66666666666669</ele><time>2026-03-29T11:22:17.14Z</time></trkpt><trkpt lat="45.3595941" lon="8.0660824"><ele>244.33333333333331</ele><time>2026-03-29T11:22:18.142Z</time></trkpt><trkpt lat="45.3596976" lon="8.0662588"><ele>244.0</ele><time>2026-03-29T11:22:19.137Z</time></trkpt><trkpt lat="45.3598003" lon="8.0664385"><ele>244.0</ele><time>2026-03-29T11:22:20.148Z</time></trkpt><trkpt lat="45.3598985" lon="8.0666178"><ele>244.0</ele><time>2026-03-29T11:22:21.143Z</time></trkpt><trkpt lat="45.3600012" lon="8.0667966"><ele>244.0</ele><time>2026-03-29T11:22:22.147Z</time></trkpt><trkpt lat="45.3601025" lon="8.0669784"><ele>244.0</ele><time>2026-03-29T11:22:23.137Z</time></trkpt><trkpt lat="45.3602045" lon="8.067152"><ele>244.0</ele><time>2026-03-29T11:22:24.157Z</time></trkpt><trkpt lat="45.3603062" lon="8.0673257"><ele>244.0</ele><time>2026-03-29T11:22:25.138Z</time></trkpt><trkpt lat="45.3604105" lon="8.0675057"><ele>244.0</ele><time>2026-03-29T11:22:26.146Z</time></trkpt><trkpt lat="45.3605163" lon="8.0676887"><ele>244.0</ele><time>2026-03-29T11:22:27.152Z</time></trkpt><trkpt lat="45.3606204" lon="8.0678652"><ele>244.0</ele><time>2026-03-29T11:22:28.141Z</time></trkpt><trkpt lat="45.3607167" lon="8.0680348"><ele>244.25</ele><time>2026-03-29T11:22:29.141Z</time></trkpt><trkpt lat="45.3608095" lon="8.0681968"><ele>244.5</ele><time>2026-03-29T11:22:30.156Z</time></trkpt><trkpt lat="45.3609038" lon="8.0683653"><ele>244.75</ele><time>2026-03-29T11:22:31.145Z</time></trkpt><trkpt lat="45.3609877" lon="8.0685238"><ele>245.0</ele><time>2026-03-29T11:22:32.13Z</time></trkpt><trkpt lat="45.3610591" lon="8.068658"><ele>245.00000000000003</ele><time>2026-03-29T11:22:33.145Z</time></trkpt><trkpt lat="45.3611207" lon="8.0687829"><ele>245.0</ele><time>2026-03-29T11:22:34.145Z</time></trkpt><trkpt lat="45.3611694" lon="8.0688981"><ele>245.0</ele><time>2026-03-29T11:22:35.151Z</time></trkpt><trkpt lat="45.3612098" lon="8.0690006"><ele>245.0</ele><time>2026-03-29T11:22:36.146Z</time></trkpt><trkpt lat="45.3612563" lon="8.0690729"><ele>245.00000000000003</ele><time>2026-03-29T11:22:37.139Z</time></trkpt><trkpt lat="45.361318" lon="8.0691155"><ele>245.0</ele><time>2026-03-29T11:22:38.153Z</time></trkpt><trkpt lat="45.3613893" lon="8.0691332"><ele>245.4</ele><time>2026-03-29T11:22:39.139Z</time></trkpt><trkpt lat="45.3614744" lon="8.0691078"><ele>245.8</ele><time>2026-03-29T11:22:40.161Z</time></trkpt><trkpt lat="45.3615732" lon="8.0690976"><ele>246.2</ele><time>2026-03-29T11:22:41.141Z</time></trkpt><trkpt lat="45.3616788" lon="8.06912"><ele>246.6</ele><time>2026-03-29T11:22:42.14Z</time></trkpt><trkpt lat="45.3617965" lon="8.0691791"><ele>247.0</ele><time>2026-03-29T11:22:43.136Z</time></trkpt><trkpt lat="45.36191" lon="8.0692537"><ele>247.25</ele><time>2026-03-29T11:22:44.146Z</time></trkpt><trkpt lat="45.3620263" lon="8.0693276"><ele>247.5</ele><time>2026-03-29T11:22:45.136Z</time></trkpt><trkpt lat="45.3621491" lon="8.0694043"><ele>247.75</ele><time>2026-03-29T11:22:46.152Z</time></trkpt><trkpt lat="45.3622793" lon="8.069477"><ele>248.0</ele><time>2026-03-29T11:22:47.157Z</time></trkpt><trkpt lat="45.3624059" lon="8.0695571"><ele>248.25</ele><time>2026-03-29T11:22:48.139Z</time></trkpt><trkpt lat="45.3625347" lon="8.0696357"><ele>248.5</ele><time>2026-03-29T11:22:49.142Z</time></trkpt><trkpt lat="45.3626655" lon="8.0697201"><ele>248.75</ele><time>2026-03-29T11:22:50.146Z</time></trkpt><trkpt lat="45.3627974" lon="8.0698053"><ele>249.0</ele><time>2026-03-29T11:22:51.15Z</time></trkpt><trkpt lat="45.3629278" lon="8.0698909"><ele>249.0</ele><time>2026-03-29T11:22:52.173Z</time></trkpt><trkpt lat="45.3630623" lon="8.0699733"><ele>249.0</ele><time>2026-03-29T11:22:53.132Z</time></trkpt><trkpt lat="45.3631947" lon="8.0700574"><ele>249.0</ele><time>2026-03-29T11:22:54.147Z</time></trkpt><trkpt lat="45.3633298" lon="8.0701434"><ele>249.0</ele><time>2026-03-29T11:22:55.141Z</time></trkpt><trkpt lat="45.3634644" lon="8.0702297"><ele>249.0</ele><time>2026-03-29T11:22:56.146Z</time></trkpt><trkpt lat="45.3636025" lon="8.0703111"><ele>249.0</ele><time>2026-03-29T11:22:57.141Z</time></trkpt><trkpt lat="45.3637408" lon="8.0703991"><ele>249.0</ele><time>2026-03-29T11:22:58.146Z</time></trkpt><trkpt lat="45.3638769" lon="8.0704856"><ele>249.25</ele><time>2026-03-29T11:22:59.15Z</time></trkpt><trkpt lat="45.3640119" lon="8.0705702"><ele>249.5</ele><time>2026-03-29T11:23:00.149Z</time></trkpt><trkpt lat="45.3641407" lon="8.0706501"><ele>249.75</ele><time>2026-03-29T11:23:01.151Z</time></trkpt><trkpt lat="45.3642682" lon="8.070727"><ele>250.0</ele><time>2026-03-29T11:23:02.139Z</time></trkpt><trkpt lat="45.3643846" lon="8.0707985"><ele>250.25</ele><time>2026-03-29T11:23:03.144Z</time></trkpt><trkpt lat="45.364492" lon="8.0708746"><ele>250.5</ele><time>2026-03-29T11:23:04.144Z</time></trkpt><trkpt lat="45.3645967" lon="8.0709459"><ele>250.75</ele><time>2026-03-29T11:23:05.137Z</time></trkpt><trkpt lat="45.3647052" lon="8.0710057"><ele>251.0</ele><time>2026-03-29T11:23:06.156Z</time></trkpt><trkpt lat="45.3647995" lon="8.0710624"><ele>251.00000000000003</ele><time>2026-03-29T11:23:07.144Z</time></trkpt><trkpt lat="45.3648894" lon="8.0711151"><ele>251.0</ele><time>2026-03-29T11:23:08.178Z</time></trkpt><trkpt lat="45.3649684" lon="8.0711616"><ele>251.0</ele><time>2026-03-29T11:23:09.138Z</time></trkpt><trkpt lat="45.3650298" lon="8.0711956"><ele>251.0</ele><time>2026-03-29T11:23:10.143Z</time></trkpt><trkpt lat="45.365108" lon="8.0712475"><ele>251.00000000000003</ele><time>2026-03-29T11:23:12.147Z</time></trkpt><trkpt lat="45.3651759" lon="8.0713643"><ele>251.0</ele><time>2026-03-29T11:23:17.171Z</time></trkpt><trkpt lat="45.3651954" lon="8.0715112"><ele>251.60000000000002</ele><time>2026-03-29T11:23:19.135Z</time></trkpt><trkpt lat="45.3651949" lon="8.0716738"><ele>252.20000000000002</ele><time>2026-03-29T11:23:21.137Z</time></trkpt><trkpt lat="45.3651935" lon="8.0717637"><ele>252.79999999999998</ele><time>2026-03-29T11:23:22.137Z</time></trkpt><trkpt lat="45.365194" lon="8.0719139"><ele>253.39999999999998</ele><time>2026-03-29T11:23:24.152Z</time></trkpt><trkpt lat="45.3652013" lon="8.0720896"><ele>254.0</ele><time>2026-03-29T11:23:26.184Z</time></trkpt><trkpt lat="45.365211" lon="8.072183"><ele>254.0</ele><time>2026-03-29T11:23:27.141Z</time></trkpt><trkpt lat="45.3652219" lon="8.0723381"><ele>253.99999999999997</ele><time>2026-03-29T11:23:29.141Z</time></trkpt><trkpt lat="45.3652352" lon="8.0724769"><ele>253.99999999999997</ele><time>2026-03-29T11:23:31.152Z</time></trkpt><trkpt lat="45.3652254" lon="8.0726486"><ele>254.0</ele><time>2026-03-29T11:23:33.16Z</time></trkpt><trkpt lat="45.3652155" lon="8.0727424"><ele>254.0</ele><time>2026-03-29T11:23:34.143Z</time></trkpt><trkpt lat="45.3651979" lon="8.0728597"><ele>254.16666666666669</ele><time>2026-03-29T11:23:35.148Z</time></trkpt><trkpt lat="45.3651868" lon="8.0729787"><ele>254.33333333333334</ele><time>2026-03-29T11:23:36.142Z</time></trkpt><trkpt lat="45.3651757" lon="8.0730934"><ele>254.5</ele><time>2026-03-29T11:23:37.154Z</time></trkpt><trkpt lat="45.365158" lon="8.0731974"><ele>254.66666666666669</ele><time>2026-03-29T11:23:38.164Z</time></trkpt><trkpt lat="45.3651421" lon="8.0733205"><ele>254.83333333333334</ele><time>2026-03-29T11:23:39.172Z</time></trkpt><trkpt lat="45.3651341" lon="8.073433"><ele>255.0</ele><time>2026-03-29T11:23:40.141Z</time></trkpt><trkpt lat="45.3651318" lon="8.073547"><ele>255.0</ele><time>2026-03-29T11:23:41.144Z</time></trkpt><trkpt lat="45.36513" lon="8.0736563"><ele>255.0</ele><time>2026-03-29T11:23:42.132Z</time></trkpt><trkpt lat="45.365139" lon="8.0737482"><ele>255.0</ele><time>2026-03-29T11:23:43.149Z</time></trkpt><trkpt lat="45.365164" lon="8.0738402"><ele>255.0</ele><time>2026-03-29T11:23:44.148Z</time></trkpt><trkpt lat="45.3652006" lon="8.0739261"><ele>255.0</ele><time>2026-03-29T11:23:45.14Z</time></trkpt><trkpt lat="45.3652453" lon="8.0740142"><ele>255.0</ele><time>2026-03-29T11:23:46.128Z</time></trkpt><trkpt lat="45.3653302" lon="8.0741588"><ele>255.0</ele><time>2026-03-29T11:23:48.157Z</time></trkpt><trkpt lat="45.3653726" lon="8.0742428"><ele>255.0</ele><time>2026-03-29T11:23:49.144Z</time></trkpt><trkpt lat="45.3654208" lon="8.0743361"><ele>255.0</ele><time>2026-03-29T11:23:50.149Z</time></trkpt><trkpt lat="45.3654741" lon="8.0744256"><ele>255.0</ele><time>2026-03-29T11:23:51.139Z</time></trkpt><trkpt lat="45.3655247" lon="8.0745164"><ele>255.0</ele><time>2026-03-29T11:23:52.141Z</time></trkpt><trkpt lat="45.3655646" lon="8.0746075"><ele>255.0</ele><time>2026-03-29T11:23:53.155Z</time></trkpt><trkpt lat="45.3656012" lon="8.0746982"><ele>254.83333333333334</ele><time>2026-03-29T11:23:54.142Z</time></trkpt><trkpt lat="45.3656387" lon="8.0747711"><ele>254.66666666666669</ele><time>2026-03-29T11:23:55.148Z</time></trkpt><trkpt lat="45.3657113" lon="8.0749188"><ele>254.5</ele><time>2026-03-29T11:23:57.15Z</time></trkpt><trkpt lat="45.3657527" lon="8.0749969"><ele>254.33333333333334</ele><time>2026-03-29T11:23:58.146Z</time></trkpt><trkpt lat="45.365792" lon="8.0750736"><ele>254.16666666666669</ele><time>2026-03-29T11:23:59.15Z</time></trkpt><trkpt lat="45.3658253" lon="8.0751588"><ele>254.0</ele><time>2026-03-29T11:24:00.133Z</time></trkpt><trkpt lat="45.3659117" lon="8.0752325"><ele>253.83333333333334</ele><time>2026-03-29T11:24:02.148Z</time></trkpt><trkpt lat="45.365978" lon="8.0752417"><ele>253.66666666666669</ele><time>2026-03-29T11:24:03.126Z</time></trkpt><trkpt lat="45.3660472" lon="8.075244"><ele>253.5</ele><time>2026-03-29T11:24:04.146Z</time></trkpt><trkpt lat="45.3661206" lon="8.0752334"><ele>253.33333333333331</ele><time>2026-03-29T11:24:05.149Z</time></trkpt><trkpt lat="45.366191" lon="8.0752451"><ele>253.16666666666666</ele><time>2026-03-29T11:24:06.144Z</time></trkpt><trkpt lat="45.3663159" lon="8.0752864"><ele>253.0</ele><time>2026-03-29T11:24:08.149Z</time></trkpt><trkpt lat="45.366383" lon="8.0753077"><ele>252.49999999999997</ele><time>2026-03-29T11:24:09.14Z</time></trkpt><trkpt lat="45.3664545" lon="8.0753149"><ele>252.0</ele><time>2026-03-29T11:24:10.14Z</time></trkpt><trkpt lat="45.3665303" lon="8.0753414"><ele>251.5</ele><time>2026-03-29T11:24:11.146Z</time></trkpt><trkpt lat="45.3666039" lon="8.0753761"><ele>251.0</ele><time>2026-03-29T11:24:12.138Z</time></trkpt><trkpt lat="45.3666701" lon="8.0754113"><ele>250.49999999999997</ele><time>2026-03-29T11:24:13.139Z</time></trkpt><trkpt lat="45.3667446" lon="8.0754424"><ele>250.0</ele><time>2026-03-29T11:24:14.149Z</time></trkpt><trkpt lat="45.3668241" lon="8.075476"><ele>249.99999999999997</ele><time>2026-03-29T11:24:15.138Z</time></trkpt><trkpt lat="45.3668952" lon="8.0755206"><ele>250.0</ele><time>2026-03-29T11:24:16.147Z</time></trkpt><trkpt lat="45.3669688" lon="8.0755525"><ele>250.0</ele><time>2026-03-29T11:24:17.15Z</time></trkpt><trkpt lat="45.3670451" lon="8.0755941"><ele>250.0</ele><time>2026-03-29T11:24:18.134Z</time></trkpt><trkpt lat="45.3671267" lon="8.075636"><ele>249.99999999999997</ele><time>2026-03-29T11:24:19.166Z</time></trkpt><trkpt lat="45.3672004" lon="8.0756785"><ele>250.0</ele><time>2026-03-29T11:24:20.149Z</time></trkpt><trkpt lat="45.3672719" lon="8.0757253"><ele>250.28571428571428</ele><time>2026-03-29T11:24:21.142Z</time></trkpt><trkpt lat="45.3673464" lon="8.0757639"><ele>250.57142857142858</ele><time>2026-03-29T11:24:22.145Z</time></trkpt><trkpt lat="45.3674152" lon="8.0758107"><ele>250.85714285714286</ele><time>2026-03-29T11:24:23.144Z</time></trkpt><trkpt lat="45.3674807" lon="8.0758509"><ele>251.14285714285714</ele><time>2026-03-29T11:24:24.143Z</time></trkpt><trkpt lat="45.3675452" lon="8.0758438"><ele>251.42857142857144</ele><time>2026-03-29T11:24:25.155Z</time></trkpt><trkpt lat="45.3676067" lon="8.075821"><ele>251.71428571428572</ele><time>2026-03-29T11:24:26.149Z</time></trkpt><trkpt lat="45.3676697" lon="8.0757993"><ele>252.0</ele><time>2026-03-29T11:24:27.141Z</time></trkpt><trkpt lat="45.3677681" lon="8.0757639"><ele>252.0</ele><time>2026-03-29T11:24:29.141Z</time></trkpt><trkpt lat="45.3678328" lon="8.0757501"><ele>252.0</ele><time>2026-03-29T11:24:30.176Z</time></trkpt><trkpt lat="45.3679104" lon="8.0757475"><ele>252.0</ele><time>2026-03-29T11:24:31.141Z</time></trkpt><trkpt lat="45.3679995" lon="8.0757735"><ele>252.0</ele><time>2026-03-29T11:24:32.139Z</time></trkpt><trkpt lat="45.3680925" lon="8.0758072"><ele>252.0</ele><time>2026-03-29T11:24:33.134Z</time></trkpt><trkpt lat="45.3681727" lon="8.0758312"><ele>252.0</ele><time>2026-03-29T11:24:34.136Z</time></trkpt><trkpt lat="45.3682375" lon="8.0758477"><ele>252.16666666666666</ele><time>2026-03-29T11:24:35.149Z</time></trkpt><trkpt lat="45.3683613" lon="8.0758728"><ele>252.33333333333331</ele><time>2026-03-29T11:24:37.165Z</time></trkpt><trkpt lat="45.3684305" lon="8.0758947"><ele>252.5</ele><time>2026-03-29T11:24:38.136Z</time></trkpt><trkpt lat="45.3685089" lon="8.0759194"><ele>252.66666666666666</ele><time>2026-03-29T11:24:39.143Z</time></trkpt><trkpt lat="45.3685799" lon="8.0759434"><ele>252.83333333333331</ele><time>2026-03-29T11:24:40.152Z</time></trkpt><trkpt lat="45.3686512" lon="8.0759764"><ele>253.0</ele><time>2026-03-29T11:24:41.149Z</time></trkpt><trkpt lat="45.3687196" lon="8.0759889"><ele>253.0</ele><time>2026-03-29T11:24:42.137Z</time></trkpt><trkpt lat="45.3687803" lon="8.0759606"><ele>253.0</ele><time>2026-03-29T11:24:43.155Z</time></trkpt><trkpt lat="45.3688353" lon="8.0759136"><ele>253.0</ele><time>2026-03-29T11:24:44.145Z</time></trkpt><trkpt lat="45.3688983" lon="8.0758914"><ele>253.0</ele><time>2026-03-29T11:24:46.13Z</time></trkpt><trkpt lat="45.3690143" lon="8.075799"><ele>253.0</ele><time>2026-03-29T11:25:31.145Z</time></trkpt><trkpt lat="45.369136" lon="8.0757398"><ele>252.75</ele><time>2026-03-29T11:25:33.144Z</time></trkpt><trkpt lat="45.3692564" lon="8.0756809"><ele>252.5</ele><time>2026-03-29T11:25:34.18Z</time></trkpt><trkpt lat="45.369374" lon="8.0756243"><ele>252.25</ele><time>2026-03-29T11:25:35.144Z</time></trkpt><trkpt lat="45.3694771" lon="8.0755708"><ele>252.0</ele><time>2026-03-29T11:25:36.154Z</time></trkpt><trkpt lat="45.3695733" lon="8.0755193"><ele>252.0</ele><time>2026-03-29T11:25:37.148Z</time></trkpt><trkpt lat="45.369657" lon="8.0754834"><ele>252.0</ele><time>2026-03-29T11:25:38.141Z</time></trkpt><trkpt lat="45.3697348" lon="8.0754499"><ele>252.0</ele><time>2026-03-29T11:25:39.146Z</time></trkpt><trkpt lat="45.3698209" lon="8.0753997"><ele>252.0</ele><time>2026-03-29T11:25:40.15Z</time></trkpt><trkpt lat="45.3699166" lon="8.0753621"><ele>252.0</ele><time>2026-03-29T11:25:41.148Z</time></trkpt><trkpt lat="45.3700108" lon="8.0753149"><ele>252.25</ele><time>2026-03-29T11:25:42.15Z</time></trkpt><trkpt lat="45.3701078" lon="8.0752687"><ele>252.5</ele><time>2026-03-29T11:25:43.145Z</time></trkpt><trkpt lat="45.3702163" lon="8.0752078"><ele>252.75</ele><time>2026-03-29T11:25:44.156Z</time></trkpt><trkpt lat="45.37033" lon="8.0751502"><ele>253.0</ele><time>2026-03-29T11:25:45.142Z</time></trkpt><trkpt lat="45.3704425" lon="8.0750911"><ele>253.5</ele><time>2026-03-29T11:25:46.145Z</time></trkpt><trkpt lat="45.3705564" lon="8.0750374"><ele>254.0</ele><time>2026-03-29T11:25:47.179Z</time></trkpt><trkpt lat="45.3706667" lon="8.0749797"><ele>254.5</ele><time>2026-03-29T11:25:48.148Z</time></trkpt><trkpt lat="45.3707758" lon="8.0749217"><ele>255.0</ele><time>2026-03-29T11:25:49.138Z</time></trkpt><trkpt lat="45.3708918" lon="8.0748682"><ele>255.0</ele><time>2026-03-29T11:25:50.145Z</time></trkpt><trkpt lat="45.3710105" lon="8.0748176"><ele>255.0</ele><time>2026-03-29T11:25:51.138Z</time></trkpt><trkpt lat="45.3711375" lon="8.0747589"><ele>255.0</ele><time>2026-03-29T11:25:52.125Z</time></trkpt><trkpt lat="45.3712736" lon="8.0746854"><ele>255.0</ele><time>2026-03-29T11:25:53.147Z</time></trkpt><trkpt lat="45.3714196" lon="8.0746161"><ele>255.0</ele><time>2026-03-29T11:25:54.15Z</time></trkpt><trkpt lat="45.3715739" lon="8.0745424"><ele>255.0</ele><time>2026-03-29T11:25:55.135Z</time></trkpt><trkpt lat="45.3717269" lon="8.0744672"><ele>255.0</ele><time>2026-03-29T11:25:56.148Z</time></trkpt><trkpt lat="45.371872" lon="8.0743929"><ele>255.0</ele><time>2026-03-29T11:25:57.149Z</time></trkpt><trkpt lat="45.3720156" lon="8.0743174"><ele>255.0</ele><time>2026-03-29T11:25:58.14Z</time></trkpt><trkpt lat="45.3721603" lon="8.0742434"><ele>255.0</ele><time>2026-03-29T11:25:59.151Z</time></trkpt><trkpt lat="45.3723055" lon="8.0741685"><ele>255.66666666666669</ele><time>2026-03-29T11:26:00.137Z</time></trkpt><trkpt lat="45.3724481" lon="8.0740974"><ele>256.33333333333337</ele><time>2026-03-29T11:26:01.16Z</time></trkpt><trkpt lat="45.3725973" lon="8.0740205"><ele>257.0</ele><time>2026-03-29T11:26:02.149Z</time></trkpt><trkpt lat="45.3727427" lon="8.0739412"><ele>257.0</ele><time>2026-03-29T11:26:03.154Z</time></trkpt><trkpt lat="45.3728947" lon="8.0738598"><ele>257.0</ele><time>2026-03-29T11:26:04.169Z</time></trkpt><trkpt lat="45.3730466" lon="8.073782"><ele>257.0</ele><time>2026-03-29T11:26:05.146Z</time></trkpt><trkpt lat="45.3731983" lon="8.0737094"><ele>257.6666666666667</ele><time>2026-03-29T11:26:06.157Z</time></trkpt><trkpt lat="45.3733487" lon="8.0736307"><ele>258.3333333333333</ele><time>2026-03-29T11:26:07.157Z</time></trkpt><trkpt lat="45.3734957" lon="8.0735549"><ele>259.0</ele><time>2026-03-29T11:26:08.149Z</time></trkpt><trkpt lat="45.3736424" lon="8.0734825"><ele>259.0</ele><time>2026-03-29T11:26:09.149Z</time></trkpt><trkpt lat="45.3737892" lon="8.0734108"><ele>259.0</ele><time>2026-03-29T11:26:10.143Z</time></trkpt><trkpt lat="45.3739352" lon="8.0733374"><ele>259.0</ele><time>2026-03-29T11:26:11.148Z</time></trkpt><trkpt lat="45.3740833" lon="8.0732661"><ele>259.3333333333333</ele><time>2026-03-29T11:26:12.141Z</time></trkpt><trkpt lat="45.3742355" lon="8.0731994"><ele>259.6666666666667</ele><time>2026-03-29T11:26:13.146Z</time></trkpt><trkpt lat="45.3743903" lon="8.0731261"><ele>260.0</ele><time>2026-03-29T11:26:14.156Z</time></trkpt><trkpt lat="45.3745373" lon="8.0730492"><ele>260.0</ele><time>2026-03-29T11:26:15.137Z</time></trkpt><trkpt lat="45.3746809" lon="8.0729725"><ele>260.0</ele><time>2026-03-29T11:26:16.138Z</time></trkpt><trkpt lat="45.3748247" lon="8.0728995"><ele>260.0</ele><time>2026-03-29T11:26:17.151Z</time></trkpt><trkpt lat="45.3749733" lon="8.0728318"><ele>261.0</ele><time>2026-03-29T11:26:18.15Z</time></trkpt><trkpt lat="45.375122" lon="8.0727589"><ele>262.0</ele><time>2026-03-29T11:26:19.127Z</time></trkpt><trkpt lat="45.3752748" lon="8.0726792"><ele>263.0</ele><time>2026-03-29T11:26:20.15Z</time></trkpt><trkpt lat="45.3754309" lon="8.0725932"><ele>263.33333333333337</ele><time>2026-03-29T11:26:21.151Z</time></trkpt><trkpt lat="45.3755868" lon="8.0725052"><ele>263.6666666666667</ele><time>2026-03-29T11:26:22.132Z</time></trkpt><trkpt lat="45.3757455" lon="8.0724252"><ele>264.0</ele><time>2026-03-29T11:26:23.152Z</time></trkpt><trkpt lat="45.3759035" lon="8.0723512"><ele>264.3333333333333</ele><time>2026-03-29T11:26:24.134Z</time></trkpt><trkpt lat="45.3760642" lon="8.0722677"><ele>264.66666666666663</ele><time>2026-03-29T11:26:25.146Z</time></trkpt><trkpt lat="45.3762215" lon="8.0721938"><ele>265.0</ele><time>2026-03-29T11:26:26.139Z</time></trkpt><trkpt lat="45.3763831" lon="8.0721152"><ele>265.3333333333333</ele><time>2026-03-29T11:26:27.146Z</time></trkpt><trkpt lat="45.3765453" lon="8.072039"><ele>265.6666666666667</ele><time>2026-03-29T11:26:28.152Z</time></trkpt><trkpt lat="45.3767033" lon="8.0719624"><ele>266.0</ele><time>2026-03-29T11:26:29.153Z</time></trkpt><trkpt lat="45.37686" lon="8.071883"><ele>266.0</ele><time>2026-03-29T11:26:30.18Z</time></trkpt><trkpt lat="45.3770172" lon="8.0717991"><ele>266.0</ele><time>2026-03-29T11:26:31.14Z</time></trkpt><trkpt lat="45.3771745" lon="8.0717157"><ele>266.0</ele><time>2026-03-29T11:26:32.151Z</time></trkpt><trkpt lat="45.377329" lon="8.071636"><ele>266.6666666666667</ele><time>2026-03-29T11:26:33.139Z</time></trkpt><trkpt lat="45.3774849" lon="8.0715571"><ele>267.3333333333333</ele><time>2026-03-29T11:26:34.15Z</time></trkpt><trkpt lat="45.3776418" lon="8.0714866"><ele>268.0</ele><time>2026-03-29T11:26:35.149Z</time></trkpt><trkpt lat="45.3777977" lon="8.0714062"><ele>268.0</ele><time>2026-03-29T11:26:36.145Z</time></trkpt><trkpt lat="45.3779538" lon="8.0713254"><ele>268.0</ele><time>2026-03-29T11:26:37.15Z</time></trkpt><trkpt lat="45.3781063" lon="8.0712325"><ele>268.0</ele><time>2026-03-29T11:26:38.152Z</time></trkpt><trkpt lat="45.3782455" lon="8.0711244"><ele>268.3333333333333</ele><time>2026-03-29T11:26:39.149Z</time></trkpt><trkpt lat="45.3783826" lon="8.0709979"><ele>268.6666666666667</ele><time>2026-03-29T11:26:40.192Z</time></trkpt><trkpt lat="45.3785171" lon="8.0708699"><ele>269.0</ele><time>2026-03-29T11:26:41.145Z</time></trkpt><trkpt lat="45.3786509" lon="8.0707348"><ele>269.0</ele><time>2026-03-29T11:26:42.156Z</time></trkpt><trkpt lat="45.378788" lon="8.070599"><ele>269.0</ele><time>2026-03-29T11:26:43.141Z</time></trkpt><trkpt lat="45.3789254" lon="8.0704666"><ele>269.0</ele><time>2026-03-29T11:26:44.148Z</time></trkpt><trkpt lat="45.3790678" lon="8.0703468"><ele>270.0</ele><time>2026-03-29T11:26:45.149Z</time></trkpt><trkpt lat="45.3792152" lon="8.070243"><ele>271.0</ele><time>2026-03-29T11:26:46.15Z</time></trkpt><trkpt lat="45.3793721" lon="8.0701695"><ele>272.0</ele><time>2026-03-29T11:26:47.143Z</time></trkpt><trkpt lat="45.3795328" lon="8.0701365"><ele>272.6666666666667</ele><time>2026-03-29T11:26:48.133Z</time></trkpt><trkpt lat="45.3797008" lon="8.0701342"><ele>273.3333333333333</ele><time>2026-03-29T11:26:49.135Z</time></trkpt><trkpt lat="45.3798637" lon="8.0701612"><ele>274.0</ele><time>2026-03-29T11:26:50.127Z</time></trkpt><trkpt lat="45.3800271" lon="8.0701871"><ele>274.0</ele><time>2026-03-29T11:26:51.137Z</time></trkpt><trkpt lat="45.3801848" lon="8.0702138"><ele>274.0</ele><time>2026-03-29T11:26:52.139Z</time></trkpt><trkpt lat="45.3803462" lon="8.0702449"><ele>274.0</ele><time>2026-03-29T11:26:53.144Z</time></trkpt><trkpt lat="45.380502" lon="8.0702646"><ele>273.66666666666663</ele><time>2026-03-29T11:26:54.133Z</time></trkpt><trkpt lat="45.3806591" lon="8.070283"><ele>273.3333333333333</ele><time>2026-03-29T11:26:55.153Z</time></trkpt><trkpt lat="45.3808113" lon="8.0702883"><ele>273.0</ele><time>2026-03-29T11:26:56.172Z</time></trkpt><trkpt lat="45.380958" lon="8.0702671"><ele>273.0</ele><time>2026-03-29T11:26:57.144Z</time></trkpt><trkpt lat="45.3811064" lon="8.0702291"><ele>273.0</ele><time>2026-03-29T11:26:58.157Z</time></trkpt><trkpt lat="45.3812586" lon="8.0701638"><ele>273.0</ele><time>2026-03-29T11:26:59.142Z</time></trkpt><trkpt lat="45.3814124" lon="8.0700683"><ele>273.3333333333333</ele><time>2026-03-29T11:27:00.146Z</time></trkpt><trkpt lat="45.3815621" lon="8.0699401"><ele>273.66666666666663</ele><time>2026-03-29T11:27:01.145Z</time></trkpt><trkpt lat="45.3817062" lon="8.0697891"><ele>274.0</ele><time>2026-03-29T11:27:02.147Z</time></trkpt><trkpt lat="45.3818487" lon="8.0696313"><ele>274.0</ele><time>2026-03-29T11:27:03.151Z</time></trkpt><trkpt lat="45.3819833" lon="8.0694754"><ele>274.0</ele><time>2026-03-29T11:27:04.137Z</time></trkpt><trkpt lat="45.382119" lon="8.0693197"><ele>274.0</ele><time>2026-03-29T11:27:05.149Z</time></trkpt><trkpt lat="45.3822543" lon="8.0691651"><ele>274.3333333333333</ele><time>2026-03-29T11:27:06.159Z</time></trkpt><trkpt lat="45.3823907" lon="8.0690118"><ele>274.6666666666667</ele><time>2026-03-29T11:27:07.144Z</time></trkpt><trkpt lat="45.3825261" lon="8.06886"><ele>275.0</ele><time>2026-03-29T11:27:08.13Z</time></trkpt><trkpt lat="45.3826639" lon="8.0687109"><ele>275.0</ele><time>2026-03-29T11:27:09.141Z</time></trkpt><trkpt lat="45.3828056" lon="8.0685732"><ele>275.0</ele><time>2026-03-29T11:27:10.135Z</time></trkpt><trkpt lat="45.3829447" lon="8.0684372"><ele>275.0</ele><time>2026-03-29T11:27:11.147Z</time></trkpt><trkpt lat="45.3830916" lon="8.0683102"><ele>276.6666666666667</ele><time>2026-03-29T11:27:12.156Z</time></trkpt><trkpt lat="45.3832356" lon="8.0681837"><ele>278.3333333333333</ele><time>2026-03-29T11:27:13.142Z</time></trkpt><trkpt lat="45.3833793" lon="8.0680628"><ele>280.0</ele><time>2026-03-29T11:27:14.154Z</time></trkpt><trkpt lat="45.3835248" lon="8.0679411"><ele>280.0</ele><time>2026-03-29T11:27:15.139Z</time></trkpt><trkpt lat="45.3836757" lon="8.0678102"><ele>280.0</ele><time>2026-03-29T11:27:16.141Z</time></trkpt><trkpt lat="45.3838218" lon="8.0676784"><ele>280.0</ele><time>2026-03-29T11:27:17.144Z</time></trkpt><trkpt lat="45.3839718" lon="8.0675445"><ele>279.66666666666663</ele><time>2026-03-29T11:27:18.139Z</time></trkpt><trkpt lat="45.3841209" lon="8.0674242"><ele>279.3333333333333</ele><time>2026-03-29T11:27:19.13Z</time></trkpt><trkpt lat="45.3842657" lon="8.0672998"><ele>279.0</ele><time>2026-03-29T11:27:20.147Z</time></trkpt><trkpt lat="45.3844089" lon="8.0671728"><ele>279.0</ele><time>2026-03-29T11:27:21.155Z</time></trkpt><trkpt lat="45.3845547" lon="8.0670538"><ele>279.0</ele><time>2026-03-29T11:27:22.153Z</time></trkpt><trkpt lat="45.3847027" lon="8.0669308"><ele>279.0</ele><time>2026-03-29T11:27:23.14Z</time></trkpt><trkpt lat="45.3848531" lon="8.0668072"><ele>280.3333333333333</ele><time>2026-03-29T11:27:24.151Z</time></trkpt><trkpt lat="45.3850046" lon="8.0666833"><ele>281.66666666666663</ele><time>2026-03-29T11:27:25.157Z</time></trkpt><trkpt lat="45.3851594" lon="8.0665608"><ele>283.0</ele><time>2026-03-29T11:27:26.156Z</time></trkpt><trkpt lat="45.3853109" lon="8.0664372"><ele>283.0</ele><time>2026-03-29T11:27:27.151Z</time></trkpt><trkpt lat="45.3854618" lon="8.0663073"><ele>283.0</ele><time>2026-03-29T11:27:28.172Z</time></trkpt><trkpt lat="45.3856113" lon="8.0661757"><ele>283.0</ele><time>2026-03-29T11:27:29.145Z</time></trkpt><trkpt lat="45.3857592" lon="8.066046"><ele>284.0</ele><time>2026-03-29T11:27:30.145Z</time></trkpt><trkpt lat="45.3859062" lon="8.0659164"><ele>285.0</ele><time>2026-03-29T11:27:31.143Z</time></trkpt><trkpt lat="45.3860534" lon="8.0657957"><ele>286.0</ele><time>2026-03-29T11:27:32.155Z</time></trkpt><trkpt lat="45.3861875" lon="8.0656825"><ele>287.0</ele><time>2026-03-29T11:27:33.146Z</time></trkpt><trkpt lat="45.3863101" lon="8.0655885"><ele>288.0</ele><time>2026-03-29T11:27:34.144Z</time></trkpt><trkpt lat="45.3864288" lon="8.0655119"><ele>289.0</ele><time>2026-03-29T11:27:35.144Z</time></trkpt><trkpt lat="45.3865578" lon="8.0654831"><ele>290.0</ele><time>2026-03-29T11:27:36.154Z</time></trkpt><trkpt lat="45.3867054" lon="8.0654934"><ele>290.33333333333337</ele><time>2026-03-29T11:27:37.142Z</time></trkpt><trkpt lat="45.3868633" lon="8.065514"><ele>290.6666666666667</ele><time>2026-03-29T11:27:38.145Z</time></trkpt><trkpt lat="45.387021" lon="8.065541"><ele>291.0</ele><time>2026-03-29T11:27:39.143Z</time></trkpt><trkpt lat="45.3871773" lon="8.0655724"><ele>291.5</ele><time>2026-03-29T11:27:40.142Z</time></trkpt><trkpt lat="45.3873226" lon="8.0655701"><ele>292.0</ele><time>2026-03-29T11:27:41.148Z</time></trkpt><trkpt lat="45.3874527" lon="8.0655605"><ele>292.5</ele><time>2026-03-29T11:27:42.148Z</time></trkpt><trkpt lat="45.3875686" lon="8.0655127"><ele>293.0</ele><time>2026-03-29T11:27:43.14Z</time></trkpt><trkpt lat="45.3876971" lon="8.0654265"><ele>293.0</ele><time>2026-03-29T11:27:44.156Z</time></trkpt><trkpt lat="45.3878263" lon="8.0653044"><ele>293.0</ele><time>2026-03-29T11:27:45.166Z</time></trkpt><trkpt lat="45.3879421" lon="8.0651713"><ele>293.0</ele><time>2026-03-29T11:27:46.159Z</time></trkpt><trkpt lat="45.3880504" lon="8.065034"><ele>293.0</ele><time>2026-03-29T11:27:47.138Z</time></trkpt><trkpt lat="45.3881563" lon="8.0648973"><ele>294.0</ele><time>2026-03-29T11:27:48.142Z</time></trkpt><trkpt lat="45.3882746" lon="8.0647729"><ele>295.0</ele><time>2026-03-29T11:27:49.147Z</time></trkpt><trkpt lat="45.3884047" lon="8.0646715"><ele>296.0</ele><time>2026-03-29T11:27:50.156Z</time></trkpt><trkpt lat="45.3885447" lon="8.0645923"><ele>297.0</ele><time>2026-03-29T11:27:51.148Z</time></trkpt><trkpt lat="45.3886888" lon="8.0645019"><ele>297.0</ele><time>2026-03-29T11:27:52.15Z</time></trkpt><trkpt lat="45.3888344" lon="8.0644098"><ele>297.0</ele><time>2026-03-29T11:27:53.154Z</time></trkpt><trkpt lat="45.3889804" lon="8.06431"><ele>297.0</ele><time>2026-03-29T11:27:54.152Z</time></trkpt><trkpt lat="45.389139" lon="8.0642066"><ele>297.6666666666667</ele><time>2026-03-29T11:27:55.141Z</time></trkpt><trkpt lat="45.3892881" lon="8.0641018"><ele>298.33333333333337</ele><time>2026-03-29T11:27:56.127Z</time></trkpt><trkpt lat="45.3894402" lon="8.0640056"><ele>299.0</ele><time>2026-03-29T11:27:57.145Z</time></trkpt><trkpt lat="45.3895937" lon="8.063912"><ele>298.0</ele><time>2026-03-29T11:27:58.139Z</time></trkpt><trkpt lat="45.3897554" lon="8.0638129"><ele>297.0</ele><time>2026-03-29T11:27:59.135Z</time></trkpt><trkpt lat="45.3899033" lon="8.0637156"><ele>296.0</ele><time>2026-03-29T11:28:00.151Z</time></trkpt><trkpt lat="45.3900422" lon="8.0636382"><ele>296.0</ele><time>2026-03-29T11:28:01.14Z</time></trkpt><trkpt lat="45.3901672" lon="8.0635971"><ele>296.0</ele><time>2026-03-29T11:28:02.167Z</time></trkpt><trkpt lat="45.3902801" lon="8.0635777"><ele>296.0</ele><time>2026-03-29T11:28:03.147Z</time></trkpt><trkpt lat="45.390354" lon="8.0635706"><ele>296.0</ele><time>2026-03-29T11:28:04.14Z</time></trkpt><trkpt lat="45.3904294" lon="8.063568"><ele>296.0</ele><time>2026-03-29T11:28:06.145Z</time></trkpt><trkpt lat="45.390454" lon="8.0636603"><ele>296.0</ele><time>2026-03-29T11:28:09.114Z</time></trkpt><trkpt lat="45.3904175" lon="8.0637397"><ele>296.0</ele><time>2026-03-29T11:28:11.128Z</time></trkpt><trkpt lat="45.3904114" lon="8.0638457"><ele>296.0</ele><time>2026-03-29T11:28:13.149Z</time></trkpt><trkpt lat="45.3904585" lon="8.0640477"><ele>296.0</ele><time>2026-03-29T11:28:15.148Z</time></trkpt><trkpt lat="45.390493" lon="8.0641602"><ele>296.0</ele><time>2026-03-29T11:28:16.143Z</time></trkpt><trkpt lat="45.3905371" lon="8.0642573"><ele>297.0</ele><time>2026-03-29T11:28:18.145Z</time></trkpt><trkpt lat="45.3906619" lon="8.0642873"><ele>298.0</ele><time>2026-03-29T11:28:20.135Z</time></trkpt><trkpt lat="45.3907597" lon="8.0643792"><ele>299.0</ele><time>2026-03-29T11:28:22.141Z</time></trkpt><trkpt lat="45.3908129" lon="8.0644868"><ele>300.0</ele><time>2026-03-29T11:28:24.148Z</time></trkpt><trkpt lat="45.3908243" lon="8.0645761"><ele>301.0</ele><time>2026-03-29T11:28:25.155Z</time></trkpt><trkpt lat="45.3908314" lon="8.064689"><ele>301.0</ele><time>2026-03-29T11:28:26.139Z</time></trkpt><trkpt lat="45.3908669" lon="8.0648116"><ele>301.0</ele><time>2026-03-29T11:28:27.126Z</time></trkpt><trkpt lat="45.3909005" lon="8.064931"><ele>301.0</ele><time>2026-03-29T11:28:28.133Z</time></trkpt><trkpt lat="45.3909418" lon="8.0650488"><ele>301.0</ele><time>2026-03-29T11:28:29.151Z</time></trkpt><trkpt lat="45.3909932" lon="8.0651669"><ele>301.0</ele><time>2026-03-29T11:28:30.124Z</time></trkpt><trkpt lat="45.3910552" lon="8.0652667"><ele>300.8333333333333</ele><time>2026-03-29T11:28:31.124Z</time></trkpt><trkpt lat="45.3911211" lon="8.0653833"><ele>300.66666666666663</ele><time>2026-03-29T11:28:32.135Z</time></trkpt><trkpt lat="45.3911799" lon="8.0654868"><ele>300.5</ele><time>2026-03-29T11:28:33.139Z</time></trkpt><trkpt lat="45.3912289" lon="8.0655924"><ele>300.3333333333333</ele><time>2026-03-29T11:28:34.165Z</time></trkpt><trkpt lat="45.3912729" lon="8.0657007"><ele>300.1666666666667</ele><time>2026-03-29T11:28:35.131Z</time></trkpt><trkpt lat="45.3913076" lon="8.0657913"><ele>300.0</ele><time>2026-03-29T11:28:36.134Z</time></trkpt><trkpt lat="45.3913501" lon="8.0658842"><ele>299.8333333333333</ele><time>2026-03-29T11:28:37.126Z</time></trkpt><trkpt lat="45.3913933" lon="8.0659695"><ele>299.6666666666667</ele><time>2026-03-29T11:28:38.145Z</time></trkpt><trkpt lat="45.3914342" lon="8.0660464"><ele>299.5</ele><time>2026-03-29T11:28:39.131Z</time></trkpt><trkpt lat="45.3914878" lon="8.0661909"><ele>299.33333333333337</ele><time>2026-03-29T11:28:41.146Z</time></trkpt><trkpt lat="45.3914948" lon="8.0662845"><ele>299.1666666666667</ele><time>2026-03-29T11:28:42.136Z</time></trkpt><trkpt lat="45.391491" lon="8.0663987"><ele>299.0</ele><time>2026-03-29T11:28:43.128Z</time></trkpt><trkpt lat="45.3914846" lon="8.0665208"><ele>298.5</ele><time>2026-03-29T11:28:44.139Z</time></trkpt><trkpt lat="45.3914855" lon="8.0666607"><ele>298.0</ele><time>2026-03-29T11:28:45.139Z</time></trkpt><trkpt lat="45.3914907" lon="8.0667967"><ele>297.5</ele><time>2026-03-29T11:28:46.129Z</time></trkpt><trkpt lat="45.3914949" lon="8.0669268"><ele>297.0</ele><time>2026-03-29T11:28:47.144Z</time></trkpt><trkpt lat="45.391499" lon="8.0670254"><ele>296.5</ele><time>2026-03-29T11:28:48.145Z</time></trkpt><trkpt lat="45.3915179" lon="8.067123"><ele>296.0</ele><time>2026-03-29T11:28:49.137Z</time></trkpt><trkpt lat="45.3915404" lon="8.0672169"><ele>296.0</ele><time>2026-03-29T11:28:50.153Z</time></trkpt><trkpt lat="45.3915599" lon="8.0673194"><ele>296.0</ele><time>2026-03-29T11:28:51.148Z</time></trkpt><trkpt lat="45.3915705" lon="8.067492"><ele>296.0</ele><time>2026-03-29T11:28:53.147Z</time></trkpt><trkpt lat="45.3915582" lon="8.0675811"><ele>296.0</ele><time>2026-03-29T11:28:54.141Z</time></trkpt><trkpt lat="45.3915424" lon="8.067768"><ele>296.0</ele><time>2026-03-29T11:28:56.129Z</time></trkpt><trkpt lat="45.3915313" lon="8.0678887"><ele>295.40000000000003</ele><time>2026-03-29T11:28:57.144Z</time></trkpt><trkpt lat="45.3915074" lon="8.0680215"><ele>294.8</ele><time>2026-03-29T11:28:58.152Z</time></trkpt><trkpt lat="45.3914853" lon="8.0681576"><ele>294.20000000000005</ele><time>2026-03-29T11:28:59.138Z</time></trkpt><trkpt lat="45.3914506" lon="8.0683088"><ele>293.6</ele><time>2026-03-29T11:29:00.135Z</time></trkpt><trkpt lat="45.3914245" lon="8.0684526"><ele>293.0</ele><time>2026-03-29T11:29:01.131Z</time></trkpt><trkpt lat="45.3913874" lon="8.0686015"><ele>293.2</ele><time>2026-03-29T11:29:02.148Z</time></trkpt><trkpt lat="45.3913484" lon="8.0687446"><ele>293.4</ele><time>2026-03-29T11:29:03.153Z</time></trkpt><trkpt lat="45.391323" lon="8.0688699"><ele>293.59999999999997</ele><time>2026-03-29T11:29:04.146Z</time></trkpt><trkpt lat="45.3913053" lon="8.0690104"><ele>293.8</ele><time>2026-03-29T11:29:05.149Z</time></trkpt><trkpt lat="45.3912823" lon="8.0691481"><ele>294.0</ele><time>2026-03-29T11:29:06.132Z</time></trkpt><trkpt lat="45.391254" lon="8.0692748"><ele>294.0</ele><time>2026-03-29T11:29:07.145Z</time></trkpt><trkpt lat="45.3912319" lon="8.0694044"><ele>294.0</ele><time>2026-03-29T11:29:08.135Z</time></trkpt><trkpt lat="45.3912058" lon="8.0695317"><ele>294.0</ele><time>2026-03-29T11:29:09.129Z</time></trkpt><trkpt lat="45.3911803" lon="8.0696526"><ele>294.0</ele><time>2026-03-29T11:29:10.132Z</time></trkpt><trkpt lat="45.3911608" lon="8.0697555"><ele>294.0</ele><time>2026-03-29T11:29:11.143Z</time></trkpt><trkpt lat="45.3911374" lon="8.069919"><ele>293.0</ele><time>2026-03-29T11:29:13.13Z</time></trkpt><trkpt lat="45.3911924" lon="8.0700389"><ele>292.0</ele><time>2026-03-29T11:29:15.142Z</time></trkpt><trkpt lat="45.3912542" lon="8.0700762"><ele>291.0</ele><time>2026-03-29T11:29:17.136Z</time></trkpt><trkpt lat="45.3913166" lon="8.0701"><ele>290.0</ele><time>2026-03-29T11:29:19.144Z</time></trkpt><trkpt lat="45.3913789" lon="8.070133"><ele>289.0</ele><time>2026-03-29T11:29:24.143Z</time></trkpt><trkpt lat="45.3914661" lon="8.0701537"><ele>288.0</ele><time>2026-03-29T11:29:25.137Z</time></trkpt><trkpt lat="45.3915446" lon="8.0701742"><ele>287.3333333333333</ele><time>2026-03-29T11:29:26.143Z</time></trkpt><trkpt lat="45.3916271" lon="8.070199"><ele>286.6666666666667</ele><time>2026-03-29T11:29:27.164Z</time></trkpt><trkpt lat="45.3917059" lon="8.0702394"><ele>286.0</ele><time>2026-03-29T11:29:28.143Z</time></trkpt><trkpt lat="45.391785" lon="8.070284"><ele>285.33333333333337</ele><time>2026-03-29T11:29:29.142Z</time></trkpt><trkpt lat="45.3918665" lon="8.0703571"><ele>284.6666666666667</ele><time>2026-03-29T11:29:30.14Z</time></trkpt><trkpt lat="45.3919439" lon="8.0704353"><ele>284.0</ele><time>2026-03-29T11:29:31.14Z</time></trkpt><trkpt lat="45.3919985" lon="8.0705029"><ele>284.0</ele><time>2026-03-29T11:29:32.152Z</time></trkpt><trkpt lat="45.3920685" lon="8.0706307"><ele>284.0</ele><time>2026-03-29T11:29:34.134Z</time></trkpt><trkpt lat="45.3920982" lon="8.0708041"><ele>284.0</ele><time>2026-03-29T11:29:36.137Z</time></trkpt><trkpt lat="45.392095" lon="8.0708942"><ele>284.0</ele><time>2026-03-29T11:29:37.149Z</time></trkpt><trkpt lat="45.3921087" lon="8.0710097"><ele>284.0</ele><time>2026-03-29T11:29:39.145Z</time></trkpt><trkpt lat="45.3921688" lon="8.0710672"><ele>283.8</ele><time>2026-03-29T11:29:41.145Z</time></trkpt><trkpt lat="45.3922317" lon="8.0710932"><ele>283.59999999999997</ele><time>2026-03-29T11:29:42.143Z</time></trkpt><trkpt lat="45.3923331" lon="8.0711409"><ele>283.4</ele><time>2026-03-29T11:29:43.141Z</time></trkpt><trkpt lat="45.3924439" lon="8.0711903"><ele>283.2</ele><time>2026-03-29T11:29:44.137Z</time></trkpt><trkpt lat="45.3925461" lon="8.0712388"><ele>283.0</ele><time>2026-03-29T11:29:45.146Z</time></trkpt><trkpt lat="45.3926481" lon="8.0712937"><ele>283.0</ele><time>2026-03-29T11:29:46.125Z</time></trkpt><trkpt lat="45.3927629" lon="8.071346"><ele>283.0</ele><time>2026-03-29T11:29:47.152Z</time></trkpt><trkpt lat="45.3928868" lon="8.0713884"><ele>283.0</ele><time>2026-03-29T11:29:48.15Z</time></trkpt><trkpt lat="45.3929985" lon="8.0714333"><ele>283.0</ele><time>2026-03-29T11:29:49.136Z</time></trkpt><trkpt lat="45.3931058" lon="8.0714832"><ele>283.0</ele><time>2026-03-29T11:29:50.128Z</time></trkpt><trkpt lat="45.3932132" lon="8.0715293"><ele>283.0</ele><time>2026-03-29T11:29:51.134Z</time></trkpt><trkpt lat="45.3933121" lon="8.0715666"><ele>283.0</ele><time>2026-03-29T11:29:52.137Z</time></trkpt><trkpt lat="45.3934032" lon="8.071599"><ele>283.0</ele><time>2026-03-29T11:29:53.133Z</time></trkpt><trkpt lat="45.3934965" lon="8.0716165"><ele>283.0</ele><time>2026-03-29T11:29:54.149Z</time></trkpt><trkpt lat="45.3935872" lon="8.0716281"><ele>283.0</ele><time>2026-03-29T11:29:55.145Z</time></trkpt><trkpt lat="45.3936708" lon="8.0716297"><ele>283.0</ele><time>2026-03-29T11:29:56.124Z</time></trkpt><trkpt lat="45.3937631" lon="8.0716155"><ele>283.0</ele><time>2026-03-29T11:29:57.15Z</time></trkpt><trkpt lat="45.3938667" lon="8.071616"><ele>283.0</ele><time>2026-03-29T11:29:58.143Z</time></trkpt><trkpt lat="45.3939698" lon="8.0716403"><ele>283.0</ele><time>2026-03-29T11:29:59.143Z</time></trkpt><trkpt lat="45.3940547" lon="8.0716601"><ele>283.8333333333333</ele><time>2026-03-29T11:30:00.133Z</time></trkpt><trkpt lat="45.3941282" lon="8.0716868"><ele>284.66666666666663</ele><time>2026-03-29T11:30:01.177Z</time></trkpt><trkpt lat="45.3942154" lon="8.0717063"><ele>285.5</ele><time>2026-03-29T11:30:02.135Z</time></trkpt><trkpt lat="45.394307" lon="8.0717485"><ele>286.3333333333333</ele><time>2026-03-29T11:30:03.153Z</time></trkpt><trkpt lat="45.3943971" lon="8.0717873"><ele>287.1666666666667</ele><time>2026-03-29T11:30:04.168Z</time></trkpt><trkpt lat="45.3944823" lon="8.0718079"><ele>288.0</ele><time>2026-03-29T11:30:05.148Z</time></trkpt><trkpt lat="45.3945821" lon="8.0718189"><ele>288.6</ele><time>2026-03-29T11:30:06.133Z</time></trkpt><trkpt lat="45.3946894" lon="8.0718131"><ele>289.20000000000005</ele><time>2026-03-29T11:30:07.14Z</time></trkpt><trkpt lat="45.3947987" lon="8.0717937"><ele>289.8</ele><time>2026-03-29T11:30:08.14Z</time></trkpt><trkpt lat="45.3948893" lon="8.0717841"><ele>290.40000000000003</ele><time>2026-03-29T11:30:09.135Z</time></trkpt><trkpt lat="45.3949711" lon="8.0717881"><ele>291.0</ele><time>2026-03-29T11:30:10.142Z</time></trkpt><trkpt lat="45.3950419" lon="8.0718167"><ele>291.0</ele><time>2026-03-29T11:30:11.123Z</time></trkpt><trkpt lat="45.3951264" lon="8.0718697"><ele>291.0</ele><time>2026-03-29T11:30:12.127Z</time></trkpt><trkpt lat="45.3951944" lon="8.0719432"><ele>291.0</ele><time>2026-03-29T11:30:13.152Z</time></trkpt><trkpt lat="45.3952776" lon="8.0719913"><ele>291.0</ele><time>2026-03-29T11:30:15.139Z</time></trkpt><trkpt lat="45.3953476" lon="8.0718443"><ele>291.0</ele><time>2026-03-29T11:30:17.125Z</time></trkpt><trkpt lat="45.3953743" lon="8.0716974"><ele>293.2</ele><time>2026-03-29T11:30:18.131Z</time></trkpt><trkpt lat="45.3954092" lon="8.0715091"><ele>295.40000000000003</ele><time>2026-03-29T11:30:19.129Z</time></trkpt><trkpt lat="45.3954385" lon="8.0713294"><ele>297.6</ele><time>2026-03-29T11:30:20.139Z</time></trkpt><trkpt lat="45.3954638" lon="8.0711981"><ele>299.8</ele><time>2026-03-29T11:30:21.141Z</time></trkpt><trkpt lat="45.3954827" lon="8.0710968"><ele>302.0</ele><time>2026-03-29T11:30:22.147Z</time></trkpt><trkpt lat="45.3955075" lon="8.0710052"><ele>302.0</ele><time>2026-03-29T11:30:23.142Z</time></trkpt><trkpt lat="45.3955444" lon="8.0709175"><ele>302.0</ele><time>2026-03-29T11:30:24.133Z</time></trkpt><trkpt lat="45.3956301" lon="8.0707919"><ele>302.0</ele><time>2026-03-29T11:30:26.144Z</time></trkpt><trkpt lat="45.3957001" lon="8.0707313"><ele>302.0</ele><time>2026-03-29T11:30:27.134Z</time></trkpt><trkpt lat="45.3957954" lon="8.0706485"><ele>302.0</ele><time>2026-03-29T11:30:28.128Z</time></trkpt><trkpt lat="45.3958806" lon="8.0705727"><ele>302.33333333333337</ele><time>2026-03-29T11:30:29.124Z</time></trkpt><trkpt lat="45.3959551" lon="8.070499"><ele>302.6666666666667</ele><time>2026-03-29T11:30:30.123Z</time></trkpt><trkpt lat="45.396015" lon="8.070456"><ele>303.0</ele><time>2026-03-29T11:30:31.141Z</time></trkpt><trkpt lat="45.3960743" lon="8.0704063"><ele>303.3333333333333</ele><time>2026-03-29T11:30:32.124Z</time></trkpt><trkpt lat="45.3961406" lon="8.07037"><ele>303.66666666666663</ele><time>2026-03-29T11:30:33.144Z</time></trkpt><trkpt lat="45.3962169" lon="8.0703483"><ele>304.0</ele><time>2026-03-29T11:30:34.138Z</time></trkpt><trkpt lat="45.3963007" lon="8.070346"><ele>304.2</ele><time>2026-03-29T11:30:35.15Z</time></trkpt><trkpt lat="45.396402" lon="8.0703596"><ele>304.4</ele><time>2026-03-29T11:30:36.126Z</time></trkpt><trkpt lat="45.396508" lon="8.0703519"><ele>304.6</ele><time>2026-03-29T11:30:37.139Z</time></trkpt><trkpt lat="45.3966099" lon="8.070357"><ele>304.8</ele><time>2026-03-29T11:30:38.143Z</time></trkpt><trkpt lat="45.3967231" lon="8.0703413"><ele>305.0</ele><time>2026-03-29T11:30:39.147Z</time></trkpt><trkpt lat="45.3968348" lon="8.0703203"><ele>305.0</ele><time>2026-03-29T11:30:40.11Z</time></trkpt><trkpt lat="45.3969608" lon="8.0702833"><ele>305.0</ele><time>2026-03-29T11:30:41.136Z</time></trkpt><trkpt lat="45.3970896" lon="8.0702327"><ele>305.0</ele><time>2026-03-29T11:30:42.128Z</time></trkpt><trkpt lat="45.3972062" lon="8.0701903"><ele>305.0</ele><time>2026-03-29T11:30:43.14Z</time></trkpt><trkpt lat="45.3972979" lon="8.0701524"><ele>306.5</ele><time>2026-03-29T11:30:44.123Z</time></trkpt><trkpt lat="45.3973914" lon="8.0701024"><ele>308.0</ele><time>2026-03-29T11:30:45.129Z</time></trkpt><trkpt lat="45.3974943" lon="8.0700253"><ele>309.5</ele><time>2026-03-29T11:30:46.116Z</time></trkpt><trkpt lat="45.3976127" lon="8.0699465"><ele>311.0</ele><time>2026-03-29T11:30:47.114Z</time></trkpt><trkpt lat="45.3977414" lon="8.0698732"><ele>311.25</ele><time>2026-03-29T11:30:48.118Z</time></trkpt><trkpt lat="45.3978701" lon="8.0698083"><ele>311.5</ele><time>2026-03-29T11:30:49.139Z</time></trkpt><trkpt lat="45.3979885" lon="8.0697556"><ele>311.75</ele><time>2026-03-29T11:30:50.127Z</time></trkpt><trkpt lat="45.3980966" lon="8.0697189"><ele>312.0</ele><time>2026-03-29T11:30:51.138Z</time></trkpt><trkpt lat="45.3981935" lon="8.0696777"><ele>312.0</ele><time>2026-03-29T11:30:52.127Z</time></trkpt><trkpt lat="45.3982846" lon="8.0696378"><ele>312.0</ele><time>2026-03-29T11:30:53.126Z</time></trkpt><trkpt lat="45.3983616" lon="8.0695976"><ele>312.0</ele><time>2026-03-29T11:30:54.144Z</time></trkpt><trkpt lat="45.3984321" lon="8.069549"><ele>312.0</ele><time>2026-03-29T11:30:55.134Z</time></trkpt><trkpt lat="45.3984903" lon="8.0694904"><ele>312.0</ele><time>2026-03-29T11:30:56.126Z</time></trkpt><trkpt lat="45.3985456" lon="8.0694101"><ele>312.0</ele><time>2026-03-29T11:30:57.138Z</time></trkpt><trkpt lat="45.3986038" lon="8.0693137"><ele>312.0</ele><time>2026-03-29T11:30:58.131Z</time></trkpt><trkpt lat="45.3986612" lon="8.0692016"><ele>312.0</ele><time>2026-03-29T11:30:59.147Z</time></trkpt><trkpt lat="45.3987037" lon="8.0690798"><ele>312.0</ele><time>2026-03-29T11:31:00.155Z</time></trkpt><trkpt lat="45.3987372" lon="8.0689547"><ele>312.0</ele><time>2026-03-29T11:31:01.141Z</time></trkpt><trkpt lat="45.3987686" lon="8.0688061"><ele>312.0</ele><time>2026-03-29T11:31:02.174Z</time></trkpt><trkpt lat="45.3987951" lon="8.0686367"><ele>313.8</ele><time>2026-03-29T11:31:03.139Z</time></trkpt><trkpt lat="45.3988179" lon="8.0684648"><ele>315.6</ele><time>2026-03-29T11:31:04.142Z</time></trkpt><trkpt lat="45.3988384" lon="8.0683131"><ele>317.40000000000003</ele><time>2026-03-29T11:31:05.132Z</time></trkpt><trkpt lat="45.3988573" lon="8.068169"><ele>319.2</ele><time>2026-03-29T11:31:06.148Z</time></trkpt><trkpt lat="45.3988779" lon="8.0680405"><ele>321.0</ele><time>2026-03-29T11:31:07.139Z</time></trkpt><trkpt lat="45.3989068" lon="8.0679299"><ele>317.8333333333333</ele><time>2026-03-29T11:31:08.145Z</time></trkpt><trkpt lat="45.3989322" lon="8.0678398"><ele>314.6666666666667</ele><time>2026-03-29T11:31:09.166Z</time></trkpt><trkpt lat="45.3989671" lon="8.0677518"><ele>311.5</ele><time>2026-03-29T11:31:10.136Z</time></trkpt><trkpt lat="45.3990096" lon="8.0676744"><ele>308.33333333333337</ele><time>2026-03-29T11:31:11.136Z</time></trkpt><trkpt lat="45.3990606" lon="8.0676195"><ele>305.1666666666667</ele><time>2026-03-29T11:31:12.126Z</time></trkpt><trkpt lat="45.3991342" lon="8.0675826"><ele>302.0</ele><time>2026-03-29T11:31:13.132Z</time></trkpt><trkpt lat="45.3992512" lon="8.0675427"><ele>302.0</ele><time>2026-03-29T11:31:14.145Z</time></trkpt><trkpt lat="45.3993787" lon="8.0674974"><ele>302.0</ele><time>2026-03-29T11:31:15.132Z</time></trkpt><trkpt lat="45.3994964" lon="8.0674616"><ele>302.0</ele><time>2026-03-29T11:31:16.145Z</time></trkpt><trkpt lat="45.3995875" lon="8.0674352"><ele>302.0</ele><time>2026-03-29T11:31:17.128Z</time></trkpt><trkpt lat="45.3996781" lon="8.0674257"><ele>302.0</ele><time>2026-03-29T11:31:18.127Z</time></trkpt><trkpt lat="45.3997668" lon="8.0674234"><ele>301.0</ele><time>2026-03-29T11:31:19.141Z</time></trkpt><trkpt lat="45.3998605" lon="8.0674174"><ele>300.0</ele><time>2026-03-29T11:31:20.135Z</time></trkpt><trkpt lat="45.3999402" lon="8.0673753"><ele>299.0</ele><time>2026-03-29T11:31:21.145Z</time></trkpt><trkpt lat="45.4000361" lon="8.067301"><ele>298.0</ele><time>2026-03-29T11:31:22.147Z</time></trkpt><trkpt lat="45.4001517" lon="8.0672043"><ele>297.0</ele><time>2026-03-29T11:31:23.133Z</time></trkpt><trkpt lat="45.4002694" lon="8.0671008"><ele>297.0</ele><time>2026-03-29T11:31:24.158Z</time></trkpt><trkpt lat="45.4003817" lon="8.0670138"><ele>297.0</ele><time>2026-03-29T11:31:25.132Z</time></trkpt><trkpt lat="45.4004845" lon="8.0669335"><ele>297.0</ele><time>2026-03-29T11:31:26.137Z</time></trkpt><trkpt lat="45.4005728" lon="8.0668757"><ele>297.0</ele><time>2026-03-29T11:31:27.144Z</time></trkpt><trkpt lat="45.4006395" lon="8.0668276"><ele>297.0</ele><time>2026-03-29T11:31:28.137Z</time></trkpt><trkpt lat="45.4007178" lon="8.0668033"><ele>297.1666666666667</ele><time>2026-03-29T11:31:30.14Z</time></trkpt><trkpt lat="45.4007696" lon="8.0668682"><ele>297.3333333333333</ele><time>2026-03-29T11:31:32.141Z</time></trkpt><trkpt lat="45.4007884" lon="8.0669604"><ele>297.5</ele><time>2026-03-29T11:31:33.134Z</time></trkpt><trkpt lat="45.4008223" lon="8.0670866"><ele>297.66666666666663</ele><time>2026-03-29T11:31:34.133Z</time></trkpt><trkpt lat="45.4008669" lon="8.0671651"><ele>297.8333333333333</ele><time>2026-03-29T11:31:35.149Z</time></trkpt><trkpt lat="45.4009351" lon="8.0672387"><ele>298.0</ele><time>2026-03-29T11:31:36.137Z</time></trkpt><trkpt lat="45.4010128" lon="8.0673025"><ele>298.0</ele><time>2026-03-29T11:31:37.143Z</time></trkpt><trkpt lat="45.4010903" lon="8.0673363"><ele>298.0</ele><time>2026-03-29T11:31:38.147Z</time></trkpt><trkpt lat="45.4011592" lon="8.0673681"><ele>298.0</ele><time>2026-03-29T11:31:39.148Z</time></trkpt><trkpt lat="45.4012224" lon="8.0674225"><ele>298.0</ele><time>2026-03-29T11:31:40.163Z</time></trkpt><trkpt lat="45.4012908" lon="8.0674951"><ele>298.0</ele><time>2026-03-29T11:31:41.147Z</time></trkpt><trkpt lat="45.4013451" lon="8.0675713"><ele>298.0</ele><time>2026-03-29T11:31:42.153Z</time></trkpt><trkpt lat="45.4014036" lon="8.0676779"><ele>298.4</ele><time>2026-03-29T11:31:43.132Z</time></trkpt><trkpt lat="45.4014674" lon="8.0677695"><ele>298.8</ele><time>2026-03-29T11:31:44.127Z</time></trkpt><trkpt lat="45.4015442" lon="8.0678588"><ele>299.2</ele><time>2026-03-29T11:31:45.129Z</time></trkpt><trkpt lat="45.4016158" lon="8.0679516"><ele>299.6</ele><time>2026-03-29T11:31:46.137Z</time></trkpt><trkpt lat="45.4016851" lon="8.0680473"><ele>300.0</ele><time>2026-03-29T11:31:47.129Z</time></trkpt><trkpt lat="45.4017575" lon="8.0681396"><ele>300.0</ele><time>2026-03-29T11:31:48.138Z</time></trkpt><trkpt lat="45.4018341" lon="8.0682343"><ele>300.0</ele><time>2026-03-29T11:31:49.165Z</time></trkpt><trkpt lat="45.4019073" lon="8.0683295"><ele>300.0</ele><time>2026-03-29T11:31:50.135Z</time></trkpt><trkpt lat="45.4019784" lon="8.0684359"><ele>300.0</ele><time>2026-03-29T11:31:51.149Z</time></trkpt><trkpt lat="45.4020391" lon="8.0685443"><ele>300.0</ele><time>2026-03-29T11:31:52.142Z</time></trkpt><trkpt lat="45.4020911" lon="8.0686463"><ele>300.8333333333333</ele><time>2026-03-29T11:31:53.133Z</time></trkpt><trkpt lat="45.4021226" lon="8.0687246"><ele>301.6666666666667</ele><time>2026-03-29T11:31:54.141Z</time></trkpt><trkpt lat="45.4021462" lon="8.0688836"><ele>302.5</ele><time>2026-03-29T11:31:56.154Z</time></trkpt><trkpt lat="45.4021473" lon="8.0689866"><ele>303.33333333333337</ele><time>2026-03-29T11:31:57.146Z</time></trkpt><trkpt lat="45.4021457" lon="8.069106"><ele>304.1666666666667</ele><time>2026-03-29T11:31:58.138Z</time></trkpt><trkpt lat="45.4021304" lon="8.0692327"><ele>305.0</ele><time>2026-03-29T11:31:59.148Z</time></trkpt><trkpt lat="45.4021219" lon="8.0693472"><ele>306.0</ele><time>2026-03-29T11:32:00.145Z</time></trkpt><trkpt lat="45.4021322" lon="8.0694547"><ele>307.0</ele><time>2026-03-29T11:32:01.157Z</time></trkpt><trkpt lat="45.4021666" lon="8.0695522"><ele>308.0</ele><time>2026-03-29T11:32:02.144Z</time></trkpt><trkpt lat="45.402223" lon="8.0696649"><ele>309.0</ele><time>2026-03-29T11:32:03.141Z</time></trkpt><trkpt lat="45.4022975" lon="8.0697864"><ele>310.0</ele><time>2026-03-29T11:32:04.15Z</time></trkpt><trkpt lat="45.4023925" lon="8.0699187"><ele>311.5</ele><time>2026-03-29T11:32:05.152Z</time></trkpt><trkpt lat="45.4024895" lon="8.0700422"><ele>313.0</ele><time>2026-03-29T11:32:06.152Z</time></trkpt><trkpt lat="45.40259" lon="8.0701657"><ele>314.5</ele><time>2026-03-29T11:32:07.13Z</time></trkpt><trkpt lat="45.4026929" lon="8.0702904"><ele>316.0</ele><time>2026-03-29T11:32:08.131Z</time></trkpt><trkpt lat="45.4027939" lon="8.0704105"><ele>316.0</ele><time>2026-03-29T11:32:09.137Z</time></trkpt><trkpt lat="45.4028944" lon="8.0705076"><ele>316.0</ele><time>2026-03-29T11:32:10.139Z</time></trkpt><trkpt lat="45.4029859" lon="8.0705985"><ele>316.0</ele><time>2026-03-29T11:32:11.14Z</time></trkpt><trkpt lat="45.4030796" lon="8.0706827"><ele>316.0</ele><time>2026-03-29T11:32:12.145Z</time></trkpt><trkpt lat="45.4031766" lon="8.0707868"><ele>314.5</ele><time>2026-03-29T11:32:13.139Z</time></trkpt><trkpt lat="45.4032738" lon="8.0709014"><ele>313.0</ele><time>2026-03-29T11:32:14.135Z</time></trkpt><trkpt lat="45.4033777" lon="8.0710311"><ele>311.5</ele><time>2026-03-29T11:32:15.14Z</time></trkpt><trkpt lat="45.4034666" lon="8.0711593"><ele>310.0</ele><time>2026-03-29T11:32:16.153Z</time></trkpt><trkpt lat="45.4035353" lon="8.0712513"><ele>310.0</ele><time>2026-03-29T11:32:17.134Z</time></trkpt><trkpt lat="45.4036017" lon="8.0713309"><ele>310.0</ele><time>2026-03-29T11:32:18.129Z</time></trkpt><trkpt lat="45.4036683" lon="8.0713907"><ele>310.0</ele><time>2026-03-29T11:32:19.128Z</time></trkpt><trkpt lat="45.4037454" lon="8.0714211"><ele>310.0</ele><time>2026-03-29T11:32:20.138Z</time></trkpt><trkpt lat="45.4038282" lon="8.0714278"><ele>310.0</ele><time>2026-03-29T11:32:21.143Z</time></trkpt><trkpt lat="45.4039056" lon="8.0714331"><ele>310.0</ele><time>2026-03-29T11:32:22.136Z</time></trkpt><trkpt lat="45.4039807" lon="8.0714327"><ele>309.5</ele><time>2026-03-29T11:32:24.142Z</time></trkpt><trkpt lat="45.4040576" lon="8.0714753"><ele>309.0</ele><time>2026-03-29T11:32:34.15Z</time></trkpt><trkpt lat="45.4041195" lon="8.0715144"><ele>308.5</ele><time>2026-03-29T11:32:35.136Z</time></trkpt><trkpt lat="45.404194" lon="8.0715813"><ele>308.0</ele><time>2026-03-29T11:32:36.137Z</time></trkpt><trkpt lat="45.4042523" lon="8.0716384"><ele>307.5</ele><time>2026-03-29T11:32:37.14Z</time></trkpt><trkpt lat="45.4043147" lon="8.0716906"><ele>307.0</ele><time>2026-03-29T11:32:39.15Z</time></trkpt><trkpt lat="45.4043661" lon="8.0718034"><ele>306.99999999999994</ele><time>2026-03-29T11:33:51.136Z</time></trkpt><trkpt lat="45.4043838" lon="8.0718982"><ele>307.0</ele><time>2026-03-29T11:33:52.135Z</time></trkpt><trkpt lat="45.4043996" lon="8.0719936"><ele>307.0</ele><time>2026-03-29T11:33:53.127Z</time></trkpt><trkpt lat="45.4044381" lon="8.0720982"><ele>307.0</ele><time>2026-03-29T11:33:54.134Z</time></trkpt><trkpt lat="45.4044692" lon="8.0721794"><ele>307.0</ele><time>2026-03-29T11:33:55.137Z</time></trkpt><trkpt lat="45.4045091" lon="8.0722572"><ele>306.99999999999994</ele><time>2026-03-29T11:33:56.141Z</time></trkpt><trkpt lat="45.4045571" lon="8.0723208"><ele>307.0</ele><time>2026-03-29T11:33:57.135Z</time></trkpt><trkpt lat="45.4046121" lon="8.0723911"><ele>307.71428571428567</ele><time>2026-03-29T11:33:58.134Z</time></trkpt><trkpt lat="45.4046663" lon="8.0724562"><ele>308.42857142857144</ele><time>2026-03-29T11:33:59.148Z</time></trkpt><trkpt lat="45.4047209" lon="8.0725216"><ele>309.1428571428571</ele><time>2026-03-29T11:34:00.138Z</time></trkpt><trkpt lat="45.4047698" lon="8.0725885"><ele>309.85714285714283</ele><time>2026-03-29T11:34:01.143Z</time></trkpt><trkpt lat="45.4048106" lon="8.0726648"><ele>310.57142857142856</ele><time>2026-03-29T11:34:02.139Z</time></trkpt><trkpt lat="45.4048489" lon="8.0727501"><ele>311.2857142857143</ele><time>2026-03-29T11:34:03.133Z</time></trkpt><trkpt lat="45.4048717" lon="8.0728404"><ele>312.0</ele><time>2026-03-29T11:34:04.129Z</time></trkpt><trkpt lat="45.4049019" lon="8.0729417"><ele>312.0</ele><time>2026-03-29T11:34:05.138Z</time></trkpt><trkpt lat="45.4049309" lon="8.0730536"><ele>312.0</ele><time>2026-03-29T11:34:06.141Z</time></trkpt><trkpt lat="45.4049562" lon="8.0731884"><ele>312.0</ele><time>2026-03-29T11:34:07.149Z</time></trkpt><trkpt lat="45.4049849" lon="8.0733192"><ele>312.0</ele><time>2026-03-29T11:34:08.16Z</time></trkpt><trkpt lat="45.4050124" lon="8.0734542"><ele>312.0</ele><time>2026-03-29T11:34:09.147Z</time></trkpt><trkpt lat="45.4050483" lon="8.0735891"><ele>313.2</ele><time>2026-03-29T11:34:10.136Z</time></trkpt><trkpt lat="45.4050871" lon="8.0737262"><ele>314.4</ele><time>2026-03-29T11:34:11.14Z</time></trkpt><trkpt lat="45.4051331" lon="8.0738564"><ele>315.6</ele><time>2026-03-29T11:34:12.169Z</time></trkpt><trkpt lat="45.4051859" lon="8.0739852"><ele>316.8</ele><time>2026-03-29T11:34:13.145Z</time></trkpt><trkpt lat="45.4052319" lon="8.0741025"><ele>318.0</ele><time>2026-03-29T11:34:14.151Z</time></trkpt><trkpt lat="45.4052812" lon="8.0742225"><ele>316.25</ele><time>2026-03-29T11:34:15.14Z</time></trkpt><trkpt lat="45.4053344" lon="8.0743523"><ele>314.5</ele><time>2026-03-29T11:34:16.14Z</time></trkpt><trkpt lat="45.4053954" lon="8.0745053"><ele>312.75</ele><time>2026-03-29T11:34:17.141Z</time></trkpt><trkpt lat="45.405469" lon="8.0746653"><ele>311.0</ele><time>2026-03-29T11:34:18.139Z</time></trkpt><trkpt lat="45.4055448" lon="8.0748343"><ele>310.5</ele><time>2026-03-29T11:34:19.125Z</time></trkpt><trkpt lat="45.405604" lon="8.0750083"><ele>310.0</ele><time>2026-03-29T11:34:20.16Z</time></trkpt><trkpt lat="45.4056648" lon="8.0751827"><ele>309.5</ele><time>2026-03-29T11:34:21.137Z</time></trkpt><trkpt lat="45.4057258" lon="8.0753527"><ele>309.0</ele><time>2026-03-29T11:34:22.136Z</time></trkpt><trkpt lat="45.4057918" lon="8.0754995"><ele>309.0</ele><time>2026-03-29T11:34:23.138Z</time></trkpt><trkpt lat="45.4058655" lon="8.0756282"><ele>309.0</ele><time>2026-03-29T11:34:24.141Z</time></trkpt><trkpt lat="45.4059364" lon="8.0757413"><ele>309.0</ele><time>2026-03-29T11:34:25.145Z</time></trkpt><trkpt lat="45.4060142" lon="8.0758314"><ele>309.0</ele><time>2026-03-29T11:34:26.165Z</time></trkpt><trkpt lat="45.4060872" lon="8.0759131"><ele>309.0</ele><time>2026-03-29T11:34:27.126Z</time></trkpt><trkpt lat="45.4061501" lon="8.0760009"><ele>309.0</ele><time>2026-03-29T11:34:28.136Z</time></trkpt><trkpt lat="45.406209" lon="8.0760944"><ele>309.0</ele><time>2026-03-29T11:34:29.13Z</time></trkpt><trkpt lat="45.4062564" lon="8.0761972"><ele>309.0</ele><time>2026-03-29T11:34:30.124Z</time></trkpt><trkpt lat="45.4062704" lon="8.0763311"><ele>309.0</ele><time>2026-03-29T11:34:31.132Z</time></trkpt><trkpt lat="45.4062811" lon="8.0764941"><ele>309.0</ele><time>2026-03-29T11:34:32.145Z</time></trkpt><trkpt lat="45.4062814" lon="8.0766825"><ele>310.0</ele><time>2026-03-29T11:34:33.135Z</time></trkpt><trkpt lat="45.406279" lon="8.0768682"><ele>311.0</ele><time>2026-03-29T11:34:34.131Z</time></trkpt><trkpt lat="45.4062782" lon="8.0770359"><ele>312.0</ele><time>2026-03-29T11:34:35.129Z</time></trkpt><trkpt lat="45.4062887" lon="8.0772009"><ele>313.0</ele><time>2026-03-29T11:34:36.136Z</time></trkpt><trkpt lat="45.4063014" lon="8.0773674"><ele>312.5</ele><time>2026-03-29T11:34:37.133Z</time></trkpt><trkpt lat="45.4063222" lon="8.0775282"><ele>312.0</ele><time>2026-03-29T11:34:38.121Z</time></trkpt><trkpt lat="45.4063369" lon="8.0776957"><ele>311.5</ele><time>2026-03-29T11:34:39.135Z</time></trkpt><trkpt lat="45.4063364" lon="8.0778595"><ele>311.0</ele><time>2026-03-29T11:34:40.136Z</time></trkpt><trkpt lat="45.4063344" lon="8.0780179"><ele>311.0</ele><time>2026-03-29T11:34:41.159Z</time></trkpt><trkpt lat="45.4063123" lon="8.0781623"><ele>311.0</ele><time>2026-03-29T11:34:42.131Z</time></trkpt><trkpt lat="45.4062626" lon="8.0783069"><ele>311.0</ele><time>2026-03-29T11:34:43.134Z</time></trkpt><trkpt lat="45.4062146" lon="8.0784458"><ele>311.0</ele><time>2026-03-29T11:34:44.137Z</time></trkpt><trkpt lat="45.4061633" lon="8.0785932"><ele>311.0</ele><time>2026-03-29T11:34:45.133Z</time></trkpt><trkpt lat="45.4061189" lon="8.0787576"><ele>308.5</ele><time>2026-03-29T11:34:46.146Z</time></trkpt><trkpt lat="45.4061009" lon="8.0789213"><ele>306.0</ele><time>2026-03-29T11:34:47.153Z</time></trkpt><trkpt lat="45.4061012" lon="8.0790894"><ele>303.5</ele><time>2026-03-29T11:34:48.132Z</time></trkpt><trkpt lat="45.4061172" lon="8.0792535"><ele>301.0</ele><time>2026-03-29T11:34:49.148Z</time></trkpt><trkpt lat="45.406119" lon="8.0794196"><ele>299.5</ele><time>2026-03-29T11:34:50.141Z</time></trkpt><trkpt lat="45.4061155" lon="8.0795941"><ele>298.0</ele><time>2026-03-29T11:34:51.139Z</time></trkpt><trkpt lat="45.406095" lon="8.0797596"><ele>296.5</ele><time>2026-03-29T11:34:52.161Z</time></trkpt><trkpt lat="45.4060757" lon="8.0799249"><ele>295.0</ele><time>2026-03-29T11:34:53.131Z</time></trkpt><trkpt lat="45.4060523" lon="8.0800843"><ele>294.5</ele><time>2026-03-29T11:34:54.15Z</time></trkpt><trkpt lat="45.4060332" lon="8.0802541"><ele>294.0</ele><time>2026-03-29T11:34:55.136Z</time></trkpt><trkpt lat="45.4060131" lon="8.0804297"><ele>293.5</ele><time>2026-03-29T11:34:56.144Z</time></trkpt><trkpt lat="45.4059872" lon="8.0805845"><ele>293.0</ele><time>2026-03-29T11:34:57.142Z</time></trkpt><trkpt lat="45.4059715" lon="8.0807457"><ele>292.8</ele><time>2026-03-29T11:34:58.137Z</time></trkpt><trkpt lat="45.4059683" lon="8.0809123"><ele>292.6</ele><time>2026-03-29T11:34:59.14Z</time></trkpt><trkpt lat="45.4059773" lon="8.0810788"><ele>292.4</ele><time>2026-03-29T11:35:00.14Z</time></trkpt><trkpt lat="45.4059911" lon="8.0812184"><ele>292.2</ele><time>2026-03-29T11:35:01.127Z</time></trkpt><trkpt lat="45.4060129" lon="8.0813461"><ele>292.0</ele><time>2026-03-29T11:35:02.166Z</time></trkpt><trkpt lat="45.4060413" lon="8.0814548"><ele>292.0</ele><time>2026-03-29T11:35:03.132Z</time></trkpt><trkpt lat="45.4060925" lon="8.0815772"><ele>292.0</ele><time>2026-03-29T11:35:04.134Z</time></trkpt><trkpt lat="45.40616" lon="8.081702"><ele>292.0</ele><time>2026-03-29T11:35:05.137Z</time></trkpt><trkpt lat="45.4062371" lon="8.081842"><ele>292.0</ele><time>2026-03-29T11:35:06.144Z</time></trkpt><trkpt lat="45.4063072" lon="8.0819911"><ele>291.5</ele><time>2026-03-29T11:35:07.163Z</time></trkpt><trkpt lat="45.4063812" lon="8.0821324"><ele>291.0</ele><time>2026-03-29T11:35:08.137Z</time></trkpt><trkpt lat="45.4064592" lon="8.0822686"><ele>290.5</ele><time>2026-03-29T11:35:09.149Z</time></trkpt><trkpt lat="45.4065373" lon="8.0823913"><ele>290.0</ele><time>2026-03-29T11:35:10.141Z</time></trkpt><trkpt lat="45.4066116" lon="8.0824998"><ele>289.6666666666667</ele><time>2026-03-29T11:35:11.148Z</time></trkpt><trkpt lat="45.4066775" lon="8.0825853"><ele>289.33333333333337</ele><time>2026-03-29T11:35:12.146Z</time></trkpt><trkpt lat="45.4067313" lon="8.0826588"><ele>289.0</ele><time>2026-03-29T11:35:13.127Z</time></trkpt><trkpt lat="45.4067859" lon="8.0827219"><ele>288.6666666666667</ele><time>2026-03-29T11:35:15.149Z</time></trkpt><trkpt lat="45.4068535" lon="8.0827605"><ele>288.3333333333333</ele><time>2026-03-29T11:35:22.141Z</time></trkpt><trkpt lat="45.4069528" lon="8.0826583"><ele>288.0</ele><time>2026-03-29T11:35:24.17Z</time></trkpt><trkpt lat="45.4070027" lon="8.0825511"><ele>288.0</ele><time>2026-03-29T11:35:25.142Z</time></trkpt><trkpt lat="45.4070389" lon="8.0824328"><ele>288.0</ele><time>2026-03-29T11:35:26.128Z</time></trkpt><trkpt lat="45.4070891" lon="8.0823013"><ele>288.0</ele><time>2026-03-29T11:35:27.138Z</time></trkpt><trkpt lat="45.4071489" lon="8.0821728"><ele>288.0</ele><time>2026-03-29T11:35:28.14Z</time></trkpt><trkpt lat="45.4072098" lon="8.0820382"><ele>288.0</ele><time>2026-03-29T11:35:29.149Z</time></trkpt><trkpt lat="45.4072802" lon="8.0818972"><ele>288.5</ele><time>2026-03-29T11:35:30.154Z</time></trkpt><trkpt lat="45.4073574" lon="8.0817509"><ele>289.0</ele><time>2026-03-29T11:35:31.146Z</time></trkpt><trkpt lat="45.407437" lon="8.0815987"><ele>289.5</ele><time>2026-03-29T11:35:32.151Z</time></trkpt><trkpt lat="45.4075228" lon="8.0814391"><ele>290.0</ele><time>2026-03-29T11:35:33.14Z</time></trkpt><trkpt lat="45.4076157" lon="8.0812788"><ele>290.25</ele><time>2026-03-29T11:35:34.154Z</time></trkpt><trkpt lat="45.4077021" lon="8.0811119"><ele>290.5</ele><time>2026-03-29T11:35:35.167Z</time></trkpt><trkpt lat="45.4077927" lon="8.080943"><ele>290.75</ele><time>2026-03-29T11:35:36.146Z</time></trkpt><trkpt lat="45.4078815" lon="8.0807785"><ele>291.0</ele><time>2026-03-29T11:35:37.134Z</time></trkpt><trkpt lat="45.4079714" lon="8.0806131"><ele>294.3333333333333</ele><time>2026-03-29T11:35:38.138Z</time></trkpt><trkpt lat="45.408063" lon="8.0804448"><ele>297.66666666666663</ele><time>2026-03-29T11:35:39.144Z</time></trkpt><trkpt lat="45.4081563" lon="8.0802739"><ele>301.0</ele><time>2026-03-29T11:35:40.136Z</time></trkpt><trkpt lat="45.4082424" lon="8.0800962"><ele>303.0</ele><time>2026-03-29T11:35:41.14Z</time></trkpt><trkpt lat="45.4083316" lon="8.0799118"><ele>305.0</ele><time>2026-03-29T11:35:42.136Z</time></trkpt><trkpt lat="45.4084213" lon="8.0797369"><ele>307.0</ele><time>2026-03-29T11:35:43.145Z</time></trkpt><trkpt lat="45.4085193" lon="8.0795657"><ele>307.0</ele><time>2026-03-29T11:35:44.152Z</time></trkpt><trkpt lat="45.4086173" lon="8.0793949"><ele>307.0</ele><time>2026-03-29T11:35:45.135Z</time></trkpt><trkpt lat="45.4087136" lon="8.0792226"><ele>307.0</ele><time>2026-03-29T11:35:46.13Z</time></trkpt><trkpt lat="45.4088114" lon="8.079058"><ele>307.75</ele><time>2026-03-29T11:35:47.137Z</time></trkpt><trkpt lat="45.4089069" lon="8.0788946"><ele>308.5</ele><time>2026-03-29T11:35:48.132Z</time></trkpt><trkpt lat="45.4089868" lon="8.0787207"><ele>309.25</ele><time>2026-03-29T11:35:49.138Z</time></trkpt><trkpt lat="45.4090837" lon="8.078554"><ele>310.0</ele><time>2026-03-29T11:35:50.144Z</time></trkpt><trkpt lat="45.4091794" lon="8.0783827"><ele>308.75</ele><time>2026-03-29T11:35:51.147Z</time></trkpt><trkpt lat="45.4092718" lon="8.0782124"><ele>307.5</ele><time>2026-03-29T11:35:52.161Z</time></trkpt><trkpt lat="45.4093688" lon="8.0780604"><ele>306.25</ele><time>2026-03-29T11:35:53.131Z</time></trkpt><trkpt lat="45.4094679" lon="8.0779202"><ele>305.0</ele><time>2026-03-29T11:35:54.138Z</time></trkpt><trkpt lat="45.4095707" lon="8.0777726"><ele>305.6666666666667</ele><time>2026-03-29T11:35:55.135Z</time></trkpt><trkpt lat="45.4096795" lon="8.0776282"><ele>306.3333333333333</ele><time>2026-03-29T11:35:56.137Z</time></trkpt><trkpt lat="45.4097952" lon="8.0774816"><ele>307.0</ele><time>2026-03-29T11:35:57.133Z</time></trkpt><trkpt lat="45.4099083" lon="8.0773359"><ele>303.0</ele><time>2026-03-29T11:35:58.163Z</time></trkpt><trkpt lat="45.4100287" lon="8.077196"><ele>299.0</ele><time>2026-03-29T11:35:59.117Z</time></trkpt><trkpt lat="45.4101475" lon="8.0770565"><ele>295.0</ele><time>2026-03-29T11:36:00.131Z</time></trkpt><trkpt lat="45.4102643" lon="8.0769193"><ele>295.0</ele><time>2026-03-29T11:36:01.135Z</time></trkpt><trkpt lat="45.4103786" lon="8.0767799"><ele>295.0</ele><time>2026-03-29T11:36:02.13Z</time></trkpt><trkpt lat="45.4104965" lon="8.0766406"><ele>295.0</ele><time>2026-03-29T11:36:03.131Z</time></trkpt><trkpt lat="45.4106077" lon="8.0765048"><ele>294.5</ele><time>2026-03-29T11:36:04.129Z</time></trkpt><trkpt lat="45.4107179" lon="8.0763756"><ele>294.0</ele><time>2026-03-29T11:36:05.126Z</time></trkpt><trkpt lat="45.4108267" lon="8.076255"><ele>293.5</ele><time>2026-03-29T11:36:06.131Z</time></trkpt><trkpt lat="45.4109368" lon="8.0761249"><ele>293.0</ele><time>2026-03-29T11:36:07.133Z</time></trkpt><trkpt lat="45.4110456" lon="8.0759982"><ele>293.0</ele><time>2026-03-29T11:36:08.146Z</time></trkpt><trkpt lat="45.4111476" lon="8.075881"><ele>293.0</ele><time>2026-03-29T11:36:09.141Z</time></trkpt><trkpt lat="45.4112482" lon="8.0757602"><ele>293.0</ele><time>2026-03-29T11:36:10.148Z</time></trkpt><trkpt lat="45.4113525" lon="8.0756376"><ele>293.0</ele><time>2026-03-29T11:36:11.125Z</time></trkpt><trkpt lat="45.4114572" lon="8.0755025"><ele>293.0</ele><time>2026-03-29T11:36:12.129Z</time></trkpt><trkpt lat="45.4115602" lon="8.0753659"><ele>293.0</ele><time>2026-03-29T11:36:13.144Z</time></trkpt><trkpt lat="45.4116556" lon="8.0752208"><ele>293.0</ele><time>2026-03-29T11:36:14.143Z</time></trkpt><trkpt lat="45.4117403" lon="8.0750686"><ele>293.0</ele><time>2026-03-29T11:36:15.144Z</time></trkpt><trkpt lat="45.4118173" lon="8.074934"><ele>293.0</ele><time>2026-03-29T11:36:16.16Z</time></trkpt><trkpt lat="45.4118916" lon="8.0748149"><ele>293.0</ele><time>2026-03-29T11:36:17.131Z</time></trkpt><trkpt lat="45.4119673" lon="8.0747113"><ele>293.0</ele><time>2026-03-29T11:36:18.155Z</time></trkpt><trkpt lat="45.4120381" lon="8.074636"><ele>293.0</ele><time>2026-03-29T11:36:19.16Z</time></trkpt><trkpt lat="45.4121039" lon="8.0745801"><ele>293.0</ele><time>2026-03-29T11:36:20.154Z</time></trkpt><trkpt lat="45.4121736" lon="8.0745306"><ele>294.0</ele><time>2026-03-29T11:36:21.16Z</time></trkpt><trkpt lat="45.4122614" lon="8.0744743"><ele>295.0</ele><time>2026-03-29T11:36:22.136Z</time></trkpt><trkpt lat="45.4123613" lon="8.0744058"><ele>296.0</ele><time>2026-03-29T11:36:23.148Z</time></trkpt><trkpt lat="45.4124711" lon="8.0743401"><ele>297.0</ele><time>2026-03-29T11:36:24.133Z</time></trkpt><trkpt lat="45.4125904" lon="8.0742809"><ele>297.0</ele><time>2026-03-29T11:36:25.125Z</time></trkpt><trkpt lat="45.412716" lon="8.0742237"><ele>297.0</ele><time>2026-03-29T11:36:26.122Z</time></trkpt><trkpt lat="45.4128436" lon="8.0741649"><ele>297.0</ele><time>2026-03-29T11:36:27.123Z</time></trkpt><trkpt lat="45.4129817" lon="8.0741069"><ele>297.0</ele><time>2026-03-29T11:36:28.163Z</time></trkpt><trkpt lat="45.413115" lon="8.0740427"><ele>295.75</ele><time>2026-03-29T11:36:29.149Z</time></trkpt><trkpt lat="45.4132555" lon="8.0739788"><ele>294.5</ele><time>2026-03-29T11:36:30.133Z</time></trkpt><trkpt lat="45.413394" lon="8.0739183"><ele>293.25</ele><time>2026-03-29T11:36:31.144Z</time></trkpt><trkpt lat="45.4135438" lon="8.0738521"><ele>292.0</ele><time>2026-03-29T11:36:32.14Z</time></trkpt><trkpt lat="45.4136967" lon="8.0737771"><ele>293.0</ele><time>2026-03-29T11:36:33.141Z</time></trkpt><trkpt lat="45.4138585" lon="8.0736946"><ele>294.0</ele><time>2026-03-29T11:36:34.137Z</time></trkpt><trkpt lat="45.414029" lon="8.0736165"><ele>295.0</ele><time>2026-03-29T11:36:35.137Z</time></trkpt><trkpt lat="45.4142007" lon="8.0735431"><ele>295.0</ele><time>2026-03-29T11:36:36.145Z</time></trkpt><trkpt lat="45.4143679" lon="8.0734659"><ele>295.0</ele><time>2026-03-29T11:36:37.143Z</time></trkpt><trkpt lat="45.414538" lon="8.0733869"><ele>295.0</ele><time>2026-03-29T11:36:38.13Z</time></trkpt><trkpt lat="45.4147069" lon="8.0733118"><ele>295.66666666666663</ele><time>2026-03-29T11:36:39.136Z</time></trkpt><trkpt lat="45.4148794" lon="8.0732382"><ele>296.3333333333333</ele><time>2026-03-29T11:36:40.156Z</time></trkpt><trkpt lat="45.4150507" lon="8.0731637"><ele>297.0</ele><time>2026-03-29T11:36:41.162Z</time></trkpt><trkpt lat="45.4152181" lon="8.0730885"><ele>297.0</ele><time>2026-03-29T11:36:42.152Z</time></trkpt><trkpt lat="45.4153851" lon="8.0730129"><ele>297.0</ele><time>2026-03-29T11:36:43.145Z</time></trkpt><trkpt lat="45.4155571" lon="8.0729367"><ele>297.0</ele><time>2026-03-29T11:36:44.125Z</time></trkpt><trkpt lat="45.4157347" lon="8.0728533"><ele>296.6666666666667</ele><time>2026-03-29T11:36:45.125Z</time></trkpt><trkpt lat="45.4159146" lon="8.0727714"><ele>296.33333333333337</ele><time>2026-03-29T11:36:46.139Z</time></trkpt><trkpt lat="45.4160959" lon="8.0726977"><ele>296.0</ele><time>2026-03-29T11:36:47.14Z</time></trkpt><trkpt lat="45.4162725" lon="8.0726189"><ele>296.0</ele><time>2026-03-29T11:36:48.139Z</time></trkpt><trkpt lat="45.4164522" lon="8.0725454"><ele>296.0</ele><time>2026-03-29T11:36:49.138Z</time></trkpt><trkpt lat="45.4166275" lon="8.0724653"><ele>296.0</ele><time>2026-03-29T11:36:50.149Z</time></trkpt><trkpt lat="45.4167984" lon="8.0723878"><ele>296.0</ele><time>2026-03-29T11:36:51.142Z</time></trkpt><trkpt lat="45.4169677" lon="8.072307"><ele>296.0</ele><time>2026-03-29T11:36:52.165Z</time></trkpt><trkpt lat="45.417131" lon="8.0722332"><ele>296.0</ele><time>2026-03-29T11:36:53.139Z</time></trkpt><trkpt lat="45.4172858" lon="8.0721653"><ele>296.33333333333337</ele><time>2026-03-29T11:36:54.147Z</time></trkpt><trkpt lat="45.4174424" lon="8.0721049"><ele>296.6666666666667</ele><time>2026-03-29T11:36:55.143Z</time></trkpt><trkpt lat="45.417599" lon="8.0720359"><ele>297.0</ele><time>2026-03-29T11:36:56.141Z</time></trkpt><trkpt lat="45.4177527" lon="8.0719646"><ele>297.0</ele><time>2026-03-29T11:36:57.137Z</time></trkpt><trkpt lat="45.4179034" lon="8.0718986"><ele>297.0</ele><time>2026-03-29T11:36:58.134Z</time></trkpt><trkpt lat="45.4180514" lon="8.0718295"><ele>297.0</ele><time>2026-03-29T11:36:59.146Z</time></trkpt><trkpt lat="45.4181967" lon="8.0717477"><ele>298.0</ele><time>2026-03-29T11:37:00.141Z</time></trkpt><trkpt lat="45.4183342" lon="8.0716334"><ele>299.0</ele><time>2026-03-29T11:37:01.132Z</time></trkpt><trkpt lat="45.4184606" lon="8.0714992"><ele>300.0</ele><time>2026-03-29T11:37:02.132Z</time></trkpt><trkpt lat="45.4185768" lon="8.0713439"><ele>300.0</ele><time>2026-03-29T11:37:03.137Z</time></trkpt><trkpt lat="45.4186906" lon="8.0711891"><ele>300.0</ele><time>2026-03-29T11:37:04.131Z</time></trkpt><trkpt lat="45.4187998" lon="8.0710419"><ele>300.0</ele><time>2026-03-29T11:37:05.145Z</time></trkpt><trkpt lat="45.4188986" lon="8.0708951"><ele>301.5</ele><time>2026-03-29T11:37:06.148Z</time></trkpt><trkpt lat="45.418986" lon="8.0707663"><ele>303.0</ele><time>2026-03-29T11:37:07.13Z</time></trkpt><trkpt lat="45.4190692" lon="8.0706326"><ele>304.5</ele><time>2026-03-29T11:37:08.131Z</time></trkpt><trkpt lat="45.4191486" lon="8.0705023"><ele>306.0</ele><time>2026-03-29T11:37:09.127Z</time></trkpt><trkpt lat="45.4192307" lon="8.0703727"><ele>306.0</ele><time>2026-03-29T11:37:10.139Z</time></trkpt><trkpt lat="45.4193163" lon="8.0702519"><ele>306.0</ele><time>2026-03-29T11:37:11.138Z</time></trkpt><trkpt lat="45.4193952" lon="8.0701592"><ele>306.0</ele><time>2026-03-29T11:37:12.141Z</time></trkpt><trkpt lat="45.4194759" lon="8.0700741"><ele>306.0</ele><time>2026-03-29T11:37:13.137Z</time></trkpt><trkpt lat="45.4195612" lon="8.0699887"><ele>306.0</ele><time>2026-03-29T11:37:14.143Z</time></trkpt><trkpt lat="45.419652" lon="8.0699238"><ele>306.6</ele><time>2026-03-29T11:37:15.136Z</time></trkpt><trkpt lat="45.4197354" lon="8.0698698"><ele>307.20000000000005</ele><time>2026-03-29T11:37:16.138Z</time></trkpt><trkpt lat="45.4198071" lon="8.0698232"><ele>307.79999999999995</ele><time>2026-03-29T11:37:17.133Z</time></trkpt><trkpt lat="45.4198658" lon="8.0697847"><ele>308.4</ele><time>2026-03-29T11:37:18.133Z</time></trkpt><trkpt lat="45.4199714" lon="8.0697012"><ele>309.0</ele><time>2026-03-29T11:37:20.14Z</time></trkpt><trkpt lat="45.4200984" lon="8.0696368"><ele>309.0</ele><time>2026-03-29T11:37:22.137Z</time></trkpt><trkpt lat="45.4201735" lon="8.0695867"><ele>309.0</ele><time>2026-03-29T11:37:23.162Z</time></trkpt><trkpt lat="45.4202441" lon="8.0695449"><ele>309.0</ele><time>2026-03-29T11:37:24.128Z</time></trkpt><trkpt lat="45.4203443" lon="8.0695009"><ele>309.0</ele><time>2026-03-29T11:37:26.142Z</time></trkpt><trkpt lat="45.4204077" lon="8.0695439"><ele>309.0</ele><time>2026-03-29T11:37:29.129Z</time></trkpt><trkpt lat="45.4204263" lon="8.0696807"><ele>309.0</ele><time>2026-03-29T11:37:31.125Z</time></trkpt><trkpt lat="45.4204197" lon="8.0697721"><ele>309.0</ele><time>2026-03-29T11:37:32.13Z</time></trkpt><trkpt lat="45.4204166" lon="8.069865"><ele>309.0</ele><time>2026-03-29T11:37:33.134Z</time></trkpt><trkpt lat="45.4204142" lon="8.0699626"><ele>309.0</ele><time>2026-03-29T11:37:34.133Z</time></trkpt><trkpt lat="45.4204045" lon="8.0701112"><ele>309.0</ele><time>2026-03-29T11:37:36.148Z</time></trkpt><trkpt lat="45.4203693" lon="8.0702384"><ele>309.0</ele><time>2026-03-29T11:37:38.139Z</time></trkpt><trkpt lat="45.4203797" lon="8.0703798"><ele>309.0</ele><time>2026-03-29T11:37:40.148Z</time></trkpt><trkpt lat="45.4204428" lon="8.0704391"><ele>309.5</ele><time>2026-03-29T11:37:41.139Z</time></trkpt><trkpt lat="45.4205212" lon="8.0704714"><ele>310.0</ele><time>2026-03-29T11:37:42.123Z</time></trkpt><trkpt lat="45.4205885" lon="8.0704941"><ele>310.5</ele><time>2026-03-29T11:37:43.133Z</time></trkpt><trkpt lat="45.4206536" lon="8.0705044"><ele>311.0</ele><time>2026-03-29T11:37:44.13Z</time></trkpt><trkpt lat="45.4207852" lon="8.0705621"><ele>311.5</ele><time>2026-03-29T11:37:46.135Z</time></trkpt><trkpt lat="45.4208553" lon="8.0705931"><ele>312.0</ele><time>2026-03-29T11:37:47.138Z</time></trkpt><trkpt lat="45.4209305" lon="8.0706009"><ele>312.0</ele><time>2026-03-29T11:37:48.143Z</time></trkpt><trkpt lat="45.4210013" lon="8.07062"><ele>312.0</ele><time>2026-03-29T11:37:49.122Z</time></trkpt><trkpt lat="45.4210767" lon="8.0706402"><ele>312.0</ele><time>2026-03-29T11:37:50.159Z</time></trkpt><trkpt lat="45.4211461" lon="8.0706621"><ele>312.0</ele><time>2026-03-29T11:37:51.138Z</time></trkpt><trkpt lat="45.4212139" lon="8.0706927"><ele>312.0</ele><time>2026-03-29T11:37:52.123Z</time></trkpt><trkpt lat="45.4212782" lon="8.0707313"><ele>312.0</ele><time>2026-03-29T11:37:53.146Z</time></trkpt><trkpt lat="45.4213517" lon="8.0708815"><ele>312.1666666666667</ele><time>2026-03-29T11:37:55.131Z</time></trkpt><trkpt lat="45.4213703" lon="8.0709781"><ele>312.3333333333333</ele><time>2026-03-29T11:37:56.15Z</time></trkpt><trkpt lat="45.4213743" lon="8.0710704"><ele>312.5</ele><time>2026-03-29T11:37:57.135Z</time></trkpt><trkpt lat="45.421368" lon="8.071225"><ele>312.66666666666663</ele><time>2026-03-29T11:37:59.13Z</time></trkpt><trkpt lat="45.4213284" lon="8.0713787"><ele>312.8333333333333</ele><time>2026-03-29T11:38:01.142Z</time></trkpt><trkpt lat="45.4213074" lon="8.0714729"><ele>313.0</ele><time>2026-03-29T11:38:02.133Z</time></trkpt><trkpt lat="45.4212922" lon="8.0715868"><ele>312.3333333333333</ele><time>2026-03-29T11:38:03.139Z</time></trkpt><trkpt lat="45.4212777" lon="8.0716847"><ele>311.66666666666663</ele><time>2026-03-29T11:38:04.128Z</time></trkpt><trkpt lat="45.4212707" lon="8.0717956"><ele>311.0</ele><time>2026-03-29T11:38:05.135Z</time></trkpt><trkpt lat="45.4212719" lon="8.0719273"><ele>310.3333333333333</ele><time>2026-03-29T11:38:06.144Z</time></trkpt><trkpt lat="45.4212721" lon="8.0720687"><ele>309.6666666666667</ele><time>2026-03-29T11:38:07.141Z</time></trkpt><trkpt lat="45.4212737" lon="8.0722073"><ele>309.0</ele><time>2026-03-29T11:38:08.137Z</time></trkpt><trkpt lat="45.4212727" lon="8.0723368"><ele>309.6666666666667</ele><time>2026-03-29T11:38:09.124Z</time></trkpt><trkpt lat="45.4212615" lon="8.0724616"><ele>310.3333333333333</ele><time>2026-03-29T11:38:10.132Z</time></trkpt><trkpt lat="45.4212466" lon="8.0725972"><ele>311.0</ele><time>2026-03-29T11:38:11.134Z</time></trkpt><trkpt lat="45.4211996" lon="8.0727092"><ele>311.66666666666663</ele><time>2026-03-29T11:38:12.135Z</time></trkpt><trkpt lat="45.4211469" lon="8.0728026"><ele>312.3333333333333</ele><time>2026-03-29T11:38:13.144Z</time></trkpt><trkpt lat="45.4210935" lon="8.0728861"><ele>313.0</ele><time>2026-03-29T11:38:14.132Z</time></trkpt><trkpt lat="45.4210555" lon="8.0729975"><ele>313.0</ele><time>2026-03-29T11:38:16.148Z</time></trkpt><trkpt lat="45.4211806" lon="8.0730479"><ele>313.0</ele><time>2026-03-29T11:38:19.143Z</time></trkpt><trkpt lat="45.4212699" lon="8.073068"><ele>313.0</ele><time>2026-03-29T11:38:20.122Z</time></trkpt><trkpt lat="45.421343" lon="8.07311"><ele>313.0</ele><time>2026-03-29T11:38:21.123Z</time></trkpt><trkpt lat="45.4214045" lon="8.0731758"><ele>313.0</ele><time>2026-03-29T11:38:22.146Z</time></trkpt><trkpt lat="45.4214543" lon="8.0732848"><ele>318.8</ele><time>2026-03-29T11:38:23.127Z</time></trkpt><trkpt lat="45.4214666" lon="8.073406"><ele>324.6</ele><time>2026-03-29T11:38:24.131Z</time></trkpt><trkpt lat="45.4214597" lon="8.0735283"><ele>330.40000000000003</ele><time>2026-03-29T11:38:25.136Z</time></trkpt><trkpt lat="45.4214431" lon="8.0736662"><ele>336.20000000000005</ele><time>2026-03-29T11:38:26.128Z</time></trkpt><trkpt lat="45.4214147" lon="8.0737895"><ele>342.0</ele><time>2026-03-29T11:38:27.122Z</time></trkpt><trkpt lat="45.4213783" lon="8.0739059"><ele>342.0</ele><time>2026-03-29T11:38:28.125Z</time></trkpt><trkpt lat="45.4213321" lon="8.0740207"><ele>342.0</ele><time>2026-03-29T11:38:29.138Z</time></trkpt><trkpt lat="45.4212774" lon="8.074132"><ele>342.0</ele><time>2026-03-29T11:38:30.129Z</time></trkpt><trkpt lat="45.4212313" lon="8.0742375"><ele>342.0</ele><time>2026-03-29T11:38:31.136Z</time></trkpt><trkpt lat="45.4211997" lon="8.074346"><ele>342.0</ele><time>2026-03-29T11:38:32.128Z</time></trkpt><trkpt lat="45.4211851" lon="8.0744456"><ele>342.0</ele><time>2026-03-29T11:38:33.123Z</time></trkpt><trkpt lat="45.4212208" lon="8.0746232"><ele>341.20000000000005</ele><time>2026-03-29T11:38:35.144Z</time></trkpt><trkpt lat="45.4212562" lon="8.0747333"><ele>340.4</ele><time>2026-03-29T11:38:36.127Z</time></trkpt><trkpt lat="45.4212777" lon="8.0748285"><ele>339.6</ele><time>2026-03-29T11:38:37.136Z</time></trkpt><trkpt lat="45.4213426" lon="8.0749713"><ele>338.79999999999995</ele><time>2026-03-29T11:38:39.124Z</time></trkpt><trkpt lat="45.421414" lon="8.0750389"><ele>338.0</ele><time>2026-03-29T11:38:40.137Z</time></trkpt><trkpt lat="45.4214973" lon="8.0751125"><ele>338.0</ele><time>2026-03-29T11:38:41.139Z</time></trkpt><trkpt lat="45.4215867" lon="8.0751852"><ele>338.0</ele><time>2026-03-29T11:38:42.139Z</time></trkpt><trkpt lat="45.4216743" lon="8.0752562"><ele>338.0</ele><time>2026-03-29T11:38:43.152Z</time></trkpt><trkpt lat="45.4217579" lon="8.0753346"><ele>338.0</ele><time>2026-03-29T11:38:44.139Z</time></trkpt><trkpt lat="45.4218315" lon="8.0754154"><ele>338.0</ele><time>2026-03-29T11:38:45.139Z</time></trkpt><trkpt lat="45.4219039" lon="8.0754999"><ele>338.0</ele><time>2026-03-29T11:38:46.138Z</time></trkpt><trkpt lat="45.421974" lon="8.0755677"><ele>338.0</ele><time>2026-03-29T11:38:47.13Z</time></trkpt><trkpt lat="45.4220561" lon="8.0756256"><ele>338.0</ele><time>2026-03-29T11:38:48.131Z</time></trkpt><trkpt lat="45.4221337" lon="8.0756625"><ele>338.0</ele><time>2026-03-29T11:38:49.15Z</time></trkpt><trkpt lat="45.4222137" lon="8.0756889"><ele>338.0</ele><time>2026-03-29T11:38:50.137Z</time></trkpt><trkpt lat="45.422297" lon="8.0756891"><ele>338.0</ele><time>2026-03-29T11:38:51.134Z</time></trkpt><trkpt lat="45.4223813" lon="8.0756753"><ele>340.6666666666667</ele><time>2026-03-29T11:38:52.133Z</time></trkpt><trkpt lat="45.4224746" lon="8.075647"><ele>343.33333333333337</ele><time>2026-03-29T11:38:53.161Z</time></trkpt><trkpt lat="45.4225572" lon="8.0756154"><ele>346.0</ele><time>2026-03-29T11:38:54.118Z</time></trkpt><trkpt lat="45.4226338" lon="8.075595"><ele>348.6666666666667</ele><time>2026-03-29T11:38:55.139Z</time></trkpt><trkpt lat="45.4227117" lon="8.0755775"><ele>351.3333333333333</ele><time>2026-03-29T11:38:56.145Z</time></trkpt><trkpt lat="45.4227888" lon="8.0755446"><ele>354.0</ele><time>2026-03-29T11:38:57.141Z</time></trkpt><trkpt lat="45.4228634" lon="8.0754877"><ele>354.0</ele><time>2026-03-29T11:38:58.139Z</time></trkpt><trkpt lat="45.4229264" lon="8.0754347"><ele>354.0</ele><time>2026-03-29T11:38:59.13Z</time></trkpt><trkpt lat="45.4230228" lon="8.0753641"><ele>354.0</ele><time>2026-03-29T11:39:01.127Z</time></trkpt><trkpt lat="45.4230994" lon="8.0753037"><ele>354.0</ele><time>2026-03-29T11:39:03.125Z</time></trkpt><trkpt lat="45.4231491" lon="8.0751922"><ele>354.0</ele><time>2026-03-29T11:39:05.158Z</time></trkpt><trkpt lat="45.4231828" lon="8.0750377"><ele>354.0</ele><time>2026-03-29T11:39:07.131Z</time></trkpt><trkpt lat="45.4232019" lon="8.0749408"><ele>354.0</ele><time>2026-03-29T11:39:09.13Z</time></trkpt><trkpt lat="45.4232755" lon="8.0749271"><ele>354.0</ele><time>2026-03-29T11:39:12.116Z</time></trkpt><trkpt lat="45.4233582" lon="8.0749377"><ele>354.0</ele><time>2026-03-29T11:39:15.122Z</time></trkpt><trkpt lat="45.4233861" lon="8.0750379"><ele>354.0</ele><time>2026-03-29T11:39:17.126Z</time></trkpt><trkpt lat="45.4234115" lon="8.0751228"><ele>354.0</ele><time>2026-03-29T11:39:18.127Z</time></trkpt><trkpt lat="45.4234404" lon="8.0752025"><ele>354.0</ele><time>2026-03-29T11:39:19.133Z</time></trkpt><trkpt lat="45.4234795" lon="8.0752828"><ele>354.5</ele><time>2026-03-29T11:39:20.135Z</time></trkpt><trkpt lat="45.4235188" lon="8.0753592"><ele>355.0</ele><time>2026-03-29T11:39:21.133Z</time></trkpt><trkpt lat="45.4235892" lon="8.0754865"><ele>355.5</ele><time>2026-03-29T11:39:23.137Z</time></trkpt><trkpt lat="45.4236219" lon="8.0755688"><ele>356.0</ele><time>2026-03-29T11:39:24.135Z</time></trkpt><trkpt lat="45.4236501" lon="8.0756761"><ele>356.5</ele><time>2026-03-29T11:39:25.129Z</time></trkpt><trkpt lat="45.423677" lon="8.0757759"><ele>357.0</ele><time>2026-03-29T11:39:26.126Z</time></trkpt><trkpt lat="45.423692" lon="8.0758894"><ele>357.42857142857144</ele><time>2026-03-29T11:39:27.14Z</time></trkpt><trkpt lat="45.4237065" lon="8.0759959"><ele>357.8571428571429</ele><time>2026-03-29T11:39:28.148Z</time></trkpt><trkpt lat="45.4237122" lon="8.0760937"><ele>358.2857142857143</ele><time>2026-03-29T11:39:29.148Z</time></trkpt><trkpt lat="45.4237197" lon="8.0761917"><ele>358.7142857142857</ele><time>2026-03-29T11:39:30.135Z</time></trkpt><trkpt lat="45.4237184" lon="8.0762934"><ele>359.14285714285717</ele><time>2026-03-29T11:39:31.147Z</time></trkpt><trkpt lat="45.4237202" lon="8.0763879"><ele>359.57142857142856</ele><time>2026-03-29T11:39:32.137Z</time></trkpt><trkpt lat="45.4237272" lon="8.0764788"><ele>360.0</ele><time>2026-03-29T11:39:33.13Z</time></trkpt><trkpt lat="45.42375" lon="8.0765654"><ele>364.4</ele><time>2026-03-29T11:39:34.148Z</time></trkpt><trkpt lat="45.4238137" lon="8.0766835"><ele>368.8</ele><time>2026-03-29T11:39:36.131Z</time></trkpt><trkpt lat="45.4239108" lon="8.0767678"><ele>373.20000000000005</ele><time>2026-03-29T11:39:38.141Z</time></trkpt><trkpt lat="45.4239752" lon="8.0768118"><ele>377.6</ele><time>2026-03-29T11:39:39.13Z</time></trkpt><trkpt lat="45.4240429" lon="8.0768485"><ele>382.0</ele><time>2026-03-29T11:39:40.14Z</time></trkpt><trkpt lat="45.4241479" lon="8.0769329"><ele>382.0</ele><time>2026-03-29T11:39:42.143Z</time></trkpt><trkpt lat="45.4242337" lon="8.0770373"><ele>382.0</ele><time>2026-03-29T11:39:44.149Z</time></trkpt><trkpt lat="45.4242903" lon="8.077159"><ele>382.0</ele><time>2026-03-29T11:39:46.127Z</time></trkpt><trkpt lat="45.4243044" lon="8.0773223"><ele>382.0</ele><time>2026-03-29T11:39:48.14Z</time></trkpt><trkpt lat="45.4243116" lon="8.0774206"><ele>382.0</ele><time>2026-03-29T11:39:49.14Z</time></trkpt><trkpt lat="45.4243199" lon="8.0775191"><ele>382.0</ele><time>2026-03-29T11:39:50.138Z</time></trkpt><trkpt lat="45.424341" lon="8.0776355"><ele>382.0</ele><time>2026-03-29T11:39:51.137Z</time></trkpt><trkpt lat="45.4243512" lon="8.0777579"><ele>382.0</ele><time>2026-03-29T11:39:52.144Z</time></trkpt><trkpt lat="45.4243647" lon="8.077872"><ele>382.0</ele><time>2026-03-29T11:39:53.137Z</time></trkpt><trkpt lat="45.4243755" lon="8.0779718"><ele>382.0</ele><time>2026-03-29T11:39:54.139Z</time></trkpt><trkpt lat="45.4243944" lon="8.0781389"><ele>382.0</ele><time>2026-03-29T11:39:56.16Z</time></trkpt><trkpt lat="45.4243969" lon="8.0782415"><ele>382.66666666666663</ele><time>2026-03-29T11:39:57.136Z</time></trkpt><trkpt lat="45.4243807" lon="8.0783631"><ele>383.3333333333333</ele><time>2026-03-29T11:39:58.13Z</time></trkpt><trkpt lat="45.4243546" lon="8.0784873"><ele>384.0</ele><time>2026-03-29T11:39:59.149Z</time></trkpt><trkpt lat="45.4243467" lon="8.0786312"><ele>384.66666666666663</ele><time>2026-03-29T11:40:00.141Z</time></trkpt><trkpt lat="45.4243392" lon="8.0787564"><ele>385.3333333333333</ele><time>2026-03-29T11:40:01.14Z</time></trkpt><trkpt lat="45.4243331" lon="8.0788716"><ele>386.0</ele><time>2026-03-29T11:40:02.144Z</time></trkpt><trkpt lat="45.4243218" lon="8.0789789"><ele>385.99999999999994</ele><time>2026-03-29T11:40:03.149Z</time></trkpt><trkpt lat="45.4243067" lon="8.0790917"><ele>386.0</ele><time>2026-03-29T11:40:04.142Z</time></trkpt><trkpt lat="45.4242888" lon="8.0792025"><ele>386.0</ele><time>2026-03-29T11:40:05.153Z</time></trkpt><trkpt lat="45.4242655" lon="8.0793178"><ele>386.0</ele><time>2026-03-29T11:40:06.137Z</time></trkpt><trkpt lat="45.4242515" lon="8.0794331"><ele>385.99999999999994</ele><time>2026-03-29T11:40:07.144Z</time></trkpt><trkpt lat="45.4242465" lon="8.0795523"><ele>386.0</ele><time>2026-03-29T11:40:08.127Z</time></trkpt><trkpt lat="45.424238" lon="8.0796588"><ele>386.66666666666663</ele><time>2026-03-29T11:40:09.13Z</time></trkpt><trkpt lat="45.4242266" lon="8.07976"><ele>387.3333333333333</ele><time>2026-03-29T11:40:10.136Z</time></trkpt><trkpt lat="45.4242093" lon="8.0798698"><ele>388.0</ele><time>2026-03-29T11:40:11.132Z</time></trkpt><trkpt lat="45.424173" lon="8.0799708"><ele>388.66666666666663</ele><time>2026-03-29T11:40:12.15Z</time></trkpt><trkpt lat="45.4241426" lon="8.0800784"><ele>389.3333333333333</ele><time>2026-03-29T11:40:13.142Z</time></trkpt><trkpt lat="45.4241166" lon="8.0801933"><ele>390.0</ele><time>2026-03-29T11:40:14.165Z</time></trkpt><trkpt lat="45.4241075" lon="8.0803179"><ele>390.1666666666667</ele><time>2026-03-29T11:40:15.129Z</time></trkpt><trkpt lat="45.4241034" lon="8.0804455"><ele>390.33333333333337</ele><time>2026-03-29T11:40:16.132Z</time></trkpt><trkpt lat="45.4240983" lon="8.0805607"><ele>390.5</ele><time>2026-03-29T11:40:17.121Z</time></trkpt><trkpt lat="45.4240978" lon="8.0806577"><ele>390.6666666666667</ele><time>2026-03-29T11:40:18.136Z</time></trkpt><trkpt lat="45.4241027" lon="8.0807995"><ele>390.83333333333337</ele><time>2026-03-29T11:40:20.141Z</time></trkpt><trkpt lat="45.4240988" lon="8.0808904"><ele>391.0</ele><time>2026-03-29T11:40:22.135Z</time></trkpt><trkpt lat="45.424129" lon="8.0809845"><ele>389.1666666666667</ele><time>2026-03-29T11:40:24.137Z</time></trkpt><trkpt lat="45.4242269" lon="8.0811197"><ele>387.33333333333337</ele><time>2026-03-29T11:40:26.134Z</time></trkpt><trkpt lat="45.4242825" lon="8.0811892"><ele>385.5</ele><time>2026-03-29T11:40:27.138Z</time></trkpt><trkpt lat="45.4243428" lon="8.0812426"><ele>383.6666666666667</ele><time>2026-03-29T11:40:28.137Z</time></trkpt><trkpt lat="45.4244155" lon="8.0812591"><ele>381.83333333333337</ele><time>2026-03-29T11:40:29.139Z</time></trkpt><trkpt lat="45.4244988" lon="8.0812481"><ele>380.0</ele><time>2026-03-29T11:40:30.148Z</time></trkpt><trkpt lat="45.4246024" lon="8.0812127"><ele>378.5</ele><time>2026-03-29T11:40:31.119Z</time></trkpt><trkpt lat="45.4247285" lon="8.081142"><ele>377.0</ele><time>2026-03-29T11:40:32.131Z</time></trkpt><trkpt lat="45.4248661" lon="8.0810732"><ele>375.5</ele><time>2026-03-29T11:40:33.13Z</time></trkpt><trkpt lat="45.4250062" lon="8.0810192"><ele>374.0</ele><time>2026-03-29T11:40:34.122Z</time></trkpt><trkpt lat="45.4251465" lon="8.0809696"><ele>374.0</ele><time>2026-03-29T11:40:35.133Z</time></trkpt><trkpt lat="45.4252804" lon="8.0809281"><ele>374.0</ele><time>2026-03-29T11:40:36.127Z</time></trkpt><trkpt lat="45.4254101" lon="8.0808912"><ele>374.0</ele><time>2026-03-29T11:40:37.148Z</time></trkpt><trkpt lat="45.4255253" lon="8.080865"><ele>374.0</ele><time>2026-03-29T11:40:38.156Z</time></trkpt><trkpt lat="45.425632" lon="8.0808323"><ele>373.4</ele><time>2026-03-29T11:40:39.14Z</time></trkpt><trkpt lat="45.4257328" lon="8.0808105"><ele>372.79999999999995</ele><time>2026-03-29T11:40:40.142Z</time></trkpt><trkpt lat="45.4258265" lon="8.0808132"><ele>372.20000000000005</ele><time>2026-03-29T11:40:41.141Z</time></trkpt><trkpt lat="45.4259012" lon="8.080816"><ele>371.6</ele><time>2026-03-29T11:40:42.132Z</time></trkpt><trkpt lat="45.425983" lon="8.0808729"><ele>371.0</ele><time>2026-03-29T11:40:44.139Z</time></trkpt><trkpt lat="45.4260261" lon="8.0810321"><ele>371.0</ele><time>2026-03-29T11:40:46.134Z</time></trkpt><trkpt lat="45.4260589" lon="8.0811532"><ele>371.0</ele><time>2026-03-29T11:40:47.122Z</time></trkpt><trkpt lat="45.4260895" lon="8.081285"><ele>371.0</ele><time>2026-03-29T11:40:48.133Z</time></trkpt><trkpt lat="45.426124" lon="8.0814105"><ele>371.0</ele><time>2026-03-29T11:40:49.126Z</time></trkpt><trkpt lat="45.4261546" lon="8.0815218"><ele>371.0</ele><time>2026-03-29T11:40:50.132Z</time></trkpt><trkpt lat="45.4261821" lon="8.0816235"><ele>371.0</ele><time>2026-03-29T11:40:51.146Z</time></trkpt><trkpt lat="45.4262146" lon="8.081732"><ele>370.0</ele><time>2026-03-29T11:40:52.127Z</time></trkpt><trkpt lat="45.4262577" lon="8.0818343"><ele>369.0</ele><time>2026-03-29T11:40:53.119Z</time></trkpt><trkpt lat="45.4263131" lon="8.0819287"><ele>368.0</ele><time>2026-03-29T11:40:54.125Z</time></trkpt><trkpt lat="45.4263658" lon="8.0820069"><ele>367.0</ele><time>2026-03-29T11:40:55.13Z</time></trkpt><trkpt lat="45.4264059" lon="8.0820816"><ele>366.0</ele><time>2026-03-29T11:40:56.125Z</time></trkpt><trkpt lat="45.4264743" lon="8.0822354"><ele>365.0</ele><time>2026-03-29T11:40:58.146Z</time></trkpt><trkpt lat="45.4264945" lon="8.0823875"><ele>364.33333333333337</ele><time>2026-03-29T11:41:00.128Z</time></trkpt><trkpt lat="45.4265061" lon="8.0825632"><ele>363.6666666666667</ele><time>2026-03-29T11:41:02.132Z</time></trkpt><trkpt lat="45.4265247" lon="8.0826645"><ele>363.0</ele><time>2026-03-29T11:41:03.135Z</time></trkpt><trkpt lat="45.4265571" lon="8.0827699"><ele>362.3333333333333</ele><time>2026-03-29T11:41:04.134Z</time></trkpt><trkpt lat="45.4265837" lon="8.082863"><ele>361.66666666666663</ele><time>2026-03-29T11:41:05.13Z</time></trkpt><trkpt lat="45.4266188" lon="8.0829562"><ele>361.0</ele><time>2026-03-29T11:41:06.146Z</time></trkpt><trkpt lat="45.4266337" lon="8.0830773"><ele>361.0</ele><time>2026-03-29T11:41:07.122Z</time></trkpt><trkpt lat="45.4266423" lon="8.0832054"><ele>361.0</ele><time>2026-03-29T11:41:08.132Z</time></trkpt><trkpt lat="45.4266531" lon="8.0833408"><ele>361.0</ele><time>2026-03-29T11:41:09.137Z</time></trkpt><trkpt lat="45.4266627" lon="8.0834797"><ele>361.0</ele><time>2026-03-29T11:41:10.129Z</time></trkpt><trkpt lat="45.4266709" lon="8.0836088"><ele>361.0</ele><time>2026-03-29T11:41:11.119Z</time></trkpt><trkpt lat="45.4266795" lon="8.083732"><ele>360.8</ele><time>2026-03-29T11:41:12.133Z</time></trkpt><trkpt lat="45.4266778" lon="8.0838502"><ele>360.6</ele><time>2026-03-29T11:41:13.133Z</time></trkpt><trkpt lat="45.4266517" lon="8.0839694"><ele>360.4</ele><time>2026-03-29T11:41:14.157Z</time></trkpt><trkpt lat="45.4266176" lon="8.0840942"><ele>360.2</ele><time>2026-03-29T11:41:15.135Z</time></trkpt><trkpt lat="45.4265814" lon="8.0842257"><ele>360.0</ele><time>2026-03-29T11:41:16.147Z</time></trkpt><trkpt lat="45.4265533" lon="8.0843785"><ele>361.0</ele><time>2026-03-29T11:41:17.134Z</time></trkpt><trkpt lat="45.4265122" lon="8.0845403"><ele>362.0</ele><time>2026-03-29T11:41:18.133Z</time></trkpt><trkpt lat="45.4264497" lon="8.084681"><ele>363.0</ele><time>2026-03-29T11:41:19.143Z</time></trkpt><trkpt lat="45.426379" lon="8.0848317"><ele>364.0</ele><time>2026-03-29T11:41:20.142Z</time></trkpt><trkpt lat="45.4262973" lon="8.0849951"><ele>360.66666666666663</ele><time>2026-03-29T11:41:21.13Z</time></trkpt><trkpt lat="45.4262153" lon="8.0852011"><ele>357.3333333333333</ele><time>2026-03-29T11:41:22.145Z</time></trkpt><trkpt lat="45.4261498" lon="8.0854467"><ele>354.0</ele><time>2026-03-29T11:41:23.128Z</time></trkpt><trkpt lat="45.426079" lon="8.0856938"><ele>350.6666666666667</ele><time>2026-03-29T11:41:24.125Z</time></trkpt><trkpt lat="45.4260114" lon="8.0859329"><ele>347.33333333333337</ele><time>2026-03-29T11:41:25.133Z</time></trkpt><trkpt lat="45.4259439" lon="8.0861715"><ele>344.0</ele><time>2026-03-29T11:41:26.133Z</time></trkpt><trkpt lat="45.4258901" lon="8.0864178"><ele>342.33333333333337</ele><time>2026-03-29T11:41:27.14Z</time></trkpt><trkpt lat="45.4258625" lon="8.0866749"><ele>340.6666666666667</ele><time>2026-03-29T11:41:28.135Z</time></trkpt><trkpt lat="45.4258753" lon="8.0869337"><ele>339.0</ele><time>2026-03-29T11:41:29.151Z</time></trkpt><trkpt lat="45.4259013" lon="8.0871991"><ele>338.3333333333333</ele><time>2026-03-29T11:41:30.123Z</time></trkpt><trkpt lat="45.4259511" lon="8.0874658"><ele>337.66666666666663</ele><time>2026-03-29T11:41:31.131Z</time></trkpt><trkpt lat="45.4260031" lon="8.0877342"><ele>337.0</ele><time>2026-03-29T11:41:32.135Z</time></trkpt><trkpt lat="45.4260575" lon="8.0880062"><ele>336.66666666666663</ele><time>2026-03-29T11:41:33.131Z</time></trkpt><trkpt lat="45.4261109" lon="8.088276"><ele>336.3333333333333</ele><time>2026-03-29T11:41:34.146Z</time></trkpt><trkpt lat="45.4261618" lon="8.0885361"><ele>336.0</ele><time>2026-03-29T11:41:35.159Z</time></trkpt><trkpt lat="45.4262087" lon="8.0887786"><ele>336.0</ele><time>2026-03-29T11:41:36.14Z</time></trkpt><trkpt lat="45.4262431" lon="8.0890049"><ele>336.0</ele><time>2026-03-29T11:41:37.152Z</time></trkpt><trkpt lat="45.4262657" lon="8.0892241"><ele>336.0</ele><time>2026-03-29T11:41:38.125Z</time></trkpt><trkpt lat="45.4262691" lon="8.0894392"><ele>335.3333333333333</ele><time>2026-03-29T11:41:39.134Z</time></trkpt><trkpt lat="45.4262614" lon="8.0896631"><ele>334.66666666666663</ele><time>2026-03-29T11:41:40.124Z</time></trkpt><trkpt lat="45.4262439" lon="8.0898903"><ele>334.0</ele><time>2026-03-29T11:41:41.138Z</time></trkpt><trkpt lat="45.4262187" lon="8.0901138"><ele>334.0</ele><time>2026-03-29T11:41:42.172Z</time></trkpt><trkpt lat="45.4261902" lon="8.0903346"><ele>334.0</ele><time>2026-03-29T11:41:43.126Z</time></trkpt><trkpt lat="45.4261728" lon="8.090537"><ele>334.0</ele><time>2026-03-29T11:41:44.139Z</time></trkpt><trkpt lat="45.4261567" lon="8.0907169"><ele>334.0</ele><time>2026-03-29T11:41:45.146Z</time></trkpt><trkpt lat="45.4261561" lon="8.0908659"><ele>334.79999999999995</ele><time>2026-03-29T11:41:46.143Z</time></trkpt><trkpt lat="45.4261755" lon="8.0910033"><ele>335.59999999999997</ele><time>2026-03-29T11:41:47.138Z</time></trkpt><trkpt lat="45.4262298" lon="8.0911251"><ele>336.4</ele><time>2026-03-29T11:41:48.119Z</time></trkpt><trkpt lat="45.4263119" lon="8.0912153"><ele>337.2</ele><time>2026-03-29T11:41:49.141Z</time></trkpt><trkpt lat="45.4263971" lon="8.0912707"><ele>338.0</ele><time>2026-03-29T11:41:50.123Z</time></trkpt><trkpt lat="45.4264787" lon="8.0913185"><ele>338.0</ele><time>2026-03-29T11:41:51.127Z</time></trkpt><trkpt lat="45.4265619" lon="8.0913769"><ele>338.0</ele><time>2026-03-29T11:41:52.128Z</time></trkpt><trkpt lat="45.4266271" lon="8.0914739"><ele>338.0</ele><time>2026-03-29T11:41:53.128Z</time></trkpt><trkpt lat="45.4266646" lon="8.0916052"><ele>338.0</ele><time>2026-03-29T11:41:54.16Z</time></trkpt><trkpt lat="45.4266763" lon="8.091784"><ele>338.0</ele><time>2026-03-29T11:41:55.129Z</time></trkpt><trkpt lat="45.42666" lon="8.0920031"><ele>337.0</ele><time>2026-03-29T11:41:56.121Z</time></trkpt><trkpt lat="45.4266468" lon="8.0922367"><ele>336.0</ele><time>2026-03-29T11:41:57.138Z</time></trkpt><trkpt lat="45.4266377" lon="8.0924592"><ele>335.0</ele><time>2026-03-29T11:41:58.129Z</time></trkpt><trkpt lat="45.4266496" lon="8.0926703"><ele>335.0</ele><time>2026-03-29T11:41:59.125Z</time></trkpt><trkpt lat="45.4266942" lon="8.0928537"><ele>335.0</ele><time>2026-03-29T11:42:00.133Z</time></trkpt><trkpt lat="45.4267621" lon="8.0930322"><ele>335.0</ele><time>2026-03-29T11:42:01.13Z</time></trkpt><trkpt lat="45.4268643" lon="8.0931969"><ele>335.0</ele><time>2026-03-29T11:42:02.131Z</time></trkpt><trkpt lat="45.4269596" lon="8.093338"><ele>333.75</ele><time>2026-03-29T11:42:03.135Z</time></trkpt><trkpt lat="45.4270444" lon="8.0934824"><ele>332.5</ele><time>2026-03-29T11:42:04.128Z</time></trkpt><trkpt lat="45.4271116" lon="8.093652"><ele>331.25</ele><time>2026-03-29T11:42:05.136Z</time></trkpt><trkpt lat="45.4271486" lon="8.0938494"><ele>330.0</ele><time>2026-03-29T11:42:06.13Z</time></trkpt><trkpt lat="45.4271671" lon="8.0940535"><ele>328.75</ele><time>2026-03-29T11:42:07.148Z</time></trkpt><trkpt lat="45.4271561" lon="8.0942537"><ele>327.5</ele><time>2026-03-29T11:42:08.134Z</time></trkpt><trkpt lat="45.4271367" lon="8.0944592"><ele>326.25</ele><time>2026-03-29T11:42:09.132Z</time></trkpt><trkpt lat="45.4271129" lon="8.094646"><ele>325.0</ele><time>2026-03-29T11:42:10.131Z</time></trkpt><trkpt lat="45.4270512" lon="8.0947931"><ele>322.0</ele><time>2026-03-29T11:42:11.125Z</time></trkpt><trkpt lat="45.4269664" lon="8.0949221"><ele>319.0</ele><time>2026-03-29T11:42:12.121Z</time></trkpt><trkpt lat="45.4268693" lon="8.0950319"><ele>316.0</ele><time>2026-03-29T11:42:13.131Z</time></trkpt><trkpt lat="45.426765" lon="8.0951146"><ele>313.0</ele><time>2026-03-29T11:42:14.132Z</time></trkpt><trkpt lat="45.4266545" lon="8.0951852"><ele>313.0</ele><time>2026-03-29T11:42:15.136Z</time></trkpt><trkpt lat="45.4265393" lon="8.0952252"><ele>313.0</ele><time>2026-03-29T11:42:16.148Z</time></trkpt><trkpt lat="45.4264022" lon="8.0952368"><ele>313.0</ele><time>2026-03-29T11:42:17.134Z</time></trkpt><trkpt lat="45.426274" lon="8.09521"><ele>313.0</ele><time>2026-03-29T11:42:18.134Z</time></trkpt><trkpt lat="45.4261387" lon="8.0951615"><ele>312.0</ele><time>2026-03-29T11:42:19.142Z</time></trkpt><trkpt lat="45.425998" lon="8.0951122"><ele>311.0</ele><time>2026-03-29T11:42:20.13Z</time></trkpt><trkpt lat="45.4258657" lon="8.0950706"><ele>310.0</ele><time>2026-03-29T11:42:21.128Z</time></trkpt><trkpt lat="45.4257543" lon="8.0950319"><ele>309.0</ele><time>2026-03-29T11:42:22.126Z</time></trkpt><trkpt lat="45.4256538" lon="8.0950073"><ele>309.0</ele><time>2026-03-29T11:42:23.124Z</time></trkpt><trkpt lat="45.4255693" lon="8.0949963"><ele>309.0</ele><time>2026-03-29T11:42:24.139Z</time></trkpt><trkpt lat="45.4255008" lon="8.0950314"><ele>309.0</ele><time>2026-03-29T11:42:25.139Z</time></trkpt><trkpt lat="45.4254561" lon="8.0950994"><ele>309.0</ele><time>2026-03-29T11:42:26.136Z</time></trkpt><trkpt lat="45.4254333" lon="8.0952317"><ele>309.0</ele><time>2026-03-29T11:42:27.135Z</time></trkpt><trkpt lat="45.4254024" lon="8.0954036"><ele>309.0</ele><time>2026-03-29T11:42:28.131Z</time></trkpt><trkpt lat="45.4253914" lon="8.095586"><ele>308.59999999999997</ele><time>2026-03-29T11:42:29.159Z</time></trkpt><trkpt lat="45.4253716" lon="8.0957443"><ele>308.2</ele><time>2026-03-29T11:42:30.131Z</time></trkpt><trkpt lat="45.4253504" lon="8.0959012"><ele>307.79999999999995</ele><time>2026-03-29T11:42:31.124Z</time></trkpt><trkpt lat="45.4253315" lon="8.0960491"><ele>307.4</ele><time>2026-03-29T11:42:32.128Z</time></trkpt><trkpt lat="45.4253012" lon="8.0961814"><ele>307.0</ele><time>2026-03-29T11:42:33.125Z</time></trkpt><trkpt lat="45.4252708" lon="8.0963077"><ele>306.3333333333333</ele><time>2026-03-29T11:42:34.128Z</time></trkpt><trkpt lat="45.4252457" lon="8.0964173"><ele>305.66666666666663</ele><time>2026-03-29T11:42:35.13Z</time></trkpt><trkpt lat="45.4252331" lon="8.0965287"><ele>305.0</ele><time>2026-03-29T11:42:37.114Z</time></trkpt><trkpt lat="45.4252916" lon="8.0966292"><ele>304.3333333333333</ele><time>2026-03-29T11:42:42.125Z</time></trkpt><trkpt lat="45.4253656" lon="8.0966289"><ele>303.6666666666667</ele><time>2026-03-29T11:42:43.125Z</time></trkpt><trkpt lat="45.4254597" lon="8.0966221"><ele>303.0</ele><time>2026-03-29T11:42:44.118Z</time></trkpt><trkpt lat="45.4255526" lon="8.0966051"><ele>303.0</ele><time>2026-03-29T11:42:45.119Z</time></trkpt><trkpt lat="45.4256554" lon="8.096589"><ele>303.0</ele><time>2026-03-29T11:42:46.134Z</time></trkpt><trkpt lat="45.4257584" lon="8.0965857"><ele>303.0</ele><time>2026-03-29T11:42:47.123Z</time></trkpt><trkpt lat="45.425862" lon="8.0965928"><ele>303.0</ele><time>2026-03-29T11:42:48.141Z</time></trkpt><trkpt lat="45.42597" lon="8.0966395"><ele>303.0</ele><time>2026-03-29T11:42:49.118Z</time></trkpt><trkpt lat="45.4260822" lon="8.0966731"><ele>303.0</ele><time>2026-03-29T11:42:50.118Z</time></trkpt><trkpt lat="45.4261898" lon="8.0966946"><ele>303.0</ele><time>2026-03-29T11:42:51.124Z</time></trkpt><trkpt lat="45.426284" lon="8.0967228"><ele>303.0</ele><time>2026-03-29T11:42:52.121Z</time></trkpt><trkpt lat="45.4263842" lon="8.0967719"><ele>303.0</ele><time>2026-03-29T11:42:53.124Z</time></trkpt><trkpt lat="45.4264829" lon="8.0968316"><ele>303.0</ele><time>2026-03-29T11:42:54.122Z</time></trkpt><trkpt lat="45.4265593" lon="8.0968841"><ele>303.1666666666667</ele><time>2026-03-29T11:42:55.132Z</time></trkpt><trkpt lat="45.4266907" lon="8.0969484"><ele>303.3333333333333</ele><time>2026-03-29T11:42:57.126Z</time></trkpt><trkpt lat="45.426767" lon="8.0969744"><ele>303.5</ele><time>2026-03-29T11:42:58.148Z</time></trkpt><trkpt lat="45.4268329" lon="8.097"><ele>303.66666666666663</ele><time>2026-03-29T11:42:59.124Z</time></trkpt><trkpt lat="45.4269012" lon="8.0970056"><ele>303.8333333333333</ele><time>2026-03-29T11:43:00.136Z</time></trkpt><trkpt lat="45.4269657" lon="8.0970089"><ele>304.0</ele><time>2026-03-29T11:43:01.126Z</time></trkpt><trkpt lat="45.4270336" lon="8.0970147"><ele>304.0</ele><time>2026-03-29T11:43:02.119Z</time></trkpt><trkpt lat="45.4271138" lon="8.0970246"><ele>304.0</ele><time>2026-03-29T11:43:03.155Z</time></trkpt><trkpt lat="45.4271769" lon="8.0970281"><ele>304.0</ele><time>2026-03-29T11:43:04.135Z</time></trkpt><trkpt lat="45.4272471" lon="8.0970817"><ele>304.0</ele><time>2026-03-29T11:43:05.136Z</time></trkpt><trkpt lat="45.4273176" lon="8.0971513"><ele>304.0</ele><time>2026-03-29T11:43:06.123Z</time></trkpt><trkpt lat="45.4273764" lon="8.0972267"><ele>304.0</ele><time>2026-03-29T11:43:07.135Z</time></trkpt><trkpt lat="45.4274596" lon="8.097309"><ele>304.2</ele><time>2026-03-29T11:43:09.133Z</time></trkpt><trkpt lat="45.4275174" lon="8.0973674"><ele>304.4</ele><time>2026-03-29T11:43:13.135Z</time></trkpt><trkpt lat="45.4275911" lon="8.0974288"><ele>304.6</ele><time>2026-03-29T11:43:16.136Z</time></trkpt><trkpt lat="45.4276797" lon="8.0974486"><ele>304.8</ele><time>2026-03-29T11:43:17.132Z</time></trkpt><trkpt lat="45.4277899" lon="8.0974474"><ele>305.0</ele><time>2026-03-29T11:43:18.134Z</time></trkpt><trkpt lat="45.4279008" lon="8.0974469"><ele>306.4</ele><time>2026-03-29T11:43:19.133Z</time></trkpt><trkpt lat="45.4280041" lon="8.0974547"><ele>307.8</ele><time>2026-03-29T11:43:20.134Z</time></trkpt><trkpt lat="45.4281132" lon="8.0974542"><ele>309.2</ele><time>2026-03-29T11:43:21.131Z</time></trkpt><trkpt lat="45.4282178" lon="8.0974443"><ele>310.6</ele><time>2026-03-29T11:43:22.133Z</time></trkpt><trkpt lat="45.4283182" lon="8.0974488"><ele>312.0</ele><time>2026-03-29T11:43:23.116Z</time></trkpt><trkpt lat="45.428425" lon="8.0974657"><ele>312.0</ele><time>2026-03-29T11:43:24.139Z</time></trkpt><trkpt lat="45.428531" lon="8.0975098"><ele>312.0</ele><time>2026-03-29T11:43:25.143Z</time></trkpt><trkpt lat="45.428626" lon="8.0975864"><ele>312.0</ele><time>2026-03-29T11:43:26.123Z</time></trkpt><trkpt lat="45.4287074" lon="8.0976736"><ele>312.0</ele><time>2026-03-29T11:43:27.141Z</time></trkpt><trkpt lat="45.4287843" lon="8.0977662"><ele>312.0</ele><time>2026-03-29T11:43:28.146Z</time></trkpt><trkpt lat="45.4288597" lon="8.0978615"><ele>315.2</ele><time>2026-03-29T11:43:29.135Z</time></trkpt><trkpt lat="45.4289345" lon="8.0979567"><ele>318.4</ele><time>2026-03-29T11:43:30.132Z</time></trkpt><trkpt lat="45.4290132" lon="8.0980447"><ele>321.59999999999997</ele><time>2026-03-29T11:43:31.134Z</time></trkpt><trkpt lat="45.4290853" lon="8.0981288"><ele>324.79999999999995</ele><time>2026-03-29T11:43:32.162Z</time></trkpt><trkpt lat="45.4291655" lon="8.0981891"><ele>328.0</ele><time>2026-03-29T11:43:33.127Z</time></trkpt><trkpt lat="45.4292446" lon="8.0982379"><ele>328.0</ele><time>2026-03-29T11:43:34.126Z</time></trkpt><trkpt lat="45.42933" lon="8.0982522"><ele>328.0</ele><time>2026-03-29T11:43:35.125Z</time></trkpt><trkpt lat="45.4294149" lon="8.0982148"><ele>328.0</ele><time>2026-03-29T11:43:36.131Z</time></trkpt><trkpt lat="45.4294918" lon="8.0981539"><ele>328.0</ele><time>2026-03-29T11:43:37.136Z</time></trkpt><trkpt lat="45.4295591" lon="8.0980827"><ele>328.0</ele><time>2026-03-29T11:43:38.135Z</time></trkpt><trkpt lat="45.4296239" lon="8.0979986"><ele>328.0</ele><time>2026-03-29T11:43:39.148Z</time></trkpt><trkpt lat="45.4296643" lon="8.0978919"><ele>326.8333333333333</ele><time>2026-03-29T11:43:40.155Z</time></trkpt><trkpt lat="45.429696" lon="8.0977927"><ele>325.66666666666663</ele><time>2026-03-29T11:43:41.139Z</time></trkpt><trkpt lat="45.4297044" lon="8.0976767"><ele>324.5</ele><time>2026-03-29T11:43:42.123Z</time></trkpt><trkpt lat="45.4297075" lon="8.0975439"><ele>323.3333333333333</ele><time>2026-03-29T11:43:43.127Z</time></trkpt><trkpt lat="45.4297042" lon="8.0974081"><ele>322.1666666666667</ele><time>2026-03-29T11:43:44.136Z</time></trkpt><trkpt lat="45.4296995" lon="8.097272"><ele>321.0</ele><time>2026-03-29T11:43:45.121Z</time></trkpt><trkpt lat="45.4297219" lon="8.0971557"><ele>321.0</ele><time>2026-03-29T11:43:46.129Z</time></trkpt><trkpt lat="45.4297601" lon="8.0970308"><ele>321.0</ele><time>2026-03-29T11:43:47.137Z</time></trkpt><trkpt lat="45.4298046" lon="8.0969222"><ele>321.0</ele><time>2026-03-29T11:43:48.137Z</time></trkpt><trkpt lat="45.4298649" lon="8.0968395"><ele>321.0</ele><time>2026-03-29T11:43:49.134Z</time></trkpt><trkpt lat="45.4299394" lon="8.0967586"><ele>321.0</ele><time>2026-03-29T11:43:50.119Z</time></trkpt><trkpt lat="45.4300214" lon="8.0966884"><ele>321.0</ele><time>2026-03-29T11:43:51.132Z</time></trkpt><trkpt lat="45.4301096" lon="8.0966211"><ele>321.0</ele><time>2026-03-29T11:43:52.128Z</time></trkpt><trkpt lat="45.4301997" lon="8.0965493"><ele>321.0</ele><time>2026-03-29T11:43:53.139Z</time></trkpt><trkpt lat="45.4302817" lon="8.0964663"><ele>321.0</ele><time>2026-03-29T11:43:54.105Z</time></trkpt><trkpt lat="45.4303734" lon="8.0963884"><ele>321.0</ele><time>2026-03-29T11:43:55.123Z</time></trkpt><trkpt lat="45.4304655" lon="8.0963175"><ele>320.0</ele><time>2026-03-29T11:43:56.121Z</time></trkpt><trkpt lat="45.4305618" lon="8.0962329"><ele>319.0</ele><time>2026-03-29T11:43:57.109Z</time></trkpt><trkpt lat="45.4306688" lon="8.0961429"><ele>318.0</ele><time>2026-03-29T11:43:58.12Z</time></trkpt><trkpt lat="45.4307652" lon="8.0960633"><ele>317.0</ele><time>2026-03-29T11:43:59.126Z</time></trkpt><trkpt lat="45.4308573" lon="8.095982"><ele>317.0</ele><time>2026-03-29T11:44:00.116Z</time></trkpt><trkpt lat="45.4309472" lon="8.0959027"><ele>317.0</ele><time>2026-03-29T11:44:01.109Z</time></trkpt><trkpt lat="45.4310342" lon="8.0958232"><ele>317.0</ele><time>2026-03-29T11:44:02.136Z</time></trkpt><trkpt lat="45.4311288" lon="8.0957422"><ele>317.0</ele><time>2026-03-29T11:44:03.123Z</time></trkpt><trkpt lat="45.4312249" lon="8.0956595"><ele>317.0</ele><time>2026-03-29T11:44:04.099Z</time></trkpt><trkpt lat="45.4313211" lon="8.0955694"><ele>316.2</ele><time>2026-03-29T11:44:05.126Z</time></trkpt><trkpt lat="45.43141" lon="8.095491"><ele>315.4</ele><time>2026-03-29T11:44:06.127Z</time></trkpt><trkpt lat="45.4315005" lon="8.0954168"><ele>314.6</ele><time>2026-03-29T11:44:07.122Z</time></trkpt><trkpt lat="45.4315865" lon="8.0953657"><ele>313.8</ele><time>2026-03-29T11:44:08.122Z</time></trkpt><trkpt lat="45.4316668" lon="8.0953346"><ele>313.0</ele><time>2026-03-29T11:44:09.119Z</time></trkpt><trkpt lat="45.4317626" lon="8.0953278"><ele>313.0</ele><time>2026-03-29T11:44:10.114Z</time></trkpt><trkpt lat="45.4318774" lon="8.0953506"><ele>313.0</ele><time>2026-03-29T11:44:11.122Z</time></trkpt><trkpt lat="45.4320177" lon="8.0953886"><ele>313.0</ele><time>2026-03-29T11:44:12.115Z</time></trkpt><trkpt lat="45.4321877" lon="8.0954184"><ele>313.0</ele><time>2026-03-29T11:44:13.128Z</time></trkpt><trkpt lat="45.4323752" lon="8.0954724"><ele>309.3333333333333</ele><time>2026-03-29T11:44:14.116Z</time></trkpt><trkpt lat="45.4325608" lon="8.0955402"><ele>305.6666666666667</ele><time>2026-03-29T11:44:15.12Z</time></trkpt><trkpt lat="45.4327465" lon="8.0955973"><ele>302.0</ele><time>2026-03-29T11:44:16.115Z</time></trkpt><trkpt lat="45.4329268" lon="8.0956478"><ele>299.33333333333337</ele><time>2026-03-29T11:44:17.154Z</time></trkpt><trkpt lat="45.4331093" lon="8.0956872"><ele>296.6666666666667</ele><time>2026-03-29T11:44:18.137Z</time></trkpt><trkpt lat="45.4332891" lon="8.0957281"><ele>294.0</ele><time>2026-03-29T11:44:19.141Z</time></trkpt><trkpt lat="45.4334687" lon="8.0957724"><ele>293.0</ele><time>2026-03-29T11:44:20.134Z</time></trkpt><trkpt lat="45.4336489" lon="8.095824"><ele>292.0</ele><time>2026-03-29T11:44:21.114Z</time></trkpt><trkpt lat="45.4338247" lon="8.0958727"><ele>291.0</ele><time>2026-03-29T11:44:22.144Z</time></trkpt><trkpt lat="45.4339999" lon="8.095918"><ele>290.0</ele><time>2026-03-29T11:44:23.135Z</time></trkpt><trkpt lat="45.4341751" lon="8.0959635"><ele>289.0</ele><time>2026-03-29T11:44:24.128Z</time></trkpt><trkpt lat="45.4343436" lon="8.0960042"><ele>288.0</ele><time>2026-03-29T11:44:25.142Z</time></trkpt><trkpt lat="45.4345117" lon="8.096045"><ele>287.6666666666667</ele><time>2026-03-29T11:44:26.143Z</time></trkpt><trkpt lat="45.4346761" lon="8.0960909"><ele>287.33333333333337</ele><time>2026-03-29T11:44:27.131Z</time></trkpt><trkpt lat="45.434848" lon="8.0961396"><ele>287.0</ele><time>2026-03-29T11:44:28.134Z</time></trkpt><trkpt lat="45.4350313" lon="8.0961903"><ele>287.0</ele><time>2026-03-29T11:44:29.124Z</time></trkpt><trkpt lat="45.4352228" lon="8.0962487"><ele>287.0</ele><time>2026-03-29T11:44:30.133Z</time></trkpt><trkpt lat="45.4354096" lon="8.0963009"><ele>287.0</ele><time>2026-03-29T11:44:31.136Z</time></trkpt><trkpt lat="45.4355949" lon="8.096349"><ele>286.33333333333337</ele><time>2026-03-29T11:44:32.142Z</time></trkpt><trkpt lat="45.4357759" lon="8.096396"><ele>285.6666666666667</ele><time>2026-03-29T11:44:33.145Z</time></trkpt><trkpt lat="45.435949" lon="8.0964438"><ele>285.0</ele><time>2026-03-29T11:44:34.135Z</time></trkpt><trkpt lat="45.4361225" lon="8.0964901"><ele>285.0</ele><time>2026-03-29T11:44:35.13Z</time></trkpt><trkpt lat="45.4362971" lon="8.0965319"><ele>285.0</ele><time>2026-03-29T11:44:36.149Z</time></trkpt><trkpt lat="45.4364692" lon="8.0965924"><ele>285.0</ele><time>2026-03-29T11:44:37.134Z</time></trkpt><trkpt lat="45.436647" lon="8.096671"><ele>283.6666666666667</ele><time>2026-03-29T11:44:38.132Z</time></trkpt><trkpt lat="45.4368262" lon="8.096767"><ele>282.33333333333337</ele><time>2026-03-29T11:44:39.122Z</time></trkpt><trkpt lat="45.4369937" lon="8.0968841"><ele>281.0</ele><time>2026-03-29T11:44:40.13Z</time></trkpt><trkpt lat="45.4371614" lon="8.0970093"><ele>280.6666666666667</ele><time>2026-03-29T11:44:41.129Z</time></trkpt><trkpt lat="45.4373209" lon="8.0971453"><ele>280.3333333333333</ele><time>2026-03-29T11:44:42.144Z</time></trkpt><trkpt lat="45.4374745" lon="8.0972788"><ele>280.0</ele><time>2026-03-29T11:44:43.139Z</time></trkpt><trkpt lat="45.4376213" lon="8.0974052"><ele>280.0</ele><time>2026-03-29T11:44:44.139Z</time></trkpt><trkpt lat="45.4377613" lon="8.0975538"><ele>280.0</ele><time>2026-03-29T11:44:45.157Z</time></trkpt><trkpt lat="45.4378992" lon="8.0977271"><ele>280.0</ele><time>2026-03-29T11:44:46.137Z</time></trkpt><trkpt lat="45.438026" lon="8.0979237"><ele>280.0</ele><time>2026-03-29T11:44:47.122Z</time></trkpt><trkpt lat="45.438145" lon="8.0981381"><ele>280.0</ele><time>2026-03-29T11:44:48.137Z</time></trkpt><trkpt lat="45.4382513" lon="8.0983477"><ele>280.0</ele><time>2026-03-29T11:44:49.143Z</time></trkpt><trkpt lat="45.4383606" lon="8.0985586"><ele>280.0</ele><time>2026-03-29T11:44:50.134Z</time></trkpt><trkpt lat="45.4384741" lon="8.0987654"><ele>280.0</ele><time>2026-03-29T11:44:51.123Z</time></trkpt><trkpt lat="45.4385882" lon="8.098973"><ele>280.0</ele><time>2026-03-29T11:44:52.136Z</time></trkpt><trkpt lat="45.4386988" lon="8.0991719"><ele>280.3333333333333</ele><time>2026-03-29T11:44:53.139Z</time></trkpt><trkpt lat="45.4388073" lon="8.0993647"><ele>280.6666666666667</ele><time>2026-03-29T11:44:54.129Z</time></trkpt><trkpt lat="45.4389075" lon="8.0995537"><ele>281.0</ele><time>2026-03-29T11:44:55.13Z</time></trkpt><trkpt lat="45.4390067" lon="8.0997355"><ele>281.0</ele><time>2026-03-29T11:44:56.129Z</time></trkpt><trkpt lat="45.4391051" lon="8.0999164"><ele>281.0</ele><time>2026-03-29T11:44:57.131Z</time></trkpt><trkpt lat="45.4392047" lon="8.1000902"><ele>281.0</ele><time>2026-03-29T11:44:58.12Z</time></trkpt><trkpt lat="45.4393033" lon="8.1002559"><ele>281.0</ele><time>2026-03-29T11:44:59.128Z</time></trkpt><trkpt lat="45.4394024" lon="8.1004184"><ele>281.0</ele><time>2026-03-29T11:45:00.119Z</time></trkpt><trkpt lat="45.4395011" lon="8.1005836"><ele>281.0</ele><time>2026-03-29T11:45:01.133Z</time></trkpt><trkpt lat="45.4396105" lon="8.1007592"><ele>281.33333333333337</ele><time>2026-03-29T11:45:02.139Z</time></trkpt><trkpt lat="45.4397282" lon="8.1009336"><ele>281.6666666666667</ele><time>2026-03-29T11:45:03.124Z</time></trkpt><trkpt lat="45.439848" lon="8.1011214"><ele>282.0</ele><time>2026-03-29T11:45:04.172Z</time></trkpt><trkpt lat="45.4399754" lon="8.1013102"><ele>282.0</ele><time>2026-03-29T11:45:05.128Z</time></trkpt><trkpt lat="45.4401051" lon="8.1015062"><ele>282.0</ele><time>2026-03-29T11:45:06.135Z</time></trkpt><trkpt lat="45.440242" lon="8.1017002"><ele>282.0</ele><time>2026-03-29T11:45:07.142Z</time></trkpt><trkpt lat="45.44038" lon="8.1018879"><ele>281.6666666666667</ele><time>2026-03-29T11:45:08.139Z</time></trkpt><trkpt lat="45.4405185" lon="8.1020762"><ele>281.33333333333337</ele><time>2026-03-29T11:45:09.15Z</time></trkpt><trkpt lat="45.4406551" lon="8.1022695"><ele>281.0</ele><time>2026-03-29T11:45:10.132Z</time></trkpt><trkpt lat="45.4407919" lon="8.102455"><ele>280.0</ele><time>2026-03-29T11:45:11.121Z</time></trkpt><trkpt lat="45.4409278" lon="8.1026451"><ele>279.0</ele><time>2026-03-29T11:45:12.14Z</time></trkpt><trkpt lat="45.4410627" lon="8.1028289"><ele>278.0</ele><time>2026-03-29T11:45:13.136Z</time></trkpt><trkpt lat="45.441201" lon="8.1030119"><ele>277.33333333333337</ele><time>2026-03-29T11:45:14.139Z</time></trkpt><trkpt lat="45.4413387" lon="8.1032119"><ele>276.6666666666667</ele><time>2026-03-29T11:45:15.131Z</time></trkpt><trkpt lat="45.441482" lon="8.1034113"><ele>276.0</ele><time>2026-03-29T11:45:16.133Z</time></trkpt><trkpt lat="45.4416189" lon="8.1036051"><ele>275.0</ele><time>2026-03-29T11:45:17.126Z</time></trkpt><trkpt lat="45.4417554" lon="8.1037867"><ele>274.0</ele><time>2026-03-29T11:45:18.138Z</time></trkpt><trkpt lat="45.4418915" lon="8.1039644"><ele>273.0</ele><time>2026-03-29T11:45:19.128Z</time></trkpt><trkpt lat="45.4420252" lon="8.1041496"><ele>272.0</ele><time>2026-03-29T11:45:20.12Z</time></trkpt><trkpt lat="45.4421596" lon="8.1043401"><ele>271.0</ele><time>2026-03-29T11:45:21.133Z</time></trkpt><trkpt lat="45.442296" lon="8.1045393"><ele>270.0</ele><time>2026-03-29T11:45:22.133Z</time></trkpt><trkpt lat="45.4424332" lon="8.1047301"><ele>269.3333333333333</ele><time>2026-03-29T11:45:23.129Z</time></trkpt><trkpt lat="45.4425603" lon="8.1049159"><ele>268.66666666666663</ele><time>2026-03-29T11:45:24.134Z</time></trkpt><trkpt lat="45.4426901" lon="8.1050949"><ele>268.0</ele><time>2026-03-29T11:45:25.144Z</time></trkpt><trkpt lat="45.4428155" lon="8.105273"><ele>268.0</ele><time>2026-03-29T11:45:26.133Z</time></trkpt><trkpt lat="45.4429452" lon="8.1054507"><ele>268.0</ele><time>2026-03-29T11:45:27.131Z</time></trkpt><trkpt lat="45.4430778" lon="8.1056248"><ele>268.0</ele><time>2026-03-29T11:45:28.138Z</time></trkpt><trkpt lat="45.4432085" lon="8.1058028"><ele>268.0</ele><time>2026-03-29T11:45:29.132Z</time></trkpt><trkpt lat="45.4433313" lon="8.1059712"><ele>268.0</ele><time>2026-03-29T11:45:30.127Z</time></trkpt><trkpt lat="45.4434554" lon="8.1061282"><ele>268.0</ele><time>2026-03-29T11:45:31.126Z</time></trkpt><trkpt lat="45.4435706" lon="8.1062853"><ele>268.0</ele><time>2026-03-29T11:45:32.127Z</time></trkpt><trkpt lat="45.4436717" lon="8.1064583"><ele>268.0</ele><time>2026-03-29T11:45:33.126Z</time></trkpt><trkpt lat="45.4437446" lon="8.1066474"><ele>268.0</ele><time>2026-03-29T11:45:34.144Z</time></trkpt><trkpt lat="45.4437873" lon="8.1068787"><ele>270.0</ele><time>2026-03-29T11:45:35.133Z</time></trkpt><trkpt lat="45.4438207" lon="8.1071085"><ele>272.0</ele><time>2026-03-29T11:45:36.13Z</time></trkpt><trkpt lat="45.443854" lon="8.1073357"><ele>274.0</ele><time>2026-03-29T11:45:37.125Z</time></trkpt><trkpt lat="45.4438907" lon="8.1075614"><ele>274.3333333333333</ele><time>2026-03-29T11:45:38.12Z</time></trkpt><trkpt lat="45.4439242" lon="8.1077891"><ele>274.6666666666667</ele><time>2026-03-29T11:45:39.132Z</time></trkpt><trkpt lat="45.4439574" lon="8.108017"><ele>275.0</ele><time>2026-03-29T11:45:40.122Z</time></trkpt><trkpt lat="45.4439721" lon="8.1082383"><ele>273.6666666666667</ele><time>2026-03-29T11:45:41.132Z</time></trkpt><trkpt lat="45.4439812" lon="8.1084647"><ele>272.3333333333333</ele><time>2026-03-29T11:45:42.138Z</time></trkpt><trkpt lat="45.4439934" lon="8.10869"><ele>271.0</ele><time>2026-03-29T11:45:43.124Z</time></trkpt><trkpt lat="45.4440046" lon="8.1089292"><ele>269.0</ele><time>2026-03-29T11:45:44.134Z</time></trkpt><trkpt lat="45.4440184" lon="8.1091681"><ele>267.0</ele><time>2026-03-29T11:45:45.13Z</time></trkpt><trkpt lat="45.4440257" lon="8.1093974"><ele>265.0</ele><time>2026-03-29T11:45:46.133Z</time></trkpt><trkpt lat="45.4440185" lon="8.1096221"><ele>265.0</ele><time>2026-03-29T11:45:47.126Z</time></trkpt><trkpt lat="45.4440014" lon="8.1098403"><ele>265.0</ele><time>2026-03-29T11:45:48.134Z</time></trkpt><trkpt lat="45.4439768" lon="8.1100584"><ele>265.0</ele><time>2026-03-29T11:45:49.13Z</time></trkpt><trkpt lat="45.4439532" lon="8.1102794"><ele>263.75</ele><time>2026-03-29T11:45:50.127Z</time></trkpt><trkpt lat="45.4439273" lon="8.110492"><ele>262.5</ele><time>2026-03-29T11:45:51.154Z</time></trkpt><trkpt lat="45.4438985" lon="8.110699"><ele>261.25</ele><time>2026-03-29T11:45:52.127Z</time></trkpt><trkpt lat="45.4438725" lon="8.1108863"><ele>260.0</ele><time>2026-03-29T11:45:53.135Z</time></trkpt><trkpt lat="45.4438609" lon="8.1110468"><ele>259.75</ele><time>2026-03-29T11:45:54.124Z</time></trkpt><trkpt lat="45.4438721" lon="8.1111904"><ele>259.5</ele><time>2026-03-29T11:45:55.131Z</time></trkpt><trkpt lat="45.4439281" lon="8.1113393"><ele>259.25</ele><time>2026-03-29T11:45:56.125Z</time></trkpt><trkpt lat="45.443998" lon="8.1114824"><ele>259.0</ele><time>2026-03-29T11:45:57.137Z</time></trkpt><trkpt lat="45.4440793" lon="8.1116171"><ele>258.2</ele><time>2026-03-29T11:45:58.13Z</time></trkpt><trkpt lat="45.4441662" lon="8.1117429"><ele>257.4</ele><time>2026-03-29T11:45:59.134Z</time></trkpt><trkpt lat="45.4442429" lon="8.1118519"><ele>256.6</ele><time>2026-03-29T11:46:00.132Z</time></trkpt><trkpt lat="45.444308" lon="8.1119599"><ele>255.8</ele><time>2026-03-29T11:46:01.124Z</time></trkpt><trkpt lat="45.4443778" lon="8.1120502"><ele>255.0</ele><time>2026-03-29T11:46:02.121Z</time></trkpt><trkpt lat="45.4444315" lon="8.1121186"><ele>255.0</ele><time>2026-03-29T11:46:03.146Z</time></trkpt><trkpt lat="45.4445046" lon="8.1123145"><ele>255.0</ele><time>2026-03-29T11:46:43.131Z</time></trkpt><trkpt lat="45.444613" lon="8.1124304"><ele>255.0</ele><time>2026-03-29T11:46:45.122Z</time></trkpt><trkpt lat="45.4446594" lon="8.1124991"><ele>255.0</ele><time>2026-03-29T11:46:46.137Z</time></trkpt><trkpt lat="45.4447225" lon="8.1125958"><ele>253.16666666666666</ele><time>2026-03-29T11:46:48.158Z</time></trkpt><trkpt lat="45.4446663" lon="8.112649"><ele>251.33333333333331</ele><time>2026-03-29T11:46:52.123Z</time></trkpt><trkpt lat="45.4446315" lon="8.1125461"><ele>249.5</ele><time>2026-03-29T11:46:55.125Z</time></trkpt><trkpt lat="45.4446409" lon="8.1126448"><ele>247.66666666666666</ele><time>2026-03-29T11:47:32.133Z</time></trkpt><trkpt lat="45.4447007" lon="8.112727"><ele>245.83333333333331</ele><time>2026-03-29T11:47:33.129Z</time></trkpt><trkpt lat="45.444755" lon="8.1128075"><ele>244.0</ele><time>2026-03-29T11:47:34.127Z</time></trkpt><trkpt lat="45.4448121" lon="8.1128677"><ele>244.0</ele><time>2026-03-29T11:47:35.134Z</time></trkpt><trkpt lat="45.4448767" lon="8.1129211"><ele>243.99999999999997</ele><time>2026-03-29T11:47:36.126Z</time></trkpt><trkpt lat="45.4449532" lon="8.1129925"><ele>243.99999999999997</ele><time>2026-03-29T11:47:37.131Z</time></trkpt><trkpt lat="45.4450358" lon="8.1130851"><ele>244.0</ele><time>2026-03-29T11:47:38.132Z</time></trkpt><trkpt lat="45.445117" lon="8.1132219"><ele>244.0</ele><time>2026-03-29T11:47:39.157Z</time></trkpt><trkpt lat="45.4451986" lon="8.1133751"><ele>243.6</ele><time>2026-03-29T11:47:40.133Z</time></trkpt><trkpt lat="45.4452791" lon="8.1135101"><ele>243.2</ele><time>2026-03-29T11:47:41.127Z</time></trkpt><trkpt lat="45.4453493" lon="8.1136222"><ele>242.79999999999998</ele><time>2026-03-29T11:47:42.122Z</time></trkpt><trkpt lat="45.4454234" lon="8.1137001"><ele>242.39999999999998</ele><time>2026-03-29T11:47:43.126Z</time></trkpt><trkpt lat="45.4455028" lon="8.1137479"><ele>242.0</ele><time>2026-03-29T11:47:44.142Z</time></trkpt><trkpt lat="45.4455975" lon="8.1137671"><ele>240.25</ele><time>2026-03-29T11:47:45.132Z</time></trkpt><trkpt lat="45.4457143" lon="8.1137259"><ele>238.5</ele><time>2026-03-29T11:47:46.125Z</time></trkpt><trkpt lat="45.4458538" lon="8.1136715"><ele>236.75</ele><time>2026-03-29T11:47:47.126Z</time></trkpt><trkpt lat="45.4459867" lon="8.1136138"><ele>235.0</ele><time>2026-03-29T11:47:48.118Z</time></trkpt><trkpt lat="45.446116" lon="8.113545"><ele>235.0</ele><time>2026-03-29T11:47:49.129Z</time></trkpt><trkpt lat="45.4462156" lon="8.1134931"><ele>235.0</ele><time>2026-03-29T11:47:50.137Z</time></trkpt><trkpt lat="45.4463109" lon="8.1134768"><ele>235.0</ele><time>2026-03-29T11:47:52.134Z</time></trkpt><trkpt lat="45.4463474" lon="8.1135906"><ele>235.0</ele><time>2026-03-29T11:47:54.149Z</time></trkpt><trkpt lat="45.4463125" lon="8.1136851"><ele>235.0</ele><time>2026-03-29T11:47:55.133Z</time></trkpt><trkpt lat="45.4462524" lon="8.1138037"><ele>235.0</ele><time>2026-03-29T11:47:56.146Z</time></trkpt><trkpt lat="45.4461602" lon="8.1139352"><ele>235.0</ele><time>2026-03-29T11:47:57.132Z</time></trkpt><trkpt lat="45.4460729" lon="8.1140641"><ele>235.0</ele><time>2026-03-29T11:47:58.131Z</time></trkpt><trkpt lat="45.4459814" lon="8.1141698"><ele>235.0</ele><time>2026-03-29T11:47:59.13Z</time></trkpt><trkpt lat="45.4458936" lon="8.1142615"><ele>233.99999999999997</ele><time>2026-03-29T11:48:00.137Z</time></trkpt><trkpt lat="45.4458153" lon="8.1143653"><ele>233.0</ele><time>2026-03-29T11:48:01.147Z</time></trkpt><trkpt lat="45.4457397" lon="8.1144441"><ele>232.0</ele><time>2026-03-29T11:48:02.143Z</time></trkpt><trkpt lat="45.4456781" lon="8.1145019"><ele>231.0</ele><time>2026-03-29T11:48:03.132Z</time></trkpt><trkpt lat="45.445623" lon="8.1145573"><ele>229.99999999999997</ele><time>2026-03-29T11:48:04.133Z</time></trkpt><trkpt lat="45.4455592" lon="8.1146807"><ele>229.0</ele><time>2026-03-29T11:48:06.14Z</time></trkpt><trkpt lat="45.4455281" lon="8.1148339"><ele>228.39999999999998</ele><time>2026-03-29T11:48:08.13Z</time></trkpt><trkpt lat="45.4454637" lon="8.1149497"><ele>227.79999999999998</ele><time>2026-03-29T11:48:10.145Z</time></trkpt><trkpt lat="45.445349" lon="8.1149942"><ele>227.20000000000002</ele><time>2026-03-29T11:48:12.139Z</time></trkpt><trkpt lat="45.4452839" lon="8.1150159"><ele>226.60000000000002</ele><time>2026-03-29T11:48:13.146Z</time></trkpt><trkpt lat="45.4452194" lon="8.1151191"><ele>226.0</ele><time>2026-03-29T11:48:15.122Z</time></trkpt><trkpt lat="45.4452115" lon="8.1152133"><ele>226.0</ele><time>2026-03-29T11:48:16.141Z</time></trkpt><trkpt lat="45.4452056" lon="8.1153375"><ele>226.00000000000003</ele><time>2026-03-29T11:48:17.137Z</time></trkpt><trkpt lat="45.4451944" lon="8.1154787"><ele>226.00000000000003</ele><time>2026-03-29T11:48:18.139Z</time></trkpt><trkpt lat="45.4451853" lon="8.1156223"><ele>226.0</ele><time>2026-03-29T11:48:19.135Z</time></trkpt><trkpt lat="45.4451848" lon="8.1157705"><ele>226.0</ele><time>2026-03-29T11:48:20.129Z</time></trkpt><trkpt lat="45.4451899" lon="8.1159271"><ele>225.25</ele><time>2026-03-29T11:48:21.13Z</time></trkpt><trkpt lat="45.445206" lon="8.1160867"><ele>224.5</ele><time>2026-03-29T11:48:22.133Z</time></trkpt><trkpt lat="45.4452218" lon="8.1162499"><ele>223.75</ele><time>2026-03-29T11:48:23.128Z</time></trkpt><trkpt lat="45.445241" lon="8.1164129"><ele>223.0</ele><time>2026-03-29T11:48:24.132Z</time></trkpt><trkpt lat="45.4452549" lon="8.1165694"><ele>222.60000000000002</ele><time>2026-03-29T11:48:25.121Z</time></trkpt><trkpt lat="45.4452705" lon="8.1167234"><ele>222.20000000000002</ele><time>2026-03-29T11:48:26.125Z</time></trkpt><trkpt lat="45.4452948" lon="8.1168696"><ele>221.8</ele><time>2026-03-29T11:48:27.134Z</time></trkpt><trkpt lat="45.4453255" lon="8.1170077"><ele>221.4</ele><time>2026-03-29T11:48:28.141Z</time></trkpt><trkpt lat="45.4453542" lon="8.1171318"><ele>221.0</ele><time>2026-03-29T11:48:29.122Z</time></trkpt><trkpt lat="45.4453838" lon="8.117233"><ele>221.0</ele><time>2026-03-29T11:48:30.135Z</time></trkpt><trkpt lat="45.4453936" lon="8.1173235"><ele>221.00000000000003</ele><time>2026-03-29T11:48:31.127Z</time></trkpt><trkpt lat="45.4453655" lon="8.1174888"><ele>221.00000000000003</ele><time>2026-03-29T11:48:33.132Z</time></trkpt><trkpt lat="45.4452854" lon="8.1176334"><ele>221.0</ele><time>2026-03-29T11:48:35.13Z</time></trkpt><trkpt lat="45.4452292" lon="8.1177111"><ele>221.0</ele><time>2026-03-29T11:48:36.132Z</time></trkpt><trkpt lat="45.4451675" lon="8.1177631"><ele>221.0</ele><time>2026-03-29T11:48:37.137Z</time></trkpt><trkpt lat="45.4450888" lon="8.1178271"><ele>221.00000000000003</ele><time>2026-03-29T11:48:38.136Z</time></trkpt><trkpt lat="45.4450131" lon="8.1179131"><ele>221.00000000000003</ele><time>2026-03-29T11:48:39.156Z</time></trkpt><trkpt lat="45.4449577" lon="8.1180058"><ele>221.0</ele><time>2026-03-29T11:48:40.139Z</time></trkpt><trkpt lat="45.4449103" lon="8.1181131"><ele>221.0</ele><time>2026-03-29T11:48:41.153Z</time></trkpt><trkpt lat="45.4448651" lon="8.1182482"><ele>221.0</ele><time>2026-03-29T11:48:42.133Z</time></trkpt><trkpt lat="45.4448275" lon="8.1183911"><ele>221.0</ele><time>2026-03-29T11:48:43.139Z</time></trkpt><trkpt lat="45.4447949" lon="8.1185504"><ele>221.0</ele><time>2026-03-29T11:48:44.135Z</time></trkpt><trkpt lat="45.4447739" lon="8.1187207"><ele>221.0</ele><time>2026-03-29T11:48:45.138Z</time></trkpt><trkpt lat="45.4447574" lon="8.118891"><ele>221.0</ele><time>2026-03-29T11:48:46.145Z</time></trkpt><trkpt lat="45.4447431" lon="8.1190536"><ele>221.00000000000003</ele><time>2026-03-29T11:48:47.123Z</time></trkpt><trkpt lat="45.4447357" lon="8.1192148"><ele>221.00000000000003</ele><time>2026-03-29T11:48:48.137Z</time></trkpt><trkpt lat="45.4447264" lon="8.1193632"><ele>221.0</ele><time>2026-03-29T11:48:49.132Z</time></trkpt><trkpt lat="45.4447042" lon="8.1194892"><ele>221.0</ele><time>2026-03-29T11:48:50.133Z</time></trkpt><trkpt lat="45.4446752" lon="8.119593"><ele>221.20000000000002</ele><time>2026-03-29T11:48:51.153Z</time></trkpt><trkpt lat="45.4446345" lon="8.1196864"><ele>221.40000000000003</ele><time>2026-03-29T11:48:52.135Z</time></trkpt><trkpt lat="45.4445751" lon="8.1197956"><ele>221.6</ele><time>2026-03-29T11:48:53.134Z</time></trkpt><trkpt lat="45.444504" lon="8.1199242"><ele>221.8</ele><time>2026-03-29T11:48:54.145Z</time></trkpt><trkpt lat="45.4444373" lon="8.1200483"><ele>222.0</ele><time>2026-03-29T11:48:55.134Z</time></trkpt><trkpt lat="45.4443735" lon="8.120158"><ele>221.39999999999998</ele><time>2026-03-29T11:48:56.129Z</time></trkpt><trkpt lat="45.4443181" lon="8.1202798"><ele>220.79999999999998</ele><time>2026-03-29T11:48:57.126Z</time></trkpt><trkpt lat="45.4442692" lon="8.1204098"><ele>220.2</ele><time>2026-03-29T11:48:58.142Z</time></trkpt><trkpt lat="45.4442125" lon="8.1205517"><ele>219.6</ele><time>2026-03-29T11:48:59.135Z</time></trkpt><trkpt lat="45.4441458" lon="8.1207004"><ele>219.0</ele><time>2026-03-29T11:49:00.116Z</time></trkpt><trkpt lat="45.4440576" lon="8.1208788"><ele>219.0</ele><time>2026-03-29T11:49:01.142Z</time></trkpt><trkpt lat="45.44397" lon="8.1210559"><ele>219.0</ele><time>2026-03-29T11:49:02.128Z</time></trkpt><trkpt lat="45.4438916" lon="8.1212159"><ele>219.0</ele><time>2026-03-29T11:49:03.146Z</time></trkpt><trkpt lat="45.4438177" lon="8.1213554"><ele>219.0</ele><time>2026-03-29T11:49:04.136Z</time></trkpt><trkpt lat="45.4437442" lon="8.1214899"><ele>218.79999999999998</ele><time>2026-03-29T11:49:05.122Z</time></trkpt><trkpt lat="45.4436708" lon="8.1216192"><ele>218.59999999999997</ele><time>2026-03-29T11:49:06.128Z</time></trkpt><trkpt lat="45.4436065" lon="8.1217405"><ele>218.4</ele><time>2026-03-29T11:49:07.139Z</time></trkpt><trkpt lat="45.4435484" lon="8.1218731"><ele>218.2</ele><time>2026-03-29T11:49:08.129Z</time></trkpt><trkpt lat="45.4435051" lon="8.1220047"><ele>218.0</ele><time>2026-03-29T11:49:09.143Z</time></trkpt><trkpt lat="45.4434607" lon="8.1221539"><ele>218.0</ele><time>2026-03-29T11:49:10.122Z</time></trkpt><trkpt lat="45.4434203" lon="8.1223147"><ele>218.0</ele><time>2026-03-29T11:49:11.132Z</time></trkpt><trkpt lat="45.4433838" lon="8.1224622"><ele>218.0</ele><time>2026-03-29T11:49:12.135Z</time></trkpt><trkpt lat="45.4433406" lon="8.1225909"><ele>218.0</ele><time>2026-03-29T11:49:13.14Z</time></trkpt><trkpt lat="45.4432786" lon="8.1227236"><ele>218.0</ele><time>2026-03-29T11:49:14.129Z</time></trkpt><trkpt lat="45.4432132" lon="8.1228675"><ele>217.75</ele><time>2026-03-29T11:49:15.138Z</time></trkpt><trkpt lat="45.4431425" lon="8.1230237"><ele>217.5</ele><time>2026-03-29T11:49:16.155Z</time></trkpt><trkpt lat="45.443069" lon="8.1231822"><ele>217.25</ele><time>2026-03-29T11:49:17.136Z</time></trkpt><trkpt lat="45.4430019" lon="8.1233284"><ele>217.0</ele><time>2026-03-29T11:49:18.137Z</time></trkpt><trkpt lat="45.4429395" lon="8.1234712"><ele>216.8</ele><time>2026-03-29T11:49:19.148Z</time></trkpt><trkpt lat="45.4428821" lon="8.1236074"><ele>216.6</ele><time>2026-03-29T11:49:20.119Z</time></trkpt><trkpt lat="45.4428269" lon="8.1237354"><ele>216.40000000000003</ele><time>2026-03-29T11:49:21.151Z</time></trkpt><trkpt lat="45.4427745" lon="8.1238553"><ele>216.20000000000002</ele><time>2026-03-29T11:49:22.126Z</time></trkpt><trkpt lat="45.4427173" lon="8.1239577"><ele>216.0</ele><time>2026-03-29T11:49:23.132Z</time></trkpt><trkpt lat="45.4426569" lon="8.1240412"><ele>216.0</ele><time>2026-03-29T11:49:24.129Z</time></trkpt><trkpt lat="45.4425997" lon="8.1240878"><ele>216.0</ele><time>2026-03-29T11:49:25.134Z</time></trkpt><trkpt lat="45.4425354" lon="8.124112"><ele>216.0</ele><time>2026-03-29T11:49:26.138Z</time></trkpt><trkpt lat="45.4424455" lon="8.1241241"><ele>216.0</ele><time>2026-03-29T11:49:27.13Z</time></trkpt><trkpt lat="45.4423327" lon="8.1241394"><ele>216.0</ele><time>2026-03-29T11:49:28.124Z</time></trkpt><trkpt lat="45.4422209" lon="8.1241588"><ele>216.0</ele><time>2026-03-29T11:49:29.123Z</time></trkpt><trkpt lat="45.4421264" lon="8.1242053"><ele>216.0</ele><time>2026-03-29T11:49:30.149Z</time></trkpt><trkpt lat="45.4420389" lon="8.1242845"><ele>216.00000000000003</ele><time>2026-03-29T11:49:31.15Z</time></trkpt><trkpt lat="45.4419571" lon="8.1243726"><ele>216.00000000000003</ele><time>2026-03-29T11:49:32.172Z</time></trkpt><trkpt lat="45.4418794" lon="8.1244791"><ele>216.0</ele><time>2026-03-29T11:49:33.138Z</time></trkpt><trkpt lat="45.4418064" lon="8.1246091"><ele>216.0</ele><time>2026-03-29T11:49:34.125Z</time></trkpt><trkpt lat="45.4417359" lon="8.1247556"><ele>216.0</ele><time>2026-03-29T11:49:35.128Z</time></trkpt><trkpt lat="45.4416584" lon="8.1249115"><ele>216.0</ele><time>2026-03-29T11:49:36.134Z</time></trkpt><trkpt lat="45.4415821" lon="8.1250669"><ele>216.0</ele><time>2026-03-29T11:49:37.125Z</time></trkpt><trkpt lat="45.4415083" lon="8.1252157"><ele>216.0</ele><time>2026-03-29T11:49:38.134Z</time></trkpt><trkpt lat="45.441447" lon="8.125356"><ele>216.0</ele><time>2026-03-29T11:49:39.137Z</time></trkpt><trkpt lat="45.4413835" lon="8.1254811"><ele>216.0</ele><time>2026-03-29T11:49:40.13Z</time></trkpt><trkpt lat="45.4413049" lon="8.1255978"><ele>216.0</ele><time>2026-03-29T11:49:41.137Z</time></trkpt><trkpt lat="45.4412166" lon="8.1257179"><ele>216.0</ele><time>2026-03-29T11:49:42.129Z</time></trkpt><trkpt lat="45.4411433" lon="8.1258522"><ele>216.0</ele><time>2026-03-29T11:49:43.139Z</time></trkpt><trkpt lat="45.4410821" lon="8.1260075"><ele>216.0</ele><time>2026-03-29T11:49:44.142Z</time></trkpt><trkpt lat="45.4410262" lon="8.1261514"><ele>216.0</ele><time>2026-03-29T11:49:45.137Z</time></trkpt><trkpt lat="45.4409682" lon="8.1262999"><ele>216.0</ele><time>2026-03-29T11:49:46.126Z</time></trkpt><trkpt lat="45.440896" lon="8.126461"><ele>215.5</ele><time>2026-03-29T11:49:47.129Z</time></trkpt><trkpt lat="45.4408224" lon="8.1266171"><ele>215.0</ele><time>2026-03-29T11:49:48.149Z</time></trkpt><trkpt lat="45.4407451" lon="8.1267666"><ele>214.5</ele><time>2026-03-29T11:49:49.137Z</time></trkpt><trkpt lat="45.4406512" lon="8.1269115"><ele>214.0</ele><time>2026-03-29T11:49:50.154Z</time></trkpt><trkpt lat="45.4405593" lon="8.1270434"><ele>213.99999999999997</ele><time>2026-03-29T11:49:51.135Z</time></trkpt><trkpt lat="45.4404715" lon="8.1271471"><ele>214.0</ele><time>2026-03-29T11:49:52.134Z</time></trkpt><trkpt lat="45.4404003" lon="8.1272205"><ele>214.0</ele><time>2026-03-29T11:49:53.123Z</time></trkpt><trkpt lat="45.4403332" lon="8.1272858"><ele>214.0</ele><time>2026-03-29T11:49:54.145Z</time></trkpt><trkpt lat="45.4402631" lon="8.1273334"><ele>213.99999999999997</ele><time>2026-03-29T11:49:55.134Z</time></trkpt><trkpt lat="45.4401805" lon="8.1273524"><ele>214.0</ele><time>2026-03-29T11:49:56.128Z</time></trkpt><trkpt lat="45.4400798" lon="8.1273556"><ele>214.0</ele><time>2026-03-29T11:49:57.126Z</time></trkpt><trkpt lat="45.4399516" lon="8.127377"><ele>214.0</ele><time>2026-03-29T11:49:58.142Z</time></trkpt><trkpt lat="45.4398167" lon="8.127404"><ele>214.0</ele><time>2026-03-29T11:49:59.133Z</time></trkpt><trkpt lat="45.4397022" lon="8.1274469"><ele>214.0</ele><time>2026-03-29T11:50:00.138Z</time></trkpt><trkpt lat="45.4396101" lon="8.1274915"><ele>213.5</ele><time>2026-03-29T11:50:01.136Z</time></trkpt><trkpt lat="45.4395131" lon="8.1275457"><ele>213.0</ele><time>2026-03-29T11:50:02.126Z</time></trkpt><trkpt lat="45.4394065" lon="8.1276393"><ele>212.5</ele><time>2026-03-29T11:50:03.129Z</time></trkpt><trkpt lat="45.4393016" lon="8.1277479"><ele>212.0</ele><time>2026-03-29T11:50:04.13Z</time></trkpt><trkpt lat="45.439193" lon="8.1278843"><ele>212.0</ele><time>2026-03-29T11:50:05.144Z</time></trkpt><trkpt lat="45.4390822" lon="8.1280293"><ele>212.0</ele><time>2026-03-29T11:50:06.133Z</time></trkpt><trkpt lat="45.4389927" lon="8.1281608"><ele>212.0</ele><time>2026-03-29T11:50:07.134Z</time></trkpt><trkpt lat="45.4389136" lon="8.1282843"><ele>212.0</ele><time>2026-03-29T11:50:08.125Z</time></trkpt><trkpt lat="45.4388346" lon="8.1284234"><ele>212.0</ele><time>2026-03-29T11:50:09.132Z</time></trkpt><trkpt lat="45.4387616" lon="8.1285487"><ele>212.0</ele><time>2026-03-29T11:50:10.145Z</time></trkpt><trkpt lat="45.4386913" lon="8.1286583"><ele>212.0</ele><time>2026-03-29T11:50:11.131Z</time></trkpt><trkpt lat="45.4386117" lon="8.1287566"><ele>212.0</ele><time>2026-03-29T11:50:12.126Z</time></trkpt><trkpt lat="45.4385301" lon="8.1288316"><ele>212.0</ele><time>2026-03-29T11:50:13.127Z</time></trkpt><trkpt lat="45.4384473" lon="8.1288974"><ele>212.0</ele><time>2026-03-29T11:50:14.13Z</time></trkpt><trkpt lat="45.4383462" lon="8.1289549"><ele>212.0</ele><time>2026-03-29T11:50:15.157Z</time></trkpt><trkpt lat="45.4382347" lon="8.1290098"><ele>212.0</ele><time>2026-03-29T11:50:16.138Z</time></trkpt><trkpt lat="45.4381358" lon="8.1290592"><ele>212.0</ele><time>2026-03-29T11:50:17.147Z</time></trkpt><trkpt lat="45.4380497" lon="8.1291233"><ele>212.0</ele><time>2026-03-29T11:50:18.138Z</time></trkpt><trkpt lat="45.4379754" lon="8.1292027"><ele>211.5</ele><time>2026-03-29T11:50:19.131Z</time></trkpt><trkpt lat="45.4379117" lon="8.1293223"><ele>211.0</ele><time>2026-03-29T11:50:20.136Z</time></trkpt><trkpt lat="45.4378421" lon="8.1294793"><ele>210.5</ele><time>2026-03-29T11:50:21.131Z</time></trkpt><trkpt lat="45.4377641" lon="8.1296692"><ele>210.0</ele><time>2026-03-29T11:50:22.157Z</time></trkpt><trkpt lat="45.4376802" lon="8.1298613"><ele>210.5</ele><time>2026-03-29T11:50:23.136Z</time></trkpt><trkpt lat="45.4376086" lon="8.1300266"><ele>211.0</ele><time>2026-03-29T11:50:24.138Z</time></trkpt><trkpt lat="45.4375508" lon="8.1301774"><ele>211.5</ele><time>2026-03-29T11:50:25.127Z</time></trkpt><trkpt lat="45.4375017" lon="8.1303151"><ele>212.0</ele><time>2026-03-29T11:50:26.14Z</time></trkpt><trkpt lat="45.4374268" lon="8.1304355"><ele>212.0</ele><time>2026-03-29T11:50:27.14Z</time></trkpt><trkpt lat="45.4373391" lon="8.1305434"><ele>212.0</ele><time>2026-03-29T11:50:28.146Z</time></trkpt><trkpt lat="45.4372433" lon="8.1306574"><ele>212.0</ele><time>2026-03-29T11:50:29.135Z</time></trkpt><trkpt lat="45.4371357" lon="8.1307674"><ele>212.0</ele><time>2026-03-29T11:50:30.131Z</time></trkpt><trkpt lat="45.4370304" lon="8.1309135"><ele>211.66666666666669</ele><time>2026-03-29T11:50:31.131Z</time></trkpt><trkpt lat="45.43693" lon="8.1310865"><ele>211.33333333333331</ele><time>2026-03-29T11:50:32.132Z</time></trkpt><trkpt lat="45.4368297" lon="8.1312709"><ele>211.0</ele><time>2026-03-29T11:50:33.135Z</time></trkpt><trkpt lat="45.4367366" lon="8.1314654"><ele>211.0</ele><time>2026-03-29T11:50:34.136Z</time></trkpt><trkpt lat="45.4366443" lon="8.1316501"><ele>211.0</ele><time>2026-03-29T11:50:35.136Z</time></trkpt><trkpt lat="45.4365614" lon="8.1318092"><ele>211.0</ele><time>2026-03-29T11:50:36.131Z</time></trkpt><trkpt lat="45.4364799" lon="8.1319687"><ele>211.0</ele><time>2026-03-29T11:50:37.136Z</time></trkpt><trkpt lat="45.4363978" lon="8.1321243"><ele>211.0</ele><time>2026-03-29T11:50:38.14Z</time></trkpt><trkpt lat="45.4363177" lon="8.1322696"><ele>211.0</ele><time>2026-03-29T11:50:39.131Z</time></trkpt><trkpt lat="45.436232" lon="8.1324168"><ele>211.0</ele><time>2026-03-29T11:50:40.154Z</time></trkpt><trkpt lat="45.4361387" lon="8.1325773"><ele>211.0</ele><time>2026-03-29T11:50:41.141Z</time></trkpt><trkpt lat="45.4360385" lon="8.1327568"><ele>210.75</ele><time>2026-03-29T11:50:42.129Z</time></trkpt><trkpt lat="45.4359425" lon="8.1329233"><ele>210.5</ele><time>2026-03-29T11:50:43.132Z</time></trkpt><trkpt lat="45.4358537" lon="8.1330826"><ele>210.25</ele><time>2026-03-29T11:50:44.139Z</time></trkpt><trkpt lat="45.435773" lon="8.1332187"><ele>210.0</ele><time>2026-03-29T11:50:45.125Z</time></trkpt><trkpt lat="45.4357079" lon="8.1333362"><ele>209.83333333333334</ele><time>2026-03-29T11:50:46.132Z</time></trkpt><trkpt lat="45.4356513" lon="8.1334324"><ele>209.66666666666669</ele><time>2026-03-29T11:50:47.13Z</time></trkpt><trkpt lat="45.4356083" lon="8.1335169"><ele>209.5</ele><time>2026-03-29T11:50:48.127Z</time></trkpt><trkpt lat="45.4355282" lon="8.1336496"><ele>209.33333333333334</ele><time>2026-03-29T11:50:50.117Z</time></trkpt><trkpt lat="45.4354745" lon="8.133733"><ele>209.16666666666669</ele><time>2026-03-29T11:50:51.105Z</time></trkpt><trkpt lat="45.4354104" lon="8.1338132"><ele>209.0</ele><time>2026-03-29T11:50:52.112Z</time></trkpt><trkpt lat="45.4353326" lon="8.1338902"><ele>209.75</ele><time>2026-03-29T11:50:53.111Z</time></trkpt><trkpt lat="45.4352357" lon="8.1339553"><ele>210.5</ele><time>2026-03-29T11:50:54.143Z</time></trkpt><trkpt lat="45.4351257" lon="8.1340405"><ele>211.25</ele><time>2026-03-29T11:50:55.12Z</time></trkpt><trkpt lat="45.4350174" lon="8.1341358"><ele>212.0</ele><time>2026-03-29T11:50:56.105Z</time></trkpt><trkpt lat="45.4349082" lon="8.1342304"><ele>212.0</ele><time>2026-03-29T11:50:57.124Z</time></trkpt><trkpt lat="45.4348085" lon="8.1343221"><ele>212.0</ele><time>2026-03-29T11:50:58.125Z</time></trkpt><trkpt lat="45.4347041" lon="8.1344243"><ele>212.0</ele><time>2026-03-29T11:50:59.103Z</time></trkpt><trkpt lat="45.434595" lon="8.1345315"><ele>212.0</ele><time>2026-03-29T11:51:00.142Z</time></trkpt><trkpt lat="45.4345114" lon="8.1346281"><ele>212.0</ele><time>2026-03-29T11:51:01.133Z</time></trkpt><trkpt lat="45.4344412" lon="8.1347234"><ele>212.0</ele><time>2026-03-29T11:51:02.105Z</time></trkpt><trkpt lat="45.4343859" lon="8.1348237"><ele>212.0</ele><time>2026-03-29T11:51:03.141Z</time></trkpt><trkpt lat="45.4343421" lon="8.1349445"><ele>212.0</ele><time>2026-03-29T11:51:04.14Z</time></trkpt><trkpt lat="45.434313" lon="8.1351171"><ele>212.0</ele><time>2026-03-29T11:51:05.116Z</time></trkpt><trkpt lat="45.4342711" lon="8.1352935"><ele>212.0</ele><time>2026-03-29T11:51:06.127Z</time></trkpt><trkpt lat="45.4342337" lon="8.1354532"><ele>212.0</ele><time>2026-03-29T11:51:07.124Z</time></trkpt><trkpt lat="45.4342019" lon="8.1356058"><ele>212.0</ele><time>2026-03-29T11:51:08.127Z</time></trkpt><trkpt lat="45.4341617" lon="8.1357401"><ele>212.0</ele><time>2026-03-29T11:51:09.141Z</time></trkpt><trkpt lat="45.4341217" lon="8.1358712"><ele>212.0</ele><time>2026-03-29T11:51:10.124Z</time></trkpt><trkpt lat="45.4340887" lon="8.1359929"><ele>211.8</ele><time>2026-03-29T11:51:11.127Z</time></trkpt><trkpt lat="45.4340635" lon="8.1361278"><ele>211.6</ele><time>2026-03-29T11:51:12.124Z</time></trkpt><trkpt lat="45.4340406" lon="8.1362774"><ele>211.4</ele><time>2026-03-29T11:51:13.128Z</time></trkpt><trkpt lat="45.4340277" lon="8.1364186"><ele>211.20000000000002</ele><time>2026-03-29T11:51:14.122Z</time></trkpt><trkpt lat="45.4340233" lon="8.1365592"><ele>211.0</ele><time>2026-03-29T11:51:15.14Z</time></trkpt><trkpt lat="45.4340213" lon="8.1366811"><ele>211.0</ele><time>2026-03-29T11:51:16.127Z</time></trkpt><trkpt lat="45.434023" lon="8.1368192"><ele>211.0</ele><time>2026-03-29T11:51:17.151Z</time></trkpt><trkpt lat="45.4340241" lon="8.1369709"><ele>211.0</ele><time>2026-03-29T11:51:18.141Z</time></trkpt><trkpt lat="45.4340242" lon="8.1371211"><ele>211.0</ele><time>2026-03-29T11:51:19.141Z</time></trkpt><trkpt lat="45.4340339" lon="8.1372482"><ele>211.0</ele><time>2026-03-29T11:51:20.156Z</time></trkpt><trkpt lat="45.4340325" lon="8.1373476"><ele>210.8</ele><time>2026-03-29T11:51:21.134Z</time></trkpt><trkpt lat="45.4340099" lon="8.1374984"><ele>210.60000000000002</ele><time>2026-03-29T11:51:23.121Z</time></trkpt><trkpt lat="45.4339556" lon="8.1376497"><ele>210.4</ele><time>2026-03-29T11:51:25.14Z</time></trkpt><trkpt lat="45.4339009" lon="8.1377724"><ele>210.2</ele><time>2026-03-29T11:51:26.128Z</time></trkpt><trkpt lat="45.4338492" lon="8.1379044"><ele>210.0</ele><time>2026-03-29T11:51:27.155Z</time></trkpt><trkpt lat="45.4338031" lon="8.1380239"><ele>210.0</ele><time>2026-03-29T11:51:28.138Z</time></trkpt><trkpt lat="45.4337558" lon="8.1381204"><ele>210.0</ele><time>2026-03-29T11:51:29.134Z</time></trkpt><trkpt lat="45.4337002" lon="8.1382308"><ele>210.0</ele><time>2026-03-29T11:51:30.154Z</time></trkpt><trkpt lat="45.433649" lon="8.1383185"><ele>210.0</ele><time>2026-03-29T11:51:31.133Z</time></trkpt><trkpt lat="45.4335884" lon="8.1383914"><ele>210.0</ele><time>2026-03-29T11:51:32.137Z</time></trkpt><trkpt lat="45.4335357" lon="8.1384424"><ele>210.0</ele><time>2026-03-29T11:51:33.134Z</time></trkpt><trkpt lat="45.4334866" lon="8.1385129"><ele>209.83333333333334</ele><time>2026-03-29T11:51:35.135Z</time></trkpt><trkpt lat="45.4334755" lon="8.1386049"><ele>209.66666666666669</ele><time>2026-03-29T11:51:38.138Z</time></trkpt><trkpt lat="45.4335597" lon="8.1387651"><ele>209.5</ele><time>2026-03-29T11:51:40.143Z</time></trkpt><trkpt lat="45.4336168" lon="8.1388525"><ele>209.33333333333334</ele><time>2026-03-29T11:51:41.131Z</time></trkpt><trkpt lat="45.433669" lon="8.1389224"><ele>209.16666666666669</ele><time>2026-03-29T11:51:42.133Z</time></trkpt><trkpt lat="45.4337289" lon="8.1389917"><ele>209.0</ele><time>2026-03-29T11:51:44.134Z</time></trkpt><trkpt lat="45.4337996" lon="8.1391115"><ele>208.66666666666669</ele><time>2026-03-29T11:51:46.126Z</time></trkpt><trkpt lat="45.4338695" lon="8.1392353"><ele>208.33333333333334</ele><time>2026-03-29T11:51:48.134Z</time></trkpt><trkpt lat="45.4339075" lon="8.139325"><ele>208.0</ele><time>2026-03-29T11:51:49.139Z</time></trkpt><trkpt lat="45.4339705" lon="8.1394661"><ele>207.66666666666669</ele><time>2026-03-29T11:51:51.148Z</time></trkpt><trkpt lat="45.4340084" lon="8.13954"><ele>207.33333333333334</ele><time>2026-03-29T11:51:52.126Z</time></trkpt><trkpt lat="45.4340518" lon="8.1396171"><ele>207.0</ele><time>2026-03-29T11:51:53.139Z</time></trkpt><trkpt lat="45.4340924" lon="8.1396932"><ele>207.0</ele><time>2026-03-29T11:51:54.139Z</time></trkpt><trkpt lat="45.4341363" lon="8.1397804"><ele>207.0</ele><time>2026-03-29T11:51:55.146Z</time></trkpt><trkpt lat="45.4341805" lon="8.1398634"><ele>207.0</ele><time>2026-03-29T11:51:56.151Z</time></trkpt><trkpt lat="45.4342253" lon="8.1399439"><ele>207.0</ele><time>2026-03-29T11:51:57.132Z</time></trkpt><trkpt lat="45.4342807" lon="8.1400349"><ele>207.0</ele><time>2026-03-29T11:51:58.128Z</time></trkpt><trkpt lat="45.4343277" lon="8.1401097"><ele>207.0</ele><time>2026-03-29T11:51:59.123Z</time></trkpt><trkpt lat="45.4343976" lon="8.1402355"><ele>207.16666666666666</ele><time>2026-03-29T11:52:01.128Z</time></trkpt><trkpt lat="45.4344434" lon="8.1403648"><ele>207.33333333333331</ele><time>2026-03-29T11:52:03.154Z</time></trkpt><trkpt lat="45.4344658" lon="8.140489"><ele>207.5</ele><time>2026-03-29T11:52:05.148Z</time></trkpt><trkpt lat="45.4344788" lon="8.1406062"><ele>207.66666666666666</ele><time>2026-03-29T11:52:07.125Z</time></trkpt><trkpt lat="45.4344643" lon="8.1407037"><ele>207.83333333333331</ele><time>2026-03-29T11:52:09.134Z</time></trkpt><trkpt lat="45.4344431" lon="8.1408309"><ele>208.0</ele><time>2026-03-29T11:52:11.134Z</time></trkpt><trkpt lat="45.4344489" lon="8.140924"><ele>208.28571428571428</ele><time>2026-03-29T11:52:12.12Z</time></trkpt><trkpt lat="45.4344637" lon="8.1410148"><ele>208.57142857142858</ele><time>2026-03-29T11:52:13.118Z</time></trkpt><trkpt lat="45.4344755" lon="8.1411186"><ele>208.85714285714286</ele><time>2026-03-29T11:52:14.132Z</time></trkpt><trkpt lat="45.4344822" lon="8.1412219"><ele>209.14285714285714</ele><time>2026-03-29T11:52:15.125Z</time></trkpt><trkpt lat="45.4344888" lon="8.1413182"><ele>209.42857142857144</ele><time>2026-03-29T11:52:16.145Z</time></trkpt><trkpt lat="45.4344964" lon="8.1414091"><ele>209.71428571428572</ele><time>2026-03-29T11:52:17.13Z</time></trkpt><trkpt lat="45.4345018" lon="8.1414986"><ele>210.0</ele><time>2026-03-29T11:52:18.127Z</time></trkpt><trkpt lat="45.434502" lon="8.1416428"><ele>210.2</ele><time>2026-03-29T11:52:20.125Z</time></trkpt><trkpt lat="45.4344523" lon="8.1417772"><ele>210.4</ele><time>2026-03-29T11:52:22.134Z</time></trkpt><trkpt lat="45.4344068" lon="8.1418415"><ele>210.60000000000002</ele><time>2026-03-29T11:52:23.125Z</time></trkpt><trkpt lat="45.434309" lon="8.1419576"><ele>210.8</ele><time>2026-03-29T11:52:25.126Z</time></trkpt><trkpt lat="45.4342524" lon="8.1420207"><ele>211.0</ele><time>2026-03-29T11:52:26.141Z</time></trkpt><trkpt lat="45.4341693" lon="8.1421264"><ele>211.0</ele><time>2026-03-29T11:52:28.128Z</time></trkpt><trkpt lat="45.4340837" lon="8.1422514"><ele>211.0</ele><time>2026-03-29T11:52:30.123Z</time></trkpt><trkpt lat="45.4339957" lon="8.1423716"><ele>211.0</ele><time>2026-03-29T11:52:32.116Z</time></trkpt><trkpt lat="45.4339177" lon="8.1424886"><ele>211.0</ele><time>2026-03-29T11:52:34.132Z</time></trkpt><trkpt lat="45.4338282" lon="8.1426251"><ele>210.49999999999997</ele><time>2026-03-29T11:52:36.127Z</time></trkpt><trkpt lat="45.4337716" lon="8.1427043"><ele>210.0</ele><time>2026-03-29T11:52:37.124Z</time></trkpt><trkpt lat="45.433721" lon="8.142778"><ele>209.5</ele><time>2026-03-29T11:52:38.126Z</time></trkpt><trkpt lat="45.4336687" lon="8.1428726"><ele>209.0</ele><time>2026-03-29T11:52:39.118Z</time></trkpt><trkpt lat="45.4336246" lon="8.1429672"><ele>208.49999999999997</ele><time>2026-03-29T11:52:40.125Z</time></trkpt><trkpt lat="45.4335804" lon="8.143063"><ele>208.0</ele><time>2026-03-29T11:52:41.118Z</time></trkpt><trkpt lat="45.4335092" lon="8.1432285"><ele>207.60000000000002</ele><time>2026-03-29T11:52:43.123Z</time></trkpt><trkpt lat="45.4334804" lon="8.1433203"><ele>207.20000000000002</ele><time>2026-03-29T11:52:44.119Z</time></trkpt><trkpt lat="45.4334502" lon="8.1434136"><ele>206.8</ele><time>2026-03-29T11:52:45.12Z</time></trkpt><trkpt lat="45.4334269" lon="8.1435022"><ele>206.4</ele><time>2026-03-29T11:52:46.138Z</time></trkpt><trkpt lat="45.4333949" lon="8.1436606"><ele>206.0</ele><time>2026-03-29T11:52:48.136Z</time></trkpt><trkpt lat="45.4333603" lon="8.143839"><ele>206.00000000000003</ele><time>2026-03-29T11:52:50.12Z</time></trkpt><trkpt lat="45.433342" lon="8.1439377"><ele>206.0</ele><time>2026-03-29T11:52:51.13Z</time></trkpt><trkpt lat="45.4333268" lon="8.1440381"><ele>206.0</ele><time>2026-03-29T11:52:52.14Z</time></trkpt><trkpt lat="45.4333101" lon="8.1441524"><ele>206.0</ele><time>2026-03-29T11:52:53.136Z</time></trkpt><trkpt lat="45.4333029" lon="8.1442541"><ele>206.00000000000003</ele><time>2026-03-29T11:52:54.121Z</time></trkpt><trkpt lat="45.4332959" lon="8.1443732"><ele>206.0</ele><time>2026-03-29T11:52:55.129Z</time></trkpt><trkpt lat="45.433284" lon="8.144494"><ele>206.0</ele><time>2026-03-29T11:52:56.123Z</time></trkpt><trkpt lat="45.4332733" lon="8.1446096"><ele>206.0</ele><time>2026-03-29T11:52:57.123Z</time></trkpt><trkpt lat="45.4332661" lon="8.1447066"><ele>206.0</ele><time>2026-03-29T11:52:58.123Z</time></trkpt><trkpt lat="45.4332288" lon="8.1448582"><ele>206.0</ele><time>2026-03-29T11:53:00.122Z</time></trkpt><trkpt lat="45.433219" lon="8.1449738"><ele>206.0</ele><time>2026-03-29T11:53:01.129Z</time></trkpt><trkpt lat="45.4332061" lon="8.1451313"><ele>205.75</ele><time>2026-03-29T11:53:02.145Z</time></trkpt><trkpt lat="45.4331908" lon="8.1452894"><ele>205.5</ele><time>2026-03-29T11:53:03.132Z</time></trkpt><trkpt lat="45.4331756" lon="8.1454482"><ele>205.25</ele><time>2026-03-29T11:53:04.137Z</time></trkpt><trkpt lat="45.4331656" lon="8.1456073"><ele>205.0</ele><time>2026-03-29T11:53:05.123Z</time></trkpt><trkpt lat="45.4331528" lon="8.1457887"><ele>204.75</ele><time>2026-03-29T11:53:06.13Z</time></trkpt><trkpt lat="45.43315" lon="8.1459658"><ele>204.5</ele><time>2026-03-29T11:53:07.118Z</time></trkpt><trkpt lat="45.4331437" lon="8.1461472"><ele>204.25</ele><time>2026-03-29T11:53:08.126Z</time></trkpt><trkpt lat="45.433136" lon="8.1463367"><ele>204.0</ele><time>2026-03-29T11:53:09.135Z</time></trkpt><trkpt lat="45.4331269" lon="8.1465092"><ele>204.25</ele><time>2026-03-29T11:53:10.12Z</time></trkpt><trkpt lat="45.4331193" lon="8.1466896"><ele>204.5</ele><time>2026-03-29T11:53:11.129Z</time></trkpt><trkpt lat="45.4331104" lon="8.1468632"><ele>204.75</ele><time>2026-03-29T11:53:12.143Z</time></trkpt><trkpt lat="45.4331027" lon="8.1470354"><ele>205.0</ele><time>2026-03-29T11:53:13.132Z</time></trkpt><trkpt lat="45.4330925" lon="8.1472105"><ele>205.25</ele><time>2026-03-29T11:53:14.166Z</time></trkpt><trkpt lat="45.4330858" lon="8.1473825"><ele>205.5</ele><time>2026-03-29T11:53:15.145Z</time></trkpt><trkpt lat="45.4330771" lon="8.1475623"><ele>205.75</ele><time>2026-03-29T11:53:16.133Z</time></trkpt><trkpt lat="45.4330606" lon="8.1477386"><ele>206.0</ele><time>2026-03-29T11:53:17.126Z</time></trkpt><trkpt lat="45.4330468" lon="8.1479162"><ele>206.0</ele><time>2026-03-29T11:53:18.132Z</time></trkpt><trkpt lat="45.4330318" lon="8.1480969"><ele>206.0</ele><time>2026-03-29T11:53:19.138Z</time></trkpt><trkpt lat="45.4330178" lon="8.1482699"><ele>206.0</ele><time>2026-03-29T11:53:20.128Z</time></trkpt><trkpt lat="45.4330003" lon="8.1484409"><ele>206.0</ele><time>2026-03-29T11:53:21.132Z</time></trkpt><trkpt lat="45.432982" lon="8.148615"><ele>206.0</ele><time>2026-03-29T11:53:22.131Z</time></trkpt><trkpt lat="45.4329665" lon="8.1487857"><ele>206.0</ele><time>2026-03-29T11:53:23.134Z</time></trkpt><trkpt lat="45.4329485" lon="8.148968"><ele>206.0</ele><time>2026-03-29T11:53:24.13Z</time></trkpt><trkpt lat="45.4329307" lon="8.1491512"><ele>206.0</ele><time>2026-03-29T11:53:25.137Z</time></trkpt><trkpt lat="45.4329178" lon="8.1493328"><ele>205.5</ele><time>2026-03-29T11:53:26.133Z</time></trkpt><trkpt lat="45.4329004" lon="8.1495103"><ele>205.0</ele><time>2026-03-29T11:53:27.126Z</time></trkpt><trkpt lat="45.4328859" lon="8.1496785"><ele>204.5</ele><time>2026-03-29T11:53:28.17Z</time></trkpt><trkpt lat="45.4328697" lon="8.1498496"><ele>204.0</ele><time>2026-03-29T11:53:29.136Z</time></trkpt><trkpt lat="45.4328488" lon="8.1500204"><ele>204.0</ele><time>2026-03-29T11:53:30.134Z</time></trkpt><trkpt lat="45.4328284" lon="8.1501907"><ele>204.0</ele><time>2026-03-29T11:53:31.139Z</time></trkpt><trkpt lat="45.4328072" lon="8.1503607"><ele>204.0</ele><time>2026-03-29T11:53:32.139Z</time></trkpt><trkpt lat="45.4327858" lon="8.1505378"><ele>204.0</ele><time>2026-03-29T11:53:33.127Z</time></trkpt><trkpt lat="45.4327647" lon="8.1507258"><ele>203.5</ele><time>2026-03-29T11:53:34.142Z</time></trkpt><trkpt lat="45.4327463" lon="8.1508982"><ele>203.0</ele><time>2026-03-29T11:53:35.123Z</time></trkpt><trkpt lat="45.4327287" lon="8.1510634"><ele>202.5</ele><time>2026-03-29T11:53:36.13Z</time></trkpt><trkpt lat="45.4327127" lon="8.1512404"><ele>202.0</ele><time>2026-03-29T11:53:37.125Z</time></trkpt><trkpt lat="45.4326935" lon="8.151407"><ele>201.6</ele><time>2026-03-29T11:53:38.131Z</time></trkpt><trkpt lat="45.4326754" lon="8.1515785"><ele>201.2</ele><time>2026-03-29T11:53:39.137Z</time></trkpt><trkpt lat="45.4326558" lon="8.1517382"><ele>200.8</ele><time>2026-03-29T11:53:40.135Z</time></trkpt><trkpt lat="45.4326388" lon="8.15188"><ele>200.4</ele><time>2026-03-29T11:53:41.137Z</time></trkpt><trkpt lat="45.4326158" lon="8.1520118"><ele>200.0</ele><time>2026-03-29T11:53:42.122Z</time></trkpt><trkpt lat="45.4325893" lon="8.1521292"><ele>200.0</ele><time>2026-03-29T11:53:43.138Z</time></trkpt><trkpt lat="45.4325578" lon="8.1522317"><ele>200.0</ele><time>2026-03-29T11:53:44.13Z</time></trkpt><trkpt lat="45.4325113" lon="8.1523399"><ele>200.0</ele><time>2026-03-29T11:53:45.126Z</time></trkpt><trkpt lat="45.4324439" lon="8.1524545"><ele>200.0</ele><time>2026-03-29T11:53:46.14Z</time></trkpt><trkpt lat="45.4323616" lon="8.1525694"><ele>200.0</ele><time>2026-03-29T11:53:47.134Z</time></trkpt><trkpt lat="45.4322531" lon="8.1526776"><ele>200.0</ele><time>2026-03-29T11:53:48.131Z</time></trkpt><trkpt lat="45.4321419" lon="8.1527932"><ele>200.0</ele><time>2026-03-29T11:53:49.142Z</time></trkpt><trkpt lat="45.4320294" lon="8.1529082"><ele>200.0</ele><time>2026-03-29T11:53:50.13Z</time></trkpt><trkpt lat="45.4319162" lon="8.1530152"><ele>200.0</ele><time>2026-03-29T11:53:51.131Z</time></trkpt><trkpt lat="45.4318021" lon="8.1531081"><ele>200.0</ele><time>2026-03-29T11:53:52.114Z</time></trkpt><trkpt lat="45.4316929" lon="8.153201"><ele>200.0</ele><time>2026-03-29T11:53:53.144Z</time></trkpt><trkpt lat="45.4315807" lon="8.1532933"><ele>200.0</ele><time>2026-03-29T11:53:54.125Z</time></trkpt><trkpt lat="45.4314645" lon="8.1533883"><ele>200.0</ele><time>2026-03-29T11:53:55.145Z</time></trkpt><trkpt lat="45.4313505" lon="8.1534824"><ele>200.0</ele><time>2026-03-29T11:53:56.131Z</time></trkpt><trkpt lat="45.4312308" lon="8.1535691"><ele>200.0</ele><time>2026-03-29T11:53:57.13Z</time></trkpt><trkpt lat="45.4311145" lon="8.1536624"><ele>200.0</ele><time>2026-03-29T11:53:58.13Z</time></trkpt><trkpt lat="45.4310009" lon="8.1537573"><ele>200.0</ele><time>2026-03-29T11:53:59.135Z</time></trkpt><trkpt lat="45.4308922" lon="8.1538479"><ele>200.0</ele><time>2026-03-29T11:54:00.128Z</time></trkpt><trkpt lat="45.4307794" lon="8.153934"><ele>200.0</ele><time>2026-03-29T11:54:01.147Z</time></trkpt><trkpt lat="45.4306783" lon="8.1540225"><ele>200.0</ele><time>2026-03-29T11:54:02.129Z</time></trkpt><trkpt lat="45.4305748" lon="8.1541074"><ele>200.0</ele><time>2026-03-29T11:54:03.13Z</time></trkpt><trkpt lat="45.4304813" lon="8.154186"><ele>200.00000000000003</ele><time>2026-03-29T11:54:04.135Z</time></trkpt><trkpt lat="45.4304041" lon="8.1542529"><ele>200.0</ele><time>2026-03-29T11:54:05.128Z</time></trkpt><trkpt lat="45.4303366" lon="8.154312"><ele>200.0</ele><time>2026-03-29T11:54:06.129Z</time></trkpt><trkpt lat="45.430283" lon="8.1543608"><ele>200.0</ele><time>2026-03-29T11:54:07.134Z</time></trkpt><trkpt lat="45.4301785" lon="8.1543875"><ele>200.00000000000003</ele><time>2026-03-29T11:54:09.128Z</time></trkpt><trkpt lat="45.4301161" lon="8.1543678"><ele>200.0</ele><time>2026-03-29T11:54:10.128Z</time></trkpt><trkpt lat="45.4300467" lon="8.1543174"><ele>200.00000000000003</ele><time>2026-03-29T11:54:11.123Z</time></trkpt><trkpt lat="45.429982" lon="8.1542651"><ele>200.0</ele><time>2026-03-29T11:54:12.145Z</time></trkpt><trkpt lat="45.4299091" lon="8.1542258"><ele>200.0</ele><time>2026-03-29T11:54:13.125Z</time></trkpt><trkpt lat="45.4298399" lon="8.1541883"><ele>200.0</ele><time>2026-03-29T11:54:14.125Z</time></trkpt><trkpt lat="45.4297629" lon="8.154139"><ele>200.00000000000003</ele><time>2026-03-29T11:54:15.128Z</time></trkpt><trkpt lat="45.429705" lon="8.154082"><ele>200.0</ele><time>2026-03-29T11:54:16.129Z</time></trkpt><trkpt lat="45.4296311" lon="8.1540054"><ele>200.0</ele><time>2026-03-29T11:54:18.128Z</time></trkpt><trkpt lat="45.4295771" lon="8.1540691"><ele>200.0</ele><time>2026-03-29T11:54:20.128Z</time></trkpt><trkpt lat="45.4295532" lon="8.1541822"><ele>200.0</ele><time>2026-03-29T11:54:21.133Z</time></trkpt><trkpt lat="45.4295264" lon="8.1543383"><ele>200.0</ele><time>2026-03-29T11:54:22.126Z</time></trkpt><trkpt lat="45.429495" lon="8.1545095"><ele>200.0</ele><time>2026-03-29T11:54:23.115Z</time></trkpt><trkpt lat="45.4294569" lon="8.1546823"><ele>200.0</ele><time>2026-03-29T11:54:24.124Z</time></trkpt><trkpt lat="45.4294173" lon="8.1548543"><ele>200.0</ele><time>2026-03-29T11:54:25.123Z</time></trkpt><trkpt lat="45.4293769" lon="8.1550211"><ele>200.0</ele><time>2026-03-29T11:54:26.132Z</time></trkpt><trkpt lat="45.4293408" lon="8.1552042"><ele>200.0</ele><time>2026-03-29T11:54:27.117Z</time></trkpt><trkpt lat="45.4293102" lon="8.1553925"><ele>200.0</ele><time>2026-03-29T11:54:28.127Z</time></trkpt><trkpt lat="45.4292883" lon="8.1555712"><ele>200.0</ele><time>2026-03-29T11:54:29.136Z</time></trkpt><trkpt lat="45.429281" lon="8.1557614"><ele>200.0</ele><time>2026-03-29T11:54:30.14Z</time></trkpt><trkpt lat="45.4292863" lon="8.1559848"><ele>200.0</ele><time>2026-03-29T11:54:31.118Z</time></trkpt><trkpt lat="45.4292802" lon="8.1562034"><ele>200.0</ele><time>2026-03-29T11:54:32.125Z</time></trkpt><trkpt lat="45.4292759" lon="8.1564132"><ele>200.0</ele><time>2026-03-29T11:54:33.127Z</time></trkpt><trkpt lat="45.4292625" lon="8.1566216"><ele>200.0</ele><time>2026-03-29T11:54:34.137Z</time></trkpt><trkpt lat="45.4292465" lon="8.1568413"><ele>200.0</ele><time>2026-03-29T11:54:35.128Z</time></trkpt><trkpt lat="45.4292344" lon="8.1570678"><ele>200.0</ele><time>2026-03-29T11:54:36.129Z</time></trkpt><trkpt lat="45.4292273" lon="8.1572679"><ele>200.0</ele><time>2026-03-29T11:54:37.129Z</time></trkpt><trkpt lat="45.429224" lon="8.1574429"><ele>200.0</ele><time>2026-03-29T11:54:38.141Z</time></trkpt><trkpt lat="45.4292213" lon="8.157584"><ele>200.0</ele><time>2026-03-29T11:54:39.144Z</time></trkpt><trkpt lat="45.4292256" lon="8.1576988"><ele>200.0</ele><time>2026-03-29T11:54:40.141Z</time></trkpt><trkpt lat="45.4292487" lon="8.1577984"><ele>199.83333333333334</ele><time>2026-03-29T11:54:41.132Z</time></trkpt><trkpt lat="45.4292889" lon="8.1578893"><ele>199.66666666666669</ele><time>2026-03-29T11:54:42.133Z</time></trkpt><trkpt lat="45.4293449" lon="8.157974"><ele>199.5</ele><time>2026-03-29T11:54:43.128Z</time></trkpt><trkpt lat="45.4294008" lon="8.1580494"><ele>199.33333333333331</ele><time>2026-03-29T11:54:44.127Z</time></trkpt><trkpt lat="45.4294286" lon="8.158135"><ele>199.16666666666666</ele><time>2026-03-29T11:54:45.133Z</time></trkpt><trkpt lat="45.4294386" lon="8.1582441"><ele>199.0</ele><time>2026-03-29T11:54:46.135Z</time></trkpt><trkpt lat="45.429432" lon="8.1583701"><ele>198.79999999999998</ele><time>2026-03-29T11:54:47.131Z</time></trkpt><trkpt lat="45.4294336" lon="8.158476"><ele>198.6</ele><time>2026-03-29T11:54:48.138Z</time></trkpt><trkpt lat="45.4295207" lon="8.1585964"><ele>198.4</ele><time>2026-03-29T11:54:50.123Z</time></trkpt><trkpt lat="45.429602" lon="8.1586529"><ele>198.2</ele><time>2026-03-29T11:54:51.129Z</time></trkpt><trkpt lat="45.4296963" lon="8.1586887"><ele>198.0</ele><time>2026-03-29T11:54:52.136Z</time></trkpt><trkpt lat="45.4297773" lon="8.1587305"><ele>198.5</ele><time>2026-03-29T11:54:53.141Z</time></trkpt><trkpt lat="45.4298418" lon="8.1587836"><ele>199.0</ele><time>2026-03-29T11:54:54.14Z</time></trkpt><trkpt lat="45.4299019" lon="8.1588597"><ele>199.5</ele><time>2026-03-29T11:54:55.136Z</time></trkpt><trkpt lat="45.4299621" lon="8.1589904"><ele>200.0</ele><time>2026-03-29T11:54:56.124Z</time></trkpt><trkpt lat="45.4300222" lon="8.159115"><ele>200.5</ele><time>2026-03-29T11:54:57.122Z</time></trkpt><trkpt lat="45.4300548" lon="8.1591927"><ele>201.0</ele><time>2026-03-29T11:54:58.127Z</time></trkpt><trkpt lat="45.4300913" lon="8.1593315"><ele>201.0</ele><time>2026-03-29T11:55:00.13Z</time></trkpt><trkpt lat="45.4300788" lon="8.15947"><ele>201.0</ele><time>2026-03-29T11:55:02.136Z</time></trkpt><trkpt lat="45.4300009" lon="8.1596171"><ele>201.0</ele><time>2026-03-29T11:55:04.129Z</time></trkpt><trkpt lat="45.4299455" lon="8.1596662"><ele>201.0</ele><time>2026-03-29T11:55:05.129Z</time></trkpt><trkpt lat="45.4298747" lon="8.1596956"><ele>201.0</ele><time>2026-03-29T11:55:06.137Z</time></trkpt><trkpt lat="45.4297635" lon="8.1597324"><ele>200.25</ele><time>2026-03-29T11:55:07.124Z</time></trkpt><trkpt lat="45.4296184" lon="8.1597586"><ele>199.5</ele><time>2026-03-29T11:55:08.115Z</time></trkpt><trkpt lat="45.4294872" lon="8.1597853"><ele>198.75</ele><time>2026-03-29T11:55:09.127Z</time></trkpt><trkpt lat="45.4293716" lon="8.1598104"><ele>198.0</ele><time>2026-03-29T11:55:10.127Z</time></trkpt><trkpt lat="45.4292752" lon="8.159839"><ele>198.4</ele><time>2026-03-29T11:55:11.121Z</time></trkpt><trkpt lat="45.4292028" lon="8.1598707"><ele>198.8</ele><time>2026-03-29T11:55:12.134Z</time></trkpt><trkpt lat="45.4291415" lon="8.1599104"><ele>199.2</ele><time>2026-03-29T11:55:13.131Z</time></trkpt><trkpt lat="45.4290768" lon="8.1600705"><ele>199.6</ele><time>2026-03-29T11:55:15.123Z</time></trkpt><trkpt lat="45.4290645" lon="8.1602137"><ele>200.0</ele><time>2026-03-29T11:55:16.143Z</time></trkpt><trkpt lat="45.4290613" lon="8.1603654"><ele>200.0</ele><time>2026-03-29T11:55:17.137Z</time></trkpt><trkpt lat="45.4290432" lon="8.1605134"><ele>200.0</ele><time>2026-03-29T11:55:18.131Z</time></trkpt><trkpt lat="45.4290244" lon="8.1606603"><ele>200.0</ele><time>2026-03-29T11:55:19.134Z</time></trkpt><trkpt lat="45.4290062" lon="8.1607979"><ele>200.0</ele><time>2026-03-29T11:55:20.127Z</time></trkpt><trkpt lat="45.4289946" lon="8.1609138"><ele>200.0</ele><time>2026-03-29T11:55:21.131Z</time></trkpt><trkpt lat="45.4289976" lon="8.1610079"><ele>200.0</ele><time>2026-03-29T11:55:22.136Z</time></trkpt><trkpt lat="45.429005" lon="8.1611094"><ele>200.0</ele><time>2026-03-29T11:55:23.138Z</time></trkpt><trkpt lat="45.4290451" lon="8.1612362"><ele>200.0</ele><time>2026-03-29T11:55:24.136Z</time></trkpt><trkpt lat="45.4290956" lon="8.1614204"><ele>200.0</ele><time>2026-03-29T11:55:25.131Z</time></trkpt><trkpt lat="45.4291551" lon="8.1616203"><ele>200.0</ele><time>2026-03-29T11:55:26.14Z</time></trkpt><trkpt lat="45.4291992" lon="8.161811"><ele>200.0</ele><time>2026-03-29T11:55:27.139Z</time></trkpt><trkpt lat="45.4292257" lon="8.1619631"><ele>200.0</ele><time>2026-03-29T11:55:28.143Z</time></trkpt><trkpt lat="45.4292389" lon="8.1620712"><ele>200.0</ele><time>2026-03-29T11:55:29.153Z</time></trkpt><trkpt lat="45.4292403" lon="8.1622339"><ele>200.0</ele><time>2026-03-29T11:55:31.13Z</time></trkpt><trkpt lat="45.429222" lon="8.1623911"><ele>199.6</ele><time>2026-03-29T11:55:33.139Z</time></trkpt><trkpt lat="45.4291891" lon="8.1625645"><ele>199.2</ele><time>2026-03-29T11:55:35.124Z</time></trkpt><trkpt lat="45.4291585" lon="8.1627072"><ele>198.8</ele><time>2026-03-29T11:55:37.135Z</time></trkpt><trkpt lat="45.429136" lon="8.1628457"><ele>198.4</ele><time>2026-03-29T11:55:39.127Z</time></trkpt><trkpt lat="45.4291148" lon="8.1629577"><ele>198.0</ele><time>2026-03-29T11:55:41.126Z</time></trkpt><trkpt lat="45.4290713" lon="8.1630777"><ele>198.0</ele><time>2026-03-29T11:55:43.127Z</time></trkpt><trkpt lat="45.4290374" lon="8.1631726"><ele>198.0</ele><time>2026-03-29T11:55:45.151Z</time></trkpt><trkpt lat="45.4289923" lon="8.1632414"><ele>198.0</ele><time>2026-03-29T11:55:47.129Z</time></trkpt><trkpt lat="45.4289231" lon="8.1632511"><ele>198.0</ele><time>2026-03-29T11:55:49.137Z</time></trkpt><trkpt lat="45.4288568" lon="8.1632231"><ele>198.0</ele><time>2026-03-29T11:55:50.133Z</time></trkpt><trkpt lat="45.4287787" lon="8.1631936"><ele>198.0</ele><time>2026-03-29T11:55:51.144Z</time></trkpt><trkpt lat="45.4287097" lon="8.1631632"><ele>198.0</ele><time>2026-03-29T11:55:52.135Z</time></trkpt><trkpt lat="45.4286354" lon="8.1631232"><ele>197.83333333333334</ele><time>2026-03-29T11:55:53.132Z</time></trkpt><trkpt lat="45.4285626" lon="8.1630926"><ele>197.66666666666669</ele><time>2026-03-29T11:55:54.126Z</time></trkpt><trkpt lat="45.428494" lon="8.1630519"><ele>197.5</ele><time>2026-03-29T11:55:55.139Z</time></trkpt><trkpt lat="45.4284144" lon="8.1630045"><ele>197.33333333333334</ele><time>2026-03-29T11:55:56.12Z</time></trkpt><trkpt lat="45.4283328" lon="8.162955"><ele>197.16666666666669</ele><time>2026-03-29T11:55:57.138Z</time></trkpt><trkpt lat="45.4282357" lon="8.1629093"><ele>197.0</ele><time>2026-03-29T11:55:58.124Z</time></trkpt><trkpt lat="45.4281183" lon="8.1628457"><ele>197.0</ele><time>2026-03-29T11:55:59.119Z</time></trkpt><trkpt lat="45.4279964" lon="8.1627818"><ele>197.0</ele><time>2026-03-29T11:56:00.13Z</time></trkpt><trkpt lat="45.4278768" lon="8.1627293"><ele>197.0</ele><time>2026-03-29T11:56:01.112Z</time></trkpt><trkpt lat="45.4277638" lon="8.1626792"><ele>197.0</ele><time>2026-03-29T11:56:02.132Z</time></trkpt><trkpt lat="45.4276655" lon="8.1626331"><ele>197.0</ele><time>2026-03-29T11:56:03.12Z</time></trkpt><trkpt lat="45.4275713" lon="8.1625851"><ele>197.0</ele><time>2026-03-29T11:56:04.139Z</time></trkpt><trkpt lat="45.4274722" lon="8.1625343"><ele>197.0</ele><time>2026-03-29T11:56:05.141Z</time></trkpt><trkpt lat="45.4273714" lon="8.1624885"><ele>197.0</ele><time>2026-03-29T11:56:06.14Z</time></trkpt><trkpt lat="45.4272865" lon="8.1624537"><ele>197.0</ele><time>2026-03-29T11:56:07.134Z</time></trkpt><trkpt lat="45.427221" lon="8.1624313"><ele>197.00000000000003</ele><time>2026-03-29T11:56:08.159Z</time></trkpt><trkpt lat="45.4271052" lon="8.1623918"><ele>197.0</ele><time>2026-03-29T11:56:10.129Z</time></trkpt><trkpt lat="45.4270371" lon="8.1623561"><ele>197.0</ele><time>2026-03-29T11:56:11.122Z</time></trkpt><trkpt lat="45.4269684" lon="8.1623264"><ele>197.0</ele><time>2026-03-29T11:56:12.131Z</time></trkpt><trkpt lat="45.4268938" lon="8.16228"><ele>197.00000000000003</ele><time>2026-03-29T11:56:13.117Z</time></trkpt><trkpt lat="45.426801" lon="8.1622349"><ele>197.0</ele><time>2026-03-29T11:56:14.124Z</time></trkpt><trkpt lat="45.4267112" lon="8.162194"><ele>197.2</ele><time>2026-03-29T11:56:15.135Z</time></trkpt><trkpt lat="45.426618" lon="8.1621582"><ele>197.39999999999998</ele><time>2026-03-29T11:56:16.144Z</time></trkpt><trkpt lat="45.4265169" lon="8.1621167"><ele>197.60000000000002</ele><time>2026-03-29T11:56:17.135Z</time></trkpt><trkpt lat="45.4264172" lon="8.1620732"><ele>197.8</ele><time>2026-03-29T11:56:18.115Z</time></trkpt><trkpt lat="45.4263212" lon="8.1620334"><ele>198.0</ele><time>2026-03-29T11:56:19.144Z</time></trkpt><trkpt lat="45.4262175" lon="8.161993"><ele>198.0</ele><time>2026-03-29T11:56:20.127Z</time></trkpt><trkpt lat="45.4261104" lon="8.1619496"><ele>198.0</ele><time>2026-03-29T11:56:21.155Z</time></trkpt><trkpt lat="45.426001" lon="8.1618995"><ele>198.0</ele><time>2026-03-29T11:56:22.142Z</time></trkpt><trkpt lat="45.4258909" lon="8.161857"><ele>198.0</ele><time>2026-03-29T11:56:23.134Z</time></trkpt><trkpt lat="45.4257771" lon="8.1618108"><ele>198.0</ele><time>2026-03-29T11:56:24.139Z</time></trkpt><trkpt lat="45.4256557" lon="8.1617564"><ele>198.0</ele><time>2026-03-29T11:56:25.135Z</time></trkpt><trkpt lat="45.4255527" lon="8.1617107"><ele>198.0</ele><time>2026-03-29T11:56:26.147Z</time></trkpt><trkpt lat="45.4254631" lon="8.1616722"><ele>198.0</ele><time>2026-03-29T11:56:27.136Z</time></trkpt><trkpt lat="45.425368" lon="8.1616271"><ele>198.0</ele><time>2026-03-29T11:56:28.128Z</time></trkpt><trkpt lat="45.4252624" lon="8.1615822"><ele>198.75</ele><time>2026-03-29T11:56:29.131Z</time></trkpt><trkpt lat="45.4251402" lon="8.1615221"><ele>199.5</ele><time>2026-03-29T11:56:30.117Z</time></trkpt><trkpt lat="45.4250158" lon="8.1614703"><ele>200.25</ele><time>2026-03-29T11:56:31.127Z</time></trkpt><trkpt lat="45.4248962" lon="8.1614142"><ele>201.0</ele><time>2026-03-29T11:56:32.121Z</time></trkpt><trkpt lat="45.4247842" lon="8.1613694"><ele>201.0</ele><time>2026-03-29T11:56:33.139Z</time></trkpt><trkpt lat="45.4246804" lon="8.1613245"><ele>201.0</ele><time>2026-03-29T11:56:34.136Z</time></trkpt><trkpt lat="45.4245867" lon="8.1612808"><ele>201.0</ele><time>2026-03-29T11:56:35.132Z</time></trkpt><trkpt lat="45.4245082" lon="8.161239"><ele>201.0</ele><time>2026-03-29T11:56:36.141Z</time></trkpt><trkpt lat="45.4244409" lon="8.1612052"><ele>201.0</ele><time>2026-03-29T11:56:37.123Z</time></trkpt><trkpt lat="45.4243445" lon="8.1612153"><ele>202.0</ele><time>2026-03-29T11:56:39.12Z</time></trkpt><trkpt lat="45.4242435" lon="8.1613114"><ele>203.0</ele><time>2026-03-29T11:56:41.131Z</time></trkpt><trkpt lat="45.4241934" lon="8.161401"><ele>204.0</ele><time>2026-03-29T11:56:42.135Z</time></trkpt><trkpt lat="45.4241501" lon="8.1614714"><ele>205.0</ele><time>2026-03-29T11:56:43.133Z</time></trkpt><trkpt lat="45.4240569" lon="8.1616044"><ele>206.0</ele><time>2026-03-29T11:56:45.122Z</time></trkpt><trkpt lat="45.4240036" lon="8.161691"><ele>206.00000000000003</ele><time>2026-03-29T11:56:46.127Z</time></trkpt><trkpt lat="45.423961" lon="8.1617683"><ele>206.0</ele><time>2026-03-29T11:56:47.119Z</time></trkpt><trkpt lat="45.4239127" lon="8.1618412"><ele>206.0</ele><time>2026-03-29T11:56:48.153Z</time></trkpt><trkpt lat="45.4238583" lon="8.1619257"><ele>206.0</ele><time>2026-03-29T11:56:49.117Z</time></trkpt><trkpt lat="45.4238032" lon="8.1619996"><ele>206.00000000000003</ele><time>2026-03-29T11:56:50.129Z</time></trkpt><trkpt lat="45.4237568" lon="8.1620684"><ele>206.0</ele><time>2026-03-29T11:56:51.119Z</time></trkpt><trkpt lat="45.423678" lon="8.1621757"><ele>206.00000000000003</ele><time>2026-03-29T11:56:53.149Z</time></trkpt><trkpt lat="45.4236193" lon="8.1622163"><ele>206.0</ele><time>2026-03-29T11:56:55.122Z</time></trkpt><trkpt lat="45.4237018" lon="8.1621348"><ele>206.0</ele><time>2026-03-29T11:57:49.146Z</time></trkpt><trkpt lat="45.4237807" lon="8.1620272"><ele>206.0</ele><time>2026-03-29T11:57:51.115Z</time></trkpt><trkpt lat="45.4238368" lon="8.1619585"><ele>206.00000000000003</ele><time>2026-03-29T11:57:52.123Z</time></trkpt><trkpt lat="45.4238824" lon="8.1618868"><ele>206.0</ele><time>2026-03-29T11:57:53.14Z</time></trkpt><trkpt lat="45.4239226" lon="8.1618122"><ele>206.00000000000003</ele><time>2026-03-29T11:57:54.133Z</time></trkpt><trkpt lat="45.4239665" lon="8.1617289"><ele>206.0</ele><time>2026-03-29T11:57:55.126Z</time></trkpt><trkpt lat="45.4240122" lon="8.1616417"><ele>206.0</ele><time>2026-03-29T11:57:56.121Z</time></trkpt><trkpt lat="45.424062" lon="8.1615702"><ele>206.0</ele><time>2026-03-29T11:57:57.139Z</time></trkpt><trkpt lat="45.4241148" lon="8.1615004"><ele>206.00000000000003</ele><time>2026-03-29T11:57:58.131Z</time></trkpt><trkpt lat="45.4241752" lon="8.1614302"><ele>206.0</ele><time>2026-03-29T11:57:59.13Z</time></trkpt><trkpt lat="45.4242559" lon="8.16133"><ele>205.16666666666669</ele><time>2026-03-29T11:58:01.133Z</time></trkpt><trkpt lat="45.4242895" lon="8.1612534"><ele>204.33333333333334</ele><time>2026-03-29T11:58:03.119Z</time></trkpt><trkpt lat="45.4243565" lon="8.1611415"><ele>203.5</ele><time>2026-03-29T11:58:14.126Z</time></trkpt><trkpt lat="45.4244157" lon="8.1610725"><ele>202.66666666666669</ele><time>2026-03-29T11:58:15.118Z</time></trkpt><trkpt lat="45.4244797" lon="8.1609934"><ele>201.83333333333334</ele><time>2026-03-29T11:58:16.124Z</time></trkpt><trkpt lat="45.4245783" lon="8.1609218"><ele>201.0</ele><time>2026-03-29T11:58:17.133Z</time></trkpt><trkpt lat="45.4246922" lon="8.1608367"><ele>201.0</ele><time>2026-03-29T11:58:18.122Z</time></trkpt><trkpt lat="45.4247893" lon="8.1607524"><ele>201.0</ele><time>2026-03-29T11:58:19.124Z</time></trkpt><trkpt lat="45.4248594" lon="8.1606821"><ele>201.0</ele><time>2026-03-29T11:58:20.133Z</time></trkpt><trkpt lat="45.4249162" lon="8.1606182"><ele>201.0</ele><time>2026-03-29T11:58:21.117Z</time></trkpt><trkpt lat="45.4249673" lon="8.1605294"><ele>201.0</ele><time>2026-03-29T11:58:22.123Z</time></trkpt><trkpt lat="45.4250062" lon="8.1604278"><ele>201.0</ele><time>2026-03-29T11:58:23.131Z</time></trkpt><trkpt lat="45.4250373" lon="8.1603139"><ele>202.4</ele><time>2026-03-29T11:58:24.131Z</time></trkpt><trkpt lat="45.4250588" lon="8.1601827"><ele>203.8</ele><time>2026-03-29T11:58:25.126Z</time></trkpt><trkpt lat="45.4250666" lon="8.1600231"><ele>205.20000000000002</ele><time>2026-03-29T11:58:26.127Z</time></trkpt><trkpt lat="45.4250801" lon="8.1598564"><ele>206.60000000000002</ele><time>2026-03-29T11:58:27.126Z</time></trkpt><trkpt lat="45.4250927" lon="8.1597075"><ele>208.0</ele><time>2026-03-29T11:58:28.135Z</time></trkpt><trkpt lat="45.4251148" lon="8.1595696"><ele>208.8</ele><time>2026-03-29T11:58:29.131Z</time></trkpt><trkpt lat="45.4251533" lon="8.1594247"><ele>209.60000000000002</ele><time>2026-03-29T11:58:30.133Z</time></trkpt><trkpt lat="45.4251966" lon="8.1592765"><ele>210.39999999999998</ele><time>2026-03-29T11:58:31.125Z</time></trkpt><trkpt lat="45.4252455" lon="8.1591303"><ele>211.2</ele><time>2026-03-29T11:58:32.13Z</time></trkpt><trkpt lat="45.4252959" lon="8.1589891"><ele>212.0</ele><time>2026-03-29T11:58:33.127Z</time></trkpt><trkpt lat="45.4253469" lon="8.1588416"><ele>213.6</ele><time>2026-03-29T11:58:34.113Z</time></trkpt><trkpt lat="45.4254118" lon="8.1586906"><ele>215.2</ele><time>2026-03-29T11:58:35.126Z</time></trkpt><trkpt lat="45.4254781" lon="8.1585576"><ele>216.8</ele><time>2026-03-29T11:58:36.128Z</time></trkpt><trkpt lat="45.4255407" lon="8.1584401"><ele>218.4</ele><time>2026-03-29T11:58:37.123Z</time></trkpt><trkpt lat="45.425603" lon="8.1583312"><ele>220.0</ele><time>2026-03-29T11:58:38.122Z</time></trkpt><trkpt lat="45.4256745" lon="8.15822"><ele>218.0</ele><time>2026-03-29T11:58:39.12Z</time></trkpt><trkpt lat="45.4257606" lon="8.1581164"><ele>216.0</ele><time>2026-03-29T11:58:40.119Z</time></trkpt><trkpt lat="45.4258344" lon="8.1580258"><ele>214.0</ele><time>2026-03-29T11:58:41.133Z</time></trkpt><trkpt lat="45.4259016" lon="8.1579353"><ele>212.0</ele><time>2026-03-29T11:58:42.121Z</time></trkpt><trkpt lat="45.425949" lon="8.1578324"><ele>210.0</ele><time>2026-03-29T11:58:43.143Z</time></trkpt><trkpt lat="45.4259837" lon="8.1577086"><ele>210.0</ele><time>2026-03-29T11:58:44.142Z</time></trkpt><trkpt lat="45.4260068" lon="8.1575696"><ele>210.0</ele><time>2026-03-29T11:58:45.123Z</time></trkpt><trkpt lat="45.4260278" lon="8.1574041"><ele>210.0</ele><time>2026-03-29T11:58:46.121Z</time></trkpt><trkpt lat="45.4260611" lon="8.1572263"><ele>210.0</ele><time>2026-03-29T11:58:47.121Z</time></trkpt><trkpt lat="45.4260973" lon="8.1570409"><ele>211.2</ele><time>2026-03-29T11:58:48.134Z</time></trkpt><trkpt lat="45.4261445" lon="8.1568712"><ele>212.4</ele><time>2026-03-29T11:58:49.109Z</time></trkpt><trkpt lat="45.4261882" lon="8.1567314"><ele>213.60000000000002</ele><time>2026-03-29T11:58:50.159Z</time></trkpt><trkpt lat="45.4262237" lon="8.1566174"><ele>214.8</ele><time>2026-03-29T11:58:51.117Z</time></trkpt><trkpt lat="45.4262501" lon="8.1565118"><ele>216.0</ele><time>2026-03-29T11:58:52.13Z</time></trkpt><trkpt lat="45.4262732" lon="8.1564045"><ele>217.0</ele><time>2026-03-29T11:58:53.119Z</time></trkpt><trkpt lat="45.4262935" lon="8.1562984"><ele>218.0</ele><time>2026-03-29T11:58:54.128Z</time></trkpt><trkpt lat="45.4263201" lon="8.1561846"><ele>219.0</ele><time>2026-03-29T11:58:55.129Z</time></trkpt><trkpt lat="45.426346" lon="8.1560452"><ele>220.0</ele><time>2026-03-29T11:58:56.114Z</time></trkpt><trkpt lat="45.4263764" lon="8.155929"><ele>221.0</ele><time>2026-03-29T11:58:57.122Z</time></trkpt><trkpt lat="45.426413" lon="8.1558063"><ele>222.0</ele><time>2026-03-29T11:58:58.122Z</time></trkpt><trkpt lat="45.426459" lon="8.15568"><ele>218.25</ele><time>2026-03-29T11:58:59.117Z</time></trkpt><trkpt lat="45.426513" lon="8.1555352"><ele>214.5</ele><time>2026-03-29T11:59:00.109Z</time></trkpt><trkpt lat="45.4265694" lon="8.1553939"><ele>210.75</ele><time>2026-03-29T11:59:01.124Z</time></trkpt><trkpt lat="45.42663" lon="8.1552488"><ele>207.0</ele><time>2026-03-29T11:59:02.134Z</time></trkpt><trkpt lat="45.4266864" lon="8.1551025"><ele>207.0</ele><time>2026-03-29T11:59:03.133Z</time></trkpt><trkpt lat="45.4267343" lon="8.154967"><ele>207.0</ele><time>2026-03-29T11:59:04.121Z</time></trkpt><trkpt lat="45.4267851" lon="8.1548362"><ele>207.0</ele><time>2026-03-29T11:59:05.12Z</time></trkpt><trkpt lat="45.4268372" lon="8.1546976"><ele>207.0</ele><time>2026-03-29T11:59:06.124Z</time></trkpt><trkpt lat="45.4268852" lon="8.1545464"><ele>207.0</ele><time>2026-03-29T11:59:07.13Z</time></trkpt><trkpt lat="45.4269443" lon="8.1543917"><ele>206.8</ele><time>2026-03-29T11:59:08.121Z</time></trkpt><trkpt lat="45.4269992" lon="8.1542534"><ele>206.6</ele><time>2026-03-29T11:59:09.126Z</time></trkpt><trkpt lat="45.4270522" lon="8.1541141"><ele>206.4</ele><time>2026-03-29T11:59:10.133Z</time></trkpt><trkpt lat="45.4271048" lon="8.1539828"><ele>206.20000000000002</ele><time>2026-03-29T11:59:11.123Z</time></trkpt><trkpt lat="45.4271645" lon="8.15386"><ele>206.0</ele><time>2026-03-29T11:59:12.137Z</time></trkpt><trkpt lat="45.4272371" lon="8.1537431"><ele>206.0</ele><time>2026-03-29T11:59:13.117Z</time></trkpt><trkpt lat="45.4273131" lon="8.1536053"><ele>206.0</ele><time>2026-03-29T11:59:14.113Z</time></trkpt><trkpt lat="45.4273857" lon="8.1534612"><ele>206.0</ele><time>2026-03-29T11:59:15.139Z</time></trkpt><trkpt lat="45.4274586" lon="8.1533144"><ele>206.0</ele><time>2026-03-29T11:59:16.138Z</time></trkpt><trkpt lat="45.4275315" lon="8.1531788"><ele>208.0</ele><time>2026-03-29T11:59:17.126Z</time></trkpt><trkpt lat="45.4276015" lon="8.153055"><ele>210.0</ele><time>2026-03-29T11:59:18.14Z</time></trkpt><trkpt lat="45.4276623" lon="8.1529381"><ele>212.00000000000003</ele><time>2026-03-29T11:59:19.132Z</time></trkpt><trkpt lat="45.4277187" lon="8.1528123"><ele>214.0</ele><time>2026-03-29T11:59:20.138Z</time></trkpt><trkpt lat="45.4277771" lon="8.1526715"><ele>216.0</ele><time>2026-03-29T11:59:21.134Z</time></trkpt><trkpt lat="45.4278404" lon="8.152517"><ele>216.0</ele><time>2026-03-29T11:59:22.132Z</time></trkpt><trkpt lat="45.4279014" lon="8.1523799"><ele>216.0</ele><time>2026-03-29T11:59:23.133Z</time></trkpt><trkpt lat="45.427965" lon="8.1522464"><ele>216.0</ele><time>2026-03-29T11:59:24.138Z</time></trkpt><trkpt lat="45.4280325" lon="8.1521065"><ele>216.0</ele><time>2026-03-29T11:59:25.12Z</time></trkpt><trkpt lat="45.428099" lon="8.1519695"><ele>215.75</ele><time>2026-03-29T11:59:26.139Z</time></trkpt><trkpt lat="45.4281554" lon="8.1518381"><ele>215.5</ele><time>2026-03-29T11:59:27.124Z</time></trkpt><trkpt lat="45.4282205" lon="8.1516849"><ele>215.25</ele><time>2026-03-29T11:59:28.145Z</time></trkpt><trkpt lat="45.428287" lon="8.1515261"><ele>215.0</ele><time>2026-03-29T11:59:29.155Z</time></trkpt><trkpt lat="45.4283503" lon="8.1514074"><ele>215.00000000000003</ele><time>2026-03-29T11:59:30.118Z</time></trkpt><trkpt lat="45.4283964" lon="8.1513039"><ele>215.0</ele><time>2026-03-29T11:59:31.136Z</time></trkpt><trkpt lat="45.4284525" lon="8.1512264"><ele>215.0</ele><time>2026-03-29T11:59:32.132Z</time></trkpt><trkpt lat="45.4285271" lon="8.1511491"><ele>215.0</ele><time>2026-03-29T11:59:33.128Z</time></trkpt><trkpt lat="45.4285904" lon="8.151088"><ele>215.00000000000003</ele><time>2026-03-29T11:59:34.128Z</time></trkpt><trkpt lat="45.4286769" lon="8.1509781"><ele>215.0</ele><time>2026-03-29T11:59:36.126Z</time></trkpt><trkpt lat="45.4287664" lon="8.1508375"><ele>215.0</ele><time>2026-03-29T11:59:38.133Z</time></trkpt><trkpt lat="45.4288006" lon="8.15075"><ele>215.0</ele><time>2026-03-29T11:59:39.113Z</time></trkpt><trkpt lat="45.4288243" lon="8.1506196"><ele>215.0</ele><time>2026-03-29T11:59:40.123Z</time></trkpt><trkpt lat="45.4288473" lon="8.1504464"><ele>215.0</ele><time>2026-03-29T11:59:41.115Z</time></trkpt><trkpt lat="45.4288805" lon="8.1502927"><ele>215.0</ele><time>2026-03-29T11:59:42.136Z</time></trkpt><trkpt lat="45.4289163" lon="8.1501477"><ele>214.4</ele><time>2026-03-29T11:59:43.12Z</time></trkpt><trkpt lat="45.4289575" lon="8.1500075"><ele>213.8</ele><time>2026-03-29T11:59:44.115Z</time></trkpt><trkpt lat="45.429008" lon="8.1498671"><ele>213.2</ele><time>2026-03-29T11:59:45.147Z</time></trkpt><trkpt lat="45.4290607" lon="8.1497239"><ele>212.6</ele><time>2026-03-29T11:59:46.134Z</time></trkpt><trkpt lat="45.4291008" lon="8.1495836"><ele>212.0</ele><time>2026-03-29T11:59:47.119Z</time></trkpt><trkpt lat="45.4291173" lon="8.1494515"><ele>212.0</ele><time>2026-03-29T11:59:48.151Z</time></trkpt><trkpt lat="45.4291197" lon="8.1493101"><ele>212.0</ele><time>2026-03-29T11:59:49.117Z</time></trkpt><trkpt lat="45.4291129" lon="8.149159"><ele>212.0</ele><time>2026-03-29T11:59:50.127Z</time></trkpt><trkpt lat="45.4291037" lon="8.1490076"><ele>212.0</ele><time>2026-03-29T11:59:51.125Z</time></trkpt><trkpt lat="45.4291085" lon="8.1488696"><ele>212.0</ele><time>2026-03-29T11:59:52.127Z</time></trkpt><trkpt lat="45.4291286" lon="8.1487183"><ele>212.66666666666669</ele><time>2026-03-29T11:59:53.12Z</time></trkpt><trkpt lat="45.4291647" lon="8.1485588"><ele>213.33333333333334</ele><time>2026-03-29T11:59:54.123Z</time></trkpt><trkpt lat="45.4291962" lon="8.1484243"><ele>214.0</ele><time>2026-03-29T11:59:55.127Z</time></trkpt><trkpt lat="45.4292178" lon="8.1483153"><ele>214.66666666666669</ele><time>2026-03-29T11:59:56.125Z</time></trkpt><trkpt lat="45.4292172" lon="8.1482025"><ele>215.33333333333334</ele><time>2026-03-29T11:59:57.13Z</time></trkpt><trkpt lat="45.4292175" lon="8.1481015"><ele>216.0</ele><time>2026-03-29T11:59:58.137Z</time></trkpt><trkpt lat="45.4292002" lon="8.1480093"><ele>216.0</ele><time>2026-03-29T11:59:59.117Z</time></trkpt><trkpt lat="45.4291656" lon="8.1478874"><ele>216.00000000000003</ele><time>2026-03-29T12:00:00.131Z</time></trkpt><trkpt lat="45.4291138" lon="8.1477441"><ele>216.00000000000003</ele><time>2026-03-29T12:00:01.117Z</time></trkpt><trkpt lat="45.4290594" lon="8.1476169"><ele>216.0</ele><time>2026-03-29T12:00:02.12Z</time></trkpt><trkpt lat="45.4290129" lon="8.1475118"><ele>216.0</ele><time>2026-03-29T12:00:03.129Z</time></trkpt><trkpt lat="45.4289489" lon="8.147407"><ele>216.25</ele><time>2026-03-29T12:00:04.121Z</time></trkpt><trkpt lat="45.4288604" lon="8.1473004"><ele>216.5</ele><time>2026-03-29T12:00:05.116Z</time></trkpt><trkpt lat="45.4287778" lon="8.1471799"><ele>216.75</ele><time>2026-03-29T12:00:06.124Z</time></trkpt><trkpt lat="45.4287059" lon="8.1470496"><ele>217.0</ele><time>2026-03-29T12:00:07.125Z</time></trkpt><trkpt lat="45.4286371" lon="8.1469206"><ele>219.75</ele><time>2026-03-29T12:00:08.159Z</time></trkpt><trkpt lat="45.428567" lon="8.1467937"><ele>222.5</ele><time>2026-03-29T12:00:09.123Z</time></trkpt><trkpt lat="45.4284799" lon="8.146653"><ele>225.25</ele><time>2026-03-29T12:00:10.123Z</time></trkpt><trkpt lat="45.4284013" lon="8.1465057"><ele>228.0</ele><time>2026-03-29T12:00:11.127Z</time></trkpt><trkpt lat="45.4283241" lon="8.1463559"><ele>228.4</ele><time>2026-03-29T12:00:12.136Z</time></trkpt><trkpt lat="45.4282477" lon="8.146201"><ele>228.8</ele><time>2026-03-29T12:00:13.136Z</time></trkpt><trkpt lat="45.4281879" lon="8.1460647"><ele>229.2</ele><time>2026-03-29T12:00:14.123Z</time></trkpt><trkpt lat="45.4281348" lon="8.1459445"><ele>229.6</ele><time>2026-03-29T12:00:15.131Z</time></trkpt><trkpt lat="45.4280866" lon="8.1458417"><ele>230.0</ele><time>2026-03-29T12:00:16.137Z</time></trkpt><trkpt lat="45.4280568" lon="8.1457468"><ele>229.8</ele><time>2026-03-29T12:00:17.132Z</time></trkpt><trkpt lat="45.4280184" lon="8.1456407"><ele>229.6</ele><time>2026-03-29T12:00:18.137Z</time></trkpt><trkpt lat="45.4279663" lon="8.1455216"><ele>229.39999999999998</ele><time>2026-03-29T12:00:19.126Z</time></trkpt><trkpt lat="45.4279142" lon="8.1453963"><ele>229.2</ele><time>2026-03-29T12:00:20.13Z</time></trkpt><trkpt lat="45.4278556" lon="8.145268"><ele>229.0</ele><time>2026-03-29T12:00:21.138Z</time></trkpt><trkpt lat="45.4277728" lon="8.1451265"><ele>229.0</ele><time>2026-03-29T12:00:22.138Z</time></trkpt><trkpt lat="45.4276762" lon="8.1449887"><ele>229.0</ele><time>2026-03-29T12:00:23.133Z</time></trkpt><trkpt lat="45.42758" lon="8.1448505"><ele>229.0</ele><time>2026-03-29T12:00:24.163Z</time></trkpt><trkpt lat="45.4274766" lon="8.1447036"><ele>229.0</ele><time>2026-03-29T12:00:25.129Z</time></trkpt><trkpt lat="45.4273783" lon="8.1445654"><ele>229.0</ele><time>2026-03-29T12:00:26.124Z</time></trkpt><trkpt lat="45.427275" lon="8.1444183"><ele>229.0</ele><time>2026-03-29T12:00:27.145Z</time></trkpt><trkpt lat="45.4271765" lon="8.1442595"><ele>229.0</ele><time>2026-03-29T12:00:28.134Z</time></trkpt><trkpt lat="45.4270817" lon="8.1441118"><ele>229.0</ele><time>2026-03-29T12:00:29.131Z</time></trkpt><trkpt lat="45.4269893" lon="8.143971"><ele>229.0</ele><time>2026-03-29T12:00:30.127Z</time></trkpt><trkpt lat="45.4269002" lon="8.1438288"><ele>229.0</ele><time>2026-03-29T12:00:31.143Z</time></trkpt><trkpt lat="45.4268139" lon="8.1437013"><ele>229.0</ele><time>2026-03-29T12:00:32.141Z</time></trkpt><trkpt lat="45.4267389" lon="8.1435881"><ele>229.0</ele><time>2026-03-29T12:00:33.161Z</time></trkpt><trkpt lat="45.4266509" lon="8.1434644"><ele>229.0</ele><time>2026-03-29T12:00:34.139Z</time></trkpt><trkpt lat="45.4265612" lon="8.1433312"><ele>228.99999999999997</ele><time>2026-03-29T12:00:35.136Z</time></trkpt><trkpt lat="45.4264807" lon="8.1432181"><ele>228.99999999999997</ele><time>2026-03-29T12:00:36.123Z</time></trkpt><trkpt lat="45.4264123" lon="8.1431175"><ele>229.0</ele><time>2026-03-29T12:00:37.143Z</time></trkpt><trkpt lat="45.4263485" lon="8.1430204"><ele>229.0</ele><time>2026-03-29T12:00:38.14Z</time></trkpt><trkpt lat="45.4262866" lon="8.1429275"><ele>229.2</ele><time>2026-03-29T12:00:39.136Z</time></trkpt><trkpt lat="45.4262218" lon="8.1428303"><ele>229.39999999999998</ele><time>2026-03-29T12:00:40.146Z</time></trkpt><trkpt lat="45.4261539" lon="8.1427201"><ele>229.6</ele><time>2026-03-29T12:00:41.128Z</time></trkpt><trkpt lat="45.4260799" lon="8.1426068"><ele>229.8</ele><time>2026-03-29T12:00:42.131Z</time></trkpt><trkpt lat="45.4259999" lon="8.1424835"><ele>230.0</ele><time>2026-03-29T12:00:43.134Z</time></trkpt><trkpt lat="45.4259171" lon="8.1423586"><ele>230.0</ele><time>2026-03-29T12:00:44.124Z</time></trkpt><trkpt lat="45.4258444" lon="8.1422486"><ele>230.0</ele><time>2026-03-29T12:00:45.135Z</time></trkpt><trkpt lat="45.4257767" lon="8.142151"><ele>230.0</ele><time>2026-03-29T12:00:46.12Z</time></trkpt><trkpt lat="45.4257256" lon="8.1420721"><ele>230.0</ele><time>2026-03-29T12:00:47.164Z</time></trkpt><trkpt lat="45.4256734" lon="8.1420015"><ele>230.0</ele><time>2026-03-29T12:00:48.154Z</time></trkpt><trkpt lat="45.4255807" lon="8.1418593"><ele>230.0</ele><time>2026-03-29T12:00:50.133Z</time></trkpt><trkpt lat="45.425522" lon="8.1417576"><ele>230.0</ele><time>2026-03-29T12:00:51.141Z</time></trkpt><trkpt lat="45.4254544" lon="8.1416482"><ele>230.0</ele><time>2026-03-29T12:00:52.139Z</time></trkpt><trkpt lat="45.4253826" lon="8.1415456"><ele>230.0</ele><time>2026-03-29T12:00:53.143Z</time></trkpt><trkpt lat="45.4253199" lon="8.1414482"><ele>230.0</ele><time>2026-03-29T12:00:54.137Z</time></trkpt><trkpt lat="45.425261" lon="8.1413549"><ele>229.8</ele><time>2026-03-29T12:00:55.149Z</time></trkpt><trkpt lat="45.4251989" lon="8.1412602"><ele>229.6</ele><time>2026-03-29T12:00:56.133Z</time></trkpt><trkpt lat="45.4251379" lon="8.1411618"><ele>229.39999999999998</ele><time>2026-03-29T12:00:57.14Z</time></trkpt><trkpt lat="45.4250798" lon="8.1410496"><ele>229.2</ele><time>2026-03-29T12:00:58.14Z</time></trkpt><trkpt lat="45.4250325" lon="8.1409349"><ele>229.0</ele><time>2026-03-29T12:00:59.126Z</time></trkpt><trkpt lat="45.424987" lon="8.1408062"><ele>229.5</ele><time>2026-03-29T12:01:00.131Z</time></trkpt><trkpt lat="45.4249376" lon="8.1406736"><ele>230.0</ele><time>2026-03-29T12:01:01.133Z</time></trkpt><trkpt lat="45.4248835" lon="8.1405116"><ele>230.5</ele><time>2026-03-29T12:01:02.149Z</time></trkpt><trkpt lat="45.4248141" lon="8.1403229"><ele>231.0</ele><time>2026-03-29T12:01:03.128Z</time></trkpt><trkpt lat="45.424734" lon="8.1401351"><ele>231.0</ele><time>2026-03-29T12:01:04.131Z</time></trkpt><trkpt lat="45.4246529" lon="8.1399467"><ele>231.0</ele><time>2026-03-29T12:01:05.138Z</time></trkpt><trkpt lat="45.4245758" lon="8.1397601"><ele>231.0</ele><time>2026-03-29T12:01:06.128Z</time></trkpt><trkpt lat="45.4245019" lon="8.1395653"><ele>230.66666666666669</ele><time>2026-03-29T12:01:07.127Z</time></trkpt><trkpt lat="45.4244203" lon="8.1393601"><ele>230.33333333333334</ele><time>2026-03-29T12:01:08.116Z</time></trkpt><trkpt lat="45.4243413" lon="8.1391565"><ele>230.0</ele><time>2026-03-29T12:01:09.129Z</time></trkpt><trkpt lat="45.4242625" lon="8.138944"><ele>229.66666666666669</ele><time>2026-03-29T12:01:10.125Z</time></trkpt><trkpt lat="45.4241832" lon="8.1387381"><ele>229.33333333333331</ele><time>2026-03-29T12:01:11.147Z</time></trkpt><trkpt lat="45.4241011" lon="8.1385305"><ele>229.0</ele><time>2026-03-29T12:01:12.131Z</time></trkpt><trkpt lat="45.4240215" lon="8.138333"><ele>229.0</ele><time>2026-03-29T12:01:13.13Z</time></trkpt><trkpt lat="45.4239439" lon="8.1381438"><ele>229.0</ele><time>2026-03-29T12:01:14.141Z</time></trkpt><trkpt lat="45.4238709" lon="8.1379734"><ele>229.0</ele><time>2026-03-29T12:01:15.133Z</time></trkpt><trkpt lat="45.4238039" lon="8.1378041"><ele>229.0</ele><time>2026-03-29T12:01:16.132Z</time></trkpt><trkpt lat="45.4237436" lon="8.1376528"><ele>228.99999999999997</ele><time>2026-03-29T12:01:17.131Z</time></trkpt><trkpt lat="45.4236987" lon="8.1375275"><ele>229.0</ele><time>2026-03-29T12:01:18.134Z</time></trkpt><trkpt lat="45.4236712" lon="8.1374459"><ele>229.0</ele><time>2026-03-29T12:01:19.136Z</time></trkpt><trkpt lat="45.4236407" lon="8.1373674"><ele>229.0</ele><time>2026-03-29T12:01:21.127Z</time></trkpt><trkpt lat="45.4235706" lon="8.1373432"><ele>228.99999999999997</ele><time>2026-03-29T12:01:24.124Z</time></trkpt><trkpt lat="45.4234934" lon="8.1373666"><ele>229.0</ele><time>2026-03-29T12:01:25.135Z</time></trkpt><trkpt lat="45.4233954" lon="8.137453"><ele>229.0</ele><time>2026-03-29T12:01:26.129Z</time></trkpt><trkpt lat="45.4232806" lon="8.1375517"><ele>229.0</ele><time>2026-03-29T12:01:27.129Z</time></trkpt><trkpt lat="45.4231738" lon="8.1376372"><ele>229.0</ele><time>2026-03-29T12:01:28.135Z</time></trkpt><trkpt lat="45.4230593" lon="8.1377227"><ele>229.0</ele><time>2026-03-29T12:01:29.136Z</time></trkpt><trkpt lat="45.4229483" lon="8.1378136"><ele>229.0</ele><time>2026-03-29T12:01:30.146Z</time></trkpt><trkpt lat="45.4228376" lon="8.1379094"><ele>229.0</ele><time>2026-03-29T12:01:31.128Z</time></trkpt><trkpt lat="45.4227264" lon="8.1380049"><ele>229.0</ele><time>2026-03-29T12:01:32.125Z</time></trkpt><trkpt lat="45.4226025" lon="8.1381128"><ele>229.0</ele><time>2026-03-29T12:01:33.136Z</time></trkpt><trkpt lat="45.4224701" lon="8.1382254"><ele>228.66666666666666</ele><time>2026-03-29T12:01:34.13Z</time></trkpt><trkpt lat="45.4223346" lon="8.1383397"><ele>228.33333333333331</ele><time>2026-03-29T12:01:35.136Z</time></trkpt><trkpt lat="45.4221875" lon="8.1384652"><ele>228.0</ele><time>2026-03-29T12:01:36.154Z</time></trkpt><trkpt lat="45.4220371" lon="8.1385966"><ele>228.0</ele><time>2026-03-29T12:01:37.141Z</time></trkpt><trkpt lat="45.4218808" lon="8.1387293"><ele>228.0</ele><time>2026-03-29T12:01:38.14Z</time></trkpt><trkpt lat="45.4217272" lon="8.1388606"><ele>228.0</ele><time>2026-03-29T12:01:39.146Z</time></trkpt><trkpt lat="45.421577" lon="8.1389957"><ele>227.66666666666669</ele><time>2026-03-29T12:01:40.145Z</time></trkpt><trkpt lat="45.421426" lon="8.1391296"><ele>227.33333333333334</ele><time>2026-03-29T12:01:41.131Z</time></trkpt><trkpt lat="45.421275" lon="8.1392633"><ele>227.0</ele><time>2026-03-29T12:01:42.13Z</time></trkpt><trkpt lat="45.4211231" lon="8.1393939"><ele>226.33333333333334</ele><time>2026-03-29T12:01:43.136Z</time></trkpt><trkpt lat="45.4209698" lon="8.1395253"><ele>225.66666666666669</ele><time>2026-03-29T12:01:44.139Z</time></trkpt><trkpt lat="45.4208191" lon="8.139659"><ele>225.0</ele><time>2026-03-29T12:01:45.142Z</time></trkpt><trkpt lat="45.4206644" lon="8.1397886"><ele>225.0</ele><time>2026-03-29T12:01:46.13Z</time></trkpt><trkpt lat="45.4205109" lon="8.1399214"><ele>225.0</ele><time>2026-03-29T12:01:47.139Z</time></trkpt><trkpt lat="45.4203547" lon="8.1400622"><ele>225.0</ele><time>2026-03-29T12:01:48.133Z</time></trkpt><trkpt lat="45.4201908" lon="8.1402045"><ele>224.0</ele><time>2026-03-29T12:01:49.135Z</time></trkpt><trkpt lat="45.4200252" lon="8.1403493"><ele>223.0</ele><time>2026-03-29T12:01:50.145Z</time></trkpt><trkpt lat="45.4198613" lon="8.140493"><ele>222.0</ele><time>2026-03-29T12:01:51.133Z</time></trkpt><trkpt lat="45.4196977" lon="8.1406375"><ele>222.33333333333331</ele><time>2026-03-29T12:01:52.126Z</time></trkpt><trkpt lat="45.4195352" lon="8.1407791"><ele>222.66666666666666</ele><time>2026-03-29T12:01:53.135Z</time></trkpt><trkpt lat="45.4193683" lon="8.1409197"><ele>223.0</ele><time>2026-03-29T12:01:54.128Z</time></trkpt><trkpt lat="45.4192024" lon="8.1410614"><ele>223.0</ele><time>2026-03-29T12:01:55.128Z</time></trkpt><trkpt lat="45.4190378" lon="8.1412069"><ele>223.0</ele><time>2026-03-29T12:01:56.136Z</time></trkpt><trkpt lat="45.4188793" lon="8.1413527"><ele>223.0</ele><time>2026-03-29T12:01:57.116Z</time></trkpt><trkpt lat="45.4187212" lon="8.1414953"><ele>222.66666666666666</ele><time>2026-03-29T12:01:58.156Z</time></trkpt><trkpt lat="45.4185642" lon="8.1416297"><ele>222.33333333333331</ele><time>2026-03-29T12:01:59.124Z</time></trkpt><trkpt lat="45.4184041" lon="8.1417688"><ele>222.0</ele><time>2026-03-29T12:02:00.114Z</time></trkpt><trkpt lat="45.4182402" lon="8.1419053"><ele>222.0</ele><time>2026-03-29T12:02:01.133Z</time></trkpt><trkpt lat="45.4180784" lon="8.1420424"><ele>222.0</ele><time>2026-03-29T12:02:02.13Z</time></trkpt><trkpt lat="45.4179136" lon="8.1421815"><ele>222.0</ele><time>2026-03-29T12:02:03.147Z</time></trkpt><trkpt lat="45.4177492" lon="8.1423218"><ele>221.66666666666669</ele><time>2026-03-29T12:02:04.129Z</time></trkpt><trkpt lat="45.417587" lon="8.1424662"><ele>221.33333333333334</ele><time>2026-03-29T12:02:05.132Z</time></trkpt><trkpt lat="45.41742" lon="8.1426082"><ele>221.0</ele><time>2026-03-29T12:02:06.137Z</time></trkpt><trkpt lat="45.4172547" lon="8.1427571"><ele>221.0</ele><time>2026-03-29T12:02:07.142Z</time></trkpt><trkpt lat="45.417085" lon="8.1429052"><ele>221.0</ele><time>2026-03-29T12:02:08.126Z</time></trkpt><trkpt lat="45.4169126" lon="8.1430599"><ele>221.0</ele><time>2026-03-29T12:02:09.145Z</time></trkpt><trkpt lat="45.4167372" lon="8.1432105"><ele>221.0</ele><time>2026-03-29T12:02:10.131Z</time></trkpt><trkpt lat="45.4165663" lon="8.1433569"><ele>221.0</ele><time>2026-03-29T12:02:11.136Z</time></trkpt><trkpt lat="45.4163963" lon="8.1435033"><ele>221.0</ele><time>2026-03-29T12:02:12.14Z</time></trkpt><trkpt lat="45.4162309" lon="8.1436484"><ele>220.66666666666669</ele><time>2026-03-29T12:02:13.131Z</time></trkpt><trkpt lat="45.416068" lon="8.1437899"><ele>220.33333333333331</ele><time>2026-03-29T12:02:14.122Z</time></trkpt><trkpt lat="45.4159089" lon="8.143929"><ele>220.0</ele><time>2026-03-29T12:02:15.16Z</time></trkpt><trkpt lat="45.4157439" lon="8.1440682"><ele>220.0</ele><time>2026-03-29T12:02:16.122Z</time></trkpt><trkpt lat="45.4155849" lon="8.1442092"><ele>220.0</ele><time>2026-03-29T12:02:17.131Z</time></trkpt><trkpt lat="45.4154238" lon="8.1443506"><ele>220.0</ele><time>2026-03-29T12:02:18.133Z</time></trkpt><trkpt lat="45.4152593" lon="8.1444877"><ele>220.33333333333331</ele><time>2026-03-29T12:02:19.139Z</time></trkpt><trkpt lat="45.4150905" lon="8.1446221"><ele>220.66666666666669</ele><time>2026-03-29T12:02:20.125Z</time></trkpt><trkpt lat="45.4149129" lon="8.1447535"><ele>221.0</ele><time>2026-03-29T12:02:21.127Z</time></trkpt><trkpt lat="45.4147309" lon="8.144879"><ele>220.66666666666669</ele><time>2026-03-29T12:02:22.128Z</time></trkpt><trkpt lat="45.4145479" lon="8.1449942"><ele>220.33333333333331</ele><time>2026-03-29T12:02:23.151Z</time></trkpt><trkpt lat="45.4143643" lon="8.14511"><ele>220.0</ele><time>2026-03-29T12:02:24.137Z</time></trkpt><trkpt lat="45.4141831" lon="8.1452162"><ele>220.0</ele><time>2026-03-29T12:02:25.141Z</time></trkpt><trkpt lat="45.414004" lon="8.1453247"><ele>220.0</ele><time>2026-03-29T12:02:26.141Z</time></trkpt><trkpt lat="45.4138287" lon="8.1454323"><ele>220.0</ele><time>2026-03-29T12:02:27.125Z</time></trkpt><trkpt lat="45.4136531" lon="8.1455389"><ele>219.66666666666666</ele><time>2026-03-29T12:02:28.137Z</time></trkpt><trkpt lat="45.413476" lon="8.1456425"><ele>219.33333333333331</ele><time>2026-03-29T12:02:29.14Z</time></trkpt><trkpt lat="45.4133028" lon="8.1457492"><ele>219.0</ele><time>2026-03-29T12:02:30.129Z</time></trkpt><trkpt lat="45.4131242" lon="8.1458548"><ele>218.66666666666669</ele><time>2026-03-29T12:02:31.135Z</time></trkpt><trkpt lat="45.412948" lon="8.1459562"><ele>218.33333333333334</ele><time>2026-03-29T12:02:32.127Z</time></trkpt><trkpt lat="45.4127734" lon="8.1460674"><ele>218.0</ele><time>2026-03-29T12:02:33.127Z</time></trkpt><trkpt lat="45.4125929" lon="8.1461741"><ele>218.0</ele><time>2026-03-29T12:02:34.127Z</time></trkpt><trkpt lat="45.4124167" lon="8.1462827"><ele>218.0</ele><time>2026-03-29T12:02:35.135Z</time></trkpt><trkpt lat="45.4122378" lon="8.1463892"><ele>218.0</ele><time>2026-03-29T12:02:36.124Z</time></trkpt><trkpt lat="45.4120566" lon="8.1464968"><ele>218.0</ele><time>2026-03-29T12:02:37.125Z</time></trkpt><trkpt lat="45.4118781" lon="8.1466038"><ele>218.0</ele><time>2026-03-29T12:02:38.125Z</time></trkpt><trkpt lat="45.4117059" lon="8.1467026"><ele>218.0</ele><time>2026-03-29T12:02:39.123Z</time></trkpt><trkpt lat="45.4115407" lon="8.1468019"><ele>218.0</ele><time>2026-03-29T12:02:40.122Z</time></trkpt><trkpt lat="45.4113846" lon="8.1469277"><ele>218.0</ele><time>2026-03-29T12:02:41.128Z</time></trkpt><trkpt lat="45.4112341" lon="8.1470937"><ele>218.0</ele><time>2026-03-29T12:02:42.142Z</time></trkpt><trkpt lat="45.411079" lon="8.1472862"><ele>218.0</ele><time>2026-03-29T12:02:43.134Z</time></trkpt><trkpt lat="45.4109231" lon="8.1474844"><ele>218.0</ele><time>2026-03-29T12:02:44.13Z</time></trkpt><trkpt lat="45.4107697" lon="8.147684"><ele>218.0</ele><time>2026-03-29T12:02:45.155Z</time></trkpt><trkpt lat="45.4106103" lon="8.1478765"><ele>218.33333333333334</ele><time>2026-03-29T12:02:46.138Z</time></trkpt><trkpt lat="45.4104519" lon="8.1480667"><ele>218.66666666666669</ele><time>2026-03-29T12:02:47.128Z</time></trkpt><trkpt lat="45.4102976" lon="8.1482574"><ele>219.0</ele><time>2026-03-29T12:02:48.132Z</time></trkpt><trkpt lat="45.4101421" lon="8.148451"><ele>217.66666666666669</ele><time>2026-03-29T12:02:49.144Z</time></trkpt><trkpt lat="45.4099853" lon="8.148638"><ele>216.33333333333334</ele><time>2026-03-29T12:02:50.123Z</time></trkpt><trkpt lat="45.4098304" lon="8.1488285"><ele>215.0</ele><time>2026-03-29T12:02:51.121Z</time></trkpt><trkpt lat="45.409677" lon="8.1490171"><ele>215.33333333333334</ele><time>2026-03-29T12:02:52.118Z</time></trkpt><trkpt lat="45.4095273" lon="8.1491997"><ele>215.66666666666669</ele><time>2026-03-29T12:02:53.127Z</time></trkpt><trkpt lat="45.4093791" lon="8.1493797"><ele>216.0</ele><time>2026-03-29T12:02:54.128Z</time></trkpt><trkpt lat="45.4092361" lon="8.1495618"><ele>216.0</ele><time>2026-03-29T12:02:55.134Z</time></trkpt><trkpt lat="45.4090942" lon="8.1497456"><ele>216.0</ele><time>2026-03-29T12:02:56.138Z</time></trkpt><trkpt lat="45.4089485" lon="8.1499201"><ele>216.0</ele><time>2026-03-29T12:02:57.133Z</time></trkpt><trkpt lat="45.4088046" lon="8.1500948"><ele>216.33333333333331</ele><time>2026-03-29T12:02:58.148Z</time></trkpt><trkpt lat="45.408659" lon="8.1502775"><ele>216.66666666666666</ele><time>2026-03-29T12:02:59.128Z</time></trkpt><trkpt lat="45.4085136" lon="8.1504648"><ele>217.0</ele><time>2026-03-29T12:03:00.137Z</time></trkpt><trkpt lat="45.4083704" lon="8.1506512"><ele>216.33333333333331</ele><time>2026-03-29T12:03:01.127Z</time></trkpt><trkpt lat="45.4082286" lon="8.1508304"><ele>215.66666666666669</ele><time>2026-03-29T12:03:02.136Z</time></trkpt><trkpt lat="45.4080924" lon="8.151006"><ele>215.0</ele><time>2026-03-29T12:03:03.134Z</time></trkpt><trkpt lat="45.4079563" lon="8.1511629"><ele>214.33333333333334</ele><time>2026-03-29T12:03:04.135Z</time></trkpt><trkpt lat="45.4078172" lon="8.1512873"><ele>213.66666666666669</ele><time>2026-03-29T12:03:05.117Z</time></trkpt><trkpt lat="45.4076638" lon="8.1513954"><ele>213.0</ele><time>2026-03-29T12:03:06.133Z</time></trkpt><trkpt lat="45.4074898" lon="8.1514787"><ele>213.0</ele><time>2026-03-29T12:03:07.134Z</time></trkpt><trkpt lat="45.4073076" lon="8.1515398"><ele>213.0</ele><time>2026-03-29T12:03:08.121Z</time></trkpt><trkpt lat="45.4071206" lon="8.1516012"><ele>213.0</ele><time>2026-03-29T12:03:09.117Z</time></trkpt><trkpt lat="45.4069431" lon="8.1516713"><ele>212.66666666666669</ele><time>2026-03-29T12:03:10.125Z</time></trkpt><trkpt lat="45.4067708" lon="8.1517336"><ele>212.33333333333334</ele><time>2026-03-29T12:03:11.121Z</time></trkpt><trkpt lat="45.4066137" lon="8.1517922"><ele>212.0</ele><time>2026-03-29T12:03:12.127Z</time></trkpt><trkpt lat="45.4064723" lon="8.1518364"><ele>212.0</ele><time>2026-03-29T12:03:13.139Z</time></trkpt><trkpt lat="45.4063503" lon="8.1518762"><ele>212.0</ele><time>2026-03-29T12:03:14.135Z</time></trkpt><trkpt lat="45.4062438" lon="8.1518633"><ele>212.0</ele><time>2026-03-29T12:03:15.115Z</time></trkpt><trkpt lat="45.4061468" lon="8.1518283"><ele>212.0</ele><time>2026-03-29T12:03:16.122Z</time></trkpt><trkpt lat="45.4060581" lon="8.1518271"><ele>212.0</ele><time>2026-03-29T12:03:17.121Z</time></trkpt><trkpt lat="45.4059756" lon="8.1518676"><ele>212.0</ele><time>2026-03-29T12:03:18.131Z</time></trkpt><trkpt lat="45.4058798" lon="8.1519543"><ele>212.0</ele><time>2026-03-29T12:03:19.131Z</time></trkpt><trkpt lat="45.4057801" lon="8.1520615"><ele>212.0</ele><time>2026-03-29T12:03:20.134Z</time></trkpt><trkpt lat="45.4056482" lon="8.1521156"><ele>212.0</ele><time>2026-03-29T12:03:21.137Z</time></trkpt><trkpt lat="45.405479" lon="8.1521682"><ele>212.0</ele><time>2026-03-29T12:03:22.12Z</time></trkpt><trkpt lat="45.4053122" lon="8.1522318"><ele>212.0</ele><time>2026-03-29T12:03:23.122Z</time></trkpt><trkpt lat="45.4051483" lon="8.1522939"><ele>212.0</ele><time>2026-03-29T12:03:24.124Z</time></trkpt><trkpt lat="45.4049831" lon="8.1523599"><ele>212.0</ele><time>2026-03-29T12:03:25.131Z</time></trkpt><trkpt lat="45.4048109" lon="8.1524186"><ele>212.0</ele><time>2026-03-29T12:03:26.148Z</time></trkpt><trkpt lat="45.4046349" lon="8.1524818"><ele>212.0</ele><time>2026-03-29T12:03:27.127Z</time></trkpt><trkpt lat="45.4044531" lon="8.152549"><ele>211.66666666666669</ele><time>2026-03-29T12:03:28.137Z</time></trkpt><trkpt lat="45.4042664" lon="8.1526094"><ele>211.33333333333331</ele><time>2026-03-29T12:03:29.118Z</time></trkpt><trkpt lat="45.40408" lon="8.1526725"><ele>211.0</ele><time>2026-03-29T12:03:30.152Z</time></trkpt><trkpt lat="45.403889" lon="8.1527336"><ele>211.0</ele><time>2026-03-29T12:03:31.124Z</time></trkpt><trkpt lat="45.4036947" lon="8.1527972"><ele>211.0</ele><time>2026-03-29T12:03:32.122Z</time></trkpt><trkpt lat="45.4034975" lon="8.1528686"><ele>211.0</ele><time>2026-03-29T12:03:33.117Z</time></trkpt><trkpt lat="45.4032995" lon="8.152936"><ele>211.0</ele><time>2026-03-29T12:03:34.126Z</time></trkpt><trkpt lat="45.4031041" lon="8.1530044"><ele>211.0</ele><time>2026-03-29T12:03:35.133Z</time></trkpt><trkpt lat="45.4029114" lon="8.1530752"><ele>211.0</ele><time>2026-03-29T12:03:36.138Z</time></trkpt><trkpt lat="45.402723" lon="8.153149"><ele>210.33333333333331</ele><time>2026-03-29T12:03:37.122Z</time></trkpt><trkpt lat="45.4025372" lon="8.1532142"><ele>209.66666666666669</ele><time>2026-03-29T12:03:38.133Z</time></trkpt><trkpt lat="45.4023516" lon="8.1532788"><ele>209.0</ele><time>2026-03-29T12:03:39.13Z</time></trkpt><trkpt lat="45.402166" lon="8.1533428"><ele>208.0</ele><time>2026-03-29T12:03:40.131Z</time></trkpt><trkpt lat="45.4019773" lon="8.1534046"><ele>207.0</ele><time>2026-03-29T12:03:41.132Z</time></trkpt><trkpt lat="45.4017907" lon="8.1534666"><ele>206.0</ele><time>2026-03-29T12:03:42.141Z</time></trkpt><trkpt lat="45.4016058" lon="8.1535299"><ele>206.0</ele><time>2026-03-29T12:03:43.138Z</time></trkpt><trkpt lat="45.401422" lon="8.1535937"><ele>206.0</ele><time>2026-03-29T12:03:44.129Z</time></trkpt><trkpt lat="45.4012324" lon="8.1536648"><ele>206.0</ele><time>2026-03-29T12:03:45.129Z</time></trkpt><trkpt lat="45.4010374" lon="8.1537268"><ele>205.0</ele><time>2026-03-29T12:03:46.128Z</time></trkpt><trkpt lat="45.4008398" lon="8.1537923"><ele>204.0</ele><time>2026-03-29T12:03:47.136Z</time></trkpt><trkpt lat="45.4006407" lon="8.1538564"><ele>203.0</ele><time>2026-03-29T12:03:48.159Z</time></trkpt><trkpt lat="45.4004399" lon="8.153924"><ele>202.66666666666669</ele><time>2026-03-29T12:03:49.123Z</time></trkpt><trkpt lat="45.4002424" lon="8.1539888"><ele>202.33333333333331</ele><time>2026-03-29T12:03:50.126Z</time></trkpt><trkpt lat="45.4000407" lon="8.1540611"><ele>202.0</ele><time>2026-03-29T12:03:51.125Z</time></trkpt><trkpt lat="45.399852" lon="8.1541302"><ele>202.0</ele><time>2026-03-29T12:03:52.122Z</time></trkpt><trkpt lat="45.3996678" lon="8.1541906"><ele>202.0</ele><time>2026-03-29T12:03:53.128Z</time></trkpt><trkpt lat="45.3994934" lon="8.1542534"><ele>202.0</ele><time>2026-03-29T12:03:54.12Z</time></trkpt><trkpt lat="45.399328" lon="8.1543125"><ele>201.66666666666666</ele><time>2026-03-29T12:03:55.122Z</time></trkpt><trkpt lat="45.3991751" lon="8.1543867"><ele>201.33333333333331</ele><time>2026-03-29T12:03:56.128Z</time></trkpt><trkpt lat="45.3990257" lon="8.1544868"><ele>201.0</ele><time>2026-03-29T12:03:57.127Z</time></trkpt><trkpt lat="45.3988773" lon="8.1546338"><ele>200.33333333333331</ele><time>2026-03-29T12:03:58.127Z</time></trkpt><trkpt lat="45.398736" lon="8.154803"><ele>199.66666666666666</ele><time>2026-03-29T12:03:59.126Z</time></trkpt><trkpt lat="45.3986022" lon="8.1549973"><ele>199.0</ele><time>2026-03-29T12:04:00.129Z</time></trkpt><trkpt lat="45.3984768" lon="8.1552001"><ele>199.0</ele><time>2026-03-29T12:04:01.122Z</time></trkpt><trkpt lat="45.3983567" lon="8.1554112"><ele>199.0</ele><time>2026-03-29T12:04:02.146Z</time></trkpt><trkpt lat="45.3982414" lon="8.1556193"><ele>199.0</ele><time>2026-03-29T12:04:03.134Z</time></trkpt><trkpt lat="45.3981381" lon="8.1558347"><ele>199.0</ele><time>2026-03-29T12:04:04.135Z</time></trkpt><trkpt lat="45.3980372" lon="8.1560492"><ele>199.0</ele><time>2026-03-29T12:04:05.128Z</time></trkpt><trkpt lat="45.3979373" lon="8.1562629"><ele>199.0</ele><time>2026-03-29T12:04:06.137Z</time></trkpt><trkpt lat="45.397822" lon="8.1564377"><ele>199.0</ele><time>2026-03-29T12:04:07.123Z</time></trkpt><trkpt lat="45.3977057" lon="8.1566018"><ele>199.0</ele><time>2026-03-29T12:04:08.123Z</time></trkpt><trkpt lat="45.3975671" lon="8.1567797"><ele>199.0</ele><time>2026-03-29T12:04:09.126Z</time></trkpt><trkpt lat="45.3974136" lon="8.1569569"><ele>199.0</ele><time>2026-03-29T12:04:10.136Z</time></trkpt><trkpt lat="45.3972572" lon="8.1571258"><ele>199.0</ele><time>2026-03-29T12:04:11.134Z</time></trkpt><trkpt lat="45.3970888" lon="8.157293"><ele>199.0</ele><time>2026-03-29T12:04:12.128Z</time></trkpt><trkpt lat="45.3969211" lon="8.157467"><ele>199.33333333333331</ele><time>2026-03-29T12:04:13.127Z</time></trkpt><trkpt lat="45.3967613" lon="8.1576342"><ele>199.66666666666669</ele><time>2026-03-29T12:04:14.119Z</time></trkpt><trkpt lat="45.3966049" lon="8.1577954"><ele>200.0</ele><time>2026-03-29T12:04:15.122Z</time></trkpt><trkpt lat="45.3964488" lon="8.1579572"><ele>199.33333333333334</ele><time>2026-03-29T12:04:16.131Z</time></trkpt><trkpt lat="45.396297" lon="8.158111"><ele>198.66666666666669</ele><time>2026-03-29T12:04:17.123Z</time></trkpt><trkpt lat="45.3961407" lon="8.1582651"><ele>198.0</ele><time>2026-03-29T12:04:18.119Z</time></trkpt><trkpt lat="45.3959887" lon="8.158424"><ele>198.0</ele><time>2026-03-29T12:04:19.134Z</time></trkpt><trkpt lat="45.395846" lon="8.1585906"><ele>198.0</ele><time>2026-03-29T12:04:20.13Z</time></trkpt><trkpt lat="45.3957153" lon="8.1587762"><ele>198.0</ele><time>2026-03-29T12:04:21.118Z</time></trkpt><trkpt lat="45.3955965" lon="8.1589856"><ele>196.66666666666669</ele><time>2026-03-29T12:04:22.132Z</time></trkpt><trkpt lat="45.3954849" lon="8.1592007"><ele>195.33333333333334</ele><time>2026-03-29T12:04:23.131Z</time></trkpt><trkpt lat="45.3953768" lon="8.1594269"><ele>194.0</ele><time>2026-03-29T12:04:24.146Z</time></trkpt><trkpt lat="45.3952672" lon="8.1596468"><ele>194.66666666666669</ele><time>2026-03-29T12:04:25.126Z</time></trkpt><trkpt lat="45.3951638" lon="8.1598711"><ele>195.33333333333331</ele><time>2026-03-29T12:04:26.129Z</time></trkpt><trkpt lat="45.3950547" lon="8.1600917"><ele>196.0</ele><time>2026-03-29T12:04:27.133Z</time></trkpt><trkpt lat="45.3949453" lon="8.1603126"><ele>196.0</ele><time>2026-03-29T12:04:28.132Z</time></trkpt><trkpt lat="45.3948364" lon="8.1605261"><ele>196.0</ele><time>2026-03-29T12:04:29.126Z</time></trkpt><trkpt lat="45.3947355" lon="8.1607387"><ele>196.0</ele><time>2026-03-29T12:04:30.138Z</time></trkpt><trkpt lat="45.3946416" lon="8.1609363"><ele>195.5</ele><time>2026-03-29T12:04:31.156Z</time></trkpt><trkpt lat="45.3945496" lon="8.1611249"><ele>195.0</ele><time>2026-03-29T12:04:32.122Z</time></trkpt><trkpt lat="45.3944641" lon="8.1612978"><ele>194.5</ele><time>2026-03-29T12:04:33.125Z</time></trkpt><trkpt lat="45.3943841" lon="8.1614468"><ele>194.0</ele><time>2026-03-29T12:04:34.137Z</time></trkpt><trkpt lat="45.394315" lon="8.1615671"><ele>194.0</ele><time>2026-03-29T12:04:35.131Z</time></trkpt><trkpt lat="45.3942521" lon="8.1616669"><ele>194.0</ele><time>2026-03-29T12:04:36.133Z</time></trkpt><trkpt lat="45.3941966" lon="8.1617371"><ele>194.0</ele><time>2026-03-29T12:04:37.14Z</time></trkpt><trkpt lat="45.3941841" lon="8.1618366"><ele>194.0</ele><time>2026-03-29T12:04:39.135Z</time></trkpt><trkpt lat="45.3943189" lon="8.161877"><ele>194.0</ele><time>2026-03-29T12:04:41.122Z</time></trkpt><trkpt lat="45.3944228" lon="8.1618811"><ele>194.0</ele><time>2026-03-29T12:04:42.131Z</time></trkpt><trkpt lat="45.3945317" lon="8.1618486"><ele>194.0</ele><time>2026-03-29T12:04:43.122Z</time></trkpt><trkpt lat="45.3946484" lon="8.1617983"><ele>194.0</ele><time>2026-03-29T12:04:44.139Z</time></trkpt><trkpt lat="45.3947645" lon="8.1617666"><ele>194.0</ele><time>2026-03-29T12:04:45.149Z</time></trkpt><trkpt lat="45.3948837" lon="8.161726"><ele>195.0</ele><time>2026-03-29T12:04:46.139Z</time></trkpt><trkpt lat="45.3950116" lon="8.1616875"><ele>196.0</ele><time>2026-03-29T12:04:47.135Z</time></trkpt><trkpt lat="45.3951384" lon="8.1616571"><ele>197.0</ele><time>2026-03-29T12:04:48.143Z</time></trkpt><trkpt lat="45.3952698" lon="8.1616387"><ele>198.0</ele><time>2026-03-29T12:04:49.132Z</time></trkpt><trkpt lat="45.3954019" lon="8.1616229"><ele>198.75</ele><time>2026-03-29T12:04:50.152Z</time></trkpt><trkpt lat="45.3955364" lon="8.1616054"><ele>199.5</ele><time>2026-03-29T12:04:51.132Z</time></trkpt><trkpt lat="45.3956749" lon="8.1615901"><ele>200.25</ele><time>2026-03-29T12:04:52.143Z</time></trkpt><trkpt lat="45.3958084" lon="8.1615801"><ele>201.0</ele><time>2026-03-29T12:04:53.134Z</time></trkpt><trkpt lat="45.3959412" lon="8.1615745"><ele>201.0</ele><time>2026-03-29T12:04:54.142Z</time></trkpt><trkpt lat="45.3960684" lon="8.1615765"><ele>201.0</ele><time>2026-03-29T12:04:55.134Z</time></trkpt><trkpt lat="45.3961899" lon="8.1615929"><ele>201.0</ele><time>2026-03-29T12:04:56.139Z</time></trkpt><trkpt lat="45.3963093" lon="8.1616192"><ele>201.0</ele><time>2026-03-29T12:04:57.126Z</time></trkpt><trkpt lat="45.3964216" lon="8.1616544"><ele>201.16666666666666</ele><time>2026-03-29T12:04:58.164Z</time></trkpt><trkpt lat="45.3965167" lon="8.1617049"><ele>201.33333333333331</ele><time>2026-03-29T12:04:59.144Z</time></trkpt><trkpt lat="45.396597" lon="8.1617523"><ele>201.5</ele><time>2026-03-29T12:05:00.135Z</time></trkpt><trkpt lat="45.3966629" lon="8.1617994"><ele>201.66666666666666</ele><time>2026-03-29T12:05:01.133Z</time></trkpt><trkpt lat="45.3967189" lon="8.1618584"><ele>201.83333333333331</ele><time>2026-03-29T12:05:02.13Z</time></trkpt><trkpt lat="45.3967731" lon="8.1619843"><ele>202.0</ele><time>2026-03-29T12:05:04.137Z</time></trkpt><trkpt lat="45.3967424" lon="8.1620855"><ele>201.99999999999997</ele><time>2026-03-29T12:05:06.125Z</time></trkpt><trkpt lat="45.3967187" lon="8.1621776"><ele>202.0</ele><time>2026-03-29T12:05:09.125Z</time></trkpt><trkpt lat="45.3967546" lon="8.1620874"><ele>202.0</ele><time>2026-03-29T12:05:39.122Z</time></trkpt><trkpt lat="45.3967629" lon="8.1619763"><ele>202.0</ele><time>2026-03-29T12:05:41.137Z</time></trkpt><trkpt lat="45.3967182" lon="8.1618515"><ele>201.99999999999997</ele><time>2026-03-29T12:05:43.129Z</time></trkpt><trkpt lat="45.3966532" lon="8.1617748"><ele>202.0</ele><time>2026-03-29T12:05:44.127Z</time></trkpt><trkpt lat="45.3965564" lon="8.1617024"><ele>202.0</ele><time>2026-03-29T12:05:45.159Z</time></trkpt><trkpt lat="45.3964498" lon="8.1616569"><ele>202.0</ele><time>2026-03-29T12:05:46.131Z</time></trkpt><trkpt lat="45.3963513" lon="8.1616169"><ele>202.0</ele><time>2026-03-29T12:05:47.13Z</time></trkpt><trkpt lat="45.3962432" lon="8.1615886"><ele>202.0</ele><time>2026-03-29T12:05:48.137Z</time></trkpt><trkpt lat="45.3961339" lon="8.1615799"><ele>202.0</ele><time>2026-03-29T12:05:49.122Z</time></trkpt><trkpt lat="45.3960217" lon="8.161576"><ele>201.75</ele><time>2026-03-29T12:05:50.116Z</time></trkpt><trkpt lat="45.3958993" lon="8.1615831"><ele>201.5</ele><time>2026-03-29T12:05:51.115Z</time></trkpt><trkpt lat="45.3957685" lon="8.161589"><ele>201.25</ele><time>2026-03-29T12:05:52.117Z</time></trkpt><trkpt lat="45.3956379" lon="8.1615949"><ele>201.0</ele><time>2026-03-29T12:05:53.12Z</time></trkpt><trkpt lat="45.3955092" lon="8.161614"><ele>200.25</ele><time>2026-03-29T12:05:54.118Z</time></trkpt><trkpt lat="45.3953788" lon="8.1616294"><ele>199.5</ele><time>2026-03-29T12:05:55.128Z</time></trkpt><trkpt lat="45.3952519" lon="8.1616504"><ele>198.75</ele><time>2026-03-29T12:05:56.134Z</time></trkpt><trkpt lat="45.3951321" lon="8.1616715"><ele>198.0</ele><time>2026-03-29T12:05:57.133Z</time></trkpt><trkpt lat="45.3950198" lon="8.1616962"><ele>198.0</ele><time>2026-03-29T12:05:58.136Z</time></trkpt><trkpt lat="45.394914" lon="8.1617267"><ele>198.0</ele><time>2026-03-29T12:05:59.138Z</time></trkpt><trkpt lat="45.3948146" lon="8.1617548"><ele>198.0</ele><time>2026-03-29T12:06:00.136Z</time></trkpt><trkpt lat="45.3947285" lon="8.1617868"><ele>198.0</ele><time>2026-03-29T12:06:01.131Z</time></trkpt><trkpt lat="45.3946481" lon="8.1618107"><ele>198.0</ele><time>2026-03-29T12:06:02.115Z</time></trkpt><trkpt lat="45.3945674" lon="8.1618335"><ele>197.33333333333334</ele><time>2026-03-29T12:06:03.149Z</time></trkpt><trkpt lat="45.3944883" lon="8.1618463"><ele>196.66666666666669</ele><time>2026-03-29T12:06:04.115Z</time></trkpt><trkpt lat="45.3944107" lon="8.1618581"><ele>196.0</ele><time>2026-03-29T12:06:05.127Z</time></trkpt><trkpt lat="45.3943414" lon="8.1618583"><ele>195.33333333333334</ele><time>2026-03-29T12:06:06.121Z</time></trkpt><trkpt lat="45.3942799" lon="8.1618339"><ele>194.66666666666669</ele><time>2026-03-29T12:06:07.136Z</time></trkpt><trkpt lat="45.3941665" lon="8.1618315"><ele>194.0</ele><time>2026-03-29T12:06:09.135Z</time></trkpt><trkpt lat="45.3940964" lon="8.1618738"><ele>194.0</ele><time>2026-03-29T12:06:10.116Z</time></trkpt><trkpt lat="45.3940029" lon="8.1619293"><ele>194.0</ele><time>2026-03-29T12:06:11.144Z</time></trkpt><trkpt lat="45.3938904" lon="8.1619868"><ele>194.0</ele><time>2026-03-29T12:06:12.134Z</time></trkpt><trkpt lat="45.3937606" lon="8.1620367"><ele>194.0</ele><time>2026-03-29T12:06:13.162Z</time></trkpt><trkpt lat="45.3936208" lon="8.1620628"><ele>193.66666666666669</ele><time>2026-03-29T12:06:14.132Z</time></trkpt><trkpt lat="45.3934758" lon="8.162077"><ele>193.33333333333331</ele><time>2026-03-29T12:06:15.125Z</time></trkpt><trkpt lat="45.393321" lon="8.162094"><ele>193.0</ele><time>2026-03-29T12:06:16.13Z</time></trkpt><trkpt lat="45.3931567" lon="8.1621171"><ele>192.33333333333331</ele><time>2026-03-29T12:06:17.167Z</time></trkpt><trkpt lat="45.3929927" lon="8.1621435"><ele>191.66666666666666</ele><time>2026-03-29T12:06:18.128Z</time></trkpt><trkpt lat="45.3928197" lon="8.1621724"><ele>191.0</ele><time>2026-03-29T12:06:19.122Z</time></trkpt><trkpt lat="45.3926495" lon="8.1622031"><ele>191.0</ele><time>2026-03-29T12:06:20.137Z</time></trkpt><trkpt lat="45.3924738" lon="8.1622338"><ele>191.0</ele><time>2026-03-29T12:06:21.127Z</time></trkpt><trkpt lat="45.3922965" lon="8.1622701"><ele>191.0</ele><time>2026-03-29T12:06:22.177Z</time></trkpt><trkpt lat="45.3921175" lon="8.1623076"><ele>190.66666666666666</ele><time>2026-03-29T12:06:23.126Z</time></trkpt><trkpt lat="45.3919372" lon="8.1623431"><ele>190.33333333333334</ele><time>2026-03-29T12:06:24.138Z</time></trkpt><trkpt lat="45.3917565" lon="8.162374"><ele>190.0</ele><time>2026-03-29T12:06:25.117Z</time></trkpt><trkpt lat="45.3915779" lon="8.1624083"><ele>190.0</ele><time>2026-03-29T12:06:26.132Z</time></trkpt><trkpt lat="45.3913978" lon="8.1624442"><ele>190.0</ele><time>2026-03-29T12:06:27.129Z</time></trkpt><trkpt lat="45.3912252" lon="8.162476"><ele>190.0</ele><time>2026-03-29T12:06:28.143Z</time></trkpt><trkpt lat="45.391061" lon="8.1625043"><ele>189.66666666666669</ele><time>2026-03-29T12:06:29.146Z</time></trkpt><trkpt lat="45.3909011" lon="8.1625342"><ele>189.33333333333334</ele><time>2026-03-29T12:06:30.13Z</time></trkpt><trkpt lat="45.3907405" lon="8.1625572"><ele>189.0</ele><time>2026-03-29T12:06:31.129Z</time></trkpt><trkpt lat="45.3905789" lon="8.1625876"><ele>188.66666666666666</ele><time>2026-03-29T12:06:32.138Z</time></trkpt><trkpt lat="45.3904159" lon="8.1626152"><ele>188.33333333333331</ele><time>2026-03-29T12:06:33.132Z</time></trkpt><trkpt lat="45.390247" lon="8.1626439"><ele>188.0</ele><time>2026-03-29T12:06:34.133Z</time></trkpt><trkpt lat="45.3900787" lon="8.1626763"><ele>188.0</ele><time>2026-03-29T12:06:35.136Z</time></trkpt><trkpt lat="45.389906" lon="8.1627082"><ele>188.0</ele><time>2026-03-29T12:06:36.166Z</time></trkpt><trkpt lat="45.3897323" lon="8.1627367"><ele>188.0</ele><time>2026-03-29T12:06:37.135Z</time></trkpt><trkpt lat="45.3895597" lon="8.162764"><ele>188.0</ele><time>2026-03-29T12:06:38.134Z</time></trkpt><trkpt lat="45.3893841" lon="8.1627934"><ele>188.0</ele><time>2026-03-29T12:06:39.125Z</time></trkpt><trkpt lat="45.3892065" lon="8.1628225"><ele>188.0</ele><time>2026-03-29T12:06:40.136Z</time></trkpt><trkpt lat="45.3890262" lon="8.1628537"><ele>188.0</ele><time>2026-03-29T12:06:41.14Z</time></trkpt><trkpt lat="45.3888466" lon="8.1628844"><ele>188.0</ele><time>2026-03-29T12:06:42.115Z</time></trkpt><trkpt lat="45.3886647" lon="8.1629138"><ele>188.0</ele><time>2026-03-29T12:06:43.14Z</time></trkpt><trkpt lat="45.3884838" lon="8.1629498"><ele>188.0</ele><time>2026-03-29T12:06:44.13Z</time></trkpt><trkpt lat="45.3883033" lon="8.1629847"><ele>188.0</ele><time>2026-03-29T12:06:45.126Z</time></trkpt><trkpt lat="45.388124" lon="8.163032"><ele>188.0</ele><time>2026-03-29T12:06:46.136Z</time></trkpt><trkpt lat="45.3879421" lon="8.1630961"><ele>188.0</ele><time>2026-03-29T12:06:47.127Z</time></trkpt><trkpt lat="45.3877546" lon="8.1631848"><ele>188.0</ele><time>2026-03-29T12:06:48.124Z</time></trkpt><trkpt lat="45.3875608" lon="8.1633111"><ele>188.0</ele><time>2026-03-29T12:06:49.134Z</time></trkpt><trkpt lat="45.387372" lon="8.1634526"><ele>188.0</ele><time>2026-03-29T12:06:50.126Z</time></trkpt><trkpt lat="45.3871868" lon="8.1636017"><ele>188.0</ele><time>2026-03-29T12:06:51.137Z</time></trkpt><trkpt lat="45.3870103" lon="8.1637622"><ele>188.0</ele><time>2026-03-29T12:06:52.136Z</time></trkpt><trkpt lat="45.3868293" lon="8.1639187"><ele>188.0</ele><time>2026-03-29T12:06:53.134Z</time></trkpt><trkpt lat="45.3866532" lon="8.1640702"><ele>188.0</ele><time>2026-03-29T12:06:54.124Z</time></trkpt><trkpt lat="45.3864778" lon="8.1642132"><ele>188.0</ele><time>2026-03-29T12:06:55.141Z</time></trkpt><trkpt lat="45.3863054" lon="8.164352"><ele>188.66666666666666</ele><time>2026-03-29T12:06:56.135Z</time></trkpt><trkpt lat="45.3861411" lon="8.1644989"><ele>189.33333333333334</ele><time>2026-03-29T12:06:57.14Z</time></trkpt><trkpt lat="45.3859739" lon="8.164638"><ele>190.0</ele><time>2026-03-29T12:06:58.13Z</time></trkpt><trkpt lat="45.3858092" lon="8.1647782"><ele>189.66666666666669</ele><time>2026-03-29T12:06:59.134Z</time></trkpt><trkpt lat="45.3856437" lon="8.1649121"><ele>189.33333333333334</ele><time>2026-03-29T12:07:00.122Z</time></trkpt><trkpt lat="45.385485" lon="8.1650516"><ele>189.0</ele><time>2026-03-29T12:07:01.122Z</time></trkpt><trkpt lat="45.3853241" lon="8.1651892"><ele>188.66666666666666</ele><time>2026-03-29T12:07:02.138Z</time></trkpt><trkpt lat="45.3851607" lon="8.1653187"><ele>188.33333333333331</ele><time>2026-03-29T12:07:03.131Z</time></trkpt><trkpt lat="45.3849978" lon="8.165456"><ele>188.0</ele><time>2026-03-29T12:07:04.145Z</time></trkpt><trkpt lat="45.3848301" lon="8.1655904"><ele>188.0</ele><time>2026-03-29T12:07:05.125Z</time></trkpt><trkpt lat="45.3846574" lon="8.1657305"><ele>188.0</ele><time>2026-03-29T12:07:06.131Z</time></trkpt><trkpt lat="45.3844816" lon="8.1658618"><ele>188.0</ele><time>2026-03-29T12:07:07.144Z</time></trkpt><trkpt lat="45.3843056" lon="8.1659924"><ele>188.0</ele><time>2026-03-29T12:07:08.128Z</time></trkpt><trkpt lat="45.3841328" lon="8.1661226"><ele>188.0</ele><time>2026-03-29T12:07:09.14Z</time></trkpt><trkpt lat="45.3839624" lon="8.1662498"><ele>188.0</ele><time>2026-03-29T12:07:10.141Z</time></trkpt><trkpt lat="45.3837959" lon="8.1663743"><ele>187.33333333333331</ele><time>2026-03-29T12:07:11.138Z</time></trkpt><trkpt lat="45.383632" lon="8.1665022"><ele>186.66666666666666</ele><time>2026-03-29T12:07:12.155Z</time></trkpt><trkpt lat="45.3834683" lon="8.1666243"><ele>186.0</ele><time>2026-03-29T12:07:13.136Z</time></trkpt><trkpt lat="45.3833033" lon="8.1667475"><ele>186.0</ele><time>2026-03-29T12:07:14.131Z</time></trkpt><trkpt lat="45.3831424" lon="8.1668701"><ele>186.0</ele><time>2026-03-29T12:07:15.129Z</time></trkpt><trkpt lat="45.3829786" lon="8.1669932"><ele>186.0</ele><time>2026-03-29T12:07:16.124Z</time></trkpt><trkpt lat="45.3828137" lon="8.1671184"><ele>186.0</ele><time>2026-03-29T12:07:17.127Z</time></trkpt><trkpt lat="45.3826501" lon="8.1672411"><ele>186.0</ele><time>2026-03-29T12:07:18.132Z</time></trkpt><trkpt lat="45.3824858" lon="8.1673681"><ele>186.0</ele><time>2026-03-29T12:07:19.136Z</time></trkpt><trkpt lat="45.3823257" lon="8.1674864"><ele>185.66666666666666</ele><time>2026-03-29T12:07:20.132Z</time></trkpt><trkpt lat="45.382169" lon="8.1676202"><ele>185.33333333333331</ele><time>2026-03-29T12:07:21.122Z</time></trkpt><trkpt lat="45.3820107" lon="8.1677616"><ele>185.0</ele><time>2026-03-29T12:07:22.105Z</time></trkpt><trkpt lat="45.3818526" lon="8.1679017"><ele>185.0</ele><time>2026-03-29T12:07:23.123Z</time></trkpt><trkpt lat="45.381698" lon="8.1680484"><ele>185.0</ele><time>2026-03-29T12:07:24.117Z</time></trkpt><trkpt lat="45.3815422" lon="8.168192"><ele>185.0</ele><time>2026-03-29T12:07:25.136Z</time></trkpt><trkpt lat="45.3813884" lon="8.1683412"><ele>184.66666666666666</ele><time>2026-03-29T12:07:26.123Z</time></trkpt><trkpt lat="45.3812388" lon="8.1684873"><ele>184.33333333333334</ele><time>2026-03-29T12:07:27.124Z</time></trkpt><trkpt lat="45.3810971" lon="8.1686332"><ele>184.0</ele><time>2026-03-29T12:07:28.114Z</time></trkpt><trkpt lat="45.3809547" lon="8.168771"><ele>184.0</ele><time>2026-03-29T12:07:29.13Z</time></trkpt><trkpt lat="45.380808" lon="8.1689061"><ele>184.0</ele><time>2026-03-29T12:07:30.133Z</time></trkpt><trkpt lat="45.3806575" lon="8.1690462"><ele>184.0</ele><time>2026-03-29T12:07:31.117Z</time></trkpt><trkpt lat="45.3805123" lon="8.1691897"><ele>185.0</ele><time>2026-03-29T12:07:32.137Z</time></trkpt><trkpt lat="45.3803625" lon="8.1693346"><ele>186.0</ele><time>2026-03-29T12:07:33.114Z</time></trkpt><trkpt lat="45.3802137" lon="8.169484"><ele>187.0</ele><time>2026-03-29T12:07:34.122Z</time></trkpt><trkpt lat="45.3800629" lon="8.1696295"><ele>187.0</ele><time>2026-03-29T12:07:35.117Z</time></trkpt><trkpt lat="45.3799077" lon="8.1697793"><ele>187.0</ele><time>2026-03-29T12:07:36.116Z</time></trkpt><trkpt lat="45.3797498" lon="8.1699181"><ele>187.0</ele><time>2026-03-29T12:07:37.131Z</time></trkpt><trkpt lat="45.3795852" lon="8.1700582"><ele>186.33333333333334</ele><time>2026-03-29T12:07:38.118Z</time></trkpt><trkpt lat="45.3794254" lon="8.1701905"><ele>185.66666666666666</ele><time>2026-03-29T12:07:39.163Z</time></trkpt><trkpt lat="45.3792652" lon="8.1703082"><ele>185.0</ele><time>2026-03-29T12:07:40.126Z</time></trkpt><trkpt lat="45.3791016" lon="8.1704189"><ele>185.0</ele><time>2026-03-29T12:07:41.124Z</time></trkpt><trkpt lat="45.378936" lon="8.1705117"><ele>185.0</ele><time>2026-03-29T12:07:42.134Z</time></trkpt><trkpt lat="45.3787672" lon="8.1705982"><ele>185.0</ele><time>2026-03-29T12:07:43.127Z</time></trkpt><trkpt lat="45.3785957" lon="8.1706823"><ele>185.0</ele><time>2026-03-29T12:07:44.134Z</time></trkpt><trkpt lat="45.378423" lon="8.1707562"><ele>185.0</ele><time>2026-03-29T12:07:45.136Z</time></trkpt><trkpt lat="45.3782507" lon="8.1708291"><ele>185.0</ele><time>2026-03-29T12:07:46.127Z</time></trkpt><trkpt lat="45.3780772" lon="8.1708898"><ele>184.33333333333331</ele><time>2026-03-29T12:07:47.127Z</time></trkpt><trkpt lat="45.3779007" lon="8.1709437"><ele>183.66666666666666</ele><time>2026-03-29T12:07:48.131Z</time></trkpt><trkpt lat="45.3777171" lon="8.1709906"><ele>183.0</ele><time>2026-03-29T12:07:49.112Z</time></trkpt><trkpt lat="45.3775355" lon="8.1710287"><ele>183.0</ele><time>2026-03-29T12:07:50.136Z</time></trkpt><trkpt lat="45.3773533" lon="8.1710629"><ele>183.0</ele><time>2026-03-29T12:07:51.123Z</time></trkpt><trkpt lat="45.3771682" lon="8.1710966"><ele>183.0</ele><time>2026-03-29T12:07:52.121Z</time></trkpt><trkpt lat="45.37698" lon="8.1711406"><ele>183.0</ele><time>2026-03-29T12:07:53.155Z</time></trkpt><trkpt lat="45.3767906" lon="8.1711778"><ele>183.0</ele><time>2026-03-29T12:07:54.115Z</time></trkpt><trkpt lat="45.3766041" lon="8.1712118"><ele>183.0</ele><time>2026-03-29T12:07:55.121Z</time></trkpt><trkpt lat="45.3764139" lon="8.1712441"><ele>182.66666666666666</ele><time>2026-03-29T12:07:56.138Z</time></trkpt><trkpt lat="45.3762184" lon="8.1712809"><ele>182.33333333333331</ele><time>2026-03-29T12:07:57.134Z</time></trkpt><trkpt lat="45.3760276" lon="8.171314"><ele>182.0</ele><time>2026-03-29T12:07:58.128Z</time></trkpt><trkpt lat="45.3758369" lon="8.1713486"><ele>182.0</ele><time>2026-03-29T12:07:59.139Z</time></trkpt><trkpt lat="45.3756502" lon="8.1713792"><ele>182.0</ele><time>2026-03-29T12:08:00.126Z</time></trkpt><trkpt lat="45.375468" lon="8.1714068"><ele>182.0</ele><time>2026-03-29T12:08:01.135Z</time></trkpt><trkpt lat="45.3752868" lon="8.1714352"><ele>182.33333333333331</ele><time>2026-03-29T12:08:02.137Z</time></trkpt><trkpt lat="45.3751061" lon="8.1714716"><ele>182.66666666666666</ele><time>2026-03-29T12:08:03.134Z</time></trkpt><trkpt lat="45.3749264" lon="8.1715156"><ele>183.0</ele><time>2026-03-29T12:08:04.123Z</time></trkpt><trkpt lat="45.3747475" lon="8.171575"><ele>183.33333333333334</ele><time>2026-03-29T12:08:05.126Z</time></trkpt><trkpt lat="45.3745686" lon="8.1716445"><ele>183.66666666666669</ele><time>2026-03-29T12:08:06.133Z</time></trkpt><trkpt lat="45.3743923" lon="8.1717161"><ele>184.0</ele><time>2026-03-29T12:08:07.136Z</time></trkpt><trkpt lat="45.3742154" lon="8.1717867"><ele>184.0</ele><time>2026-03-29T12:08:08.129Z</time></trkpt><trkpt lat="45.3740405" lon="8.171857"><ele>184.0</ele><time>2026-03-29T12:08:09.129Z</time></trkpt><trkpt lat="45.3738653" lon="8.1719251"><ele>184.0</ele><time>2026-03-29T12:08:10.13Z</time></trkpt><trkpt lat="45.3736943" lon="8.1719889"><ele>184.66666666666669</ele><time>2026-03-29T12:08:11.144Z</time></trkpt><trkpt lat="45.3735296" lon="8.1720522"><ele>185.33333333333334</ele><time>2026-03-29T12:08:12.128Z</time></trkpt><trkpt lat="45.3733669" lon="8.1721165"><ele>186.0</ele><time>2026-03-29T12:08:13.134Z</time></trkpt><trkpt lat="45.3732045" lon="8.1721816"><ele>186.0</ele><time>2026-03-29T12:08:14.139Z</time></trkpt><trkpt lat="45.3730409" lon="8.1722351"><ele>186.0</ele><time>2026-03-29T12:08:15.167Z</time></trkpt><trkpt lat="45.3728783" lon="8.1722769"><ele>186.0</ele><time>2026-03-29T12:08:16.121Z</time></trkpt><trkpt lat="45.3727179" lon="8.1723128"><ele>186.25</ele><time>2026-03-29T12:08:17.131Z</time></trkpt><trkpt lat="45.3725756" lon="8.1723589"><ele>186.5</ele><time>2026-03-29T12:08:18.128Z</time></trkpt><trkpt lat="45.3724521" lon="8.1723952"><ele>186.75</ele><time>2026-03-29T12:08:19.13Z</time></trkpt><trkpt lat="45.3723402" lon="8.1724105"><ele>187.0</ele><time>2026-03-29T12:08:20.137Z</time></trkpt><trkpt lat="45.3722401" lon="8.1723998"><ele>186.83333333333334</ele><time>2026-03-29T12:08:21.125Z</time></trkpt><trkpt lat="45.3721695" lon="8.1723608"><ele>186.66666666666669</ele><time>2026-03-29T12:08:22.149Z</time></trkpt><trkpt lat="45.3721164" lon="8.1723103"><ele>186.5</ele><time>2026-03-29T12:08:23.124Z</time></trkpt><trkpt lat="45.3720232" lon="8.1722449"><ele>186.33333333333334</ele><time>2026-03-29T12:08:25.131Z</time></trkpt><trkpt lat="45.3719612" lon="8.1722671"><ele>186.16666666666666</ele><time>2026-03-29T12:08:26.124Z</time></trkpt><trkpt lat="45.3718964" lon="8.1724274"><ele>186.0</ele><time>2026-03-29T12:08:28.119Z</time></trkpt><trkpt lat="45.3718944" lon="8.172561"><ele>185.75</ele><time>2026-03-29T12:08:29.128Z</time></trkpt><trkpt lat="45.3718581" lon="8.1727126"><ele>185.5</ele><time>2026-03-29T12:08:30.131Z</time></trkpt><trkpt lat="45.3718111" lon="8.1728888"><ele>185.25</ele><time>2026-03-29T12:08:31.139Z</time></trkpt><trkpt lat="45.3717736" lon="8.1730497"><ele>185.0</ele><time>2026-03-29T12:08:32.127Z</time></trkpt><trkpt lat="45.3717408" lon="8.1732026"><ele>185.0</ele><time>2026-03-29T12:08:33.124Z</time></trkpt><trkpt lat="45.3716994" lon="8.1733414"><ele>185.0</ele><time>2026-03-29T12:08:34.131Z</time></trkpt><trkpt lat="45.3716613" lon="8.1734949"><ele>185.0</ele><time>2026-03-29T12:08:35.129Z</time></trkpt><trkpt lat="45.3716224" lon="8.1736527"><ele>185.0</ele><time>2026-03-29T12:08:36.162Z</time></trkpt><trkpt lat="45.3715828" lon="8.1738179"><ele>185.0</ele><time>2026-03-29T12:08:37.139Z</time></trkpt><trkpt lat="45.3715442" lon="8.1739806"><ele>185.0</ele><time>2026-03-29T12:08:38.123Z</time></trkpt><trkpt lat="45.3714978" lon="8.1741502"><ele>185.0</ele><time>2026-03-29T12:08:39.155Z</time></trkpt><trkpt lat="45.3714536" lon="8.1743102"><ele>185.0</ele><time>2026-03-29T12:08:40.141Z</time></trkpt><trkpt lat="45.3714147" lon="8.1744613"><ele>184.75</ele><time>2026-03-29T12:08:41.131Z</time></trkpt><trkpt lat="45.3713787" lon="8.1746098"><ele>184.5</ele><time>2026-03-29T12:08:42.127Z</time></trkpt><trkpt lat="45.371333" lon="8.1747511"><ele>184.25</ele><time>2026-03-29T12:08:43.127Z</time></trkpt><trkpt lat="45.3712879" lon="8.1749091"><ele>184.0</ele><time>2026-03-29T12:08:44.115Z</time></trkpt><trkpt lat="45.3712354" lon="8.1750799"><ele>184.0</ele><time>2026-03-29T12:08:45.119Z</time></trkpt><trkpt lat="45.3711803" lon="8.1752598"><ele>184.0</ele><time>2026-03-29T12:08:46.128Z</time></trkpt><trkpt lat="45.3711166" lon="8.1754473"><ele>184.0</ele><time>2026-03-29T12:08:47.135Z</time></trkpt><trkpt lat="45.3710482" lon="8.1756495"><ele>184.0</ele><time>2026-03-29T12:08:48.115Z</time></trkpt><trkpt lat="45.3709818" lon="8.1758531"><ele>184.0</ele><time>2026-03-29T12:08:49.132Z</time></trkpt><trkpt lat="45.3709205" lon="8.176065"><ele>184.0</ele><time>2026-03-29T12:08:50.135Z</time></trkpt><trkpt lat="45.3708491" lon="8.1762769"><ele>184.0</ele><time>2026-03-29T12:08:51.122Z</time></trkpt><trkpt lat="45.3707724" lon="8.1764777"><ele>183.5</ele><time>2026-03-29T12:08:52.127Z</time></trkpt><trkpt lat="45.3706962" lon="8.1766719"><ele>183.0</ele><time>2026-03-29T12:08:53.126Z</time></trkpt><trkpt lat="45.3706265" lon="8.1768445"><ele>182.5</ele><time>2026-03-29T12:08:54.123Z</time></trkpt><trkpt lat="45.3705582" lon="8.1770065"><ele>182.0</ele><time>2026-03-29T12:08:55.132Z</time></trkpt><trkpt lat="45.3704981" lon="8.1771721"><ele>182.0</ele><time>2026-03-29T12:08:56.117Z</time></trkpt><trkpt lat="45.3704453" lon="8.1773516"><ele>182.0</ele><time>2026-03-29T12:08:57.156Z</time></trkpt><trkpt lat="45.3703705" lon="8.1775343"><ele>182.0</ele><time>2026-03-29T12:08:58.126Z</time></trkpt><trkpt lat="45.3702954" lon="8.1777225"><ele>182.0</ele><time>2026-03-29T12:08:59.129Z</time></trkpt><trkpt lat="45.370216" lon="8.17792"><ele>181.33333333333331</ele><time>2026-03-29T12:09:00.126Z</time></trkpt><trkpt lat="45.3701378" lon="8.1781301"><ele>180.66666666666666</ele><time>2026-03-29T12:09:01.13Z</time></trkpt><trkpt lat="45.3700622" lon="8.17834"><ele>180.0</ele><time>2026-03-29T12:09:02.118Z</time></trkpt><trkpt lat="45.3699789" lon="8.1785555"><ele>180.0</ele><time>2026-03-29T12:09:03.121Z</time></trkpt><trkpt lat="45.369893" lon="8.178762"><ele>180.0</ele><time>2026-03-29T12:09:04.139Z</time></trkpt><trkpt lat="45.3698053" lon="8.1789828"><ele>180.0</ele><time>2026-03-29T12:09:05.119Z</time></trkpt><trkpt lat="45.3697203" lon="8.1791962"><ele>181.33333333333334</ele><time>2026-03-29T12:09:06.136Z</time></trkpt><trkpt lat="45.3696343" lon="8.1794163"><ele>182.66666666666669</ele><time>2026-03-29T12:09:07.129Z</time></trkpt><trkpt lat="45.3695545" lon="8.1796361"><ele>184.0</ele><time>2026-03-29T12:09:08.128Z</time></trkpt><trkpt lat="45.3694773" lon="8.1798425"><ele>183.5</ele><time>2026-03-29T12:09:09.136Z</time></trkpt><trkpt lat="45.3693999" lon="8.1800386"><ele>183.0</ele><time>2026-03-29T12:09:10.132Z</time></trkpt><trkpt lat="45.3693311" lon="8.1802092"><ele>182.5</ele><time>2026-03-29T12:09:11.127Z</time></trkpt><trkpt lat="45.369265" lon="8.1803518"><ele>182.0</ele><time>2026-03-29T12:09:12.124Z</time></trkpt><trkpt lat="45.3691931" lon="8.1804762"><ele>182.0</ele><time>2026-03-29T12:09:13.115Z</time></trkpt><trkpt lat="45.3691213" lon="8.1805875"><ele>182.0</ele><time>2026-03-29T12:09:14.126Z</time></trkpt><trkpt lat="45.3690603" lon="8.1807051"><ele>182.0</ele><time>2026-03-29T12:09:15.129Z</time></trkpt><trkpt lat="45.3690153" lon="8.1808328"><ele>182.0</ele><time>2026-03-29T12:09:16.129Z</time></trkpt><trkpt lat="45.3689802" lon="8.1809949"><ele>182.0</ele><time>2026-03-29T12:09:17.129Z</time></trkpt><trkpt lat="45.368936" lon="8.1811855"><ele>181.66666666666666</ele><time>2026-03-29T12:09:18.141Z</time></trkpt><trkpt lat="45.3688728" lon="8.1813753"><ele>181.33333333333334</ele><time>2026-03-29T12:09:19.133Z</time></trkpt><trkpt lat="45.3688043" lon="8.1815668"><ele>181.0</ele><time>2026-03-29T12:09:20.141Z</time></trkpt><trkpt lat="45.3687268" lon="8.1817653"><ele>181.0</ele><time>2026-03-29T12:09:21.137Z</time></trkpt><trkpt lat="45.3686436" lon="8.181959"><ele>181.0</ele><time>2026-03-29T12:09:22.125Z</time></trkpt><trkpt lat="45.3685648" lon="8.1821698"><ele>181.0</ele><time>2026-03-29T12:09:23.126Z</time></trkpt><trkpt lat="45.3684838" lon="8.1823913"><ele>180.66666666666669</ele><time>2026-03-29T12:09:24.133Z</time></trkpt><trkpt lat="45.3684006" lon="8.1826056"><ele>180.33333333333334</ele><time>2026-03-29T12:09:25.158Z</time></trkpt><trkpt lat="45.3683154" lon="8.1828223"><ele>180.0</ele><time>2026-03-29T12:09:26.147Z</time></trkpt><trkpt lat="45.3682323" lon="8.1830382"><ele>179.66666666666666</ele><time>2026-03-29T12:09:27.135Z</time></trkpt><trkpt lat="45.3681472" lon="8.1832583"><ele>179.33333333333331</ele><time>2026-03-29T12:09:28.12Z</time></trkpt><trkpt lat="45.3680606" lon="8.1834759"><ele>179.0</ele><time>2026-03-29T12:09:29.128Z</time></trkpt><trkpt lat="45.3679704" lon="8.183693"><ele>179.66666666666666</ele><time>2026-03-29T12:09:30.125Z</time></trkpt><trkpt lat="45.3678736" lon="8.1839085"><ele>180.33333333333334</ele><time>2026-03-29T12:09:31.131Z</time></trkpt><trkpt lat="45.3677637" lon="8.1841194"><ele>181.0</ele><time>2026-03-29T12:09:32.131Z</time></trkpt><trkpt lat="45.3676409" lon="8.1843202"><ele>181.0</ele><time>2026-03-29T12:09:33.142Z</time></trkpt><trkpt lat="45.3675109" lon="8.1845078"><ele>181.0</ele><time>2026-03-29T12:09:34.148Z</time></trkpt><trkpt lat="45.3673679" lon="8.184689"><ele>181.0</ele><time>2026-03-29T12:09:35.167Z</time></trkpt><trkpt lat="45.3672238" lon="8.1848534"><ele>181.33333333333334</ele><time>2026-03-29T12:09:36.151Z</time></trkpt><trkpt lat="45.3670735" lon="8.1849985"><ele>181.66666666666666</ele><time>2026-03-29T12:09:37.136Z</time></trkpt><trkpt lat="45.366912" lon="8.1851414"><ele>182.0</ele><time>2026-03-29T12:09:38.129Z</time></trkpt><trkpt lat="45.3667513" lon="8.1852691"><ele>182.0</ele><time>2026-03-29T12:09:39.142Z</time></trkpt><trkpt lat="45.3665867" lon="8.1853927"><ele>182.0</ele><time>2026-03-29T12:09:40.125Z</time></trkpt><trkpt lat="45.3664159" lon="8.185521"><ele>182.0</ele><time>2026-03-29T12:09:41.128Z</time></trkpt><trkpt lat="45.3662481" lon="8.1856481"><ele>182.0</ele><time>2026-03-29T12:09:42.128Z</time></trkpt><trkpt lat="45.3660767" lon="8.1857817"><ele>182.0</ele><time>2026-03-29T12:09:43.125Z</time></trkpt><trkpt lat="45.3659022" lon="8.1859205"><ele>182.0</ele><time>2026-03-29T12:09:44.117Z</time></trkpt><trkpt lat="45.3657241" lon="8.1860567"><ele>182.0</ele><time>2026-03-29T12:09:45.119Z</time></trkpt><trkpt lat="45.3655456" lon="8.1861931"><ele>182.0</ele><time>2026-03-29T12:09:46.155Z</time></trkpt><trkpt lat="45.3653625" lon="8.1863298"><ele>182.0</ele><time>2026-03-29T12:09:47.127Z</time></trkpt><trkpt lat="45.3651843" lon="8.1864675"><ele>181.66666666666666</ele><time>2026-03-29T12:09:48.131Z</time></trkpt><trkpt lat="45.3650025" lon="8.1866064"><ele>181.33333333333334</ele><time>2026-03-29T12:09:49.123Z</time></trkpt><trkpt lat="45.3648247" lon="8.1867405"><ele>181.0</ele><time>2026-03-29T12:09:50.124Z</time></trkpt><trkpt lat="45.3646522" lon="8.1868684"><ele>180.0</ele><time>2026-03-29T12:09:51.12Z</time></trkpt><trkpt lat="45.3644804" lon="8.1869959"><ele>179.0</ele><time>2026-03-29T12:09:52.131Z</time></trkpt><trkpt lat="45.3643124" lon="8.1871374"><ele>178.0</ele><time>2026-03-29T12:09:53.129Z</time></trkpt><trkpt lat="45.3641462" lon="8.1872874"><ele>178.33333333333334</ele><time>2026-03-29T12:09:54.147Z</time></trkpt><trkpt lat="45.3639787" lon="8.1874492"><ele>178.66666666666666</ele><time>2026-03-29T12:09:55.128Z</time></trkpt><trkpt lat="45.3638276" lon="8.1876105"><ele>179.0</ele><time>2026-03-29T12:09:56.128Z</time></trkpt><trkpt lat="45.3636809" lon="8.1877807"><ele>179.0</ele><time>2026-03-29T12:09:57.13Z</time></trkpt><trkpt lat="45.3635461" lon="8.1879441"><ele>179.0</ele><time>2026-03-29T12:09:58.118Z</time></trkpt><trkpt lat="45.363426" lon="8.1880968"><ele>179.0</ele><time>2026-03-29T12:09:59.126Z</time></trkpt><trkpt lat="45.363326" lon="8.1882274"><ele>179.0</ele><time>2026-03-29T12:10:00.125Z</time></trkpt><trkpt lat="45.3632449" lon="8.1883434"><ele>179.0</ele><time>2026-03-29T12:10:01.125Z</time></trkpt><trkpt lat="45.3631755" lon="8.1884285"><ele>179.0</ele><time>2026-03-29T12:10:02.117Z</time></trkpt><trkpt lat="45.3631113" lon="8.1884839"><ele>179.0</ele><time>2026-03-29T12:10:03.122Z</time></trkpt><trkpt lat="45.3630413" lon="8.1885039"><ele>179.0</ele><time>2026-03-29T12:10:04.117Z</time></trkpt><trkpt lat="45.3629711" lon="8.1884852"><ele>179.0</ele><time>2026-03-29T12:10:05.112Z</time></trkpt><trkpt lat="45.3629224" lon="8.1884195"><ele>179.0</ele><time>2026-03-29T12:10:06.136Z</time></trkpt><trkpt lat="45.3628976" lon="8.1883209"><ele>179.0</ele><time>2026-03-29T12:10:07.125Z</time></trkpt><trkpt lat="45.3628966" lon="8.1881839"><ele>179.0</ele><time>2026-03-29T12:10:08.117Z</time></trkpt><trkpt lat="45.3629224" lon="8.188021"><ele>179.0</ele><time>2026-03-29T12:10:09.12Z</time></trkpt><trkpt lat="45.362968" lon="8.187852"><ele>179.0</ele><time>2026-03-29T12:10:10.129Z</time></trkpt><trkpt lat="45.3630193" lon="8.187674"><ele>179.0</ele><time>2026-03-29T12:10:11.143Z</time></trkpt><trkpt lat="45.3630659" lon="8.1874802"><ele>179.0</ele><time>2026-03-29T12:10:12.138Z</time></trkpt><trkpt lat="45.3631115" lon="8.1872658"><ele>179.0</ele><time>2026-03-29T12:10:13.133Z</time></trkpt><trkpt lat="45.363164" lon="8.1870486"><ele>179.0</ele><time>2026-03-29T12:10:14.144Z</time></trkpt><trkpt lat="45.3632177" lon="8.1868238"><ele>179.0</ele><time>2026-03-29T12:10:15.128Z</time></trkpt><trkpt lat="45.3632721" lon="8.1865959"><ele>179.0</ele><time>2026-03-29T12:10:16.133Z</time></trkpt><trkpt lat="45.3633252" lon="8.1863648"><ele>179.0</ele><time>2026-03-29T12:10:17.132Z</time></trkpt><trkpt lat="45.363378" lon="8.1861335"><ele>179.0</ele><time>2026-03-29T12:10:18.124Z</time></trkpt><trkpt lat="45.363435" lon="8.1859108"><ele>179.0</ele><time>2026-03-29T12:10:19.132Z</time></trkpt><trkpt lat="45.3634899" lon="8.1856779"><ele>178.66666666666666</ele><time>2026-03-29T12:10:20.124Z</time></trkpt><trkpt lat="45.3635473" lon="8.1854475"><ele>178.33333333333334</ele><time>2026-03-29T12:10:21.134Z</time></trkpt><trkpt lat="45.3636018" lon="8.185215"><ele>178.0</ele><time>2026-03-29T12:10:22.127Z</time></trkpt><trkpt lat="45.3636564" lon="8.184989"><ele>178.0</ele><time>2026-03-29T12:10:23.117Z</time></trkpt><trkpt lat="45.3637036" lon="8.1847785"><ele>178.0</ele><time>2026-03-29T12:10:24.141Z</time></trkpt><trkpt lat="45.3637451" lon="8.1845832"><ele>178.0</ele><time>2026-03-29T12:10:25.134Z</time></trkpt><trkpt lat="45.3637877" lon="8.184408"><ele>178.0</ele><time>2026-03-29T12:10:26.129Z</time></trkpt><trkpt lat="45.3638325" lon="8.1842504"><ele>178.4</ele><time>2026-03-29T12:10:27.122Z</time></trkpt><trkpt lat="45.3638672" lon="8.1841012"><ele>178.8</ele><time>2026-03-29T12:10:28.128Z</time></trkpt><trkpt lat="45.3638995" lon="8.1839643"><ele>179.2</ele><time>2026-03-29T12:10:29.141Z</time></trkpt><trkpt lat="45.3639259" lon="8.1838465"><ele>179.6</ele><time>2026-03-29T12:10:30.125Z</time></trkpt><trkpt lat="45.363943" lon="8.1837525"><ele>180.0</ele><time>2026-03-29T12:10:31.119Z</time></trkpt><trkpt lat="45.3639021" lon="8.1836225"><ele>180.0</ele><time>2026-03-29T12:10:33.135Z</time></trkpt><trkpt lat="45.3638329" lon="8.1835647"><ele>180.0</ele><time>2026-03-29T12:10:34.138Z</time></trkpt><trkpt lat="45.3637317" lon="8.18352"><ele>180.0</ele><time>2026-03-29T12:10:35.117Z</time></trkpt><trkpt lat="45.3636178" lon="8.1834838"><ele>180.0</ele><time>2026-03-29T12:10:36.127Z</time></trkpt><trkpt lat="45.3634853" lon="8.1834661"><ele>180.0</ele><time>2026-03-29T12:10:37.143Z</time></trkpt><trkpt lat="45.3633351" lon="8.1834448"><ele>180.0</ele><time>2026-03-29T12:10:38.122Z</time></trkpt><trkpt lat="45.3631879" lon="8.1834303"><ele>180.0</ele><time>2026-03-29T12:10:39.13Z</time></trkpt><trkpt lat="45.3630466" lon="8.1834117"><ele>180.0</ele><time>2026-03-29T12:10:40.124Z</time></trkpt><trkpt lat="45.3629238" lon="8.1833904"><ele>180.0</ele><time>2026-03-29T12:10:41.125Z</time></trkpt><trkpt lat="45.3628246" lon="8.1833747"><ele>180.0</ele><time>2026-03-29T12:10:42.124Z</time></trkpt><trkpt lat="45.3627449" lon="8.1833692"><ele>180.0</ele><time>2026-03-29T12:10:43.133Z</time></trkpt><trkpt lat="45.3626371" lon="8.1833195"><ele>180.0</ele><time>2026-03-29T12:10:45.145Z</time></trkpt><trkpt lat="45.3626182" lon="8.1832194"><ele>180.0</ele><time>2026-03-29T12:10:48.107Z</time></trkpt><trkpt lat="45.3626554" lon="8.1831383"><ele>180.0</ele><time>2026-03-29T12:10:50.133Z</time></trkpt><trkpt lat="45.3626915" lon="8.1830579"><ele>180.0</ele><time>2026-03-29T12:10:51.116Z</time></trkpt><trkpt lat="45.3627301" lon="8.182958"><ele>180.0</ele><time>2026-03-29T12:10:52.144Z</time></trkpt><trkpt lat="45.362772" lon="8.1828608"><ele>180.0</ele><time>2026-03-29T12:10:53.121Z</time></trkpt><trkpt lat="45.3628116" lon="8.1827549"><ele>180.0</ele><time>2026-03-29T12:10:54.129Z</time></trkpt><trkpt lat="45.3628528" lon="8.1826507"><ele>180.0</ele><time>2026-03-29T12:10:55.132Z</time></trkpt><trkpt lat="45.362892" lon="8.1825458"><ele>180.0</ele><time>2026-03-29T12:10:56.125Z</time></trkpt><trkpt lat="45.3629315" lon="8.1824466"><ele>180.0</ele><time>2026-03-29T12:10:57.131Z</time></trkpt><trkpt lat="45.3629698" lon="8.1823568"><ele>179.83333333333334</ele><time>2026-03-29T12:10:58.151Z</time></trkpt><trkpt lat="45.3630058" lon="8.1822642"><ele>179.66666666666666</ele><time>2026-03-29T12:10:59.129Z</time></trkpt><trkpt lat="45.3630409" lon="8.1821659"><ele>179.5</ele><time>2026-03-29T12:11:00.119Z</time></trkpt><trkpt lat="45.3630789" lon="8.1820633"><ele>179.33333333333331</ele><time>2026-03-29T12:11:01.124Z</time></trkpt><trkpt lat="45.3631191" lon="8.1819659"><ele>179.16666666666666</ele><time>2026-03-29T12:11:02.123Z</time></trkpt><trkpt lat="45.3631592" lon="8.1818703"><ele>179.0</ele><time>2026-03-29T12:11:03.133Z</time></trkpt><trkpt lat="45.3632005" lon="8.1817702"><ele>179.16666666666666</ele><time>2026-03-29T12:11:04.133Z</time></trkpt><trkpt lat="45.3632365" lon="8.181688"><ele>179.33333333333331</ele><time>2026-03-29T12:11:05.137Z</time></trkpt><trkpt lat="45.3632739" lon="8.1815936"><ele>179.5</ele><time>2026-03-29T12:11:06.124Z</time></trkpt><trkpt lat="45.3633134" lon="8.1815044"><ele>179.66666666666666</ele><time>2026-03-29T12:11:07.126Z</time></trkpt><trkpt lat="45.3633455" lon="8.1814086"><ele>179.83333333333334</ele><time>2026-03-29T12:11:08.119Z</time></trkpt><trkpt lat="45.3634022" lon="8.1812714"><ele>180.0</ele><time>2026-03-29T12:11:10.133Z</time></trkpt><trkpt lat="45.3634405" lon="8.1811839"><ele>180.0</ele><time>2026-03-29T12:11:12.119Z</time></trkpt><trkpt lat="45.3634445" lon="8.1810752"><ele>180.0</ele><time>2026-03-29T12:11:15.127Z</time></trkpt><trkpt lat="45.3633834" lon="8.1809459"><ele>180.0</ele><time>2026-03-29T12:11:17.121Z</time></trkpt><trkpt lat="45.3633445" lon="8.1808645"><ele>180.0</ele><time>2026-03-29T12:11:18.129Z</time></trkpt><trkpt lat="45.3632988" lon="8.1807788"><ele>180.0</ele><time>2026-03-29T12:11:19.125Z</time></trkpt><trkpt lat="45.3632478" lon="8.1806921"><ele>180.0</ele><time>2026-03-29T12:11:20.125Z</time></trkpt><trkpt lat="45.3632032" lon="8.1806021"><ele>180.0</ele><time>2026-03-29T12:11:21.12Z</time></trkpt><trkpt lat="45.3631613" lon="8.1805156"><ele>180.0</ele><time>2026-03-29T12:11:22.128Z</time></trkpt><trkpt lat="45.3631177" lon="8.1804352"><ele>180.0</ele><time>2026-03-29T12:11:23.12Z</time></trkpt><trkpt lat="45.363071" lon="8.1803549"><ele>180.0</ele><time>2026-03-29T12:11:24.114Z</time></trkpt><trkpt lat="45.3630139" lon="8.1802679"><ele>180.0</ele><time>2026-03-29T12:11:25.145Z</time></trkpt><trkpt lat="45.3629544" lon="8.1801635"><ele>180.0</ele><time>2026-03-29T12:11:26.117Z</time></trkpt><trkpt lat="45.3628976" lon="8.1800607"><ele>180.0</ele><time>2026-03-29T12:11:27.13Z</time></trkpt><trkpt lat="45.3628365" lon="8.1799414"><ele>180.0</ele><time>2026-03-29T12:11:28.126Z</time></trkpt><trkpt lat="45.3627689" lon="8.1798185"><ele>180.0</ele><time>2026-03-29T12:11:29.128Z</time></trkpt><trkpt lat="45.3627001" lon="8.1796978"><ele>180.0</ele><time>2026-03-29T12:11:30.114Z</time></trkpt><trkpt lat="45.3626314" lon="8.1795763"><ele>180.0</ele><time>2026-03-29T12:11:31.125Z</time></trkpt><trkpt lat="45.3625674" lon="8.1794624"><ele>180.2</ele><time>2026-03-29T12:11:32.118Z</time></trkpt><trkpt lat="45.3625055" lon="8.1793489"><ele>180.4</ele><time>2026-03-29T12:11:33.133Z</time></trkpt><trkpt lat="45.362442" lon="8.1792505"><ele>180.60000000000002</ele><time>2026-03-29T12:11:34.159Z</time></trkpt><trkpt lat="45.3623786" lon="8.1791502"><ele>180.8</ele><time>2026-03-29T12:11:35.119Z</time></trkpt><trkpt lat="45.3623102" lon="8.1790387"><ele>181.0</ele><time>2026-03-29T12:11:36.112Z</time></trkpt><trkpt lat="45.3622462" lon="8.1789105"><ele>181.20000000000002</ele><time>2026-03-29T12:11:37.122Z</time></trkpt><trkpt lat="45.362169" lon="8.17877"><ele>181.4</ele><time>2026-03-29T12:11:38.124Z</time></trkpt><trkpt lat="45.3620975" lon="8.178634"><ele>181.6</ele><time>2026-03-29T12:11:39.133Z</time></trkpt><trkpt lat="45.362033" lon="8.178516"><ele>181.8</ele><time>2026-03-29T12:11:40.121Z</time></trkpt><trkpt lat="45.3619833" lon="8.178416"><ele>182.0</ele><time>2026-03-29T12:11:41.15Z</time></trkpt><trkpt lat="45.3619309" lon="8.1783218"><ele>182.0</ele><time>2026-03-29T12:11:42.145Z</time></trkpt><trkpt lat="45.3618699" lon="8.1782414"><ele>182.0</ele><time>2026-03-29T12:11:43.132Z</time></trkpt><trkpt lat="45.3618011" lon="8.1781716"><ele>182.0</ele><time>2026-03-29T12:11:44.128Z</time></trkpt><trkpt lat="45.3617136" lon="8.1781156"><ele>182.0</ele><time>2026-03-29T12:11:45.118Z</time></trkpt><trkpt lat="45.3616139" lon="8.1780704"><ele>182.0</ele><time>2026-03-29T12:11:46.129Z</time></trkpt><trkpt lat="45.3615124" lon="8.1780271"><ele>182.0</ele><time>2026-03-29T12:11:47.127Z</time></trkpt><trkpt lat="45.3614085" lon="8.1779839"><ele>182.0</ele><time>2026-03-29T12:11:48.136Z</time></trkpt><trkpt lat="45.3613023" lon="8.177941"><ele>182.0</ele><time>2026-03-29T12:11:49.127Z</time></trkpt><trkpt lat="45.3611943" lon="8.1778964"><ele>182.0</ele><time>2026-03-29T12:11:50.123Z</time></trkpt><trkpt lat="45.3610793" lon="8.1778431"><ele>181.5</ele><time>2026-03-29T12:11:51.139Z</time></trkpt><trkpt lat="45.3609623" lon="8.1777841"><ele>181.0</ele><time>2026-03-29T12:11:52.133Z</time></trkpt><trkpt lat="45.3608489" lon="8.1777263"><ele>180.5</ele><time>2026-03-29T12:11:53.125Z</time></trkpt><trkpt lat="45.3607425" lon="8.1776716"><ele>180.0</ele><time>2026-03-29T12:11:54.13Z</time></trkpt><trkpt lat="45.3606252" lon="8.1776199"><ele>179.75</ele><time>2026-03-29T12:11:55.134Z</time></trkpt><trkpt lat="45.3605023" lon="8.1775622"><ele>179.5</ele><time>2026-03-29T12:11:56.126Z</time></trkpt><trkpt lat="45.360388" lon="8.1775112"><ele>179.25</ele><time>2026-03-29T12:11:57.127Z</time></trkpt><trkpt lat="45.3602874" lon="8.1774736"><ele>179.0</ele><time>2026-03-29T12:11:58.128Z</time></trkpt><trkpt lat="45.360194" lon="8.1774242"><ele>179.0</ele><time>2026-03-29T12:11:59.107Z</time></trkpt><trkpt lat="45.3600972" lon="8.177373"><ele>179.0</ele><time>2026-03-29T12:12:00.102Z</time></trkpt><trkpt lat="45.3600032" lon="8.1773176"><ele>179.0</ele><time>2026-03-29T12:12:01.126Z</time></trkpt><trkpt lat="45.3599096" lon="8.1772698"><ele>179.0</ele><time>2026-03-29T12:12:02.136Z</time></trkpt><trkpt lat="45.3598245" lon="8.1772159"><ele>179.0</ele><time>2026-03-29T12:12:03.12Z</time></trkpt><trkpt lat="45.3597426" lon="8.1771583"><ele>179.33333333333331</ele><time>2026-03-29T12:12:04.121Z</time></trkpt><trkpt lat="45.3596673" lon="8.1770996"><ele>179.66666666666666</ele><time>2026-03-29T12:12:05.103Z</time></trkpt><trkpt lat="45.3595908" lon="8.1770349"><ele>180.0</ele><time>2026-03-29T12:12:06.119Z</time></trkpt><trkpt lat="45.3595242" lon="8.1769638"><ele>180.33333333333334</ele><time>2026-03-29T12:12:07.127Z</time></trkpt><trkpt lat="45.359472" lon="8.1768958"><ele>180.66666666666669</ele><time>2026-03-29T12:12:08.133Z</time></trkpt><trkpt lat="45.3594112" lon="8.1768345"><ele>181.0</ele><time>2026-03-29T12:12:10.168Z</time></trkpt><trkpt lat="45.35933" lon="8.1769597"><ele>181.0</ele><time>2026-03-29T12:12:13.118Z</time></trkpt><trkpt lat="45.359273" lon="8.1770553"><ele>181.0</ele><time>2026-03-29T12:12:14.121Z</time></trkpt><trkpt lat="45.3592173" lon="8.1771703"><ele>181.0</ele><time>2026-03-29T12:12:15.119Z</time></trkpt><trkpt lat="45.3591555" lon="8.177315"><ele>181.0</ele><time>2026-03-29T12:12:16.13Z</time></trkpt><trkpt lat="45.3590883" lon="8.1774775"><ele>181.0</ele><time>2026-03-29T12:12:17.12Z</time></trkpt><trkpt lat="45.3590371" lon="8.1776115"><ele>180.5</ele><time>2026-03-29T12:12:18.127Z</time></trkpt><trkpt lat="45.3589821" lon="8.1777529"><ele>180.0</ele><time>2026-03-29T12:12:19.123Z</time></trkpt><trkpt lat="45.3589262" lon="8.1778858"><ele>179.5</ele><time>2026-03-29T12:12:20.134Z</time></trkpt><trkpt lat="45.3588657" lon="8.178019"><ele>179.0</ele><time>2026-03-29T12:12:21.123Z</time></trkpt><trkpt lat="45.3587908" lon="8.1781545"><ele>179.25</ele><time>2026-03-29T12:12:22.133Z</time></trkpt><trkpt lat="45.3587067" lon="8.1782909"><ele>179.5</ele><time>2026-03-29T12:12:23.121Z</time></trkpt><trkpt lat="45.3586178" lon="8.1784313"><ele>179.75</ele><time>2026-03-29T12:12:24.133Z</time></trkpt><trkpt lat="45.3585313" lon="8.1785776"><ele>180.0</ele><time>2026-03-29T12:12:25.12Z</time></trkpt><trkpt lat="45.3584492" lon="8.178732"><ele>180.0</ele><time>2026-03-29T12:12:26.149Z</time></trkpt><trkpt lat="45.3583651" lon="8.1788835"><ele>180.0</ele><time>2026-03-29T12:12:27.123Z</time></trkpt><trkpt lat="45.3582799" lon="8.1790421"><ele>180.0</ele><time>2026-03-29T12:12:28.134Z</time></trkpt><trkpt lat="45.3582001" lon="8.179203"><ele>180.0</ele><time>2026-03-29T12:12:29.121Z</time></trkpt><trkpt lat="45.3581182" lon="8.1793638"><ele>180.0</ele><time>2026-03-29T12:12:30.13Z</time></trkpt><trkpt lat="45.3580387" lon="8.1795143"><ele>180.0</ele><time>2026-03-29T12:12:31.124Z</time></trkpt><trkpt lat="45.3579698" lon="8.1796534"><ele>180.0</ele><time>2026-03-29T12:12:32.127Z</time></trkpt><trkpt lat="45.3579042" lon="8.1797821"><ele>180.0</ele><time>2026-03-29T12:12:33.123Z</time></trkpt><trkpt lat="45.3578421" lon="8.1799077"><ele>179.75</ele><time>2026-03-29T12:12:34.114Z</time></trkpt><trkpt lat="45.3577851" lon="8.180042"><ele>179.5</ele><time>2026-03-29T12:12:35.121Z</time></trkpt><trkpt lat="45.3577359" lon="8.1801866"><ele>179.25</ele><time>2026-03-29T12:12:36.124Z</time></trkpt><trkpt lat="45.3576955" lon="8.1803372"><ele>179.0</ele><time>2026-03-29T12:12:37.132Z</time></trkpt><trkpt lat="45.3576584" lon="8.1805045"><ele>179.0</ele><time>2026-03-29T12:12:38.131Z</time></trkpt><trkpt lat="45.3576206" lon="8.1806818"><ele>179.0</ele><time>2026-03-29T12:12:39.121Z</time></trkpt><trkpt lat="45.3575905" lon="8.1808534"><ele>179.0</ele><time>2026-03-29T12:12:40.157Z</time></trkpt><trkpt lat="45.3575592" lon="8.1810012"><ele>179.0</ele><time>2026-03-29T12:12:41.122Z</time></trkpt><trkpt lat="45.3575318" lon="8.1811357"><ele>179.0</ele><time>2026-03-29T12:12:42.127Z</time></trkpt><trkpt lat="45.3575087" lon="8.1812464"><ele>179.0</ele><time>2026-03-29T12:12:43.123Z</time></trkpt><trkpt lat="45.3574808" lon="8.1813782"><ele>179.0</ele><time>2026-03-29T12:12:45.121Z</time></trkpt><trkpt lat="45.3574088" lon="8.181453"><ele>179.0</ele><time>2026-03-29T12:12:48.112Z</time></trkpt><trkpt lat="45.3572721" lon="8.1814288"><ele>179.0</ele><time>2026-03-29T12:12:50.141Z</time></trkpt><trkpt lat="45.3571738" lon="8.1814142"><ele>179.0</ele><time>2026-03-29T12:12:51.14Z</time></trkpt><trkpt lat="45.3570577" lon="8.1813987"><ele>179.0</ele><time>2026-03-29T12:12:52.128Z</time></trkpt><trkpt lat="45.3569435" lon="8.1813808"><ele>179.0</ele><time>2026-03-29T12:12:53.134Z</time></trkpt><trkpt lat="45.3568339" lon="8.1813613"><ele>179.0</ele><time>2026-03-29T12:12:54.125Z</time></trkpt><trkpt lat="45.3567191" lon="8.1813411"><ele>179.0</ele><time>2026-03-29T12:12:55.118Z</time></trkpt><trkpt lat="45.3566042" lon="8.1813065"><ele>179.0</ele><time>2026-03-29T12:12:56.134Z</time></trkpt><trkpt lat="45.3565009" lon="8.1812714"><ele>179.0</ele><time>2026-03-29T12:12:57.129Z</time></trkpt><trkpt lat="45.3563973" lon="8.1812257"><ele>179.0</ele><time>2026-03-29T12:12:58.124Z</time></trkpt><trkpt lat="45.3562909" lon="8.1811739"><ele>179.0</ele><time>2026-03-29T12:12:59.124Z</time></trkpt><trkpt lat="45.3561851" lon="8.1811175"><ele>179.0</ele><time>2026-03-29T12:13:00.136Z</time></trkpt><trkpt lat="45.3560765" lon="8.1810618"><ele>179.0</ele><time>2026-03-29T12:13:01.124Z</time></trkpt><trkpt lat="45.3559686" lon="8.1810062"><ele>179.0</ele><time>2026-03-29T12:13:02.132Z</time></trkpt><trkpt lat="45.355862" lon="8.1809448"><ele>179.0</ele><time>2026-03-29T12:13:03.126Z</time></trkpt><trkpt lat="45.355754" lon="8.1808894"><ele>179.0</ele><time>2026-03-29T12:13:04.131Z</time></trkpt><trkpt lat="45.355642" lon="8.1808345"><ele>179.0</ele><time>2026-03-29T12:13:05.131Z</time></trkpt><trkpt lat="45.3555333" lon="8.1807831"><ele>179.0</ele><time>2026-03-29T12:13:06.132Z</time></trkpt><trkpt lat="45.3554265" lon="8.1807383"><ele>179.0</ele><time>2026-03-29T12:13:07.126Z</time></trkpt><trkpt lat="45.3553122" lon="8.1807007"><ele>179.0</ele><time>2026-03-29T12:13:08.113Z</time></trkpt><trkpt lat="45.3551938" lon="8.1806661"><ele>179.0</ele><time>2026-03-29T12:13:09.134Z</time></trkpt><trkpt lat="45.3550822" lon="8.1806285"><ele>179.0</ele><time>2026-03-29T12:13:10.119Z</time></trkpt><trkpt lat="45.3549659" lon="8.1805902"><ele>179.0</ele><time>2026-03-29T12:13:11.15Z</time></trkpt><trkpt lat="45.3548414" lon="8.1805559"><ele>179.0</ele><time>2026-03-29T12:13:12.126Z</time></trkpt><trkpt lat="45.3547189" lon="8.1805167"><ele>179.0</ele><time>2026-03-29T12:13:13.128Z</time></trkpt><trkpt lat="45.3545893" lon="8.180469"><ele>179.0</ele><time>2026-03-29T12:13:14.119Z</time></trkpt><trkpt lat="45.3544445" lon="8.1804234"><ele>179.0</ele><time>2026-03-29T12:13:15.126Z</time></trkpt><trkpt lat="45.3542869" lon="8.1803746"><ele>179.0</ele><time>2026-03-29T12:13:16.117Z</time></trkpt><trkpt lat="45.3541338" lon="8.1803171"><ele>179.0</ele><time>2026-03-29T12:13:17.135Z</time></trkpt><trkpt lat="45.3539654" lon="8.1802535"><ele>179.0</ele><time>2026-03-29T12:13:18.151Z</time></trkpt><trkpt lat="45.3537954" lon="8.1801735"><ele>179.0</ele><time>2026-03-29T12:13:19.134Z</time></trkpt><trkpt lat="45.353637" lon="8.180102"><ele>179.0</ele><time>2026-03-29T12:13:20.125Z</time></trkpt><trkpt lat="45.3534946" lon="8.1800332"><ele>179.0</ele><time>2026-03-29T12:13:21.146Z</time></trkpt><trkpt lat="45.3533592" lon="8.1799659"><ele>179.0</ele><time>2026-03-29T12:13:22.127Z</time></trkpt><trkpt lat="45.3532159" lon="8.1798997"><ele>179.0</ele><time>2026-03-29T12:13:23.12Z</time></trkpt><trkpt lat="45.3530646" lon="8.1798387"><ele>179.0</ele><time>2026-03-29T12:13:24.123Z</time></trkpt><trkpt lat="45.3529245" lon="8.1797805"><ele>179.0</ele><time>2026-03-29T12:13:25.126Z</time></trkpt><trkpt lat="45.3528068" lon="8.1797318"><ele>179.0</ele><time>2026-03-29T12:13:26.121Z</time></trkpt><trkpt lat="45.3527101" lon="8.1796839"><ele>179.0</ele><time>2026-03-29T12:13:27.124Z</time></trkpt><trkpt lat="45.352635" lon="8.1796448"><ele>179.0</ele><time>2026-03-29T12:13:28.134Z</time></trkpt><trkpt lat="45.3525351" lon="8.1795863"><ele>179.0</ele><time>2026-03-29T12:13:30.133Z</time></trkpt><trkpt lat="45.3524925" lon="8.1794727"><ele>179.0</ele><time>2026-03-29T12:13:32.124Z</time></trkpt><trkpt lat="45.3524957" lon="8.1793728"><ele>179.0</ele><time>2026-03-29T12:13:33.124Z</time></trkpt><trkpt lat="45.3525165" lon="8.1792531"><ele>179.0</ele><time>2026-03-29T12:13:34.112Z</time></trkpt><trkpt lat="45.3525258" lon="8.1791624"><ele>179.0</ele><time>2026-03-29T12:13:35.126Z</time></trkpt><trkpt lat="45.3524897" lon="8.1790478"><ele>179.0</ele><time>2026-03-29T12:13:37.125Z</time></trkpt><trkpt lat="45.3523873" lon="8.1789817"><ele>179.0</ele><time>2026-03-29T12:13:39.115Z</time></trkpt><trkpt lat="45.3523196" lon="8.1789479"><ele>179.0</ele><time>2026-03-29T12:13:40.102Z</time></trkpt><trkpt lat="45.3521166" lon="8.178809"><ele>179.0</ele><time>2026-03-29T12:13:43.112Z</time></trkpt><trkpt lat="45.3520541" lon="8.1788357"><ele>179.0</ele><time>2026-03-29T12:13:44.113Z</time></trkpt><trkpt lat="45.3519964" lon="8.178948"><ele>179.0</ele><time>2026-03-29T12:13:46.117Z</time></trkpt><trkpt lat="45.3519618" lon="8.1790684"><ele>179.0</ele><time>2026-03-29T12:13:47.112Z</time></trkpt><trkpt lat="45.3519192" lon="8.1791813"><ele>179.0</ele><time>2026-03-29T12:13:48.125Z</time></trkpt><trkpt lat="45.3518908" lon="8.1792753"><ele>179.0</ele><time>2026-03-29T12:13:49.122Z</time></trkpt><trkpt lat="45.3518132" lon="8.1793744"><ele>179.0</ele><time>2026-03-29T12:13:51.11Z</time></trkpt><trkpt lat="45.3516547" lon="8.1793698"><ele>179.0</ele><time>2026-03-29T12:13:53.138Z</time></trkpt><trkpt lat="45.3515332" lon="8.1793396"><ele>179.0</ele><time>2026-03-29T12:13:54.12Z</time></trkpt><trkpt lat="45.3513949" lon="8.1793062"><ele>179.0</ele><time>2026-03-29T12:13:55.129Z</time></trkpt><trkpt lat="45.3512444" lon="8.1792706"><ele>179.0</ele><time>2026-03-29T12:13:56.124Z</time></trkpt><trkpt lat="45.3511044" lon="8.1792351"><ele>179.0</ele><time>2026-03-29T12:13:57.117Z</time></trkpt><trkpt lat="45.3509691" lon="8.1792084"><ele>179.0</ele><time>2026-03-29T12:13:58.127Z</time></trkpt><trkpt lat="45.3508346" lon="8.1791842"><ele>179.0</ele><time>2026-03-29T12:13:59.147Z</time></trkpt><trkpt lat="45.3506934" lon="8.1791571"><ele>179.0</ele><time>2026-03-29T12:14:00.109Z</time></trkpt><trkpt lat="45.3505482" lon="8.1791164"><ele>179.0</ele><time>2026-03-29T12:14:01.122Z</time></trkpt><trkpt lat="45.350389" lon="8.1790523"><ele>178.75</ele><time>2026-03-29T12:14:02.126Z</time></trkpt><trkpt lat="45.3502258" lon="8.1789874"><ele>178.5</ele><time>2026-03-29T12:14:03.123Z</time></trkpt><trkpt lat="45.3500818" lon="8.178941"><ele>178.25</ele><time>2026-03-29T12:14:04.131Z</time></trkpt><trkpt lat="45.3499565" lon="8.1788969"><ele>178.0</ele><time>2026-03-29T12:14:05.126Z</time></trkpt><trkpt lat="45.349841" lon="8.178859"><ele>178.0</ele><time>2026-03-29T12:14:06.117Z</time></trkpt><trkpt lat="45.3497327" lon="8.1788294"><ele>178.0</ele><time>2026-03-29T12:14:07.122Z</time></trkpt><trkpt lat="45.3496243" lon="8.1788072"><ele>178.0</ele><time>2026-03-29T12:14:08.13Z</time></trkpt><trkpt lat="45.3495298" lon="8.1787984"><ele>178.0</ele><time>2026-03-29T12:14:09.12Z</time></trkpt><trkpt lat="45.3494299" lon="8.178819"><ele>178.0</ele><time>2026-03-29T12:14:10.114Z</time></trkpt><trkpt lat="45.3493278" lon="8.1788631"><ele>178.2</ele><time>2026-03-29T12:14:11.131Z</time></trkpt><trkpt lat="45.3492079" lon="8.1789216"><ele>178.4</ele><time>2026-03-29T12:14:12.121Z</time></trkpt><trkpt lat="45.3490917" lon="8.1789602"><ele>178.6</ele><time>2026-03-29T12:14:13.119Z</time></trkpt><trkpt lat="45.3490043" lon="8.1789897"><ele>178.79999999999998</ele><time>2026-03-29T12:14:14.128Z</time></trkpt><trkpt lat="45.3489327" lon="8.1789988"><ele>179.0</ele><time>2026-03-29T12:14:15.128Z</time></trkpt><trkpt lat="45.3488598" lon="8.1789946"><ele>179.25</ele><time>2026-03-29T12:14:16.126Z</time></trkpt><trkpt lat="45.3487489" lon="8.1789199"><ele>179.5</ele><time>2026-03-29T12:14:18.126Z</time></trkpt><trkpt lat="45.3486702" lon="8.1788511"><ele>179.75</ele><time>2026-03-29T12:14:19.121Z</time></trkpt><trkpt lat="45.3485538" lon="8.1787422"><ele>180.0</ele><time>2026-03-29T12:14:20.132Z</time></trkpt><trkpt lat="45.3484195" lon="8.1786105"><ele>180.0</ele><time>2026-03-29T12:14:21.125Z</time></trkpt><trkpt lat="45.3482757" lon="8.1784608"><ele>180.0</ele><time>2026-03-29T12:14:22.131Z</time></trkpt><trkpt lat="45.3481391" lon="8.178325"><ele>180.0</ele><time>2026-03-29T12:14:23.133Z</time></trkpt><trkpt lat="45.3480128" lon="8.1782001"><ele>180.0</ele><time>2026-03-29T12:14:24.117Z</time></trkpt><trkpt lat="45.3478967" lon="8.1780814"><ele>180.0</ele><time>2026-03-29T12:14:25.125Z</time></trkpt><trkpt lat="45.3477887" lon="8.1779686"><ele>180.0</ele><time>2026-03-29T12:14:26.133Z</time></trkpt><trkpt lat="45.3476782" lon="8.1778537"><ele>180.0</ele><time>2026-03-29T12:14:27.14Z</time></trkpt><trkpt lat="45.347565" lon="8.1777353"><ele>180.0</ele><time>2026-03-29T12:14:28.109Z</time></trkpt><trkpt lat="45.3474503" lon="8.1776212"><ele>180.0</ele><time>2026-03-29T12:14:29.162Z</time></trkpt><trkpt lat="45.3473301" lon="8.1775131"><ele>180.0</ele><time>2026-03-29T12:14:30.131Z</time></trkpt><trkpt lat="45.347216" lon="8.1774054"><ele>180.0</ele><time>2026-03-29T12:14:31.13Z</time></trkpt><trkpt lat="45.3471145" lon="8.1772903"><ele>180.0</ele><time>2026-03-29T12:14:32.113Z</time></trkpt><trkpt lat="45.3470059" lon="8.177176"><ele>180.0</ele><time>2026-03-29T12:14:33.119Z</time></trkpt><trkpt lat="45.3469011" lon="8.1770694"><ele>180.0</ele><time>2026-03-29T12:14:34.112Z</time></trkpt><trkpt lat="45.3468036" lon="8.1769724"><ele>180.0</ele><time>2026-03-29T12:14:35.117Z</time></trkpt><trkpt lat="45.3467272" lon="8.1768878"><ele>180.0</ele><time>2026-03-29T12:14:36.122Z</time></trkpt><trkpt lat="45.3466675" lon="8.1768286"><ele>180.0</ele><time>2026-03-29T12:14:37.122Z</time></trkpt><trkpt lat="45.3465968" lon="8.1767889"><ele>180.0</ele><time>2026-03-29T12:14:39.137Z</time></trkpt><trkpt lat="45.3465207" lon="8.1768247"><ele>180.0</ele><time>2026-03-29T12:14:41.112Z</time></trkpt><trkpt lat="45.3464727" lon="8.1768915"><ele>180.0</ele><time>2026-03-29T12:14:43.116Z</time></trkpt><trkpt lat="45.3463887" lon="8.1768419"><ele>180.0</ele><time>2026-03-29T12:14:45.114Z</time></trkpt><trkpt lat="45.3463259" lon="8.1767723"><ele>180.2</ele><time>2026-03-29T12:14:46.113Z</time></trkpt><trkpt lat="45.3462528" lon="8.1766786"><ele>180.4</ele><time>2026-03-29T12:14:47.122Z</time></trkpt><trkpt lat="45.3461707" lon="8.1765797"><ele>180.60000000000002</ele><time>2026-03-29T12:14:48.131Z</time></trkpt><trkpt lat="45.3460876" lon="8.1764771"><ele>180.8</ele><time>2026-03-29T12:14:49.125Z</time></trkpt><trkpt lat="45.3459975" lon="8.1763868"><ele>181.0</ele><time>2026-03-29T12:14:50.134Z</time></trkpt><trkpt lat="45.3459035" lon="8.1763006"><ele>181.0</ele><time>2026-03-29T12:14:51.14Z</time></trkpt><trkpt lat="45.3458046" lon="8.1762097"><ele>181.0</ele><time>2026-03-29T12:14:52.117Z</time></trkpt><trkpt lat="45.3457239" lon="8.1761159"><ele>181.0</ele><time>2026-03-29T12:14:53.123Z</time></trkpt><trkpt lat="45.3456533" lon="8.1760262"><ele>181.0</ele><time>2026-03-29T12:14:54.131Z</time></trkpt><trkpt lat="45.3455909" lon="8.1759617"><ele>181.0</ele><time>2026-03-29T12:14:55.126Z</time></trkpt><trkpt lat="45.3455196" lon="8.1759524"><ele>180.8</ele><time>2026-03-29T12:14:57.147Z</time></trkpt><trkpt lat="45.3454585" lon="8.1759878"><ele>180.60000000000002</ele><time>2026-03-29T12:14:58.144Z</time></trkpt><trkpt lat="45.3453736" lon="8.1760595"><ele>180.4</ele><time>2026-03-29T12:14:59.127Z</time></trkpt><trkpt lat="45.3452656" lon="8.1761502"><ele>180.2</ele><time>2026-03-29T12:15:00.129Z</time></trkpt><trkpt lat="45.3451591" lon="8.1762374"><ele>180.0</ele><time>2026-03-29T12:15:01.119Z</time></trkpt><trkpt lat="45.3450586" lon="8.1762906"><ele>180.0</ele><time>2026-03-29T12:15:02.119Z</time></trkpt><trkpt lat="45.3449469" lon="8.176327"><ele>180.0</ele><time>2026-03-29T12:15:03.128Z</time></trkpt><trkpt lat="45.3448466" lon="8.176373"><ele>180.0</ele><time>2026-03-29T12:15:04.124Z</time></trkpt><trkpt lat="45.3447584" lon="8.1764015"><ele>180.0</ele><time>2026-03-29T12:15:05.128Z</time></trkpt><trkpt lat="45.3446893" lon="8.1764382"><ele>180.0</ele><time>2026-03-29T12:15:06.134Z</time></trkpt><trkpt lat="45.3445857" lon="8.176488"><ele>179.8</ele><time>2026-03-29T12:15:08.116Z</time></trkpt><trkpt lat="45.344508" lon="8.1764793"><ele>179.6</ele><time>2026-03-29T12:15:10.123Z</time></trkpt><trkpt lat="45.3443984" lon="8.1763474"><ele>179.39999999999998</ele><time>2026-03-29T12:15:12.133Z</time></trkpt><trkpt lat="45.3443281" lon="8.1762706"><ele>179.2</ele><time>2026-03-29T12:15:13.129Z</time></trkpt><trkpt lat="45.3442557" lon="8.176175"><ele>179.0</ele><time>2026-03-29T12:15:14.139Z</time></trkpt><trkpt lat="45.3441729" lon="8.1760796"><ele>179.0</ele><time>2026-03-29T12:15:15.129Z</time></trkpt><trkpt lat="45.3440903" lon="8.1759869"><ele>179.0</ele><time>2026-03-29T12:15:16.132Z</time></trkpt><trkpt lat="45.3440175" lon="8.1759027"><ele>179.0</ele><time>2026-03-29T12:15:17.136Z</time></trkpt><trkpt lat="45.3439467" lon="8.1758197"><ele>179.0</ele><time>2026-03-29T12:15:18.135Z</time></trkpt><trkpt lat="45.3438833" lon="8.1757322"><ele>179.0</ele><time>2026-03-29T12:15:19.135Z</time></trkpt><trkpt lat="45.3438135" lon="8.1756434"><ele>179.16666666666666</ele><time>2026-03-29T12:15:20.119Z</time></trkpt><trkpt lat="45.3437462" lon="8.1755722"><ele>179.33333333333331</ele><time>2026-03-29T12:15:21.11Z</time></trkpt><trkpt lat="45.3436824" lon="8.1755121"><ele>179.5</ele><time>2026-03-29T12:15:22.134Z</time></trkpt><trkpt lat="45.3436056" lon="8.1754401"><ele>179.66666666666666</ele><time>2026-03-29T12:15:24.122Z</time></trkpt><trkpt lat="45.3435299" lon="8.175444"><ele>179.83333333333334</ele><time>2026-03-29T12:15:28.134Z</time></trkpt><trkpt lat="45.3434435" lon="8.1755613"><ele>180.0</ele><time>2026-03-29T12:15:30.132Z</time></trkpt><trkpt lat="45.3433745" lon="8.1756501"><ele>179.8</ele><time>2026-03-29T12:15:31.118Z</time></trkpt><trkpt lat="45.3433094" lon="8.1757452"><ele>179.6</ele><time>2026-03-29T12:15:32.133Z</time></trkpt><trkpt lat="45.3432485" lon="8.1758501"><ele>179.39999999999998</ele><time>2026-03-29T12:15:33.12Z</time></trkpt><trkpt lat="45.3431825" lon="8.1759669"><ele>179.2</ele><time>2026-03-29T12:15:34.123Z</time></trkpt><trkpt lat="45.3431104" lon="8.1760808"><ele>179.0</ele><time>2026-03-29T12:15:35.117Z</time></trkpt><trkpt lat="45.3430447" lon="8.1761967"><ele>179.39999999999998</ele><time>2026-03-29T12:15:36.129Z</time></trkpt><trkpt lat="45.3429801" lon="8.1763126"><ele>179.8</ele><time>2026-03-29T12:15:37.128Z</time></trkpt><trkpt lat="45.3429151" lon="8.1764248"><ele>180.2</ele><time>2026-03-29T12:15:38.118Z</time></trkpt><trkpt lat="45.3428644" lon="8.1765341"><ele>180.60000000000002</ele><time>2026-03-29T12:15:39.124Z</time></trkpt><trkpt lat="45.3428146" lon="8.1766232"><ele>181.0</ele><time>2026-03-29T12:15:40.126Z</time></trkpt><trkpt lat="45.3427722" lon="8.1767056"><ele>181.0</ele><time>2026-03-29T12:15:41.126Z</time></trkpt><trkpt lat="45.3427209" lon="8.176805"><ele>181.0</ele><time>2026-03-29T12:15:43.122Z</time></trkpt><trkpt lat="45.3426477" lon="8.1768308"><ele>181.0</ele><time>2026-03-29T12:15:46.133Z</time></trkpt><trkpt lat="45.3425323" lon="8.1767796"><ele>181.0</ele><time>2026-03-29T12:15:48.134Z</time></trkpt><trkpt lat="45.3424679" lon="8.1767259"><ele>181.0</ele><time>2026-03-29T12:15:49.122Z</time></trkpt><trkpt lat="45.3423939" lon="8.1766674"><ele>181.0</ele><time>2026-03-29T12:15:50.124Z</time></trkpt><trkpt lat="45.3423192" lon="8.1766094"><ele>181.0</ele><time>2026-03-29T12:15:51.123Z</time></trkpt><trkpt lat="45.3422436" lon="8.1765478"><ele>181.0</ele><time>2026-03-29T12:15:52.119Z</time></trkpt><trkpt lat="45.3421678" lon="8.1764853"><ele>181.0</ele><time>2026-03-29T12:15:53.123Z</time></trkpt><trkpt lat="45.3421091" lon="8.1764247"><ele>181.0</ele><time>2026-03-29T12:15:54.116Z</time></trkpt><trkpt lat="45.3420602" lon="8.1763623"><ele>181.0</ele><time>2026-03-29T12:15:55.112Z</time></trkpt><trkpt lat="45.341979" lon="8.1762542"><ele>181.0</ele><time>2026-03-29T12:15:57.122Z</time></trkpt><trkpt lat="45.3419135" lon="8.1762347"><ele>181.0</ele><time>2026-03-29T12:15:59.133Z</time></trkpt><trkpt lat="45.3418316" lon="8.1763393"><ele>181.0</ele><time>2026-03-29T12:16:01.124Z</time></trkpt><trkpt lat="45.3417784" lon="8.1764299"><ele>181.0</ele><time>2026-03-29T12:16:02.135Z</time></trkpt><trkpt lat="45.341717" lon="8.1765281"><ele>181.0</ele><time>2026-03-29T12:16:03.13Z</time></trkpt><trkpt lat="45.341657" lon="8.1766229"><ele>181.0</ele><time>2026-03-29T12:16:04.128Z</time></trkpt><trkpt lat="45.3416023" lon="8.1767102"><ele>181.0</ele><time>2026-03-29T12:16:05.149Z</time></trkpt><trkpt lat="45.3415379" lon="8.1767988"><ele>181.0</ele><time>2026-03-29T12:16:06.122Z</time></trkpt><trkpt lat="45.3414593" lon="8.1768734"><ele>181.0</ele><time>2026-03-29T12:16:07.106Z</time></trkpt><trkpt lat="45.341369" lon="8.1769602"><ele>181.0</ele><time>2026-03-29T12:16:08.129Z</time></trkpt><trkpt lat="45.3412875" lon="8.177026"><ele>181.0</ele><time>2026-03-29T12:16:09.123Z</time></trkpt><trkpt lat="45.3412257" lon="8.1770797"><ele>180.66666666666669</ele><time>2026-03-29T12:16:10.13Z</time></trkpt><trkpt lat="45.3411276" lon="8.1771148"><ele>180.33333333333334</ele><time>2026-03-29T12:16:12.122Z</time></trkpt><trkpt lat="45.3411228" lon="8.1772078"><ele>180.0</ele><time>2026-03-29T12:26:51.093Z</time></trkpt><trkpt lat="45.3411606" lon="8.1771104"><ele>179.66666666666666</ele><time>2026-03-29T12:26:55.129Z</time></trkpt><trkpt lat="45.3410939" lon="8.1770667"><ele>179.33333333333331</ele><time>2026-03-29T12:26:58.123Z</time></trkpt><trkpt lat="45.3410367" lon="8.1771341"><ele>179.0</ele><time>2026-03-29T12:27:02.161Z</time></trkpt><trkpt lat="45.340926" lon="8.177191"><ele>179.0</ele><time>2026-03-29T12:27:10.14Z</time></trkpt><trkpt lat="45.3408525" lon="8.1772439"><ele>179.0</ele><time>2026-03-29T12:27:11.132Z</time></trkpt><trkpt lat="45.3407648" lon="8.1773179"><ele>179.0</ele><time>2026-03-29T12:27:12.125Z</time></trkpt><trkpt lat="45.3406639" lon="8.1774048"><ele>179.0</ele><time>2026-03-29T12:27:13.126Z</time></trkpt><trkpt lat="45.3405745" lon="8.1774795"><ele>179.0</ele><time>2026-03-29T12:27:14.117Z</time></trkpt><trkpt lat="45.3404893" lon="8.1775604"><ele>178.79999999999998</ele><time>2026-03-29T12:27:15.141Z</time></trkpt><trkpt lat="45.3404013" lon="8.1776469"><ele>178.6</ele><time>2026-03-29T12:27:16.132Z</time></trkpt><trkpt lat="45.3403156" lon="8.1777425"><ele>178.4</ele><time>2026-03-29T12:27:17.143Z</time></trkpt><trkpt lat="45.3402385" lon="8.1778379"><ele>178.2</ele><time>2026-03-29T12:27:18.13Z</time></trkpt><trkpt lat="45.3401571" lon="8.1779255"><ele>178.0</ele><time>2026-03-29T12:27:19.126Z</time></trkpt><trkpt lat="45.3400745" lon="8.1780134"><ele>178.0</ele><time>2026-03-29T12:27:20.118Z</time></trkpt><trkpt lat="45.3399966" lon="8.1780916"><ele>178.0</ele><time>2026-03-29T12:27:21.126Z</time></trkpt><trkpt lat="45.3399209" lon="8.1781665"><ele>178.0</ele><time>2026-03-29T12:27:22.135Z</time></trkpt><trkpt lat="45.339846" lon="8.178248"><ele>178.0</ele><time>2026-03-29T12:27:23.128Z</time></trkpt><trkpt lat="45.3397711" lon="8.1783428"><ele>178.0</ele><time>2026-03-29T12:27:24.131Z</time></trkpt><trkpt lat="45.3397011" lon="8.1784379"><ele>178.0</ele><time>2026-03-29T12:27:25.135Z</time></trkpt><trkpt lat="45.3396375" lon="8.178516"><ele>178.0</ele><time>2026-03-29T12:27:26.118Z</time></trkpt><trkpt lat="45.3395683" lon="8.1785922"><ele>178.0</ele><time>2026-03-29T12:27:27.126Z</time></trkpt><trkpt lat="45.3394978" lon="8.1786805"><ele>178.0</ele><time>2026-03-29T12:27:28.115Z</time></trkpt><trkpt lat="45.3394241" lon="8.1787604"><ele>178.0</ele><time>2026-03-29T12:27:29.124Z</time></trkpt><trkpt lat="45.3393527" lon="8.1788437"><ele>178.0</ele><time>2026-03-29T12:27:30.135Z</time></trkpt><trkpt lat="45.3392815" lon="8.1789252"><ele>178.0</ele><time>2026-03-29T12:27:31.118Z</time></trkpt><trkpt lat="45.3392124" lon="8.1790136"><ele>178.0</ele><time>2026-03-29T12:27:32.134Z</time></trkpt><trkpt lat="45.3391445" lon="8.1790917"><ele>178.0</ele><time>2026-03-29T12:27:33.13Z</time></trkpt><trkpt lat="45.3390874" lon="8.1791657"><ele>178.0</ele><time>2026-03-29T12:27:34.129Z</time></trkpt><trkpt lat="45.3390303" lon="8.1792296"><ele>178.0</ele><time>2026-03-29T12:27:35.134Z</time></trkpt><trkpt lat="45.338979" lon="8.1792835"><ele>177.75</ele><time>2026-03-29T12:27:36.127Z</time></trkpt><trkpt lat="45.3388984" lon="8.1793721"><ele>177.5</ele><time>2026-03-29T12:27:38.134Z</time></trkpt><trkpt lat="45.3388112" lon="8.1794569"><ele>177.25</ele><time>2026-03-29T12:28:10.123Z</time></trkpt><trkpt lat="45.3387151" lon="8.179567"><ele>177.0</ele><time>2026-03-29T12:28:11.135Z</time></trkpt><trkpt lat="45.3386222" lon="8.1796877"><ele>177.0</ele><time>2026-03-29T12:28:12.122Z</time></trkpt><trkpt lat="45.3385211" lon="8.1797891"><ele>177.0</ele><time>2026-03-29T12:28:13.127Z</time></trkpt><trkpt lat="45.3384049" lon="8.1798975"><ele>177.0</ele><time>2026-03-29T12:28:14.139Z</time></trkpt><trkpt lat="45.3382503" lon="8.1800344"><ele>177.0</ele><time>2026-03-29T12:28:15.124Z</time></trkpt><trkpt lat="45.3380901" lon="8.180188"><ele>176.66666666666666</ele><time>2026-03-29T12:28:16.126Z</time></trkpt><trkpt lat="45.3379217" lon="8.180345"><ele>176.33333333333331</ele><time>2026-03-29T12:28:17.123Z</time></trkpt><trkpt lat="45.3377539" lon="8.1804909"><ele>176.0</ele><time>2026-03-29T12:28:18.125Z</time></trkpt><trkpt lat="45.3375933" lon="8.1806346"><ele>176.0</ele><time>2026-03-29T12:28:19.122Z</time></trkpt><trkpt lat="45.3374384" lon="8.1807787"><ele>176.0</ele><time>2026-03-29T12:28:20.128Z</time></trkpt><trkpt lat="45.3372839" lon="8.1809213"><ele>176.0</ele><time>2026-03-29T12:28:21.125Z</time></trkpt><trkpt lat="45.3371343" lon="8.1810615"><ele>175.33333333333331</ele><time>2026-03-29T12:28:22.122Z</time></trkpt><trkpt lat="45.3369787" lon="8.1811953"><ele>174.66666666666666</ele><time>2026-03-29T12:28:23.13Z</time></trkpt><trkpt lat="45.3368267" lon="8.181329"><ele>174.0</ele><time>2026-03-29T12:28:24.119Z</time></trkpt><trkpt lat="45.3366784" lon="8.1814629"><ele>174.33333333333334</ele><time>2026-03-29T12:28:25.128Z</time></trkpt><trkpt lat="45.3365321" lon="8.1816007"><ele>174.66666666666669</ele><time>2026-03-29T12:28:26.118Z</time></trkpt><trkpt lat="45.3363809" lon="8.1817385"><ele>175.0</ele><time>2026-03-29T12:28:27.14Z</time></trkpt><trkpt lat="45.3362323" lon="8.1818753"><ele>175.0</ele><time>2026-03-29T12:28:28.128Z</time></trkpt><trkpt lat="45.3360792" lon="8.1820082"><ele>175.0</ele><time>2026-03-29T12:28:29.131Z</time></trkpt><trkpt lat="45.3359287" lon="8.1821336"><ele>175.0</ele><time>2026-03-29T12:28:30.131Z</time></trkpt><trkpt lat="45.335781" lon="8.1822711"><ele>175.0</ele><time>2026-03-29T12:28:31.132Z</time></trkpt><trkpt lat="45.3356293" lon="8.1824073"><ele>175.0</ele><time>2026-03-29T12:28:32.127Z</time></trkpt><trkpt lat="45.3354856" lon="8.1825377"><ele>175.0</ele><time>2026-03-29T12:28:33.116Z</time></trkpt><trkpt lat="45.3353555" lon="8.1826559"><ele>175.25</ele><time>2026-03-29T12:28:34.126Z</time></trkpt><trkpt lat="45.3352391" lon="8.1827523"><ele>175.5</ele><time>2026-03-29T12:28:35.131Z</time></trkpt><trkpt lat="45.3351275" lon="8.182859"><ele>175.75</ele><time>2026-03-29T12:28:36.122Z</time></trkpt><trkpt lat="45.3350081" lon="8.1829685"><ele>176.0</ele><time>2026-03-29T12:28:37.131Z</time></trkpt><trkpt lat="45.3348841" lon="8.1830846"><ele>175.5</ele><time>2026-03-29T12:28:38.119Z</time></trkpt><trkpt lat="45.3347541" lon="8.1832"><ele>175.0</ele><time>2026-03-29T12:28:39.117Z</time></trkpt><trkpt lat="45.3346291" lon="8.183312"><ele>174.5</ele><time>2026-03-29T12:28:40.126Z</time></trkpt><trkpt lat="45.3345184" lon="8.1834112"><ele>174.0</ele><time>2026-03-29T12:28:41.113Z</time></trkpt><trkpt lat="45.3344182" lon="8.183501"><ele>174.0</ele><time>2026-03-29T12:28:42.136Z</time></trkpt><trkpt lat="45.3343363" lon="8.1835758"><ele>174.0</ele><time>2026-03-29T12:28:43.12Z</time></trkpt><trkpt lat="45.3342738" lon="8.1836392"><ele>174.0</ele><time>2026-03-29T12:28:44.14Z</time></trkpt><trkpt lat="45.3342147" lon="8.1837589"><ele>174.0</ele><time>2026-03-29T12:28:46.129Z</time></trkpt><trkpt lat="45.3342418" lon="8.1839183"><ele>174.0</ele><time>2026-03-29T12:28:48.133Z</time></trkpt><trkpt lat="45.3342767" lon="8.1840097"><ele>173.79999999999998</ele><time>2026-03-29T12:28:49.119Z</time></trkpt><trkpt lat="45.3343196" lon="8.1840983"><ele>173.6</ele><time>2026-03-29T12:28:50.119Z</time></trkpt><trkpt lat="45.3343928" lon="8.1842122"><ele>173.4</ele><time>2026-03-29T12:28:52.13Z</time></trkpt><trkpt lat="45.334396" lon="8.184342"><ele>173.2</ele><time>2026-03-29T12:28:55.138Z</time></trkpt><trkpt lat="45.3343522" lon="8.184412"><ele>173.0</ele><time>2026-03-29T12:28:56.135Z</time></trkpt><trkpt lat="45.3342796" lon="8.1845376"><ele>173.0</ele><time>2026-03-29T12:28:57.128Z</time></trkpt><trkpt lat="45.3342049" lon="8.1846703"><ele>173.0</ele><time>2026-03-29T12:28:58.131Z</time></trkpt><trkpt lat="45.3341311" lon="8.1848129"><ele>173.0</ele><time>2026-03-29T12:28:59.13Z</time></trkpt><trkpt lat="45.3340592" lon="8.1849635"><ele>173.0</ele><time>2026-03-29T12:29:00.124Z</time></trkpt><trkpt lat="45.3339901" lon="8.1851191"><ele>173.0</ele><time>2026-03-29T12:29:01.111Z</time></trkpt><trkpt lat="45.3339264" lon="8.1852859"><ele>173.0</ele><time>2026-03-29T12:29:02.141Z</time></trkpt><trkpt lat="45.333862" lon="8.1854717"><ele>173.0</ele><time>2026-03-29T12:29:03.117Z</time></trkpt><trkpt lat="45.3337929" lon="8.185672"><ele>173.0</ele><time>2026-03-29T12:29:04.122Z</time></trkpt><trkpt lat="45.3337266" lon="8.1858717"><ele>173.25</ele><time>2026-03-29T12:29:05.121Z</time></trkpt><trkpt lat="45.3336687" lon="8.1860478"><ele>173.5</ele><time>2026-03-29T12:29:06.13Z</time></trkpt><trkpt lat="45.333622" lon="8.1862048"><ele>173.75</ele><time>2026-03-29T12:29:07.139Z</time></trkpt><trkpt lat="45.3335692" lon="8.1863524"><ele>174.0</ele><time>2026-03-29T12:29:08.131Z</time></trkpt><trkpt lat="45.3335202" lon="8.1864856"><ele>174.0</ele><time>2026-03-29T12:29:09.123Z</time></trkpt><trkpt lat="45.3334743" lon="8.1865959"><ele>174.0</ele><time>2026-03-29T12:29:10.131Z</time></trkpt><trkpt lat="45.3334387" lon="8.18667"><ele>174.0</ele><time>2026-03-29T12:29:11.141Z</time></trkpt><trkpt lat="45.333405" lon="8.1867539"><ele>174.0</ele><time>2026-03-29T12:29:13.118Z</time></trkpt><trkpt lat="45.3333609" lon="8.1868677"><ele>174.0</ele><time>2026-03-29T12:33:25.126Z</time></trkpt><trkpt lat="45.3333038" lon="8.1869756"><ele>174.0</ele><time>2026-03-29T12:33:26.114Z</time></trkpt><trkpt lat="45.3332397" lon="8.1871038"><ele>174.0</ele><time>2026-03-29T12:33:27.121Z</time></trkpt><trkpt lat="45.3331708" lon="8.1872453"><ele>174.0</ele><time>2026-03-29T12:33:28.117Z</time></trkpt><trkpt lat="45.3330937" lon="8.1874023"><ele>174.0</ele><time>2026-03-29T12:33:29.131Z</time></trkpt><trkpt lat="45.3330088" lon="8.1875648"><ele>174.0</ele><time>2026-03-29T12:33:30.123Z</time></trkpt><trkpt lat="45.3329214" lon="8.187736"><ele>174.0</ele><time>2026-03-29T12:33:31.127Z</time></trkpt><trkpt lat="45.3328349" lon="8.1879005"><ele>174.0</ele><time>2026-03-29T12:33:32.127Z</time></trkpt><trkpt lat="45.3327559" lon="8.1880536"><ele>174.0</ele><time>2026-03-29T12:33:33.132Z</time></trkpt><trkpt lat="45.3326723" lon="8.1882255"><ele>174.0</ele><time>2026-03-29T12:33:34.133Z</time></trkpt><trkpt lat="45.3325863" lon="8.1883939"><ele>173.75</ele><time>2026-03-29T12:33:35.136Z</time></trkpt><trkpt lat="45.3324998" lon="8.188568"><ele>173.5</ele><time>2026-03-29T12:33:36.136Z</time></trkpt><trkpt lat="45.3324148" lon="8.1887407"><ele>173.25</ele><time>2026-03-29T12:33:37.137Z</time></trkpt><trkpt lat="45.3323372" lon="8.1889084"><ele>173.0</ele><time>2026-03-29T12:33:38.137Z</time></trkpt><trkpt lat="45.3322622" lon="8.189062"><ele>172.5</ele><time>2026-03-29T12:33:39.12Z</time></trkpt><trkpt lat="45.3321849" lon="8.189216"><ele>172.0</ele><time>2026-03-29T12:33:40.122Z</time></trkpt><trkpt lat="45.3321084" lon="8.1893864"><ele>171.5</ele><time>2026-03-29T12:33:41.131Z</time></trkpt><trkpt lat="45.3320244" lon="8.1895445"><ele>171.0</ele><time>2026-03-29T12:33:42.131Z</time></trkpt><trkpt lat="45.3319399" lon="8.189704"><ele>171.33333333333334</ele><time>2026-03-29T12:33:43.128Z</time></trkpt><trkpt lat="45.3318466" lon="8.1898667"><ele>171.66666666666669</ele><time>2026-03-29T12:33:44.129Z</time></trkpt><trkpt lat="45.3317496" lon="8.1900325"><ele>172.0</ele><time>2026-03-29T12:33:45.124Z</time></trkpt><trkpt lat="45.3316489" lon="8.1902055"><ele>172.0</ele><time>2026-03-29T12:33:46.14Z</time></trkpt><trkpt lat="45.3315446" lon="8.1903857"><ele>172.0</ele><time>2026-03-29T12:33:47.114Z</time></trkpt><trkpt lat="45.3314458" lon="8.1905508"><ele>172.0</ele><time>2026-03-29T12:33:48.158Z</time></trkpt><trkpt lat="45.3313511" lon="8.1907139"><ele>172.0</ele><time>2026-03-29T12:33:49.113Z</time></trkpt><trkpt lat="45.3312584" lon="8.1908768"><ele>172.0</ele><time>2026-03-29T12:33:50.129Z</time></trkpt><trkpt lat="45.3311665" lon="8.1910454"><ele>172.0</ele><time>2026-03-29T12:33:51.129Z</time></trkpt><trkpt lat="45.3310742" lon="8.1912252"><ele>172.0</ele><time>2026-03-29T12:33:52.128Z</time></trkpt><trkpt lat="45.3309789" lon="8.1914084"><ele>172.0</ele><time>2026-03-29T12:33:53.129Z</time></trkpt><trkpt lat="45.330875" lon="8.1915979"><ele>172.0</ele><time>2026-03-29T12:33:54.13Z</time></trkpt><trkpt lat="45.3307773" lon="8.1917777"><ele>172.0</ele><time>2026-03-29T12:33:55.116Z</time></trkpt><trkpt lat="45.3306807" lon="8.1919639"><ele>172.0</ele><time>2026-03-29T12:33:56.125Z</time></trkpt><trkpt lat="45.3305843" lon="8.1921423"><ele>172.0</ele><time>2026-03-29T12:33:57.135Z</time></trkpt><trkpt lat="45.3304885" lon="8.1923063"><ele>172.0</ele><time>2026-03-29T12:33:58.12Z</time></trkpt><trkpt lat="45.3304033" lon="8.1924644"><ele>172.0</ele><time>2026-03-29T12:33:59.142Z</time></trkpt><trkpt lat="45.3303266" lon="8.1926224"><ele>172.0</ele><time>2026-03-29T12:34:00.126Z</time></trkpt><trkpt lat="45.3302594" lon="8.1927879"><ele>172.0</ele><time>2026-03-29T12:34:01.146Z</time></trkpt><trkpt lat="45.3301875" lon="8.1929549"><ele>172.0</ele><time>2026-03-29T12:34:02.149Z</time></trkpt><trkpt lat="45.3301116" lon="8.1931305"><ele>172.0</ele><time>2026-03-29T12:34:03.13Z</time></trkpt><trkpt lat="45.3300392" lon="8.1933126"><ele>172.0</ele><time>2026-03-29T12:34:04.126Z</time></trkpt><trkpt lat="45.3299638" lon="8.1935034"><ele>172.0</ele><time>2026-03-29T12:34:05.14Z</time></trkpt><trkpt lat="45.3298883" lon="8.1936957"><ele>171.33333333333334</ele><time>2026-03-29T12:34:06.134Z</time></trkpt><trkpt lat="45.3298154" lon="8.1938835"><ele>170.66666666666666</ele><time>2026-03-29T12:34:07.126Z</time></trkpt><trkpt lat="45.3297421" lon="8.194074"><ele>170.0</ele><time>2026-03-29T12:34:08.145Z</time></trkpt><trkpt lat="45.3296673" lon="8.1942666"><ele>170.0</ele><time>2026-03-29T12:34:09.119Z</time></trkpt><trkpt lat="45.329593" lon="8.1944485"><ele>170.0</ele><time>2026-03-29T12:34:10.118Z</time></trkpt><trkpt lat="45.329514" lon="8.194626"><ele>170.0</ele><time>2026-03-29T12:34:11.136Z</time></trkpt><trkpt lat="45.329433" lon="8.1947998"><ele>170.0</ele><time>2026-03-29T12:34:12.121Z</time></trkpt><trkpt lat="45.3293607" lon="8.194961"><ele>169.75</ele><time>2026-03-29T12:34:13.131Z</time></trkpt><trkpt lat="45.3292909" lon="8.1951204"><ele>169.5</ele><time>2026-03-29T12:34:14.133Z</time></trkpt><trkpt lat="45.3292207" lon="8.1952835"><ele>169.25</ele><time>2026-03-29T12:34:15.109Z</time></trkpt><trkpt lat="45.3291547" lon="8.1954616"><ele>169.0</ele><time>2026-03-29T12:34:16.161Z</time></trkpt><trkpt lat="45.3290797" lon="8.1956453"><ele>169.25</ele><time>2026-03-29T12:34:17.127Z</time></trkpt><trkpt lat="45.3290121" lon="8.195823"><ele>169.5</ele><time>2026-03-29T12:34:18.135Z</time></trkpt><trkpt lat="45.3289471" lon="8.1959832"><ele>169.75</ele><time>2026-03-29T12:34:19.153Z</time></trkpt><trkpt lat="45.3288908" lon="8.1961444"><ele>170.0</ele><time>2026-03-29T12:34:20.134Z</time></trkpt><trkpt lat="45.3288318" lon="8.1962992"><ele>170.0</ele><time>2026-03-29T12:34:21.117Z</time></trkpt><trkpt lat="45.328769" lon="8.1964665"><ele>170.0</ele><time>2026-03-29T12:34:22.132Z</time></trkpt><trkpt lat="45.3287064" lon="8.1966281"><ele>170.0</ele><time>2026-03-29T12:34:23.141Z</time></trkpt><trkpt lat="45.3286509" lon="8.196782"><ele>170.0</ele><time>2026-03-29T12:34:24.136Z</time></trkpt><trkpt lat="45.3285935" lon="8.1969365"><ele>170.0</ele><time>2026-03-29T12:34:25.122Z</time></trkpt><trkpt lat="45.3285315" lon="8.1970994"><ele>170.0</ele><time>2026-03-29T12:34:26.126Z</time></trkpt><trkpt lat="45.3284642" lon="8.1972773"><ele>170.0</ele><time>2026-03-29T12:34:27.117Z</time></trkpt><trkpt lat="45.3283967" lon="8.197446"><ele>170.0</ele><time>2026-03-29T12:34:28.155Z</time></trkpt><trkpt lat="45.3283338" lon="8.1976109"><ele>170.0</ele><time>2026-03-29T12:34:29.133Z</time></trkpt><trkpt lat="45.3282714" lon="8.1977738"><ele>170.0</ele><time>2026-03-29T12:34:30.139Z</time></trkpt><trkpt lat="45.3282087" lon="8.1979389"><ele>170.0</ele><time>2026-03-29T12:34:31.153Z</time></trkpt><trkpt lat="45.3281458" lon="8.1980987"><ele>170.0</ele><time>2026-03-29T12:34:32.119Z</time></trkpt><trkpt lat="45.3280827" lon="8.198254"><ele>169.75</ele><time>2026-03-29T12:34:33.121Z</time></trkpt><trkpt lat="45.3280205" lon="8.19841"><ele>169.5</ele><time>2026-03-29T12:34:34.129Z</time></trkpt><trkpt lat="45.3279656" lon="8.198568"><ele>169.25</ele><time>2026-03-29T12:34:35.131Z</time></trkpt><trkpt lat="45.3279077" lon="8.1987176"><ele>169.0</ele><time>2026-03-29T12:34:36.129Z</time></trkpt><trkpt lat="45.327857" lon="8.1988665"><ele>169.0</ele><time>2026-03-29T12:34:37.122Z</time></trkpt><trkpt lat="45.3278052" lon="8.199018"><ele>169.0</ele><time>2026-03-29T12:34:38.122Z</time></trkpt><trkpt lat="45.3277487" lon="8.1991653"><ele>169.0</ele><time>2026-03-29T12:34:39.153Z</time></trkpt><trkpt lat="45.3276943" lon="8.1992963"><ele>169.0</ele><time>2026-03-29T12:34:40.131Z</time></trkpt><trkpt lat="45.3276516" lon="8.1994152"><ele>169.0</ele><time>2026-03-29T12:34:41.141Z</time></trkpt><trkpt lat="45.3276006" lon="8.1995398"><ele>169.0</ele><time>2026-03-29T12:34:42.127Z</time></trkpt><trkpt lat="45.3275528" lon="8.1996628"><ele>169.0</ele><time>2026-03-29T12:34:43.127Z</time></trkpt><trkpt lat="45.3275045" lon="8.1997903"><ele>169.0</ele><time>2026-03-29T12:34:44.128Z</time></trkpt><trkpt lat="45.3274544" lon="8.1999177"><ele>169.0</ele><time>2026-03-29T12:34:45.118Z</time></trkpt><trkpt lat="45.3274013" lon="8.2000468"><ele>169.0</ele><time>2026-03-29T12:34:46.12Z</time></trkpt><trkpt lat="45.3273601" lon="8.2001642"><ele>169.0</ele><time>2026-03-29T12:34:47.129Z</time></trkpt><trkpt lat="45.327322" lon="8.2002807"><ele>169.0</ele><time>2026-03-29T12:34:48.13Z</time></trkpt><trkpt lat="45.3272818" lon="8.2003988"><ele>169.0</ele><time>2026-03-29T12:34:49.134Z</time></trkpt><trkpt lat="45.3272375" lon="8.2005088"><ele>169.0</ele><time>2026-03-29T12:34:50.142Z</time></trkpt><trkpt lat="45.3271847" lon="8.2006329"><ele>169.0</ele><time>2026-03-29T12:34:51.155Z</time></trkpt><trkpt lat="45.3271256" lon="8.2007514"><ele>169.0</ele><time>2026-03-29T12:34:52.113Z</time></trkpt><trkpt lat="45.3270718" lon="8.2008671"><ele>169.0</ele><time>2026-03-29T12:34:53.14Z</time></trkpt><trkpt lat="45.3270285" lon="8.20097"><ele>169.0</ele><time>2026-03-29T12:34:54.14Z</time></trkpt><trkpt lat="45.3269864" lon="8.2010752"><ele>169.0</ele><time>2026-03-29T12:34:55.131Z</time></trkpt><trkpt lat="45.3269378" lon="8.2011869"><ele>169.0</ele><time>2026-03-29T12:34:56.129Z</time></trkpt><trkpt lat="45.3269023" lon="8.2012757"><ele>169.0</ele><time>2026-03-29T12:34:57.142Z</time></trkpt><trkpt lat="45.3268565" lon="8.2013942"><ele>169.0</ele><time>2026-03-29T12:34:59.12Z</time></trkpt><trkpt lat="45.3268176" lon="8.201468"><ele>169.0</ele><time>2026-03-29T12:35:00.131Z</time></trkpt><trkpt lat="45.3267769" lon="8.2015554"><ele>169.0</ele><time>2026-03-29T12:35:01.132Z</time></trkpt><trkpt lat="45.3267324" lon="8.2016488"><ele>169.0</ele><time>2026-03-29T12:35:02.153Z</time></trkpt><trkpt lat="45.3266822" lon="8.2017386"><ele>169.0</ele><time>2026-03-29T12:35:03.129Z</time></trkpt><trkpt lat="45.3266209" lon="8.2018409"><ele>169.0</ele><time>2026-03-29T12:35:04.138Z</time></trkpt><trkpt lat="45.3265639" lon="8.201952"><ele>168.79999999999998</ele><time>2026-03-29T12:35:05.164Z</time></trkpt><trkpt lat="45.3265126" lon="8.2020605"><ele>168.6</ele><time>2026-03-29T12:35:06.128Z</time></trkpt><trkpt lat="45.3264547" lon="8.2021755"><ele>168.4</ele><time>2026-03-29T12:35:07.151Z</time></trkpt><trkpt lat="45.3263991" lon="8.2022876"><ele>168.2</ele><time>2026-03-29T12:35:08.127Z</time></trkpt><trkpt lat="45.3263375" lon="8.2024254"><ele>168.0</ele><time>2026-03-29T12:35:09.128Z</time></trkpt><trkpt lat="45.3262725" lon="8.2025563"><ele>168.0</ele><time>2026-03-29T12:35:10.136Z</time></trkpt><trkpt lat="45.3262056" lon="8.2026939"><ele>168.0</ele><time>2026-03-29T12:35:11.135Z</time></trkpt><trkpt lat="45.326121" lon="8.2028334"><ele>168.0</ele><time>2026-03-29T12:35:12.132Z</time></trkpt><trkpt lat="45.3260388" lon="8.2029756"><ele>168.0</ele><time>2026-03-29T12:35:13.138Z</time></trkpt><trkpt lat="45.3259591" lon="8.2031194"><ele>168.0</ele><time>2026-03-29T12:35:14.128Z</time></trkpt><trkpt lat="45.3258843" lon="8.2032643"><ele>168.0</ele><time>2026-03-29T12:35:15.132Z</time></trkpt><trkpt lat="45.325808" lon="8.203399"><ele>168.0</ele><time>2026-03-29T12:35:16.132Z</time></trkpt><trkpt lat="45.3257335" lon="8.2035257"><ele>168.0</ele><time>2026-03-29T12:35:17.13Z</time></trkpt><trkpt lat="45.3256613" lon="8.2036574"><ele>168.0</ele><time>2026-03-29T12:35:18.134Z</time></trkpt><trkpt lat="45.3255955" lon="8.2037892"><ele>168.0</ele><time>2026-03-29T12:35:19.139Z</time></trkpt><trkpt lat="45.3255283" lon="8.2039046"><ele>168.0</ele><time>2026-03-29T12:35:20.136Z</time></trkpt><trkpt lat="45.3254598" lon="8.2040212"><ele>168.0</ele><time>2026-03-29T12:35:21.139Z</time></trkpt><trkpt lat="45.325385" lon="8.2041349"><ele>168.0</ele><time>2026-03-29T12:35:22.136Z</time></trkpt><trkpt lat="45.3253121" lon="8.2042575"><ele>167.8</ele><time>2026-03-29T12:35:23.132Z</time></trkpt><trkpt lat="45.3252378" lon="8.2043704"><ele>167.60000000000002</ele><time>2026-03-29T12:35:24.117Z</time></trkpt><trkpt lat="45.3251687" lon="8.2044802"><ele>167.39999999999998</ele><time>2026-03-29T12:35:25.139Z</time></trkpt><trkpt lat="45.3251107" lon="8.2045783"><ele>167.2</ele><time>2026-03-29T12:35:26.127Z</time></trkpt><trkpt lat="45.3250695" lon="8.2046511"><ele>167.0</ele><time>2026-03-29T12:35:27.137Z</time></trkpt><trkpt lat="45.3249734" lon="8.2047554"><ele>167.0</ele><time>2026-03-29T12:35:29.135Z</time></trkpt><trkpt lat="45.3249131" lon="8.2047944"><ele>167.0</ele><time>2026-03-29T12:35:30.143Z</time></trkpt><trkpt lat="45.3248399" lon="8.2048198"><ele>167.0</ele><time>2026-03-29T12:35:31.123Z</time></trkpt><trkpt lat="45.3247503" lon="8.2048318"><ele>167.0</ele><time>2026-03-29T12:35:32.125Z</time></trkpt><trkpt lat="45.3246752" lon="8.2048312"><ele>167.0</ele><time>2026-03-29T12:35:33.123Z</time></trkpt><trkpt lat="45.3245897" lon="8.20481"><ele>167.0</ele><time>2026-03-29T12:35:35.128Z</time></trkpt><trkpt lat="45.3245426" lon="8.2046882"><ele>166.8</ele><time>2026-03-29T12:35:37.136Z</time></trkpt><trkpt lat="45.3244833" lon="8.2045944"><ele>166.6</ele><time>2026-03-29T12:35:39.122Z</time></trkpt><trkpt lat="45.3243898" lon="8.2046059"><ele>166.4</ele><time>2026-03-29T12:35:41.124Z</time></trkpt><trkpt lat="45.3243007" lon="8.2046569"><ele>166.20000000000002</ele><time>2026-03-29T12:35:42.134Z</time></trkpt><trkpt lat="45.3242016" lon="8.2047253"><ele>166.0</ele><time>2026-03-29T12:35:43.138Z</time></trkpt><trkpt lat="45.3241059" lon="8.2047817"><ele>166.20000000000002</ele><time>2026-03-29T12:35:44.127Z</time></trkpt><trkpt lat="45.3240097" lon="8.2048414"><ele>166.4</ele><time>2026-03-29T12:35:45.133Z</time></trkpt><trkpt lat="45.3239162" lon="8.2048905"><ele>166.6</ele><time>2026-03-29T12:35:46.11Z</time></trkpt><trkpt lat="45.3238359" lon="8.2049418"><ele>166.8</ele><time>2026-03-29T12:35:47.127Z</time></trkpt><trkpt lat="45.3237722" lon="8.2049816"><ele>167.0</ele><time>2026-03-29T12:35:48.139Z</time></trkpt><trkpt lat="45.3236728" lon="8.205007"><ele>167.0</ele><time>2026-03-29T12:35:50.134Z</time></trkpt><trkpt lat="45.3236096" lon="8.2049762"><ele>167.0</ele><time>2026-03-29T12:35:51.132Z</time></trkpt><trkpt lat="45.323531" lon="8.2049283"><ele>167.0</ele><time>2026-03-29T12:35:52.128Z</time></trkpt><trkpt lat="45.3234327" lon="8.2048675"><ele>167.0</ele><time>2026-03-29T12:35:53.14Z</time></trkpt><trkpt lat="45.3233283" lon="8.2047922"><ele>167.0</ele><time>2026-03-29T12:35:54.136Z</time></trkpt><trkpt lat="45.3232237" lon="8.2047301"><ele>167.0</ele><time>2026-03-29T12:35:55.136Z</time></trkpt><trkpt lat="45.3231193" lon="8.2046861"><ele>167.0</ele><time>2026-03-29T12:35:56.111Z</time></trkpt><trkpt lat="45.3230077" lon="8.20465"><ele>167.0</ele><time>2026-03-29T12:35:57.121Z</time></trkpt><trkpt lat="45.3228846" lon="8.2046138"><ele>167.0</ele><time>2026-03-29T12:35:58.126Z</time></trkpt><trkpt lat="45.322761" lon="8.2045719"><ele>167.0</ele><time>2026-03-29T12:35:59.137Z</time></trkpt><trkpt lat="45.3226427" lon="8.2045324"><ele>167.0</ele><time>2026-03-29T12:36:00.138Z</time></trkpt><trkpt lat="45.3225254" lon="8.2044899"><ele>167.0</ele><time>2026-03-29T12:36:01.119Z</time></trkpt><trkpt lat="45.322405" lon="8.204447"><ele>167.0</ele><time>2026-03-29T12:36:02.126Z</time></trkpt><trkpt lat="45.3222813" lon="8.2044012"><ele>167.0</ele><time>2026-03-29T12:36:03.135Z</time></trkpt><trkpt lat="45.3221596" lon="8.2043542"><ele>167.0</ele><time>2026-03-29T12:36:04.13Z</time></trkpt><trkpt lat="45.3220406" lon="8.2043047"><ele>167.0</ele><time>2026-03-29T12:36:05.127Z</time></trkpt><trkpt lat="45.3219317" lon="8.2042608"><ele>167.0</ele><time>2026-03-29T12:36:06.125Z</time></trkpt><trkpt lat="45.3218223" lon="8.2042189"><ele>167.0</ele><time>2026-03-29T12:36:07.137Z</time></trkpt><trkpt lat="45.321709" lon="8.204173"><ele>167.0</ele><time>2026-03-29T12:36:08.125Z</time></trkpt><trkpt lat="45.3215856" lon="8.2041252"><ele>167.0</ele><time>2026-03-29T12:36:09.134Z</time></trkpt><trkpt lat="45.3214643" lon="8.2040748"><ele>167.0</ele><time>2026-03-29T12:36:10.137Z</time></trkpt><trkpt lat="45.3213422" lon="8.2040281"><ele>167.25</ele><time>2026-03-29T12:36:11.124Z</time></trkpt><trkpt lat="45.3212221" lon="8.2039823"><ele>167.5</ele><time>2026-03-29T12:36:12.106Z</time></trkpt><trkpt lat="45.3210964" lon="8.203936"><ele>167.75</ele><time>2026-03-29T12:36:13.165Z</time></trkpt><trkpt lat="45.320973" lon="8.2038875"><ele>168.0</ele><time>2026-03-29T12:36:14.132Z</time></trkpt><trkpt lat="45.3208467" lon="8.2038383"><ele>168.0</ele><time>2026-03-29T12:36:15.131Z</time></trkpt><trkpt lat="45.3207201" lon="8.2037863"><ele>168.0</ele><time>2026-03-29T12:36:16.117Z</time></trkpt><trkpt lat="45.3205889" lon="8.2037339"><ele>168.0</ele><time>2026-03-29T12:36:17.154Z</time></trkpt><trkpt lat="45.3204538" lon="8.2036838"><ele>168.0</ele><time>2026-03-29T12:36:18.13Z</time></trkpt><trkpt lat="45.320319" lon="8.2036309"><ele>167.75</ele><time>2026-03-29T12:36:19.13Z</time></trkpt><trkpt lat="45.3201876" lon="8.2035749"><ele>167.5</ele><time>2026-03-29T12:36:20.123Z</time></trkpt><trkpt lat="45.3200656" lon="8.2035275"><ele>167.25</ele><time>2026-03-29T12:36:21.116Z</time></trkpt><trkpt lat="45.319953" lon="8.2034826"><ele>167.0</ele><time>2026-03-29T12:36:22.127Z</time></trkpt><trkpt lat="45.3198543" lon="8.2034552"><ele>167.0</ele><time>2026-03-29T12:36:23.126Z</time></trkpt><trkpt lat="45.31976" lon="8.2034309"><ele>167.0</ele><time>2026-03-29T12:36:24.131Z</time></trkpt><trkpt lat="45.3196595" lon="8.203407"><ele>167.0</ele><time>2026-03-29T12:36:25.131Z</time></trkpt><trkpt lat="45.3195471" lon="8.2033913"><ele>167.0</ele><time>2026-03-29T12:36:26.119Z</time></trkpt><trkpt lat="45.3194312" lon="8.2033616"><ele>167.0</ele><time>2026-03-29T12:36:27.126Z</time></trkpt><trkpt lat="45.3193123" lon="8.2033269"><ele>166.75</ele><time>2026-03-29T12:36:28.152Z</time></trkpt><trkpt lat="45.3191895" lon="8.203288"><ele>166.5</ele><time>2026-03-29T12:36:29.133Z</time></trkpt><trkpt lat="45.3190615" lon="8.2032503"><ele>166.25</ele><time>2026-03-29T12:36:30.157Z</time></trkpt><trkpt lat="45.3189297" lon="8.203213"><ele>166.0</ele><time>2026-03-29T12:36:31.139Z</time></trkpt><trkpt lat="45.318802" lon="8.2031751"><ele>165.75</ele><time>2026-03-29T12:36:32.121Z</time></trkpt><trkpt lat="45.3186893" lon="8.2031354"><ele>165.5</ele><time>2026-03-29T12:36:33.126Z</time></trkpt><trkpt lat="45.3185767" lon="8.2031049"><ele>165.25</ele><time>2026-03-29T12:36:34.133Z</time></trkpt><trkpt lat="45.3184643" lon="8.2030691"><ele>165.0</ele><time>2026-03-29T12:36:35.128Z</time></trkpt><trkpt lat="45.3183486" lon="8.2030318"><ele>165.0</ele><time>2026-03-29T12:36:36.132Z</time></trkpt><trkpt lat="45.3182283" lon="8.202992"><ele>165.0</ele><time>2026-03-29T12:36:37.139Z</time></trkpt><trkpt lat="45.3181149" lon="8.2029562"><ele>165.0</ele><time>2026-03-29T12:36:38.126Z</time></trkpt><trkpt lat="45.3180103" lon="8.2029249"><ele>165.0</ele><time>2026-03-29T12:36:39.124Z</time></trkpt><trkpt lat="45.3179214" lon="8.2028998"><ele>165.0</ele><time>2026-03-29T12:36:40.13Z</time></trkpt><trkpt lat="45.3178487" lon="8.2028821"><ele>165.5</ele><time>2026-03-29T12:36:41.155Z</time></trkpt><trkpt lat="45.3177362" lon="8.2028707"><ele>166.0</ele><time>2026-03-29T12:36:43.136Z</time></trkpt><trkpt lat="45.3176562" lon="8.2027946"><ele>166.5</ele><time>2026-03-29T12:36:45.12Z</time></trkpt><trkpt lat="45.3175898" lon="8.2026079"><ele>167.0</ele><time>2026-03-29T12:36:47.115Z</time></trkpt><trkpt lat="45.3175473" lon="8.2024647"><ele>166.75</ele><time>2026-03-29T12:36:48.127Z</time></trkpt><trkpt lat="45.3175091" lon="8.2023175"><ele>166.5</ele><time>2026-03-29T12:36:49.124Z</time></trkpt><trkpt lat="45.3174718" lon="8.2021611"><ele>166.25</ele><time>2026-03-29T12:36:50.127Z</time></trkpt><trkpt lat="45.3174343" lon="8.2020028"><ele>166.0</ele><time>2026-03-29T12:36:51.129Z</time></trkpt><trkpt lat="45.3173932" lon="8.2018452"><ele>166.0</ele><time>2026-03-29T12:36:52.128Z</time></trkpt><trkpt lat="45.3173521" lon="8.2016778"><ele>166.0</ele><time>2026-03-29T12:36:53.131Z</time></trkpt><trkpt lat="45.3173132" lon="8.2015161"><ele>166.0</ele><time>2026-03-29T12:36:54.128Z</time></trkpt><trkpt lat="45.3172772" lon="8.201351"><ele>166.0</ele><time>2026-03-29T12:36:55.144Z</time></trkpt><trkpt lat="45.3172352" lon="8.2011786"><ele>166.0</ele><time>2026-03-29T12:36:56.126Z</time></trkpt><trkpt lat="45.317192" lon="8.201005"><ele>166.0</ele><time>2026-03-29T12:36:57.124Z</time></trkpt><trkpt lat="45.3171495" lon="8.2008312"><ele>166.0</ele><time>2026-03-29T12:36:58.136Z</time></trkpt><trkpt lat="45.3171019" lon="8.2006483"><ele>166.0</ele><time>2026-03-29T12:36:59.134Z</time></trkpt><trkpt lat="45.3170523" lon="8.2004688"><ele>166.0</ele><time>2026-03-29T12:37:00.116Z</time></trkpt><trkpt lat="45.3170029" lon="8.200281"><ele>166.0</ele><time>2026-03-29T12:37:01.127Z</time></trkpt><trkpt lat="45.31695" lon="8.2000856"><ele>166.0</ele><time>2026-03-29T12:37:02.13Z</time></trkpt><trkpt lat="45.3168977" lon="8.1998943"><ele>166.0</ele><time>2026-03-29T12:37:03.124Z</time></trkpt><trkpt lat="45.3168508" lon="8.1997014"><ele>166.0</ele><time>2026-03-29T12:37:04.127Z</time></trkpt><trkpt lat="45.316802" lon="8.1995087"><ele>166.0</ele><time>2026-03-29T12:37:05.125Z</time></trkpt><trkpt lat="45.3167533" lon="8.1993096"><ele>166.0</ele><time>2026-03-29T12:37:06.133Z</time></trkpt><trkpt lat="45.3167088" lon="8.199111"><ele>166.0</ele><time>2026-03-29T12:37:07.118Z</time></trkpt><trkpt lat="45.3166637" lon="8.1989216"><ele>166.0</ele><time>2026-03-29T12:37:08.123Z</time></trkpt><trkpt lat="45.3166232" lon="8.1987401"><ele>166.0</ele><time>2026-03-29T12:37:09.132Z</time></trkpt><trkpt lat="45.3165861" lon="8.1985711"><ele>166.0</ele><time>2026-03-29T12:37:10.134Z</time></trkpt><trkpt lat="45.3165543" lon="8.1984192"><ele>166.0</ele><time>2026-03-29T12:37:11.126Z</time></trkpt><trkpt lat="45.3165275" lon="8.198285"><ele>166.0</ele><time>2026-03-29T12:37:12.128Z</time></trkpt><trkpt lat="45.3164994" lon="8.1981688"><ele>166.0</ele><time>2026-03-29T12:37:13.119Z</time></trkpt><trkpt lat="45.3164631" lon="8.1980122"><ele>166.0</ele><time>2026-03-29T12:37:15.135Z</time></trkpt><trkpt lat="45.3164221" lon="8.1978814"><ele>166.0</ele><time>2026-03-29T12:37:16.127Z</time></trkpt><trkpt lat="45.3163742" lon="8.1977318"><ele>166.0</ele><time>2026-03-29T12:37:17.132Z</time></trkpt><trkpt lat="45.3163276" lon="8.1975824"><ele>166.0</ele><time>2026-03-29T12:37:18.132Z</time></trkpt><trkpt lat="45.316273" lon="8.1974292"><ele>166.0</ele><time>2026-03-29T12:37:19.126Z</time></trkpt><trkpt lat="45.316221" lon="8.1972772"><ele>166.0</ele><time>2026-03-29T12:37:20.123Z</time></trkpt><trkpt lat="45.3161655" lon="8.1971263"><ele>166.0</ele><time>2026-03-29T12:37:21.125Z</time></trkpt><trkpt lat="45.3161092" lon="8.1969716"><ele>166.0</ele><time>2026-03-29T12:37:22.123Z</time></trkpt><trkpt lat="45.3160511" lon="8.1968116"><ele>166.0</ele><time>2026-03-29T12:37:23.124Z</time></trkpt><trkpt lat="45.3159946" lon="8.1966538"><ele>166.0</ele><time>2026-03-29T12:37:24.127Z</time></trkpt><trkpt lat="45.3159383" lon="8.1964961"><ele>166.0</ele><time>2026-03-29T12:37:25.133Z</time></trkpt><trkpt lat="45.3158817" lon="8.1963324"><ele>166.25</ele><time>2026-03-29T12:37:26.127Z</time></trkpt><trkpt lat="45.3158241" lon="8.1961728"><ele>166.5</ele><time>2026-03-29T12:37:27.129Z</time></trkpt><trkpt lat="45.3157628" lon="8.1960103"><ele>166.75</ele><time>2026-03-29T12:37:28.123Z</time></trkpt><trkpt lat="45.3157022" lon="8.1958464"><ele>167.0</ele><time>2026-03-29T12:37:29.119Z</time></trkpt><trkpt lat="45.315648" lon="8.195688"><ele>167.0</ele><time>2026-03-29T12:37:30.125Z</time></trkpt><trkpt lat="45.3155969" lon="8.1955371"><ele>167.0</ele><time>2026-03-29T12:37:31.127Z</time></trkpt><trkpt lat="45.3155485" lon="8.1953918"><ele>167.0</ele><time>2026-03-29T12:37:32.135Z</time></trkpt><trkpt lat="45.3155016" lon="8.1952419"><ele>167.0</ele><time>2026-03-29T12:37:33.131Z</time></trkpt><trkpt lat="45.3154551" lon="8.1950866"><ele>167.0</ele><time>2026-03-29T12:37:34.125Z</time></trkpt><trkpt lat="45.3154116" lon="8.194931"><ele>167.0</ele><time>2026-03-29T12:37:35.135Z</time></trkpt><trkpt lat="45.3153691" lon="8.1947714"><ele>167.0</ele><time>2026-03-29T12:37:36.126Z</time></trkpt><trkpt lat="45.3153332" lon="8.1946138"><ele>167.0</ele><time>2026-03-29T12:37:37.116Z</time></trkpt><trkpt lat="45.315301" lon="8.1944574"><ele>167.0</ele><time>2026-03-29T12:37:38.131Z</time></trkpt><trkpt lat="45.3152683" lon="8.1942992"><ele>167.0</ele><time>2026-03-29T12:37:39.116Z</time></trkpt><trkpt lat="45.3152358" lon="8.1941364"><ele>167.0</ele><time>2026-03-29T12:37:40.129Z</time></trkpt><trkpt lat="45.3152022" lon="8.1939725"><ele>167.0</ele><time>2026-03-29T12:37:41.116Z</time></trkpt><trkpt lat="45.3151657" lon="8.1937983"><ele>167.0</ele><time>2026-03-29T12:37:42.114Z</time></trkpt><trkpt lat="45.3151291" lon="8.1936245"><ele>167.0</ele><time>2026-03-29T12:37:43.117Z</time></trkpt><trkpt lat="45.315092" lon="8.1934528"><ele>167.0</ele><time>2026-03-29T12:37:44.128Z</time></trkpt><trkpt lat="45.3150512" lon="8.1932788"><ele>167.0</ele><time>2026-03-29T12:37:45.125Z</time></trkpt><trkpt lat="45.3150143" lon="8.1931038"><ele>167.0</ele><time>2026-03-29T12:37:46.16Z</time></trkpt><trkpt lat="45.314978" lon="8.1929327"><ele>167.0</ele><time>2026-03-29T12:37:47.11Z</time></trkpt><trkpt lat="45.3149405" lon="8.1927685"><ele>167.0</ele><time>2026-03-29T12:37:48.115Z</time></trkpt><trkpt lat="45.3149072" lon="8.1926086"><ele>167.0</ele><time>2026-03-29T12:37:49.114Z</time></trkpt><trkpt lat="45.3148686" lon="8.1924383"><ele>167.0</ele><time>2026-03-29T12:37:50.128Z</time></trkpt><trkpt lat="45.3148307" lon="8.1922572"><ele>167.0</ele><time>2026-03-29T12:37:51.119Z</time></trkpt><trkpt lat="45.3147892" lon="8.1920733"><ele>167.0</ele><time>2026-03-29T12:37:52.128Z</time></trkpt><trkpt lat="45.314748" lon="8.1918837"><ele>167.0</ele><time>2026-03-29T12:37:53.111Z</time></trkpt><trkpt lat="45.3147087" lon="8.1916917"><ele>166.75</ele><time>2026-03-29T12:37:54.122Z</time></trkpt><trkpt lat="45.3146697" lon="8.191498"><ele>166.5</ele><time>2026-03-29T12:37:55.128Z</time></trkpt><trkpt lat="45.3146283" lon="8.1913037"><ele>166.25</ele><time>2026-03-29T12:37:56.142Z</time></trkpt><trkpt lat="45.3145882" lon="8.1911176"><ele>166.0</ele><time>2026-03-29T12:37:57.116Z</time></trkpt><trkpt lat="45.3145467" lon="8.1909355"><ele>166.0</ele><time>2026-03-29T12:37:58.136Z</time></trkpt><trkpt lat="45.314509" lon="8.1907591"><ele>166.0</ele><time>2026-03-29T12:37:59.115Z</time></trkpt><trkpt lat="45.3144716" lon="8.1905862"><ele>166.0</ele><time>2026-03-29T12:38:00.127Z</time></trkpt><trkpt lat="45.3144359" lon="8.1904118"><ele>166.0</ele><time>2026-03-29T12:38:01.11Z</time></trkpt><trkpt lat="45.3143998" lon="8.1902471"><ele>166.25</ele><time>2026-03-29T12:38:02.119Z</time></trkpt><trkpt lat="45.3143634" lon="8.1900811"><ele>166.5</ele><time>2026-03-29T12:38:03.109Z</time></trkpt><trkpt lat="45.3143275" lon="8.1899109"><ele>166.75</ele><time>2026-03-29T12:38:04.127Z</time></trkpt><trkpt lat="45.3142922" lon="8.1897342"><ele>167.0</ele><time>2026-03-29T12:38:05.133Z</time></trkpt><trkpt lat="45.3142561" lon="8.1895542"><ele>167.0</ele><time>2026-03-29T12:38:06.115Z</time></trkpt><trkpt lat="45.3142197" lon="8.1893745"><ele>167.0</ele><time>2026-03-29T12:38:07.115Z</time></trkpt><trkpt lat="45.3141844" lon="8.1891964"><ele>167.0</ele><time>2026-03-29T12:38:08.113Z</time></trkpt><trkpt lat="45.3141447" lon="8.189017"><ele>167.0</ele><time>2026-03-29T12:38:09.144Z</time></trkpt><trkpt lat="45.3141091" lon="8.1888432"><ele>167.25</ele><time>2026-03-29T12:38:10.126Z</time></trkpt><trkpt lat="45.3140702" lon="8.1886659"><ele>167.5</ele><time>2026-03-29T12:38:11.125Z</time></trkpt><trkpt lat="45.314033" lon="8.1885014"><ele>167.75</ele><time>2026-03-29T12:38:12.14Z</time></trkpt><trkpt lat="45.3139992" lon="8.1883487"><ele>168.0</ele><time>2026-03-29T12:38:13.141Z</time></trkpt><trkpt lat="45.3139699" lon="8.1882174"><ele>168.0</ele><time>2026-03-29T12:38:14.119Z</time></trkpt><trkpt lat="45.3139442" lon="8.188103"><ele>168.0</ele><time>2026-03-29T12:38:15.143Z</time></trkpt><trkpt lat="45.3139215" lon="8.1880085"><ele>168.0</ele><time>2026-03-29T12:38:16.13Z</time></trkpt><trkpt lat="45.3138957" lon="8.1878672"><ele>168.0</ele><time>2026-03-29T12:38:18.16Z</time></trkpt><trkpt lat="45.3139099" lon="8.1877772"><ele>168.0</ele><time>2026-03-29T12:38:20.118Z</time></trkpt><trkpt lat="45.3139758" lon="8.1877316"><ele>168.0</ele><time>2026-03-29T12:38:22.129Z</time></trkpt><trkpt lat="45.3141084" lon="8.1877287"><ele>168.0</ele><time>2026-03-29T12:38:24.125Z</time></trkpt><trkpt lat="45.3141975" lon="8.1877318"><ele>168.0</ele><time>2026-03-29T12:38:25.12Z</time></trkpt><trkpt lat="45.3143049" lon="8.1877147"><ele>168.0</ele><time>2026-03-29T12:38:26.12Z</time></trkpt><trkpt lat="45.3144297" lon="8.1876848"><ele>168.0</ele><time>2026-03-29T12:38:27.113Z</time></trkpt><trkpt lat="45.3145418" lon="8.1876554"><ele>168.0</ele><time>2026-03-29T12:38:28.143Z</time></trkpt><trkpt lat="45.3146333" lon="8.1876324"><ele>168.0</ele><time>2026-03-29T12:38:29.121Z</time></trkpt><trkpt lat="45.3147115" lon="8.1876091"><ele>168.0</ele><time>2026-03-29T12:38:30.126Z</time></trkpt><trkpt lat="45.3147845" lon="8.1875708"><ele>168.0</ele><time>2026-03-29T12:38:31.131Z</time></trkpt><trkpt lat="45.3148423" lon="8.187522"><ele>168.0</ele><time>2026-03-29T12:38:32.128Z</time></trkpt><trkpt lat="45.3149366" lon="8.1874025"><ele>168.0</ele><time>2026-03-29T12:38:34.123Z</time></trkpt><trkpt lat="45.314983" lon="8.1873234"><ele>168.0</ele><time>2026-03-29T12:38:35.116Z</time></trkpt><trkpt lat="45.3150316" lon="8.1872549"><ele>168.2</ele><time>2026-03-29T12:38:36.136Z</time></trkpt><trkpt lat="45.3150752" lon="8.1871648"><ele>168.4</ele><time>2026-03-29T12:38:38.139Z</time></trkpt><trkpt lat="45.3150494" lon="8.1870476"><ele>168.6</ele><time>2026-03-29T12:38:41.125Z</time></trkpt><trkpt lat="45.3149586" lon="8.1869449"><ele>168.79999999999998</ele><time>2026-03-29T12:38:43.119Z</time></trkpt><trkpt lat="45.3148915" lon="8.1868608"><ele>169.0</ele><time>2026-03-29T12:38:44.117Z</time></trkpt><trkpt lat="45.3148175" lon="8.1867568"><ele>169.25</ele><time>2026-03-29T12:38:45.121Z</time></trkpt><trkpt lat="45.3147331" lon="8.186638"><ele>169.5</ele><time>2026-03-29T12:38:46.144Z</time></trkpt><trkpt lat="45.3146459" lon="8.1865181"><ele>169.75</ele><time>2026-03-29T12:38:47.104Z</time></trkpt><trkpt lat="45.3145564" lon="8.1864049"><ele>170.0</ele><time>2026-03-29T12:38:48.12Z</time></trkpt><trkpt lat="45.3144683" lon="8.186295"><ele>170.0</ele><time>2026-03-29T12:38:49.129Z</time></trkpt><trkpt lat="45.3143795" lon="8.1861923"><ele>170.0</ele><time>2026-03-29T12:38:50.123Z</time></trkpt><trkpt lat="45.3142884" lon="8.1860888"><ele>170.0</ele><time>2026-03-29T12:38:51.12Z</time></trkpt><trkpt lat="45.3141991" lon="8.1859877"><ele>170.0</ele><time>2026-03-29T12:38:52.124Z</time></trkpt><trkpt lat="45.3141095" lon="8.1858891"><ele>170.0</ele><time>2026-03-29T12:38:53.15Z</time></trkpt><trkpt lat="45.314024" lon="8.1858003"><ele>170.0</ele><time>2026-03-29T12:38:54.119Z</time></trkpt><trkpt lat="45.3139406" lon="8.1857071"><ele>170.0</ele><time>2026-03-29T12:38:55.128Z</time></trkpt><trkpt lat="45.313857" lon="8.1856013"><ele>170.0</ele><time>2026-03-29T12:38:56.137Z</time></trkpt><trkpt lat="45.3137675" lon="8.1854858"><ele>170.0</ele><time>2026-03-29T12:38:57.122Z</time></trkpt><trkpt lat="45.3136769" lon="8.1853677"><ele>169.5</ele><time>2026-03-29T12:38:58.118Z</time></trkpt><trkpt lat="45.3135864" lon="8.1852445"><ele>169.0</ele><time>2026-03-29T12:38:59.132Z</time></trkpt><trkpt lat="45.3134983" lon="8.185127"><ele>168.5</ele><time>2026-03-29T12:39:00.121Z</time></trkpt><trkpt lat="45.3134066" lon="8.185005"><ele>168.0</ele><time>2026-03-29T12:39:01.132Z</time></trkpt><trkpt lat="45.3133192" lon="8.1848943"><ele>168.0</ele><time>2026-03-29T12:39:02.13Z</time></trkpt><trkpt lat="45.3132424" lon="8.1847927"><ele>168.0</ele><time>2026-03-29T12:39:03.129Z</time></trkpt><trkpt lat="45.3131781" lon="8.1847059"><ele>168.0</ele><time>2026-03-29T12:39:04.122Z</time></trkpt><trkpt lat="45.3131131" lon="8.1846275"><ele>168.0</ele><time>2026-03-29T12:39:05.15Z</time></trkpt><trkpt lat="45.3130558" lon="8.1845678"><ele>168.0</ele><time>2026-03-29T12:39:06.136Z</time></trkpt><trkpt lat="45.3130083" lon="8.1845046"><ele>168.0</ele><time>2026-03-29T12:39:07.123Z</time></trkpt><trkpt lat="45.312962" lon="8.1844303"><ele>168.0</ele><time>2026-03-29T12:39:08.129Z</time></trkpt><trkpt lat="45.3129169" lon="8.1843443"><ele>168.0</ele><time>2026-03-29T12:39:09.119Z</time></trkpt><trkpt lat="45.3128805" lon="8.1842414"><ele>168.0</ele><time>2026-03-29T12:39:10.116Z</time></trkpt><trkpt lat="45.3128501" lon="8.1841259"><ele>168.0</ele><time>2026-03-29T12:39:11.115Z</time></trkpt><trkpt lat="45.3128203" lon="8.1839814"><ele>168.0</ele><time>2026-03-29T12:39:12.138Z</time></trkpt><trkpt lat="45.3127903" lon="8.1838114"><ele>168.0</ele><time>2026-03-29T12:39:13.121Z</time></trkpt><trkpt lat="45.3127619" lon="8.1836397"><ele>168.0</ele><time>2026-03-29T12:39:14.117Z</time></trkpt><trkpt lat="45.3127342" lon="8.1834588"><ele>168.0</ele><time>2026-03-29T12:39:15.128Z</time></trkpt><trkpt lat="45.3127104" lon="8.1832738"><ele>168.0</ele><time>2026-03-29T12:39:16.128Z</time></trkpt><trkpt lat="45.3126822" lon="8.1830816"><ele>168.0</ele><time>2026-03-29T12:39:17.125Z</time></trkpt><trkpt lat="45.3126509" lon="8.1828883"><ele>168.0</ele><time>2026-03-29T12:39:18.124Z</time></trkpt><trkpt lat="45.3126218" lon="8.1826943"><ele>168.0</ele><time>2026-03-29T12:39:19.131Z</time></trkpt><trkpt lat="45.3125889" lon="8.1824979"><ele>168.0</ele><time>2026-03-29T12:39:20.121Z</time></trkpt><trkpt lat="45.3125525" lon="8.1822984"><ele>168.25</ele><time>2026-03-29T12:39:21.121Z</time></trkpt><trkpt lat="45.3125205" lon="8.1820951"><ele>168.5</ele><time>2026-03-29T12:39:22.117Z</time></trkpt><trkpt lat="45.3124882" lon="8.1818885"><ele>168.75</ele><time>2026-03-29T12:39:23.121Z</time></trkpt><trkpt lat="45.3124601" lon="8.1816819"><ele>169.0</ele><time>2026-03-29T12:39:24.119Z</time></trkpt><trkpt lat="45.3124289" lon="8.1814731"><ele>169.0</ele><time>2026-03-29T12:39:25.129Z</time></trkpt><trkpt lat="45.3123987" lon="8.1812739"><ele>169.0</ele><time>2026-03-29T12:39:26.132Z</time></trkpt><trkpt lat="45.3123664" lon="8.1810765"><ele>169.0</ele><time>2026-03-29T12:39:27.141Z</time></trkpt><trkpt lat="45.312338" lon="8.1808698"><ele>169.0</ele><time>2026-03-29T12:39:28.123Z</time></trkpt><trkpt lat="45.3123057" lon="8.1806674"><ele>169.0</ele><time>2026-03-29T12:39:29.156Z</time></trkpt><trkpt lat="45.312275" lon="8.1804616"><ele>169.0</ele><time>2026-03-29T12:39:30.122Z</time></trkpt><trkpt lat="45.312242" lon="8.1802587"><ele>169.0</ele><time>2026-03-29T12:39:31.128Z</time></trkpt><trkpt lat="45.3122085" lon="8.180055"><ele>169.0</ele><time>2026-03-29T12:39:32.129Z</time></trkpt><trkpt lat="45.3121761" lon="8.1798502"><ele>169.0</ele><time>2026-03-29T12:39:33.135Z</time></trkpt><trkpt lat="45.3121457" lon="8.1796349"><ele>169.0</ele><time>2026-03-29T12:39:34.123Z</time></trkpt><trkpt lat="45.3121137" lon="8.1794299"><ele>169.0</ele><time>2026-03-29T12:39:35.127Z</time></trkpt><trkpt lat="45.3120808" lon="8.1792218"><ele>169.0</ele><time>2026-03-29T12:39:36.127Z</time></trkpt><trkpt lat="45.3120456" lon="8.1790171"><ele>169.0</ele><time>2026-03-29T12:39:37.123Z</time></trkpt><trkpt lat="45.3120138" lon="8.1788086"><ele>169.0</ele><time>2026-03-29T12:39:38.128Z</time></trkpt><trkpt lat="45.3119798" lon="8.1786012"><ele>169.0</ele><time>2026-03-29T12:39:39.125Z</time></trkpt><trkpt lat="45.3119491" lon="8.1783876"><ele>168.66666666666669</ele><time>2026-03-29T12:39:40.127Z</time></trkpt><trkpt lat="45.3119173" lon="8.1781742"><ele>168.33333333333334</ele><time>2026-03-29T12:39:41.131Z</time></trkpt><trkpt lat="45.311883" lon="8.1779648"><ele>168.0</ele><time>2026-03-29T12:39:42.136Z</time></trkpt><trkpt lat="45.3118498" lon="8.177753"><ele>168.0</ele><time>2026-03-29T12:39:43.12Z</time></trkpt><trkpt lat="45.3118193" lon="8.1775403"><ele>168.0</ele><time>2026-03-29T12:39:44.129Z</time></trkpt><trkpt lat="45.3117895" lon="8.1773288"><ele>168.0</ele><time>2026-03-29T12:39:45.13Z</time></trkpt><trkpt lat="45.3117563" lon="8.1771204"><ele>168.0</ele><time>2026-03-29T12:39:46.127Z</time></trkpt><trkpt lat="45.3117252" lon="8.1769097"><ele>168.0</ele><time>2026-03-29T12:39:47.138Z</time></trkpt><trkpt lat="45.3116949" lon="8.1767042"><ele>168.0</ele><time>2026-03-29T12:39:48.122Z</time></trkpt><trkpt lat="45.3116643" lon="8.1764992"><ele>168.0</ele><time>2026-03-29T12:39:49.119Z</time></trkpt><trkpt lat="45.3116343" lon="8.1762927"><ele>168.0</ele><time>2026-03-29T12:39:50.124Z</time></trkpt><trkpt lat="45.3116002" lon="8.1760857"><ele>168.0</ele><time>2026-03-29T12:39:51.133Z</time></trkpt><trkpt lat="45.3115644" lon="8.1758706"><ele>168.0</ele><time>2026-03-29T12:39:52.14Z</time></trkpt><trkpt lat="45.3115335" lon="8.1756546"><ele>168.25</ele><time>2026-03-29T12:39:53.119Z</time></trkpt><trkpt lat="45.3114996" lon="8.1754453"><ele>168.5</ele><time>2026-03-29T12:39:54.116Z</time></trkpt><trkpt lat="45.3114673" lon="8.1752391"><ele>168.75</ele><time>2026-03-29T12:39:55.136Z</time></trkpt><trkpt lat="45.3114372" lon="8.1750367"><ele>169.0</ele><time>2026-03-29T12:39:56.131Z</time></trkpt><trkpt lat="45.3114067" lon="8.1748324"><ele>169.0</ele><time>2026-03-29T12:39:57.113Z</time></trkpt><trkpt lat="45.3113788" lon="8.1746358"><ele>169.0</ele><time>2026-03-29T12:39:58.118Z</time></trkpt><trkpt lat="45.3113506" lon="8.1744472"><ele>169.0</ele><time>2026-03-29T12:39:59.117Z</time></trkpt><trkpt lat="45.3113205" lon="8.1742611"><ele>169.0</ele><time>2026-03-29T12:40:00.116Z</time></trkpt><trkpt lat="45.3112896" lon="8.1740729"><ele>169.5</ele><time>2026-03-29T12:40:01.121Z</time></trkpt><trkpt lat="45.3112584" lon="8.1738927"><ele>170.0</ele><time>2026-03-29T12:40:02.117Z</time></trkpt><trkpt lat="45.3112285" lon="8.1737201"><ele>170.5</ele><time>2026-03-29T12:40:03.123Z</time></trkpt><trkpt lat="45.3111978" lon="8.1735566"><ele>171.0</ele><time>2026-03-29T12:40:04.127Z</time></trkpt><trkpt lat="45.3111624" lon="8.1733913"><ele>171.0</ele><time>2026-03-29T12:40:05.123Z</time></trkpt><trkpt lat="45.3111266" lon="8.1732157"><ele>171.0</ele><time>2026-03-29T12:40:06.124Z</time></trkpt><trkpt lat="45.3110845" lon="8.173015"><ele>171.0</ele><time>2026-03-29T12:40:07.119Z</time></trkpt><trkpt lat="45.3110449" lon="8.1728148"><ele>171.0</ele><time>2026-03-29T12:40:08.142Z</time></trkpt><trkpt lat="45.3110038" lon="8.1726079"><ele>171.5</ele><time>2026-03-29T12:40:09.118Z</time></trkpt><trkpt lat="45.3109618" lon="8.1723999"><ele>172.0</ele><time>2026-03-29T12:40:10.132Z</time></trkpt><trkpt lat="45.3109279" lon="8.1721954"><ele>172.5</ele><time>2026-03-29T12:40:11.105Z</time></trkpt><trkpt lat="45.3108878" lon="8.1720045"><ele>173.0</ele><time>2026-03-29T12:40:12.131Z</time></trkpt><trkpt lat="45.3108518" lon="8.1718219"><ele>173.0</ele><time>2026-03-29T12:40:13.112Z</time></trkpt><trkpt lat="45.3108176" lon="8.1716531"><ele>173.0</ele><time>2026-03-29T12:40:14.123Z</time></trkpt><trkpt lat="45.3107844" lon="8.1714914"><ele>173.0</ele><time>2026-03-29T12:40:15.123Z</time></trkpt><trkpt lat="45.3107573" lon="8.1713616"><ele>173.0</ele><time>2026-03-29T12:40:16.106Z</time></trkpt><trkpt lat="45.3107376" lon="8.171265"><ele>173.0</ele><time>2026-03-29T12:40:17.116Z</time></trkpt><trkpt lat="45.3107186" lon="8.1711302"><ele>173.0</ele><time>2026-03-29T12:40:19.116Z</time></trkpt><trkpt lat="45.3106644" lon="8.1710638"><ele>173.0</ele><time>2026-03-29T12:40:22.113Z</time></trkpt><trkpt lat="45.3105572" lon="8.1710658"><ele>173.0</ele><time>2026-03-29T12:40:24.131Z</time></trkpt><trkpt lat="45.3104934" lon="8.1710984"><ele>173.0</ele><time>2026-03-29T12:40:25.131Z</time></trkpt><trkpt lat="45.3104308" lon="8.1711609"><ele>173.0</ele><time>2026-03-29T12:40:26.131Z</time></trkpt><trkpt lat="45.3103756" lon="8.1712258"><ele>173.0</ele><time>2026-03-29T12:40:27.122Z</time></trkpt><trkpt lat="45.3103237" lon="8.1713011"><ele>172.8</ele><time>2026-03-29T12:40:28.144Z</time></trkpt><trkpt lat="45.3102688" lon="8.1713911"><ele>172.60000000000002</ele><time>2026-03-29T12:40:29.119Z</time></trkpt><trkpt lat="45.3102059" lon="8.1715003"><ele>172.39999999999998</ele><time>2026-03-29T12:40:30.121Z</time></trkpt><trkpt lat="45.3101377" lon="8.1716191"><ele>172.2</ele><time>2026-03-29T12:40:31.12Z</time></trkpt><trkpt lat="45.3100629" lon="8.1717379"><ele>172.0</ele><time>2026-03-29T12:40:32.118Z</time></trkpt><trkpt lat="45.3099837" lon="8.1718558"><ele>172.0</ele><time>2026-03-29T12:40:33.111Z</time></trkpt><trkpt lat="45.3098935" lon="8.1719663"><ele>172.0</ele><time>2026-03-29T12:40:34.118Z</time></trkpt><trkpt lat="45.3098029" lon="8.1720827"><ele>172.0</ele><time>2026-03-29T12:40:35.126Z</time></trkpt><trkpt lat="45.3097029" lon="8.1721974"><ele>172.0</ele><time>2026-03-29T12:40:36.121Z</time></trkpt><trkpt lat="45.3096013" lon="8.1723269"><ele>171.25</ele><time>2026-03-29T12:40:37.143Z</time></trkpt><trkpt lat="45.3094968" lon="8.1724621"><ele>170.5</ele><time>2026-03-29T12:40:38.114Z</time></trkpt><trkpt lat="45.3093966" lon="8.1725915"><ele>169.75</ele><time>2026-03-29T12:40:39.116Z</time></trkpt><trkpt lat="45.3093" lon="8.1727242"><ele>169.0</ele><time>2026-03-29T12:40:40.126Z</time></trkpt><trkpt lat="45.3092028" lon="8.1728532"><ele>169.0</ele><time>2026-03-29T12:40:41.127Z</time></trkpt><trkpt lat="45.3091081" lon="8.1729717"><ele>169.0</ele><time>2026-03-29T12:40:42.115Z</time></trkpt><trkpt lat="45.3090119" lon="8.1730937"><ele>169.0</ele><time>2026-03-29T12:40:43.117Z</time></trkpt><trkpt lat="45.308912" lon="8.1732161"><ele>169.0</ele><time>2026-03-29T12:40:44.123Z</time></trkpt><trkpt lat="45.3088109" lon="8.1733408"><ele>169.0</ele><time>2026-03-29T12:40:45.125Z</time></trkpt><trkpt lat="45.3087042" lon="8.1734729"><ele>169.0</ele><time>2026-03-29T12:40:46.132Z</time></trkpt><trkpt lat="45.3086053" lon="8.1735973"><ele>169.0</ele><time>2026-03-29T12:40:47.116Z</time></trkpt><trkpt lat="45.308516" lon="8.1737148"><ele>169.0</ele><time>2026-03-29T12:40:48.123Z</time></trkpt><trkpt lat="45.3084267" lon="8.173828"><ele>169.0</ele><time>2026-03-29T12:40:49.112Z</time></trkpt><trkpt lat="45.3083359" lon="8.1739446"><ele>169.0</ele><time>2026-03-29T12:40:50.114Z</time></trkpt><trkpt lat="45.3082425" lon="8.1740578"><ele>169.0</ele><time>2026-03-29T12:40:51.127Z</time></trkpt><trkpt lat="45.3081514" lon="8.1741745"><ele>169.0</ele><time>2026-03-29T12:40:52.122Z</time></trkpt><trkpt lat="45.3080553" lon="8.1742906"><ele>169.25</ele><time>2026-03-29T12:40:53.113Z</time></trkpt><trkpt lat="45.3079588" lon="8.174411"><ele>169.5</ele><time>2026-03-29T12:40:54.118Z</time></trkpt><trkpt lat="45.307869" lon="8.1745311"><ele>169.75</ele><time>2026-03-29T12:40:55.128Z</time></trkpt><trkpt lat="45.3077808" lon="8.1746465"><ele>170.0</ele><time>2026-03-29T12:40:56.147Z</time></trkpt><trkpt lat="45.3076925" lon="8.1747559"><ele>170.0</ele><time>2026-03-29T12:40:57.121Z</time></trkpt><trkpt lat="45.3076056" lon="8.1748665"><ele>170.0</ele><time>2026-03-29T12:40:58.13Z</time></trkpt><trkpt lat="45.3075203" lon="8.1749778"><ele>170.0</ele><time>2026-03-29T12:40:59.116Z</time></trkpt><trkpt lat="45.3074382" lon="8.1750846"><ele>170.0</ele><time>2026-03-29T12:41:00.128Z</time></trkpt><trkpt lat="45.3073618" lon="8.1751824"><ele>170.0</ele><time>2026-03-29T12:41:01.126Z</time></trkpt><trkpt lat="45.3072897" lon="8.1752766"><ele>169.83333333333331</ele><time>2026-03-29T12:41:02.126Z</time></trkpt><trkpt lat="45.3072253" lon="8.1753622"><ele>169.66666666666666</ele><time>2026-03-29T12:41:03.123Z</time></trkpt><trkpt lat="45.3071626" lon="8.1754421"><ele>169.5</ele><time>2026-03-29T12:41:04.132Z</time></trkpt><trkpt lat="45.3071076" lon="8.1755116"><ele>169.33333333333334</ele><time>2026-03-29T12:41:05.129Z</time></trkpt><trkpt lat="45.3070602" lon="8.1755747"><ele>169.16666666666669</ele><time>2026-03-29T12:41:06.118Z</time></trkpt><trkpt lat="45.3069726" lon="8.1756877"><ele>169.0</ele><time>2026-03-29T12:41:08.119Z</time></trkpt><trkpt lat="45.3068915" lon="8.1757876"><ele>169.0</ele><time>2026-03-29T12:41:10.115Z</time></trkpt><trkpt lat="45.3068085" lon="8.1758931"><ele>169.0</ele><time>2026-03-29T12:41:12.12Z</time></trkpt><trkpt lat="45.3067586" lon="8.1759609"><ele>169.0</ele><time>2026-03-29T12:41:13.121Z</time></trkpt><trkpt lat="45.3067008" lon="8.1760321"><ele>169.0</ele><time>2026-03-29T12:41:14.122Z</time></trkpt><trkpt lat="45.3066449" lon="8.1760997"><ele>169.0</ele><time>2026-03-29T12:41:15.117Z</time></trkpt><trkpt lat="45.306588" lon="8.1761629"><ele>169.0</ele><time>2026-03-29T12:41:16.14Z</time></trkpt><trkpt lat="45.3065348" lon="8.1762244"><ele>169.0</ele><time>2026-03-29T12:41:17.125Z</time></trkpt><trkpt lat="45.3064811" lon="8.1762863"><ele>169.0</ele><time>2026-03-29T12:41:18.146Z</time></trkpt><trkpt lat="45.3064054" lon="8.1763785"><ele>169.0</ele><time>2026-03-29T12:41:20.126Z</time></trkpt><trkpt lat="45.3063166" lon="8.1763906"><ele>169.0</ele><time>2026-03-29T12:41:23.121Z</time></trkpt><trkpt lat="45.306231" lon="8.1762754"><ele>169.0</ele><time>2026-03-29T12:41:25.125Z</time></trkpt><trkpt lat="45.3061737" lon="8.1761704"><ele>169.0</ele><time>2026-03-29T12:41:26.128Z</time></trkpt><trkpt lat="45.3061085" lon="8.1760573"><ele>169.0</ele><time>2026-03-29T12:41:27.107Z</time></trkpt><trkpt lat="45.3060356" lon="8.1759314"><ele>169.0</ele><time>2026-03-29T12:41:28.116Z</time></trkpt><trkpt lat="45.305937" lon="8.1757919"><ele>169.0</ele><time>2026-03-29T12:41:29.133Z</time></trkpt><trkpt lat="45.3058308" lon="8.1756375"><ele>169.0</ele><time>2026-03-29T12:41:30.12Z</time></trkpt><trkpt lat="45.3057353" lon="8.1755124"><ele>169.0</ele><time>2026-03-29T12:41:31.119Z</time></trkpt><trkpt lat="45.3056647" lon="8.1754146"><ele>169.0</ele><time>2026-03-29T12:41:32.116Z</time></trkpt><trkpt lat="45.3055853" lon="8.1753105"><ele>169.0</ele><time>2026-03-29T12:41:33.109Z</time></trkpt><trkpt lat="45.3054927" lon="8.1752002"><ele>169.0</ele><time>2026-03-29T12:41:34.12Z</time></trkpt><trkpt lat="45.3053855" lon="8.1750695"><ele>169.0</ele><time>2026-03-29T12:41:35.111Z</time></trkpt><trkpt lat="45.3052866" lon="8.1749499"><ele>169.0</ele><time>2026-03-29T12:41:36.124Z</time></trkpt><trkpt lat="45.3051959" lon="8.1748496"><ele>169.0</ele><time>2026-03-29T12:41:37.127Z</time></trkpt><trkpt lat="45.3051124" lon="8.1747506"><ele>169.0</ele><time>2026-03-29T12:41:38.121Z</time></trkpt><trkpt lat="45.3050242" lon="8.1746525"><ele>169.0</ele><time>2026-03-29T12:41:39.125Z</time></trkpt><trkpt lat="45.3049418" lon="8.1745561"><ele>169.0</ele><time>2026-03-29T12:41:40.15Z</time></trkpt><trkpt lat="45.3048632" lon="8.1744576"><ele>169.0</ele><time>2026-03-29T12:41:41.127Z</time></trkpt><trkpt lat="45.3047775" lon="8.1743494"><ele>169.0</ele><time>2026-03-29T12:41:42.105Z</time></trkpt><trkpt lat="45.3046846" lon="8.1742359"><ele>168.79999999999998</ele><time>2026-03-29T12:41:43.119Z</time></trkpt><trkpt lat="45.3046023" lon="8.1741315"><ele>168.6</ele><time>2026-03-29T12:41:44.113Z</time></trkpt><trkpt lat="45.3045253" lon="8.1740365"><ele>168.4</ele><time>2026-03-29T12:41:45.12Z</time></trkpt><trkpt lat="45.3044497" lon="8.1739446"><ele>168.2</ele><time>2026-03-29T12:41:46.153Z</time></trkpt><trkpt lat="45.3043726" lon="8.1738548"><ele>168.0</ele><time>2026-03-29T12:41:47.118Z</time></trkpt><trkpt lat="45.3042943" lon="8.1737657"><ele>168.0</ele><time>2026-03-29T12:41:48.12Z</time></trkpt><trkpt lat="45.304232" lon="8.1736822"><ele>168.0</ele><time>2026-03-29T12:41:49.113Z</time></trkpt><trkpt lat="45.3041723" lon="8.1736079"><ele>168.0</ele><time>2026-03-29T12:41:50.119Z</time></trkpt><trkpt lat="45.3041142" lon="8.1735361"><ele>168.0</ele><time>2026-03-29T12:41:51.126Z</time></trkpt><trkpt lat="45.3040602" lon="8.1734722"><ele>168.0</ele><time>2026-03-29T12:41:52.121Z</time></trkpt><trkpt lat="45.304012" lon="8.1734144"><ele>168.0</ele><time>2026-03-29T12:41:53.135Z</time></trkpt><trkpt lat="45.3039286" lon="8.1733137"><ele>167.8</ele><time>2026-03-29T12:41:55.109Z</time></trkpt><trkpt lat="45.3038817" lon="8.1732504"><ele>167.60000000000002</ele><time>2026-03-29T12:41:57.124Z</time></trkpt><trkpt lat="45.3038391" lon="8.1731671"><ele>167.39999999999998</ele><time>2026-03-29T12:42:00.113Z</time></trkpt><trkpt lat="45.3037845" lon="8.1730655"><ele>167.2</ele><time>2026-03-29T12:42:02.133Z</time></trkpt><trkpt lat="45.303702" lon="8.1729479"><ele>167.0</ele><time>2026-03-29T12:42:04.136Z</time></trkpt><trkpt lat="45.3036162" lon="8.1728541"><ele>166.8</ele><time>2026-03-29T12:42:06.132Z</time></trkpt><trkpt lat="45.3035422" lon="8.1727566"><ele>166.6</ele><time>2026-03-29T12:42:08.131Z</time></trkpt><trkpt lat="45.3034669" lon="8.1726569"><ele>166.4</ele><time>2026-03-29T12:42:10.134Z</time></trkpt><trkpt lat="45.3033953" lon="8.1725609"><ele>166.20000000000002</ele><time>2026-03-29T12:42:12.132Z</time></trkpt><trkpt lat="45.3033355" lon="8.1725252"><ele>166.0</ele><time>2026-03-29T12:42:14.116Z</time></trkpt><trkpt lat="45.3032523" lon="8.1724914"><ele>166.0</ele><time>2026-03-29T12:42:16.123Z</time></trkpt><trkpt lat="45.3031449" lon="8.1723899"><ele>166.0</ele><time>2026-03-29T12:42:18.11Z</time></trkpt><trkpt lat="45.3030689" lon="8.1723152"><ele>166.0</ele><time>2026-03-29T12:42:19.109Z</time></trkpt><trkpt lat="45.3029986" lon="8.1722525"><ele>166.0</ele><time>2026-03-29T12:42:20.131Z</time></trkpt><trkpt lat="45.3029325" lon="8.1721841"><ele>166.0</ele><time>2026-03-29T12:42:21.136Z</time></trkpt><trkpt lat="45.3028564" lon="8.1720963"><ele>166.33333333333334</ele><time>2026-03-29T12:42:22.133Z</time></trkpt><trkpt lat="45.3027854" lon="8.1720142"><ele>166.66666666666669</ele><time>2026-03-29T12:42:23.136Z</time></trkpt><trkpt lat="45.3027228" lon="8.1719412"><ele>167.0</ele><time>2026-03-29T12:42:24.109Z</time></trkpt><trkpt lat="45.3026708" lon="8.1718788"><ele>167.33333333333334</ele><time>2026-03-29T12:42:25.126Z</time></trkpt><trkpt lat="45.3026219" lon="8.1718189"><ele>167.66666666666666</ele><time>2026-03-29T12:42:26.12Z</time></trkpt><trkpt lat="45.3025722" lon="8.171752"><ele>168.0</ele><time>2026-03-29T12:42:27.128Z</time></trkpt><trkpt lat="45.3024881" lon="8.1716491"><ele>168.0</ele><time>2026-03-29T12:42:29.132Z</time></trkpt><trkpt lat="45.3024414" lon="8.1715876"><ele>168.0</ele><time>2026-03-29T12:42:30.112Z</time></trkpt><trkpt lat="45.302396" lon="8.1715184"><ele>168.0</ele><time>2026-03-29T12:42:31.134Z</time></trkpt><trkpt lat="45.3023372" lon="8.171441"><ele>168.0</ele><time>2026-03-29T12:42:32.125Z</time></trkpt><trkpt lat="45.3022675" lon="8.171355"><ele>168.0</ele><time>2026-03-29T12:42:33.118Z</time></trkpt><trkpt lat="45.3021983" lon="8.1712712"><ele>168.0</ele><time>2026-03-29T12:42:34.132Z</time></trkpt><trkpt lat="45.3021278" lon="8.171185"><ele>167.83333333333334</ele><time>2026-03-29T12:42:35.128Z</time></trkpt><trkpt lat="45.302053" lon="8.1711078"><ele>167.66666666666666</ele><time>2026-03-29T12:42:36.107Z</time></trkpt><trkpt lat="45.3019891" lon="8.1710292"><ele>167.5</ele><time>2026-03-29T12:42:37.134Z</time></trkpt><trkpt lat="45.301934" lon="8.1709602"><ele>167.33333333333331</ele><time>2026-03-29T12:42:38.119Z</time></trkpt><trkpt lat="45.3018628" lon="8.170875"><ele>167.16666666666666</ele><time>2026-03-29T12:42:40.132Z</time></trkpt><trkpt lat="45.3018119" lon="8.1708221"><ele>167.0</ele><time>2026-03-29T12:43:21.117Z</time></trkpt><trkpt lat="45.3018879" lon="8.1709426"><ele>167.0</ele><time>2026-03-29T12:43:28.121Z</time></trkpt><trkpt lat="45.3019485" lon="8.1710169"><ele>167.0</ele><time>2026-03-29T12:43:29.118Z</time></trkpt><trkpt lat="45.3020147" lon="8.1710952"><ele>167.0</ele><time>2026-03-29T12:43:30.152Z</time></trkpt><trkpt lat="45.3020794" lon="8.1711691"><ele>167.0</ele><time>2026-03-29T12:43:31.147Z</time></trkpt><trkpt lat="45.3021397" lon="8.171241"><ele>167.0</ele><time>2026-03-29T12:43:32.148Z</time></trkpt><trkpt lat="45.3021959" lon="8.1713112"><ele>167.0</ele><time>2026-03-29T12:43:33.139Z</time></trkpt><trkpt lat="45.3022575" lon="8.1713789"><ele>167.0</ele><time>2026-03-29T12:43:34.13Z</time></trkpt><trkpt lat="45.3023169" lon="8.1714572"><ele>167.0</ele><time>2026-03-29T12:43:35.132Z</time></trkpt><trkpt lat="45.3023965" lon="8.1715638"><ele>167.0</ele><time>2026-03-29T12:43:37.132Z</time></trkpt><trkpt lat="45.3024906" lon="8.1716703"><ele>167.0</ele><time>2026-03-29T12:43:39.113Z</time></trkpt><trkpt lat="45.3025488" lon="8.1717394"><ele>167.0</ele><time>2026-03-29T12:43:40.13Z</time></trkpt><trkpt lat="45.3026222" lon="8.1718292"><ele>167.2</ele><time>2026-03-29T12:43:41.137Z</time></trkpt><trkpt lat="45.3027077" lon="8.1719278"><ele>167.39999999999998</ele><time>2026-03-29T12:43:42.15Z</time></trkpt><trkpt lat="45.3027814" lon="8.1720144"><ele>167.60000000000002</ele><time>2026-03-29T12:43:43.12Z</time></trkpt><trkpt lat="45.3028488" lon="8.1720949"><ele>167.8</ele><time>2026-03-29T12:43:44.117Z</time></trkpt><trkpt lat="45.3029179" lon="8.1721724"><ele>168.0</ele><time>2026-03-29T12:43:45.126Z</time></trkpt><trkpt lat="45.3029843" lon="8.1722423"><ele>168.0</ele><time>2026-03-29T12:43:46.127Z</time></trkpt><trkpt lat="45.3030333" lon="8.1722991"><ele>168.0</ele><time>2026-03-29T12:43:47.124Z</time></trkpt><trkpt lat="45.3031263" lon="8.1723843"><ele>168.0</ele><time>2026-03-29T12:44:16.125Z</time></trkpt><trkpt lat="45.3031802" lon="8.1724508"><ele>168.0</ele><time>2026-03-29T12:44:17.135Z</time></trkpt><trkpt lat="45.3032538" lon="8.1725221"><ele>168.0</ele><time>2026-03-29T12:44:19.13Z</time></trkpt><trkpt lat="45.3033544" lon="8.17257"><ele>168.0</ele><time>2026-03-29T12:44:22.144Z</time></trkpt><trkpt lat="45.3034252" lon="8.1726411"><ele>167.66666666666666</ele><time>2026-03-29T12:44:25.127Z</time></trkpt><trkpt lat="45.3035079" lon="8.1727375"><ele>167.33333333333334</ele><time>2026-03-29T12:44:27.135Z</time></trkpt><trkpt lat="45.3035545" lon="8.1728006"><ele>167.0</ele><time>2026-03-29T12:44:28.123Z</time></trkpt><trkpt lat="45.3036456" lon="8.1729176"><ele>166.66666666666669</ele><time>2026-03-29T12:44:30.125Z</time></trkpt><trkpt lat="45.3036964" lon="8.1729761"><ele>166.33333333333334</ele><time>2026-03-29T12:44:31.142Z</time></trkpt><trkpt lat="45.3037481" lon="8.173035"><ele>166.0</ele><time>2026-03-29T12:44:32.125Z</time></trkpt><trkpt lat="45.3038322" lon="8.1731681"><ele>166.16666666666669</ele><time>2026-03-29T12:44:34.124Z</time></trkpt><trkpt lat="45.3038713" lon="8.1732558"><ele>166.33333333333334</ele><time>2026-03-29T12:44:35.129Z</time></trkpt><trkpt lat="45.3039272" lon="8.1733229"><ele>166.5</ele><time>2026-03-29T12:44:36.135Z</time></trkpt><trkpt lat="45.3039944" lon="8.1733939"><ele>166.66666666666666</ele><time>2026-03-29T12:44:37.117Z</time></trkpt><trkpt lat="45.3040617" lon="8.1734707"><ele>166.83333333333331</ele><time>2026-03-29T12:44:38.115Z</time></trkpt><trkpt lat="45.3041394" lon="8.1735656"><ele>167.0</ele><time>2026-03-29T12:44:39.125Z</time></trkpt><trkpt lat="45.304235" lon="8.1736905"><ele>167.25</ele><time>2026-03-29T12:44:40.126Z</time></trkpt><trkpt lat="45.3043347" lon="8.1738123"><ele>167.5</ele><time>2026-03-29T12:44:41.139Z</time></trkpt><trkpt lat="45.3044285" lon="8.1739176"><ele>167.75</ele><time>2026-03-29T12:44:42.131Z</time></trkpt><trkpt lat="45.3045103" lon="8.1740094"><ele>168.0</ele><time>2026-03-29T12:44:43.122Z</time></trkpt><trkpt lat="45.3045861" lon="8.1741005"><ele>168.0</ele><time>2026-03-29T12:44:44.121Z</time></trkpt><trkpt lat="45.3046614" lon="8.1741985"><ele>168.0</ele><time>2026-03-29T12:44:45.121Z</time></trkpt><trkpt lat="45.3047409" lon="8.174302"><ele>168.0</ele><time>2026-03-29T12:44:46.126Z</time></trkpt><trkpt lat="45.3048215" lon="8.1743998"><ele>168.0</ele><time>2026-03-29T12:44:47.125Z</time></trkpt><trkpt lat="45.3048877" lon="8.1744906"><ele>168.0</ele><time>2026-03-29T12:44:48.124Z</time></trkpt><trkpt lat="45.3049533" lon="8.1745535"><ele>168.16666666666666</ele><time>2026-03-29T12:44:49.122Z</time></trkpt><trkpt lat="45.3050363" lon="8.1746496"><ele>168.33333333333334</ele><time>2026-03-29T12:44:51.137Z</time></trkpt><trkpt lat="45.3050863" lon="8.1747265"><ele>168.5</ele><time>2026-03-29T12:45:41.116Z</time></trkpt><trkpt lat="45.3051444" lon="8.1748117"><ele>168.66666666666669</ele><time>2026-03-29T12:45:42.12Z</time></trkpt><trkpt lat="45.3052163" lon="8.1748951"><ele>168.83333333333334</ele><time>2026-03-29T12:45:43.17Z</time></trkpt><trkpt lat="45.3052856" lon="8.1749747"><ele>169.0</ele><time>2026-03-29T12:45:44.124Z</time></trkpt><trkpt lat="45.3053472" lon="8.1750559"><ele>169.0</ele><time>2026-03-29T12:45:45.135Z</time></trkpt><trkpt lat="45.3054071" lon="8.1751274"><ele>169.0</ele><time>2026-03-29T12:45:46.115Z</time></trkpt><trkpt lat="45.3054629" lon="8.1752059"><ele>169.0</ele><time>2026-03-29T12:45:47.121Z</time></trkpt><trkpt lat="45.3055206" lon="8.1752736"><ele>169.0</ele><time>2026-03-29T12:45:48.118Z</time></trkpt><trkpt lat="45.3055753" lon="8.1753392"><ele>169.0</ele><time>2026-03-29T12:45:49.12Z</time></trkpt><trkpt lat="45.3056257" lon="8.1754067"><ele>169.0</ele><time>2026-03-29T12:45:50.121Z</time></trkpt><trkpt lat="45.3056855" lon="8.1754863"><ele>169.0</ele><time>2026-03-29T12:45:51.127Z</time></trkpt><trkpt lat="45.3057342" lon="8.1755545"><ele>169.0</ele><time>2026-03-29T12:45:52.138Z</time></trkpt><trkpt lat="45.3057868" lon="8.1756163"><ele>169.0</ele><time>2026-03-29T12:45:53.116Z</time></trkpt><trkpt lat="45.305857" lon="8.1757136"><ele>169.0</ele><time>2026-03-29T12:45:54.12Z</time></trkpt><trkpt lat="45.3059318" lon="8.1758116"><ele>169.0</ele><time>2026-03-29T12:45:55.123Z</time></trkpt><trkpt lat="45.3060017" lon="8.1759076"><ele>169.0</ele><time>2026-03-29T12:45:56.128Z</time></trkpt><trkpt lat="45.3060604" lon="8.1760005"><ele>169.0</ele><time>2026-03-29T12:45:57.12Z</time></trkpt><trkpt lat="45.3061178" lon="8.1760903"><ele>169.0</ele><time>2026-03-29T12:45:58.127Z</time></trkpt><trkpt lat="45.306169" lon="8.1761722"><ele>169.0</ele><time>2026-03-29T12:45:59.103Z</time></trkpt><trkpt lat="45.3062142" lon="8.1762594"><ele>169.0</ele><time>2026-03-29T12:46:00.105Z</time></trkpt><trkpt lat="45.3062575" lon="8.1763357"><ele>169.0</ele><time>2026-03-29T12:46:01.108Z</time></trkpt><trkpt lat="45.3063211" lon="8.1764264"><ele>169.0</ele><time>2026-03-29T12:46:03.105Z</time></trkpt><trkpt lat="45.3063032" lon="8.1765523"><ele>169.0</ele><time>2026-03-29T12:46:07.129Z</time></trkpt><trkpt lat="45.3062198" lon="8.1766712"><ele>169.0</ele><time>2026-03-29T12:46:09.12Z</time></trkpt><trkpt lat="45.306171" lon="8.1767427"><ele>169.0</ele><time>2026-03-29T12:46:10.11Z</time></trkpt><trkpt lat="45.3061094" lon="8.1768279"><ele>169.0</ele><time>2026-03-29T12:46:11.128Z</time></trkpt><trkpt lat="45.3060442" lon="8.1769085"><ele>169.0</ele><time>2026-03-29T12:46:12.121Z</time></trkpt><trkpt lat="45.3059857" lon="8.1769855"><ele>169.0</ele><time>2026-03-29T12:46:13.122Z</time></trkpt><trkpt lat="45.305928" lon="8.1770614"><ele>169.0</ele><time>2026-03-29T12:46:14.133Z</time></trkpt><trkpt lat="45.3058634" lon="8.1771459"><ele>169.0</ele><time>2026-03-29T12:46:15.117Z</time></trkpt><trkpt lat="45.3057874" lon="8.177247"><ele>169.0</ele><time>2026-03-29T12:46:16.147Z</time></trkpt><trkpt lat="45.3057055" lon="8.1773489"><ele>169.0</ele><time>2026-03-29T12:46:17.118Z</time></trkpt><trkpt lat="45.3056142" lon="8.1774626"><ele>169.0</ele><time>2026-03-29T12:46:18.13Z</time></trkpt><trkpt lat="45.3055197" lon="8.1775883"><ele>168.0</ele><time>2026-03-29T12:46:19.121Z</time></trkpt><trkpt lat="45.3054213" lon="8.1777131"><ele>167.0</ele><time>2026-03-29T12:46:20.122Z</time></trkpt><trkpt lat="45.3053187" lon="8.1778409"><ele>166.0</ele><time>2026-03-29T12:46:21.137Z</time></trkpt><trkpt lat="45.3052104" lon="8.1779794"><ele>165.0</ele><time>2026-03-29T12:46:22.125Z</time></trkpt><trkpt lat="45.3051004" lon="8.1781196"><ele>165.33333333333334</ele><time>2026-03-29T12:46:23.143Z</time></trkpt><trkpt lat="45.3049892" lon="8.1782591"><ele>165.66666666666669</ele><time>2026-03-29T12:46:24.13Z</time></trkpt><trkpt lat="45.3048726" lon="8.1784067"><ele>166.0</ele><time>2026-03-29T12:46:25.106Z</time></trkpt><trkpt lat="45.3047602" lon="8.1785517"><ele>166.33333333333334</ele><time>2026-03-29T12:46:26.113Z</time></trkpt><trkpt lat="45.3046468" lon="8.1786964"><ele>166.66666666666666</ele><time>2026-03-29T12:46:27.132Z</time></trkpt><trkpt lat="45.3045329" lon="8.1788473"><ele>167.0</ele><time>2026-03-29T12:46:28.122Z</time></trkpt><trkpt lat="45.3044161" lon="8.1789962"><ele>167.0</ele><time>2026-03-29T12:46:29.119Z</time></trkpt><trkpt lat="45.3043043" lon="8.1791403"><ele>167.0</ele><time>2026-03-29T12:46:30.126Z</time></trkpt><trkpt lat="45.3041978" lon="8.1792771"><ele>167.0</ele><time>2026-03-29T12:46:31.115Z</time></trkpt><trkpt lat="45.3040901" lon="8.179413"><ele>167.0</ele><time>2026-03-29T12:46:32.144Z</time></trkpt><trkpt lat="45.3039771" lon="8.1795545"><ele>167.0</ele><time>2026-03-29T12:46:33.104Z</time></trkpt><trkpt lat="45.3038653" lon="8.1796991"><ele>167.0</ele><time>2026-03-29T12:46:34.15Z</time></trkpt><trkpt lat="45.3037497" lon="8.1798471"><ele>167.0</ele><time>2026-03-29T12:46:35.123Z</time></trkpt><trkpt lat="45.3036278" lon="8.1800059"><ele>166.66666666666666</ele><time>2026-03-29T12:46:36.12Z</time></trkpt><trkpt lat="45.3035068" lon="8.1801567"><ele>166.33333333333334</ele><time>2026-03-29T12:46:37.139Z</time></trkpt><trkpt lat="45.3033837" lon="8.1803116"><ele>166.0</ele><time>2026-03-29T12:46:38.109Z</time></trkpt><trkpt lat="45.3032623" lon="8.180465"><ele>166.0</ele><time>2026-03-29T12:46:39.111Z</time></trkpt><trkpt lat="45.3031421" lon="8.1806201"><ele>166.0</ele><time>2026-03-29T12:46:40.118Z</time></trkpt><trkpt lat="45.3030206" lon="8.1807719"><ele>166.0</ele><time>2026-03-29T12:46:41.131Z</time></trkpt><trkpt lat="45.3028983" lon="8.1809292"><ele>165.66666666666669</ele><time>2026-03-29T12:46:42.115Z</time></trkpt><trkpt lat="45.3027724" lon="8.1810845"><ele>165.33333333333334</ele><time>2026-03-29T12:46:43.123Z</time></trkpt><trkpt lat="45.3026493" lon="8.1812413"><ele>165.0</ele><time>2026-03-29T12:46:44.137Z</time></trkpt><trkpt lat="45.3025253" lon="8.1813966"><ele>165.0</ele><time>2026-03-29T12:46:45.137Z</time></trkpt><trkpt lat="45.3024027" lon="8.1815537"><ele>165.0</ele><time>2026-03-29T12:46:46.15Z</time></trkpt><trkpt lat="45.3022798" lon="8.1817033"><ele>165.0</ele><time>2026-03-29T12:46:47.129Z</time></trkpt><trkpt lat="45.3021581" lon="8.181857"><ele>165.0</ele><time>2026-03-29T12:46:48.132Z</time></trkpt><trkpt lat="45.3020327" lon="8.1820115"><ele>165.0</ele><time>2026-03-29T12:46:49.112Z</time></trkpt><trkpt lat="45.3019069" lon="8.1821646"><ele>165.0</ele><time>2026-03-29T12:46:50.136Z</time></trkpt><trkpt lat="45.3017815" lon="8.1823234"><ele>164.66666666666666</ele><time>2026-03-29T12:46:51.139Z</time></trkpt><trkpt lat="45.3016552" lon="8.1824863"><ele>164.33333333333331</ele><time>2026-03-29T12:46:52.148Z</time></trkpt><trkpt lat="45.3015294" lon="8.1826509"><ele>164.0</ele><time>2026-03-29T12:46:53.124Z</time></trkpt><trkpt lat="45.3013985" lon="8.1828161"><ele>164.0</ele><time>2026-03-29T12:46:54.136Z</time></trkpt><trkpt lat="45.301269" lon="8.1829848"><ele>164.0</ele><time>2026-03-29T12:46:55.124Z</time></trkpt><trkpt lat="45.301134" lon="8.1831539"><ele>164.0</ele><time>2026-03-29T12:46:56.149Z</time></trkpt><trkpt lat="45.301003" lon="8.1833247"><ele>164.0</ele><time>2026-03-29T12:46:57.139Z</time></trkpt><trkpt lat="45.3008747" lon="8.1834925"><ele>164.0</ele><time>2026-03-29T12:46:58.135Z</time></trkpt><trkpt lat="45.3007458" lon="8.183666"><ele>164.0</ele><time>2026-03-29T12:46:59.125Z</time></trkpt><trkpt lat="45.3006139" lon="8.1838308"><ele>164.33333333333331</ele><time>2026-03-29T12:47:00.125Z</time></trkpt><trkpt lat="45.3004831" lon="8.1839965"><ele>164.66666666666666</ele><time>2026-03-29T12:47:01.111Z</time></trkpt><trkpt lat="45.3003542" lon="8.1841585"><ele>165.0</ele><time>2026-03-29T12:47:02.105Z</time></trkpt><trkpt lat="45.3002253" lon="8.1843243"><ele>165.33333333333334</ele><time>2026-03-29T12:47:03.125Z</time></trkpt><trkpt lat="45.3001003" lon="8.184491"><ele>165.66666666666669</ele><time>2026-03-29T12:47:04.147Z</time></trkpt><trkpt lat="45.2999702" lon="8.1846508"><ele>166.0</ele><time>2026-03-29T12:47:05.127Z</time></trkpt><trkpt lat="45.2998389" lon="8.1848145"><ele>166.0</ele><time>2026-03-29T12:47:06.131Z</time></trkpt><trkpt lat="45.2997056" lon="8.1849816"><ele>166.0</ele><time>2026-03-29T12:47:07.121Z</time></trkpt><trkpt lat="45.2995748" lon="8.1851467"><ele>166.0</ele><time>2026-03-29T12:47:08.127Z</time></trkpt><trkpt lat="45.2994443" lon="8.1853133"><ele>166.0</ele><time>2026-03-29T12:47:09.142Z</time></trkpt><trkpt lat="45.2993116" lon="8.1854832"><ele>166.0</ele><time>2026-03-29T12:47:10.133Z</time></trkpt><trkpt lat="45.2991809" lon="8.1856459"><ele>166.0</ele><time>2026-03-29T12:47:11.126Z</time></trkpt><trkpt lat="45.2990537" lon="8.1858039"><ele>165.33333333333334</ele><time>2026-03-29T12:47:12.123Z</time></trkpt><trkpt lat="45.2989333" lon="8.1859578"><ele>164.66666666666666</ele><time>2026-03-29T12:47:13.124Z</time></trkpt><trkpt lat="45.2988185" lon="8.1861089"><ele>164.0</ele><time>2026-03-29T12:47:14.153Z</time></trkpt><trkpt lat="45.298706" lon="8.1862519"><ele>164.0</ele><time>2026-03-29T12:47:15.119Z</time></trkpt><trkpt lat="45.2985918" lon="8.186401"><ele>164.0</ele><time>2026-03-29T12:47:16.123Z</time></trkpt><trkpt lat="45.2984744" lon="8.1865494"><ele>164.0</ele><time>2026-03-29T12:47:17.121Z</time></trkpt><trkpt lat="45.2983567" lon="8.1867023"><ele>164.0</ele><time>2026-03-29T12:47:18.136Z</time></trkpt><trkpt lat="45.2982396" lon="8.1868478"><ele>164.0</ele><time>2026-03-29T12:47:19.129Z</time></trkpt><trkpt lat="45.2981233" lon="8.1869922"><ele>164.0</ele><time>2026-03-29T12:47:20.115Z</time></trkpt><trkpt lat="45.2980097" lon="8.1871371"><ele>163.66666666666666</ele><time>2026-03-29T12:47:21.145Z</time></trkpt><trkpt lat="45.297896" lon="8.1872827"><ele>163.33333333333334</ele><time>2026-03-29T12:47:22.121Z</time></trkpt><trkpt lat="45.2977802" lon="8.1874309"><ele>163.0</ele><time>2026-03-29T12:47:23.117Z</time></trkpt><trkpt lat="45.2976704" lon="8.1875712"><ele>163.0</ele><time>2026-03-29T12:47:24.105Z</time></trkpt><trkpt lat="45.297556" lon="8.1877112"><ele>163.0</ele><time>2026-03-29T12:47:25.14Z</time></trkpt><trkpt lat="45.2974427" lon="8.1878559"><ele>163.0</ele><time>2026-03-29T12:47:26.11Z</time></trkpt><trkpt lat="45.2973284" lon="8.1879973"><ele>163.0</ele><time>2026-03-29T12:47:27.108Z</time></trkpt><trkpt lat="45.2972181" lon="8.1881401"><ele>163.0</ele><time>2026-03-29T12:47:28.108Z</time></trkpt><trkpt lat="45.2971074" lon="8.1882803"><ele>163.0</ele><time>2026-03-29T12:47:29.127Z</time></trkpt><trkpt lat="45.296998" lon="8.18842"><ele>163.0</ele><time>2026-03-29T12:47:30.124Z</time></trkpt><trkpt lat="45.2968893" lon="8.1885566"><ele>163.0</ele><time>2026-03-29T12:47:31.129Z</time></trkpt><trkpt lat="45.2967841" lon="8.1886862"><ele>163.0</ele><time>2026-03-29T12:47:32.131Z</time></trkpt><trkpt lat="45.2966786" lon="8.188822"><ele>163.0</ele><time>2026-03-29T12:47:33.122Z</time></trkpt><trkpt lat="45.2965753" lon="8.1889581"><ele>163.0</ele><time>2026-03-29T12:47:34.134Z</time></trkpt><trkpt lat="45.2964752" lon="8.1890927"><ele>162.75</ele><time>2026-03-29T12:47:35.135Z</time></trkpt><trkpt lat="45.2963703" lon="8.1892292"><ele>162.5</ele><time>2026-03-29T12:47:36.142Z</time></trkpt><trkpt lat="45.2962654" lon="8.1893698"><ele>162.25</ele><time>2026-03-29T12:47:37.137Z</time></trkpt><trkpt lat="45.2961599" lon="8.1895186"><ele>162.0</ele><time>2026-03-29T12:47:38.132Z</time></trkpt><trkpt lat="45.296054" lon="8.1896597"><ele>162.0</ele><time>2026-03-29T12:47:39.13Z</time></trkpt><trkpt lat="45.2959469" lon="8.1898037"><ele>162.0</ele><time>2026-03-29T12:47:40.111Z</time></trkpt><trkpt lat="45.2958359" lon="8.1899509"><ele>162.0</ele><time>2026-03-29T12:47:41.107Z</time></trkpt><trkpt lat="45.2957285" lon="8.1900954"><ele>162.0</ele><time>2026-03-29T12:47:42.111Z</time></trkpt><trkpt lat="45.2956259" lon="8.1902401"><ele>162.0</ele><time>2026-03-29T12:47:43.125Z</time></trkpt><trkpt lat="45.2955316" lon="8.1903877"><ele>162.0</ele><time>2026-03-29T12:47:44.119Z</time></trkpt><trkpt lat="45.2954387" lon="8.1905401"><ele>162.0</ele><time>2026-03-29T12:47:45.119Z</time></trkpt><trkpt lat="45.2953491" lon="8.1906862"><ele>162.0</ele><time>2026-03-29T12:47:46.137Z</time></trkpt><trkpt lat="45.2952652" lon="8.1908333"><ele>162.0</ele><time>2026-03-29T12:47:47.122Z</time></trkpt><trkpt lat="45.2951942" lon="8.1909785"><ele>162.0</ele><time>2026-03-29T12:47:48.129Z</time></trkpt><trkpt lat="45.2951361" lon="8.1911239"><ele>162.0</ele><time>2026-03-29T12:47:49.131Z</time></trkpt><trkpt lat="45.2950881" lon="8.1912663"><ele>162.0</ele><time>2026-03-29T12:47:50.137Z</time></trkpt><trkpt lat="45.2950617" lon="8.1914129"><ele>162.0</ele><time>2026-03-29T12:47:51.124Z</time></trkpt><trkpt lat="45.2950399" lon="8.1915769"><ele>162.0</ele><time>2026-03-29T12:47:52.127Z</time></trkpt><trkpt lat="45.2950207" lon="8.191763"><ele>162.0</ele><time>2026-03-29T12:47:53.127Z</time></trkpt><trkpt lat="45.2950058" lon="8.1919348"><ele>162.0</ele><time>2026-03-29T12:47:54.134Z</time></trkpt><trkpt lat="45.2949959" lon="8.1920999"><ele>162.0</ele><time>2026-03-29T12:47:55.125Z</time></trkpt><trkpt lat="45.2949796" lon="8.1922484"><ele>162.0</ele><time>2026-03-29T12:47:56.121Z</time></trkpt><trkpt lat="45.2949643" lon="8.1923816"><ele>162.0</ele><time>2026-03-29T12:47:57.132Z</time></trkpt><trkpt lat="45.2949508" lon="8.1925005"><ele>162.0</ele><time>2026-03-29T12:47:58.135Z</time></trkpt><trkpt lat="45.2949309" lon="8.1926107"><ele>162.0</ele><time>2026-03-29T12:47:59.119Z</time></trkpt><trkpt lat="45.2948987" lon="8.1927089"><ele>162.0</ele><time>2026-03-29T12:48:00.113Z</time></trkpt><trkpt lat="45.2948516" lon="8.1928219"><ele>162.0</ele><time>2026-03-29T12:48:01.134Z</time></trkpt><trkpt lat="45.2947791" lon="8.1929637"><ele>162.0</ele><time>2026-03-29T12:48:02.118Z</time></trkpt><trkpt lat="45.2946936" lon="8.1931263"><ele>162.0</ele><time>2026-03-29T12:48:03.122Z</time></trkpt><trkpt lat="45.2946011" lon="8.1932918"><ele>162.0</ele><time>2026-03-29T12:48:04.116Z</time></trkpt><trkpt lat="45.294507" lon="8.1934559"><ele>162.0</ele><time>2026-03-29T12:48:05.123Z</time></trkpt><trkpt lat="45.2944123" lon="8.1936191"><ele>162.0</ele><time>2026-03-29T12:48:06.11Z</time></trkpt><trkpt lat="45.2943341" lon="8.1937703"><ele>162.0</ele><time>2026-03-29T12:48:07.121Z</time></trkpt><trkpt lat="45.2942653" lon="8.1939007"><ele>162.0</ele><time>2026-03-29T12:48:08.131Z</time></trkpt><trkpt lat="45.2942094" lon="8.1940128"><ele>162.2</ele><time>2026-03-29T12:48:09.13Z</time></trkpt><trkpt lat="45.2941621" lon="8.1940991"><ele>162.39999999999998</ele><time>2026-03-29T12:48:10.133Z</time></trkpt><trkpt lat="45.2940764" lon="8.1941765"><ele>162.60000000000002</ele><time>2026-03-29T12:48:12.11Z</time></trkpt><trkpt lat="45.2939963" lon="8.1941759"><ele>162.8</ele><time>2026-03-29T12:48:14.113Z</time></trkpt><trkpt lat="45.2938783" lon="8.1940584"><ele>163.0</ele><time>2026-03-29T12:48:16.116Z</time></trkpt><trkpt lat="45.2937907" lon="8.193971"><ele>163.0</ele><time>2026-03-29T12:48:17.114Z</time></trkpt><trkpt lat="45.2936823" lon="8.1938734"><ele>163.0</ele><time>2026-03-29T12:48:18.128Z</time></trkpt><trkpt lat="45.2935625" lon="8.1937673"><ele>163.0</ele><time>2026-03-29T12:48:19.12Z</time></trkpt><trkpt lat="45.2934353" lon="8.1936544"><ele>163.0</ele><time>2026-03-29T12:48:20.12Z</time></trkpt><trkpt lat="45.2933056" lon="8.1935396"><ele>163.0</ele><time>2026-03-29T12:48:21.115Z</time></trkpt><trkpt lat="45.2931783" lon="8.1934366"><ele>163.0</ele><time>2026-03-29T12:48:22.117Z</time></trkpt><trkpt lat="45.2930551" lon="8.193332"><ele>163.0</ele><time>2026-03-29T12:48:23.111Z</time></trkpt><trkpt lat="45.2929333" lon="8.1932228"><ele>163.0</ele><time>2026-03-29T12:48:24.138Z</time></trkpt><trkpt lat="45.2928122" lon="8.1931193"><ele>162.75</ele><time>2026-03-29T12:48:25.128Z</time></trkpt><trkpt lat="45.2926939" lon="8.1930203"><ele>162.5</ele><time>2026-03-29T12:48:26.131Z</time></trkpt><trkpt lat="45.2925788" lon="8.1929258"><ele>162.25</ele><time>2026-03-29T12:48:27.14Z</time></trkpt><trkpt lat="45.2924752" lon="8.1928327"><ele>162.0</ele><time>2026-03-29T12:48:28.125Z</time></trkpt><trkpt lat="45.2923769" lon="8.1927432"><ele>162.0</ele><time>2026-03-29T12:48:29.134Z</time></trkpt><trkpt lat="45.292276" lon="8.1926537"><ele>162.0</ele><time>2026-03-29T12:48:30.125Z</time></trkpt><trkpt lat="45.2921811" lon="8.1925642"><ele>162.0</ele><time>2026-03-29T12:48:31.115Z</time></trkpt><trkpt lat="45.2920816" lon="8.1924625"><ele>162.0</ele><time>2026-03-29T12:48:32.159Z</time></trkpt><trkpt lat="45.2919774" lon="8.1923539"><ele>161.75</ele><time>2026-03-29T12:48:33.131Z</time></trkpt><trkpt lat="45.2918696" lon="8.1922354"><ele>161.5</ele><time>2026-03-29T12:48:34.131Z</time></trkpt><trkpt lat="45.2917559" lon="8.1921129"><ele>161.25</ele><time>2026-03-29T12:48:35.105Z</time></trkpt><trkpt lat="45.2916491" lon="8.191996"><ele>161.0</ele><time>2026-03-29T12:48:36.139Z</time></trkpt><trkpt lat="45.2915454" lon="8.191883"><ele>161.0</ele><time>2026-03-29T12:48:37.116Z</time></trkpt><trkpt lat="45.2914446" lon="8.1917684"><ele>161.0</ele><time>2026-03-29T12:48:38.107Z</time></trkpt><trkpt lat="45.291354" lon="8.1916572"><ele>161.0</ele><time>2026-03-29T12:48:39.157Z</time></trkpt><trkpt lat="45.2912572" lon="8.191536"><ele>161.0</ele><time>2026-03-29T12:48:40.116Z</time></trkpt><trkpt lat="45.2911528" lon="8.1914137"><ele>161.25</ele><time>2026-03-29T12:48:41.137Z</time></trkpt><trkpt lat="45.29105" lon="8.1912915"><ele>161.5</ele><time>2026-03-29T12:48:42.123Z</time></trkpt><trkpt lat="45.2909475" lon="8.1911693"><ele>161.75</ele><time>2026-03-29T12:48:43.12Z</time></trkpt><trkpt lat="45.2908432" lon="8.1910476"><ele>162.0</ele><time>2026-03-29T12:48:44.119Z</time></trkpt><trkpt lat="45.2907431" lon="8.1909297"><ele>162.0</ele><time>2026-03-29T12:48:45.121Z</time></trkpt><trkpt lat="45.2906415" lon="8.1908096"><ele>162.0</ele><time>2026-03-29T12:48:46.126Z</time></trkpt><trkpt lat="45.2905409" lon="8.1906879"><ele>162.0</ele><time>2026-03-29T12:48:47.113Z</time></trkpt><trkpt lat="45.2904374" lon="8.1905628"><ele>162.0</ele><time>2026-03-29T12:48:48.117Z</time></trkpt><trkpt lat="45.2903284" lon="8.1904364"><ele>161.75</ele><time>2026-03-29T12:48:49.113Z</time></trkpt><trkpt lat="45.2902185" lon="8.1903129"><ele>161.5</ele><time>2026-03-29T12:48:50.125Z</time></trkpt><trkpt lat="45.2901117" lon="8.1901842"><ele>161.25</ele><time>2026-03-29T12:48:51.125Z</time></trkpt><trkpt lat="45.2900026" lon="8.1900548"><ele>161.0</ele><time>2026-03-29T12:48:52.11Z</time></trkpt><trkpt lat="45.2898994" lon="8.1899341"><ele>161.25</ele><time>2026-03-29T12:48:53.117Z</time></trkpt><trkpt lat="45.2897977" lon="8.1898146"><ele>161.5</ele><time>2026-03-29T12:48:54.11Z</time></trkpt><trkpt lat="45.2896954" lon="8.1896941"><ele>161.75</ele><time>2026-03-29T12:48:55.114Z</time></trkpt><trkpt lat="45.2896043" lon="8.1895891"><ele>162.0</ele><time>2026-03-29T12:48:56.152Z</time></trkpt><trkpt lat="45.2895223" lon="8.1894891"><ele>162.0</ele><time>2026-03-29T12:48:57.123Z</time></trkpt><trkpt lat="45.2894474" lon="8.189406"><ele>162.0</ele><time>2026-03-29T12:48:58.134Z</time></trkpt><trkpt lat="45.2893894" lon="8.1893367"><ele>162.0</ele><time>2026-03-29T12:48:59.123Z</time></trkpt><trkpt lat="45.289338" lon="8.1892712"><ele>162.0</ele><time>2026-03-29T12:49:00.113Z</time></trkpt><trkpt lat="45.2892575" lon="8.1891846"><ele>162.0</ele><time>2026-03-29T12:49:02.123Z</time></trkpt><trkpt lat="45.2891759" lon="8.1891549"><ele>162.0</ele><time>2026-03-29T12:49:05.131Z</time></trkpt><trkpt lat="45.2891" lon="8.1892129"><ele>162.0</ele><time>2026-03-29T12:49:30.122Z</time></trkpt><trkpt lat="45.2890287" lon="8.1893486"><ele>162.0</ele><time>2026-03-29T12:49:32.105Z</time></trkpt><trkpt lat="45.288973" lon="8.1894371"><ele>162.0</ele><time>2026-03-29T12:49:33.124Z</time></trkpt><trkpt lat="45.2889157" lon="8.1895228"><ele>162.0</ele><time>2026-03-29T12:49:34.153Z</time></trkpt><trkpt lat="45.2888553" lon="8.1896169"><ele>162.0</ele><time>2026-03-29T12:49:35.136Z</time></trkpt><trkpt lat="45.2887966" lon="8.1897152"><ele>162.0</ele><time>2026-03-29T12:49:36.117Z</time></trkpt><trkpt lat="45.2887312" lon="8.1898173"><ele>162.0</ele><time>2026-03-29T12:49:37.132Z</time></trkpt><trkpt lat="45.2886657" lon="8.1899247"><ele>162.0</ele><time>2026-03-29T12:49:38.121Z</time></trkpt><trkpt lat="45.288596" lon="8.1900379"><ele>162.0</ele><time>2026-03-29T12:49:39.129Z</time></trkpt><trkpt lat="45.2885299" lon="8.1901686"><ele>162.0</ele><time>2026-03-29T12:49:40.155Z</time></trkpt><trkpt lat="45.2884643" lon="8.1903029"><ele>162.0</ele><time>2026-03-29T12:49:41.126Z</time></trkpt><trkpt lat="45.2883975" lon="8.1904466"><ele>162.0</ele><time>2026-03-29T12:49:42.124Z</time></trkpt><trkpt lat="45.288326" lon="8.1905914"><ele>162.0</ele><time>2026-03-29T12:49:43.125Z</time></trkpt><trkpt lat="45.2882539" lon="8.190741"><ele>162.0</ele><time>2026-03-29T12:49:44.126Z</time></trkpt><trkpt lat="45.2881867" lon="8.1908846"><ele>162.0</ele><time>2026-03-29T12:49:45.117Z</time></trkpt><trkpt lat="45.2881154" lon="8.1910382"><ele>162.0</ele><time>2026-03-29T12:49:46.116Z</time></trkpt><trkpt lat="45.2880396" lon="8.1911899"><ele>162.0</ele><time>2026-03-29T12:49:47.111Z</time></trkpt><trkpt lat="45.2879679" lon="8.1913346"><ele>162.0</ele><time>2026-03-29T12:49:48.113Z</time></trkpt><trkpt lat="45.2879046" lon="8.1914759"><ele>162.16666666666666</ele><time>2026-03-29T12:49:49.118Z</time></trkpt><trkpt lat="45.287849" lon="8.1915988"><ele>162.33333333333334</ele><time>2026-03-29T12:49:50.125Z</time></trkpt><trkpt lat="45.2877994" lon="8.1917043"><ele>162.5</ele><time>2026-03-29T12:49:51.124Z</time></trkpt><trkpt lat="45.2877549" lon="8.1917993"><ele>162.66666666666669</ele><time>2026-03-29T12:49:52.118Z</time></trkpt><trkpt lat="45.287709" lon="8.1918788"><ele>162.83333333333334</ele><time>2026-03-29T12:49:53.146Z</time></trkpt><trkpt lat="45.2876739" lon="8.1919557"><ele>163.0</ele><time>2026-03-29T12:49:54.123Z</time></trkpt><trkpt lat="45.2876204" lon="8.1920582"><ele>163.0</ele><time>2026-03-29T12:49:56.124Z</time></trkpt><trkpt lat="45.2875563" lon="8.1920587"><ele>163.0</ele><time>2026-03-29T12:49:58.113Z</time></trkpt><trkpt lat="45.2874387" lon="8.191974"><ele>163.0</ele><time>2026-03-29T12:50:00.124Z</time></trkpt><trkpt lat="45.2873613" lon="8.1919091"><ele>163.0</ele><time>2026-03-29T12:50:01.124Z</time></trkpt><trkpt lat="45.2872715" lon="8.1918409"><ele>163.0</ele><time>2026-03-29T12:50:02.114Z</time></trkpt><trkpt lat="45.2871731" lon="8.1917686"><ele>162.5</ele><time>2026-03-29T12:50:03.122Z</time></trkpt><trkpt lat="45.2870728" lon="8.1916971"><ele>162.0</ele><time>2026-03-29T12:50:04.127Z</time></trkpt><trkpt lat="45.2869727" lon="8.1916251"><ele>161.5</ele><time>2026-03-29T12:50:05.124Z</time></trkpt><trkpt lat="45.2868704" lon="8.1915484"><ele>161.0</ele><time>2026-03-29T12:50:06.107Z</time></trkpt><trkpt lat="45.2867595" lon="8.1914677"><ele>161.0</ele><time>2026-03-29T12:50:07.124Z</time></trkpt><trkpt lat="45.2866372" lon="8.1913802"><ele>161.0</ele><time>2026-03-29T12:50:08.127Z</time></trkpt><trkpt lat="45.2865059" lon="8.1912899"><ele>161.0</ele><time>2026-03-29T12:50:09.115Z</time></trkpt><trkpt lat="45.2863798" lon="8.1911989"><ele>161.0</ele><time>2026-03-29T12:50:10.114Z</time></trkpt><trkpt lat="45.2862649" lon="8.1911183"><ele>161.25</ele><time>2026-03-29T12:50:11.144Z</time></trkpt><trkpt lat="45.2861452" lon="8.1910349"><ele>161.5</ele><time>2026-03-29T12:50:12.119Z</time></trkpt><trkpt lat="45.2860241" lon="8.1909518"><ele>161.75</ele><time>2026-03-29T12:50:13.124Z</time></trkpt><trkpt lat="45.2858965" lon="8.1908638"><ele>162.0</ele><time>2026-03-29T12:50:14.13Z</time></trkpt><trkpt lat="45.2857667" lon="8.1907739"><ele>162.0</ele><time>2026-03-29T12:50:15.113Z</time></trkpt><trkpt lat="45.2856356" lon="8.190683"><ele>162.0</ele><time>2026-03-29T12:50:16.113Z</time></trkpt><trkpt lat="45.2855004" lon="8.1905938"><ele>162.0</ele><time>2026-03-29T12:50:17.128Z</time></trkpt><trkpt lat="45.2853664" lon="8.1905017"><ele>162.0</ele><time>2026-03-29T12:50:18.125Z</time></trkpt><trkpt lat="45.2852255" lon="8.1904122"><ele>161.66666666666666</ele><time>2026-03-29T12:50:19.148Z</time></trkpt><trkpt lat="45.2850887" lon="8.1903239"><ele>161.33333333333331</ele><time>2026-03-29T12:50:20.123Z</time></trkpt><trkpt lat="45.2849502" lon="8.1902321"><ele>161.0</ele><time>2026-03-29T12:50:21.127Z</time></trkpt><trkpt lat="45.2848177" lon="8.1901386"><ele>160.66666666666666</ele><time>2026-03-29T12:50:22.136Z</time></trkpt><trkpt lat="45.2846835" lon="8.19005"><ele>160.33333333333334</ele><time>2026-03-29T12:50:23.13Z</time></trkpt><trkpt lat="45.2845416" lon="8.1899666"><ele>160.0</ele><time>2026-03-29T12:50:24.12Z</time></trkpt><trkpt lat="45.284403" lon="8.189877"><ele>160.0</ele><time>2026-03-29T12:50:25.126Z</time></trkpt><trkpt lat="45.284266" lon="8.189783"><ele>160.0</ele><time>2026-03-29T12:50:26.116Z</time></trkpt><trkpt lat="45.2841285" lon="8.1896905"><ele>160.0</ele><time>2026-03-29T12:50:27.139Z</time></trkpt><trkpt lat="45.2839885" lon="8.1895992"><ele>160.25</ele><time>2026-03-29T12:50:28.114Z</time></trkpt><trkpt lat="45.2838519" lon="8.1895078"><ele>160.5</ele><time>2026-03-29T12:50:29.111Z</time></trkpt><trkpt lat="45.2837154" lon="8.1894209"><ele>160.75</ele><time>2026-03-29T12:50:30.13Z</time></trkpt><trkpt lat="45.2835895" lon="8.1893396"><ele>161.0</ele><time>2026-03-29T12:50:31.134Z</time></trkpt><trkpt lat="45.283479" lon="8.1892647"><ele>161.0</ele><time>2026-03-29T12:50:32.136Z</time></trkpt><trkpt lat="45.2833862" lon="8.1892017"><ele>161.0</ele><time>2026-03-29T12:50:33.114Z</time></trkpt><trkpt lat="45.2833024" lon="8.189148"><ele>161.0</ele><time>2026-03-29T12:50:34.13Z</time></trkpt><trkpt lat="45.2832406" lon="8.1891083"><ele>161.0</ele><time>2026-03-29T12:50:35.114Z</time></trkpt><trkpt lat="45.2831756" lon="8.1890715"><ele>161.0</ele><time>2026-03-29T12:50:37.125Z</time></trkpt><trkpt lat="45.2831401" lon="8.1889919"><ele>161.0</ele><time>2026-03-29T12:50:51.119Z</time></trkpt><trkpt lat="45.2831199" lon="8.1888612"><ele>161.0</ele><time>2026-03-29T12:50:53.124Z</time></trkpt><trkpt lat="45.283027" lon="8.1887937"><ele>161.0</ele><time>2026-03-29T12:50:55.132Z</time></trkpt><trkpt lat="45.2829512" lon="8.1887582"><ele>161.0</ele><time>2026-03-29T12:50:56.117Z</time></trkpt><trkpt lat="45.2828483" lon="8.1887145"><ele>161.0</ele><time>2026-03-29T12:50:57.121Z</time></trkpt><trkpt lat="45.2827608" lon="8.1886671"><ele>161.0</ele><time>2026-03-29T12:50:58.114Z</time></trkpt><trkpt lat="45.2826967" lon="8.1886395"><ele>161.0</ele><time>2026-03-29T12:50:59.124Z</time></trkpt><trkpt lat="45.2825976" lon="8.1885374"><ele>161.0</ele><time>2026-03-29T12:51:01.113Z</time></trkpt><trkpt lat="45.2825624" lon="8.188458"><ele>161.0</ele><time>2026-03-29T12:51:02.113Z</time></trkpt><trkpt lat="45.2825318" lon="8.188341"><ele>161.0</ele><time>2026-03-29T12:51:03.125Z</time></trkpt><trkpt lat="45.2825047" lon="8.1881884"><ele>161.0</ele><time>2026-03-29T12:51:04.12Z</time></trkpt><trkpt lat="45.2824708" lon="8.1880121"><ele>161.0</ele><time>2026-03-29T12:51:05.12Z</time></trkpt><trkpt lat="45.2824413" lon="8.1878304"><ele>161.0</ele><time>2026-03-29T12:51:06.126Z</time></trkpt><trkpt lat="45.2824161" lon="8.1876483"><ele>161.0</ele><time>2026-03-29T12:51:07.134Z</time></trkpt><trkpt lat="45.282399" lon="8.1874592"><ele>161.0</ele><time>2026-03-29T12:51:08.131Z</time></trkpt><trkpt lat="45.2823877" lon="8.1872719"><ele>161.0</ele><time>2026-03-29T12:51:09.134Z</time></trkpt><trkpt lat="45.2823785" lon="8.1870778"><ele>161.0</ele><time>2026-03-29T12:51:10.126Z</time></trkpt><trkpt lat="45.2823645" lon="8.1868917"><ele>161.0</ele><time>2026-03-29T12:51:11.12Z</time></trkpt><trkpt lat="45.2823535" lon="8.1866925"><ele>161.0</ele><time>2026-03-29T12:51:12.117Z</time></trkpt><trkpt lat="45.2823442" lon="8.1864892"><ele>161.0</ele><time>2026-03-29T12:51:13.112Z</time></trkpt><trkpt lat="45.2823358" lon="8.1862997"><ele>161.0</ele><time>2026-03-29T12:51:14.153Z</time></trkpt><trkpt lat="45.2823293" lon="8.1861256"><ele>161.0</ele><time>2026-03-29T12:51:15.092Z</time></trkpt><trkpt lat="45.2823278" lon="8.1859712"><ele>161.0</ele><time>2026-03-29T12:51:16.107Z</time></trkpt><trkpt lat="45.2823302" lon="8.1858193"><ele>161.0</ele><time>2026-03-29T12:51:17.136Z</time></trkpt><trkpt lat="45.282346" lon="8.1856839"><ele>161.0</ele><time>2026-03-29T12:51:18.12Z</time></trkpt><trkpt lat="45.2823787" lon="8.1855352"><ele>161.0</ele><time>2026-03-29T12:51:19.155Z</time></trkpt><trkpt lat="45.282422" lon="8.1853747"><ele>161.0</ele><time>2026-03-29T12:51:20.114Z</time></trkpt><trkpt lat="45.2824683" lon="8.1851904"><ele>161.0</ele><time>2026-03-29T12:51:21.105Z</time></trkpt><trkpt lat="45.2825205" lon="8.1850073"><ele>161.0</ele><time>2026-03-29T12:51:22.119Z</time></trkpt><trkpt lat="45.2825734" lon="8.1848278"><ele>161.0</ele><time>2026-03-29T12:51:23.116Z</time></trkpt><trkpt lat="45.2826229" lon="8.1846459"><ele>161.0</ele><time>2026-03-29T12:51:24.12Z</time></trkpt><trkpt lat="45.2826777" lon="8.1844513"><ele>161.0</ele><time>2026-03-29T12:51:25.116Z</time></trkpt><trkpt lat="45.282729" lon="8.1842496"><ele>161.0</ele><time>2026-03-29T12:51:26.153Z</time></trkpt><trkpt lat="45.2827844" lon="8.1840466"><ele>161.0</ele><time>2026-03-29T12:51:27.123Z</time></trkpt><trkpt lat="45.2828411" lon="8.1838481"><ele>161.0</ele><time>2026-03-29T12:51:28.105Z</time></trkpt><trkpt lat="45.2828942" lon="8.1836558"><ele>161.0</ele><time>2026-03-29T12:51:29.115Z</time></trkpt><trkpt lat="45.2829424" lon="8.1834752"><ele>161.0</ele><time>2026-03-29T12:51:30.128Z</time></trkpt><trkpt lat="45.2829925" lon="8.1832846"><ele>161.0</ele><time>2026-03-29T12:51:31.118Z</time></trkpt><trkpt lat="45.2830463" lon="8.1830942"><ele>161.66666666666666</ele><time>2026-03-29T12:51:32.139Z</time></trkpt><trkpt lat="45.2831012" lon="8.1828926"><ele>162.33333333333334</ele><time>2026-03-29T12:51:33.132Z</time></trkpt><trkpt lat="45.2831546" lon="8.1826844"><ele>163.0</ele><time>2026-03-29T12:51:34.119Z</time></trkpt><trkpt lat="45.2832118" lon="8.1824737"><ele>163.33333333333334</ele><time>2026-03-29T12:51:35.118Z</time></trkpt><trkpt lat="45.2832722" lon="8.1822679"><ele>163.66666666666666</ele><time>2026-03-29T12:51:36.129Z</time></trkpt><trkpt lat="45.2833268" lon="8.1820687"><ele>164.0</ele><time>2026-03-29T12:51:37.111Z</time></trkpt><trkpt lat="45.2833808" lon="8.1818727"><ele>164.0</ele><time>2026-03-29T12:51:38.12Z</time></trkpt><trkpt lat="45.2834338" lon="8.181669"><ele>164.0</ele><time>2026-03-29T12:51:39.119Z</time></trkpt><trkpt lat="45.2834889" lon="8.1814676"><ele>164.0</ele><time>2026-03-29T12:51:40.123Z</time></trkpt><trkpt lat="45.2835434" lon="8.1812673"><ele>163.33333333333331</ele><time>2026-03-29T12:51:41.123Z</time></trkpt><trkpt lat="45.2835972" lon="8.1810686"><ele>162.66666666666666</ele><time>2026-03-29T12:51:42.122Z</time></trkpt><trkpt lat="45.2836534" lon="8.1808619"><ele>162.0</ele><time>2026-03-29T12:51:43.123Z</time></trkpt><trkpt lat="45.2837092" lon="8.1806595"><ele>162.0</ele><time>2026-03-29T12:51:44.118Z</time></trkpt><trkpt lat="45.2837575" lon="8.180467"><ele>162.0</ele><time>2026-03-29T12:51:45.116Z</time></trkpt><trkpt lat="45.2838096" lon="8.1802789"><ele>162.0</ele><time>2026-03-29T12:51:46.113Z</time></trkpt><trkpt lat="45.2838565" lon="8.1800993"><ele>162.0</ele><time>2026-03-29T12:51:47.12Z</time></trkpt><trkpt lat="45.2839007" lon="8.1799351"><ele>162.2</ele><time>2026-03-29T12:51:48.12Z</time></trkpt><trkpt lat="45.2839409" lon="8.1797904"><ele>162.39999999999998</ele><time>2026-03-29T12:51:49.11Z</time></trkpt><trkpt lat="45.2839752" lon="8.1796489"><ele>162.60000000000002</ele><time>2026-03-29T12:51:50.121Z</time></trkpt><trkpt lat="45.2840095" lon="8.1795213"><ele>162.8</ele><time>2026-03-29T12:51:51.133Z</time></trkpt><trkpt lat="45.2840435" lon="8.1794005"><ele>163.0</ele><time>2026-03-29T12:51:52.121Z</time></trkpt><trkpt lat="45.2840734" lon="8.1792766"><ele>163.0</ele><time>2026-03-29T12:51:53.122Z</time></trkpt><trkpt lat="45.2841053" lon="8.1791509"><ele>163.0</ele><time>2026-03-29T12:51:54.123Z</time></trkpt><trkpt lat="45.2841442" lon="8.1790091"><ele>163.0</ele><time>2026-03-29T12:51:55.122Z</time></trkpt><trkpt lat="45.284183" lon="8.1788593"><ele>163.0</ele><time>2026-03-29T12:51:56.144Z</time></trkpt><trkpt lat="45.2842249" lon="8.1787066"><ele>163.0</ele><time>2026-03-29T12:51:57.13Z</time></trkpt><trkpt lat="45.2842665" lon="8.1785571"><ele>163.0</ele><time>2026-03-29T12:51:58.126Z</time></trkpt><trkpt lat="45.2843054" lon="8.1784136"><ele>163.0</ele><time>2026-03-29T12:51:59.123Z</time></trkpt><trkpt lat="45.2843432" lon="8.1782741"><ele>163.0</ele><time>2026-03-29T12:52:00.111Z</time></trkpt><trkpt lat="45.2843842" lon="8.1781431"><ele>163.0</ele><time>2026-03-29T12:52:01.107Z</time></trkpt><trkpt lat="45.2844203" lon="8.1780186"><ele>163.0</ele><time>2026-03-29T12:52:02.132Z</time></trkpt><trkpt lat="45.284456" lon="8.1778927"><ele>163.0</ele><time>2026-03-29T12:52:03.127Z</time></trkpt><trkpt lat="45.2844893" lon="8.177755"><ele>163.0</ele><time>2026-03-29T12:52:04.119Z</time></trkpt><trkpt lat="45.284524" lon="8.177614"><ele>163.0</ele><time>2026-03-29T12:52:05.119Z</time></trkpt><trkpt lat="45.2845569" lon="8.1774761"><ele>163.0</ele><time>2026-03-29T12:52:06.126Z</time></trkpt><trkpt lat="45.2845924" lon="8.1773385"><ele>163.0</ele><time>2026-03-29T12:52:07.115Z</time></trkpt><trkpt lat="45.2846294" lon="8.1771969"><ele>163.0</ele><time>2026-03-29T12:52:08.124Z</time></trkpt><trkpt lat="45.2846676" lon="8.1770505"><ele>163.0</ele><time>2026-03-29T12:52:09.127Z</time></trkpt><trkpt lat="45.2847106" lon="8.1768978"><ele>163.0</ele><time>2026-03-29T12:52:10.12Z</time></trkpt><trkpt lat="45.2847549" lon="8.176744"><ele>163.0</ele><time>2026-03-29T12:52:11.12Z</time></trkpt><trkpt lat="45.2847954" lon="8.1765983"><ele>162.8</ele><time>2026-03-29T12:52:12.114Z</time></trkpt><trkpt lat="45.2848323" lon="8.1764547"><ele>162.60000000000002</ele><time>2026-03-29T12:52:13.117Z</time></trkpt><trkpt lat="45.2848718" lon="8.1763155"><ele>162.39999999999998</ele><time>2026-03-29T12:52:14.126Z</time></trkpt><trkpt lat="45.2849122" lon="8.1761668"><ele>162.2</ele><time>2026-03-29T12:52:15.12Z</time></trkpt><trkpt lat="45.2849531" lon="8.176011"><ele>162.0</ele><time>2026-03-29T12:52:16.135Z</time></trkpt><trkpt lat="45.2849943" lon="8.1758543"><ele>162.0</ele><time>2026-03-29T12:52:17.125Z</time></trkpt><trkpt lat="45.2850365" lon="8.1756974"><ele>162.0</ele><time>2026-03-29T12:52:18.124Z</time></trkpt><trkpt lat="45.2850777" lon="8.1755484"><ele>162.0</ele><time>2026-03-29T12:52:19.134Z</time></trkpt><trkpt lat="45.2851122" lon="8.17541"><ele>162.0</ele><time>2026-03-29T12:52:20.132Z</time></trkpt><trkpt lat="45.2851485" lon="8.1752682"><ele>162.0</ele><time>2026-03-29T12:52:21.138Z</time></trkpt><trkpt lat="45.2851864" lon="8.1751333"><ele>162.2</ele><time>2026-03-29T12:52:22.125Z</time></trkpt><trkpt lat="45.2852217" lon="8.1749992"><ele>162.39999999999998</ele><time>2026-03-29T12:52:23.13Z</time></trkpt><trkpt lat="45.28526" lon="8.1748637"><ele>162.60000000000002</ele><time>2026-03-29T12:52:24.098Z</time></trkpt><trkpt lat="45.2852981" lon="8.1747252"><ele>162.8</ele><time>2026-03-29T12:52:25.113Z</time></trkpt><trkpt lat="45.2853344" lon="8.1745862"><ele>163.0</ele><time>2026-03-29T12:52:26.105Z</time></trkpt><trkpt lat="45.2853735" lon="8.1744424"><ele>163.2</ele><time>2026-03-29T12:52:27.164Z</time></trkpt><trkpt lat="45.2854085" lon="8.1743155"><ele>163.4</ele><time>2026-03-29T12:52:28.113Z</time></trkpt><trkpt lat="45.2854406" lon="8.174202"><ele>163.6</ele><time>2026-03-29T12:52:29.126Z</time></trkpt><trkpt lat="45.2854716" lon="8.1740772"><ele>163.79999999999998</ele><time>2026-03-29T12:52:30.152Z</time></trkpt><trkpt lat="45.2855076" lon="8.173944"><ele>164.0</ele><time>2026-03-29T12:52:31.132Z</time></trkpt><trkpt lat="45.2855455" lon="8.1737989"><ele>164.0</ele><time>2026-03-29T12:52:32.133Z</time></trkpt><trkpt lat="45.2855827" lon="8.173656"><ele>164.0</ele><time>2026-03-29T12:52:33.131Z</time></trkpt><trkpt lat="45.2856247" lon="8.1735199"><ele>164.0</ele><time>2026-03-29T12:52:34.135Z</time></trkpt><trkpt lat="45.2856595" lon="8.1733925"><ele>164.0</ele><time>2026-03-29T12:52:35.142Z</time></trkpt><trkpt lat="45.2856941" lon="8.1732568"><ele>164.0</ele><time>2026-03-29T12:52:36.124Z</time></trkpt><trkpt lat="45.2857265" lon="8.1731279"><ele>163.79999999999998</ele><time>2026-03-29T12:52:37.125Z</time></trkpt><trkpt lat="45.2857582" lon="8.1729985"><ele>163.6</ele><time>2026-03-29T12:52:38.121Z</time></trkpt><trkpt lat="45.2857921" lon="8.1728749"><ele>163.4</ele><time>2026-03-29T12:52:39.106Z</time></trkpt><trkpt lat="45.2858269" lon="8.1727496"><ele>163.2</ele><time>2026-03-29T12:52:40.119Z</time></trkpt><trkpt lat="45.2858614" lon="8.1726247"><ele>163.0</ele><time>2026-03-29T12:52:41.119Z</time></trkpt><trkpt lat="45.2858964" lon="8.1725017"><ele>163.0</ele><time>2026-03-29T12:52:42.119Z</time></trkpt><trkpt lat="45.2859307" lon="8.1723819"><ele>163.0</ele><time>2026-03-29T12:52:43.118Z</time></trkpt><trkpt lat="45.2859674" lon="8.1722573"><ele>163.0</ele><time>2026-03-29T12:52:44.142Z</time></trkpt><trkpt lat="45.2860045" lon="8.1721267"><ele>163.0</ele><time>2026-03-29T12:52:45.115Z</time></trkpt><trkpt lat="45.2860417" lon="8.1720002"><ele>163.0</ele><time>2026-03-29T12:52:46.131Z</time></trkpt><trkpt lat="45.2860775" lon="8.1718679"><ele>163.0</ele><time>2026-03-29T12:52:47.121Z</time></trkpt><trkpt lat="45.2861176" lon="8.1717259"><ele>163.0</ele><time>2026-03-29T12:52:48.137Z</time></trkpt><trkpt lat="45.2861583" lon="8.1715807"><ele>163.0</ele><time>2026-03-29T12:52:49.107Z</time></trkpt><trkpt lat="45.286201" lon="8.1714331"><ele>163.0</ele><time>2026-03-29T12:52:50.127Z</time></trkpt><trkpt lat="45.286237" lon="8.1712876"><ele>163.0</ele><time>2026-03-29T12:52:51.122Z</time></trkpt><trkpt lat="45.2862763" lon="8.1711484"><ele>163.2</ele><time>2026-03-29T12:52:52.112Z</time></trkpt><trkpt lat="45.2863135" lon="8.1710182"><ele>163.4</ele><time>2026-03-29T12:52:53.123Z</time></trkpt><trkpt lat="45.2863494" lon="8.1708807"><ele>163.6</ele><time>2026-03-29T12:52:54.123Z</time></trkpt><trkpt lat="45.2863863" lon="8.1707448"><ele>163.79999999999998</ele><time>2026-03-29T12:52:55.13Z</time></trkpt><trkpt lat="45.2864215" lon="8.1706044"><ele>164.0</ele><time>2026-03-29T12:52:56.116Z</time></trkpt><trkpt lat="45.2864616" lon="8.1704608"><ele>164.0</ele><time>2026-03-29T12:52:57.119Z</time></trkpt><trkpt lat="45.2865016" lon="8.1703252"><ele>164.0</ele><time>2026-03-29T12:52:58.113Z</time></trkpt><trkpt lat="45.286537" lon="8.1702007"><ele>164.0</ele><time>2026-03-29T12:52:59.122Z</time></trkpt><trkpt lat="45.286565" lon="8.1700738"><ele>164.0</ele><time>2026-03-29T12:53:00.107Z</time></trkpt><trkpt lat="45.2865939" lon="8.1699449"><ele>164.0</ele><time>2026-03-29T12:53:01.13Z</time></trkpt><trkpt lat="45.2866237" lon="8.1698165"><ele>164.0</ele><time>2026-03-29T12:53:02.111Z</time></trkpt><trkpt lat="45.2866596" lon="8.1696959"><ele>164.0</ele><time>2026-03-29T12:53:03.121Z</time></trkpt><trkpt lat="45.2866918" lon="8.1695634"><ele>164.0</ele><time>2026-03-29T12:53:04.117Z</time></trkpt><trkpt lat="45.2867303" lon="8.1694171"><ele>164.0</ele><time>2026-03-29T12:53:05.107Z</time></trkpt><trkpt lat="45.2867714" lon="8.1692668"><ele>164.0</ele><time>2026-03-29T12:53:06.121Z</time></trkpt><trkpt lat="45.286812" lon="8.16911"><ele>164.0</ele><time>2026-03-29T12:53:07.116Z</time></trkpt><trkpt lat="45.286857" lon="8.1689592"><ele>164.0</ele><time>2026-03-29T12:53:08.109Z</time></trkpt><trkpt lat="45.2868972" lon="8.1688068"><ele>164.0</ele><time>2026-03-29T12:53:09.137Z</time></trkpt><trkpt lat="45.2869427" lon="8.1686504"><ele>164.0</ele><time>2026-03-29T12:53:10.125Z</time></trkpt><trkpt lat="45.2869881" lon="8.1684941"><ele>164.0</ele><time>2026-03-29T12:53:11.11Z</time></trkpt><trkpt lat="45.2870267" lon="8.1683373"><ele>164.0</ele><time>2026-03-29T12:53:12.112Z</time></trkpt><trkpt lat="45.2870697" lon="8.1681839"><ele>164.0</ele><time>2026-03-29T12:53:13.117Z</time></trkpt><trkpt lat="45.287112" lon="8.168025"><ele>164.0</ele><time>2026-03-29T12:53:14.127Z</time></trkpt><trkpt lat="45.2871536" lon="8.1678648"><ele>164.0</ele><time>2026-03-29T12:53:15.119Z</time></trkpt><trkpt lat="45.287199" lon="8.1677113"><ele>164.0</ele><time>2026-03-29T12:53:16.125Z</time></trkpt><trkpt lat="45.2872409" lon="8.1675537"><ele>164.0</ele><time>2026-03-29T12:53:17.115Z</time></trkpt><trkpt lat="45.2872855" lon="8.1673949"><ele>164.0</ele><time>2026-03-29T12:53:18.149Z</time></trkpt><trkpt lat="45.2873269" lon="8.1672357"><ele>164.0</ele><time>2026-03-29T12:53:19.129Z</time></trkpt><trkpt lat="45.2873707" lon="8.167077"><ele>164.0</ele><time>2026-03-29T12:53:20.134Z</time></trkpt><trkpt lat="45.2874149" lon="8.1669191"><ele>164.0</ele><time>2026-03-29T12:53:21.115Z</time></trkpt><trkpt lat="45.2874547" lon="8.1667571"><ele>164.0</ele><time>2026-03-29T12:53:22.13Z</time></trkpt><trkpt lat="45.2875004" lon="8.1665955"><ele>164.0</ele><time>2026-03-29T12:53:23.125Z</time></trkpt><trkpt lat="45.2875451" lon="8.1664344"><ele>164.0</ele><time>2026-03-29T12:53:24.118Z</time></trkpt><trkpt lat="45.2875891" lon="8.1662656"><ele>164.0</ele><time>2026-03-29T12:53:25.119Z</time></trkpt><trkpt lat="45.2876361" lon="8.1660931"><ele>164.0</ele><time>2026-03-29T12:53:26.123Z</time></trkpt><trkpt lat="45.2876812" lon="8.1659185"><ele>164.0</ele><time>2026-03-29T12:53:27.131Z</time></trkpt><trkpt lat="45.2877261" lon="8.1657562"><ele>164.0</ele><time>2026-03-29T12:53:28.123Z</time></trkpt><trkpt lat="45.2877691" lon="8.165595"><ele>164.0</ele><time>2026-03-29T12:53:29.129Z</time></trkpt><trkpt lat="45.2878145" lon="8.1654347"><ele>164.0</ele><time>2026-03-29T12:53:30.135Z</time></trkpt><trkpt lat="45.2878563" lon="8.1652814"><ele>164.0</ele><time>2026-03-29T12:53:31.119Z</time></trkpt><trkpt lat="45.2878993" lon="8.1651288"><ele>164.0</ele><time>2026-03-29T12:53:32.11Z</time></trkpt><trkpt lat="45.2879415" lon="8.1649752"><ele>164.0</ele><time>2026-03-29T12:53:33.134Z</time></trkpt><trkpt lat="45.2879861" lon="8.1648171"><ele>164.0</ele><time>2026-03-29T12:53:34.122Z</time></trkpt><trkpt lat="45.2880376" lon="8.1646614"><ele>164.0</ele><time>2026-03-29T12:53:35.129Z</time></trkpt><trkpt lat="45.2880903" lon="8.1645032"><ele>164.0</ele><time>2026-03-29T12:53:36.114Z</time></trkpt><trkpt lat="45.2881406" lon="8.1643502"><ele>164.0</ele><time>2026-03-29T12:53:37.118Z</time></trkpt><trkpt lat="45.2881892" lon="8.1641986"><ele>164.0</ele><time>2026-03-29T12:53:38.125Z</time></trkpt><trkpt lat="45.2882388" lon="8.164055"><ele>164.39999999999998</ele><time>2026-03-29T12:53:39.132Z</time></trkpt><trkpt lat="45.2882847" lon="8.1639223"><ele>164.8</ele><time>2026-03-29T12:53:40.106Z</time></trkpt><trkpt lat="45.2883312" lon="8.1637926"><ele>165.2</ele><time>2026-03-29T12:53:41.121Z</time></trkpt><trkpt lat="45.2883723" lon="8.16368"><ele>165.60000000000002</ele><time>2026-03-29T12:53:42.123Z</time></trkpt><trkpt lat="45.2884142" lon="8.1635802"><ele>166.0</ele><time>2026-03-29T12:53:43.128Z</time></trkpt><trkpt lat="45.2884541" lon="8.1634846"><ele>166.0</ele><time>2026-03-29T12:53:44.122Z</time></trkpt><trkpt lat="45.2884872" lon="8.163404"><ele>166.0</ele><time>2026-03-29T12:53:45.126Z</time></trkpt><trkpt lat="45.2885374" lon="8.1632772"><ele>166.0</ele><time>2026-03-29T12:53:47.144Z</time></trkpt><trkpt lat="45.2885416" lon="8.1631249"><ele>166.0</ele><time>2026-03-29T12:53:49.117Z</time></trkpt><trkpt lat="45.2885229" lon="8.1630101"><ele>166.0</ele><time>2026-03-29T12:53:50.112Z</time></trkpt><trkpt lat="45.2885" lon="8.1628762"><ele>166.0</ele><time>2026-03-29T12:53:51.129Z</time></trkpt><trkpt lat="45.2884728" lon="8.1627334"><ele>166.0</ele><time>2026-03-29T12:53:52.117Z</time></trkpt><trkpt lat="45.2884423" lon="8.1626018"><ele>166.0</ele><time>2026-03-29T12:53:53.113Z</time></trkpt><trkpt lat="45.2884272" lon="8.1624954"><ele>166.0</ele><time>2026-03-29T12:53:54.114Z</time></trkpt><trkpt lat="45.2884172" lon="8.1623902"><ele>166.0</ele><time>2026-03-29T12:53:55.12Z</time></trkpt><trkpt lat="45.2884211" lon="8.1622831"><ele>166.0</ele><time>2026-03-29T12:53:56.129Z</time></trkpt><trkpt lat="45.2884338" lon="8.162179"><ele>166.0</ele><time>2026-03-29T12:53:57.113Z</time></trkpt><trkpt lat="45.2884526" lon="8.1620811"><ele>166.0</ele><time>2026-03-29T12:53:58.126Z</time></trkpt><trkpt lat="45.2884825" lon="8.1619772"><ele>166.0</ele><time>2026-03-29T12:53:59.114Z</time></trkpt><trkpt lat="45.2885243" lon="8.1618614"><ele>166.0</ele><time>2026-03-29T12:54:00.124Z</time></trkpt><trkpt lat="45.2885793" lon="8.1617413"><ele>166.0</ele><time>2026-03-29T12:54:01.12Z</time></trkpt><trkpt lat="45.2886489" lon="8.1616156"><ele>166.4</ele><time>2026-03-29T12:54:02.127Z</time></trkpt><trkpt lat="45.2887164" lon="8.1614871"><ele>166.8</ele><time>2026-03-29T12:54:03.132Z</time></trkpt><trkpt lat="45.2887766" lon="8.1613547"><ele>167.20000000000002</ele><time>2026-03-29T12:54:04.114Z</time></trkpt><trkpt lat="45.2888367" lon="8.161227"><ele>167.60000000000002</ele><time>2026-03-29T12:54:05.123Z</time></trkpt><trkpt lat="45.2888936" lon="8.1610958"><ele>168.0</ele><time>2026-03-29T12:54:06.134Z</time></trkpt><trkpt lat="45.2889517" lon="8.1609554"><ele>168.0</ele><time>2026-03-29T12:54:07.119Z</time></trkpt><trkpt lat="45.2890063" lon="8.1608132"><ele>168.0</ele><time>2026-03-29T12:54:08.132Z</time></trkpt><trkpt lat="45.2890603" lon="8.1606721"><ele>168.0</ele><time>2026-03-29T12:54:09.129Z</time></trkpt><trkpt lat="45.2891072" lon="8.1605426"><ele>168.0</ele><time>2026-03-29T12:54:10.133Z</time></trkpt><trkpt lat="45.2891546" lon="8.16041"><ele>168.0</ele><time>2026-03-29T12:54:11.114Z</time></trkpt><trkpt lat="45.2891988" lon="8.1602719"><ele>168.0</ele><time>2026-03-29T12:54:12.127Z</time></trkpt><trkpt lat="45.2892416" lon="8.1601269"><ele>168.0</ele><time>2026-03-29T12:54:13.115Z</time></trkpt><trkpt lat="45.2892873" lon="8.1599826"><ele>168.0</ele><time>2026-03-29T12:54:14.115Z</time></trkpt><trkpt lat="45.2893322" lon="8.1598488"><ele>168.0</ele><time>2026-03-29T12:54:15.118Z</time></trkpt><trkpt lat="45.2893759" lon="8.1597048"><ele>168.0</ele><time>2026-03-29T12:54:16.122Z</time></trkpt><trkpt lat="45.2894249" lon="8.1595663"><ele>167.75</ele><time>2026-03-29T12:54:17.12Z</time></trkpt><trkpt lat="45.2894786" lon="8.1594283"><ele>167.5</ele><time>2026-03-29T12:54:18.13Z</time></trkpt><trkpt lat="45.2895306" lon="8.1592756"><ele>167.25</ele><time>2026-03-29T12:54:19.113Z</time></trkpt><trkpt lat="45.2895834" lon="8.1591212"><ele>167.0</ele><time>2026-03-29T12:54:20.125Z</time></trkpt><trkpt lat="45.2896323" lon="8.1589803"><ele>167.0</ele><time>2026-03-29T12:54:21.136Z</time></trkpt><trkpt lat="45.2896731" lon="8.1588537"><ele>167.0</ele><time>2026-03-29T12:54:22.115Z</time></trkpt><trkpt lat="45.2897126" lon="8.1587359"><ele>167.0</ele><time>2026-03-29T12:54:23.123Z</time></trkpt><trkpt lat="45.2897591" lon="8.158621"><ele>167.0</ele><time>2026-03-29T12:54:24.12Z</time></trkpt><trkpt lat="45.2898141" lon="8.1585125"><ele>167.0</ele><time>2026-03-29T12:54:25.129Z</time></trkpt><trkpt lat="45.2898762" lon="8.1584053"><ele>167.0</ele><time>2026-03-29T12:54:26.131Z</time></trkpt><trkpt lat="45.2899535" lon="8.1582998"><ele>167.0</ele><time>2026-03-29T12:54:27.109Z</time></trkpt><trkpt lat="45.2900372" lon="8.1581969"><ele>167.0</ele><time>2026-03-29T12:54:28.148Z</time></trkpt><trkpt lat="45.2901227" lon="8.1580965"><ele>167.0</ele><time>2026-03-29T12:54:29.117Z</time></trkpt><trkpt lat="45.2902059" lon="8.1579919"><ele>167.0</ele><time>2026-03-29T12:54:30.115Z</time></trkpt><trkpt lat="45.2902857" lon="8.1578849"><ele>167.0</ele><time>2026-03-29T12:54:31.119Z</time></trkpt><trkpt lat="45.2903662" lon="8.1577704"><ele>167.0</ele><time>2026-03-29T12:54:32.122Z</time></trkpt><trkpt lat="45.2904439" lon="8.1576558"><ele>167.0</ele><time>2026-03-29T12:54:33.119Z</time></trkpt><trkpt lat="45.2905219" lon="8.1575319"><ele>167.0</ele><time>2026-03-29T12:54:34.132Z</time></trkpt><trkpt lat="45.2905982" lon="8.1574093"><ele>167.0</ele><time>2026-03-29T12:54:35.109Z</time></trkpt><trkpt lat="45.2906752" lon="8.1572799"><ele>167.0</ele><time>2026-03-29T12:54:36.143Z</time></trkpt><trkpt lat="45.2907515" lon="8.1571621"><ele>167.0</ele><time>2026-03-29T12:54:37.121Z</time></trkpt><trkpt lat="45.2908244" lon="8.1570578"><ele>167.0</ele><time>2026-03-29T12:54:38.116Z</time></trkpt><trkpt lat="45.2908788" lon="8.1569761"><ele>167.0</ele><time>2026-03-29T12:54:39.144Z</time></trkpt><trkpt lat="45.2909497" lon="8.1568847"><ele>167.0</ele><time>2026-03-29T12:54:41.123Z</time></trkpt><trkpt lat="45.2909954" lon="8.1568177"><ele>167.0</ele><time>2026-03-29T12:54:44.124Z</time></trkpt><trkpt lat="45.2910476" lon="8.1567437"><ele>167.0</ele><time>2026-03-29T12:54:47.119Z</time></trkpt><trkpt lat="45.291136" lon="8.1566379"><ele>167.0</ele><time>2026-03-29T12:54:49.117Z</time></trkpt><trkpt lat="45.2911914" lon="8.1565514"><ele>167.0</ele><time>2026-03-29T12:54:50.115Z</time></trkpt><trkpt lat="45.2912618" lon="8.1564553"><ele>167.0</ele><time>2026-03-29T12:54:51.115Z</time></trkpt><trkpt lat="45.2913372" lon="8.1563518"><ele>167.25</ele><time>2026-03-29T12:54:52.12Z</time></trkpt><trkpt lat="45.2914199" lon="8.1562405"><ele>167.5</ele><time>2026-03-29T12:54:53.127Z</time></trkpt><trkpt lat="45.2915055" lon="8.156124"><ele>167.75</ele><time>2026-03-29T12:54:54.114Z</time></trkpt><trkpt lat="45.291593" lon="8.1560074"><ele>168.0</ele><time>2026-03-29T12:54:55.122Z</time></trkpt><trkpt lat="45.2916772" lon="8.1558903"><ele>168.0</ele><time>2026-03-29T12:54:56.123Z</time></trkpt><trkpt lat="45.2917635" lon="8.1557736"><ele>168.0</ele><time>2026-03-29T12:54:57.117Z</time></trkpt><trkpt lat="45.2918476" lon="8.1556458"><ele>168.0</ele><time>2026-03-29T12:54:58.154Z</time></trkpt><trkpt lat="45.291925" lon="8.155516"><ele>168.0</ele><time>2026-03-29T12:54:59.117Z</time></trkpt><trkpt lat="45.2919978" lon="8.155374"><ele>168.0</ele><time>2026-03-29T12:55:00.113Z</time></trkpt><trkpt lat="45.2920652" lon="8.1552317"><ele>168.0</ele><time>2026-03-29T12:55:01.135Z</time></trkpt><trkpt lat="45.2921322" lon="8.1550922"><ele>168.0</ele><time>2026-03-29T12:55:02.125Z</time></trkpt><trkpt lat="45.2922133" lon="8.1549676"><ele>168.0</ele><time>2026-03-29T12:55:03.107Z</time></trkpt><trkpt lat="45.2923017" lon="8.1548654"><ele>168.0</ele><time>2026-03-29T12:55:04.123Z</time></trkpt><trkpt lat="45.2923928" lon="8.1547519"><ele>168.0</ele><time>2026-03-29T12:55:05.12Z</time></trkpt><trkpt lat="45.2924769" lon="8.154634"><ele>168.0</ele><time>2026-03-29T12:55:06.114Z</time></trkpt><trkpt lat="45.2925579" lon="8.1545114"><ele>168.0</ele><time>2026-03-29T12:55:07.125Z</time></trkpt><trkpt lat="45.2926458" lon="8.154375"><ele>168.0</ele><time>2026-03-29T12:55:08.135Z</time></trkpt><trkpt lat="45.292736" lon="8.1542346"><ele>168.0</ele><time>2026-03-29T12:55:09.098Z</time></trkpt><trkpt lat="45.2928279" lon="8.1540941"><ele>168.0</ele><time>2026-03-29T12:55:10.137Z</time></trkpt><trkpt lat="45.2929199" lon="8.1539456"><ele>168.0</ele><time>2026-03-29T12:55:11.132Z</time></trkpt><trkpt lat="45.2930135" lon="8.1537821"><ele>168.0</ele><time>2026-03-29T12:55:12.115Z</time></trkpt><trkpt lat="45.2931086" lon="8.1536116"><ele>168.0</ele><time>2026-03-29T12:55:13.136Z</time></trkpt><trkpt lat="45.2932013" lon="8.1534532"><ele>168.0</ele><time>2026-03-29T12:55:14.132Z</time></trkpt><trkpt lat="45.2932913" lon="8.1533009"><ele>168.0</ele><time>2026-03-29T12:55:15.124Z</time></trkpt><trkpt lat="45.293384" lon="8.153133"><ele>168.0</ele><time>2026-03-29T12:55:16.134Z</time></trkpt><trkpt lat="45.2934781" lon="8.1529581"><ele>168.0</ele><time>2026-03-29T12:55:17.117Z</time></trkpt><trkpt lat="45.2935807" lon="8.1527869"><ele>168.0</ele><time>2026-03-29T12:55:18.139Z</time></trkpt><trkpt lat="45.2936815" lon="8.1526218"><ele>168.0</ele><time>2026-03-29T12:55:19.125Z</time></trkpt><trkpt lat="45.2937767" lon="8.1524601"><ele>168.0</ele><time>2026-03-29T12:55:20.125Z</time></trkpt><trkpt lat="45.2938723" lon="8.152292"><ele>168.0</ele><time>2026-03-29T12:55:21.121Z</time></trkpt><trkpt lat="45.293959" lon="8.1521198"><ele>168.0</ele><time>2026-03-29T12:55:22.123Z</time></trkpt><trkpt lat="45.2940362" lon="8.1519249"><ele>168.33333333333334</ele><time>2026-03-29T12:55:23.126Z</time></trkpt><trkpt lat="45.2941099" lon="8.1517321"><ele>168.66666666666669</ele><time>2026-03-29T12:55:24.111Z</time></trkpt><trkpt lat="45.2941838" lon="8.1515389"><ele>169.0</ele><time>2026-03-29T12:55:25.128Z</time></trkpt><trkpt lat="45.2942602" lon="8.1513472"><ele>169.0</ele><time>2026-03-29T12:55:26.117Z</time></trkpt><trkpt lat="45.2943384" lon="8.1511554"><ele>169.0</ele><time>2026-03-29T12:55:27.12Z</time></trkpt><trkpt lat="45.2944208" lon="8.1509579"><ele>169.0</ele><time>2026-03-29T12:55:28.122Z</time></trkpt><trkpt lat="45.294496" lon="8.1507606"><ele>169.33333333333334</ele><time>2026-03-29T12:55:29.127Z</time></trkpt><trkpt lat="45.2945697" lon="8.150559"><ele>169.66666666666666</ele><time>2026-03-29T12:55:30.116Z</time></trkpt><trkpt lat="45.2946443" lon="8.1503489"><ele>170.0</ele><time>2026-03-29T12:55:31.128Z</time></trkpt><trkpt lat="45.2947203" lon="8.150141"><ele>170.0</ele><time>2026-03-29T12:55:32.128Z</time></trkpt><trkpt lat="45.2947929" lon="8.1499397"><ele>170.0</ele><time>2026-03-29T12:55:33.109Z</time></trkpt><trkpt lat="45.2948668" lon="8.149741"><ele>170.0</ele><time>2026-03-29T12:55:34.131Z</time></trkpt><trkpt lat="45.2949384" lon="8.1495478"><ele>169.66666666666666</ele><time>2026-03-29T12:55:35.124Z</time></trkpt><trkpt lat="45.2950095" lon="8.1493474"><ele>169.33333333333334</ele><time>2026-03-29T12:55:36.121Z</time></trkpt><trkpt lat="45.2950851" lon="8.1491588"><ele>169.0</ele><time>2026-03-29T12:55:37.129Z</time></trkpt><trkpt lat="45.2951605" lon="8.1489795"><ele>169.0</ele><time>2026-03-29T12:55:38.122Z</time></trkpt><trkpt lat="45.2952366" lon="8.1488003"><ele>169.0</ele><time>2026-03-29T12:55:39.141Z</time></trkpt><trkpt lat="45.2953194" lon="8.1486288"><ele>169.0</ele><time>2026-03-29T12:55:40.12Z</time></trkpt><trkpt lat="45.2954036" lon="8.1484628"><ele>169.0</ele><time>2026-03-29T12:55:41.117Z</time></trkpt><trkpt lat="45.2954901" lon="8.1482917"><ele>168.66666666666669</ele><time>2026-03-29T12:55:42.124Z</time></trkpt><trkpt lat="45.2955785" lon="8.1481192"><ele>168.33333333333334</ele><time>2026-03-29T12:55:43.117Z</time></trkpt><trkpt lat="45.2956666" lon="8.1479442"><ele>168.0</ele><time>2026-03-29T12:55:44.121Z</time></trkpt><trkpt lat="45.2957543" lon="8.1477552"><ele>168.0</ele><time>2026-03-29T12:55:45.116Z</time></trkpt><trkpt lat="45.2958423" lon="8.1475633"><ele>168.0</ele><time>2026-03-29T12:55:46.125Z</time></trkpt><trkpt lat="45.295924" lon="8.1473615"><ele>168.0</ele><time>2026-03-29T12:55:47.118Z</time></trkpt><trkpt lat="45.29601" lon="8.1471525"><ele>168.66666666666666</ele><time>2026-03-29T12:55:48.145Z</time></trkpt><trkpt lat="45.2960975" lon="8.1469351"><ele>169.33333333333331</ele><time>2026-03-29T12:55:49.117Z</time></trkpt><trkpt lat="45.296187" lon="8.1467146"><ele>170.0</ele><time>2026-03-29T12:55:50.119Z</time></trkpt><trkpt lat="45.29628" lon="8.1464973"><ele>170.33333333333331</ele><time>2026-03-29T12:55:51.12Z</time></trkpt><trkpt lat="45.2963737" lon="8.1462864"><ele>170.66666666666666</ele><time>2026-03-29T12:55:52.124Z</time></trkpt><trkpt lat="45.2964619" lon="8.1460769"><ele>171.0</ele><time>2026-03-29T12:55:53.116Z</time></trkpt><trkpt lat="45.2965495" lon="8.1458684"><ele>171.0</ele><time>2026-03-29T12:55:54.126Z</time></trkpt><trkpt lat="45.296632" lon="8.145669"><ele>171.0</ele><time>2026-03-29T12:55:55.127Z</time></trkpt><trkpt lat="45.2967122" lon="8.1454666"><ele>171.0</ele><time>2026-03-29T12:55:56.123Z</time></trkpt><trkpt lat="45.2967896" lon="8.1452666"><ele>171.0</ele><time>2026-03-29T12:55:57.152Z</time></trkpt><trkpt lat="45.2968613" lon="8.1450634"><ele>171.0</ele><time>2026-03-29T12:55:58.132Z</time></trkpt><trkpt lat="45.2969318" lon="8.1448537"><ele>171.0</ele><time>2026-03-29T12:55:59.122Z</time></trkpt><trkpt lat="45.2970001" lon="8.1446376"><ele>171.33333333333334</ele><time>2026-03-29T12:56:00.124Z</time></trkpt><trkpt lat="45.2970631" lon="8.1444179"><ele>171.66666666666669</ele><time>2026-03-29T12:56:01.122Z</time></trkpt><trkpt lat="45.2971256" lon="8.1441933"><ele>172.0</ele><time>2026-03-29T12:56:02.118Z</time></trkpt><trkpt lat="45.2971917" lon="8.1439677"><ele>171.66666666666669</ele><time>2026-03-29T12:56:03.119Z</time></trkpt><trkpt lat="45.2972714" lon="8.1437531"><ele>171.33333333333334</ele><time>2026-03-29T12:56:04.148Z</time></trkpt><trkpt lat="45.2973553" lon="8.1435414"><ele>171.0</ele><time>2026-03-29T12:56:05.115Z</time></trkpt><trkpt lat="45.2974426" lon="8.1433359"><ele>171.0</ele><time>2026-03-29T12:56:06.137Z</time></trkpt><trkpt lat="45.2975325" lon="8.1431196"><ele>171.0</ele><time>2026-03-29T12:56:07.117Z</time></trkpt><trkpt lat="45.2976222" lon="8.1429024"><ele>171.0</ele><time>2026-03-29T12:56:08.116Z</time></trkpt><trkpt lat="45.2977119" lon="8.1426782"><ele>171.0</ele><time>2026-03-29T12:56:09.11Z</time></trkpt><trkpt lat="45.2977967" lon="8.1424583"><ele>171.0</ele><time>2026-03-29T12:56:10.13Z</time></trkpt><trkpt lat="45.2978738" lon="8.142236"><ele>171.0</ele><time>2026-03-29T12:56:11.12Z</time></trkpt><trkpt lat="45.2979441" lon="8.1420154"><ele>171.0</ele><time>2026-03-29T12:56:12.109Z</time></trkpt><trkpt lat="45.2980188" lon="8.1417976"><ele>171.0</ele><time>2026-03-29T12:56:13.132Z</time></trkpt><trkpt lat="45.2980977" lon="8.1415913"><ele>171.0</ele><time>2026-03-29T12:56:14.123Z</time></trkpt><trkpt lat="45.298184" lon="8.1413831"><ele>171.33333333333334</ele><time>2026-03-29T12:56:15.161Z</time></trkpt><trkpt lat="45.2982773" lon="8.1411732"><ele>171.66666666666669</ele><time>2026-03-29T12:56:16.113Z</time></trkpt><trkpt lat="45.2983716" lon="8.1409573"><ele>172.0</ele><time>2026-03-29T12:56:17.115Z</time></trkpt><trkpt lat="45.2984675" lon="8.1407442"><ele>172.33333333333334</ele><time>2026-03-29T12:56:18.115Z</time></trkpt><trkpt lat="45.2985626" lon="8.1405319"><ele>172.66666666666666</ele><time>2026-03-29T12:56:19.118Z</time></trkpt><trkpt lat="45.2986552" lon="8.1403127"><ele>173.0</ele><time>2026-03-29T12:56:20.111Z</time></trkpt><trkpt lat="45.298743" lon="8.1400884"><ele>173.0</ele><time>2026-03-29T12:56:21.131Z</time></trkpt><trkpt lat="45.2988256" lon="8.1398585"><ele>173.0</ele><time>2026-03-29T12:56:22.121Z</time></trkpt><trkpt lat="45.2989067" lon="8.1396336"><ele>173.0</ele><time>2026-03-29T12:56:23.127Z</time></trkpt><trkpt lat="45.2989905" lon="8.1394109"><ele>173.0</ele><time>2026-03-29T12:56:24.121Z</time></trkpt><trkpt lat="45.2990736" lon="8.1391981"><ele>173.0</ele><time>2026-03-29T12:56:25.124Z</time></trkpt><trkpt lat="45.2991501" lon="8.139003"><ele>173.0</ele><time>2026-03-29T12:56:26.126Z</time></trkpt><trkpt lat="45.2992171" lon="8.1388287"><ele>173.4</ele><time>2026-03-29T12:56:27.117Z</time></trkpt><trkpt lat="45.2992754" lon="8.1386814"><ele>173.8</ele><time>2026-03-29T12:56:28.126Z</time></trkpt><trkpt lat="45.2993314" lon="8.1385588"><ele>174.2</ele><time>2026-03-29T12:56:29.125Z</time></trkpt><trkpt lat="45.2993807" lon="8.1384505"><ele>174.6</ele><time>2026-03-29T12:56:30.142Z</time></trkpt><trkpt lat="45.2994094" lon="8.1383579"><ele>175.0</ele><time>2026-03-29T12:56:31.119Z</time></trkpt><trkpt lat="45.2993909" lon="8.1382613"><ele>174.8</ele><time>2026-03-29T12:56:32.137Z</time></trkpt><trkpt lat="45.2993405" lon="8.1381695"><ele>174.6</ele><time>2026-03-29T12:56:33.112Z</time></trkpt><trkpt lat="45.2992482" lon="8.1380837"><ele>174.39999999999998</ele><time>2026-03-29T12:56:34.116Z</time></trkpt><trkpt lat="45.2991412" lon="8.13799"><ele>174.2</ele><time>2026-03-29T12:56:35.115Z</time></trkpt><trkpt lat="45.2990443" lon="8.1378972"><ele>174.0</ele><time>2026-03-29T12:56:36.136Z</time></trkpt><trkpt lat="45.2989449" lon="8.1378027"><ele>174.0</ele><time>2026-03-29T12:56:37.119Z</time></trkpt><trkpt lat="45.2988405" lon="8.1377004"><ele>174.0</ele><time>2026-03-29T12:56:38.131Z</time></trkpt><trkpt lat="45.2987395" lon="8.1376081"><ele>174.0</ele><time>2026-03-29T12:56:39.109Z</time></trkpt><trkpt lat="45.2986477" lon="8.1375166"><ele>174.0</ele><time>2026-03-29T12:56:40.11Z</time></trkpt><trkpt lat="45.298575" lon="8.1374422"><ele>174.0</ele><time>2026-03-29T12:56:41.114Z</time></trkpt><trkpt lat="45.2985085" lon="8.137334"><ele>174.0</ele><time>2026-03-29T12:56:43.127Z</time></trkpt><trkpt lat="45.2985475" lon="8.1371828"><ele>174.0</ele><time>2026-03-29T12:56:45.134Z</time></trkpt><trkpt lat="45.2986087" lon="8.1370899"><ele>174.0</ele><time>2026-03-29T12:56:46.109Z</time></trkpt><trkpt lat="45.29867" lon="8.1369959"><ele>174.0</ele><time>2026-03-29T12:56:47.127Z</time></trkpt><trkpt lat="45.2987361" lon="8.1369006"><ele>174.0</ele><time>2026-03-29T12:56:48.128Z</time></trkpt><trkpt lat="45.298812" lon="8.1367772"><ele>174.0</ele><time>2026-03-29T12:56:49.101Z</time></trkpt><trkpt lat="45.2989109" lon="8.1366348"><ele>174.0</ele><time>2026-03-29T12:56:50.118Z</time></trkpt><trkpt lat="45.2990158" lon="8.1364669"><ele>174.0</ele><time>2026-03-29T12:56:51.101Z</time></trkpt><trkpt lat="45.2991336" lon="8.1362964"><ele>174.0</ele><time>2026-03-29T12:56:52.145Z</time></trkpt><trkpt lat="45.2992513" lon="8.1361206"><ele>174.0</ele><time>2026-03-29T12:56:53.116Z</time></trkpt><trkpt lat="45.2993669" lon="8.135948"><ele>174.0</ele><time>2026-03-29T12:56:54.121Z</time></trkpt><trkpt lat="45.2994881" lon="8.1357693"><ele>173.66666666666666</ele><time>2026-03-29T12:56:55.113Z</time></trkpt><trkpt lat="45.2996049" lon="8.135594"><ele>173.33333333333331</ele><time>2026-03-29T12:56:56.123Z</time></trkpt><trkpt lat="45.2997193" lon="8.1354099"><ele>173.0</ele><time>2026-03-29T12:56:57.114Z</time></trkpt><trkpt lat="45.2998322" lon="8.1352295"><ele>173.66666666666666</ele><time>2026-03-29T12:56:58.134Z</time></trkpt><trkpt lat="45.2999492" lon="8.1350505"><ele>174.33333333333334</ele><time>2026-03-29T12:56:59.113Z</time></trkpt><trkpt lat="45.3000669" lon="8.134872"><ele>175.0</ele><time>2026-03-29T12:57:00.114Z</time></trkpt><trkpt lat="45.3001889" lon="8.1346893"><ele>175.0</ele><time>2026-03-29T12:57:01.108Z</time></trkpt><trkpt lat="45.3003051" lon="8.1345112"><ele>175.0</ele><time>2026-03-29T12:57:02.109Z</time></trkpt><trkpt lat="45.3004209" lon="8.1343298"><ele>175.0</ele><time>2026-03-29T12:57:03.12Z</time></trkpt><trkpt lat="45.3005281" lon="8.1341373"><ele>175.0</ele><time>2026-03-29T12:57:04.12Z</time></trkpt><trkpt lat="45.3006374" lon="8.1339474"><ele>175.0</ele><time>2026-03-29T12:57:05.126Z</time></trkpt><trkpt lat="45.3007411" lon="8.1337449"><ele>175.0</ele><time>2026-03-29T12:57:06.117Z</time></trkpt><trkpt lat="45.3008457" lon="8.1335499"><ele>175.0</ele><time>2026-03-29T12:57:07.134Z</time></trkpt><trkpt lat="45.300958" lon="8.1333515"><ele>175.0</ele><time>2026-03-29T12:57:08.122Z</time></trkpt><trkpt lat="45.3010703" lon="8.1331445"><ele>175.0</ele><time>2026-03-29T12:57:09.106Z</time></trkpt><trkpt lat="45.3011815" lon="8.1329358"><ele>175.33333333333334</ele><time>2026-03-29T12:57:10.111Z</time></trkpt><trkpt lat="45.3012928" lon="8.1327314"><ele>175.66666666666666</ele><time>2026-03-29T12:57:11.117Z</time></trkpt><trkpt lat="45.3014039" lon="8.1325228"><ele>176.0</ele><time>2026-03-29T12:57:12.132Z</time></trkpt><trkpt lat="45.3015168" lon="8.132318"><ele>176.0</ele><time>2026-03-29T12:57:13.112Z</time></trkpt><trkpt lat="45.3016289" lon="8.1321279"><ele>176.0</ele><time>2026-03-29T12:57:14.118Z</time></trkpt><trkpt lat="45.3017429" lon="8.1319309"><ele>176.0</ele><time>2026-03-29T12:57:15.126Z</time></trkpt><trkpt lat="45.3018571" lon="8.1317376"><ele>176.0</ele><time>2026-03-29T12:57:16.113Z</time></trkpt><trkpt lat="45.3019628" lon="8.1315439"><ele>176.0</ele><time>2026-03-29T12:57:17.146Z</time></trkpt><trkpt lat="45.3020633" lon="8.1313428"><ele>176.0</ele><time>2026-03-29T12:57:18.125Z</time></trkpt><trkpt lat="45.3021633" lon="8.1311486"><ele>176.0</ele><time>2026-03-29T12:57:19.121Z</time></trkpt><trkpt lat="45.3022667" lon="8.1309622"><ele>176.0</ele><time>2026-03-29T12:57:20.115Z</time></trkpt><trkpt lat="45.3023747" lon="8.1307799"><ele>176.0</ele><time>2026-03-29T12:57:21.144Z</time></trkpt><trkpt lat="45.3024866" lon="8.1306003"><ele>176.0</ele><time>2026-03-29T12:57:22.123Z</time></trkpt><trkpt lat="45.3025965" lon="8.1304227"><ele>176.0</ele><time>2026-03-29T12:57:23.118Z</time></trkpt><trkpt lat="45.3027079" lon="8.1302374"><ele>176.0</ele><time>2026-03-29T12:57:24.116Z</time></trkpt><trkpt lat="45.3028229" lon="8.1300423"><ele>175.66666666666666</ele><time>2026-03-29T12:57:25.129Z</time></trkpt><trkpt lat="45.3029385" lon="8.1298527"><ele>175.33333333333334</ele><time>2026-03-29T12:57:26.12Z</time></trkpt><trkpt lat="45.3030543" lon="8.1296575"><ele>175.0</ele><time>2026-03-29T12:57:27.111Z</time></trkpt><trkpt lat="45.3031723" lon="8.129474"><ele>175.66666666666669</ele><time>2026-03-29T12:57:28.129Z</time></trkpt><trkpt lat="45.3032866" lon="8.1292809"><ele>176.33333333333334</ele><time>2026-03-29T12:57:29.131Z</time></trkpt><trkpt lat="45.3034021" lon="8.1290901"><ele>177.0</ele><time>2026-03-29T12:57:30.129Z</time></trkpt><trkpt lat="45.3035153" lon="8.1289004"><ele>177.0</ele><time>2026-03-29T12:57:31.121Z</time></trkpt><trkpt lat="45.3036224" lon="8.1287101"><ele>177.0</ele><time>2026-03-29T12:57:32.13Z</time></trkpt><trkpt lat="45.3037268" lon="8.1285241"><ele>177.0</ele><time>2026-03-29T12:57:33.114Z</time></trkpt><trkpt lat="45.3038321" lon="8.1283274"><ele>177.0</ele><time>2026-03-29T12:57:34.135Z</time></trkpt><trkpt lat="45.3039305" lon="8.1281271"><ele>177.0</ele><time>2026-03-29T12:57:35.117Z</time></trkpt><trkpt lat="45.3040261" lon="8.1279196"><ele>177.0</ele><time>2026-03-29T12:57:36.115Z</time></trkpt><trkpt lat="45.3041195" lon="8.1277017"><ele>177.0</ele><time>2026-03-29T12:57:37.124Z</time></trkpt><trkpt lat="45.3042146" lon="8.1274847"><ele>177.0</ele><time>2026-03-29T12:57:38.115Z</time></trkpt><trkpt lat="45.3043113" lon="8.1272727"><ele>177.0</ele><time>2026-03-29T12:57:39.124Z</time></trkpt><trkpt lat="45.3044078" lon="8.1270707"><ele>177.66666666666666</ele><time>2026-03-29T12:57:40.136Z</time></trkpt><trkpt lat="45.3044977" lon="8.1268616"><ele>178.33333333333331</ele><time>2026-03-29T12:57:41.113Z</time></trkpt><trkpt lat="45.3045847" lon="8.1266694"><ele>179.0</ele><time>2026-03-29T12:57:42.147Z</time></trkpt><trkpt lat="45.3046695" lon="8.12648"><ele>179.33333333333331</ele><time>2026-03-29T12:57:43.128Z</time></trkpt><trkpt lat="45.3047585" lon="8.1262773"><ele>179.66666666666666</ele><time>2026-03-29T12:57:44.107Z</time></trkpt><trkpt lat="45.3048523" lon="8.1260675"><ele>180.0</ele><time>2026-03-29T12:57:45.139Z</time></trkpt><trkpt lat="45.3049477" lon="8.1258598"><ele>180.0</ele><time>2026-03-29T12:57:46.158Z</time></trkpt><trkpt lat="45.3050447" lon="8.1256469"><ele>180.0</ele><time>2026-03-29T12:57:47.121Z</time></trkpt><trkpt lat="45.305139" lon="8.1254404"><ele>180.0</ele><time>2026-03-29T12:57:48.113Z</time></trkpt><trkpt lat="45.3052339" lon="8.1252411"><ele>180.0</ele><time>2026-03-29T12:57:49.112Z</time></trkpt><trkpt lat="45.305326" lon="8.1250443"><ele>180.0</ele><time>2026-03-29T12:57:50.116Z</time></trkpt><trkpt lat="45.3054242" lon="8.1248491"><ele>180.0</ele><time>2026-03-29T12:57:51.123Z</time></trkpt><trkpt lat="45.3055211" lon="8.1246578"><ele>180.33333333333334</ele><time>2026-03-29T12:57:52.128Z</time></trkpt><trkpt lat="45.3056175" lon="8.1244642"><ele>180.66666666666669</ele><time>2026-03-29T12:57:53.124Z</time></trkpt><trkpt lat="45.3057064" lon="8.1242871"><ele>181.0</ele><time>2026-03-29T12:57:54.126Z</time></trkpt><trkpt lat="45.3057867" lon="8.124127"><ele>180.8</ele><time>2026-03-29T12:57:55.115Z</time></trkpt><trkpt lat="45.3058689" lon="8.1239769"><ele>180.60000000000002</ele><time>2026-03-29T12:57:56.126Z</time></trkpt><trkpt lat="45.3059363" lon="8.1238285"><ele>180.4</ele><time>2026-03-29T12:57:57.115Z</time></trkpt><trkpt lat="45.3059927" lon="8.1236988"><ele>180.2</ele><time>2026-03-29T12:57:58.127Z</time></trkpt><trkpt lat="45.3060312" lon="8.1236155"><ele>180.0</ele><time>2026-03-29T12:57:59.126Z</time></trkpt><trkpt lat="45.3060527" lon="8.1235126"><ele>180.0</ele><time>2026-03-29T12:58:01.118Z</time></trkpt><trkpt lat="45.3060427" lon="8.1233952"><ele>180.0</ele><time>2026-03-29T12:58:05.116Z</time></trkpt><trkpt lat="45.3059844" lon="8.1233088"><ele>180.0</ele><time>2026-03-29T12:58:06.118Z</time></trkpt><trkpt lat="45.3058961" lon="8.123229"><ele>180.0</ele><time>2026-03-29T12:58:07.121Z</time></trkpt><trkpt lat="45.3057948" lon="8.1231431"><ele>180.0</ele><time>2026-03-29T12:58:08.143Z</time></trkpt><trkpt lat="45.3056826" lon="8.1230557"><ele>180.25</ele><time>2026-03-29T12:58:09.117Z</time></trkpt><trkpt lat="45.3055757" lon="8.1229601"><ele>180.5</ele><time>2026-03-29T12:58:10.125Z</time></trkpt><trkpt lat="45.3054755" lon="8.1228532"><ele>180.75</ele><time>2026-03-29T12:58:11.115Z</time></trkpt><trkpt lat="45.3053804" lon="8.1227341"><ele>181.0</ele><time>2026-03-29T12:58:12.113Z</time></trkpt><trkpt lat="45.3053034" lon="8.1225955"><ele>181.0</ele><time>2026-03-29T12:58:13.102Z</time></trkpt><trkpt lat="45.3052457" lon="8.1224459"><ele>181.0</ele><time>2026-03-29T12:58:14.119Z</time></trkpt><trkpt lat="45.3052237" lon="8.1223049"><ele>181.0</ele><time>2026-03-29T12:58:15.115Z</time></trkpt><trkpt lat="45.3052243" lon="8.1221662"><ele>181.0</ele><time>2026-03-29T12:58:16.098Z</time></trkpt><trkpt lat="45.3052402" lon="8.1220244"><ele>181.0</ele><time>2026-03-29T12:58:17.104Z</time></trkpt><trkpt lat="45.3052758" lon="8.1218815"><ele>181.0</ele><time>2026-03-29T12:58:18.104Z</time></trkpt><trkpt lat="45.3053233" lon="8.1217308"><ele>181.0</ele><time>2026-03-29T12:58:19.122Z</time></trkpt><trkpt lat="45.305377" lon="8.121568"><ele>181.0</ele><time>2026-03-29T12:58:20.121Z</time></trkpt><trkpt lat="45.3054379" lon="8.121412"><ele>181.0</ele><time>2026-03-29T12:58:21.125Z</time></trkpt><trkpt lat="45.3055067" lon="8.1212536"><ele>181.0</ele><time>2026-03-29T12:58:22.139Z</time></trkpt><trkpt lat="45.3055776" lon="8.1210976"><ele>181.0</ele><time>2026-03-29T12:58:23.116Z</time></trkpt><trkpt lat="45.3056438" lon="8.1209523"><ele>181.0</ele><time>2026-03-29T12:58:24.113Z</time></trkpt><trkpt lat="45.3057015" lon="8.1208175"><ele>181.0</ele><time>2026-03-29T12:58:25.113Z</time></trkpt><trkpt lat="45.3057577" lon="8.1207024"><ele>181.20000000000002</ele><time>2026-03-29T12:58:26.11Z</time></trkpt><trkpt lat="45.3057992" lon="8.1206121"><ele>181.4</ele><time>2026-03-29T12:58:27.113Z</time></trkpt><trkpt lat="45.3058771" lon="8.1205036"><ele>181.6</ele><time>2026-03-29T12:58:29.111Z</time></trkpt><trkpt lat="45.3058906" lon="8.1204091"><ele>181.8</ele><time>2026-03-29T12:58:31.129Z</time></trkpt><trkpt lat="45.3057924" lon="8.1202923"><ele>182.0</ele><time>2026-03-29T12:58:33.118Z</time></trkpt><trkpt lat="45.3057251" lon="8.1202286"><ele>182.0</ele><time>2026-03-29T12:58:34.121Z</time></trkpt><trkpt lat="45.3056446" lon="8.1201457"><ele>182.0</ele><time>2026-03-29T12:58:35.127Z</time></trkpt><trkpt lat="45.3055615" lon="8.1200509"><ele>182.0</ele><time>2026-03-29T12:58:36.129Z</time></trkpt><trkpt lat="45.305485" lon="8.119947"><ele>182.0</ele><time>2026-03-29T12:58:37.124Z</time></trkpt><trkpt lat="45.3054033" lon="8.1198289"><ele>182.0</ele><time>2026-03-29T12:58:38.119Z</time></trkpt><trkpt lat="45.3053191" lon="8.1197009"><ele>182.5</ele><time>2026-03-29T12:58:39.114Z</time></trkpt><trkpt lat="45.3052384" lon="8.1195713"><ele>183.0</ele><time>2026-03-29T12:58:40.117Z</time></trkpt><trkpt lat="45.3051517" lon="8.1194388"><ele>183.5</ele><time>2026-03-29T12:58:41.123Z</time></trkpt><trkpt lat="45.3050609" lon="8.1192982"><ele>184.0</ele><time>2026-03-29T12:58:42.115Z</time></trkpt><trkpt lat="45.3049665" lon="8.1191549"><ele>184.0</ele><time>2026-03-29T12:58:43.105Z</time></trkpt><trkpt lat="45.3048748" lon="8.119003"><ele>184.0</ele><time>2026-03-29T12:58:44.133Z</time></trkpt><trkpt lat="45.3047831" lon="8.1188547"><ele>184.0</ele><time>2026-03-29T12:58:45.108Z</time></trkpt><trkpt lat="45.3047002" lon="8.1187"><ele>184.0</ele><time>2026-03-29T12:58:46.113Z</time></trkpt><trkpt lat="45.3046108" lon="8.1185512"><ele>183.5</ele><time>2026-03-29T12:58:47.126Z</time></trkpt><trkpt lat="45.3045222" lon="8.1184088"><ele>183.0</ele><time>2026-03-29T12:58:48.113Z</time></trkpt><trkpt lat="45.3044332" lon="8.1182768"><ele>182.5</ele><time>2026-03-29T12:58:49.115Z</time></trkpt><trkpt lat="45.3043591" lon="8.1181558"><ele>182.0</ele><time>2026-03-29T12:58:50.122Z</time></trkpt><trkpt lat="45.3042879" lon="8.1180356"><ele>182.0</ele><time>2026-03-29T12:58:51.124Z</time></trkpt><trkpt lat="45.3042131" lon="8.1179081"><ele>182.0</ele><time>2026-03-29T12:58:52.121Z</time></trkpt><trkpt lat="45.3041352" lon="8.1177876"><ele>182.0</ele><time>2026-03-29T12:58:53.132Z</time></trkpt><trkpt lat="45.3040557" lon="8.1176642"><ele>182.0</ele><time>2026-03-29T12:58:54.119Z</time></trkpt><trkpt lat="45.3039817" lon="8.1175477"><ele>182.0</ele><time>2026-03-29T12:58:55.129Z</time></trkpt><trkpt lat="45.3039019" lon="8.117426"><ele>182.0</ele><time>2026-03-29T12:58:56.129Z</time></trkpt><trkpt lat="45.3038318" lon="8.1173034"><ele>182.0</ele><time>2026-03-29T12:58:57.121Z</time></trkpt><trkpt lat="45.30376" lon="8.1171817"><ele>182.0</ele><time>2026-03-29T12:58:58.149Z</time></trkpt><trkpt lat="45.3036848" lon="8.1170613"><ele>182.0</ele><time>2026-03-29T12:58:59.11Z</time></trkpt><trkpt lat="45.3036092" lon="8.1169401"><ele>182.0</ele><time>2026-03-29T12:59:00.149Z</time></trkpt><trkpt lat="45.3035293" lon="8.1168272"><ele>182.0</ele><time>2026-03-29T12:59:01.116Z</time></trkpt><trkpt lat="45.3034526" lon="8.1167003"><ele>182.0</ele><time>2026-03-29T12:59:02.13Z</time></trkpt><trkpt lat="45.3033684" lon="8.1165602"><ele>182.0</ele><time>2026-03-29T12:59:03.108Z</time></trkpt><trkpt lat="45.3032772" lon="8.1164195"><ele>182.0</ele><time>2026-03-29T12:59:04.108Z</time></trkpt><trkpt lat="45.3031849" lon="8.1162698"><ele>182.0</ele><time>2026-03-29T12:59:05.114Z</time></trkpt><trkpt lat="45.3030909" lon="8.1161156"><ele>182.0</ele><time>2026-03-29T12:59:06.108Z</time></trkpt><trkpt lat="45.3029961" lon="8.1159575"><ele>182.0</ele><time>2026-03-29T12:59:07.128Z</time></trkpt><trkpt lat="45.3029" lon="8.1157965"><ele>182.0</ele><time>2026-03-29T12:59:08.111Z</time></trkpt><trkpt lat="45.3027977" lon="8.1156209"><ele>182.0</ele><time>2026-03-29T12:59:09.116Z</time></trkpt><trkpt lat="45.3026906" lon="8.1154476"><ele>182.0</ele><time>2026-03-29T12:59:10.117Z</time></trkpt><trkpt lat="45.3025815" lon="8.1152721"><ele>182.0</ele><time>2026-03-29T12:59:11.111Z</time></trkpt><trkpt lat="45.3024679" lon="8.1150861"><ele>182.0</ele><time>2026-03-29T12:59:12.107Z</time></trkpt><trkpt lat="45.3023531" lon="8.1148927"><ele>181.66666666666666</ele><time>2026-03-29T12:59:13.113Z</time></trkpt><trkpt lat="45.3022299" lon="8.1147039"><ele>181.33333333333334</ele><time>2026-03-29T12:59:14.129Z</time></trkpt><trkpt lat="45.3021088" lon="8.1145097"><ele>181.0</ele><time>2026-03-29T12:59:15.128Z</time></trkpt><trkpt lat="45.3019983" lon="8.1143338"><ele>181.0</ele><time>2026-03-29T12:59:16.107Z</time></trkpt><trkpt lat="45.3018983" lon="8.1141818"><ele>181.0</ele><time>2026-03-29T12:59:17.137Z</time></trkpt><trkpt lat="45.3018234" lon="8.114052"><ele>181.0</ele><time>2026-03-29T12:59:18.104Z</time></trkpt><trkpt lat="45.3017731" lon="8.1139322"><ele>181.0</ele><time>2026-03-29T12:59:19.119Z</time></trkpt><trkpt lat="45.3017425" lon="8.1138199"><ele>181.0</ele><time>2026-03-29T12:59:20.124Z</time></trkpt><trkpt lat="45.3017476" lon="8.1137287"><ele>181.0</ele><time>2026-03-29T12:59:21.119Z</time></trkpt><trkpt lat="45.3017918" lon="8.1136364"><ele>181.0</ele><time>2026-03-29T12:59:22.107Z</time></trkpt><trkpt lat="45.3018677" lon="8.1135311"><ele>181.0</ele><time>2026-03-29T12:59:23.112Z</time></trkpt><trkpt lat="45.3019635" lon="8.1134312"><ele>181.0</ele><time>2026-03-29T12:59:24.126Z</time></trkpt><trkpt lat="45.3020845" lon="8.1133574"><ele>181.0</ele><time>2026-03-29T12:59:25.118Z</time></trkpt><trkpt lat="45.3022158" lon="8.1132812"><ele>181.33333333333334</ele><time>2026-03-29T12:59:26.121Z</time></trkpt><trkpt lat="45.3023606" lon="8.1131815"><ele>181.66666666666666</ele><time>2026-03-29T12:59:27.104Z</time></trkpt><trkpt lat="45.3025066" lon="8.1130727"><ele>182.0</ele><time>2026-03-29T12:59:28.137Z</time></trkpt><trkpt lat="45.3026498" lon="8.1129508"><ele>182.0</ele><time>2026-03-29T12:59:29.121Z</time></trkpt><trkpt lat="45.3027953" lon="8.1128331"><ele>182.0</ele><time>2026-03-29T12:59:30.125Z</time></trkpt><trkpt lat="45.3029382" lon="8.1127145"><ele>182.0</ele><time>2026-03-29T12:59:31.11Z</time></trkpt><trkpt lat="45.3030858" lon="8.1125857"><ele>181.66666666666666</ele><time>2026-03-29T12:59:32.114Z</time></trkpt><trkpt lat="45.3032351" lon="8.1124637"><ele>181.33333333333334</ele><time>2026-03-29T12:59:33.118Z</time></trkpt><trkpt lat="45.3033883" lon="8.1123374"><ele>181.0</ele><time>2026-03-29T12:59:34.114Z</time></trkpt><trkpt lat="45.3035443" lon="8.1122134"><ele>181.0</ele><time>2026-03-29T12:59:35.112Z</time></trkpt><trkpt lat="45.3036975" lon="8.1120853"><ele>181.0</ele><time>2026-03-29T12:59:36.125Z</time></trkpt><trkpt lat="45.3038497" lon="8.111961"><ele>181.0</ele><time>2026-03-29T12:59:37.114Z</time></trkpt><trkpt lat="45.3040002" lon="8.1118312"><ele>181.66666666666669</ele><time>2026-03-29T12:59:38.121Z</time></trkpt><trkpt lat="45.304156" lon="8.111705"><ele>182.33333333333334</ele><time>2026-03-29T12:59:39.126Z</time></trkpt><trkpt lat="45.3043116" lon="8.1115798"><ele>183.0</ele><time>2026-03-29T12:59:40.126Z</time></trkpt><trkpt lat="45.3044613" lon="8.1114529"><ele>183.0</ele><time>2026-03-29T12:59:41.117Z</time></trkpt><trkpt lat="45.3046125" lon="8.1113285"><ele>183.0</ele><time>2026-03-29T12:59:42.111Z</time></trkpt><trkpt lat="45.3047606" lon="8.1112113"><ele>183.0</ele><time>2026-03-29T12:59:43.114Z</time></trkpt><trkpt lat="45.3049039" lon="8.1110935"><ele>183.0</ele><time>2026-03-29T12:59:44.119Z</time></trkpt><trkpt lat="45.3050449" lon="8.1109716"><ele>183.0</ele><time>2026-03-29T12:59:45.126Z</time></trkpt><trkpt lat="45.3051793" lon="8.1108552"><ele>183.0</ele><time>2026-03-29T12:59:46.123Z</time></trkpt><trkpt lat="45.3053177" lon="8.1107432"><ele>183.0</ele><time>2026-03-29T12:59:47.139Z</time></trkpt><trkpt lat="45.3054539" lon="8.1106337"><ele>183.0</ele><time>2026-03-29T12:59:48.121Z</time></trkpt><trkpt lat="45.3055849" lon="8.1105246"><ele>183.0</ele><time>2026-03-29T12:59:49.1Z</time></trkpt><trkpt lat="45.3057146" lon="8.110414"><ele>183.33333333333334</ele><time>2026-03-29T12:59:50.119Z</time></trkpt><trkpt lat="45.305844" lon="8.110306"><ele>183.66666666666669</ele><time>2026-03-29T12:59:51.117Z</time></trkpt><trkpt lat="45.3059724" lon="8.1101938"><ele>184.0</ele><time>2026-03-29T12:59:52.12Z</time></trkpt><trkpt lat="45.306103" lon="8.1100795"><ele>184.0</ele><time>2026-03-29T12:59:53.125Z</time></trkpt><trkpt lat="45.3062333" lon="8.1099711"><ele>184.0</ele><time>2026-03-29T12:59:54.123Z</time></trkpt><trkpt lat="45.3063663" lon="8.1098729"><ele>184.0</ele><time>2026-03-29T12:59:55.105Z</time></trkpt><trkpt lat="45.3064988" lon="8.1097816"><ele>184.0</ele><time>2026-03-29T12:59:56.136Z</time></trkpt><trkpt lat="45.3066342" lon="8.1097087"><ele>183.33333333333334</ele><time>2026-03-29T12:59:57.119Z</time></trkpt><trkpt lat="45.3067777" lon="8.1096631"><ele>182.66666666666666</ele><time>2026-03-29T12:59:58.121Z</time></trkpt><trkpt lat="45.3069302" lon="8.1096502"><ele>182.0</ele><time>2026-03-29T12:59:59.121Z</time></trkpt><trkpt lat="45.307083" lon="8.1096642"><ele>182.0</ele><time>2026-03-29T13:00:00.118Z</time></trkpt><trkpt lat="45.3072417" lon="8.1097174"><ele>182.0</ele><time>2026-03-29T13:00:01.11Z</time></trkpt><trkpt lat="45.3073955" lon="8.1098001"><ele>182.0</ele><time>2026-03-29T13:00:02.116Z</time></trkpt><trkpt lat="45.3075412" lon="8.1099196"><ele>182.33333333333331</ele><time>2026-03-29T13:00:03.123Z</time></trkpt><trkpt lat="45.3076841" lon="8.110067"><ele>182.66666666666666</ele><time>2026-03-29T13:00:04.127Z</time></trkpt><trkpt lat="45.3078221" lon="8.1102261"><ele>183.0</ele><time>2026-03-29T13:00:05.128Z</time></trkpt><trkpt lat="45.3079529" lon="8.1103986"><ele>183.33333333333334</ele><time>2026-03-29T13:00:06.154Z</time></trkpt><trkpt lat="45.3080805" lon="8.1105655"><ele>183.66666666666669</ele><time>2026-03-29T13:00:07.129Z</time></trkpt><trkpt lat="45.3082141" lon="8.1107352"><ele>184.0</ele><time>2026-03-29T13:00:08.128Z</time></trkpt><trkpt lat="45.308346" lon="8.1109007"><ele>184.0</ele><time>2026-03-29T13:00:09.136Z</time></trkpt><trkpt lat="45.3084786" lon="8.1110602"><ele>184.0</ele><time>2026-03-29T13:00:10.13Z</time></trkpt><trkpt lat="45.3086058" lon="8.1112192"><ele>184.0</ele><time>2026-03-29T13:00:11.117Z</time></trkpt><trkpt lat="45.308726" lon="8.111372"><ele>184.0</ele><time>2026-03-29T13:00:12.113Z</time></trkpt><trkpt lat="45.308836" lon="8.1115109"><ele>184.0</ele><time>2026-03-29T13:00:13.121Z</time></trkpt><trkpt lat="45.3089412" lon="8.1116486"><ele>184.0</ele><time>2026-03-29T13:00:14.144Z</time></trkpt><trkpt lat="45.3090445" lon="8.1117743"><ele>184.0</ele><time>2026-03-29T13:00:15.115Z</time></trkpt><trkpt lat="45.3091321" lon="8.1118933"><ele>184.0</ele><time>2026-03-29T13:00:16.12Z</time></trkpt><trkpt lat="45.3092023" lon="8.1119957"><ele>184.0</ele><time>2026-03-29T13:00:17.121Z</time></trkpt><trkpt lat="45.3092563" lon="8.1121057"><ele>184.0</ele><time>2026-03-29T13:00:18.121Z</time></trkpt><trkpt lat="45.30928" lon="8.1122283"><ele>184.0</ele><time>2026-03-29T13:00:19.125Z</time></trkpt><trkpt lat="45.3092859" lon="8.11235"><ele>184.0</ele><time>2026-03-29T13:00:20.118Z</time></trkpt><trkpt lat="45.3093139" lon="8.1124751"><ele>184.0</ele><time>2026-03-29T13:00:21.118Z</time></trkpt><trkpt lat="45.3093708" lon="8.1125708"><ele>184.0</ele><time>2026-03-29T13:00:22.125Z</time></trkpt><trkpt lat="45.3094498" lon="8.1126329"><ele>184.0</ele><time>2026-03-29T13:00:23.113Z</time></trkpt><trkpt lat="45.3095394" lon="8.112652"><ele>184.0</ele><time>2026-03-29T13:00:24.117Z</time></trkpt><trkpt lat="45.3096216" lon="8.1126421"><ele>184.0</ele><time>2026-03-29T13:00:25.119Z</time></trkpt><trkpt lat="45.3096808" lon="8.1125671"><ele>184.0</ele><time>2026-03-29T13:00:26.13Z</time></trkpt><trkpt lat="45.3097188" lon="8.1124267"><ele>184.0</ele><time>2026-03-29T13:00:27.124Z</time></trkpt><trkpt lat="45.3097412" lon="8.1122803"><ele>184.0</ele><time>2026-03-29T13:00:28.135Z</time></trkpt><trkpt lat="45.3097594" lon="8.112123"><ele>184.0</ele><time>2026-03-29T13:00:29.105Z</time></trkpt><trkpt lat="45.3098007" lon="8.111958"><ele>184.0</ele><time>2026-03-29T13:00:30.132Z</time></trkpt><trkpt lat="45.3098772" lon="8.1117793"><ele>184.0</ele><time>2026-03-29T13:00:31.11Z</time></trkpt><trkpt lat="45.3099733" lon="8.1115942"><ele>184.0</ele><time>2026-03-29T13:00:32.117Z</time></trkpt><trkpt lat="45.3100728" lon="8.1114168"><ele>184.0</ele><time>2026-03-29T13:00:33.12Z</time></trkpt><trkpt lat="45.3101835" lon="8.1112302"><ele>184.33333333333334</ele><time>2026-03-29T13:00:34.111Z</time></trkpt><trkpt lat="45.3102966" lon="8.1110412"><ele>184.66666666666666</ele><time>2026-03-29T13:00:35.122Z</time></trkpt><trkpt lat="45.3104104" lon="8.1108509"><ele>185.0</ele><time>2026-03-29T13:00:36.137Z</time></trkpt><trkpt lat="45.3105252" lon="8.1106502"><ele>185.0</ele><time>2026-03-29T13:00:37.132Z</time></trkpt><trkpt lat="45.3106349" lon="8.1104502"><ele>185.0</ele><time>2026-03-29T13:00:38.137Z</time></trkpt><trkpt lat="45.3107524" lon="8.1102499"><ele>185.0</ele><time>2026-03-29T13:00:39.131Z</time></trkpt><trkpt lat="45.3108676" lon="8.1100489"><ele>185.0</ele><time>2026-03-29T13:00:40.105Z</time></trkpt><trkpt lat="45.3109894" lon="8.1098441"><ele>185.0</ele><time>2026-03-29T13:00:41.115Z</time></trkpt><trkpt lat="45.3111128" lon="8.1096375"><ele>185.0</ele><time>2026-03-29T13:00:42.108Z</time></trkpt><trkpt lat="45.3112323" lon="8.1094224"><ele>185.0</ele><time>2026-03-29T13:00:43.095Z</time></trkpt><trkpt lat="45.3113532" lon="8.109213"><ele>185.0</ele><time>2026-03-29T13:00:44.113Z</time></trkpt><trkpt lat="45.3114752" lon="8.1090016"><ele>185.0</ele><time>2026-03-29T13:00:45.109Z</time></trkpt><trkpt lat="45.3115955" lon="8.108805"><ele>185.33333333333331</ele><time>2026-03-29T13:00:46.121Z</time></trkpt><trkpt lat="45.3117237" lon="8.1086129"><ele>185.66666666666666</ele><time>2026-03-29T13:00:47.122Z</time></trkpt><trkpt lat="45.3118599" lon="8.108433"><ele>186.0</ele><time>2026-03-29T13:00:48.122Z</time></trkpt><trkpt lat="45.3120032" lon="8.1082676"><ele>186.0</ele><time>2026-03-29T13:00:49.104Z</time></trkpt><trkpt lat="45.3121586" lon="8.1081186"><ele>186.0</ele><time>2026-03-29T13:00:50.128Z</time></trkpt><trkpt lat="45.3123118" lon="8.1079817"><ele>186.0</ele><time>2026-03-29T13:00:51.129Z</time></trkpt><trkpt lat="45.312467" lon="8.1078447"><ele>186.0</ele><time>2026-03-29T13:00:52.119Z</time></trkpt><trkpt lat="45.3126151" lon="8.1077015"><ele>186.0</ele><time>2026-03-29T13:00:53.125Z</time></trkpt><trkpt lat="45.3127626" lon="8.1075477"><ele>186.0</ele><time>2026-03-29T13:00:54.139Z</time></trkpt><trkpt lat="45.312906" lon="8.1073896"><ele>186.33333333333334</ele><time>2026-03-29T13:00:55.107Z</time></trkpt><trkpt lat="45.3130541" lon="8.1072208"><ele>186.66666666666669</ele><time>2026-03-29T13:00:56.122Z</time></trkpt><trkpt lat="45.3132035" lon="8.1070376"><ele>187.0</ele><time>2026-03-29T13:00:57.124Z</time></trkpt><trkpt lat="45.3133496" lon="8.1068435"><ele>187.0</ele><time>2026-03-29T13:00:58.116Z</time></trkpt><trkpt lat="45.3134885" lon="8.1066381"><ele>187.0</ele><time>2026-03-29T13:00:59.115Z</time></trkpt><trkpt lat="45.3136272" lon="8.1064283"><ele>187.0</ele><time>2026-03-29T13:01:00.113Z</time></trkpt><trkpt lat="45.3137578" lon="8.1062048"><ele>187.0</ele><time>2026-03-29T13:01:01.121Z</time></trkpt><trkpt lat="45.3138822" lon="8.1059858"><ele>187.0</ele><time>2026-03-29T13:01:02.112Z</time></trkpt><trkpt lat="45.3139983" lon="8.105757"><ele>187.0</ele><time>2026-03-29T13:01:03.13Z</time></trkpt><trkpt lat="45.3141117" lon="8.1055252"><ele>187.33333333333334</ele><time>2026-03-29T13:01:04.127Z</time></trkpt><trkpt lat="45.3142184" lon="8.1052833"><ele>187.66666666666666</ele><time>2026-03-29T13:01:05.133Z</time></trkpt><trkpt lat="45.3143184" lon="8.1050376"><ele>188.0</ele><time>2026-03-29T13:01:06.126Z</time></trkpt><trkpt lat="45.3144122" lon="8.1047861"><ele>188.0</ele><time>2026-03-29T13:01:07.119Z</time></trkpt><trkpt lat="45.314503" lon="8.1045245"><ele>188.0</ele><time>2026-03-29T13:01:08.119Z</time></trkpt><trkpt lat="45.3145895" lon="8.104262"><ele>188.0</ele><time>2026-03-29T13:01:09.122Z</time></trkpt><trkpt lat="45.3146613" lon="8.1039942"><ele>188.0</ele><time>2026-03-29T13:01:10.126Z</time></trkpt><trkpt lat="45.3147266" lon="8.1037273"><ele>188.0</ele><time>2026-03-29T13:01:11.124Z</time></trkpt><trkpt lat="45.3147939" lon="8.1034543"><ele>188.0</ele><time>2026-03-29T13:01:12.115Z</time></trkpt><trkpt lat="45.314854" lon="8.1031814"><ele>188.33333333333331</ele><time>2026-03-29T13:01:13.118Z</time></trkpt><trkpt lat="45.3149078" lon="8.1029063"><ele>188.66666666666666</ele><time>2026-03-29T13:01:14.114Z</time></trkpt><trkpt lat="45.314961" lon="8.1026306"><ele>189.0</ele><time>2026-03-29T13:01:15.111Z</time></trkpt><trkpt lat="45.3150171" lon="8.1023594"><ele>189.0</ele><time>2026-03-29T13:01:16.133Z</time></trkpt><trkpt lat="45.3150714" lon="8.102089"><ele>189.0</ele><time>2026-03-29T13:01:17.118Z</time></trkpt><trkpt lat="45.3151213" lon="8.1018285"><ele>189.0</ele><time>2026-03-29T13:01:18.11Z</time></trkpt><trkpt lat="45.3151762" lon="8.1015787"><ele>189.33333333333334</ele><time>2026-03-29T13:01:19.111Z</time></trkpt><trkpt lat="45.3152386" lon="8.1013345"><ele>189.66666666666669</ele><time>2026-03-29T13:01:20.108Z</time></trkpt><trkpt lat="45.3153145" lon="8.1010855"><ele>190.0</ele><time>2026-03-29T13:01:21.123Z</time></trkpt><trkpt lat="45.3154063" lon="8.1008404"><ele>189.66666666666669</ele><time>2026-03-29T13:01:22.124Z</time></trkpt><trkpt lat="45.3155102" lon="8.1006061"><ele>189.33333333333334</ele><time>2026-03-29T13:01:23.111Z</time></trkpt><trkpt lat="45.3156193" lon="8.1003764"><ele>189.0</ele><time>2026-03-29T13:01:24.108Z</time></trkpt><trkpt lat="45.3157278" lon="8.1001491"><ele>189.66666666666666</ele><time>2026-03-29T13:01:25.121Z</time></trkpt><trkpt lat="45.3158338" lon="8.099918"><ele>190.33333333333331</ele><time>2026-03-29T13:01:26.127Z</time></trkpt><trkpt lat="45.3159398" lon="8.0996805"><ele>191.0</ele><time>2026-03-29T13:01:27.121Z</time></trkpt><trkpt lat="45.3160495" lon="8.0994409"><ele>191.0</ele><time>2026-03-29T13:01:28.121Z</time></trkpt><trkpt lat="45.316157" lon="8.0992"><ele>191.0</ele><time>2026-03-29T13:01:29.128Z</time></trkpt><trkpt lat="45.3162663" lon="8.0989609"><ele>191.0</ele><time>2026-03-29T13:01:30.13Z</time></trkpt><trkpt lat="45.3163769" lon="8.0987206"><ele>191.66666666666666</ele><time>2026-03-29T13:01:31.133Z</time></trkpt><trkpt lat="45.316485" lon="8.0984793"><ele>192.33333333333331</ele><time>2026-03-29T13:01:32.119Z</time></trkpt><trkpt lat="45.3165969" lon="8.0982385"><ele>193.0</ele><time>2026-03-29T13:01:33.129Z</time></trkpt><trkpt lat="45.3167064" lon="8.097999"><ele>193.0</ele><time>2026-03-29T13:01:34.113Z</time></trkpt><trkpt lat="45.3168136" lon="8.0977593"><ele>193.0</ele><time>2026-03-29T13:01:35.129Z</time></trkpt><trkpt lat="45.3169206" lon="8.0975134"><ele>193.0</ele><time>2026-03-29T13:01:36.123Z</time></trkpt><trkpt lat="45.3170215" lon="8.0972687"><ele>193.0</ele><time>2026-03-29T13:01:37.125Z</time></trkpt><trkpt lat="45.3171053" lon="8.0970107"><ele>193.0</ele><time>2026-03-29T13:01:38.124Z</time></trkpt><trkpt lat="45.3171712" lon="8.096746"><ele>193.0</ele><time>2026-03-29T13:01:39.12Z</time></trkpt><trkpt lat="45.317222" lon="8.0964653"><ele>193.33333333333331</ele><time>2026-03-29T13:01:40.097Z</time></trkpt><trkpt lat="45.3172599" lon="8.096168"><ele>193.66666666666669</ele><time>2026-03-29T13:01:41.107Z</time></trkpt><trkpt lat="45.3172904" lon="8.095869"><ele>194.0</ele><time>2026-03-29T13:01:42.11Z</time></trkpt><trkpt lat="45.3173173" lon="8.0955716"><ele>194.0</ele><time>2026-03-29T13:01:43.11Z</time></trkpt><trkpt lat="45.3173376" lon="8.0952659"><ele>194.0</ele><time>2026-03-29T13:01:44.102Z</time></trkpt><trkpt lat="45.317362" lon="8.0949687"><ele>194.0</ele><time>2026-03-29T13:01:45.11Z</time></trkpt><trkpt lat="45.3173819" lon="8.0946769"><ele>193.66666666666669</ele><time>2026-03-29T13:01:46.121Z</time></trkpt><trkpt lat="45.3174052" lon="8.0943906"><ele>193.33333333333331</ele><time>2026-03-29T13:01:47.118Z</time></trkpt><trkpt lat="45.317431" lon="8.0940999"><ele>193.0</ele><time>2026-03-29T13:01:48.148Z</time></trkpt><trkpt lat="45.3174552" lon="8.0938141"><ele>193.0</ele><time>2026-03-29T13:01:49.144Z</time></trkpt><trkpt lat="45.3174786" lon="8.0935284"><ele>193.0</ele><time>2026-03-29T13:01:50.118Z</time></trkpt><trkpt lat="45.3175033" lon="8.0932515"><ele>193.0</ele><time>2026-03-29T13:01:51.116Z</time></trkpt><trkpt lat="45.317525" lon="8.0929816"><ele>193.66666666666666</ele><time>2026-03-29T13:01:52.119Z</time></trkpt><trkpt lat="45.3175461" lon="8.0927162"><ele>194.33333333333331</ele><time>2026-03-29T13:01:53.121Z</time></trkpt><trkpt lat="45.3175675" lon="8.0924496"><ele>195.0</ele><time>2026-03-29T13:01:54.116Z</time></trkpt><trkpt lat="45.317589" lon="8.0921819"><ele>195.33333333333331</ele><time>2026-03-29T13:01:55.14Z</time></trkpt><trkpt lat="45.3176175" lon="8.0919117"><ele>195.66666666666666</ele><time>2026-03-29T13:01:56.116Z</time></trkpt><trkpt lat="45.3176493" lon="8.0916431"><ele>196.0</ele><time>2026-03-29T13:01:57.125Z</time></trkpt><trkpt lat="45.3176857" lon="8.091368"><ele>196.0</ele><time>2026-03-29T13:01:58.116Z</time></trkpt><trkpt lat="45.3177305" lon="8.0910906"><ele>196.0</ele><time>2026-03-29T13:01:59.119Z</time></trkpt><trkpt lat="45.317791" lon="8.0908159"><ele>196.0</ele><time>2026-03-29T13:02:00.103Z</time></trkpt><trkpt lat="45.3178628" lon="8.0905393"><ele>196.0</ele><time>2026-03-29T13:02:01.113Z</time></trkpt><trkpt lat="45.3179418" lon="8.0902709"><ele>196.0</ele><time>2026-03-29T13:02:02.109Z</time></trkpt><trkpt lat="45.3180244" lon="8.0899996"><ele>196.0</ele><time>2026-03-29T13:02:03.103Z</time></trkpt><trkpt lat="45.3181085" lon="8.0897296"><ele>196.33333333333331</ele><time>2026-03-29T13:02:04.121Z</time></trkpt><trkpt lat="45.318192" lon="8.08946"><ele>196.66666666666669</ele><time>2026-03-29T13:02:05.124Z</time></trkpt><trkpt lat="45.3182716" lon="8.0891923"><ele>197.0</ele><time>2026-03-29T13:02:06.128Z</time></trkpt><trkpt lat="45.3183485" lon="8.0889267"><ele>197.0</ele><time>2026-03-29T13:02:07.125Z</time></trkpt><trkpt lat="45.318425" lon="8.0886594"><ele>197.0</ele><time>2026-03-29T13:02:08.113Z</time></trkpt><trkpt lat="45.3185023" lon="8.0883974"><ele>197.0</ele><time>2026-03-29T13:02:09.114Z</time></trkpt><trkpt lat="45.3185811" lon="8.0881388"><ele>197.0</ele><time>2026-03-29T13:02:10.113Z</time></trkpt><trkpt lat="45.3186583" lon="8.0878789"><ele>197.0</ele><time>2026-03-29T13:02:11.114Z</time></trkpt><trkpt lat="45.3187387" lon="8.0876218"><ele>197.0</ele><time>2026-03-29T13:02:12.119Z</time></trkpt><trkpt lat="45.3188127" lon="8.0873675"><ele>197.0</ele><time>2026-03-29T13:02:13.113Z</time></trkpt><trkpt lat="45.3188894" lon="8.0871126"><ele>197.0</ele><time>2026-03-29T13:02:14.113Z</time></trkpt><trkpt lat="45.3189625" lon="8.0868558"><ele>197.0</ele><time>2026-03-29T13:02:15.113Z</time></trkpt><trkpt lat="45.3190394" lon="8.0866013"><ele>197.66666666666669</ele><time>2026-03-29T13:02:16.121Z</time></trkpt><trkpt lat="45.3191159" lon="8.0863428"><ele>198.33333333333331</ele><time>2026-03-29T13:02:17.119Z</time></trkpt><trkpt lat="45.3191927" lon="8.0860818"><ele>199.0</ele><time>2026-03-29T13:02:18.159Z</time></trkpt><trkpt lat="45.3192689" lon="8.0858233"><ele>199.33333333333331</ele><time>2026-03-29T13:02:19.123Z</time></trkpt><trkpt lat="45.3193485" lon="8.0855658"><ele>199.66666666666669</ele><time>2026-03-29T13:02:20.105Z</time></trkpt><trkpt lat="45.3194316" lon="8.0853042"><ele>200.0</ele><time>2026-03-29T13:02:21.113Z</time></trkpt><trkpt lat="45.3195087" lon="8.085038"><ele>200.0</ele><time>2026-03-29T13:02:22.112Z</time></trkpt><trkpt lat="45.3195894" lon="8.0847778"><ele>200.0</ele><time>2026-03-29T13:02:23.117Z</time></trkpt><trkpt lat="45.3196718" lon="8.0845096"><ele>200.0</ele><time>2026-03-29T13:02:24.105Z</time></trkpt><trkpt lat="45.3197517" lon="8.0842392"><ele>200.33333333333334</ele><time>2026-03-29T13:02:25.105Z</time></trkpt><trkpt lat="45.3198298" lon="8.083968"><ele>200.66666666666669</ele><time>2026-03-29T13:02:26.107Z</time></trkpt><trkpt lat="45.3199077" lon="8.0837037"><ele>201.0</ele><time>2026-03-29T13:02:27.124Z</time></trkpt><trkpt lat="45.3199895" lon="8.0834411"><ele>201.0</ele><time>2026-03-29T13:02:28.115Z</time></trkpt><trkpt lat="45.320075" lon="8.0831799"><ele>201.0</ele><time>2026-03-29T13:02:29.153Z</time></trkpt><trkpt lat="45.3201743" lon="8.0829217"><ele>201.0</ele><time>2026-03-29T13:02:30.129Z</time></trkpt><trkpt lat="45.3202821" lon="8.082676"><ele>201.0</ele><time>2026-03-29T13:02:31.128Z</time></trkpt><trkpt lat="45.3204037" lon="8.0824464"><ele>201.0</ele><time>2026-03-29T13:02:32.129Z</time></trkpt><trkpt lat="45.3205457" lon="8.0822429"><ele>201.0</ele><time>2026-03-29T13:02:33.128Z</time></trkpt><trkpt lat="45.3206972" lon="8.0820507"><ele>201.0</ele><time>2026-03-29T13:02:34.112Z</time></trkpt><trkpt lat="45.3208624" lon="8.0818687"><ele>201.0</ele><time>2026-03-29T13:02:35.109Z</time></trkpt><trkpt lat="45.3210447" lon="8.081702"><ele>201.0</ele><time>2026-03-29T13:02:36.128Z</time></trkpt><trkpt lat="45.3212283" lon="8.0815452"><ele>202.0</ele><time>2026-03-29T13:02:37.11Z</time></trkpt><trkpt lat="45.32141" lon="8.0814003"><ele>203.0</ele><time>2026-03-29T13:02:38.137Z</time></trkpt><trkpt lat="45.3215829" lon="8.0812741"><ele>204.0</ele><time>2026-03-29T13:02:39.12Z</time></trkpt><trkpt lat="45.3217402" lon="8.0811532"><ele>204.0</ele><time>2026-03-29T13:02:40.122Z</time></trkpt><trkpt lat="45.3218762" lon="8.0810564"><ele>204.0</ele><time>2026-03-29T13:02:41.116Z</time></trkpt><trkpt lat="45.3219933" lon="8.0809913"><ele>204.0</ele><time>2026-03-29T13:02:42.105Z</time></trkpt><trkpt lat="45.322102" lon="8.080953"><ele>204.0</ele><time>2026-03-29T13:02:43.109Z</time></trkpt><trkpt lat="45.3222021" lon="8.0809544"><ele>204.0</ele><time>2026-03-29T13:02:44.113Z</time></trkpt><trkpt lat="45.3223025" lon="8.0809732"><ele>204.0</ele><time>2026-03-29T13:02:45.138Z</time></trkpt><trkpt lat="45.3224004" lon="8.0809822"><ele>204.0</ele><time>2026-03-29T13:02:46.121Z</time></trkpt><trkpt lat="45.3224904" lon="8.0809463"><ele>204.0</ele><time>2026-03-29T13:02:47.127Z</time></trkpt><trkpt lat="45.3225648" lon="8.0808658"><ele>204.0</ele><time>2026-03-29T13:02:48.118Z</time></trkpt><trkpt lat="45.3226078" lon="8.0807394"><ele>203.75</ele><time>2026-03-29T13:02:49.143Z</time></trkpt><trkpt lat="45.3226003" lon="8.0806028"><ele>203.5</ele><time>2026-03-29T13:02:50.118Z</time></trkpt><trkpt lat="45.322545" lon="8.080454"><ele>203.25</ele><time>2026-03-29T13:02:51.104Z</time></trkpt><trkpt lat="45.3224395" lon="8.0803104"><ele>203.0</ele><time>2026-03-29T13:02:52.119Z</time></trkpt><trkpt lat="45.3223466" lon="8.0801268"><ele>203.0</ele><time>2026-03-29T13:02:53.11Z</time></trkpt><trkpt lat="45.3222691" lon="8.0798921"><ele>203.0</ele><time>2026-03-29T13:02:54.109Z</time></trkpt><trkpt lat="45.3221953" lon="8.0796445"><ele>203.0</ele><time>2026-03-29T13:02:55.122Z</time></trkpt><trkpt lat="45.3221318" lon="8.0793735"><ele>203.0</ele><time>2026-03-29T13:02:56.122Z</time></trkpt><trkpt lat="45.3220746" lon="8.07912"><ele>203.0</ele><time>2026-03-29T13:02:57.115Z</time></trkpt><trkpt lat="45.3220203" lon="8.0788731"><ele>203.0</ele><time>2026-03-29T13:02:58.113Z</time></trkpt><trkpt lat="45.3219614" lon="8.0786288"><ele>203.0</ele><time>2026-03-29T13:02:59.11Z</time></trkpt><trkpt lat="45.3219025" lon="8.0783782"><ele>203.0</ele><time>2026-03-29T13:03:00.12Z</time></trkpt><trkpt lat="45.3218432" lon="8.0781242"><ele>203.0</ele><time>2026-03-29T13:03:01.114Z</time></trkpt><trkpt lat="45.3217854" lon="8.0778635"><ele>203.0</ele><time>2026-03-29T13:03:02.109Z</time></trkpt><trkpt lat="45.32173" lon="8.0776008"><ele>203.0</ele><time>2026-03-29T13:03:03.117Z</time></trkpt><trkpt lat="45.321677" lon="8.0773271"><ele>203.0</ele><time>2026-03-29T13:03:04.11Z</time></trkpt><trkpt lat="45.3216263" lon="8.0770449"><ele>203.33333333333334</ele><time>2026-03-29T13:03:05.119Z</time></trkpt><trkpt lat="45.3215767" lon="8.0767592"><ele>203.66666666666669</ele><time>2026-03-29T13:03:06.14Z</time></trkpt><trkpt lat="45.3215287" lon="8.076467"><ele>204.0</ele><time>2026-03-29T13:03:07.115Z</time></trkpt><trkpt lat="45.3214818" lon="8.0761745"><ele>204.33333333333331</ele><time>2026-03-29T13:03:08.105Z</time></trkpt><trkpt lat="45.3214339" lon="8.0758856"><ele>204.66666666666666</ele><time>2026-03-29T13:03:09.147Z</time></trkpt><trkpt lat="45.3213863" lon="8.0756045"><ele>205.0</ele><time>2026-03-29T13:03:10.13Z</time></trkpt><trkpt lat="45.321337" lon="8.0753243"><ele>205.0</ele><time>2026-03-29T13:03:11.118Z</time></trkpt><trkpt lat="45.3212867" lon="8.0750483"><ele>205.0</ele><time>2026-03-29T13:03:12.14Z</time></trkpt><trkpt lat="45.321237" lon="8.0747713"><ele>205.0</ele><time>2026-03-29T13:03:13.119Z</time></trkpt><trkpt lat="45.3211823" lon="8.0745031"><ele>205.33333333333331</ele><time>2026-03-29T13:03:14.106Z</time></trkpt><trkpt lat="45.3211252" lon="8.0742315"><ele>205.66666666666669</ele><time>2026-03-29T13:03:15.12Z</time></trkpt><trkpt lat="45.3210679" lon="8.0739641"><ele>206.0</ele><time>2026-03-29T13:03:16.111Z</time></trkpt><trkpt lat="45.3210039" lon="8.0736977"><ele>206.0</ele><time>2026-03-29T13:03:17.123Z</time></trkpt><trkpt lat="45.3209416" lon="8.0734346"><ele>206.0</ele><time>2026-03-29T13:03:18.122Z</time></trkpt><trkpt lat="45.3208802" lon="8.0731724"><ele>206.0</ele><time>2026-03-29T13:03:19.114Z</time></trkpt><trkpt lat="45.3208162" lon="8.072901"><ele>205.66666666666669</ele><time>2026-03-29T13:03:20.105Z</time></trkpt><trkpt lat="45.3207518" lon="8.0726295"><ele>205.33333333333331</ele><time>2026-03-29T13:03:21.116Z</time></trkpt><trkpt lat="45.320691" lon="8.0723611"><ele>205.0</ele><time>2026-03-29T13:03:22.12Z</time></trkpt><trkpt lat="45.3206311" lon="8.0720898"><ele>205.0</ele><time>2026-03-29T13:03:23.105Z</time></trkpt><trkpt lat="45.3205696" lon="8.0718225"><ele>205.0</ele><time>2026-03-29T13:03:24.119Z</time></trkpt><trkpt lat="45.320511" lon="8.0715571"><ele>205.0</ele><time>2026-03-29T13:03:25.108Z</time></trkpt><trkpt lat="45.320449" lon="8.0712947"><ele>205.66666666666666</ele><time>2026-03-29T13:03:26.114Z</time></trkpt><trkpt lat="45.3203869" lon="8.0710304"><ele>206.33333333333331</ele><time>2026-03-29T13:03:27.108Z</time></trkpt><trkpt lat="45.3203208" lon="8.0707616"><ele>207.0</ele><time>2026-03-29T13:03:28.117Z</time></trkpt><trkpt lat="45.3202551" lon="8.0704924"><ele>207.0</ele><time>2026-03-29T13:03:29.116Z</time></trkpt><trkpt lat="45.3201902" lon="8.0702273"><ele>207.0</ele><time>2026-03-29T13:03:30.108Z</time></trkpt><trkpt lat="45.3201282" lon="8.0699629"><ele>207.0</ele><time>2026-03-29T13:03:31.11Z</time></trkpt><trkpt lat="45.3200598" lon="8.0696976"><ele>207.0</ele><time>2026-03-29T13:03:32.124Z</time></trkpt><trkpt lat="45.3199928" lon="8.0694385"><ele>207.0</ele><time>2026-03-29T13:03:33.101Z</time></trkpt><trkpt lat="45.3199298" lon="8.0691832"><ele>207.0</ele><time>2026-03-29T13:03:34.143Z</time></trkpt><trkpt lat="45.3198644" lon="8.0689266"><ele>207.0</ele><time>2026-03-29T13:03:35.118Z</time></trkpt><trkpt lat="45.3198009" lon="8.0686728"><ele>207.0</ele><time>2026-03-29T13:03:36.116Z</time></trkpt><trkpt lat="45.319738" lon="8.0684205"><ele>207.0</ele><time>2026-03-29T13:03:37.128Z</time></trkpt><trkpt lat="45.3196754" lon="8.0681726"><ele>207.0</ele><time>2026-03-29T13:03:38.113Z</time></trkpt><trkpt lat="45.3196122" lon="8.0679248"><ele>207.0</ele><time>2026-03-29T13:03:39.125Z</time></trkpt><trkpt lat="45.3195532" lon="8.0676769"><ele>207.0</ele><time>2026-03-29T13:03:40.127Z</time></trkpt><trkpt lat="45.3194893" lon="8.0674279"><ele>207.0</ele><time>2026-03-29T13:03:41.121Z</time></trkpt><trkpt lat="45.3194231" lon="8.0671796"><ele>207.0</ele><time>2026-03-29T13:03:42.124Z</time></trkpt><trkpt lat="45.3193542" lon="8.0669325"><ele>207.0</ele><time>2026-03-29T13:03:43.117Z</time></trkpt><trkpt lat="45.3192849" lon="8.0666859"><ele>207.33333333333331</ele><time>2026-03-29T13:03:44.109Z</time></trkpt><trkpt lat="45.3192146" lon="8.0664316"><ele>207.66666666666666</ele><time>2026-03-29T13:03:45.142Z</time></trkpt><trkpt lat="45.3191463" lon="8.0661786"><ele>208.0</ele><time>2026-03-29T13:03:46.115Z</time></trkpt><trkpt lat="45.3190765" lon="8.0659238"><ele>208.66666666666666</ele><time>2026-03-29T13:03:47.116Z</time></trkpt><trkpt lat="45.3190101" lon="8.0656685"><ele>209.33333333333331</ele><time>2026-03-29T13:03:48.116Z</time></trkpt><trkpt lat="45.3189464" lon="8.0654163"><ele>210.0</ele><time>2026-03-29T13:03:49.104Z</time></trkpt><trkpt lat="45.318881" lon="8.0651738"><ele>209.66666666666669</ele><time>2026-03-29T13:03:50.105Z</time></trkpt><trkpt lat="45.3188187" lon="8.0649293"><ele>209.33333333333334</ele><time>2026-03-29T13:03:51.126Z</time></trkpt><trkpt lat="45.3187572" lon="8.0646888"><ele>209.0</ele><time>2026-03-29T13:03:52.114Z</time></trkpt><trkpt lat="45.3186932" lon="8.0644476"><ele>209.0</ele><time>2026-03-29T13:03:53.131Z</time></trkpt><trkpt lat="45.3186359" lon="8.0642122"><ele>209.0</ele><time>2026-03-29T13:03:54.113Z</time></trkpt><trkpt lat="45.3185785" lon="8.0639744"><ele>209.0</ele><time>2026-03-29T13:03:55.128Z</time></trkpt><trkpt lat="45.3185217" lon="8.063736"><ele>209.0</ele><time>2026-03-29T13:03:56.1Z</time></trkpt><trkpt lat="45.3184649" lon="8.063495"><ele>209.0</ele><time>2026-03-29T13:03:57.122Z</time></trkpt><trkpt lat="45.3184088" lon="8.063253"><ele>209.0</ele><time>2026-03-29T13:03:58.116Z</time></trkpt><trkpt lat="45.3183525" lon="8.0630095"><ele>209.0</ele><time>2026-03-29T13:03:59.116Z</time></trkpt><trkpt lat="45.318298" lon="8.0627667"><ele>209.0</ele><time>2026-03-29T13:04:00.135Z</time></trkpt><trkpt lat="45.3182418" lon="8.0625139"><ele>209.0</ele><time>2026-03-29T13:04:01.109Z</time></trkpt><trkpt lat="45.3181836" lon="8.062262"><ele>209.33333333333334</ele><time>2026-03-29T13:04:02.122Z</time></trkpt><trkpt lat="45.318128" lon="8.0620081"><ele>209.66666666666669</ele><time>2026-03-29T13:04:03.113Z</time></trkpt><trkpt lat="45.3180707" lon="8.0617589"><ele>210.0</ele><time>2026-03-29T13:04:04.107Z</time></trkpt><trkpt lat="45.3180153" lon="8.0615093"><ele>210.0</ele><time>2026-03-29T13:04:05.117Z</time></trkpt><trkpt lat="45.3179583" lon="8.0612639"><ele>210.0</ele><time>2026-03-29T13:04:06.117Z</time></trkpt><trkpt lat="45.3179012" lon="8.0610149"><ele>210.0</ele><time>2026-03-29T13:04:07.1Z</time></trkpt><trkpt lat="45.3178413" lon="8.0607682"><ele>210.33333333333331</ele><time>2026-03-29T13:04:08.131Z</time></trkpt><trkpt lat="45.3177851" lon="8.0605168"><ele>210.66666666666666</ele><time>2026-03-29T13:04:09.108Z</time></trkpt><trkpt lat="45.3177264" lon="8.0602626"><ele>211.0</ele><time>2026-03-29T13:04:10.124Z</time></trkpt><trkpt lat="45.3176691" lon="8.0600056"><ele>211.33333333333331</ele><time>2026-03-29T13:04:11.124Z</time></trkpt><trkpt lat="45.3176087" lon="8.0597456"><ele>211.66666666666669</ele><time>2026-03-29T13:04:12.116Z</time></trkpt><trkpt lat="45.3175487" lon="8.0594823"><ele>212.0</ele><time>2026-03-29T13:04:13.115Z</time></trkpt><trkpt lat="45.3174882" lon="8.0592226"><ele>212.0</ele><time>2026-03-29T13:04:14.106Z</time></trkpt><trkpt lat="45.317425" lon="8.0589632"><ele>212.0</ele><time>2026-03-29T13:04:15.13Z</time></trkpt><trkpt lat="45.3173609" lon="8.0587017"><ele>212.0</ele><time>2026-03-29T13:04:16.111Z</time></trkpt><trkpt lat="45.3172986" lon="8.0584394"><ele>212.0</ele><time>2026-03-29T13:04:17.113Z</time></trkpt><trkpt lat="45.3172335" lon="8.0581704"><ele>212.0</ele><time>2026-03-29T13:04:18.118Z</time></trkpt><trkpt lat="45.3171684" lon="8.0578985"><ele>212.0</ele><time>2026-03-29T13:04:19.125Z</time></trkpt><trkpt lat="45.3171016" lon="8.0576233"><ele>212.0</ele><time>2026-03-29T13:04:20.118Z</time></trkpt><trkpt lat="45.3170391" lon="8.0573431"><ele>212.0</ele><time>2026-03-29T13:04:21.109Z</time></trkpt><trkpt lat="45.3169746" lon="8.057061"><ele>212.0</ele><time>2026-03-29T13:04:22.112Z</time></trkpt><trkpt lat="45.316909" lon="8.0567766"><ele>212.66666666666669</ele><time>2026-03-29T13:04:23.116Z</time></trkpt><trkpt lat="45.3168424" lon="8.0564957"><ele>213.33333333333331</ele><time>2026-03-29T13:04:24.119Z</time></trkpt><trkpt lat="45.316777" lon="8.0562182"><ele>214.0</ele><time>2026-03-29T13:04:25.113Z</time></trkpt><trkpt lat="45.3167107" lon="8.0559385"><ele>214.0</ele><time>2026-03-29T13:04:26.126Z</time></trkpt><trkpt lat="45.3166441" lon="8.055661"><ele>214.0</ele><time>2026-03-29T13:04:27.098Z</time></trkpt><trkpt lat="45.3165806" lon="8.0553808"><ele>214.0</ele><time>2026-03-29T13:04:28.112Z</time></trkpt><trkpt lat="45.3165154" lon="8.0551004"><ele>214.66666666666666</ele><time>2026-03-29T13:04:29.113Z</time></trkpt><trkpt lat="45.3164505" lon="8.0548285"><ele>215.33333333333331</ele><time>2026-03-29T13:04:30.117Z</time></trkpt><trkpt lat="45.3163886" lon="8.0545478"><ele>216.0</ele><time>2026-03-29T13:04:31.114Z</time></trkpt><trkpt lat="45.3163267" lon="8.0542745"><ele>217.0</ele><time>2026-03-29T13:04:32.117Z</time></trkpt><trkpt lat="45.3162611" lon="8.0540004"><ele>218.0</ele><time>2026-03-29T13:04:33.104Z</time></trkpt><trkpt lat="45.3161964" lon="8.0537249"><ele>219.0</ele><time>2026-03-29T13:04:34.111Z</time></trkpt><trkpt lat="45.3161333" lon="8.0534484"><ele>218.66666666666669</ele><time>2026-03-29T13:04:35.128Z</time></trkpt><trkpt lat="45.3160737" lon="8.0531695"><ele>218.33333333333334</ele><time>2026-03-29T13:04:36.113Z</time></trkpt><trkpt lat="45.3160125" lon="8.0528912"><ele>218.0</ele><time>2026-03-29T13:04:37.121Z</time></trkpt><trkpt lat="45.3159488" lon="8.0526117"><ele>217.66666666666669</ele><time>2026-03-29T13:04:38.108Z</time></trkpt><trkpt lat="45.315883" lon="8.0523213"><ele>217.33333333333331</ele><time>2026-03-29T13:04:39.114Z</time></trkpt><trkpt lat="45.3158152" lon="8.0520409"><ele>217.0</ele><time>2026-03-29T13:04:40.12Z</time></trkpt><trkpt lat="45.3157473" lon="8.0517577"><ele>217.33333333333331</ele><time>2026-03-29T13:04:41.115Z</time></trkpt><trkpt lat="45.3156821" lon="8.0514689"><ele>217.66666666666669</ele><time>2026-03-29T13:04:42.112Z</time></trkpt><trkpt lat="45.3156162" lon="8.0511789"><ele>218.0</ele><time>2026-03-29T13:04:43.112Z</time></trkpt><trkpt lat="45.3155521" lon="8.0508947"><ele>218.33333333333334</ele><time>2026-03-29T13:04:44.114Z</time></trkpt><trkpt lat="45.3154867" lon="8.0506116"><ele>218.66666666666669</ele><time>2026-03-29T13:04:45.117Z</time></trkpt><trkpt lat="45.3154251" lon="8.0503292"><ele>219.0</ele><time>2026-03-29T13:04:46.118Z</time></trkpt><trkpt lat="45.3153621" lon="8.0500501"><ele>219.0</ele><time>2026-03-29T13:04:47.11Z</time></trkpt><trkpt lat="45.3152995" lon="8.0497783"><ele>219.0</ele><time>2026-03-29T13:04:48.104Z</time></trkpt><trkpt lat="45.3152332" lon="8.0494983"><ele>219.0</ele><time>2026-03-29T13:04:49.113Z</time></trkpt><trkpt lat="45.3151639" lon="8.0492242"><ele>219.33333333333331</ele><time>2026-03-29T13:04:50.109Z</time></trkpt><trkpt lat="45.3150998" lon="8.0489508"><ele>219.66666666666666</ele><time>2026-03-29T13:04:51.112Z</time></trkpt><trkpt lat="45.3150354" lon="8.0486731"><ele>220.0</ele><time>2026-03-29T13:04:52.127Z</time></trkpt><trkpt lat="45.314972" lon="8.0483925"><ele>220.0</ele><time>2026-03-29T13:04:53.113Z</time></trkpt><trkpt lat="45.3149068" lon="8.0481185"><ele>220.0</ele><time>2026-03-29T13:04:54.107Z</time></trkpt><trkpt lat="45.3148421" lon="8.0478454"><ele>220.0</ele><time>2026-03-29T13:04:55.12Z</time></trkpt><trkpt lat="45.3147788" lon="8.0475732"><ele>220.66666666666666</ele><time>2026-03-29T13:04:56.121Z</time></trkpt><trkpt lat="45.3147144" lon="8.0472993"><ele>221.33333333333331</ele><time>2026-03-29T13:04:57.115Z</time></trkpt><trkpt lat="45.3146522" lon="8.0470248"><ele>222.0</ele><time>2026-03-29T13:04:58.116Z</time></trkpt><trkpt lat="45.3145915" lon="8.0467445"><ele>222.0</ele><time>2026-03-29T13:04:59.118Z</time></trkpt><trkpt lat="45.3145295" lon="8.046468"><ele>222.0</ele><time>2026-03-29T13:05:00.112Z</time></trkpt><trkpt lat="45.3144648" lon="8.0461925"><ele>222.0</ele><time>2026-03-29T13:05:01.117Z</time></trkpt><trkpt lat="45.3144034" lon="8.0459212"><ele>221.66666666666669</ele><time>2026-03-29T13:05:02.099Z</time></trkpt><trkpt lat="45.314343" lon="8.0456466"><ele>221.33333333333334</ele><time>2026-03-29T13:05:03.119Z</time></trkpt><trkpt lat="45.3142781" lon="8.0453771"><ele>221.0</ele><time>2026-03-29T13:05:04.101Z</time></trkpt><trkpt lat="45.3142155" lon="8.0451128"><ele>221.66666666666669</ele><time>2026-03-29T13:05:05.119Z</time></trkpt><trkpt lat="45.3141543" lon="8.0448519"><ele>222.33333333333331</ele><time>2026-03-29T13:05:06.114Z</time></trkpt><trkpt lat="45.3140898" lon="8.0445942"><ele>223.0</ele><time>2026-03-29T13:05:07.11Z</time></trkpt><trkpt lat="45.3140308" lon="8.0443342"><ele>223.0</ele><time>2026-03-29T13:05:08.1Z</time></trkpt><trkpt lat="45.3139729" lon="8.0440766"><ele>223.0</ele><time>2026-03-29T13:05:09.107Z</time></trkpt><trkpt lat="45.3139134" lon="8.0438139"><ele>223.0</ele><time>2026-03-29T13:05:10.11Z</time></trkpt><trkpt lat="45.3138523" lon="8.0435521"><ele>223.0</ele><time>2026-03-29T13:05:11.108Z</time></trkpt><trkpt lat="45.3137922" lon="8.0432862"><ele>223.0</ele><time>2026-03-29T13:05:12.109Z</time></trkpt><trkpt lat="45.3137284" lon="8.043024"><ele>223.0</ele><time>2026-03-29T13:05:13.114Z</time></trkpt><trkpt lat="45.3136615" lon="8.042767"><ele>223.0</ele><time>2026-03-29T13:05:14.108Z</time></trkpt><trkpt lat="45.3135794" lon="8.0425285"><ele>223.0</ele><time>2026-03-29T13:05:15.151Z</time></trkpt><trkpt lat="45.3134898" lon="8.0423146"><ele>223.0</ele><time>2026-03-29T13:05:16.122Z</time></trkpt><trkpt lat="45.3133859" lon="8.0421125"><ele>223.4</ele><time>2026-03-29T13:05:17.113Z</time></trkpt><trkpt lat="45.3132883" lon="8.041954"><ele>223.8</ele><time>2026-03-29T13:05:18.116Z</time></trkpt><trkpt lat="45.3131969" lon="8.0418265"><ele>224.2</ele><time>2026-03-29T13:05:19.123Z</time></trkpt><trkpt lat="45.3131262" lon="8.0417333"><ele>224.6</ele><time>2026-03-29T13:05:20.114Z</time></trkpt><trkpt lat="45.313085" lon="8.0416495"><ele>225.0</ele><time>2026-03-29T13:05:21.118Z</time></trkpt><trkpt lat="45.3130528" lon="8.0415716"><ele>225.0</ele><time>2026-03-29T13:05:23.127Z</time></trkpt><trkpt lat="45.3130307" lon="8.041406"><ele>225.0</ele><time>2026-03-29T13:05:29.104Z</time></trkpt><trkpt lat="45.3130112" lon="8.0412837"><ele>225.0</ele><time>2026-03-29T13:05:30.108Z</time></trkpt><trkpt lat="45.3130052" lon="8.0411508"><ele>225.0</ele><time>2026-03-29T13:05:31.107Z</time></trkpt><trkpt lat="45.312982" lon="8.0410149"><ele>225.0</ele><time>2026-03-29T13:05:32.114Z</time></trkpt><trkpt lat="45.3129417" lon="8.0408844"><ele>225.0</ele><time>2026-03-29T13:05:33.122Z</time></trkpt><trkpt lat="45.3128744" lon="8.0407762"><ele>225.0</ele><time>2026-03-29T13:05:34.123Z</time></trkpt><trkpt lat="45.3127767" lon="8.040682"><ele>225.0</ele><time>2026-03-29T13:05:35.112Z</time></trkpt><trkpt lat="45.312661" lon="8.0406319"><ele>225.0</ele><time>2026-03-29T13:05:36.106Z</time></trkpt><trkpt lat="45.3125273" lon="8.0406435"><ele>225.0</ele><time>2026-03-29T13:05:37.116Z</time></trkpt><trkpt lat="45.3124007" lon="8.0407011"><ele>225.0</ele><time>2026-03-29T13:05:38.102Z</time></trkpt><trkpt lat="45.3122948" lon="8.0408125"><ele>225.0</ele><time>2026-03-29T13:05:39.119Z</time></trkpt><trkpt lat="45.3122062" lon="8.0409698"><ele>225.0</ele><time>2026-03-29T13:05:40.146Z</time></trkpt><trkpt lat="45.312124" lon="8.0411361"><ele>224.0</ele><time>2026-03-29T13:05:41.108Z</time></trkpt><trkpt lat="45.3120211" lon="8.0412635"><ele>223.0</ele><time>2026-03-29T13:05:42.13Z</time></trkpt><trkpt lat="45.3118987" lon="8.0413638"><ele>222.0</ele><time>2026-03-29T13:05:43.112Z</time></trkpt><trkpt lat="45.3117447" lon="8.0414446"><ele>221.0</ele><time>2026-03-29T13:05:44.107Z</time></trkpt><trkpt lat="45.3115544" lon="8.0415015"><ele>221.0</ele><time>2026-03-29T13:05:45.118Z</time></trkpt><trkpt lat="45.311359" lon="8.04154"><ele>221.0</ele><time>2026-03-29T13:05:46.135Z</time></trkpt><trkpt lat="45.3111655" lon="8.0415844"><ele>221.0</ele><time>2026-03-29T13:05:47.113Z</time></trkpt><trkpt lat="45.3109834" lon="8.0416282"><ele>221.33333333333334</ele><time>2026-03-29T13:05:48.118Z</time></trkpt><trkpt lat="45.3108014" lon="8.0416697"><ele>221.66666666666669</ele><time>2026-03-29T13:05:49.108Z</time></trkpt><trkpt lat="45.3106186" lon="8.0416971"><ele>222.0</ele><time>2026-03-29T13:05:50.119Z</time></trkpt><trkpt lat="45.310421" lon="8.0417142"><ele>222.0</ele><time>2026-03-29T13:05:51.108Z</time></trkpt><trkpt lat="45.3102126" lon="8.0417154"><ele>222.0</ele><time>2026-03-29T13:05:52.118Z</time></trkpt><trkpt lat="45.3100013" lon="8.0417048"><ele>222.0</ele><time>2026-03-29T13:05:53.119Z</time></trkpt><trkpt lat="45.3097926" lon="8.0416742"><ele>222.0</ele><time>2026-03-29T13:05:54.144Z</time></trkpt><trkpt lat="45.3095861" lon="8.0416274"><ele>222.0</ele><time>2026-03-29T13:05:55.106Z</time></trkpt><trkpt lat="45.3093794" lon="8.0415675"><ele>222.0</ele><time>2026-03-29T13:05:56.125Z</time></trkpt><trkpt lat="45.3091753" lon="8.0414976"><ele>222.0</ele><time>2026-03-29T13:05:57.121Z</time></trkpt><trkpt lat="45.3089729" lon="8.0414212"><ele>222.0</ele><time>2026-03-29T13:05:58.121Z</time></trkpt><trkpt lat="45.3087692" lon="8.0413321"><ele>222.0</ele><time>2026-03-29T13:05:59.124Z</time></trkpt><trkpt lat="45.3085654" lon="8.0412294"><ele>222.0</ele><time>2026-03-29T13:06:00.106Z</time></trkpt><trkpt lat="45.308362" lon="8.041121"><ele>222.0</ele><time>2026-03-29T13:06:01.11Z</time></trkpt><trkpt lat="45.3081585" lon="8.0410108"><ele>222.0</ele><time>2026-03-29T13:06:02.102Z</time></trkpt><trkpt lat="45.3079529" lon="8.0409041"><ele>221.33333333333331</ele><time>2026-03-29T13:06:03.116Z</time></trkpt><trkpt lat="45.3077499" lon="8.0408055"><ele>220.66666666666666</ele><time>2026-03-29T13:06:04.111Z</time></trkpt><trkpt lat="45.3075446" lon="8.0407167"><ele>220.0</ele><time>2026-03-29T13:06:05.118Z</time></trkpt><trkpt lat="45.3073377" lon="8.0406385"><ele>220.0</ele><time>2026-03-29T13:06:06.108Z</time></trkpt><trkpt lat="45.3071315" lon="8.0405632"><ele>220.0</ele><time>2026-03-29T13:06:07.121Z</time></trkpt><trkpt lat="45.3069271" lon="8.0404975"><ele>220.0</ele><time>2026-03-29T13:06:08.114Z</time></trkpt><trkpt lat="45.3067209" lon="8.0404572"><ele>220.0</ele><time>2026-03-29T13:06:09.106Z</time></trkpt><trkpt lat="45.306515" lon="8.0404311"><ele>220.0</ele><time>2026-03-29T13:06:10.108Z</time></trkpt><trkpt lat="45.3063085" lon="8.0404113"><ele>220.0</ele><time>2026-03-29T13:06:11.115Z</time></trkpt><trkpt lat="45.3061049" lon="8.0404047"><ele>220.66666666666666</ele><time>2026-03-29T13:06:12.109Z</time></trkpt><trkpt lat="45.305894" lon="8.0404175"><ele>221.33333333333331</ele><time>2026-03-29T13:06:13.11Z</time></trkpt><trkpt lat="45.3056845" lon="8.0404549"><ele>222.0</ele><time>2026-03-29T13:06:14.105Z</time></trkpt><trkpt lat="45.3054719" lon="8.0405037"><ele>222.0</ele><time>2026-03-29T13:06:15.096Z</time></trkpt><trkpt lat="45.3052614" lon="8.0405664"><ele>222.0</ele><time>2026-03-29T13:06:16.118Z</time></trkpt><trkpt lat="45.3050482" lon="8.0406393"><ele>222.0</ele><time>2026-03-29T13:06:17.117Z</time></trkpt><trkpt lat="45.3048328" lon="8.0407143"><ele>221.0</ele><time>2026-03-29T13:06:18.142Z</time></trkpt><trkpt lat="45.3046176" lon="8.0407774"><ele>220.0</ele><time>2026-03-29T13:06:19.115Z</time></trkpt><trkpt lat="45.3044208" lon="8.0408285"><ele>219.0</ele><time>2026-03-29T13:06:20.119Z</time></trkpt><trkpt lat="45.3042343" lon="8.0408749"><ele>218.66666666666669</ele><time>2026-03-29T13:06:21.126Z</time></trkpt><trkpt lat="45.3040537" lon="8.0408951"><ele>218.33333333333334</ele><time>2026-03-29T13:06:22.11Z</time></trkpt><trkpt lat="45.3038688" lon="8.0409009"><ele>218.0</ele><time>2026-03-29T13:06:23.115Z</time></trkpt><trkpt lat="45.3036758" lon="8.0409111"><ele>218.0</ele><time>2026-03-29T13:06:24.11Z</time></trkpt><trkpt lat="45.3034835" lon="8.0409028"><ele>218.0</ele><time>2026-03-29T13:06:25.138Z</time></trkpt><trkpt lat="45.303293" lon="8.0408881"><ele>218.0</ele><time>2026-03-29T13:06:26.111Z</time></trkpt><trkpt lat="45.3030985" lon="8.040861"><ele>218.0</ele><time>2026-03-29T13:06:27.11Z</time></trkpt><trkpt lat="45.3029019" lon="8.0408357"><ele>218.0</ele><time>2026-03-29T13:06:28.122Z</time></trkpt><trkpt lat="45.3026991" lon="8.0408044"><ele>218.0</ele><time>2026-03-29T13:06:29.115Z</time></trkpt><trkpt lat="45.3024992" lon="8.0407732"><ele>218.0</ele><time>2026-03-29T13:06:30.14Z</time></trkpt><trkpt lat="45.3022976" lon="8.0407402"><ele>218.0</ele><time>2026-03-29T13:06:31.115Z</time></trkpt><trkpt lat="45.3020882" lon="8.0407031"><ele>218.0</ele><time>2026-03-29T13:06:32.104Z</time></trkpt><trkpt lat="45.3018786" lon="8.0406642"><ele>217.66666666666669</ele><time>2026-03-29T13:06:33.122Z</time></trkpt><trkpt lat="45.3016717" lon="8.0406205"><ele>217.33333333333331</ele><time>2026-03-29T13:06:34.124Z</time></trkpt><trkpt lat="45.301466" lon="8.0405611"><ele>217.0</ele><time>2026-03-29T13:06:35.119Z</time></trkpt><trkpt lat="45.3012599" lon="8.0404853"><ele>217.0</ele><time>2026-03-29T13:06:36.104Z</time></trkpt><trkpt lat="45.3010605" lon="8.0403905"><ele>217.0</ele><time>2026-03-29T13:06:37.134Z</time></trkpt><trkpt lat="45.3008726" lon="8.0402933"><ele>217.0</ele><time>2026-03-29T13:06:38.129Z</time></trkpt><trkpt lat="45.3006982" lon="8.0401887"><ele>216.66666666666666</ele><time>2026-03-29T13:06:39.124Z</time></trkpt><trkpt lat="45.3005326" lon="8.0400787"><ele>216.33333333333331</ele><time>2026-03-29T13:06:40.123Z</time></trkpt><trkpt lat="45.300381" lon="8.0399703"><ele>216.0</ele><time>2026-03-29T13:06:41.14Z</time></trkpt><trkpt lat="45.3002391" lon="8.039862"><ele>216.0</ele><time>2026-03-29T13:06:42.131Z</time></trkpt><trkpt lat="45.3001037" lon="8.0397571"><ele>216.0</ele><time>2026-03-29T13:06:43.119Z</time></trkpt><trkpt lat="45.2999742" lon="8.0396516"><ele>216.0</ele><time>2026-03-29T13:06:44.127Z</time></trkpt><trkpt lat="45.2998544" lon="8.0395465"><ele>216.0</ele><time>2026-03-29T13:06:45.116Z</time></trkpt><trkpt lat="45.2997524" lon="8.0394449"><ele>216.0</ele><time>2026-03-29T13:06:46.107Z</time></trkpt><trkpt lat="45.299674" lon="8.0393427"><ele>216.00000000000003</ele><time>2026-03-29T13:06:47.109Z</time></trkpt><trkpt lat="45.2996266" lon="8.039234"><ele>216.00000000000003</ele><time>2026-03-29T13:06:48.106Z</time></trkpt><trkpt lat="45.2995965" lon="8.0391161"><ele>216.0</ele><time>2026-03-29T13:06:49.105Z</time></trkpt><trkpt lat="45.2995693" lon="8.0389708"><ele>216.0</ele><time>2026-03-29T13:06:50.117Z</time></trkpt><trkpt lat="45.2995163" lon="8.0388031"><ele>215.75</ele><time>2026-03-29T13:06:51.11Z</time></trkpt><trkpt lat="45.2994282" lon="8.0386637"><ele>215.5</ele><time>2026-03-29T13:06:52.1Z</time></trkpt><trkpt lat="45.2993298" lon="8.0385699"><ele>215.25</ele><time>2026-03-29T13:06:53.135Z</time></trkpt><trkpt lat="45.2992022" lon="8.0385414"><ele>215.0</ele><time>2026-03-29T13:06:54.113Z</time></trkpt><trkpt lat="45.2990469" lon="8.0385493"><ele>215.0</ele><time>2026-03-29T13:06:55.112Z</time></trkpt><trkpt lat="45.2988752" lon="8.038544"><ele>215.0</ele><time>2026-03-29T13:06:56.104Z</time></trkpt><trkpt lat="45.2987133" lon="8.0384768"><ele>215.0</ele><time>2026-03-29T13:06:57.111Z</time></trkpt><trkpt lat="45.2985525" lon="8.0383616"><ele>215.33333333333334</ele><time>2026-03-29T13:06:58.111Z</time></trkpt><trkpt lat="45.2983808" lon="8.0382061"><ele>215.66666666666669</ele><time>2026-03-29T13:06:59.116Z</time></trkpt><trkpt lat="45.2981987" lon="8.0380384"><ele>216.0</ele><time>2026-03-29T13:07:00.107Z</time></trkpt><trkpt lat="45.298014" lon="8.037854"><ele>216.0</ele><time>2026-03-29T13:07:01.124Z</time></trkpt><trkpt lat="45.2978368" lon="8.0376654"><ele>216.0</ele><time>2026-03-29T13:07:02.121Z</time></trkpt><trkpt lat="45.297668" lon="8.0374686"><ele>216.0</ele><time>2026-03-29T13:07:03.112Z</time></trkpt><trkpt lat="45.2975053" lon="8.0372597"><ele>216.0</ele><time>2026-03-29T13:07:04.112Z</time></trkpt><trkpt lat="45.2973558" lon="8.037047"><ele>216.0</ele><time>2026-03-29T13:07:05.111Z</time></trkpt><trkpt lat="45.2972235" lon="8.0368236"><ele>216.0</ele><time>2026-03-29T13:07:06.126Z</time></trkpt><trkpt lat="45.2970922" lon="8.0366004"><ele>216.0</ele><time>2026-03-29T13:07:07.11Z</time></trkpt><trkpt lat="45.2969651" lon="8.0363632"><ele>216.0</ele><time>2026-03-29T13:07:08.115Z</time></trkpt><trkpt lat="45.2968519" lon="8.0361134"><ele>216.0</ele><time>2026-03-29T13:07:09.134Z</time></trkpt><trkpt lat="45.2967462" lon="8.0358456"><ele>216.33333333333331</ele><time>2026-03-29T13:07:10.111Z</time></trkpt><trkpt lat="45.2966472" lon="8.0355727"><ele>216.66666666666666</ele><time>2026-03-29T13:07:11.125Z</time></trkpt><trkpt lat="45.2965566" lon="8.0352887"><ele>217.0</ele><time>2026-03-29T13:07:12.112Z</time></trkpt><trkpt lat="45.29648" lon="8.0349947"><ele>217.0</ele><time>2026-03-29T13:07:13.113Z</time></trkpt><trkpt lat="45.2964128" lon="8.034696"><ele>217.0</ele><time>2026-03-29T13:07:14.119Z</time></trkpt><trkpt lat="45.2963545" lon="8.0343947"><ele>217.0</ele><time>2026-03-29T13:07:15.107Z</time></trkpt><trkpt lat="45.2963135" lon="8.0340879"><ele>217.0</ele><time>2026-03-29T13:07:16.126Z</time></trkpt><trkpt lat="45.2962791" lon="8.0337757"><ele>217.0</ele><time>2026-03-29T13:07:17.117Z</time></trkpt><trkpt lat="45.2962572" lon="8.033466"><ele>217.0</ele><time>2026-03-29T13:07:18.14Z</time></trkpt><trkpt lat="45.2962463" lon="8.0331521"><ele>217.66666666666666</ele><time>2026-03-29T13:07:19.113Z</time></trkpt><trkpt lat="45.2962457" lon="8.0328323"><ele>218.33333333333331</ele><time>2026-03-29T13:07:20.117Z</time></trkpt><trkpt lat="45.2962552" lon="8.0325137"><ele>219.0</ele><time>2026-03-29T13:07:21.11Z</time></trkpt><trkpt lat="45.2962779" lon="8.0321947"><ele>219.33333333333331</ele><time>2026-03-29T13:07:22.116Z</time></trkpt><trkpt lat="45.2963041" lon="8.0318817"><ele>219.66666666666666</ele><time>2026-03-29T13:07:23.111Z</time></trkpt><trkpt lat="45.2963386" lon="8.031566"><ele>220.0</ele><time>2026-03-29T13:07:24.111Z</time></trkpt><trkpt lat="45.2963833" lon="8.0312464"><ele>219.0</ele><time>2026-03-29T13:07:25.106Z</time></trkpt><trkpt lat="45.2964269" lon="8.0309091"><ele>218.0</ele><time>2026-03-29T13:07:26.116Z</time></trkpt><trkpt lat="45.2964686" lon="8.0305678"><ele>218.0</ele><time>2026-03-29T13:07:27.113Z</time></trkpt><trkpt lat="45.2965055" lon="8.0302494"><ele>218.0</ele><time>2026-03-29T13:07:28.103Z</time></trkpt><trkpt lat="45.2965464" lon="8.0299615"><ele>218.0</ele><time>2026-03-29T13:07:29.144Z</time></trkpt><trkpt lat="45.2965824" lon="8.029685"><ele>219.33333333333334</ele><time>2026-03-29T13:07:30.123Z</time></trkpt><trkpt lat="45.2966178" lon="8.0294274"><ele>220.66666666666669</ele><time>2026-03-29T13:07:31.114Z</time></trkpt><trkpt lat="45.2966474" lon="8.0291796"><ele>222.0</ele><time>2026-03-29T13:07:32.109Z</time></trkpt><trkpt lat="45.296678" lon="8.0289339"><ele>222.0</ele><time>2026-03-29T13:07:33.109Z</time></trkpt><trkpt lat="45.2967076" lon="8.02868"><ele>222.0</ele><time>2026-03-29T13:07:34.107Z</time></trkpt><trkpt lat="45.2967397" lon="8.028407"><ele>222.0</ele><time>2026-03-29T13:07:35.1Z</time></trkpt><trkpt lat="45.2967782" lon="8.028117"><ele>221.66666666666669</ele><time>2026-03-29T13:07:36.114Z</time></trkpt><trkpt lat="45.2968127" lon="8.027811"><ele>221.33333333333334</ele><time>2026-03-29T13:07:37.099Z</time></trkpt><trkpt lat="45.2968519" lon="8.0274884"><ele>221.0</ele><time>2026-03-29T13:07:38.111Z</time></trkpt><trkpt lat="45.2968957" lon="8.0271699"><ele>221.5</ele><time>2026-03-29T13:07:39.131Z</time></trkpt><trkpt lat="45.2969362" lon="8.0268463"><ele>222.0</ele><time>2026-03-29T13:07:40.137Z</time></trkpt><trkpt lat="45.2969744" lon="8.0265403"><ele>222.0</ele><time>2026-03-29T13:07:41.153Z</time></trkpt><trkpt lat="45.2970121" lon="8.0262486"><ele>222.0</ele><time>2026-03-29T13:07:42.105Z</time></trkpt><trkpt lat="45.297051" lon="8.0259605"><ele>222.0</ele><time>2026-03-29T13:07:43.112Z</time></trkpt><trkpt lat="45.2970886" lon="8.0256725"><ele>222.0</ele><time>2026-03-29T13:07:44.101Z</time></trkpt><trkpt lat="45.2971274" lon="8.0253859"><ele>222.0</ele><time>2026-03-29T13:07:45.117Z</time></trkpt><trkpt lat="45.2971676" lon="8.0250944"><ele>222.0</ele><time>2026-03-29T13:07:46.104Z</time></trkpt><trkpt lat="45.2972007" lon="8.0248079"><ele>222.66666666666669</ele><time>2026-03-29T13:07:47.106Z</time></trkpt><trkpt lat="45.297236" lon="8.0245229"><ele>223.33333333333334</ele><time>2026-03-29T13:07:48.121Z</time></trkpt><trkpt lat="45.2972695" lon="8.0242298"><ele>224.0</ele><time>2026-03-29T13:07:49.099Z</time></trkpt><trkpt lat="45.2973064" lon="8.0239199"><ele>224.33333333333334</ele><time>2026-03-29T13:07:50.114Z</time></trkpt><trkpt lat="45.2973496" lon="8.0236201"><ele>224.66666666666669</ele><time>2026-03-29T13:07:51.11Z</time></trkpt><trkpt lat="45.2973825" lon="8.0233772"><ele>225.0</ele><time>2026-03-29T13:07:52.098Z</time></trkpt><trkpt lat="45.2974271" lon="8.0231772"><ele>225.0</ele><time>2026-03-29T13:07:53.112Z</time></trkpt><trkpt lat="45.2974864" lon="8.0230167"><ele>225.0</ele><time>2026-03-29T13:07:54.119Z</time></trkpt><trkpt lat="45.2975771" lon="8.0228585"><ele>225.0</ele><time>2026-03-29T13:07:55.113Z</time></trkpt><trkpt lat="45.2976737" lon="8.0227136"><ele>225.0</ele><time>2026-03-29T13:07:56.103Z</time></trkpt><trkpt lat="45.2977468" lon="8.0225721"><ele>225.5</ele><time>2026-03-29T13:07:57.117Z</time></trkpt><trkpt lat="45.2977904" lon="8.0224144"><ele>226.0</ele><time>2026-03-29T13:07:58.122Z</time></trkpt><trkpt lat="45.297787" lon="8.0222236"><ele>226.5</ele><time>2026-03-29T13:07:59.112Z</time></trkpt><trkpt lat="45.2977299" lon="8.0220199"><ele>227.0</ele><time>2026-03-29T13:08:00.122Z</time></trkpt><trkpt lat="45.2976335" lon="8.0218102"><ele>226.66666666666669</ele><time>2026-03-29T13:08:01.109Z</time></trkpt><trkpt lat="45.2975683" lon="8.0215849"><ele>226.33333333333331</ele><time>2026-03-29T13:08:02.118Z</time></trkpt><trkpt lat="45.2975441" lon="8.0213223"><ele>226.0</ele><time>2026-03-29T13:08:03.114Z</time></trkpt><trkpt lat="45.2975592" lon="8.0210392"><ele>226.0</ele><time>2026-03-29T13:08:04.119Z</time></trkpt><trkpt lat="45.2975782" lon="8.0207581"><ele>226.0</ele><time>2026-03-29T13:08:05.102Z</time></trkpt><trkpt lat="45.2975943" lon="8.0204762"><ele>226.0</ele><time>2026-03-29T13:08:06.112Z</time></trkpt><trkpt lat="45.2976096" lon="8.0202018"><ele>226.66666666666666</ele><time>2026-03-29T13:08:07.101Z</time></trkpt><trkpt lat="45.2976246" lon="8.0199314"><ele>227.33333333333331</ele><time>2026-03-29T13:08:08.107Z</time></trkpt><trkpt lat="45.2976389" lon="8.0196439"><ele>228.0</ele><time>2026-03-29T13:08:09.112Z</time></trkpt><trkpt lat="45.2976503" lon="8.0193537"><ele>228.0</ele><time>2026-03-29T13:08:10.103Z</time></trkpt><trkpt lat="45.2976594" lon="8.0190522"><ele>228.0</ele><time>2026-03-29T13:08:11.109Z</time></trkpt><trkpt lat="45.297669" lon="8.0187542"><ele>228.0</ele><time>2026-03-29T13:08:12.112Z</time></trkpt><trkpt lat="45.2976809" lon="8.0184566"><ele>228.33333333333331</ele><time>2026-03-29T13:08:13.1Z</time></trkpt><trkpt lat="45.2976924" lon="8.0181489"><ele>228.66666666666666</ele><time>2026-03-29T13:08:14.106Z</time></trkpt><trkpt lat="45.2977061" lon="8.0178322"><ele>229.0</ele><time>2026-03-29T13:08:15.099Z</time></trkpt><trkpt lat="45.2977215" lon="8.017516"><ele>229.66666666666666</ele><time>2026-03-29T13:08:16.102Z</time></trkpt><trkpt lat="45.2977319" lon="8.017203"><ele>230.33333333333331</ele><time>2026-03-29T13:08:17.101Z</time></trkpt><trkpt lat="45.2977403" lon="8.016892"><ele>231.0</ele><time>2026-03-29T13:08:18.108Z</time></trkpt><trkpt lat="45.29775" lon="8.0165875"><ele>231.0</ele><time>2026-03-29T13:08:19.113Z</time></trkpt><trkpt lat="45.2977595" lon="8.0162922"><ele>231.0</ele><time>2026-03-29T13:08:20.1Z</time></trkpt><trkpt lat="45.2977669" lon="8.0159899"><ele>231.0</ele><time>2026-03-29T13:08:21.104Z</time></trkpt><trkpt lat="45.2977742" lon="8.0156904"><ele>231.0</ele><time>2026-03-29T13:08:22.105Z</time></trkpt><trkpt lat="45.2977783" lon="8.0153915"><ele>231.0</ele><time>2026-03-29T13:08:23.109Z</time></trkpt><trkpt lat="45.2977819" lon="8.0150939"><ele>231.0</ele><time>2026-03-29T13:08:24.142Z</time></trkpt><trkpt lat="45.2977833" lon="8.0147974"><ele>231.0</ele><time>2026-03-29T13:08:25.109Z</time></trkpt><trkpt lat="45.2977797" lon="8.0144999"><ele>231.0</ele><time>2026-03-29T13:08:26.127Z</time></trkpt><trkpt lat="45.2977826" lon="8.0142027"><ele>231.0</ele><time>2026-03-29T13:08:27.116Z</time></trkpt><trkpt lat="45.2977826" lon="8.0139069"><ele>231.66666666666669</ele><time>2026-03-29T13:08:28.107Z</time></trkpt><trkpt lat="45.2977791" lon="8.0136065"><ele>232.33333333333334</ele><time>2026-03-29T13:08:29.142Z</time></trkpt><trkpt lat="45.2977806" lon="8.0133009"><ele>233.0</ele><time>2026-03-29T13:08:30.102Z</time></trkpt><trkpt lat="45.2977785" lon="8.0129978"><ele>233.0</ele><time>2026-03-29T13:08:31.114Z</time></trkpt><trkpt lat="45.2977782" lon="8.0126943"><ele>233.0</ele><time>2026-03-29T13:08:32.107Z</time></trkpt><trkpt lat="45.2977762" lon="8.0123906"><ele>233.0</ele><time>2026-03-29T13:08:33.104Z</time></trkpt><trkpt lat="45.2977745" lon="8.0120841"><ele>233.0</ele><time>2026-03-29T13:08:34.108Z</time></trkpt><trkpt lat="45.2977721" lon="8.011776"><ele>233.0</ele><time>2026-03-29T13:08:35.1Z</time></trkpt><trkpt lat="45.2977689" lon="8.0114638"><ele>233.0</ele><time>2026-03-29T13:08:36.135Z</time></trkpt><trkpt lat="45.2977674" lon="8.0111488"><ele>233.0</ele><time>2026-03-29T13:08:37.123Z</time></trkpt><trkpt lat="45.2977646" lon="8.0108362"><ele>233.0</ele><time>2026-03-29T13:08:38.115Z</time></trkpt><trkpt lat="45.2977612" lon="8.0105254"><ele>233.0</ele><time>2026-03-29T13:08:39.114Z</time></trkpt><trkpt lat="45.2977613" lon="8.0102293"><ele>234.0</ele><time>2026-03-29T13:08:40.111Z</time></trkpt><trkpt lat="45.2977648" lon="8.0099505"><ele>235.0</ele><time>2026-03-29T13:08:41.109Z</time></trkpt><trkpt lat="45.2977629" lon="8.0096841"><ele>236.0</ele><time>2026-03-29T13:08:42.114Z</time></trkpt><trkpt lat="45.2977648" lon="8.0094262"><ele>235.66666666666669</ele><time>2026-03-29T13:08:43.105Z</time></trkpt><trkpt lat="45.2977671" lon="8.0091542"><ele>235.33333333333331</ele><time>2026-03-29T13:08:44.107Z</time></trkpt><trkpt lat="45.2977622" lon="8.0088677"><ele>235.0</ele><time>2026-03-29T13:08:45.112Z</time></trkpt><trkpt lat="45.2977646" lon="8.0085731"><ele>235.33333333333331</ele><time>2026-03-29T13:08:46.112Z</time></trkpt><trkpt lat="45.2977624" lon="8.0082629"><ele>235.66666666666669</ele><time>2026-03-29T13:08:47.102Z</time></trkpt><trkpt lat="45.2977543" lon="8.0079603"><ele>236.0</ele><time>2026-03-29T13:08:48.111Z</time></trkpt><trkpt lat="45.2977493" lon="8.0077036"><ele>236.25</ele><time>2026-03-29T13:08:49.107Z</time></trkpt><trkpt lat="45.2977541" lon="8.0074873"><ele>236.5</ele><time>2026-03-29T13:08:50.124Z</time></trkpt><trkpt lat="45.2977672" lon="8.0073158"><ele>236.75</ele><time>2026-03-29T13:08:51.112Z</time></trkpt><trkpt lat="45.2978074" lon="8.0071666"><ele>237.0</ele><time>2026-03-29T13:08:52.108Z</time></trkpt><trkpt lat="45.2978886" lon="8.0070386"><ele>237.0</ele><time>2026-03-29T13:08:53.106Z</time></trkpt><trkpt lat="45.297999" lon="8.0069316"><ele>237.0</ele><time>2026-03-29T13:08:54.115Z</time></trkpt><trkpt lat="45.298121" lon="8.00682"><ele>237.0</ele><time>2026-03-29T13:08:55.111Z</time></trkpt><trkpt lat="45.2982095" lon="8.0066776"><ele>237.0</ele><time>2026-03-29T13:08:56.099Z</time></trkpt><trkpt lat="45.2982685" lon="8.0065021"><ele>237.5</ele><time>2026-03-29T13:08:57.11Z</time></trkpt><trkpt lat="45.2982872" lon="8.0063147"><ele>238.0</ele><time>2026-03-29T13:08:58.101Z</time></trkpt><trkpt lat="45.298283" lon="8.0061373"><ele>238.5</ele><time>2026-03-29T13:08:59.093Z</time></trkpt><trkpt lat="45.2982441" lon="8.0059689"><ele>239.0</ele><time>2026-03-29T13:09:00.103Z</time></trkpt><trkpt lat="45.2981594" lon="8.0058161"><ele>239.0</ele><time>2026-03-29T13:09:01.107Z</time></trkpt><trkpt lat="45.2980444" lon="8.0056999"><ele>239.0</ele><time>2026-03-29T13:09:02.11Z</time></trkpt><trkpt lat="45.297884" lon="8.0056311"><ele>239.0</ele><time>2026-03-29T13:09:03.103Z</time></trkpt><trkpt lat="45.2977226" lon="8.0055694"><ele>239.0</ele><time>2026-03-29T13:09:04.115Z</time></trkpt><trkpt lat="45.2975705" lon="8.0054788"><ele>239.0</ele><time>2026-03-29T13:09:05.138Z</time></trkpt><trkpt lat="45.2974173" lon="8.0053517"><ele>239.0</ele><time>2026-03-29T13:09:06.109Z</time></trkpt><trkpt lat="45.2972632" lon="8.0051953"><ele>239.0</ele><time>2026-03-29T13:09:07.147Z</time></trkpt><trkpt lat="45.2971033" lon="8.0050263"><ele>239.0</ele><time>2026-03-29T13:09:08.119Z</time></trkpt><trkpt lat="45.2969469" lon="8.0048458"><ele>239.0</ele><time>2026-03-29T13:09:09.114Z</time></trkpt><trkpt lat="45.2967828" lon="8.0046686"><ele>239.0</ele><time>2026-03-29T13:09:10.107Z</time></trkpt><trkpt lat="45.2966225" lon="8.0044937"><ele>239.0</ele><time>2026-03-29T13:09:11.102Z</time></trkpt><trkpt lat="45.2964558" lon="8.0043144"><ele>239.0</ele><time>2026-03-29T13:09:12.103Z</time></trkpt><trkpt lat="45.2962881" lon="8.0041355"><ele>238.66666666666669</ele><time>2026-03-29T13:09:13.122Z</time></trkpt><trkpt lat="45.2961242" lon="8.0039565"><ele>238.33333333333331</ele><time>2026-03-29T13:09:14.127Z</time></trkpt><trkpt lat="45.2959563" lon="8.0037739"><ele>238.0</ele><time>2026-03-29T13:09:15.111Z</time></trkpt><trkpt lat="45.2957851" lon="8.0035872"><ele>238.0</ele><time>2026-03-29T13:09:16.1Z</time></trkpt><trkpt lat="45.2956122" lon="8.0034031"><ele>238.0</ele><time>2026-03-29T13:09:17.11Z</time></trkpt><trkpt lat="45.2954382" lon="8.0032149"><ele>238.0</ele><time>2026-03-29T13:09:18.106Z</time></trkpt><trkpt lat="45.2952584" lon="8.0030261"><ele>238.0</ele><time>2026-03-29T13:09:19.1Z</time></trkpt><trkpt lat="45.2950812" lon="8.002835"><ele>238.0</ele><time>2026-03-29T13:09:20.085Z</time></trkpt><trkpt lat="45.2949063" lon="8.002642"><ele>238.0</ele><time>2026-03-29T13:09:21.109Z</time></trkpt><trkpt lat="45.2947297" lon="8.0024564"><ele>238.0</ele><time>2026-03-29T13:09:22.097Z</time></trkpt><trkpt lat="45.2945549" lon="8.0022697"><ele>238.0</ele><time>2026-03-29T13:09:23.109Z</time></trkpt><trkpt lat="45.2943878" lon="8.0020849"><ele>238.0</ele><time>2026-03-29T13:09:24.115Z</time></trkpt><trkpt lat="45.2942225" lon="8.0018981"><ele>238.0</ele><time>2026-03-29T13:09:25.113Z</time></trkpt><trkpt lat="45.294054" lon="8.0017117"><ele>238.0</ele><time>2026-03-29T13:09:26.114Z</time></trkpt><trkpt lat="45.2938774" lon="8.0015226"><ele>238.0</ele><time>2026-03-29T13:09:27.117Z</time></trkpt><trkpt lat="45.2937001" lon="8.0013344"><ele>238.0</ele><time>2026-03-29T13:09:28.116Z</time></trkpt><trkpt lat="45.2935251" lon="8.001144"><ele>238.0</ele><time>2026-03-29T13:09:29.107Z</time></trkpt><trkpt lat="45.2933443" lon="8.0009518"><ele>238.0</ele><time>2026-03-29T13:09:30.127Z</time></trkpt><trkpt lat="45.2931688" lon="8.0007629"><ele>237.33333333333331</ele><time>2026-03-29T13:09:31.105Z</time></trkpt><trkpt lat="45.292989" lon="8.0005768"><ele>236.66666666666669</ele><time>2026-03-29T13:09:32.095Z</time></trkpt><trkpt lat="45.2928163" lon="8.0003918"><ele>236.0</ele><time>2026-03-29T13:09:33.111Z</time></trkpt><trkpt lat="45.2926414" lon="8.0001967"><ele>236.0</ele><time>2026-03-29T13:09:34.107Z</time></trkpt><trkpt lat="45.2924648" lon="7.9999983"><ele>236.0</ele><time>2026-03-29T13:09:35.1Z</time></trkpt><trkpt lat="45.2922866" lon="7.9998076"><ele>236.0</ele><time>2026-03-29T13:09:36.092Z</time></trkpt><trkpt lat="45.2921057" lon="7.9996125"><ele>235.0</ele><time>2026-03-29T13:09:37.101Z</time></trkpt><trkpt lat="45.2919272" lon="7.9994175"><ele>234.0</ele><time>2026-03-29T13:09:38.098Z</time></trkpt><trkpt lat="45.2917441" lon="7.9992219"><ele>235.0</ele><time>2026-03-29T13:09:39.107Z</time></trkpt><trkpt lat="45.2915588" lon="7.9990295"><ele>236.0</ele><time>2026-03-29T13:09:40.115Z</time></trkpt><trkpt lat="45.2913717" lon="7.9988339"><ele>236.0</ele><time>2026-03-29T13:09:41.139Z</time></trkpt><trkpt lat="45.2911896" lon="7.998641"><ele>236.0</ele><time>2026-03-29T13:09:42.125Z</time></trkpt><trkpt lat="45.2910159" lon="7.9984485"><ele>236.0</ele><time>2026-03-29T13:09:43.121Z</time></trkpt><trkpt lat="45.2908442" lon="7.9982591"><ele>236.0</ele><time>2026-03-29T13:09:44.122Z</time></trkpt><trkpt lat="45.2906712" lon="7.998068"><ele>236.0</ele><time>2026-03-29T13:09:45.112Z</time></trkpt><trkpt lat="45.2904992" lon="7.9978797"><ele>236.0</ele><time>2026-03-29T13:09:46.124Z</time></trkpt><trkpt lat="45.2903247" lon="7.9976908"><ele>235.66666666666669</ele><time>2026-03-29T13:09:47.118Z</time></trkpt><trkpt lat="45.2901501" lon="7.9975011"><ele>235.33333333333331</ele><time>2026-03-29T13:09:48.105Z</time></trkpt><trkpt lat="45.2899723" lon="7.9973091"><ele>235.0</ele><time>2026-03-29T13:09:49.098Z</time></trkpt><trkpt lat="45.2897944" lon="7.9971167"><ele>235.5</ele><time>2026-03-29T13:09:50.11Z</time></trkpt><trkpt lat="45.2896131" lon="7.9969229"><ele>236.0</ele><time>2026-03-29T13:09:51.127Z</time></trkpt><trkpt lat="45.2894339" lon="7.9967257"><ele>236.5</ele><time>2026-03-29T13:09:52.11Z</time></trkpt><trkpt lat="45.2892519" lon="7.9965313"><ele>237.0</ele><time>2026-03-29T13:09:53.107Z</time></trkpt><trkpt lat="45.2890713" lon="7.9963349"><ele>236.5</ele><time>2026-03-29T13:09:54.115Z</time></trkpt><trkpt lat="45.2888915" lon="7.9961392"><ele>236.0</ele><time>2026-03-29T13:09:55.117Z</time></trkpt><trkpt lat="45.2887141" lon="7.9959441"><ele>236.0</ele><time>2026-03-29T13:09:56.135Z</time></trkpt><trkpt lat="45.2885399" lon="7.9957544"><ele>236.0</ele><time>2026-03-29T13:09:57.107Z</time></trkpt><trkpt lat="45.2883609" lon="7.9955647"><ele>236.0</ele><time>2026-03-29T13:09:58.103Z</time></trkpt><trkpt lat="45.2881803" lon="7.9953729"><ele>236.0</ele><time>2026-03-29T13:09:59.103Z</time></trkpt><trkpt lat="45.2880014" lon="7.9951816"><ele>236.0</ele><time>2026-03-29T13:10:00.102Z</time></trkpt><trkpt lat="45.2878211" lon="7.9949881"><ele>236.0</ele><time>2026-03-29T13:10:01.118Z</time></trkpt><trkpt lat="45.2876387" lon="7.9947923"><ele>236.0</ele><time>2026-03-29T13:10:02.12Z</time></trkpt><trkpt lat="45.2874548" lon="7.9945934"><ele>236.0</ele><time>2026-03-29T13:10:03.114Z</time></trkpt><trkpt lat="45.2872736" lon="7.9943926"><ele>236.0</ele><time>2026-03-29T13:10:04.134Z</time></trkpt><trkpt lat="45.2870915" lon="7.9941944"><ele>236.0</ele><time>2026-03-29T13:10:05.109Z</time></trkpt><trkpt lat="45.286906" lon="7.9939935"><ele>236.0</ele><time>2026-03-29T13:10:06.116Z</time></trkpt><trkpt lat="45.2867211" lon="7.9937958"><ele>236.0</ele><time>2026-03-29T13:10:07.106Z</time></trkpt><trkpt lat="45.2865392" lon="7.9935983"><ele>236.0</ele><time>2026-03-29T13:10:08.105Z</time></trkpt><trkpt lat="45.286359" lon="7.9934017"><ele>236.0</ele><time>2026-03-29T13:10:09.1Z</time></trkpt><trkpt lat="45.2861788" lon="7.9932087"><ele>236.0</ele><time>2026-03-29T13:10:10.114Z</time></trkpt><trkpt lat="45.2859968" lon="7.9930175"><ele>236.0</ele><time>2026-03-29T13:10:11.127Z</time></trkpt><trkpt lat="45.2858205" lon="7.9928239"><ele>236.0</ele><time>2026-03-29T13:10:12.108Z</time></trkpt><trkpt lat="45.2856398" lon="7.992635"><ele>236.0</ele><time>2026-03-29T13:10:13.122Z</time></trkpt><trkpt lat="45.2854547" lon="7.9924427"><ele>236.0</ele><time>2026-03-29T13:10:14.103Z</time></trkpt><trkpt lat="45.2852743" lon="7.9922527"><ele>236.0</ele><time>2026-03-29T13:10:15.113Z</time></trkpt><trkpt lat="45.2850931" lon="7.9920562"><ele>236.0</ele><time>2026-03-29T13:10:16.117Z</time></trkpt><trkpt lat="45.284915" lon="7.9918661"><ele>236.0</ele><time>2026-03-29T13:10:17.103Z</time></trkpt><trkpt lat="45.2847396" lon="7.9916748"><ele>236.0</ele><time>2026-03-29T13:10:18.121Z</time></trkpt><trkpt lat="45.2845637" lon="7.9914846"><ele>236.0</ele><time>2026-03-29T13:10:19.133Z</time></trkpt><trkpt lat="45.2843862" lon="7.991299"><ele>236.0</ele><time>2026-03-29T13:10:20.1Z</time></trkpt><trkpt lat="45.2842064" lon="7.991115"><ele>236.0</ele><time>2026-03-29T13:10:21.104Z</time></trkpt><trkpt lat="45.2840259" lon="7.9909315"><ele>235.66666666666669</ele><time>2026-03-29T13:10:22.108Z</time></trkpt><trkpt lat="45.283841" lon="7.9907499"><ele>235.33333333333331</ele><time>2026-03-29T13:10:23.111Z</time></trkpt><trkpt lat="45.2836594" lon="7.9905655"><ele>235.0</ele><time>2026-03-29T13:10:24.104Z</time></trkpt><trkpt lat="45.2834761" lon="7.9903817"><ele>235.0</ele><time>2026-03-29T13:10:25.135Z</time></trkpt><trkpt lat="45.2832937" lon="7.9902012"><ele>235.0</ele><time>2026-03-29T13:10:26.107Z</time></trkpt><trkpt lat="45.2831086" lon="7.9900174"><ele>235.0</ele><time>2026-03-29T13:10:27.11Z</time></trkpt><trkpt lat="45.2829259" lon="7.9898387"><ele>234.66666666666666</ele><time>2026-03-29T13:10:28.114Z</time></trkpt><trkpt lat="45.2827401" lon="7.9896599"><ele>234.33333333333331</ele><time>2026-03-29T13:10:29.117Z</time></trkpt><trkpt lat="45.2825571" lon="7.9894831"><ele>234.0</ele><time>2026-03-29T13:10:30.129Z</time></trkpt><trkpt lat="45.2823756" lon="7.9893068"><ele>234.0</ele><time>2026-03-29T13:10:31.1Z</time></trkpt><trkpt lat="45.282196" lon="7.9891299"><ele>234.0</ele><time>2026-03-29T13:10:32.122Z</time></trkpt><trkpt lat="45.2820137" lon="7.9889446"><ele>234.0</ele><time>2026-03-29T13:10:33.114Z</time></trkpt><trkpt lat="45.2818295" lon="7.9887615"><ele>234.0</ele><time>2026-03-29T13:10:34.123Z</time></trkpt><trkpt lat="45.2816438" lon="7.9885776"><ele>234.0</ele><time>2026-03-29T13:10:35.134Z</time></trkpt><trkpt lat="45.2814604" lon="7.9883929"><ele>233.0</ele><time>2026-03-29T13:10:36.118Z</time></trkpt><trkpt lat="45.2812761" lon="7.9882095"><ele>232.0</ele><time>2026-03-29T13:10:37.113Z</time></trkpt><trkpt lat="45.2810929" lon="7.9880235"><ele>232.0</ele><time>2026-03-29T13:10:38.121Z</time></trkpt><trkpt lat="45.2809067" lon="7.9878441"><ele>232.0</ele><time>2026-03-29T13:10:39.118Z</time></trkpt><trkpt lat="45.2807256" lon="7.9876686"><ele>232.0</ele><time>2026-03-29T13:10:40.093Z</time></trkpt><trkpt lat="45.280541" lon="7.9874852"><ele>231.66666666666666</ele><time>2026-03-29T13:10:41.126Z</time></trkpt><trkpt lat="45.2803547" lon="7.9873062"><ele>231.33333333333331</ele><time>2026-03-29T13:10:42.096Z</time></trkpt><trkpt lat="45.2801709" lon="7.9871288"><ele>231.0</ele><time>2026-03-29T13:10:43.101Z</time></trkpt><trkpt lat="45.279986" lon="7.9869452"><ele>231.0</ele><time>2026-03-29T13:10:44.112Z</time></trkpt><trkpt lat="45.2797979" lon="7.9867621"><ele>231.0</ele><time>2026-03-29T13:10:45.111Z</time></trkpt><trkpt lat="45.2796102" lon="7.9865735"><ele>232.0</ele><time>2026-03-29T13:10:46.106Z</time></trkpt><trkpt lat="45.2794225" lon="7.986382"><ele>233.0</ele><time>2026-03-29T13:10:47.112Z</time></trkpt><trkpt lat="45.2792313" lon="7.9861923"><ele>233.0</ele><time>2026-03-29T13:10:48.122Z</time></trkpt><trkpt lat="45.279044" lon="7.9860038"><ele>233.0</ele><time>2026-03-29T13:10:49.111Z</time></trkpt><trkpt lat="45.2788572" lon="7.9858163"><ele>231.5</ele><time>2026-03-29T13:10:50.116Z</time></trkpt><trkpt lat="45.2786645" lon="7.9856343"><ele>230.0</ele><time>2026-03-29T13:10:51.112Z</time></trkpt><trkpt lat="45.2784783" lon="7.9854491"><ele>230.0</ele><time>2026-03-29T13:10:52.112Z</time></trkpt><trkpt lat="45.2782919" lon="7.9852652"><ele>230.0</ele><time>2026-03-29T13:10:53.11Z</time></trkpt><trkpt lat="45.278111" lon="7.9850818"><ele>230.0</ele><time>2026-03-29T13:10:54.108Z</time></trkpt><trkpt lat="45.2779324" lon="7.9849061"><ele>230.33333333333334</ele><time>2026-03-29T13:10:55.136Z</time></trkpt><trkpt lat="45.2777546" lon="7.9847262"><ele>230.66666666666669</ele><time>2026-03-29T13:10:56.103Z</time></trkpt><trkpt lat="45.2775776" lon="7.9845503"><ele>231.0</ele><time>2026-03-29T13:10:57.113Z</time></trkpt><trkpt lat="45.277406" lon="7.9843801"><ele>230.66666666666669</ele><time>2026-03-29T13:10:58.119Z</time></trkpt><trkpt lat="45.2772292" lon="7.9842125"><ele>230.33333333333334</ele><time>2026-03-29T13:10:59.119Z</time></trkpt><trkpt lat="45.2770551" lon="7.9840455"><ele>230.0</ele><time>2026-03-29T13:11:00.102Z</time></trkpt><trkpt lat="45.2768843" lon="7.9838795"><ele>230.0</ele><time>2026-03-29T13:11:01.111Z</time></trkpt><trkpt lat="45.276711" lon="7.9837157"><ele>230.0</ele><time>2026-03-29T13:11:02.093Z</time></trkpt><trkpt lat="45.2765398" lon="7.9835505"><ele>230.0</ele><time>2026-03-29T13:11:03.115Z</time></trkpt><trkpt lat="45.2763711" lon="7.9833867"><ele>229.66666666666669</ele><time>2026-03-29T13:11:04.106Z</time></trkpt><trkpt lat="45.2762077" lon="7.9832253"><ele>229.33333333333331</ele><time>2026-03-29T13:11:05.109Z</time></trkpt><trkpt lat="45.2760588" lon="7.9830718"><ele>229.0</ele><time>2026-03-29T13:11:06.119Z</time></trkpt><trkpt lat="45.2759225" lon="7.9829361"><ele>229.0</ele><time>2026-03-29T13:11:07.119Z</time></trkpt><trkpt lat="45.2757887" lon="7.9828069"><ele>229.0</ele><time>2026-03-29T13:11:08.14Z</time></trkpt><trkpt lat="45.2756608" lon="7.9826752"><ele>229.0</ele><time>2026-03-29T13:11:09.139Z</time></trkpt><trkpt lat="45.2755351" lon="7.9825538"><ele>229.66666666666666</ele><time>2026-03-29T13:11:10.122Z</time></trkpt><trkpt lat="45.2754062" lon="7.9824282"><ele>230.33333333333331</ele><time>2026-03-29T13:11:11.122Z</time></trkpt><trkpt lat="45.2752806" lon="7.9823044"><ele>231.0</ele><time>2026-03-29T13:11:12.099Z</time></trkpt><trkpt lat="45.2751594" lon="7.9821856"><ele>231.0</ele><time>2026-03-29T13:11:13.123Z</time></trkpt><trkpt lat="45.2750395" lon="7.9820597"><ele>231.0</ele><time>2026-03-29T13:11:14.102Z</time></trkpt><trkpt lat="45.274915" lon="7.9819305"><ele>231.0</ele><time>2026-03-29T13:11:15.109Z</time></trkpt><trkpt lat="45.2747822" lon="7.9818042"><ele>229.66666666666669</ele><time>2026-03-29T13:11:16.107Z</time></trkpt><trkpt lat="45.2746396" lon="7.9816701"><ele>228.33333333333334</ele><time>2026-03-29T13:11:17.101Z</time></trkpt><trkpt lat="45.274495" lon="7.9815323"><ele>227.0</ele><time>2026-03-29T13:11:18.121Z</time></trkpt><trkpt lat="45.2743488" lon="7.9813846"><ele>227.0</ele><time>2026-03-29T13:11:19.121Z</time></trkpt><trkpt lat="45.2742112" lon="7.9812474"><ele>227.0</ele><time>2026-03-29T13:11:20.107Z</time></trkpt><trkpt lat="45.2740698" lon="7.9811214"><ele>227.0</ele><time>2026-03-29T13:11:21.132Z</time></trkpt><trkpt lat="45.2739222" lon="7.9810262"><ele>225.66666666666669</ele><time>2026-03-29T13:11:22.105Z</time></trkpt><trkpt lat="45.2737674" lon="7.9809648"><ele>224.33333333333331</ele><time>2026-03-29T13:11:23.113Z</time></trkpt><trkpt lat="45.2736165" lon="7.98096"><ele>223.0</ele><time>2026-03-29T13:11:24.105Z</time></trkpt><trkpt lat="45.2734681" lon="7.9809966"><ele>223.0</ele><time>2026-03-29T13:11:25.113Z</time></trkpt><trkpt lat="45.2733347" lon="7.9810763"><ele>223.0</ele><time>2026-03-29T13:11:26.116Z</time></trkpt><trkpt lat="45.2732047" lon="7.9811941"><ele>223.0</ele><time>2026-03-29T13:11:27.123Z</time></trkpt><trkpt lat="45.2730799" lon="7.9813209"><ele>222.75</ele><time>2026-03-29T13:11:28.136Z</time></trkpt><trkpt lat="45.2729542" lon="7.9814455"><ele>222.5</ele><time>2026-03-29T13:11:29.101Z</time></trkpt><trkpt lat="45.2728388" lon="7.9815667"><ele>222.25</ele><time>2026-03-29T13:11:30.117Z</time></trkpt><trkpt lat="45.2727189" lon="7.9816923"><ele>222.0</ele><time>2026-03-29T13:11:31.102Z</time></trkpt><trkpt lat="45.272598" lon="7.9818174"><ele>222.0</ele><time>2026-03-29T13:11:32.101Z</time></trkpt><trkpt lat="45.2724805" lon="7.9819481"><ele>222.0</ele><time>2026-03-29T13:11:33.104Z</time></trkpt><trkpt lat="45.2723663" lon="7.9820655"><ele>222.0</ele><time>2026-03-29T13:11:34.116Z</time></trkpt><trkpt lat="45.2722543" lon="7.9821801"><ele>222.0</ele><time>2026-03-29T13:11:35.112Z</time></trkpt><trkpt lat="45.2721504" lon="7.9822844"><ele>221.25</ele><time>2026-03-29T13:11:36.133Z</time></trkpt><trkpt lat="45.272049" lon="7.9823925"><ele>220.5</ele><time>2026-03-29T13:11:37.124Z</time></trkpt><trkpt lat="45.2719526" lon="7.9824927"><ele>219.75</ele><time>2026-03-29T13:11:38.116Z</time></trkpt><trkpt lat="45.2718601" lon="7.9825976"><ele>219.0</ele><time>2026-03-29T13:11:39.111Z</time></trkpt><trkpt lat="45.2717729" lon="7.9826889"><ele>219.0</ele><time>2026-03-29T13:11:40.109Z</time></trkpt><trkpt lat="45.2716907" lon="7.9827585"><ele>218.99999999999997</ele><time>2026-03-29T13:11:41.114Z</time></trkpt><trkpt lat="45.2716034" lon="7.9828142"><ele>218.99999999999997</ele><time>2026-03-29T13:11:42.1Z</time></trkpt><trkpt lat="45.2715191" lon="7.9828257"><ele>219.0</ele><time>2026-03-29T13:11:43.12Z</time></trkpt><trkpt lat="45.2714327" lon="7.9827924"><ele>219.0</ele><time>2026-03-29T13:11:44.101Z</time></trkpt><trkpt lat="45.2713566" lon="7.9827015"><ele>218.2</ele><time>2026-03-29T13:11:45.12Z</time></trkpt><trkpt lat="45.2713183" lon="7.9825745"><ele>217.39999999999998</ele><time>2026-03-29T13:11:46.111Z</time></trkpt><trkpt lat="45.2713106" lon="7.9824293"><ele>216.6</ele><time>2026-03-29T13:11:47.108Z</time></trkpt><trkpt lat="45.2713391" lon="7.9822833"><ele>215.8</ele><time>2026-03-29T13:11:48.122Z</time></trkpt><trkpt lat="45.2713921" lon="7.9821504"><ele>215.0</ele><time>2026-03-29T13:11:49.117Z</time></trkpt><trkpt lat="45.2714371" lon="7.9820069"><ele>215.25</ele><time>2026-03-29T13:11:50.116Z</time></trkpt><trkpt lat="45.2714889" lon="7.9818521"><ele>215.5</ele><time>2026-03-29T13:11:51.109Z</time></trkpt><trkpt lat="45.2715388" lon="7.9816841"><ele>215.75</ele><time>2026-03-29T13:11:52.117Z</time></trkpt><trkpt lat="45.2715949" lon="7.9814997"><ele>216.0</ele><time>2026-03-29T13:11:53.114Z</time></trkpt><trkpt lat="45.2716534" lon="7.9813119"><ele>216.0</ele><time>2026-03-29T13:11:54.127Z</time></trkpt><trkpt lat="45.2717158" lon="7.9811235"><ele>216.0</ele><time>2026-03-29T13:11:55.115Z</time></trkpt><trkpt lat="45.2717739" lon="7.9809309"><ele>216.0</ele><time>2026-03-29T13:11:56.108Z</time></trkpt><trkpt lat="45.2718376" lon="7.9807444"><ele>216.0</ele><time>2026-03-29T13:11:57.105Z</time></trkpt><trkpt lat="45.2719036" lon="7.9805535"><ele>215.25</ele><time>2026-03-29T13:11:58.115Z</time></trkpt><trkpt lat="45.2719687" lon="7.980373"><ele>214.5</ele><time>2026-03-29T13:11:59.126Z</time></trkpt><trkpt lat="45.2720219" lon="7.9801979"><ele>213.75</ele><time>2026-03-29T13:12:00.116Z</time></trkpt><trkpt lat="45.2720357" lon="7.9800178"><ele>213.0</ele><time>2026-03-29T13:12:01.117Z</time></trkpt><trkpt lat="45.2719946" lon="7.9798494"><ele>211.0</ele><time>2026-03-29T13:12:02.107Z</time></trkpt><trkpt lat="45.2719268" lon="7.9797019"><ele>209.0</ele><time>2026-03-29T13:12:03.097Z</time></trkpt><trkpt lat="45.2718369" lon="7.9795899"><ele>207.0</ele><time>2026-03-29T13:12:04.106Z</time></trkpt><trkpt lat="45.2717211" lon="7.9795405"><ele>205.0</ele><time>2026-03-29T13:12:05.103Z</time></trkpt><trkpt lat="45.2715978" lon="7.9795269"><ele>205.0</ele><time>2026-03-29T13:12:06.127Z</time></trkpt><trkpt lat="45.2714706" lon="7.9795536"><ele>205.0</ele><time>2026-03-29T13:12:07.135Z</time></trkpt><trkpt lat="45.2713489" lon="7.9796104"><ele>205.0</ele><time>2026-03-29T13:12:08.111Z</time></trkpt><trkpt lat="45.2712329" lon="7.979676"><ele>205.0</ele><time>2026-03-29T13:12:09.139Z</time></trkpt><trkpt lat="45.2711273" lon="7.9797411"><ele>204.4</ele><time>2026-03-29T13:12:10.112Z</time></trkpt><trkpt lat="45.271034" lon="7.979794"><ele>203.8</ele><time>2026-03-29T13:12:11.117Z</time></trkpt><trkpt lat="45.2709436" lon="7.9798157"><ele>203.2</ele><time>2026-03-29T13:12:12.118Z</time></trkpt><trkpt lat="45.270853" lon="7.979806"><ele>202.6</ele><time>2026-03-29T13:12:13.115Z</time></trkpt><trkpt lat="45.2707481" lon="7.9797996"><ele>202.0</ele><time>2026-03-29T13:12:14.108Z</time></trkpt><trkpt lat="45.270652" lon="7.9798118"><ele>200.5</ele><time>2026-03-29T13:12:15.121Z</time></trkpt><trkpt lat="45.2705438" lon="7.9798405"><ele>199.0</ele><time>2026-03-29T13:12:16.117Z</time></trkpt><trkpt lat="45.270425" lon="7.9798686"><ele>197.5</ele><time>2026-03-29T13:12:17.141Z</time></trkpt><trkpt lat="45.2702938" lon="7.9798835"><ele>196.0</ele><time>2026-03-29T13:12:18.11Z</time></trkpt><trkpt lat="45.2701679" lon="7.9798455"><ele>196.0</ele><time>2026-03-29T13:12:19.113Z</time></trkpt><trkpt lat="45.2700329" lon="7.9797595"><ele>196.0</ele><time>2026-03-29T13:12:20.111Z</time></trkpt><trkpt lat="45.2699041" lon="7.9796621"><ele>196.0</ele><time>2026-03-29T13:12:21.113Z</time></trkpt><trkpt lat="45.2697797" lon="7.9795686"><ele>196.0</ele><time>2026-03-29T13:12:22.102Z</time></trkpt><trkpt lat="45.2696491" lon="7.9794839"><ele>195.5</ele><time>2026-03-29T13:12:23.111Z</time></trkpt><trkpt lat="45.269523" lon="7.9793966"><ele>195.0</ele><time>2026-03-29T13:12:24.104Z</time></trkpt><trkpt lat="45.2693965" lon="7.9793047"><ele>194.5</ele><time>2026-03-29T13:12:25.1Z</time></trkpt><trkpt lat="45.2692587" lon="7.9792217"><ele>194.0</ele><time>2026-03-29T13:12:26.101Z</time></trkpt><trkpt lat="45.2691264" lon="7.9791307"><ele>194.0</ele><time>2026-03-29T13:12:27.111Z</time></trkpt><trkpt lat="45.2689938" lon="7.9790337"><ele>194.0</ele><time>2026-03-29T13:12:28.108Z</time></trkpt><trkpt lat="45.268857" lon="7.9789403"><ele>194.0</ele><time>2026-03-29T13:12:29.1Z</time></trkpt><trkpt lat="45.268717" lon="7.9788418"><ele>193.66666666666669</ele><time>2026-03-29T13:12:30.124Z</time></trkpt><trkpt lat="45.2685757" lon="7.9787404"><ele>193.33333333333331</ele><time>2026-03-29T13:12:31.104Z</time></trkpt><trkpt lat="45.2684324" lon="7.9786412"><ele>193.0</ele><time>2026-03-29T13:12:32.115Z</time></trkpt><trkpt lat="45.2682836" lon="7.9785331"><ele>193.0</ele><time>2026-03-29T13:12:33.12Z</time></trkpt><trkpt lat="45.2681354" lon="7.9784266"><ele>193.0</ele><time>2026-03-29T13:12:34.119Z</time></trkpt><trkpt lat="45.2679842" lon="7.9783177"><ele>193.0</ele><time>2026-03-29T13:12:35.103Z</time></trkpt><trkpt lat="45.2678335" lon="7.9782131"><ele>192.66666666666666</ele><time>2026-03-29T13:12:36.099Z</time></trkpt><trkpt lat="45.2676797" lon="7.9781097"><ele>192.33333333333331</ele><time>2026-03-29T13:12:37.112Z</time></trkpt><trkpt lat="45.2675297" lon="7.9780026"><ele>192.0</ele><time>2026-03-29T13:12:38.126Z</time></trkpt><trkpt lat="45.2673738" lon="7.9778939"><ele>191.0</ele><time>2026-03-29T13:12:39.105Z</time></trkpt><trkpt lat="45.2672147" lon="7.9777784"><ele>190.0</ele><time>2026-03-29T13:12:40.102Z</time></trkpt><trkpt lat="45.2670624" lon="7.9776713"><ele>189.0</ele><time>2026-03-29T13:12:41.108Z</time></trkpt><trkpt lat="45.2669123" lon="7.9775653"><ele>190.0</ele><time>2026-03-29T13:12:42.114Z</time></trkpt><trkpt lat="45.2667655" lon="7.9774637"><ele>191.0</ele><time>2026-03-29T13:12:43.126Z</time></trkpt><trkpt lat="45.266613" lon="7.9773518"><ele>192.0</ele><time>2026-03-29T13:12:44.112Z</time></trkpt><trkpt lat="45.2664542" lon="7.9772401"><ele>191.33333333333334</ele><time>2026-03-29T13:12:45.11Z</time></trkpt><trkpt lat="45.2662972" lon="7.9771291"><ele>190.66666666666669</ele><time>2026-03-29T13:12:46.09Z</time></trkpt><trkpt lat="45.2661383" lon="7.9770127"><ele>190.0</ele><time>2026-03-29T13:12:47.102Z</time></trkpt><trkpt lat="45.26598" lon="7.9768987"><ele>190.0</ele><time>2026-03-29T13:12:48.107Z</time></trkpt><trkpt lat="45.2658232" lon="7.9767866"><ele>190.0</ele><time>2026-03-29T13:12:49.1Z</time></trkpt><trkpt lat="45.2656642" lon="7.976665"><ele>190.0</ele><time>2026-03-29T13:12:50.112Z</time></trkpt><trkpt lat="45.2655039" lon="7.97655"><ele>189.33333333333334</ele><time>2026-03-29T13:12:51.122Z</time></trkpt><trkpt lat="45.2653431" lon="7.9764336"><ele>188.66666666666666</ele><time>2026-03-29T13:12:52.104Z</time></trkpt><trkpt lat="45.26518" lon="7.9763248"><ele>188.0</ele><time>2026-03-29T13:12:53.133Z</time></trkpt><trkpt lat="45.26502" lon="7.9762063"><ele>188.0</ele><time>2026-03-29T13:12:54.105Z</time></trkpt><trkpt lat="45.264857" lon="7.9760893"><ele>188.0</ele><time>2026-03-29T13:12:55.104Z</time></trkpt><trkpt lat="45.264692" lon="7.975973"><ele>188.0</ele><time>2026-03-29T13:12:56.116Z</time></trkpt><trkpt lat="45.2645243" lon="7.9758544"><ele>188.33333333333331</ele><time>2026-03-29T13:12:57.103Z</time></trkpt><trkpt lat="45.2643595" lon="7.9757406"><ele>188.66666666666666</ele><time>2026-03-29T13:12:58.117Z</time></trkpt><trkpt lat="45.2642001" lon="7.975629"><ele>189.0</ele><time>2026-03-29T13:12:59.109Z</time></trkpt><trkpt lat="45.2640445" lon="7.9755178"><ele>190.0</ele><time>2026-03-29T13:13:00.113Z</time></trkpt><trkpt lat="45.2638841" lon="7.9754126"><ele>191.0</ele><time>2026-03-29T13:13:01.108Z</time></trkpt><trkpt lat="45.2637274" lon="7.9753032"><ele>192.0</ele><time>2026-03-29T13:13:02.107Z</time></trkpt><trkpt lat="45.2635769" lon="7.9751896"><ele>192.0</ele><time>2026-03-29T13:13:03.116Z</time></trkpt><trkpt lat="45.2634254" lon="7.9750774"><ele>192.0</ele><time>2026-03-29T13:13:04.114Z</time></trkpt><trkpt lat="45.2632754" lon="7.9749697"><ele>192.0</ele><time>2026-03-29T13:13:05.104Z</time></trkpt><trkpt lat="45.2631234" lon="7.9748577"><ele>192.66666666666669</ele><time>2026-03-29T13:13:06.105Z</time></trkpt><trkpt lat="45.2629681" lon="7.9747446"><ele>193.33333333333334</ele><time>2026-03-29T13:13:07.139Z</time></trkpt><trkpt lat="45.2628136" lon="7.9746371"><ele>194.0</ele><time>2026-03-29T13:13:08.098Z</time></trkpt><trkpt lat="45.2626577" lon="7.9745267"><ele>194.0</ele><time>2026-03-29T13:13:09.117Z</time></trkpt><trkpt lat="45.2625014" lon="7.9744061"><ele>194.0</ele><time>2026-03-29T13:13:10.111Z</time></trkpt><trkpt lat="45.2623411" lon="7.9742931"><ele>194.0</ele><time>2026-03-29T13:13:11.114Z</time></trkpt><trkpt lat="45.2621773" lon="7.9741817"><ele>194.33333333333334</ele><time>2026-03-29T13:13:12.121Z</time></trkpt><trkpt lat="45.2620149" lon="7.97406"><ele>194.66666666666669</ele><time>2026-03-29T13:13:13.106Z</time></trkpt><trkpt lat="45.261852" lon="7.9739476"><ele>195.0</ele><time>2026-03-29T13:13:14.113Z</time></trkpt><trkpt lat="45.2616929" lon="7.9738362"><ele>195.0</ele><time>2026-03-29T13:13:15.114Z</time></trkpt><trkpt lat="45.261535" lon="7.9737201"><ele>195.0</ele><time>2026-03-29T13:13:16.13Z</time></trkpt><trkpt lat="45.2613742" lon="7.9736052"><ele>195.0</ele><time>2026-03-29T13:13:17.104Z</time></trkpt><trkpt lat="45.2612172" lon="7.9734916"><ele>193.66666666666666</ele><time>2026-03-29T13:13:18.112Z</time></trkpt><trkpt lat="45.2610555" lon="7.9733808"><ele>192.33333333333331</ele><time>2026-03-29T13:13:19.106Z</time></trkpt><trkpt lat="45.2608923" lon="7.9732678"><ele>191.0</ele><time>2026-03-29T13:13:20.133Z</time></trkpt><trkpt lat="45.2607351" lon="7.9731538"><ele>191.0</ele><time>2026-03-29T13:13:21.108Z</time></trkpt><trkpt lat="45.2605781" lon="7.9730431"><ele>191.0</ele><time>2026-03-29T13:13:22.121Z</time></trkpt><trkpt lat="45.260421" lon="7.9729306"><ele>191.0</ele><time>2026-03-29T13:13:23.108Z</time></trkpt><trkpt lat="45.2602596" lon="7.9728116"><ele>191.0</ele><time>2026-03-29T13:13:24.113Z</time></trkpt><trkpt lat="45.2600982" lon="7.9726917"><ele>191.0</ele><time>2026-03-29T13:13:25.112Z</time></trkpt><trkpt lat="45.2599333" lon="7.9725737"><ele>191.0</ele><time>2026-03-29T13:13:26.111Z</time></trkpt><trkpt lat="45.259765" lon="7.9724569"><ele>190.0</ele><time>2026-03-29T13:13:27.103Z</time></trkpt><trkpt lat="45.2595992" lon="7.9723423"><ele>189.0</ele><time>2026-03-29T13:13:28.147Z</time></trkpt><trkpt lat="45.2594324" lon="7.9722264"><ele>188.0</ele><time>2026-03-29T13:13:29.119Z</time></trkpt><trkpt lat="45.2592667" lon="7.97211"><ele>188.0</ele><time>2026-03-29T13:13:30.115Z</time></trkpt><trkpt lat="45.2590971" lon="7.9719874"><ele>188.0</ele><time>2026-03-29T13:13:31.118Z</time></trkpt><trkpt lat="45.2589257" lon="7.9718652"><ele>188.0</ele><time>2026-03-29T13:13:32.112Z</time></trkpt><trkpt lat="45.258755" lon="7.9717395"><ele>188.66666666666666</ele><time>2026-03-29T13:13:33.106Z</time></trkpt><trkpt lat="45.2585812" lon="7.9716154"><ele>189.33333333333334</ele><time>2026-03-29T13:13:34.117Z</time></trkpt><trkpt lat="45.2584094" lon="7.971496"><ele>190.0</ele><time>2026-03-29T13:13:35.113Z</time></trkpt><trkpt lat="45.2582364" lon="7.9713677"><ele>190.66666666666669</ele><time>2026-03-29T13:13:36.11Z</time></trkpt><trkpt lat="45.2580635" lon="7.9712424"><ele>191.33333333333334</ele><time>2026-03-29T13:13:37.108Z</time></trkpt><trkpt lat="45.2578906" lon="7.9711176"><ele>192.0</ele><time>2026-03-29T13:13:38.107Z</time></trkpt><trkpt lat="45.2577196" lon="7.9709972"><ele>192.0</ele><time>2026-03-29T13:13:39.096Z</time></trkpt><trkpt lat="45.257546" lon="7.9708753"><ele>192.0</ele><time>2026-03-29T13:13:40.103Z</time></trkpt><trkpt lat="45.2573749" lon="7.9707553"><ele>192.0</ele><time>2026-03-29T13:13:41.114Z</time></trkpt><trkpt lat="45.2572018" lon="7.9706334"><ele>192.66666666666669</ele><time>2026-03-29T13:13:42.106Z</time></trkpt><trkpt lat="45.2570297" lon="7.9705118"><ele>193.33333333333334</ele><time>2026-03-29T13:13:43.103Z</time></trkpt><trkpt lat="45.2568586" lon="7.970385"><ele>194.0</ele><time>2026-03-29T13:13:44.106Z</time></trkpt><trkpt lat="45.2566897" lon="7.9702642"><ele>194.0</ele><time>2026-03-29T13:13:45.105Z</time></trkpt><trkpt lat="45.2565227" lon="7.9701411"><ele>194.0</ele><time>2026-03-29T13:13:46.132Z</time></trkpt><trkpt lat="45.2563532" lon="7.9700167"><ele>194.0</ele><time>2026-03-29T13:13:47.101Z</time></trkpt><trkpt lat="45.2561861" lon="7.9698973"><ele>193.0</ele><time>2026-03-29T13:13:48.102Z</time></trkpt><trkpt lat="45.2560217" lon="7.9697802"><ele>192.0</ele><time>2026-03-29T13:13:49.119Z</time></trkpt><trkpt lat="45.2558553" lon="7.9696611"><ele>191.0</ele><time>2026-03-29T13:13:50.104Z</time></trkpt><trkpt lat="45.2556884" lon="7.9695396"><ele>190.66666666666666</ele><time>2026-03-29T13:13:51.112Z</time></trkpt><trkpt lat="45.2555261" lon="7.9693995"><ele>190.33333333333334</ele><time>2026-03-29T13:13:52.101Z</time></trkpt><trkpt lat="45.2553733" lon="7.9692467"><ele>190.0</ele><time>2026-03-29T13:13:53.116Z</time></trkpt><trkpt lat="45.2552293" lon="7.9690763"><ele>190.66666666666669</ele><time>2026-03-29T13:13:54.107Z</time></trkpt><trkpt lat="45.2550917" lon="7.9689028"><ele>191.33333333333334</ele><time>2026-03-29T13:13:55.127Z</time></trkpt><trkpt lat="45.2549624" lon="7.9687167"><ele>192.0</ele><time>2026-03-29T13:13:56.112Z</time></trkpt><trkpt lat="45.2548349" lon="7.9685171"><ele>191.33333333333334</ele><time>2026-03-29T13:13:57.113Z</time></trkpt><trkpt lat="45.2547185" lon="7.9683029"><ele>190.66666666666669</ele><time>2026-03-29T13:13:58.124Z</time></trkpt><trkpt lat="45.2546072" lon="7.9680802"><ele>190.0</ele><time>2026-03-29T13:13:59.12Z</time></trkpt><trkpt lat="45.2545145" lon="7.9678496"><ele>190.0</ele><time>2026-03-29T13:14:00.115Z</time></trkpt><trkpt lat="45.2544333" lon="7.9676129"><ele>190.0</ele><time>2026-03-29T13:14:01.099Z</time></trkpt><trkpt lat="45.2543585" lon="7.9673678"><ele>190.0</ele><time>2026-03-29T13:14:02.104Z</time></trkpt><trkpt lat="45.2542903" lon="7.9671185"><ele>190.33333333333334</ele><time>2026-03-29T13:14:03.112Z</time></trkpt><trkpt lat="45.2542265" lon="7.9668689"><ele>190.66666666666666</ele><time>2026-03-29T13:14:04.113Z</time></trkpt><trkpt lat="45.2541562" lon="7.966618"><ele>191.0</ele><time>2026-03-29T13:14:05.108Z</time></trkpt><trkpt lat="45.2540867" lon="7.9663629"><ele>191.33333333333331</ele><time>2026-03-29T13:14:06.121Z</time></trkpt><trkpt lat="45.2540194" lon="7.9661046"><ele>191.66666666666666</ele><time>2026-03-29T13:14:07.098Z</time></trkpt><trkpt lat="45.2539523" lon="7.9658454"><ele>192.0</ele><time>2026-03-29T13:14:08.121Z</time></trkpt><trkpt lat="45.253882" lon="7.9655851"><ele>193.33333333333331</ele><time>2026-03-29T13:14:09.112Z</time></trkpt><trkpt lat="45.2538156" lon="7.9653245"><ele>194.66666666666666</ele><time>2026-03-29T13:14:10.102Z</time></trkpt><trkpt lat="45.2537511" lon="7.9650658"><ele>196.0</ele><time>2026-03-29T13:14:11.112Z</time></trkpt><trkpt lat="45.2536841" lon="7.9648094"><ele>196.66666666666666</ele><time>2026-03-29T13:14:12.127Z</time></trkpt><trkpt lat="45.253616" lon="7.9645535"><ele>197.33333333333331</ele><time>2026-03-29T13:14:13.102Z</time></trkpt><trkpt lat="45.2535526" lon="7.9642891"><ele>198.0</ele><time>2026-03-29T13:14:14.131Z</time></trkpt><trkpt lat="45.2534872" lon="7.9640344"><ele>198.33333333333331</ele><time>2026-03-29T13:14:15.095Z</time></trkpt><trkpt lat="45.2534221" lon="7.9637803"><ele>198.66666666666666</ele><time>2026-03-29T13:14:16.111Z</time></trkpt><trkpt lat="45.2533565" lon="7.9635268"><ele>199.0</ele><time>2026-03-29T13:14:17.105Z</time></trkpt><trkpt lat="45.2532906" lon="7.9632689"><ele>199.33333333333331</ele><time>2026-03-29T13:14:18.106Z</time></trkpt><trkpt lat="45.2532223" lon="7.9630139"><ele>199.66666666666669</ele><time>2026-03-29T13:14:19.098Z</time></trkpt><trkpt lat="45.2531589" lon="7.9627659"><ele>200.0</ele><time>2026-03-29T13:14:20.111Z</time></trkpt><trkpt lat="45.2530937" lon="7.962513"><ele>201.0</ele><time>2026-03-29T13:14:21.102Z</time></trkpt><trkpt lat="45.2530295" lon="7.9622626"><ele>202.0</ele><time>2026-03-29T13:14:22.116Z</time></trkpt><trkpt lat="45.2529663" lon="7.9620111"><ele>203.0</ele><time>2026-03-29T13:14:23.126Z</time></trkpt><trkpt lat="45.252903" lon="7.9617671"><ele>206.33333333333334</ele><time>2026-03-29T13:14:24.112Z</time></trkpt><trkpt lat="45.2528379" lon="7.9615188"><ele>209.66666666666669</ele><time>2026-03-29T13:14:25.131Z</time></trkpt><trkpt lat="45.2527705" lon="7.9612724"><ele>213.0</ele><time>2026-03-29T13:14:26.107Z</time></trkpt><trkpt lat="45.2526999" lon="7.9610229"><ele>213.33333333333331</ele><time>2026-03-29T13:14:27.113Z</time></trkpt><trkpt lat="45.2526277" lon="7.9607743"><ele>213.66666666666666</ele><time>2026-03-29T13:14:28.117Z</time></trkpt><trkpt lat="45.2525516" lon="7.9605336"><ele>214.0</ele><time>2026-03-29T13:14:29.111Z</time></trkpt><trkpt lat="45.2524717" lon="7.9602931"><ele>214.0</ele><time>2026-03-29T13:14:30.104Z</time></trkpt><trkpt lat="45.2523878" lon="7.9600619"><ele>214.0</ele><time>2026-03-29T13:14:31.118Z</time></trkpt><trkpt lat="45.2522975" lon="7.9598319"><ele>214.0</ele><time>2026-03-29T13:14:32.134Z</time></trkpt><trkpt lat="45.2522025" lon="7.9596044"><ele>214.0</ele><time>2026-03-29T13:14:33.1Z</time></trkpt><trkpt lat="45.2521022" lon="7.9593827"><ele>214.0</ele><time>2026-03-29T13:14:34.116Z</time></trkpt><trkpt lat="45.2519925" lon="7.9591661"><ele>214.0</ele><time>2026-03-29T13:14:35.107Z</time></trkpt><trkpt lat="45.2518791" lon="7.9589587"><ele>214.0</ele><time>2026-03-29T13:14:36.118Z</time></trkpt><trkpt lat="45.2517526" lon="7.9587591"><ele>214.0</ele><time>2026-03-29T13:14:37.103Z</time></trkpt><trkpt lat="45.2516112" lon="7.9585731"><ele>214.0</ele><time>2026-03-29T13:14:38.105Z</time></trkpt><trkpt lat="45.2514705" lon="7.9583911"><ele>215.0</ele><time>2026-03-29T13:14:39.111Z</time></trkpt><trkpt lat="45.2513283" lon="7.9582156"><ele>216.0</ele><time>2026-03-29T13:14:40.116Z</time></trkpt><trkpt lat="45.2511823" lon="7.9580424"><ele>217.0</ele><time>2026-03-29T13:14:41.132Z</time></trkpt><trkpt lat="45.2510249" lon="7.9578744"><ele>217.0</ele><time>2026-03-29T13:14:42.12Z</time></trkpt><trkpt lat="45.2508676" lon="7.9577173"><ele>217.0</ele><time>2026-03-29T13:14:43.116Z</time></trkpt><trkpt lat="45.2507034" lon="7.9575709"><ele>217.0</ele><time>2026-03-29T13:14:44.103Z</time></trkpt><trkpt lat="45.2505314" lon="7.9574395"><ele>215.66666666666666</ele><time>2026-03-29T13:14:45.106Z</time></trkpt><trkpt lat="45.2503578" lon="7.957319"><ele>214.33333333333331</ele><time>2026-03-29T13:14:46.107Z</time></trkpt><trkpt lat="45.2501825" lon="7.9572073"><ele>213.0</ele><time>2026-03-29T13:14:47.118Z</time></trkpt><trkpt lat="45.2500011" lon="7.9571045"><ele>213.0</ele><time>2026-03-29T13:14:48.106Z</time></trkpt><trkpt lat="45.249821" lon="7.9570092"><ele>213.0</ele><time>2026-03-29T13:14:49.115Z</time></trkpt><trkpt lat="45.2496366" lon="7.9569276"><ele>213.0</ele><time>2026-03-29T13:14:50.101Z</time></trkpt><trkpt lat="45.2494459" lon="7.9568652"><ele>213.0</ele><time>2026-03-29T13:14:51.106Z</time></trkpt><trkpt lat="45.2492547" lon="7.9568046"><ele>213.0</ele><time>2026-03-29T13:14:52.128Z</time></trkpt><trkpt lat="45.2490582" lon="7.9567556"><ele>213.0</ele><time>2026-03-29T13:14:53.12Z</time></trkpt><trkpt lat="45.2488622" lon="7.9567295"><ele>213.0</ele><time>2026-03-29T13:14:54.105Z</time></trkpt><trkpt lat="45.2486634" lon="7.9567088"><ele>213.0</ele><time>2026-03-29T13:14:55.105Z</time></trkpt><trkpt lat="45.2484646" lon="7.9566917"><ele>213.0</ele><time>2026-03-29T13:14:56.121Z</time></trkpt><trkpt lat="45.2482656" lon="7.9566776"><ele>213.0</ele><time>2026-03-29T13:14:57.115Z</time></trkpt><trkpt lat="45.2480655" lon="7.9566648"><ele>213.0</ele><time>2026-03-29T13:14:58.096Z</time></trkpt><trkpt lat="45.2478617" lon="7.9566568"><ele>213.0</ele><time>2026-03-29T13:14:59.117Z</time></trkpt><trkpt lat="45.2476572" lon="7.9566475"><ele>213.0</ele><time>2026-03-29T13:15:00.118Z</time></trkpt><trkpt lat="45.2474559" lon="7.956639"><ele>213.0</ele><time>2026-03-29T13:15:01.122Z</time></trkpt><trkpt lat="45.2472566" lon="7.9566391"><ele>213.0</ele><time>2026-03-29T13:15:02.118Z</time></trkpt><trkpt lat="45.2470573" lon="7.9566437"><ele>212.66666666666669</ele><time>2026-03-29T13:15:03.116Z</time></trkpt><trkpt lat="45.2468626" lon="7.9566592"><ele>212.33333333333334</ele><time>2026-03-29T13:15:04.112Z</time></trkpt><trkpt lat="45.2466679" lon="7.9566907"><ele>212.0</ele><time>2026-03-29T13:15:05.113Z</time></trkpt><trkpt lat="45.246471" lon="7.9567366"><ele>212.66666666666669</ele><time>2026-03-29T13:15:06.138Z</time></trkpt><trkpt lat="45.2462758" lon="7.9567876"><ele>213.33333333333331</ele><time>2026-03-29T13:15:07.103Z</time></trkpt><trkpt lat="45.2460825" lon="7.9568573"><ele>214.0</ele><time>2026-03-29T13:15:08.105Z</time></trkpt><trkpt lat="45.2458832" lon="7.9569389"><ele>214.0</ele><time>2026-03-29T13:15:09.108Z</time></trkpt><trkpt lat="45.2456851" lon="7.9570257"><ele>214.0</ele><time>2026-03-29T13:15:10.109Z</time></trkpt><trkpt lat="45.2454894" lon="7.9571268"><ele>214.0</ele><time>2026-03-29T13:15:11.113Z</time></trkpt><trkpt lat="45.2452911" lon="7.9572434"><ele>212.66666666666666</ele><time>2026-03-29T13:15:12.114Z</time></trkpt><trkpt lat="45.245099" lon="7.9573585"><ele>211.33333333333331</ele><time>2026-03-29T13:15:13.115Z</time></trkpt><trkpt lat="45.2449114" lon="7.9574783"><ele>210.0</ele><time>2026-03-29T13:15:14.119Z</time></trkpt><trkpt lat="45.2447259" lon="7.9576037"><ele>210.0</ele><time>2026-03-29T13:15:15.101Z</time></trkpt><trkpt lat="45.2445399" lon="7.9577256"><ele>210.0</ele><time>2026-03-29T13:15:16.12Z</time></trkpt><trkpt lat="45.2443552" lon="7.9578494"><ele>210.0</ele><time>2026-03-29T13:15:17.111Z</time></trkpt><trkpt lat="45.2441719" lon="7.9579699"><ele>210.0</ele><time>2026-03-29T13:15:18.116Z</time></trkpt><trkpt lat="45.2439834" lon="7.9580898"><ele>210.0</ele><time>2026-03-29T13:15:19.109Z</time></trkpt><trkpt lat="45.2437997" lon="7.9582075"><ele>210.0</ele><time>2026-03-29T13:15:20.111Z</time></trkpt><trkpt lat="45.2436166" lon="7.9583259"><ele>210.0</ele><time>2026-03-29T13:15:21.099Z</time></trkpt><trkpt lat="45.2434359" lon="7.9584388"><ele>210.0</ele><time>2026-03-29T13:15:22.109Z</time></trkpt><trkpt lat="45.2432606" lon="7.9585569"><ele>210.0</ele><time>2026-03-29T13:15:23.113Z</time></trkpt><trkpt lat="45.2430849" lon="7.9586694"><ele>210.0</ele><time>2026-03-29T13:15:24.113Z</time></trkpt><trkpt lat="45.2429143" lon="7.9587768"><ele>210.0</ele><time>2026-03-29T13:15:25.116Z</time></trkpt><trkpt lat="45.2427396" lon="7.958874"><ele>210.0</ele><time>2026-03-29T13:15:26.12Z</time></trkpt><trkpt lat="45.2425645" lon="7.9589635"><ele>210.0</ele><time>2026-03-29T13:15:27.116Z</time></trkpt><trkpt lat="45.2423879" lon="7.9590441"><ele>210.0</ele><time>2026-03-29T13:15:28.113Z</time></trkpt><trkpt lat="45.2422052" lon="7.959118"><ele>210.0</ele><time>2026-03-29T13:15:29.106Z</time></trkpt><trkpt lat="45.242014" lon="7.9591814"><ele>210.0</ele><time>2026-03-29T13:15:30.109Z</time></trkpt><trkpt lat="45.2418156" lon="7.9592315"><ele>210.0</ele><time>2026-03-29T13:15:31.106Z</time></trkpt><trkpt lat="45.2416156" lon="7.9592649"><ele>210.0</ele><time>2026-03-29T13:15:32.111Z</time></trkpt><trkpt lat="45.2414107" lon="7.9592782"><ele>210.0</ele><time>2026-03-29T13:15:33.101Z</time></trkpt><trkpt lat="45.2412034" lon="7.9592801"><ele>210.0</ele><time>2026-03-29T13:15:34.106Z</time></trkpt><trkpt lat="45.241001" lon="7.9592709"><ele>210.0</ele><time>2026-03-29T13:15:35.123Z</time></trkpt><trkpt lat="45.2408015" lon="7.9592398"><ele>209.66666666666669</ele><time>2026-03-29T13:15:36.126Z</time></trkpt><trkpt lat="45.2406108" lon="7.9591901"><ele>209.33333333333334</ele><time>2026-03-29T13:15:37.145Z</time></trkpt><trkpt lat="45.2404285" lon="7.9591385"><ele>209.0</ele><time>2026-03-29T13:15:38.109Z</time></trkpt><trkpt lat="45.2402595" lon="7.9590713"><ele>209.0</ele><time>2026-03-29T13:15:39.109Z</time></trkpt><trkpt lat="45.2400947" lon="7.9589978"><ele>209.0</ele><time>2026-03-29T13:15:40.108Z</time></trkpt><trkpt lat="45.2399432" lon="7.9589173"><ele>209.0</ele><time>2026-03-29T13:15:41.117Z</time></trkpt><trkpt lat="45.2398107" lon="7.9588433"><ele>208.75</ele><time>2026-03-29T13:15:42.115Z</time></trkpt><trkpt lat="45.2396901" lon="7.9587688"><ele>208.5</ele><time>2026-03-29T13:15:43.108Z</time></trkpt><trkpt lat="45.2395805" lon="7.9586922"><ele>208.25</ele><time>2026-03-29T13:15:44.112Z</time></trkpt><trkpt lat="45.239485" lon="7.9586221"><ele>208.0</ele><time>2026-03-29T13:15:45.102Z</time></trkpt><trkpt lat="45.2393911" lon="7.9585675"><ele>207.99999999999997</ele><time>2026-03-29T13:15:46.117Z</time></trkpt><trkpt lat="45.2393067" lon="7.9585208"><ele>208.0</ele><time>2026-03-29T13:15:47.107Z</time></trkpt><trkpt lat="45.2392279" lon="7.9584933"><ele>208.0</ele><time>2026-03-29T13:15:48.112Z</time></trkpt><trkpt lat="45.2391536" lon="7.9584666"><ele>208.0</ele><time>2026-03-29T13:15:49.106Z</time></trkpt><trkpt lat="45.2390893" lon="7.9584377"><ele>207.99999999999997</ele><time>2026-03-29T13:15:50.107Z</time></trkpt><trkpt lat="45.23903" lon="7.9583851"><ele>208.0</ele><time>2026-03-29T13:15:51.104Z</time></trkpt><trkpt lat="45.2389746" lon="7.9583133"><ele>207.99999999999997</ele><time>2026-03-29T13:15:52.111Z</time></trkpt><trkpt lat="45.2389223" lon="7.958231"><ele>208.0</ele><time>2026-03-29T13:15:53.102Z</time></trkpt><trkpt lat="45.2388603" lon="7.9581732"><ele>208.0</ele><time>2026-03-29T13:15:54.117Z</time></trkpt><trkpt lat="45.2387919" lon="7.9581257"><ele>208.0</ele><time>2026-03-29T13:15:55.111Z</time></trkpt><trkpt lat="45.2387164" lon="7.9581132"><ele>207.99999999999997</ele><time>2026-03-29T13:15:56.123Z</time></trkpt><trkpt lat="45.2386162" lon="7.9580959"><ele>208.0</ele><time>2026-03-29T13:15:57.145Z</time></trkpt><trkpt lat="45.238514" lon="7.9580618"><ele>208.0</ele><time>2026-03-29T13:15:58.112Z</time></trkpt><trkpt lat="45.2384011" lon="7.9579854"><ele>208.0</ele><time>2026-03-29T13:15:59.12Z</time></trkpt><trkpt lat="45.238287" lon="7.9578636"><ele>208.0</ele><time>2026-03-29T13:16:00.112Z</time></trkpt><trkpt lat="45.2381779" lon="7.9577538"><ele>208.0</ele><time>2026-03-29T13:16:01.113Z</time></trkpt><trkpt lat="45.2380608" lon="7.9576417"><ele>207.5</ele><time>2026-03-29T13:16:02.11Z</time></trkpt><trkpt lat="45.2379404" lon="7.9575417"><ele>207.0</ele><time>2026-03-29T13:16:03.113Z</time></trkpt><trkpt lat="45.2378152" lon="7.9574445"><ele>206.5</ele><time>2026-03-29T13:16:04.123Z</time></trkpt><trkpt lat="45.2376851" lon="7.9573626"><ele>206.0</ele><time>2026-03-29T13:16:05.102Z</time></trkpt><trkpt lat="45.237554" lon="7.9572919"><ele>207.0</ele><time>2026-03-29T13:16:06.119Z</time></trkpt><trkpt lat="45.2374237" lon="7.9572353"><ele>208.0</ele><time>2026-03-29T13:16:07.118Z</time></trkpt><trkpt lat="45.2372857" lon="7.9571664"><ele>209.0</ele><time>2026-03-29T13:16:08.116Z</time></trkpt><trkpt lat="45.2371463" lon="7.9570944"><ele>210.0</ele><time>2026-03-29T13:16:09.101Z</time></trkpt><trkpt lat="45.2370045" lon="7.95702"><ele>210.0</ele><time>2026-03-29T13:16:10.106Z</time></trkpt><trkpt lat="45.236859" lon="7.9569484"><ele>210.0</ele><time>2026-03-29T13:16:11.11Z</time></trkpt><trkpt lat="45.2367109" lon="7.9568719"><ele>210.0</ele><time>2026-03-29T13:16:12.11Z</time></trkpt><trkpt lat="45.2365613" lon="7.9567978"><ele>210.66666666666669</ele><time>2026-03-29T13:16:13.108Z</time></trkpt><trkpt lat="45.2364081" lon="7.9567231"><ele>211.33333333333334</ele><time>2026-03-29T13:16:14.125Z</time></trkpt><trkpt lat="45.236263" lon="7.9566438"><ele>212.0</ele><time>2026-03-29T13:16:15.118Z</time></trkpt><trkpt lat="45.2361232" lon="7.9565725"><ele>211.0</ele><time>2026-03-29T13:16:16.104Z</time></trkpt><trkpt lat="45.2359978" lon="7.9565012"><ele>210.0</ele><time>2026-03-29T13:16:17.144Z</time></trkpt><trkpt lat="45.2358865" lon="7.9564237"><ele>209.0</ele><time>2026-03-29T13:16:18.123Z</time></trkpt><trkpt lat="45.2357961" lon="7.9563372"><ele>208.0</ele><time>2026-03-29T13:16:19.097Z</time></trkpt><trkpt lat="45.2357375" lon="7.956244"><ele>208.0</ele><time>2026-03-29T13:16:20.11Z</time></trkpt><trkpt lat="45.235691" lon="7.9561439"><ele>208.0</ele><time>2026-03-29T13:16:21.12Z</time></trkpt><trkpt lat="45.2356318" lon="7.9560484"><ele>208.0</ele><time>2026-03-29T13:16:22.1Z</time></trkpt><trkpt lat="45.2355497" lon="7.9559714"><ele>208.0</ele><time>2026-03-29T13:16:23.114Z</time></trkpt><trkpt lat="45.2354574" lon="7.9559375"><ele>208.0</ele><time>2026-03-29T13:16:24.107Z</time></trkpt><trkpt lat="45.2353433" lon="7.9559535"><ele>208.0</ele><time>2026-03-29T13:16:25.122Z</time></trkpt><trkpt lat="45.2352243" lon="7.9559787"><ele>208.0</ele><time>2026-03-29T13:16:26.113Z</time></trkpt><trkpt lat="45.235097" lon="7.9559545"><ele>208.0</ele><time>2026-03-29T13:16:27.116Z</time></trkpt><trkpt lat="45.2349665" lon="7.9558834"><ele>208.0</ele><time>2026-03-29T13:16:28.104Z</time></trkpt><trkpt lat="45.2348236" lon="7.9557956"><ele>207.33333333333331</ele><time>2026-03-29T13:16:29.104Z</time></trkpt><trkpt lat="45.2346731" lon="7.9556962"><ele>206.66666666666669</ele><time>2026-03-29T13:16:30.096Z</time></trkpt><trkpt lat="45.2345248" lon="7.9555857"><ele>206.0</ele><time>2026-03-29T13:16:31.119Z</time></trkpt><trkpt lat="45.2343814" lon="7.9554688"><ele>206.0</ele><time>2026-03-29T13:16:32.099Z</time></trkpt><trkpt lat="45.2342465" lon="7.9553417"><ele>206.0</ele><time>2026-03-29T13:16:33.111Z</time></trkpt><trkpt lat="45.2341198" lon="7.9551866"><ele>206.0</ele><time>2026-03-29T13:16:34.107Z</time></trkpt><trkpt lat="45.2339963" lon="7.9550116"><ele>204.33333333333334</ele><time>2026-03-29T13:16:35.111Z</time></trkpt><trkpt lat="45.2338784" lon="7.9548242"><ele>202.66666666666669</ele><time>2026-03-29T13:16:36.121Z</time></trkpt><trkpt lat="45.2337734" lon="7.9546292"><ele>201.0</ele><time>2026-03-29T13:16:37.118Z</time></trkpt><trkpt lat="45.2336727" lon="7.9544205"><ele>201.0</ele><time>2026-03-29T13:16:38.119Z</time></trkpt><trkpt lat="45.2335747" lon="7.954209"><ele>201.0</ele><time>2026-03-29T13:16:39.103Z</time></trkpt><trkpt lat="45.2334753" lon="7.9539927"><ele>201.0</ele><time>2026-03-29T13:16:40.12Z</time></trkpt><trkpt lat="45.233368" lon="7.9537828"><ele>200.66666666666669</ele><time>2026-03-29T13:16:41.119Z</time></trkpt><trkpt lat="45.2332501" lon="7.9535742"><ele>200.33333333333334</ele><time>2026-03-29T13:16:42.124Z</time></trkpt><trkpt lat="45.2331152" lon="7.9533849"><ele>200.0</ele><time>2026-03-29T13:16:43.112Z</time></trkpt><trkpt lat="45.2329644" lon="7.9532135"><ele>199.0</ele><time>2026-03-29T13:16:44.109Z</time></trkpt><trkpt lat="45.2327989" lon="7.9530513"><ele>198.0</ele><time>2026-03-29T13:16:45.119Z</time></trkpt><trkpt lat="45.2326335" lon="7.9529029"><ele>197.0</ele><time>2026-03-29T13:16:46.097Z</time></trkpt><trkpt lat="45.2324679" lon="7.9527578"><ele>196.66666666666669</ele><time>2026-03-29T13:16:47.11Z</time></trkpt><trkpt lat="45.2322943" lon="7.952619"><ele>196.33333333333331</ele><time>2026-03-29T13:16:48.113Z</time></trkpt><trkpt lat="45.232119" lon="7.9524784"><ele>196.0</ele><time>2026-03-29T13:16:49.101Z</time></trkpt><trkpt lat="45.2319458" lon="7.9523373"><ele>196.0</ele><time>2026-03-29T13:16:50.102Z</time></trkpt><trkpt lat="45.2317755" lon="7.9521975"><ele>196.0</ele><time>2026-03-29T13:16:51.106Z</time></trkpt><trkpt lat="45.2316012" lon="7.9520539"><ele>196.0</ele><time>2026-03-29T13:16:52.101Z</time></trkpt><trkpt lat="45.23143" lon="7.9519106"><ele>197.0</ele><time>2026-03-29T13:16:53.108Z</time></trkpt><trkpt lat="45.2312588" lon="7.9517672"><ele>198.0</ele><time>2026-03-29T13:16:54.118Z</time></trkpt><trkpt lat="45.2310904" lon="7.9516239"><ele>199.0</ele><time>2026-03-29T13:16:55.114Z</time></trkpt><trkpt lat="45.2309208" lon="7.9514841"><ele>199.0</ele><time>2026-03-29T13:16:56.121Z</time></trkpt><trkpt lat="45.2307523" lon="7.9513447"><ele>199.0</ele><time>2026-03-29T13:16:57.1Z</time></trkpt><trkpt lat="45.2305859" lon="7.9512028"><ele>199.0</ele><time>2026-03-29T13:16:58.115Z</time></trkpt><trkpt lat="45.2304239" lon="7.9510593"><ele>199.0</ele><time>2026-03-29T13:16:59.103Z</time></trkpt><trkpt lat="45.2302626" lon="7.9509196"><ele>199.0</ele><time>2026-03-29T13:17:00.106Z</time></trkpt><trkpt lat="45.230098" lon="7.9507836"><ele>199.0</ele><time>2026-03-29T13:17:01.115Z</time></trkpt><trkpt lat="45.2299347" lon="7.9506509"><ele>199.33333333333331</ele><time>2026-03-29T13:17:02.109Z</time></trkpt><trkpt lat="45.2297721" lon="7.9505141"><ele>199.66666666666669</ele><time>2026-03-29T13:17:03.107Z</time></trkpt><trkpt lat="45.2296063" lon="7.9503766"><ele>200.0</ele><time>2026-03-29T13:17:04.103Z</time></trkpt><trkpt lat="45.2294366" lon="7.9502357"><ele>200.0</ele><time>2026-03-29T13:17:05.11Z</time></trkpt><trkpt lat="45.2292674" lon="7.950099"><ele>200.0</ele><time>2026-03-29T13:17:06.122Z</time></trkpt><trkpt lat="45.2290969" lon="7.9499565"><ele>200.0</ele><time>2026-03-29T13:17:07.118Z</time></trkpt><trkpt lat="45.2289252" lon="7.9498106"><ele>200.0</ele><time>2026-03-29T13:17:08.105Z</time></trkpt><trkpt lat="45.228754" lon="7.9496648"><ele>200.0</ele><time>2026-03-29T13:17:09.1Z</time></trkpt><trkpt lat="45.228589" lon="7.9495322"><ele>200.0</ele><time>2026-03-29T13:17:10.106Z</time></trkpt><trkpt lat="45.22844" lon="7.949413"><ele>200.0</ele><time>2026-03-29T13:17:11.113Z</time></trkpt><trkpt lat="45.2283067" lon="7.9493023"><ele>200.0</ele><time>2026-03-29T13:17:12.106Z</time></trkpt><trkpt lat="45.2281865" lon="7.9492049"><ele>200.0</ele><time>2026-03-29T13:17:13.104Z</time></trkpt><trkpt lat="45.2280674" lon="7.9491092"><ele>200.0</ele><time>2026-03-29T13:17:14.128Z</time></trkpt><trkpt lat="45.2279522" lon="7.9490134"><ele>199.25</ele><time>2026-03-29T13:17:15.116Z</time></trkpt><trkpt lat="45.2278326" lon="7.9489116"><ele>198.5</ele><time>2026-03-29T13:17:16.101Z</time></trkpt><trkpt lat="45.2277144" lon="7.9488102"><ele>197.75</ele><time>2026-03-29T13:17:17.107Z</time></trkpt><trkpt lat="45.2275913" lon="7.9487058"><ele>197.0</ele><time>2026-03-29T13:17:18.102Z</time></trkpt><trkpt lat="45.2274674" lon="7.9485943"><ele>197.0</ele><time>2026-03-29T13:17:19.109Z</time></trkpt><trkpt lat="45.2273412" lon="7.9484834"><ele>197.0</ele><time>2026-03-29T13:17:20.107Z</time></trkpt><trkpt lat="45.2272138" lon="7.9483699"><ele>197.0</ele><time>2026-03-29T13:17:21.1Z</time></trkpt><trkpt lat="45.2270811" lon="7.9482554"><ele>197.66666666666669</ele><time>2026-03-29T13:17:22.109Z</time></trkpt><trkpt lat="45.226951" lon="7.9481448"><ele>198.33333333333331</ele><time>2026-03-29T13:17:23.118Z</time></trkpt><trkpt lat="45.2268205" lon="7.9480356"><ele>199.0</ele><time>2026-03-29T13:17:24.108Z</time></trkpt><trkpt lat="45.2266888" lon="7.9479256"><ele>199.0</ele><time>2026-03-29T13:17:25.118Z</time></trkpt><trkpt lat="45.2265595" lon="7.9478156"><ele>199.0</ele><time>2026-03-29T13:17:26.104Z</time></trkpt><trkpt lat="45.2264257" lon="7.9477032"><ele>199.0</ele><time>2026-03-29T13:17:27.109Z</time></trkpt><trkpt lat="45.2262887" lon="7.9475962"><ele>199.0</ele><time>2026-03-29T13:17:28.104Z</time></trkpt><trkpt lat="45.2261522" lon="7.9474816"><ele>199.0</ele><time>2026-03-29T13:17:29.109Z</time></trkpt><trkpt lat="45.2260109" lon="7.9473684"><ele>199.0</ele><time>2026-03-29T13:17:30.112Z</time></trkpt><trkpt lat="45.2258702" lon="7.947253"><ele>199.0</ele><time>2026-03-29T13:17:31.112Z</time></trkpt><trkpt lat="45.225727" lon="7.9471304"><ele>199.0</ele><time>2026-03-29T13:17:32.099Z</time></trkpt><trkpt lat="45.2255782" lon="7.9470055"><ele>199.0</ele><time>2026-03-29T13:17:33.11Z</time></trkpt><trkpt lat="45.2254281" lon="7.9468837"><ele>198.33333333333331</ele><time>2026-03-29T13:17:34.116Z</time></trkpt><trkpt lat="45.2252805" lon="7.9467578"><ele>197.66666666666669</ele><time>2026-03-29T13:17:35.114Z</time></trkpt><trkpt lat="45.2251346" lon="7.946635"><ele>197.0</ele><time>2026-03-29T13:17:36.108Z</time></trkpt><trkpt lat="45.224996" lon="7.9465178"><ele>197.0</ele><time>2026-03-29T13:17:37.143Z</time></trkpt><trkpt lat="45.2248511" lon="7.9464039"><ele>197.0</ele><time>2026-03-29T13:17:38.103Z</time></trkpt><trkpt lat="45.2247104" lon="7.9462874"><ele>197.0</ele><time>2026-03-29T13:17:39.118Z</time></trkpt><trkpt lat="45.2245683" lon="7.9461683"><ele>196.66666666666669</ele><time>2026-03-29T13:17:40.109Z</time></trkpt><trkpt lat="45.2244255" lon="7.9460453"><ele>196.33333333333331</ele><time>2026-03-29T13:17:41.109Z</time></trkpt><trkpt lat="45.2242784" lon="7.945922"><ele>196.0</ele><time>2026-03-29T13:17:42.092Z</time></trkpt><trkpt lat="45.22413" lon="7.9457979"><ele>196.33333333333331</ele><time>2026-03-29T13:17:43.112Z</time></trkpt><trkpt lat="45.2239768" lon="7.9456725"><ele>196.66666666666669</ele><time>2026-03-29T13:17:44.106Z</time></trkpt><trkpt lat="45.2238215" lon="7.9455534"><ele>197.0</ele><time>2026-03-29T13:17:45.113Z</time></trkpt><trkpt lat="45.2236671" lon="7.9454267"><ele>197.0</ele><time>2026-03-29T13:17:46.125Z</time></trkpt><trkpt lat="45.223512" lon="7.9453021"><ele>197.0</ele><time>2026-03-29T13:17:47.107Z</time></trkpt><trkpt lat="45.223358" lon="7.9451707"><ele>197.0</ele><time>2026-03-29T13:17:48.091Z</time></trkpt><trkpt lat="45.2232003" lon="7.9450349"><ele>196.33333333333334</ele><time>2026-03-29T13:17:49.096Z</time></trkpt><trkpt lat="45.2230427" lon="7.9448995"><ele>195.66666666666669</ele><time>2026-03-29T13:17:50.097Z</time></trkpt><trkpt lat="45.2228907" lon="7.9447745"><ele>195.0</ele><time>2026-03-29T13:17:51.109Z</time></trkpt><trkpt lat="45.2227492" lon="7.9446578"><ele>195.0</ele><time>2026-03-29T13:17:52.096Z</time></trkpt><trkpt lat="45.222611" lon="7.9445524"><ele>195.0</ele><time>2026-03-29T13:17:53.11Z</time></trkpt><trkpt lat="45.2224907" lon="7.9444576"><ele>195.0</ele><time>2026-03-29T13:17:54.105Z</time></trkpt><trkpt lat="45.2223983" lon="7.9443827"><ele>195.0</ele><time>2026-03-29T13:17:55.102Z</time></trkpt><trkpt lat="45.2223366" lon="7.944317"><ele>195.0</ele><time>2026-03-29T13:17:56.129Z</time></trkpt><trkpt lat="45.2222909" lon="7.9442484"><ele>195.0</ele><time>2026-03-29T13:17:57.103Z</time></trkpt><trkpt lat="45.222269" lon="7.9440586"><ele>195.0</ele><time>2026-03-29T13:17:59.111Z</time></trkpt><trkpt lat="45.2222942" lon="7.943958"><ele>195.0</ele><time>2026-03-29T13:18:00.094Z</time></trkpt><trkpt lat="45.2223544" lon="7.9438783"><ele>195.0</ele><time>2026-03-29T13:18:01.112Z</time></trkpt><trkpt lat="45.2224405" lon="7.9438083"><ele>195.0</ele><time>2026-03-29T13:18:02.102Z</time></trkpt><trkpt lat="45.222546" lon="7.9437361"><ele>195.0</ele><time>2026-03-29T13:18:03.104Z</time></trkpt><trkpt lat="45.2226551" lon="7.9436373"><ele>195.0</ele><time>2026-03-29T13:18:04.101Z</time></trkpt><trkpt lat="45.2227689" lon="7.943515"><ele>195.0</ele><time>2026-03-29T13:18:05.097Z</time></trkpt><trkpt lat="45.2228761" lon="7.9433783"><ele>195.0</ele><time>2026-03-29T13:18:06.098Z</time></trkpt><trkpt lat="45.2229863" lon="7.9432359"><ele>195.0</ele><time>2026-03-29T13:18:07.113Z</time></trkpt><trkpt lat="45.2231054" lon="7.9430853"><ele>195.0</ele><time>2026-03-29T13:18:08.1Z</time></trkpt><trkpt lat="45.223231" lon="7.9429325"><ele>196.0</ele><time>2026-03-29T13:18:09.126Z</time></trkpt><trkpt lat="45.2233574" lon="7.942774"><ele>197.0</ele><time>2026-03-29T13:18:10.105Z</time></trkpt><trkpt lat="45.2234829" lon="7.9426051"><ele>198.0</ele><time>2026-03-29T13:18:11.109Z</time></trkpt><trkpt lat="45.2236133" lon="7.9424293"><ele>198.0</ele><time>2026-03-29T13:18:12.133Z</time></trkpt><trkpt lat="45.2237463" lon="7.9422593"><ele>198.0</ele><time>2026-03-29T13:18:13.106Z</time></trkpt><trkpt lat="45.2238815" lon="7.9420821"><ele>198.0</ele><time>2026-03-29T13:18:14.107Z</time></trkpt><trkpt lat="45.2240191" lon="7.9419077"><ele>197.66666666666669</ele><time>2026-03-29T13:18:15.113Z</time></trkpt><trkpt lat="45.2241578" lon="7.9417361"><ele>197.33333333333334</ele><time>2026-03-29T13:18:16.105Z</time></trkpt><trkpt lat="45.2242967" lon="7.9415652"><ele>197.0</ele><time>2026-03-29T13:18:17.101Z</time></trkpt><trkpt lat="45.22444" lon="7.9413971"><ele>197.0</ele><time>2026-03-29T13:18:18.11Z</time></trkpt><trkpt lat="45.2245812" lon="7.9412326"><ele>197.0</ele><time>2026-03-29T13:18:19.111Z</time></trkpt><trkpt lat="45.2247156" lon="7.9410689"><ele>197.0</ele><time>2026-03-29T13:18:20.112Z</time></trkpt><trkpt lat="45.224849" lon="7.9409112"><ele>197.0</ele><time>2026-03-29T13:18:21.135Z</time></trkpt><trkpt lat="45.2249788" lon="7.9407644"><ele>197.0</ele><time>2026-03-29T13:18:22.106Z</time></trkpt><trkpt lat="45.2251136" lon="7.9406352"><ele>197.0</ele><time>2026-03-29T13:18:23.131Z</time></trkpt><trkpt lat="45.2252595" lon="7.9405324"><ele>197.0</ele><time>2026-03-29T13:18:24.116Z</time></trkpt><trkpt lat="45.2254154" lon="7.9404588"><ele>197.0</ele><time>2026-03-29T13:18:25.121Z</time></trkpt><trkpt lat="45.2255846" lon="7.9404053"><ele>197.0</ele><time>2026-03-29T13:18:26.107Z</time></trkpt><trkpt lat="45.2257576" lon="7.940373"><ele>197.66666666666669</ele><time>2026-03-29T13:18:27.118Z</time></trkpt><trkpt lat="45.2259394" lon="7.9403379"><ele>198.33333333333331</ele><time>2026-03-29T13:18:28.103Z</time></trkpt><trkpt lat="45.226123" lon="7.9402955"><ele>199.0</ele><time>2026-03-29T13:18:29.11Z</time></trkpt><trkpt lat="45.2263106" lon="7.9402535"><ele>198.33333333333331</ele><time>2026-03-29T13:18:30.107Z</time></trkpt><trkpt lat="45.2265058" lon="7.9402029"><ele>197.66666666666669</ele><time>2026-03-29T13:18:31.128Z</time></trkpt><trkpt lat="45.2267105" lon="7.9401374"><ele>197.0</ele><time>2026-03-29T13:18:32.113Z</time></trkpt><trkpt lat="45.2269111" lon="7.9400585"><ele>197.66666666666669</ele><time>2026-03-29T13:18:33.111Z</time></trkpt><trkpt lat="45.2271097" lon="7.9399548"><ele>198.33333333333331</ele><time>2026-03-29T13:18:34.106Z</time></trkpt><trkpt lat="45.2273012" lon="7.9398355"><ele>199.0</ele><time>2026-03-29T13:18:35.109Z</time></trkpt><trkpt lat="45.2274757" lon="7.9396906"><ele>199.0</ele><time>2026-03-29T13:18:36.123Z</time></trkpt><trkpt lat="45.2276545" lon="7.9395324"><ele>199.0</ele><time>2026-03-29T13:18:37.101Z</time></trkpt><trkpt lat="45.2278287" lon="7.9393754"><ele>199.0</ele><time>2026-03-29T13:18:38.109Z</time></trkpt><trkpt lat="45.2280006" lon="7.9392216"><ele>198.66666666666666</ele><time>2026-03-29T13:18:39.111Z</time></trkpt><trkpt lat="45.2281733" lon="7.9390733"><ele>198.33333333333331</ele><time>2026-03-29T13:18:40.118Z</time></trkpt><trkpt lat="45.2283455" lon="7.9389208"><ele>198.0</ele><time>2026-03-29T13:18:41.119Z</time></trkpt><trkpt lat="45.2285162" lon="7.9387716"><ele>198.0</ele><time>2026-03-29T13:18:42.108Z</time></trkpt><trkpt lat="45.2286765" lon="7.9386184"><ele>198.0</ele><time>2026-03-29T13:18:43.122Z</time></trkpt><trkpt lat="45.2288406" lon="7.9384722"><ele>198.0</ele><time>2026-03-29T13:18:44.118Z</time></trkpt><trkpt lat="45.2290048" lon="7.9383188"><ele>198.33333333333331</ele><time>2026-03-29T13:18:45.109Z</time></trkpt><trkpt lat="45.2291653" lon="7.938175"><ele>198.66666666666666</ele><time>2026-03-29T13:18:46.108Z</time></trkpt><trkpt lat="45.2293305" lon="7.9380292"><ele>199.0</ele><time>2026-03-29T13:18:47.11Z</time></trkpt><trkpt lat="45.229494" lon="7.9378877"><ele>199.0</ele><time>2026-03-29T13:18:48.116Z</time></trkpt><trkpt lat="45.2296444" lon="7.937756"><ele>199.0</ele><time>2026-03-29T13:18:49.103Z</time></trkpt><trkpt lat="45.229783" lon="7.9376276"><ele>199.0</ele><time>2026-03-29T13:18:50.106Z</time></trkpt><trkpt lat="45.2299026" lon="7.9374989"><ele>200.33333333333331</ele><time>2026-03-29T13:18:51.104Z</time></trkpt><trkpt lat="45.2300042" lon="7.9373303"><ele>201.66666666666669</ele><time>2026-03-29T13:18:52.106Z</time></trkpt><trkpt lat="45.23008" lon="7.9371395"><ele>203.0</ele><time>2026-03-29T13:18:53.12Z</time></trkpt><trkpt lat="45.2301206" lon="7.9369379"><ele>203.66666666666669</ele><time>2026-03-29T13:18:54.12Z</time></trkpt><trkpt lat="45.2301122" lon="7.9367139"><ele>204.33333333333331</ele><time>2026-03-29T13:18:55.111Z</time></trkpt><trkpt lat="45.2300684" lon="7.9364964"><ele>205.0</ele><time>2026-03-29T13:18:56.101Z</time></trkpt><trkpt lat="45.2299759" lon="7.9362915"><ele>205.0</ele><time>2026-03-29T13:18:57.111Z</time></trkpt><trkpt lat="45.2298635" lon="7.9360909"><ele>205.0</ele><time>2026-03-29T13:18:58.112Z</time></trkpt><trkpt lat="45.229733" lon="7.9359036"><ele>205.0</ele><time>2026-03-29T13:18:59.112Z</time></trkpt><trkpt lat="45.2296012" lon="7.9357138"><ele>204.0</ele><time>2026-03-29T13:19:00.098Z</time></trkpt><trkpt lat="45.2294683" lon="7.9355137"><ele>203.0</ele><time>2026-03-29T13:19:01.112Z</time></trkpt><trkpt lat="45.2293267" lon="7.9353227"><ele>202.0</ele><time>2026-03-29T13:19:02.113Z</time></trkpt><trkpt lat="45.2291839" lon="7.9351286"><ele>201.66666666666666</ele><time>2026-03-29T13:19:03.102Z</time></trkpt><trkpt lat="45.2290422" lon="7.9349351"><ele>201.33333333333331</ele><time>2026-03-29T13:19:04.113Z</time></trkpt><trkpt lat="45.2288953" lon="7.9347432"><ele>201.0</ele><time>2026-03-29T13:19:05.104Z</time></trkpt><trkpt lat="45.2287441" lon="7.9345606"><ele>201.0</ele><time>2026-03-29T13:19:06.105Z</time></trkpt><trkpt lat="45.2285931" lon="7.9343748"><ele>201.0</ele><time>2026-03-29T13:19:07.115Z</time></trkpt><trkpt lat="45.2284477" lon="7.9341795"><ele>201.0</ele><time>2026-03-29T13:19:08.115Z</time></trkpt><trkpt lat="45.2283107" lon="7.933965"><ele>201.33333333333331</ele><time>2026-03-29T13:19:09.112Z</time></trkpt><trkpt lat="45.2281813" lon="7.9337375"><ele>201.66666666666666</ele><time>2026-03-29T13:19:10.102Z</time></trkpt><trkpt lat="45.2280652" lon="7.9334913"><ele>202.0</ele><time>2026-03-29T13:19:11.115Z</time></trkpt><trkpt lat="45.2279543" lon="7.9332346"><ele>201.33333333333331</ele><time>2026-03-29T13:19:12.109Z</time></trkpt><trkpt lat="45.2278494" lon="7.9329672"><ele>200.66666666666669</ele><time>2026-03-29T13:19:13.117Z</time></trkpt><trkpt lat="45.2277385" lon="7.9327028"><ele>200.0</ele><time>2026-03-29T13:19:14.119Z</time></trkpt><trkpt lat="45.227633" lon="7.9324424"><ele>200.0</ele><time>2026-03-29T13:19:15.099Z</time></trkpt><trkpt lat="45.2275281" lon="7.9321824"><ele>200.0</ele><time>2026-03-29T13:19:16.123Z</time></trkpt><trkpt lat="45.2274224" lon="7.9319225"><ele>200.0</ele><time>2026-03-29T13:19:17.108Z</time></trkpt><trkpt lat="45.2273148" lon="7.9316583"><ele>200.66666666666669</ele><time>2026-03-29T13:19:18.104Z</time></trkpt><trkpt lat="45.2272077" lon="7.9313993"><ele>201.33333333333331</ele><time>2026-03-29T13:19:19.107Z</time></trkpt><trkpt lat="45.2271011" lon="7.9311414"><ele>202.0</ele><time>2026-03-29T13:19:20.11Z</time></trkpt><trkpt lat="45.2269942" lon="7.9308805"><ele>202.0</ele><time>2026-03-29T13:19:21.116Z</time></trkpt><trkpt lat="45.2268872" lon="7.9306218"><ele>202.0</ele><time>2026-03-29T13:19:22.122Z</time></trkpt><trkpt lat="45.2267803" lon="7.9303624"><ele>202.0</ele><time>2026-03-29T13:19:23.121Z</time></trkpt><trkpt lat="45.2266695" lon="7.9301101"><ele>201.66666666666666</ele><time>2026-03-29T13:19:24.112Z</time></trkpt><trkpt lat="45.2265704" lon="7.9298547"><ele>201.33333333333331</ele><time>2026-03-29T13:19:25.12Z</time></trkpt><trkpt lat="45.226481" lon="7.9295884"><ele>201.0</ele><time>2026-03-29T13:19:26.121Z</time></trkpt><trkpt lat="45.2264132" lon="7.9293166"><ele>200.33333333333331</ele><time>2026-03-29T13:19:27.112Z</time></trkpt><trkpt lat="45.2263657" lon="7.9290394"><ele>199.66666666666666</ele><time>2026-03-29T13:19:28.126Z</time></trkpt><trkpt lat="45.2263356" lon="7.9287585"><ele>199.0</ele><time>2026-03-29T13:19:29.097Z</time></trkpt><trkpt lat="45.226328" lon="7.9284689"><ele>199.33333333333331</ele><time>2026-03-29T13:19:30.1Z</time></trkpt><trkpt lat="45.2263338" lon="7.9281654"><ele>199.66666666666669</ele><time>2026-03-29T13:19:31.116Z</time></trkpt><trkpt lat="45.226345" lon="7.9278646"><ele>200.0</ele><time>2026-03-29T13:19:32.105Z</time></trkpt><trkpt lat="45.2263591" lon="7.9275694"><ele>201.0</ele><time>2026-03-29T13:19:33.118Z</time></trkpt><trkpt lat="45.2263741" lon="7.9272933"><ele>202.0</ele><time>2026-03-29T13:19:34.096Z</time></trkpt><trkpt lat="45.2263867" lon="7.9270269"><ele>203.0</ele><time>2026-03-29T13:19:35.112Z</time></trkpt><trkpt lat="45.226404" lon="7.9267684"><ele>202.33333333333334</ele><time>2026-03-29T13:19:36.11Z</time></trkpt><trkpt lat="45.2264186" lon="7.9264964"><ele>201.66666666666669</ele><time>2026-03-29T13:19:37.104Z</time></trkpt><trkpt lat="45.2264232" lon="7.9262056"><ele>201.0</ele><time>2026-03-29T13:19:38.105Z</time></trkpt><trkpt lat="45.2264364" lon="7.9259009"><ele>201.33333333333331</ele><time>2026-03-29T13:19:39.113Z</time></trkpt><trkpt lat="45.2264564" lon="7.9255961"><ele>201.66666666666666</ele><time>2026-03-29T13:19:40.111Z</time></trkpt><trkpt lat="45.2264733" lon="7.9252894"><ele>202.0</ele><time>2026-03-29T13:19:41.126Z</time></trkpt><trkpt lat="45.2264906" lon="7.9249884"><ele>202.0</ele><time>2026-03-29T13:19:42.118Z</time></trkpt><trkpt lat="45.2265104" lon="7.9246973"><ele>202.0</ele><time>2026-03-29T13:19:43.12Z</time></trkpt><trkpt lat="45.2265278" lon="7.9244113"><ele>202.0</ele><time>2026-03-29T13:19:44.101Z</time></trkpt><trkpt lat="45.2265433" lon="7.9241318"><ele>202.0</ele><time>2026-03-29T13:19:45.125Z</time></trkpt><trkpt lat="45.2265604" lon="7.9238545"><ele>202.0</ele><time>2026-03-29T13:19:46.118Z</time></trkpt><trkpt lat="45.226575" lon="7.9235752"><ele>202.0</ele><time>2026-03-29T13:19:47.113Z</time></trkpt><trkpt lat="45.2265911" lon="7.9232955"><ele>202.0</ele><time>2026-03-29T13:19:48.11Z</time></trkpt><trkpt lat="45.2266087" lon="7.9230181"><ele>202.0</ele><time>2026-03-29T13:19:49.094Z</time></trkpt><trkpt lat="45.2266276" lon="7.9227306"><ele>202.0</ele><time>2026-03-29T13:19:50.107Z</time></trkpt><trkpt lat="45.22665" lon="7.9224419"><ele>201.33333333333331</ele><time>2026-03-29T13:19:51.112Z</time></trkpt><trkpt lat="45.226667" lon="7.9221477"><ele>200.66666666666669</ele><time>2026-03-29T13:19:52.116Z</time></trkpt><trkpt lat="45.2266884" lon="7.9218564"><ele>200.0</ele><time>2026-03-29T13:19:53.119Z</time></trkpt><trkpt lat="45.2267058" lon="7.921556"><ele>199.66666666666669</ele><time>2026-03-29T13:19:54.116Z</time></trkpt><trkpt lat="45.2267213" lon="7.921264"><ele>199.33333333333331</ele><time>2026-03-29T13:19:55.106Z</time></trkpt><trkpt lat="45.2267367" lon="7.9209687"><ele>199.0</ele><time>2026-03-29T13:19:56.115Z</time></trkpt><trkpt lat="45.2267537" lon="7.9206719"><ele>199.66666666666666</ele><time>2026-03-29T13:19:57.109Z</time></trkpt><trkpt lat="45.2267664" lon="7.9203754"><ele>200.33333333333331</ele><time>2026-03-29T13:19:58.101Z</time></trkpt><trkpt lat="45.2267831" lon="7.9200772"><ele>201.0</ele><time>2026-03-29T13:19:59.097Z</time></trkpt><trkpt lat="45.226801" lon="7.9197805"><ele>201.0</ele><time>2026-03-29T13:20:00.106Z</time></trkpt><trkpt lat="45.2268179" lon="7.9194826"><ele>201.0</ele><time>2026-03-29T13:20:01.1Z</time></trkpt><trkpt lat="45.2268353" lon="7.9191835"><ele>201.0</ele><time>2026-03-29T13:20:02.117Z</time></trkpt><trkpt lat="45.2268517" lon="7.9188932"><ele>202.66666666666669</ele><time>2026-03-29T13:20:03.122Z</time></trkpt><trkpt lat="45.2268663" lon="7.9186025"><ele>204.33333333333334</ele><time>2026-03-29T13:20:04.113Z</time></trkpt><trkpt lat="45.2268841" lon="7.9183071"><ele>206.0</ele><time>2026-03-29T13:20:05.109Z</time></trkpt><trkpt lat="45.2269" lon="7.9180152"><ele>206.33333333333334</ele><time>2026-03-29T13:20:06.109Z</time></trkpt><trkpt lat="45.2269152" lon="7.9177206"><ele>206.66666666666669</ele><time>2026-03-29T13:20:07.104Z</time></trkpt><trkpt lat="45.2269331" lon="7.9174238"><ele>207.0</ele><time>2026-03-29T13:20:08.112Z</time></trkpt><trkpt lat="45.2269481" lon="7.9171294"><ele>205.66666666666669</ele><time>2026-03-29T13:20:09.113Z</time></trkpt><trkpt lat="45.2269697" lon="7.916835"><ele>204.33333333333334</ele><time>2026-03-29T13:20:10.102Z</time></trkpt><trkpt lat="45.2269899" lon="7.9165532"><ele>203.0</ele><time>2026-03-29T13:20:11.111Z</time></trkpt><trkpt lat="45.2270073" lon="7.9162876"><ele>202.66666666666669</ele><time>2026-03-29T13:20:12.117Z</time></trkpt><trkpt lat="45.2270167" lon="7.9160372"><ele>202.33333333333331</ele><time>2026-03-29T13:20:13.111Z</time></trkpt><trkpt lat="45.2270121" lon="7.9158045"><ele>202.0</ele><time>2026-03-29T13:20:14.115Z</time></trkpt><trkpt lat="45.2269909" lon="7.9155993"><ele>202.0</ele><time>2026-03-29T13:20:15.11Z</time></trkpt><trkpt lat="45.2269729" lon="7.9154317"><ele>202.0</ele><time>2026-03-29T13:20:16.114Z</time></trkpt><trkpt lat="45.2269637" lon="7.9152978"><ele>202.0</ele><time>2026-03-29T13:20:17.099Z</time></trkpt><trkpt lat="45.2269792" lon="7.9151788"><ele>202.0</ele><time>2026-03-29T13:20:19.095Z</time></trkpt><trkpt lat="45.2270479" lon="7.9150135"><ele>202.0</ele><time>2026-03-29T13:20:22.123Z</time></trkpt><trkpt lat="45.2271187" lon="7.9148963"><ele>202.25</ele><time>2026-03-29T13:20:23.111Z</time></trkpt><trkpt lat="45.2271823" lon="7.9147644"><ele>202.5</ele><time>2026-03-29T13:20:24.111Z</time></trkpt><trkpt lat="45.2272095" lon="7.9145947"><ele>202.75</ele><time>2026-03-29T13:20:25.113Z</time></trkpt><trkpt lat="45.2272152" lon="7.9144261"><ele>203.0</ele><time>2026-03-29T13:20:26.108Z</time></trkpt><trkpt lat="45.2272127" lon="7.9142479"><ele>203.5</ele><time>2026-03-29T13:20:27.102Z</time></trkpt><trkpt lat="45.2272254" lon="7.9140707"><ele>204.0</ele><time>2026-03-29T13:20:28.101Z</time></trkpt><trkpt lat="45.2272761" lon="7.913896"><ele>204.5</ele><time>2026-03-29T13:20:29.114Z</time></trkpt><trkpt lat="45.2273596" lon="7.9137215"><ele>205.0</ele><time>2026-03-29T13:20:30.102Z</time></trkpt><trkpt lat="45.2274572" lon="7.9135359"><ele>205.0</ele><time>2026-03-29T13:20:31.124Z</time></trkpt><trkpt lat="45.2275663" lon="7.9133498"><ele>205.0</ele><time>2026-03-29T13:20:32.108Z</time></trkpt><trkpt lat="45.2276799" lon="7.9131514"><ele>205.0</ele><time>2026-03-29T13:20:33.105Z</time></trkpt><trkpt lat="45.2278054" lon="7.9129483"><ele>205.0</ele><time>2026-03-29T13:20:34.109Z</time></trkpt><trkpt lat="45.2279271" lon="7.9127432"><ele>205.0</ele><time>2026-03-29T13:20:35.111Z</time></trkpt><trkpt lat="45.2280474" lon="7.9125355"><ele>205.0</ele><time>2026-03-29T13:20:36.103Z</time></trkpt><trkpt lat="45.2281639" lon="7.9123373"><ele>203.33333333333331</ele><time>2026-03-29T13:20:37.112Z</time></trkpt><trkpt lat="45.2282783" lon="7.912144"><ele>201.66666666666669</ele><time>2026-03-29T13:20:38.094Z</time></trkpt><trkpt lat="45.2283828" lon="7.9119556"><ele>200.0</ele><time>2026-03-29T13:20:39.101Z</time></trkpt><trkpt lat="45.2284753" lon="7.9117632"><ele>200.75</ele><time>2026-03-29T13:20:40.104Z</time></trkpt><trkpt lat="45.2285499" lon="7.9115634"><ele>201.5</ele><time>2026-03-29T13:20:41.118Z</time></trkpt><trkpt lat="45.2286195" lon="7.9113741"><ele>202.25</ele><time>2026-03-29T13:20:42.108Z</time></trkpt><trkpt lat="45.2286862" lon="7.9112116"><ele>203.0</ele><time>2026-03-29T13:20:43.112Z</time></trkpt><trkpt lat="45.2287506" lon="7.9110972"><ele>203.0</ele><time>2026-03-29T13:20:44.094Z</time></trkpt><trkpt lat="45.2288283" lon="7.9110028"><ele>203.0</ele><time>2026-03-29T13:20:45.1Z</time></trkpt><trkpt lat="45.2289086" lon="7.9109271"><ele>203.0</ele><time>2026-03-29T13:20:46.111Z</time></trkpt><trkpt lat="45.2289656" lon="7.9108373"><ele>203.0</ele><time>2026-03-29T13:20:47.109Z</time></trkpt><trkpt lat="45.2289843" lon="7.9107183"><ele>203.0</ele><time>2026-03-29T13:20:48.117Z</time></trkpt><trkpt lat="45.2289586" lon="7.9105806"><ele>203.25</ele><time>2026-03-29T13:20:49.113Z</time></trkpt><trkpt lat="45.2288893" lon="7.9104386"><ele>203.5</ele><time>2026-03-29T13:20:50.102Z</time></trkpt><trkpt lat="45.2288173" lon="7.9102853"><ele>203.75</ele><time>2026-03-29T13:20:51.11Z</time></trkpt><trkpt lat="45.2287755" lon="7.9100691"><ele>204.0</ele><time>2026-03-29T13:20:52.111Z</time></trkpt><trkpt lat="45.2287562" lon="7.9098411"><ele>204.0</ele><time>2026-03-29T13:20:53.108Z</time></trkpt><trkpt lat="45.2287388" lon="7.9095877"><ele>204.0</ele><time>2026-03-29T13:20:54.113Z</time></trkpt><trkpt lat="45.2287177" lon="7.9093153"><ele>204.0</ele><time>2026-03-29T13:20:55.102Z</time></trkpt><trkpt lat="45.2286947" lon="7.9090379"><ele>205.0</ele><time>2026-03-29T13:20:56.121Z</time></trkpt><trkpt lat="45.2286733" lon="7.9087587"><ele>206.0</ele><time>2026-03-29T13:20:57.106Z</time></trkpt><trkpt lat="45.2286487" lon="7.9084727"><ele>207.0</ele><time>2026-03-29T13:20:58.104Z</time></trkpt><trkpt lat="45.2286294" lon="7.9081765"><ele>207.0</ele><time>2026-03-29T13:20:59.133Z</time></trkpt><trkpt lat="45.2286086" lon="7.9078817"><ele>207.0</ele><time>2026-03-29T13:21:00.1Z</time></trkpt><trkpt lat="45.228588" lon="7.9075912"><ele>207.0</ele><time>2026-03-29T13:21:01.109Z</time></trkpt><trkpt lat="45.2285743" lon="7.9072969"><ele>206.0</ele><time>2026-03-29T13:21:02.102Z</time></trkpt><trkpt lat="45.2285641" lon="7.9070074"><ele>205.0</ele><time>2026-03-29T13:21:03.108Z</time></trkpt><trkpt lat="45.2285551" lon="7.9067164"><ele>204.0</ele><time>2026-03-29T13:21:04.104Z</time></trkpt><trkpt lat="45.2285452" lon="7.9064306"><ele>204.0</ele><time>2026-03-29T13:21:05.133Z</time></trkpt><trkpt lat="45.2285356" lon="7.9061463"><ele>204.0</ele><time>2026-03-29T13:21:06.107Z</time></trkpt><trkpt lat="45.2285217" lon="7.9058568"><ele>204.0</ele><time>2026-03-29T13:21:07.106Z</time></trkpt><trkpt lat="45.2285012" lon="7.9055667"><ele>205.0</ele><time>2026-03-29T13:21:08.108Z</time></trkpt><trkpt lat="45.2284772" lon="7.9052772"><ele>206.0</ele><time>2026-03-29T13:21:09.111Z</time></trkpt><trkpt lat="45.2284484" lon="7.9049875"><ele>207.0</ele><time>2026-03-29T13:21:10.115Z</time></trkpt><trkpt lat="45.2284194" lon="7.9046959"><ele>207.0</ele><time>2026-03-29T13:21:11.11Z</time></trkpt><trkpt lat="45.2283867" lon="7.9044047"><ele>207.0</ele><time>2026-03-29T13:21:12.107Z</time></trkpt><trkpt lat="45.2283567" lon="7.9041073"><ele>207.0</ele><time>2026-03-29T13:21:13.114Z</time></trkpt><trkpt lat="45.2283261" lon="7.9038113"><ele>206.66666666666669</ele><time>2026-03-29T13:21:14.111Z</time></trkpt><trkpt lat="45.2282969" lon="7.9035195"><ele>206.33333333333334</ele><time>2026-03-29T13:21:15.112Z</time></trkpt><trkpt lat="45.2282697" lon="7.9032299"><ele>206.0</ele><time>2026-03-29T13:21:16.102Z</time></trkpt><trkpt lat="45.2282499" lon="7.9029467"><ele>207.0</ele><time>2026-03-29T13:21:17.102Z</time></trkpt><trkpt lat="45.2282391" lon="7.9026622"><ele>208.0</ele><time>2026-03-29T13:21:18.109Z</time></trkpt><trkpt lat="45.2282297" lon="7.902385"><ele>209.0</ele><time>2026-03-29T13:21:19.096Z</time></trkpt><trkpt lat="45.2282267" lon="7.90211"><ele>209.33333333333334</ele><time>2026-03-29T13:21:20.093Z</time></trkpt><trkpt lat="45.2282302" lon="7.9018386"><ele>209.66666666666669</ele><time>2026-03-29T13:21:21.103Z</time></trkpt><trkpt lat="45.2282376" lon="7.9015697"><ele>210.0</ele><time>2026-03-29T13:21:22.111Z</time></trkpt><trkpt lat="45.2282485" lon="7.9013014"><ele>210.0</ele><time>2026-03-29T13:21:23.107Z</time></trkpt><trkpt lat="45.2282604" lon="7.9010327"><ele>210.0</ele><time>2026-03-29T13:21:24.084Z</time></trkpt><trkpt lat="45.2282696" lon="7.9007692"><ele>210.0</ele><time>2026-03-29T13:21:25.112Z</time></trkpt><trkpt lat="45.2282797" lon="7.9005056"><ele>210.0</ele><time>2026-03-29T13:21:26.114Z</time></trkpt><trkpt lat="45.2282893" lon="7.9002404"><ele>210.0</ele><time>2026-03-29T13:21:27.117Z</time></trkpt><trkpt lat="45.2282989" lon="7.8999806"><ele>210.0</ele><time>2026-03-29T13:21:28.112Z</time></trkpt><trkpt lat="45.2283044" lon="7.8997213"><ele>209.33333333333331</ele><time>2026-03-29T13:21:29.11Z</time></trkpt><trkpt lat="45.2283118" lon="7.899469"><ele>208.66666666666666</ele><time>2026-03-29T13:21:30.104Z</time></trkpt><trkpt lat="45.2283174" lon="7.8992166"><ele>208.0</ele><time>2026-03-29T13:21:31.098Z</time></trkpt><trkpt lat="45.2283264" lon="7.898971"><ele>208.0</ele><time>2026-03-29T13:21:32.098Z</time></trkpt><trkpt lat="45.2283354" lon="7.8987403"><ele>208.0</ele><time>2026-03-29T13:21:33.089Z</time></trkpt><trkpt lat="45.2283497" lon="7.8985276"><ele>208.0</ele><time>2026-03-29T13:21:34.111Z</time></trkpt><trkpt lat="45.2283598" lon="7.8983176"><ele>208.5</ele><time>2026-03-29T13:21:35.107Z</time></trkpt><trkpt lat="45.2283691" lon="7.8981178"><ele>209.0</ele><time>2026-03-29T13:21:36.104Z</time></trkpt><trkpt lat="45.2283899" lon="7.8979166"><ele>209.5</ele><time>2026-03-29T13:21:37.122Z</time></trkpt><trkpt lat="45.2284231" lon="7.8977167"><ele>210.0</ele><time>2026-03-29T13:21:38.107Z</time></trkpt><trkpt lat="45.2284714" lon="7.8975191"><ele>210.5</ele><time>2026-03-29T13:21:39.111Z</time></trkpt><trkpt lat="45.2285291" lon="7.8973271"><ele>211.0</ele><time>2026-03-29T13:21:40.106Z</time></trkpt><trkpt lat="45.2285937" lon="7.8971399"><ele>211.5</ele><time>2026-03-29T13:21:41.1Z</time></trkpt><trkpt lat="45.2286571" lon="7.8969666"><ele>212.0</ele><time>2026-03-29T13:21:42.107Z</time></trkpt><trkpt lat="45.2287168" lon="7.8968216"><ele>211.83333333333334</ele><time>2026-03-29T13:21:43.103Z</time></trkpt><trkpt lat="45.2287799" lon="7.8967005"><ele>211.66666666666669</ele><time>2026-03-29T13:21:44.108Z</time></trkpt><trkpt lat="45.2288389" lon="7.8965877"><ele>211.5</ele><time>2026-03-29T13:21:45.107Z</time></trkpt><trkpt lat="45.2288966" lon="7.896492"><ele>211.33333333333331</ele><time>2026-03-29T13:21:46.119Z</time></trkpt><trkpt lat="45.2289543" lon="7.8964186"><ele>211.16666666666666</ele><time>2026-03-29T13:21:47.114Z</time></trkpt><trkpt lat="45.2290164" lon="7.8963593"><ele>211.0</ele><time>2026-03-29T13:21:48.117Z</time></trkpt><trkpt lat="45.2290815" lon="7.8963107"><ele>210.99999999999997</ele><time>2026-03-29T13:21:49.137Z</time></trkpt><trkpt lat="45.2291451" lon="7.8962645"><ele>211.0</ele><time>2026-03-29T13:21:50.111Z</time></trkpt><trkpt lat="45.2291916" lon="7.8961979"><ele>211.0</ele><time>2026-03-29T13:21:51.11Z</time></trkpt><trkpt lat="45.2292277" lon="7.8960353"><ele>211.0</ele><time>2026-03-29T13:21:53.104Z</time></trkpt><trkpt lat="45.2292084" lon="7.8959301"><ele>210.99999999999997</ele><time>2026-03-29T13:21:54.104Z</time></trkpt><trkpt lat="45.2291776" lon="7.895817"><ele>211.0</ele><time>2026-03-29T13:21:55.099Z</time></trkpt><trkpt lat="45.2291603" lon="7.8956772"><ele>210.5</ele><time>2026-03-29T13:21:56.11Z</time></trkpt><trkpt lat="45.2291608" lon="7.895505"><ele>210.0</ele><time>2026-03-29T13:21:57.116Z</time></trkpt><trkpt lat="45.2291727" lon="7.8953364"><ele>209.5</ele><time>2026-03-29T13:21:58.099Z</time></trkpt><trkpt lat="45.229184" lon="7.8951342"><ele>209.0</ele><time>2026-03-29T13:21:59.107Z</time></trkpt><trkpt lat="45.2291853" lon="7.8949167"><ele>209.0</ele><time>2026-03-29T13:22:00.1Z</time></trkpt><trkpt lat="45.2291715" lon="7.8946737"><ele>209.0</ele><time>2026-03-29T13:22:01.104Z</time></trkpt><trkpt lat="45.2291488" lon="7.8944181"><ele>209.0</ele><time>2026-03-29T13:22:02.118Z</time></trkpt><trkpt lat="45.229121" lon="7.8941575"><ele>209.33333333333334</ele><time>2026-03-29T13:22:03.095Z</time></trkpt><trkpt lat="45.2291003" lon="7.8938889"><ele>209.66666666666669</ele><time>2026-03-29T13:22:04.105Z</time></trkpt><trkpt lat="45.2290823" lon="7.8936214"><ele>210.0</ele><time>2026-03-29T13:22:05.114Z</time></trkpt><trkpt lat="45.2290646" lon="7.8933539"><ele>210.0</ele><time>2026-03-29T13:22:06.12Z</time></trkpt><trkpt lat="45.2290472" lon="7.8930883"><ele>210.0</ele><time>2026-03-29T13:22:07.106Z</time></trkpt><trkpt lat="45.2290246" lon="7.8928364"><ele>210.0</ele><time>2026-03-29T13:22:08.098Z</time></trkpt><trkpt lat="45.2290021" lon="7.8925909"><ele>210.0</ele><time>2026-03-29T13:22:09.118Z</time></trkpt><trkpt lat="45.2289824" lon="7.8923496"><ele>210.0</ele><time>2026-03-29T13:22:10.115Z</time></trkpt><trkpt lat="45.2289547" lon="7.892117"><ele>210.0</ele><time>2026-03-29T13:22:11.123Z</time></trkpt><trkpt lat="45.2289245" lon="7.8918994"><ele>210.0</ele><time>2026-03-29T13:22:12.112Z</time></trkpt><trkpt lat="45.2288983" lon="7.8917039"><ele>210.0</ele><time>2026-03-29T13:22:13.116Z</time></trkpt><trkpt lat="45.2288792" lon="7.8915432"><ele>210.0</ele><time>2026-03-29T13:22:14.121Z</time></trkpt><trkpt lat="45.2288719" lon="7.8914244"><ele>210.0</ele><time>2026-03-29T13:22:15.117Z</time></trkpt><trkpt lat="45.2288778" lon="7.8912769"><ele>210.0</ele><time>2026-03-29T13:22:17.102Z</time></trkpt><trkpt lat="45.2289169" lon="7.8911036"><ele>210.0</ele><time>2026-03-29T13:22:19.127Z</time></trkpt><trkpt lat="45.2289423" lon="7.8909838"><ele>210.0</ele><time>2026-03-29T13:22:20.11Z</time></trkpt><trkpt lat="45.2289447" lon="7.8908488"><ele>210.0</ele><time>2026-03-29T13:22:21.116Z</time></trkpt><trkpt lat="45.2289234" lon="7.890694"><ele>210.0</ele><time>2026-03-29T13:22:22.096Z</time></trkpt><trkpt lat="45.2288958" lon="7.8905298"><ele>210.0</ele><time>2026-03-29T13:22:23.12Z</time></trkpt><trkpt lat="45.2288912" lon="7.8903589"><ele>210.0</ele><time>2026-03-29T13:22:24.101Z</time></trkpt><trkpt lat="45.2289147" lon="7.8901642"><ele>210.0</ele><time>2026-03-29T13:22:25.108Z</time></trkpt><trkpt lat="45.2289561" lon="7.8899791"><ele>210.0</ele><time>2026-03-29T13:22:26.111Z</time></trkpt><trkpt lat="45.2290104" lon="7.8897838"><ele>210.0</ele><time>2026-03-29T13:22:27.106Z</time></trkpt><trkpt lat="45.2290614" lon="7.8895933"><ele>210.33333333333331</ele><time>2026-03-29T13:22:28.108Z</time></trkpt><trkpt lat="45.2291153" lon="7.8893857"><ele>210.66666666666666</ele><time>2026-03-29T13:22:29.12Z</time></trkpt><trkpt lat="45.2291621" lon="7.8891879"><ele>211.0</ele><time>2026-03-29T13:22:30.117Z</time></trkpt><trkpt lat="45.2292101" lon="7.8889819"><ele>211.0</ele><time>2026-03-29T13:22:31.113Z</time></trkpt><trkpt lat="45.2292495" lon="7.8887683"><ele>211.0</ele><time>2026-03-29T13:22:32.106Z</time></trkpt><trkpt lat="45.2292896" lon="7.8885556"><ele>211.0</ele><time>2026-03-29T13:22:33.105Z</time></trkpt><trkpt lat="45.2293277" lon="7.888338"><ele>211.33333333333331</ele><time>2026-03-29T13:22:34.099Z</time></trkpt><trkpt lat="45.2293667" lon="7.888122"><ele>211.66666666666669</ele><time>2026-03-29T13:22:35.102Z</time></trkpt><trkpt lat="45.2294026" lon="7.8878999"><ele>212.0</ele><time>2026-03-29T13:22:36.1Z</time></trkpt><trkpt lat="45.229434" lon="7.8876791"><ele>211.33333333333334</ele><time>2026-03-29T13:22:37.108Z</time></trkpt><trkpt lat="45.2294699" lon="7.8874479"><ele>210.66666666666669</ele><time>2026-03-29T13:22:38.108Z</time></trkpt><trkpt lat="45.2295047" lon="7.8872072"><ele>210.0</ele><time>2026-03-29T13:22:39.094Z</time></trkpt><trkpt lat="45.2295499" lon="7.8869472"><ele>209.66666666666669</ele><time>2026-03-29T13:22:40.103Z</time></trkpt><trkpt lat="45.2295911" lon="7.8866918"><ele>209.33333333333334</ele><time>2026-03-29T13:22:41.096Z</time></trkpt><trkpt lat="45.2296315" lon="7.8864345"><ele>209.0</ele><time>2026-03-29T13:22:42.113Z</time></trkpt><trkpt lat="45.2296718" lon="7.8861775"><ele>210.0</ele><time>2026-03-29T13:22:43.113Z</time></trkpt><trkpt lat="45.2297137" lon="7.8859222"><ele>211.0</ele><time>2026-03-29T13:22:44.105Z</time></trkpt><trkpt lat="45.2297568" lon="7.8856672"><ele>212.0</ele><time>2026-03-29T13:22:45.104Z</time></trkpt><trkpt lat="45.2297973" lon="7.8854118"><ele>212.33333333333334</ele><time>2026-03-29T13:22:46.123Z</time></trkpt><trkpt lat="45.2298432" lon="7.8851559"><ele>212.66666666666669</ele><time>2026-03-29T13:22:47.097Z</time></trkpt><trkpt lat="45.2298931" lon="7.8848981"><ele>213.0</ele><time>2026-03-29T13:22:48.114Z</time></trkpt><trkpt lat="45.2299506" lon="7.884636"><ele>213.33333333333331</ele><time>2026-03-29T13:22:49.098Z</time></trkpt><trkpt lat="45.2300096" lon="7.8843707"><ele>213.66666666666666</ele><time>2026-03-29T13:22:50.116Z</time></trkpt><trkpt lat="45.2300786" lon="7.8841051"><ele>214.0</ele><time>2026-03-29T13:22:51.113Z</time></trkpt><trkpt lat="45.2301508" lon="7.8838291"><ele>213.33333333333331</ele><time>2026-03-29T13:22:52.112Z</time></trkpt><trkpt lat="45.2302224" lon="7.883545"><ele>212.66666666666669</ele><time>2026-03-29T13:22:53.11Z</time></trkpt><trkpt lat="45.2302925" lon="7.883255"><ele>212.0</ele><time>2026-03-29T13:22:54.119Z</time></trkpt><trkpt lat="45.2303598" lon="7.8829694"><ele>211.0</ele><time>2026-03-29T13:22:55.118Z</time></trkpt><trkpt lat="45.2304289" lon="7.8826812"><ele>210.0</ele><time>2026-03-29T13:22:56.12Z</time></trkpt><trkpt lat="45.2305022" lon="7.8823896"><ele>209.0</ele><time>2026-03-29T13:22:57.115Z</time></trkpt><trkpt lat="45.2305797" lon="7.882091"><ele>208.66666666666669</ele><time>2026-03-29T13:22:58.101Z</time></trkpt><trkpt lat="45.2306538" lon="7.8817993"><ele>208.33333333333331</ele><time>2026-03-29T13:22:59.118Z</time></trkpt><trkpt lat="45.2307255" lon="7.881506"><ele>208.0</ele><time>2026-03-29T13:23:00.095Z</time></trkpt><trkpt lat="45.2307947" lon="7.8812147"><ele>209.0</ele><time>2026-03-29T13:23:01.116Z</time></trkpt><trkpt lat="45.2308633" lon="7.8809236"><ele>210.0</ele><time>2026-03-29T13:23:02.105Z</time></trkpt><trkpt lat="45.2309326" lon="7.8806324"><ele>211.0</ele><time>2026-03-29T13:23:03.117Z</time></trkpt><trkpt lat="45.231001" lon="7.8803474"><ele>211.33333333333331</ele><time>2026-03-29T13:23:04.111Z</time></trkpt><trkpt lat="45.231061" lon="7.8800613"><ele>211.66666666666669</ele><time>2026-03-29T13:23:05.099Z</time></trkpt><trkpt lat="45.2311126" lon="7.8797729"><ele>212.0</ele><time>2026-03-29T13:23:06.153Z</time></trkpt><trkpt lat="45.2311547" lon="7.8794803"><ele>212.66666666666669</ele><time>2026-03-29T13:23:07.11Z</time></trkpt><trkpt lat="45.2311888" lon="7.8791863"><ele>213.33333333333331</ele><time>2026-03-29T13:23:08.083Z</time></trkpt><trkpt lat="45.2312195" lon="7.8788876"><ele>214.0</ele><time>2026-03-29T13:23:09.132Z</time></trkpt><trkpt lat="45.2312422" lon="7.8785927"><ele>214.0</ele><time>2026-03-29T13:23:10.1Z</time></trkpt><trkpt lat="45.2312567" lon="7.8782931"><ele>214.0</ele><time>2026-03-29T13:23:11.095Z</time></trkpt><trkpt lat="45.2312626" lon="7.8779883"><ele>214.0</ele><time>2026-03-29T13:23:12.104Z</time></trkpt><trkpt lat="45.2312591" lon="7.8776796"><ele>213.66666666666666</ele><time>2026-03-29T13:23:13.103Z</time></trkpt><trkpt lat="45.2312544" lon="7.877374"><ele>213.33333333333331</ele><time>2026-03-29T13:23:14.103Z</time></trkpt><trkpt lat="45.2312412" lon="7.8770663"><ele>213.0</ele><time>2026-03-29T13:23:15.104Z</time></trkpt><trkpt lat="45.2312246" lon="7.8767603"><ele>213.0</ele><time>2026-03-29T13:23:16.094Z</time></trkpt><trkpt lat="45.2312088" lon="7.8764504"><ele>213.0</ele><time>2026-03-29T13:23:17.098Z</time></trkpt><trkpt lat="45.2311949" lon="7.8761468"><ele>213.0</ele><time>2026-03-29T13:23:18.107Z</time></trkpt><trkpt lat="45.2311847" lon="7.875845"><ele>212.66666666666669</ele><time>2026-03-29T13:23:19.106Z</time></trkpt><trkpt lat="45.2311721" lon="7.8755414"><ele>212.33333333333334</ele><time>2026-03-29T13:23:20.106Z</time></trkpt><trkpt lat="45.2311609" lon="7.8752408"><ele>212.0</ele><time>2026-03-29T13:23:21.107Z</time></trkpt><trkpt lat="45.2311512" lon="7.8749353"><ele>212.0</ele><time>2026-03-29T13:23:22.101Z</time></trkpt><trkpt lat="45.2311421" lon="7.8746291"><ele>212.0</ele><time>2026-03-29T13:23:23.116Z</time></trkpt><trkpt lat="45.2311301" lon="7.87432"><ele>212.0</ele><time>2026-03-29T13:23:24.112Z</time></trkpt><trkpt lat="45.2311176" lon="7.8740165"><ele>211.66666666666669</ele><time>2026-03-29T13:23:25.111Z</time></trkpt><trkpt lat="45.2311026" lon="7.8737123"><ele>211.33333333333331</ele><time>2026-03-29T13:23:26.102Z</time></trkpt><trkpt lat="45.2310896" lon="7.8734123"><ele>211.0</ele><time>2026-03-29T13:23:27.106Z</time></trkpt><trkpt lat="45.2310751" lon="7.8731113"><ele>211.0</ele><time>2026-03-29T13:23:28.12Z</time></trkpt><trkpt lat="45.2310641" lon="7.8728089"><ele>211.0</ele><time>2026-03-29T13:23:29.113Z</time></trkpt><trkpt lat="45.2310499" lon="7.872508"><ele>211.0</ele><time>2026-03-29T13:23:30.106Z</time></trkpt><trkpt lat="45.2310378" lon="7.8722023"><ele>210.66666666666666</ele><time>2026-03-29T13:23:31.097Z</time></trkpt><trkpt lat="45.2310273" lon="7.8718934"><ele>210.33333333333331</ele><time>2026-03-29T13:23:32.113Z</time></trkpt><trkpt lat="45.2310169" lon="7.871586"><ele>210.0</ele><time>2026-03-29T13:23:33.112Z</time></trkpt><trkpt lat="45.2310045" lon="7.871278"><ele>209.66666666666669</ele><time>2026-03-29T13:23:34.093Z</time></trkpt><trkpt lat="45.2309996" lon="7.870969"><ele>209.33333333333334</ele><time>2026-03-29T13:23:35.113Z</time></trkpt><trkpt lat="45.2310007" lon="7.8706528"><ele>209.0</ele><time>2026-03-29T13:23:36.102Z</time></trkpt><trkpt lat="45.2310084" lon="7.8703376"><ele>209.0</ele><time>2026-03-29T13:23:37.111Z</time></trkpt><trkpt lat="45.2310216" lon="7.8700236"><ele>209.0</ele><time>2026-03-29T13:23:38.101Z</time></trkpt><trkpt lat="45.2310384" lon="7.8697121"><ele>209.0</ele><time>2026-03-29T13:23:39.104Z</time></trkpt><trkpt lat="45.2310567" lon="7.8694058"><ele>208.66666666666669</ele><time>2026-03-29T13:23:40.137Z</time></trkpt><trkpt lat="45.2310797" lon="7.869097"><ele>208.33333333333331</ele><time>2026-03-29T13:23:41.105Z</time></trkpt><trkpt lat="45.2311053" lon="7.8687937"><ele>208.0</ele><time>2026-03-29T13:23:42.107Z</time></trkpt><trkpt lat="45.2311303" lon="7.868491"><ele>208.33333333333331</ele><time>2026-03-29T13:23:43.118Z</time></trkpt><trkpt lat="45.2311553" lon="7.8681959"><ele>208.66666666666669</ele><time>2026-03-29T13:23:44.155Z</time></trkpt><trkpt lat="45.2311753" lon="7.8679019"><ele>209.0</ele><time>2026-03-29T13:23:45.105Z</time></trkpt><trkpt lat="45.2311956" lon="7.8676113"><ele>209.0</ele><time>2026-03-29T13:23:46.126Z</time></trkpt><trkpt lat="45.2312199" lon="7.8673149"><ele>209.0</ele><time>2026-03-29T13:23:47.104Z</time></trkpt><trkpt lat="45.2312404" lon="7.8670297"><ele>209.0</ele><time>2026-03-29T13:23:48.102Z</time></trkpt><trkpt lat="45.2312597" lon="7.8667527"><ele>209.0</ele><time>2026-03-29T13:23:49.122Z</time></trkpt><trkpt lat="45.231278" lon="7.8664878"><ele>209.0</ele><time>2026-03-29T13:23:50.12Z</time></trkpt><trkpt lat="45.2312998" lon="7.8662375"><ele>209.0</ele><time>2026-03-29T13:23:51.109Z</time></trkpt><trkpt lat="45.2313282" lon="7.8660103"><ele>209.0</ele><time>2026-03-29T13:23:52.098Z</time></trkpt><trkpt lat="45.2313637" lon="7.8658108"><ele>209.0</ele><time>2026-03-29T13:23:53.112Z</time></trkpt><trkpt lat="45.2314116" lon="7.8656273"><ele>209.0</ele><time>2026-03-29T13:23:54.102Z</time></trkpt><trkpt lat="45.2314818" lon="7.8654746"><ele>209.0</ele><time>2026-03-29T13:23:55.132Z</time></trkpt><trkpt lat="45.2315709" lon="7.8653566"><ele>209.25</ele><time>2026-03-29T13:23:56.096Z</time></trkpt><trkpt lat="45.2316878" lon="7.8652489"><ele>209.5</ele><time>2026-03-29T13:23:57.11Z</time></trkpt><trkpt lat="45.2318275" lon="7.8651891"><ele>209.75</ele><time>2026-03-29T13:23:58.115Z</time></trkpt><trkpt lat="45.2319832" lon="7.8651499"><ele>210.0</ele><time>2026-03-29T13:23:59.11Z</time></trkpt><trkpt lat="45.2321578" lon="7.8651246"><ele>210.0</ele><time>2026-03-29T13:24:00.096Z</time></trkpt><trkpt lat="45.2323432" lon="7.8651075"><ele>210.0</ele><time>2026-03-29T13:24:01.108Z</time></trkpt><trkpt lat="45.2325379" lon="7.8650924"><ele>210.0</ele><time>2026-03-29T13:24:02.111Z</time></trkpt><trkpt lat="45.2327401" lon="7.8650741"><ele>210.0</ele><time>2026-03-29T13:24:03.114Z</time></trkpt><trkpt lat="45.2329442" lon="7.865065"><ele>210.0</ele><time>2026-03-29T13:24:04.105Z</time></trkpt><trkpt lat="45.2331519" lon="7.8650555"><ele>210.0</ele><time>2026-03-29T13:24:05.112Z</time></trkpt><trkpt lat="45.2333675" lon="7.8650385"><ele>210.33333333333331</ele><time>2026-03-29T13:24:06.101Z</time></trkpt><trkpt lat="45.233584" lon="7.8650218"><ele>210.66666666666666</ele><time>2026-03-29T13:24:07.105Z</time></trkpt><trkpt lat="45.2338053" lon="7.865001"><ele>211.0</ele><time>2026-03-29T13:24:08.101Z</time></trkpt><trkpt lat="45.234028" lon="7.8649871"><ele>211.0</ele><time>2026-03-29T13:24:09.102Z</time></trkpt><trkpt lat="45.2342545" lon="7.8649671"><ele>211.0</ele><time>2026-03-29T13:24:10.138Z</time></trkpt><trkpt lat="45.2344791" lon="7.8649517"><ele>211.0</ele><time>2026-03-29T13:24:11.105Z</time></trkpt><trkpt lat="45.2347042" lon="7.8649391"><ele>211.0</ele><time>2026-03-29T13:24:12.115Z</time></trkpt><trkpt lat="45.2349288" lon="7.8649327"><ele>211.5</ele><time>2026-03-29T13:24:13.103Z</time></trkpt><trkpt lat="45.2351552" lon="7.8649229"><ele>212.0</ele><time>2026-03-29T13:24:14.108Z</time></trkpt><trkpt lat="45.2353834" lon="7.864905"><ele>212.0</ele><time>2026-03-29T13:24:15.118Z</time></trkpt><trkpt lat="45.2356119" lon="7.8648878"><ele>212.0</ele><time>2026-03-29T13:24:16.113Z</time></trkpt><trkpt lat="45.2358431" lon="7.8648734"><ele>212.0</ele><time>2026-03-29T13:24:17.109Z</time></trkpt><trkpt lat="45.2360709" lon="7.8648614"><ele>212.0</ele><time>2026-03-29T13:24:18.117Z</time></trkpt><trkpt lat="45.2363003" lon="7.8648459"><ele>212.0</ele><time>2026-03-29T13:24:19.104Z</time></trkpt><trkpt lat="45.2365292" lon="7.8648276"><ele>212.0</ele><time>2026-03-29T13:24:20.104Z</time></trkpt><trkpt lat="45.2367574" lon="7.8648135"><ele>212.0</ele><time>2026-03-29T13:24:21.107Z</time></trkpt><trkpt lat="45.2369857" lon="7.8647925"><ele>212.0</ele><time>2026-03-29T13:24:22.102Z</time></trkpt><trkpt lat="45.2372106" lon="7.86478"><ele>212.66666666666669</ele><time>2026-03-29T13:24:23.125Z</time></trkpt><trkpt lat="45.2374335" lon="7.8647649"><ele>213.33333333333331</ele><time>2026-03-29T13:24:24.104Z</time></trkpt><trkpt lat="45.2376512" lon="7.8647497"><ele>214.0</ele><time>2026-03-29T13:24:25.106Z</time></trkpt><trkpt lat="45.2378631" lon="7.8647328"><ele>214.0</ele><time>2026-03-29T13:24:26.138Z</time></trkpt><trkpt lat="45.2380599" lon="7.8647111"><ele>214.0</ele><time>2026-03-29T13:24:27.126Z</time></trkpt><trkpt lat="45.2382484" lon="7.864679"><ele>214.0</ele><time>2026-03-29T13:24:28.107Z</time></trkpt><trkpt lat="45.2384231" lon="7.8646491"><ele>214.0</ele><time>2026-03-29T13:24:29.109Z</time></trkpt><trkpt lat="45.2385875" lon="7.8646216"><ele>214.0</ele><time>2026-03-29T13:24:30.103Z</time></trkpt><trkpt lat="45.2387359" lon="7.8645991"><ele>214.0</ele><time>2026-03-29T13:24:31.111Z</time></trkpt><trkpt lat="45.2388704" lon="7.8645803"><ele>214.25</ele><time>2026-03-29T13:24:32.108Z</time></trkpt><trkpt lat="45.2389935" lon="7.8645879"><ele>214.5</ele><time>2026-03-29T13:24:33.103Z</time></trkpt><trkpt lat="45.2391094" lon="7.8646296"><ele>214.75</ele><time>2026-03-29T13:24:34.141Z</time></trkpt><trkpt lat="45.2392249" lon="7.8646495"><ele>215.0</ele><time>2026-03-29T13:24:35.105Z</time></trkpt><trkpt lat="45.2393333" lon="7.8646354"><ele>215.0</ele><time>2026-03-29T13:24:36.123Z</time></trkpt><trkpt lat="45.2394274" lon="7.8645715"><ele>215.0</ele><time>2026-03-29T13:24:37.134Z</time></trkpt><trkpt lat="45.2395168" lon="7.8644249"><ele>215.0</ele><time>2026-03-29T13:24:38.097Z</time></trkpt><trkpt lat="45.2396029" lon="7.8642553"><ele>215.0</ele><time>2026-03-29T13:24:39.11Z</time></trkpt><trkpt lat="45.2397159" lon="7.8640989"><ele>215.33333333333334</ele><time>2026-03-29T13:24:40.099Z</time></trkpt><trkpt lat="45.2398555" lon="7.863966"><ele>215.66666666666669</ele><time>2026-03-29T13:24:41.125Z</time></trkpt><trkpt lat="45.2400061" lon="7.8638436"><ele>216.0</ele><time>2026-03-29T13:24:42.098Z</time></trkpt><trkpt lat="45.2401619" lon="7.8637215"><ele>216.0</ele><time>2026-03-29T13:24:43.104Z</time></trkpt><trkpt lat="45.2403274" lon="7.8636019"><ele>216.0</ele><time>2026-03-29T13:24:44.107Z</time></trkpt><trkpt lat="45.2404886" lon="7.86348"><ele>216.0</ele><time>2026-03-29T13:24:45.095Z</time></trkpt><trkpt lat="45.240641" lon="7.8633349"><ele>215.66666666666669</ele><time>2026-03-29T13:24:46.122Z</time></trkpt><trkpt lat="45.240785" lon="7.8631688"><ele>215.33333333333334</ele><time>2026-03-29T13:24:47.116Z</time></trkpt><trkpt lat="45.240929" lon="7.8629894"><ele>215.0</ele><time>2026-03-29T13:24:48.104Z</time></trkpt><trkpt lat="45.2410655" lon="7.8628"><ele>215.33333333333334</ele><time>2026-03-29T13:24:49.112Z</time></trkpt><trkpt lat="45.2411939" lon="7.862597"><ele>215.66666666666669</ele><time>2026-03-29T13:24:50.103Z</time></trkpt><trkpt lat="45.2413071" lon="7.8623778"><ele>216.0</ele><time>2026-03-29T13:24:51.106Z</time></trkpt><trkpt lat="45.2414047" lon="7.8621422"><ele>216.66666666666669</ele><time>2026-03-29T13:24:52.105Z</time></trkpt><trkpt lat="45.2414926" lon="7.8619034"><ele>217.33333333333334</ele><time>2026-03-29T13:24:53.112Z</time></trkpt><trkpt lat="45.2415748" lon="7.8616577"><ele>218.0</ele><time>2026-03-29T13:24:54.117Z</time></trkpt><trkpt lat="45.2416489" lon="7.8614039"><ele>218.0</ele><time>2026-03-29T13:24:55.114Z</time></trkpt><trkpt lat="45.2417213" lon="7.861138"><ele>218.0</ele><time>2026-03-29T13:24:56.124Z</time></trkpt><trkpt lat="45.2418002" lon="7.8608718"><ele>218.0</ele><time>2026-03-29T13:24:57.111Z</time></trkpt><trkpt lat="45.2418866" lon="7.8605976"><ele>217.66666666666669</ele><time>2026-03-29T13:24:58.157Z</time></trkpt><trkpt lat="45.2419702" lon="7.8603243"><ele>217.33333333333331</ele><time>2026-03-29T13:24:59.101Z</time></trkpt><trkpt lat="45.2420559" lon="7.8600475"><ele>217.0</ele><time>2026-03-29T13:25:00.106Z</time></trkpt><trkpt lat="45.2421443" lon="7.8597772"><ele>217.0</ele><time>2026-03-29T13:25:01.11Z</time></trkpt><trkpt lat="45.2422316" lon="7.8595241"><ele>217.0</ele><time>2026-03-29T13:25:02.104Z</time></trkpt><trkpt lat="45.2423242" lon="7.8592815"><ele>217.0</ele><time>2026-03-29T13:25:03.114Z</time></trkpt><trkpt lat="45.2424147" lon="7.8590556"><ele>217.33333333333331</ele><time>2026-03-29T13:25:04.117Z</time></trkpt><trkpt lat="45.2424963" lon="7.858838"><ele>217.66666666666669</ele><time>2026-03-29T13:25:05.112Z</time></trkpt><trkpt lat="45.2425649" lon="7.8586247"><ele>218.0</ele><time>2026-03-29T13:25:06.137Z</time></trkpt><trkpt lat="45.2426141" lon="7.8584134"><ele>218.0</ele><time>2026-03-29T13:25:07.109Z</time></trkpt><trkpt lat="45.2426657" lon="7.8582148"><ele>218.0</ele><time>2026-03-29T13:25:08.11Z</time></trkpt><trkpt lat="45.2427176" lon="7.8580428"><ele>218.0</ele><time>2026-03-29T13:25:09.111Z</time></trkpt><trkpt lat="45.2427881" lon="7.8578989"><ele>218.0</ele><time>2026-03-29T13:25:10.094Z</time></trkpt><trkpt lat="45.2428659" lon="7.8577904"><ele>218.0</ele><time>2026-03-29T13:25:11.113Z</time></trkpt><trkpt lat="45.242937" lon="7.8576648"><ele>218.0</ele><time>2026-03-29T13:25:12.102Z</time></trkpt><trkpt lat="45.242977" lon="7.8575109"><ele>218.0</ele><time>2026-03-29T13:25:13.116Z</time></trkpt><trkpt lat="45.2429729" lon="7.85735"><ele>218.0</ele><time>2026-03-29T13:25:14.142Z</time></trkpt><trkpt lat="45.2429125" lon="7.8571754"><ele>218.0</ele><time>2026-03-29T13:25:15.108Z</time></trkpt><trkpt lat="45.2428247" lon="7.8569965"><ele>218.0</ele><time>2026-03-29T13:25:16.109Z</time></trkpt><trkpt lat="45.2427539" lon="7.8567807"><ele>218.0</ele><time>2026-03-29T13:25:17.132Z</time></trkpt><trkpt lat="45.2427414" lon="7.8565506"><ele>219.0</ele><time>2026-03-29T13:25:18.107Z</time></trkpt><trkpt lat="45.2427519" lon="7.8562931"><ele>220.0</ele><time>2026-03-29T13:25:19.113Z</time></trkpt><trkpt lat="45.2427836" lon="7.8560309"><ele>221.0</ele><time>2026-03-29T13:25:20.104Z</time></trkpt><trkpt lat="45.2428371" lon="7.8557649"><ele>221.66666666666669</ele><time>2026-03-29T13:25:21.097Z</time></trkpt><trkpt lat="45.2428994" lon="7.8554955"><ele>222.33333333333331</ele><time>2026-03-29T13:25:22.107Z</time></trkpt><trkpt lat="45.2429568" lon="7.8552322"><ele>223.0</ele><time>2026-03-29T13:25:23.098Z</time></trkpt><trkpt lat="45.2430071" lon="7.8549566"><ele>223.0</ele><time>2026-03-29T13:25:24.118Z</time></trkpt><trkpt lat="45.2430623" lon="7.854678"><ele>223.0</ele><time>2026-03-29T13:25:25.114Z</time></trkpt><trkpt lat="45.2431189" lon="7.854397"><ele>223.0</ele><time>2026-03-29T13:25:26.108Z</time></trkpt><trkpt lat="45.2431763" lon="7.854122"><ele>223.0</ele><time>2026-03-29T13:25:27.107Z</time></trkpt><trkpt lat="45.2432266" lon="7.8538447"><ele>223.0</ele><time>2026-03-29T13:25:28.106Z</time></trkpt><trkpt lat="45.2432747" lon="7.8535641"><ele>223.0</ele><time>2026-03-29T13:25:29.109Z</time></trkpt><trkpt lat="45.2433191" lon="7.8532859"><ele>223.0</ele><time>2026-03-29T13:25:30.096Z</time></trkpt><trkpt lat="45.2433572" lon="7.8530004"><ele>223.0</ele><time>2026-03-29T13:25:31.104Z</time></trkpt><trkpt lat="45.2433882" lon="7.8527161"><ele>223.0</ele><time>2026-03-29T13:25:32.098Z</time></trkpt><trkpt lat="45.2434203" lon="7.8524244"><ele>224.0</ele><time>2026-03-29T13:25:33.109Z</time></trkpt><trkpt lat="45.2434489" lon="7.8521389"><ele>225.0</ele><time>2026-03-29T13:25:34.101Z</time></trkpt><trkpt lat="45.2434778" lon="7.8518543"><ele>226.0</ele><time>2026-03-29T13:25:35.108Z</time></trkpt><trkpt lat="45.2435023" lon="7.851561"><ele>226.0</ele><time>2026-03-29T13:25:36.112Z</time></trkpt><trkpt lat="45.243522" lon="7.8512632"><ele>226.0</ele><time>2026-03-29T13:25:37.101Z</time></trkpt><trkpt lat="45.2435373" lon="7.8509627"><ele>226.0</ele><time>2026-03-29T13:25:38.14Z</time></trkpt><trkpt lat="45.243552" lon="7.8506565"><ele>226.0</ele><time>2026-03-29T13:25:39.115Z</time></trkpt><trkpt lat="45.2435599" lon="7.8503468"><ele>226.0</ele><time>2026-03-29T13:25:40.101Z</time></trkpt><trkpt lat="45.2435669" lon="7.8500376"><ele>226.0</ele><time>2026-03-29T13:25:41.104Z</time></trkpt><trkpt lat="45.2435674" lon="7.849723"><ele>226.0</ele><time>2026-03-29T13:25:42.1Z</time></trkpt><trkpt lat="45.2435684" lon="7.8494054"><ele>226.0</ele><time>2026-03-29T13:25:43.119Z</time></trkpt><trkpt lat="45.2435717" lon="7.849088"><ele>226.0</ele><time>2026-03-29T13:25:44.109Z</time></trkpt><trkpt lat="45.2435655" lon="7.8487791"><ele>224.66666666666666</ele><time>2026-03-29T13:25:45.151Z</time></trkpt><trkpt lat="45.2435584" lon="7.8484813"><ele>223.33333333333331</ele><time>2026-03-29T13:25:46.105Z</time></trkpt><trkpt lat="45.2435503" lon="7.8481811"><ele>222.0</ele><time>2026-03-29T13:25:47.107Z</time></trkpt><trkpt lat="45.2435485" lon="7.8478953"><ele>222.33333333333331</ele><time>2026-03-29T13:25:48.122Z</time></trkpt><trkpt lat="45.2435415" lon="7.8476043"><ele>222.66666666666666</ele><time>2026-03-29T13:25:49.1Z</time></trkpt><trkpt lat="45.2435338" lon="7.8473165"><ele>223.0</ele><time>2026-03-29T13:25:50.109Z</time></trkpt><trkpt lat="45.2435272" lon="7.8470299"><ele>223.0</ele><time>2026-03-29T13:25:51.103Z</time></trkpt><trkpt lat="45.2435276" lon="7.8467438"><ele>223.0</ele><time>2026-03-29T13:25:52.123Z</time></trkpt><trkpt lat="45.2435357" lon="7.8464613"><ele>223.0</ele><time>2026-03-29T13:25:53.098Z</time></trkpt><trkpt lat="45.2435586" lon="7.8461739"><ele>222.66666666666666</ele><time>2026-03-29T13:25:54.104Z</time></trkpt><trkpt lat="45.2435929" lon="7.8458972"><ele>222.33333333333331</ele><time>2026-03-29T13:25:55.124Z</time></trkpt><trkpt lat="45.2436441" lon="7.8456534"><ele>222.0</ele><time>2026-03-29T13:25:56.105Z</time></trkpt><trkpt lat="45.2437084" lon="7.8454258"><ele>222.0</ele><time>2026-03-29T13:25:57.1Z</time></trkpt><trkpt lat="45.2437775" lon="7.8452208"><ele>222.0</ele><time>2026-03-29T13:25:58.106Z</time></trkpt><trkpt lat="45.2438494" lon="7.8450404"><ele>222.0</ele><time>2026-03-29T13:25:59.111Z</time></trkpt><trkpt lat="45.243925" lon="7.8448865"><ele>222.0</ele><time>2026-03-29T13:26:00.109Z</time></trkpt><trkpt lat="45.2440007" lon="7.8447573"><ele>222.5</ele><time>2026-03-29T13:26:01.114Z</time></trkpt><trkpt lat="45.2440792" lon="7.8446382"><ele>223.0</ele><time>2026-03-29T13:26:02.112Z</time></trkpt><trkpt lat="45.2441784" lon="7.8444975"><ele>223.5</ele><time>2026-03-29T13:26:03.106Z</time></trkpt><trkpt lat="45.2442931" lon="7.8443441"><ele>224.0</ele><time>2026-03-29T13:26:04.091Z</time></trkpt><trkpt lat="45.2444287" lon="7.8441838"><ele>224.33333333333334</ele><time>2026-03-29T13:26:05.102Z</time></trkpt><trkpt lat="45.2445704" lon="7.8440259"><ele>224.66666666666669</ele><time>2026-03-29T13:26:06.104Z</time></trkpt><trkpt lat="45.2447315" lon="7.8438659"><ele>225.0</ele><time>2026-03-29T13:26:07.094Z</time></trkpt><trkpt lat="45.2449099" lon="7.8437054"><ele>225.0</ele><time>2026-03-29T13:26:08.101Z</time></trkpt><trkpt lat="45.2450916" lon="7.8435456"><ele>225.0</ele><time>2026-03-29T13:26:09.098Z</time></trkpt><trkpt lat="45.2452747" lon="7.8433697"><ele>225.0</ele><time>2026-03-29T13:26:10.093Z</time></trkpt><trkpt lat="45.2454549" lon="7.8431999"><ele>223.0</ele><time>2026-03-29T13:26:11.095Z</time></trkpt><trkpt lat="45.2456351" lon="7.843027"><ele>221.0</ele><time>2026-03-29T13:26:12.102Z</time></trkpt><trkpt lat="45.2458084" lon="7.8428518"><ele>219.0</ele><time>2026-03-29T13:26:13.099Z</time></trkpt><trkpt lat="45.24598" lon="7.8426901"><ele>218.0</ele><time>2026-03-29T13:26:14.105Z</time></trkpt><trkpt lat="45.2461495" lon="7.8425235"><ele>217.0</ele><time>2026-03-29T13:26:15.097Z</time></trkpt><trkpt lat="45.2463186" lon="7.8423572"><ele>216.0</ele><time>2026-03-29T13:26:16.128Z</time></trkpt><trkpt lat="45.2464924" lon="7.8422007"><ele>216.0</ele><time>2026-03-29T13:26:17.1Z</time></trkpt><trkpt lat="45.2466664" lon="7.8420378"><ele>216.0</ele><time>2026-03-29T13:26:18.12Z</time></trkpt><trkpt lat="45.2468359" lon="7.8418772"><ele>216.0</ele><time>2026-03-29T13:26:19.097Z</time></trkpt><trkpt lat="45.2470074" lon="7.8417081"><ele>216.0</ele><time>2026-03-29T13:26:20.115Z</time></trkpt><trkpt lat="45.2471768" lon="7.841544"><ele>216.0</ele><time>2026-03-29T13:26:21.102Z</time></trkpt><trkpt lat="45.2473485" lon="7.8413757"><ele>216.0</ele><time>2026-03-29T13:26:22.103Z</time></trkpt><trkpt lat="45.2475128" lon="7.8412141"><ele>216.0</ele><time>2026-03-29T13:26:23.1Z</time></trkpt><trkpt lat="45.2476761" lon="7.8410518"><ele>216.0</ele><time>2026-03-29T13:26:24.1Z</time></trkpt><trkpt lat="45.2478326" lon="7.840903"><ele>216.0</ele><time>2026-03-29T13:26:25.092Z</time></trkpt><trkpt lat="45.2479771" lon="7.8407702"><ele>215.5</ele><time>2026-03-29T13:26:26.108Z</time></trkpt><trkpt lat="45.2481182" lon="7.8406361"><ele>215.0</ele><time>2026-03-29T13:26:27.096Z</time></trkpt><trkpt lat="45.2482367" lon="7.8405127"><ele>214.5</ele><time>2026-03-29T13:26:28.09Z</time></trkpt><trkpt lat="45.2483426" lon="7.8404126"><ele>214.0</ele><time>2026-03-29T13:26:29.103Z</time></trkpt><trkpt lat="45.2484232" lon="7.840311"><ele>215.0</ele><time>2026-03-29T13:26:30.098Z</time></trkpt><trkpt lat="45.2484689" lon="7.84017"><ele>216.0</ele><time>2026-03-29T13:26:31.104Z</time></trkpt><trkpt lat="45.2484803" lon="7.8400006"><ele>217.0</ele><time>2026-03-29T13:26:32.111Z</time></trkpt><trkpt lat="45.2484885" lon="7.8397801"><ele>218.0</ele><time>2026-03-29T13:26:33.09Z</time></trkpt><trkpt lat="45.2484959" lon="7.8395449"><ele>217.33333333333334</ele><time>2026-03-29T13:26:34.101Z</time></trkpt><trkpt lat="45.2485069" lon="7.8392828"><ele>216.66666666666669</ele><time>2026-03-29T13:26:35.086Z</time></trkpt><trkpt lat="45.248513" lon="7.8390169"><ele>216.0</ele><time>2026-03-29T13:26:36.102Z</time></trkpt><trkpt lat="45.2485191" lon="7.8387384"><ele>215.0</ele><time>2026-03-29T13:26:37.11Z</time></trkpt><trkpt lat="45.2485199" lon="7.8384559"><ele>214.0</ele><time>2026-03-29T13:26:38.117Z</time></trkpt><trkpt lat="45.2485283" lon="7.8381667"><ele>213.0</ele><time>2026-03-29T13:26:39.12Z</time></trkpt><trkpt lat="45.2485394" lon="7.8378735"><ele>213.66666666666669</ele><time>2026-03-29T13:26:40.113Z</time></trkpt><trkpt lat="45.2485504" lon="7.8375815"><ele>214.33333333333334</ele><time>2026-03-29T13:26:41.105Z</time></trkpt><trkpt lat="45.2485606" lon="7.8372862"><ele>215.0</ele><time>2026-03-29T13:26:42.115Z</time></trkpt><trkpt lat="45.2485677" lon="7.8369912"><ele>215.33333333333334</ele><time>2026-03-29T13:26:43.109Z</time></trkpt><trkpt lat="45.2485773" lon="7.8366937"><ele>215.66666666666669</ele><time>2026-03-29T13:26:44.11Z</time></trkpt><trkpt lat="45.2485845" lon="7.8363984"><ele>216.0</ele><time>2026-03-29T13:26:45.123Z</time></trkpt><trkpt lat="45.2485927" lon="7.8360997"><ele>216.66666666666669</ele><time>2026-03-29T13:26:46.109Z</time></trkpt><trkpt lat="45.2485966" lon="7.8357982"><ele>217.33333333333334</ele><time>2026-03-29T13:26:47.115Z</time></trkpt><trkpt lat="45.2486022" lon="7.8355022"><ele>218.0</ele><time>2026-03-29T13:26:48.117Z</time></trkpt><trkpt lat="45.248608" lon="7.8352041"><ele>218.0</ele><time>2026-03-29T13:26:49.109Z</time></trkpt><trkpt lat="45.2486163" lon="7.8349134"><ele>218.0</ele><time>2026-03-29T13:26:50.11Z</time></trkpt><trkpt lat="45.248628" lon="7.834606"><ele>218.0</ele><time>2026-03-29T13:26:51.107Z</time></trkpt><trkpt lat="45.2486414" lon="7.8343067"><ele>218.0</ele><time>2026-03-29T13:26:52.099Z</time></trkpt><trkpt lat="45.248653" lon="7.8339958"><ele>218.0</ele><time>2026-03-29T13:26:53.11Z</time></trkpt><trkpt lat="45.2486616" lon="7.8336909"><ele>218.0</ele><time>2026-03-29T13:26:54.122Z</time></trkpt><trkpt lat="45.248672" lon="7.8333835"><ele>218.0</ele><time>2026-03-29T13:26:55.129Z</time></trkpt><trkpt lat="45.2486788" lon="7.8330764"><ele>218.0</ele><time>2026-03-29T13:26:56.124Z</time></trkpt><trkpt lat="45.2486869" lon="7.8327772"><ele>218.0</ele><time>2026-03-29T13:26:57.1Z</time></trkpt><trkpt lat="45.248696" lon="7.8324801"><ele>217.66666666666669</ele><time>2026-03-29T13:26:58.103Z</time></trkpt><trkpt lat="45.2487035" lon="7.8321859"><ele>217.33333333333331</ele><time>2026-03-29T13:26:59.107Z</time></trkpt><trkpt lat="45.248711" lon="7.8318912"><ele>217.0</ele><time>2026-03-29T13:27:00.107Z</time></trkpt><trkpt lat="45.2487166" lon="7.8315958"><ele>216.66666666666666</ele><time>2026-03-29T13:27:01.122Z</time></trkpt><trkpt lat="45.248724" lon="7.8313031"><ele>216.33333333333331</ele><time>2026-03-29T13:27:02.11Z</time></trkpt><trkpt lat="45.2487339" lon="7.8310091"><ele>216.0</ele><time>2026-03-29T13:27:03.139Z</time></trkpt><trkpt lat="45.248743" lon="7.8307123"><ele>216.66666666666669</ele><time>2026-03-29T13:27:04.105Z</time></trkpt><trkpt lat="45.2487556" lon="7.8304161"><ele>217.33333333333334</ele><time>2026-03-29T13:27:05.104Z</time></trkpt><trkpt lat="45.2487651" lon="7.8301182"><ele>218.0</ele><time>2026-03-29T13:27:06.117Z</time></trkpt><trkpt lat="45.2487719" lon="7.8298145"><ele>218.33333333333334</ele><time>2026-03-29T13:27:07.105Z</time></trkpt><trkpt lat="45.2487804" lon="7.8295174"><ele>218.66666666666669</ele><time>2026-03-29T13:27:08.119Z</time></trkpt><trkpt lat="45.2487882" lon="7.8292145"><ele>219.0</ele><time>2026-03-29T13:27:09.125Z</time></trkpt><trkpt lat="45.2487957" lon="7.8289166"><ele>218.66666666666669</ele><time>2026-03-29T13:27:10.1Z</time></trkpt><trkpt lat="45.2488057" lon="7.8286209"><ele>218.33333333333334</ele><time>2026-03-29T13:27:11.115Z</time></trkpt><trkpt lat="45.2488126" lon="7.8283222"><ele>218.0</ele><time>2026-03-29T13:27:12.113Z</time></trkpt><trkpt lat="45.2488199" lon="7.828024"><ele>218.0</ele><time>2026-03-29T13:27:13.105Z</time></trkpt><trkpt lat="45.2488213" lon="7.827727"><ele>218.0</ele><time>2026-03-29T13:27:14.135Z</time></trkpt><trkpt lat="45.2488286" lon="7.8274337"><ele>218.0</ele><time>2026-03-29T13:27:15.117Z</time></trkpt><trkpt lat="45.2488385" lon="7.8271327"><ele>217.66666666666669</ele><time>2026-03-29T13:27:16.129Z</time></trkpt><trkpt lat="45.2488479" lon="7.8268323"><ele>217.33333333333331</ele><time>2026-03-29T13:27:17.112Z</time></trkpt><trkpt lat="45.2488562" lon="7.8265292"><ele>217.0</ele><time>2026-03-29T13:27:18.112Z</time></trkpt><trkpt lat="45.2488674" lon="7.8262288"><ele>216.33333333333331</ele><time>2026-03-29T13:27:19.119Z</time></trkpt><trkpt lat="45.2488776" lon="7.8259256"><ele>215.66666666666669</ele><time>2026-03-29T13:27:20.114Z</time></trkpt><trkpt lat="45.248888" lon="7.8256211"><ele>215.0</ele><time>2026-03-29T13:27:21.103Z</time></trkpt><trkpt lat="45.2488983" lon="7.8253196"><ele>215.66666666666669</ele><time>2026-03-29T13:27:22.099Z</time></trkpt><trkpt lat="45.2489079" lon="7.8250172"><ele>216.33333333333331</ele><time>2026-03-29T13:27:23.115Z</time></trkpt><trkpt lat="45.2489147" lon="7.8247203"><ele>217.0</ele><time>2026-03-29T13:27:24.111Z</time></trkpt><trkpt lat="45.2489206" lon="7.8244199"><ele>217.0</ele><time>2026-03-29T13:27:25.111Z</time></trkpt><trkpt lat="45.2489261" lon="7.8241174"><ele>217.0</ele><time>2026-03-29T13:27:26.122Z</time></trkpt><trkpt lat="45.2489334" lon="7.8238153"><ele>217.0</ele><time>2026-03-29T13:27:27.099Z</time></trkpt><trkpt lat="45.2489427" lon="7.8235156"><ele>217.33333333333331</ele><time>2026-03-29T13:27:28.123Z</time></trkpt><trkpt lat="45.2489555" lon="7.8232159"><ele>217.66666666666669</ele><time>2026-03-29T13:27:29.113Z</time></trkpt><trkpt lat="45.2489686" lon="7.8229188"><ele>218.0</ele><time>2026-03-29T13:27:30.109Z</time></trkpt><trkpt lat="45.2489756" lon="7.8226147"><ele>218.0</ele><time>2026-03-29T13:27:31.109Z</time></trkpt><trkpt lat="45.2489818" lon="7.8223177"><ele>218.0</ele><time>2026-03-29T13:27:32.108Z</time></trkpt><trkpt lat="45.2489902" lon="7.8220234"><ele>218.0</ele><time>2026-03-29T13:27:33.121Z</time></trkpt><trkpt lat="45.2489994" lon="7.8217293"><ele>217.33333333333334</ele><time>2026-03-29T13:27:34.115Z</time></trkpt><trkpt lat="45.249008" lon="7.8214338"><ele>216.66666666666669</ele><time>2026-03-29T13:27:35.115Z</time></trkpt><trkpt lat="45.2490147" lon="7.8211374"><ele>216.0</ele><time>2026-03-29T13:27:36.12Z</time></trkpt><trkpt lat="45.2490236" lon="7.8208413"><ele>216.0</ele><time>2026-03-29T13:27:37.121Z</time></trkpt><trkpt lat="45.2490313" lon="7.8205462"><ele>216.0</ele><time>2026-03-29T13:27:38.111Z</time></trkpt><trkpt lat="45.249039" lon="7.8202529"><ele>216.0</ele><time>2026-03-29T13:27:39.097Z</time></trkpt><trkpt lat="45.2490434" lon="7.8199575"><ele>216.0</ele><time>2026-03-29T13:27:40.113Z</time></trkpt><trkpt lat="45.2490519" lon="7.8196592"><ele>216.0</ele><time>2026-03-29T13:27:41.119Z</time></trkpt><trkpt lat="45.2490641" lon="7.8193527"><ele>216.0</ele><time>2026-03-29T13:27:42.118Z</time></trkpt><trkpt lat="45.249075" lon="7.8190529"><ele>216.0</ele><time>2026-03-29T13:27:43.095Z</time></trkpt><trkpt lat="45.2490835" lon="7.8187561"><ele>216.0</ele><time>2026-03-29T13:27:44.108Z</time></trkpt><trkpt lat="45.2490938" lon="7.8184546"><ele>216.0</ele><time>2026-03-29T13:27:45.108Z</time></trkpt><trkpt lat="45.2491013" lon="7.8181513"><ele>216.0</ele><time>2026-03-29T13:27:46.105Z</time></trkpt><trkpt lat="45.2491104" lon="7.8178475"><ele>216.0</ele><time>2026-03-29T13:27:47.128Z</time></trkpt><trkpt lat="45.2491214" lon="7.817544"><ele>216.0</ele><time>2026-03-29T13:27:48.109Z</time></trkpt><trkpt lat="45.2491318" lon="7.8172405"><ele>216.0</ele><time>2026-03-29T13:27:49.098Z</time></trkpt><trkpt lat="45.2491431" lon="7.8169444"><ele>216.0</ele><time>2026-03-29T13:27:50.112Z</time></trkpt><trkpt lat="45.2491542" lon="7.8166535"><ele>216.0</ele><time>2026-03-29T13:27:51.113Z</time></trkpt><trkpt lat="45.2491642" lon="7.8163578"><ele>216.33333333333331</ele><time>2026-03-29T13:27:52.115Z</time></trkpt><trkpt lat="45.2491716" lon="7.816062"><ele>216.66666666666666</ele><time>2026-03-29T13:27:53.107Z</time></trkpt><trkpt lat="45.2491802" lon="7.8157744"><ele>217.0</ele><time>2026-03-29T13:27:54.139Z</time></trkpt><trkpt lat="45.249191" lon="7.8154886"><ele>217.0</ele><time>2026-03-29T13:27:55.157Z</time></trkpt><trkpt lat="45.2491977" lon="7.8152032"><ele>217.0</ele><time>2026-03-29T13:27:56.095Z</time></trkpt><trkpt lat="45.2492026" lon="7.8149163"><ele>217.0</ele><time>2026-03-29T13:27:57.118Z</time></trkpt><trkpt lat="45.2492109" lon="7.8146288"><ele>217.66666666666666</ele><time>2026-03-29T13:27:58.107Z</time></trkpt><trkpt lat="45.2492181" lon="7.8143364"><ele>218.33333333333331</ele><time>2026-03-29T13:27:59.113Z</time></trkpt><trkpt lat="45.2492255" lon="7.8140329"><ele>219.0</ele><time>2026-03-29T13:28:00.104Z</time></trkpt><trkpt lat="45.2492315" lon="7.8137199"><ele>218.66666666666669</ele><time>2026-03-29T13:28:01.116Z</time></trkpt><trkpt lat="45.2492427" lon="7.8134135"><ele>218.33333333333334</ele><time>2026-03-29T13:28:02.113Z</time></trkpt><trkpt lat="45.2492528" lon="7.8130985"><ele>218.0</ele><time>2026-03-29T13:28:03.119Z</time></trkpt><trkpt lat="45.249259" lon="7.8127954"><ele>218.33333333333334</ele><time>2026-03-29T13:28:04.112Z</time></trkpt><trkpt lat="45.2492657" lon="7.8124974"><ele>218.66666666666669</ele><time>2026-03-29T13:28:05.107Z</time></trkpt><trkpt lat="45.2492733" lon="7.8122046"><ele>219.0</ele><time>2026-03-29T13:28:06.12Z</time></trkpt><trkpt lat="45.2492803" lon="7.811909"><ele>219.0</ele><time>2026-03-29T13:28:07.096Z</time></trkpt><trkpt lat="45.2492856" lon="7.8116121"><ele>219.0</ele><time>2026-03-29T13:28:08.129Z</time></trkpt><trkpt lat="45.2492952" lon="7.8113193"><ele>219.0</ele><time>2026-03-29T13:28:09.102Z</time></trkpt><trkpt lat="45.2493016" lon="7.8110449"><ele>218.66666666666669</ele><time>2026-03-29T13:28:10.096Z</time></trkpt><trkpt lat="45.2493126" lon="7.8107853"><ele>218.33333333333334</ele><time>2026-03-29T13:28:11.114Z</time></trkpt><trkpt lat="45.249323" lon="7.8105394"><ele>218.0</ele><time>2026-03-29T13:28:12.127Z</time></trkpt><trkpt lat="45.2493275" lon="7.81032"><ele>217.8</ele><time>2026-03-29T13:28:13.112Z</time></trkpt><trkpt lat="45.2493321" lon="7.8101342"><ele>217.60000000000002</ele><time>2026-03-29T13:28:14.111Z</time></trkpt><trkpt lat="45.2493385" lon="7.8099638"><ele>217.39999999999998</ele><time>2026-03-29T13:28:15.116Z</time></trkpt><trkpt lat="45.2493526" lon="7.8098592"><ele>217.2</ele><time>2026-03-29T13:28:16.111Z</time></trkpt><trkpt lat="45.249361" lon="7.8097672"><ele>217.0</ele><time>2026-03-29T13:28:19.122Z</time></trkpt><trkpt lat="45.2493213" lon="7.8096738"><ele>217.0</ele><time>2026-03-29T13:28:23.099Z</time></trkpt><trkpt lat="45.2492591" lon="7.8096274"><ele>217.0</ele><time>2026-03-29T13:28:24.093Z</time></trkpt><trkpt lat="45.2491609" lon="7.8095841"><ele>217.0</ele><time>2026-03-29T13:28:25.121Z</time></trkpt><trkpt lat="45.249038" lon="7.8095279"><ele>217.0</ele><time>2026-03-29T13:28:26.123Z</time></trkpt><trkpt lat="45.2489089" lon="7.8094577"><ele>217.0</ele><time>2026-03-29T13:28:27.106Z</time></trkpt><trkpt lat="45.248771" lon="7.809367"><ele>217.66666666666666</ele><time>2026-03-29T13:28:28.107Z</time></trkpt><trkpt lat="45.2486241" lon="7.8092542"><ele>218.33333333333331</ele><time>2026-03-29T13:28:29.101Z</time></trkpt><trkpt lat="45.2484673" lon="7.8091268"><ele>219.0</ele><time>2026-03-29T13:28:30.099Z</time></trkpt><trkpt lat="45.2483127" lon="7.8089724"><ele>219.0</ele><time>2026-03-29T13:28:31.105Z</time></trkpt><trkpt lat="45.2481685" lon="7.8088021"><ele>219.0</ele><time>2026-03-29T13:28:32.134Z</time></trkpt><trkpt lat="45.2480282" lon="7.8086125"><ele>219.0</ele><time>2026-03-29T13:28:33.105Z</time></trkpt><trkpt lat="45.247886" lon="7.8084009"><ele>219.0</ele><time>2026-03-29T13:28:34.103Z</time></trkpt><trkpt lat="45.2477521" lon="7.8081747"><ele>219.0</ele><time>2026-03-29T13:28:35.108Z</time></trkpt><trkpt lat="45.2476296" lon="7.8079301"><ele>219.0</ele><time>2026-03-29T13:28:36.122Z</time></trkpt><trkpt lat="45.2475095" lon="7.8076849"><ele>218.0</ele><time>2026-03-29T13:28:37.093Z</time></trkpt><trkpt lat="45.2473944" lon="7.8074459"><ele>217.0</ele><time>2026-03-29T13:28:38.113Z</time></trkpt><trkpt lat="45.2472747" lon="7.8072158"><ele>216.0</ele><time>2026-03-29T13:28:39.102Z</time></trkpt><trkpt lat="45.2471605" lon="7.8069722"><ele>214.33333333333331</ele><time>2026-03-29T13:28:40.113Z</time></trkpt><trkpt lat="45.2470517" lon="7.8067426"><ele>212.66666666666666</ele><time>2026-03-29T13:28:41.118Z</time></trkpt><trkpt lat="45.2469429" lon="7.8065141"><ele>211.0</ele><time>2026-03-29T13:28:42.116Z</time></trkpt><trkpt lat="45.2468314" lon="7.8062925"><ele>211.0</ele><time>2026-03-29T13:28:43.11Z</time></trkpt><trkpt lat="45.2467178" lon="7.8060746"><ele>211.0</ele><time>2026-03-29T13:28:44.121Z</time></trkpt><trkpt lat="45.2466058" lon="7.8058519"><ele>211.0</ele><time>2026-03-29T13:28:45.132Z</time></trkpt><trkpt lat="45.2464951" lon="7.8056281"><ele>213.0</ele><time>2026-03-29T13:28:46.113Z</time></trkpt><trkpt lat="45.2463856" lon="7.8054102"><ele>215.0</ele><time>2026-03-29T13:28:47.098Z</time></trkpt><trkpt lat="45.2462692" lon="7.8051849"><ele>217.0</ele><time>2026-03-29T13:28:48.113Z</time></trkpt><trkpt lat="45.2461485" lon="7.8049641"><ele>217.33333333333331</ele><time>2026-03-29T13:28:49.108Z</time></trkpt><trkpt lat="45.2460269" lon="7.8047334"><ele>217.66666666666669</ele><time>2026-03-29T13:28:50.1Z</time></trkpt><trkpt lat="45.2459082" lon="7.8044953"><ele>218.0</ele><time>2026-03-29T13:28:51.119Z</time></trkpt><trkpt lat="45.2457913" lon="7.804247"><ele>218.0</ele><time>2026-03-29T13:28:52.119Z</time></trkpt><trkpt lat="45.2456768" lon="7.8040053"><ele>218.0</ele><time>2026-03-29T13:28:53.127Z</time></trkpt><trkpt lat="45.2455652" lon="7.8037715"><ele>218.0</ele><time>2026-03-29T13:28:54.105Z</time></trkpt><trkpt lat="45.2454454" lon="7.803538"><ele>217.33333333333334</ele><time>2026-03-29T13:28:55.119Z</time></trkpt><trkpt lat="45.2453312" lon="7.8033072"><ele>216.66666666666669</ele><time>2026-03-29T13:28:56.113Z</time></trkpt><trkpt lat="45.2452121" lon="7.8030748"><ele>216.0</ele><time>2026-03-29T13:28:57.12Z</time></trkpt><trkpt lat="45.2450998" lon="7.8028409"><ele>216.0</ele><time>2026-03-29T13:28:58.111Z</time></trkpt><trkpt lat="45.2449827" lon="7.8026075"><ele>216.0</ele><time>2026-03-29T13:28:59.104Z</time></trkpt><trkpt lat="45.2448642" lon="7.8023685"><ele>216.0</ele><time>2026-03-29T13:29:00.118Z</time></trkpt><trkpt lat="45.2447428" lon="7.8021272"><ele>216.0</ele><time>2026-03-29T13:29:01.134Z</time></trkpt><trkpt lat="45.2446206" lon="7.8018897"><ele>216.0</ele><time>2026-03-29T13:29:02.113Z</time></trkpt><trkpt lat="45.2444973" lon="7.8016422"><ele>216.0</ele><time>2026-03-29T13:29:03.109Z</time></trkpt><trkpt lat="45.2443752" lon="7.8013923"><ele>216.0</ele><time>2026-03-29T13:29:04.112Z</time></trkpt><trkpt lat="45.244252" lon="7.8011504"><ele>216.0</ele><time>2026-03-29T13:29:05.112Z</time></trkpt><trkpt lat="45.2441288" lon="7.8009058"><ele>216.0</ele><time>2026-03-29T13:29:06.12Z</time></trkpt><trkpt lat="45.2439956" lon="7.8006589"><ele>215.66666666666669</ele><time>2026-03-29T13:29:07.098Z</time></trkpt><trkpt lat="45.2438598" lon="7.8004302"><ele>215.33333333333334</ele><time>2026-03-29T13:29:08.098Z</time></trkpt><trkpt lat="45.2437152" lon="7.8002136"><ele>215.0</ele><time>2026-03-29T13:29:09.104Z</time></trkpt><trkpt lat="45.2435547" lon="7.8000157"><ele>215.0</ele><time>2026-03-29T13:29:10.102Z</time></trkpt><trkpt lat="45.2433841" lon="7.7998336"><ele>215.0</ele><time>2026-03-29T13:29:11.107Z</time></trkpt><trkpt lat="45.2432144" lon="7.7996522"><ele>215.0</ele><time>2026-03-29T13:29:12.117Z</time></trkpt><trkpt lat="45.2430387" lon="7.7994939"><ele>215.0</ele><time>2026-03-29T13:29:13.106Z</time></trkpt><trkpt lat="45.242854" lon="7.7993488"><ele>215.0</ele><time>2026-03-29T13:29:14.103Z</time></trkpt><trkpt lat="45.2426649" lon="7.7992208"><ele>215.0</ele><time>2026-03-29T13:29:15.114Z</time></trkpt><trkpt lat="45.2424741" lon="7.7991022"><ele>216.0</ele><time>2026-03-29T13:29:16.12Z</time></trkpt><trkpt lat="45.2422777" lon="7.7989944"><ele>217.0</ele><time>2026-03-29T13:29:17.112Z</time></trkpt><trkpt lat="45.2420782" lon="7.798885"><ele>218.0</ele><time>2026-03-29T13:29:18.107Z</time></trkpt><trkpt lat="45.2418717" lon="7.7987733"><ele>218.0</ele><time>2026-03-29T13:29:19.124Z</time></trkpt><trkpt lat="45.2416688" lon="7.7986617"><ele>218.0</ele><time>2026-03-29T13:29:20.104Z</time></trkpt><trkpt lat="45.2414632" lon="7.7985544"><ele>218.0</ele><time>2026-03-29T13:29:21.126Z</time></trkpt><trkpt lat="45.2412611" lon="7.798446"><ele>216.33333333333334</ele><time>2026-03-29T13:29:22.114Z</time></trkpt><trkpt lat="45.2410595" lon="7.7983391"><ele>214.66666666666669</ele><time>2026-03-29T13:29:23.098Z</time></trkpt><trkpt lat="45.2408573" lon="7.7982283"><ele>213.0</ele><time>2026-03-29T13:29:24.114Z</time></trkpt><trkpt lat="45.2406412" lon="7.7981184"><ele>213.0</ele><time>2026-03-29T13:29:25.096Z</time></trkpt><trkpt lat="45.240428" lon="7.7980035"><ele>213.0</ele><time>2026-03-29T13:29:26.121Z</time></trkpt><trkpt lat="45.2402038" lon="7.7978901"><ele>213.0</ele><time>2026-03-29T13:29:27.107Z</time></trkpt><trkpt lat="45.2399818" lon="7.7977673"><ele>213.0</ele><time>2026-03-29T13:29:28.103Z</time></trkpt><trkpt lat="45.239763" lon="7.7976432"><ele>214.0</ele><time>2026-03-29T13:29:29.109Z</time></trkpt><trkpt lat="45.2395428" lon="7.7975258"><ele>215.0</ele><time>2026-03-29T13:29:30.105Z</time></trkpt><trkpt lat="45.2393225" lon="7.7974055"><ele>215.0</ele><time>2026-03-29T13:29:31.109Z</time></trkpt><trkpt lat="45.2391023" lon="7.797288"><ele>215.0</ele><time>2026-03-29T13:29:32.108Z</time></trkpt><trkpt lat="45.2388848" lon="7.7971758"><ele>215.5</ele><time>2026-03-29T13:29:33.103Z</time></trkpt><trkpt lat="45.2386675" lon="7.7970641"><ele>216.0</ele><time>2026-03-29T13:29:34.108Z</time></trkpt><trkpt lat="45.2384558" lon="7.7969503"><ele>215.33333333333331</ele><time>2026-03-29T13:29:35.115Z</time></trkpt><trkpt lat="45.238246" lon="7.7968348"><ele>214.66666666666666</ele><time>2026-03-29T13:29:36.129Z</time></trkpt><trkpt lat="45.2380377" lon="7.7967276"><ele>214.0</ele><time>2026-03-29T13:29:37.107Z</time></trkpt><trkpt lat="45.2378292" lon="7.7966183"><ele>214.0</ele><time>2026-03-29T13:29:38.125Z</time></trkpt><trkpt lat="45.2376245" lon="7.7965097"><ele>214.0</ele><time>2026-03-29T13:29:39.099Z</time></trkpt><trkpt lat="45.2374216" lon="7.7963992"><ele>214.0</ele><time>2026-03-29T13:29:40.095Z</time></trkpt><trkpt lat="45.2372157" lon="7.796285"><ele>214.0</ele><time>2026-03-29T13:29:41.101Z</time></trkpt><trkpt lat="45.2370069" lon="7.7961664"><ele>214.0</ele><time>2026-03-29T13:29:42.106Z</time></trkpt><trkpt lat="45.2367985" lon="7.7960482"><ele>214.0</ele><time>2026-03-29T13:29:43.105Z</time></trkpt><trkpt lat="45.2365894" lon="7.7959371"><ele>213.66666666666666</ele><time>2026-03-29T13:29:44.109Z</time></trkpt><trkpt lat="45.236381" lon="7.7958267"><ele>213.33333333333331</ele><time>2026-03-29T13:29:45.101Z</time></trkpt><trkpt lat="45.2361751" lon="7.7957175"><ele>213.0</ele><time>2026-03-29T13:29:46.106Z</time></trkpt><trkpt lat="45.2359747" lon="7.7956127"><ele>213.0</ele><time>2026-03-29T13:29:47.106Z</time></trkpt><trkpt lat="45.2357725" lon="7.795507"><ele>213.0</ele><time>2026-03-29T13:29:48.112Z</time></trkpt><trkpt lat="45.235574" lon="7.7953999"><ele>213.0</ele><time>2026-03-29T13:29:49.102Z</time></trkpt><trkpt lat="45.235374" lon="7.7952952"><ele>213.33333333333331</ele><time>2026-03-29T13:29:50.105Z</time></trkpt><trkpt lat="45.2351782" lon="7.7951882"><ele>213.66666666666666</ele><time>2026-03-29T13:29:51.129Z</time></trkpt><trkpt lat="45.2349887" lon="7.7950887"><ele>214.0</ele><time>2026-03-29T13:29:52.096Z</time></trkpt><trkpt lat="45.2348064" lon="7.7949957"><ele>214.33333333333331</ele><time>2026-03-29T13:29:53.107Z</time></trkpt><trkpt lat="45.2346347" lon="7.7949068"><ele>214.66666666666669</ele><time>2026-03-29T13:29:54.098Z</time></trkpt><trkpt lat="45.2344687" lon="7.7948042"><ele>215.0</ele><time>2026-03-29T13:29:55.108Z</time></trkpt><trkpt lat="45.2343094" lon="7.7946767"><ele>215.0</ele><time>2026-03-29T13:29:56.111Z</time></trkpt><trkpt lat="45.2341578" lon="7.7945152"><ele>215.0</ele><time>2026-03-29T13:29:57.111Z</time></trkpt><trkpt lat="45.2340162" lon="7.7943306"><ele>215.0</ele><time>2026-03-29T13:29:58.113Z</time></trkpt><trkpt lat="45.233876" lon="7.7941379"><ele>214.33333333333334</ele><time>2026-03-29T13:29:59.107Z</time></trkpt><trkpt lat="45.2337425" lon="7.7939402"><ele>213.66666666666669</ele><time>2026-03-29T13:30:00.095Z</time></trkpt><trkpt lat="45.2336021" lon="7.7937444"><ele>213.0</ele><time>2026-03-29T13:30:01.097Z</time></trkpt><trkpt lat="45.233461" lon="7.7935451"><ele>213.0</ele><time>2026-03-29T13:30:02.112Z</time></trkpt><trkpt lat="45.2333187" lon="7.7933365"><ele>213.0</ele><time>2026-03-29T13:30:03.115Z</time></trkpt><trkpt lat="45.2331724" lon="7.793128"><ele>213.0</ele><time>2026-03-29T13:30:04.109Z</time></trkpt><trkpt lat="45.2330273" lon="7.7929207"><ele>213.0</ele><time>2026-03-29T13:30:05.114Z</time></trkpt><trkpt lat="45.2328731" lon="7.7927125"><ele>213.0</ele><time>2026-03-29T13:30:06.114Z</time></trkpt><trkpt lat="45.2327245" lon="7.7925023"><ele>213.0</ele><time>2026-03-29T13:30:07.112Z</time></trkpt><trkpt lat="45.2325785" lon="7.7922924"><ele>213.33333333333331</ele><time>2026-03-29T13:30:08.103Z</time></trkpt><trkpt lat="45.2324368" lon="7.7920855"><ele>213.66666666666666</ele><time>2026-03-29T13:30:09.124Z</time></trkpt><trkpt lat="45.2323001" lon="7.7918764"><ele>214.0</ele><time>2026-03-29T13:30:10.111Z</time></trkpt><trkpt lat="45.2321658" lon="7.79167"><ele>214.33333333333331</ele><time>2026-03-29T13:30:11.119Z</time></trkpt><trkpt lat="45.2320321" lon="7.7914581"><ele>214.66666666666669</ele><time>2026-03-29T13:30:12.105Z</time></trkpt><trkpt lat="45.2318919" lon="7.7912554"><ele>215.0</ele><time>2026-03-29T13:30:13.111Z</time></trkpt><trkpt lat="45.2317553" lon="7.7910596"><ele>215.33333333333334</ele><time>2026-03-29T13:30:14.11Z</time></trkpt><trkpt lat="45.2316294" lon="7.7908751"><ele>215.66666666666669</ele><time>2026-03-29T13:30:15.108Z</time></trkpt><trkpt lat="45.2315113" lon="7.7907014"><ele>216.0</ele><time>2026-03-29T13:30:16.124Z</time></trkpt><trkpt lat="45.2314022" lon="7.7905319"><ele>215.75</ele><time>2026-03-29T13:30:17.11Z</time></trkpt><trkpt lat="45.2312976" lon="7.7903776"><ele>215.5</ele><time>2026-03-29T13:30:18.109Z</time></trkpt><trkpt lat="45.2311984" lon="7.7902273"><ele>215.25</ele><time>2026-03-29T13:30:19.114Z</time></trkpt><trkpt lat="45.2311047" lon="7.7900869"><ele>215.0</ele><time>2026-03-29T13:30:20.113Z</time></trkpt><trkpt lat="45.2310117" lon="7.7899624"><ele>215.0</ele><time>2026-03-29T13:30:21.092Z</time></trkpt><trkpt lat="45.2309115" lon="7.7898417"><ele>215.0</ele><time>2026-03-29T13:30:22.09Z</time></trkpt><trkpt lat="45.2308009" lon="7.7897368"><ele>215.0</ele><time>2026-03-29T13:30:23.105Z</time></trkpt><trkpt lat="45.2306791" lon="7.7896417"><ele>215.0</ele><time>2026-03-29T13:30:24.115Z</time></trkpt><trkpt lat="45.2305541" lon="7.7895516"><ele>215.0</ele><time>2026-03-29T13:30:25.096Z</time></trkpt><trkpt lat="45.2304335" lon="7.7894547"><ele>215.0</ele><time>2026-03-29T13:30:26.112Z</time></trkpt><trkpt lat="45.2303191" lon="7.7893563"><ele>215.0</ele><time>2026-03-29T13:30:27.113Z</time></trkpt><trkpt lat="45.2302052" lon="7.7892731"><ele>215.0</ele><time>2026-03-29T13:30:28.107Z</time></trkpt><trkpt lat="45.2300974" lon="7.7891965"><ele>215.0</ele><time>2026-03-29T13:30:29.102Z</time></trkpt><trkpt lat="45.2299916" lon="7.7891253"><ele>215.0</ele><time>2026-03-29T13:30:30.101Z</time></trkpt><trkpt lat="45.2298777" lon="7.7890456"><ele>215.0</ele><time>2026-03-29T13:30:31.106Z</time></trkpt><trkpt lat="45.2297586" lon="7.7889543"><ele>215.0</ele><time>2026-03-29T13:30:32.108Z</time></trkpt><trkpt lat="45.2296544" lon="7.7888802"><ele>215.00000000000003</ele><time>2026-03-29T13:30:33.105Z</time></trkpt><trkpt lat="45.2295735" lon="7.7888154"><ele>215.0</ele><time>2026-03-29T13:30:34.103Z</time></trkpt><trkpt lat="45.2295017" lon="7.7887623"><ele>215.0</ele><time>2026-03-29T13:30:35.115Z</time></trkpt><trkpt lat="45.2294334" lon="7.7887078"><ele>215.0</ele><time>2026-03-29T13:30:36.108Z</time></trkpt><trkpt lat="45.2293584" lon="7.7886516"><ele>215.00000000000003</ele><time>2026-03-29T13:30:37.119Z</time></trkpt><trkpt lat="45.2292772" lon="7.7885923"><ele>215.0</ele><time>2026-03-29T13:30:38.127Z</time></trkpt><trkpt lat="45.2291924" lon="7.7885248"><ele>214.8</ele><time>2026-03-29T13:30:39.109Z</time></trkpt><trkpt lat="45.2290977" lon="7.7884556"><ele>214.6</ele><time>2026-03-29T13:30:40.102Z</time></trkpt><trkpt lat="45.2290011" lon="7.7883824"><ele>214.39999999999998</ele><time>2026-03-29T13:30:41.137Z</time></trkpt><trkpt lat="45.2289068" lon="7.7883076"><ele>214.2</ele><time>2026-03-29T13:30:42.101Z</time></trkpt><trkpt lat="45.2288124" lon="7.7882344"><ele>214.0</ele><time>2026-03-29T13:30:43.102Z</time></trkpt><trkpt lat="45.2287319" lon="7.7881724"><ele>213.79999999999998</ele><time>2026-03-29T13:30:44.106Z</time></trkpt><trkpt lat="45.2286585" lon="7.7881203"><ele>213.59999999999997</ele><time>2026-03-29T13:30:45.105Z</time></trkpt><trkpt lat="45.2285858" lon="7.7880688"><ele>213.4</ele><time>2026-03-29T13:30:46.135Z</time></trkpt><trkpt lat="45.2284948" lon="7.7879979"><ele>213.2</ele><time>2026-03-29T13:30:47.109Z</time></trkpt><trkpt lat="45.2283919" lon="7.7879406"><ele>213.0</ele><time>2026-03-29T13:30:48.106Z</time></trkpt><trkpt lat="45.2283056" lon="7.7878796"><ele>213.0</ele><time>2026-03-29T13:30:49.097Z</time></trkpt><trkpt lat="45.228233" lon="7.7878131"><ele>213.0</ele><time>2026-03-29T13:30:50.094Z</time></trkpt><trkpt lat="45.2281572" lon="7.7877476"><ele>213.0</ele><time>2026-03-29T13:30:51.114Z</time></trkpt><trkpt lat="45.2280737" lon="7.7876846"><ele>213.0</ele><time>2026-03-29T13:30:52.105Z</time></trkpt><trkpt lat="45.2279939" lon="7.7876158"><ele>213.0</ele><time>2026-03-29T13:30:53.126Z</time></trkpt><trkpt lat="45.2279123" lon="7.7875522"><ele>213.0</ele><time>2026-03-29T13:30:54.1Z</time></trkpt><trkpt lat="45.2278311" lon="7.7874863"><ele>213.0</ele><time>2026-03-29T13:30:55.103Z</time></trkpt><trkpt lat="45.2277381" lon="7.7874197"><ele>213.0</ele><time>2026-03-29T13:30:56.1Z</time></trkpt><trkpt lat="45.2276419" lon="7.7873501"><ele>213.0</ele><time>2026-03-29T13:30:57.108Z</time></trkpt><trkpt lat="45.2275507" lon="7.7872828"><ele>213.0</ele><time>2026-03-29T13:30:58.113Z</time></trkpt><trkpt lat="45.22746" lon="7.7872147"><ele>213.0</ele><time>2026-03-29T13:30:59.096Z</time></trkpt><trkpt lat="45.2273675" lon="7.7871366"><ele>213.0</ele><time>2026-03-29T13:31:00.1Z</time></trkpt><trkpt lat="45.227267" lon="7.7870678"><ele>213.0</ele><time>2026-03-29T13:31:01.108Z</time></trkpt><trkpt lat="45.2271629" lon="7.7869882"><ele>213.0</ele><time>2026-03-29T13:31:02.099Z</time></trkpt><trkpt lat="45.227064" lon="7.7869148"><ele>213.0</ele><time>2026-03-29T13:31:03.109Z</time></trkpt><trkpt lat="45.2269638" lon="7.7868486"><ele>212.75</ele><time>2026-03-29T13:31:04.116Z</time></trkpt><trkpt lat="45.2268542" lon="7.7867865"><ele>212.5</ele><time>2026-03-29T13:31:05.105Z</time></trkpt><trkpt lat="45.2267406" lon="7.786723"><ele>212.25</ele><time>2026-03-29T13:31:06.129Z</time></trkpt><trkpt lat="45.2266299" lon="7.7866648"><ele>212.0</ele><time>2026-03-29T13:31:07.108Z</time></trkpt><trkpt lat="45.2265215" lon="7.7866111"><ele>212.0</ele><time>2026-03-29T13:31:08.11Z</time></trkpt><trkpt lat="45.2264123" lon="7.7865769"><ele>212.0</ele><time>2026-03-29T13:31:09.108Z</time></trkpt><trkpt lat="45.2263152" lon="7.7865476"><ele>212.0</ele><time>2026-03-29T13:31:10.11Z</time></trkpt><trkpt lat="45.2262176" lon="7.7865224"><ele>212.0</ele><time>2026-03-29T13:31:11.11Z</time></trkpt><trkpt lat="45.2261286" lon="7.7865008"><ele>212.0</ele><time>2026-03-29T13:31:12.095Z</time></trkpt><trkpt lat="45.2260503" lon="7.7864897"><ele>212.00000000000003</ele><time>2026-03-29T13:31:13.137Z</time></trkpt><trkpt lat="45.2259703" lon="7.7864795"><ele>212.0</ele><time>2026-03-29T13:31:14.095Z</time></trkpt><trkpt lat="45.2258924" lon="7.7864756"><ele>212.0</ele><time>2026-03-29T13:31:15.098Z</time></trkpt><trkpt lat="45.2258208" lon="7.7864826"><ele>212.0</ele><time>2026-03-29T13:31:16.111Z</time></trkpt><trkpt lat="45.225702" lon="7.7864964"><ele>212.00000000000003</ele><time>2026-03-29T13:31:18.117Z</time></trkpt><trkpt lat="45.2256306" lon="7.7865125"><ele>212.0</ele><time>2026-03-29T13:31:19.096Z</time></trkpt><trkpt lat="45.2255546" lon="7.7865306"><ele>212.2</ele><time>2026-03-29T13:31:20.101Z</time></trkpt><trkpt lat="45.2254741" lon="7.7865396"><ele>212.39999999999998</ele><time>2026-03-29T13:31:21.109Z</time></trkpt><trkpt lat="45.2253988" lon="7.7865515"><ele>212.60000000000002</ele><time>2026-03-29T13:31:22.096Z</time></trkpt><trkpt lat="45.2252824" lon="7.7865904"><ele>212.8</ele><time>2026-03-29T13:31:24.096Z</time></trkpt><trkpt lat="45.2251692" lon="7.7866701"><ele>213.0</ele><time>2026-03-29T13:31:26.116Z</time></trkpt><trkpt lat="45.2251231" lon="7.7867517"><ele>213.0</ele><time>2026-03-29T13:31:27.123Z</time></trkpt><trkpt lat="45.2250894" lon="7.7868344"><ele>213.0</ele><time>2026-03-29T13:31:28.135Z</time></trkpt><trkpt lat="45.2250549" lon="7.7869443"><ele>213.0</ele><time>2026-03-29T13:31:29.113Z</time></trkpt><trkpt lat="45.2250425" lon="7.7870869"><ele>213.0</ele><time>2026-03-29T13:31:30.109Z</time></trkpt><trkpt lat="45.2250455" lon="7.7872384"><ele>213.0</ele><time>2026-03-29T13:31:31.111Z</time></trkpt><trkpt lat="45.2250511" lon="7.7873863"><ele>213.0</ele><time>2026-03-29T13:31:32.113Z</time></trkpt><trkpt lat="45.2250593" lon="7.7875423"><ele>213.0</ele><time>2026-03-29T13:31:33.103Z</time></trkpt><trkpt lat="45.2250749" lon="7.787709"><ele>213.0</ele><time>2026-03-29T13:31:34.102Z</time></trkpt><trkpt lat="45.2250855" lon="7.7878788"><ele>213.0</ele><time>2026-03-29T13:31:35.097Z</time></trkpt><trkpt lat="45.2250971" lon="7.78805"><ele>213.0</ele><time>2026-03-29T13:31:36.108Z</time></trkpt><trkpt lat="45.2251083" lon="7.7882122"><ele>213.0</ele><time>2026-03-29T13:31:37.111Z</time></trkpt><trkpt lat="45.225123" lon="7.7883662"><ele>213.0</ele><time>2026-03-29T13:31:38.142Z</time></trkpt><trkpt lat="45.2251371" lon="7.7885028"><ele>213.0</ele><time>2026-03-29T13:31:39.119Z</time></trkpt><trkpt lat="45.2251411" lon="7.7886399"><ele>213.0</ele><time>2026-03-29T13:31:40.11Z</time></trkpt><trkpt lat="45.2251445" lon="7.7887816"><ele>213.0</ele><time>2026-03-29T13:31:41.118Z</time></trkpt><trkpt lat="45.2251283" lon="7.7889105"><ele>213.0</ele><time>2026-03-29T13:31:42.121Z</time></trkpt><trkpt lat="45.2250954" lon="7.7890169"><ele>213.0</ele><time>2026-03-29T13:31:43.129Z</time></trkpt><trkpt lat="45.2250482" lon="7.7891025"><ele>213.0</ele><time>2026-03-29T13:31:44.103Z</time></trkpt><trkpt lat="45.2249942" lon="7.7891849"><ele>213.0</ele><time>2026-03-29T13:31:45.12Z</time></trkpt><trkpt lat="45.2249443" lon="7.7892613"><ele>213.0</ele><time>2026-03-29T13:31:46.112Z</time></trkpt><trkpt lat="45.2248559" lon="7.7893633"><ele>213.0</ele><time>2026-03-29T13:31:48.105Z</time></trkpt><trkpt lat="45.224815" lon="7.7894371"><ele>213.0</ele><time>2026-03-29T13:31:51.116Z</time></trkpt><trkpt lat="45.2247884" lon="7.7895423"><ele>213.0</ele><time>2026-03-29T13:33:03.111Z</time></trkpt><trkpt lat="45.2247457" lon="7.7897428"><ele>213.0</ele><time>2026-03-29T13:33:05.104Z</time></trkpt><trkpt lat="45.2247155" lon="7.7898638"><ele>213.0</ele><time>2026-03-29T13:33:06.111Z</time></trkpt><trkpt lat="45.2246876" lon="7.7899572"><ele>213.0</ele><time>2026-03-29T13:33:07.111Z</time></trkpt><trkpt lat="45.2246626" lon="7.7900524"><ele>213.0</ele><time>2026-03-29T13:33:08.105Z</time></trkpt><trkpt lat="45.224633" lon="7.790158"><ele>213.0</ele><time>2026-03-29T13:33:09.112Z</time></trkpt><trkpt lat="45.224599" lon="7.7902435"><ele>213.0</ele><time>2026-03-29T13:33:10.115Z</time></trkpt><trkpt lat="45.2245481" lon="7.7903659"><ele>213.0</ele><time>2026-03-29T13:33:12.11Z</time></trkpt><trkpt lat="45.2244603" lon="7.7904534"><ele>213.0</ele><time>2026-03-29T13:33:14.108Z</time></trkpt><trkpt lat="45.2243934" lon="7.7904722"><ele>212.83333333333334</ele><time>2026-03-29T13:33:15.113Z</time></trkpt><trkpt lat="45.2243081" lon="7.7904732"><ele>212.66666666666669</ele><time>2026-03-29T13:33:16.109Z</time></trkpt><trkpt lat="45.2242346" lon="7.7904494"><ele>212.5</ele><time>2026-03-29T13:33:17.103Z</time></trkpt><trkpt lat="45.224161" lon="7.7904053"><ele>212.33333333333334</ele><time>2026-03-29T13:33:18.098Z</time></trkpt><trkpt lat="45.224094" lon="7.790367"><ele>212.16666666666669</ele><time>2026-03-29T13:33:19.102Z</time></trkpt><trkpt lat="45.2240325" lon="7.7903173"><ele>212.0</ele><time>2026-03-29T13:33:20.099Z</time></trkpt><trkpt lat="45.223921" lon="7.7902432"><ele>212.0</ele><time>2026-03-29T13:33:22.133Z</time></trkpt><trkpt lat="45.2237984" lon="7.790146"><ele>212.0</ele><time>2026-03-29T13:33:24.091Z</time></trkpt><trkpt lat="45.2237339" lon="7.7901027"><ele>212.0</ele><time>2026-03-29T13:33:25.103Z</time></trkpt><trkpt lat="45.2236265" lon="7.7900271"><ele>212.0</ele><time>2026-03-29T13:33:27.111Z</time></trkpt><trkpt lat="45.223563" lon="7.7899932"><ele>212.0</ele><time>2026-03-29T13:33:28.13Z</time></trkpt><trkpt lat="45.2234605" lon="7.7899567"><ele>212.0</ele><time>2026-03-29T13:33:30.122Z</time></trkpt><trkpt lat="45.2233533" lon="7.7898842"><ele>212.0</ele><time>2026-03-29T13:33:32.117Z</time></trkpt><trkpt lat="45.2232437" lon="7.7897937"><ele>212.0</ele><time>2026-03-29T13:33:34.123Z</time></trkpt><trkpt lat="45.2231623" lon="7.7897354"><ele>212.0</ele><time>2026-03-29T13:33:36.112Z</time></trkpt><trkpt lat="45.2230766" lon="7.7896748"><ele>212.0</ele><time>2026-03-29T13:33:38.105Z</time></trkpt><trkpt lat="45.2229799" lon="7.7895819"><ele>211.6</ele><time>2026-03-29T13:33:40.112Z</time></trkpt><trkpt lat="45.2229268" lon="7.7894195"><ele>211.2</ele><time>2026-03-29T13:33:42.091Z</time></trkpt><trkpt lat="45.2229129" lon="7.7893131"><ele>210.8</ele><time>2026-03-29T13:33:43.101Z</time></trkpt><trkpt lat="45.2229043" lon="7.7891998"><ele>210.4</ele><time>2026-03-29T13:33:44.11Z</time></trkpt><trkpt lat="45.2228888" lon="7.7890812"><ele>210.0</ele><time>2026-03-29T13:33:45.116Z</time></trkpt><trkpt lat="45.222864" lon="7.7889674"><ele>210.0</ele><time>2026-03-29T13:33:46.11Z</time></trkpt><trkpt lat="45.2228395" lon="7.7888486"><ele>210.0</ele><time>2026-03-29T13:33:47.104Z</time></trkpt><trkpt lat="45.2228127" lon="7.7887381"><ele>210.0</ele><time>2026-03-29T13:33:48.103Z</time></trkpt><trkpt lat="45.2227811" lon="7.7886255"><ele>210.0</ele><time>2026-03-29T13:33:49.105Z</time></trkpt><trkpt lat="45.2227472" lon="7.7885098"><ele>210.0</ele><time>2026-03-29T13:33:50.114Z</time></trkpt><trkpt lat="45.2227124" lon="7.7883949"><ele>210.0</ele><time>2026-03-29T13:33:51.107Z</time></trkpt><trkpt lat="45.222677" lon="7.7882901"><ele>210.0</ele><time>2026-03-29T13:33:52.11Z</time></trkpt><trkpt lat="45.2226357" lon="7.7881847"><ele>210.0</ele><time>2026-03-29T13:33:53.107Z</time></trkpt><trkpt lat="45.2225887" lon="7.7880905"><ele>210.0</ele><time>2026-03-29T13:33:54.111Z</time></trkpt><trkpt lat="45.2225381" lon="7.7880199"><ele>210.0</ele><time>2026-03-29T13:33:55.11Z</time></trkpt><trkpt lat="45.2224939" lon="7.7879463"><ele>210.0</ele><time>2026-03-29T13:33:56.114Z</time></trkpt><trkpt lat="45.2224476" lon="7.7878709"><ele>210.0</ele><time>2026-03-29T13:33:57.11Z</time></trkpt><trkpt lat="45.2224056" lon="7.7877924"><ele>210.0</ele><time>2026-03-29T13:33:58.127Z</time></trkpt><trkpt lat="45.2223607" lon="7.7877237"><ele>209.8</ele><time>2026-03-29T13:33:59.118Z</time></trkpt><trkpt lat="45.2222703" lon="7.7876214"><ele>209.6</ele><time>2026-03-29T13:34:01.118Z</time></trkpt><trkpt lat="45.2221472" lon="7.7876252"><ele>209.39999999999998</ele><time>2026-03-29T13:34:03.112Z</time></trkpt><trkpt lat="45.22208" lon="7.787665"><ele>209.2</ele><time>2026-03-29T13:34:04.107Z</time></trkpt><trkpt lat="45.2220144" lon="7.7876935"><ele>209.0</ele><time>2026-03-29T13:34:05.101Z</time></trkpt><trkpt lat="45.2218911" lon="7.7876844"><ele>208.79999999999998</ele><time>2026-03-29T13:34:07.124Z</time></trkpt><trkpt lat="45.2218006" lon="7.7875474"><ele>208.6</ele><time>2026-03-29T13:34:09.135Z</time></trkpt><trkpt lat="45.221743" lon="7.7874423"><ele>208.4</ele><time>2026-03-29T13:34:10.107Z</time></trkpt><trkpt lat="45.2216789" lon="7.787334"><ele>208.2</ele><time>2026-03-29T13:34:11.111Z</time></trkpt><trkpt lat="45.2216215" lon="7.7872112"><ele>208.0</ele><time>2026-03-29T13:34:12.109Z</time></trkpt><trkpt lat="45.2215814" lon="7.7870787"><ele>208.0</ele><time>2026-03-29T13:34:13.12Z</time></trkpt><trkpt lat="45.2215439" lon="7.7869436"><ele>208.0</ele><time>2026-03-29T13:34:14.115Z</time></trkpt><trkpt lat="45.2215141" lon="7.7868126"><ele>208.0</ele><time>2026-03-29T13:34:15.118Z</time></trkpt><trkpt lat="45.221489" lon="7.786673"><ele>208.0</ele><time>2026-03-29T13:34:16.115Z</time></trkpt><trkpt lat="45.2214742" lon="7.7865292"><ele>208.0</ele><time>2026-03-29T13:34:17.096Z</time></trkpt><trkpt lat="45.2214719" lon="7.7863697"><ele>208.2</ele><time>2026-03-29T13:34:18.108Z</time></trkpt><trkpt lat="45.2214699" lon="7.7862218"><ele>208.4</ele><time>2026-03-29T13:34:19.11Z</time></trkpt><trkpt lat="45.2214689" lon="7.7860585"><ele>208.6</ele><time>2026-03-29T13:34:20.103Z</time></trkpt><trkpt lat="45.2214833" lon="7.7858956"><ele>208.79999999999998</ele><time>2026-03-29T13:34:21.096Z</time></trkpt><trkpt lat="45.2214971" lon="7.7857446"><ele>209.0</ele><time>2026-03-29T13:34:22.124Z</time></trkpt><trkpt lat="45.2215035" lon="7.7855859"><ele>209.2</ele><time>2026-03-29T13:34:23.149Z</time></trkpt><trkpt lat="45.2215101" lon="7.7854309"><ele>209.39999999999998</ele><time>2026-03-29T13:34:24.108Z</time></trkpt><trkpt lat="45.2215203" lon="7.7852774"><ele>209.6</ele><time>2026-03-29T13:34:25.106Z</time></trkpt><trkpt lat="45.2215283" lon="7.785127"><ele>209.8</ele><time>2026-03-29T13:34:26.14Z</time></trkpt><trkpt lat="45.2215361" lon="7.7849774"><ele>210.0</ele><time>2026-03-29T13:34:27.135Z</time></trkpt><trkpt lat="45.2215451" lon="7.7848305"><ele>210.0</ele><time>2026-03-29T13:34:28.099Z</time></trkpt><trkpt lat="45.221551" lon="7.78469"><ele>210.0</ele><time>2026-03-29T13:34:29.111Z</time></trkpt><trkpt lat="45.2215602" lon="7.7845496"><ele>210.0</ele><time>2026-03-29T13:34:30.114Z</time></trkpt><trkpt lat="45.2215694" lon="7.7844118"><ele>210.0</ele><time>2026-03-29T13:34:31.099Z</time></trkpt><trkpt lat="45.2215853" lon="7.7842819"><ele>210.0</ele><time>2026-03-29T13:34:32.12Z</time></trkpt><trkpt lat="45.2216036" lon="7.7841607"><ele>210.16666666666666</ele><time>2026-03-29T13:34:33.118Z</time></trkpt><trkpt lat="45.2216217" lon="7.7840508"><ele>210.33333333333331</ele><time>2026-03-29T13:34:34.125Z</time></trkpt><trkpt lat="45.2216348" lon="7.7839359"><ele>210.5</ele><time>2026-03-29T13:34:35.119Z</time></trkpt><trkpt lat="45.2216391" lon="7.7838406"><ele>210.66666666666666</ele><time>2026-03-29T13:34:36.114Z</time></trkpt><trkpt lat="45.2216369" lon="7.7836826"><ele>210.83333333333331</ele><time>2026-03-29T13:34:38.121Z</time></trkpt><trkpt lat="45.2216819" lon="7.7835936"><ele>211.0</ele><time>2026-03-29T13:34:40.111Z</time></trkpt><trkpt lat="45.2218037" lon="7.7835881"><ele>210.99999999999997</ele><time>2026-03-29T13:34:42.104Z</time></trkpt><trkpt lat="45.2218898" lon="7.7835935"><ele>211.0</ele><time>2026-03-29T13:34:43.14Z</time></trkpt><trkpt lat="45.221973" lon="7.7836088"><ele>211.0</ele><time>2026-03-29T13:34:44.107Z</time></trkpt><trkpt lat="45.222051" lon="7.7836235"><ele>211.0</ele><time>2026-03-29T13:34:45.116Z</time></trkpt><trkpt lat="45.222127" lon="7.7836384"><ele>210.99999999999997</ele><time>2026-03-29T13:34:46.107Z</time></trkpt><trkpt lat="45.2221984" lon="7.7836724"><ele>211.0</ele><time>2026-03-29T13:34:47.117Z</time></trkpt><trkpt lat="45.2222738" lon="7.7836974"><ele>211.60000000000002</ele><time>2026-03-29T13:34:48.106Z</time></trkpt><trkpt lat="45.2223498" lon="7.7837066"><ele>212.2</ele><time>2026-03-29T13:34:49.092Z</time></trkpt><trkpt lat="45.2224167" lon="7.7837121"><ele>212.79999999999998</ele><time>2026-03-29T13:34:50.094Z</time></trkpt><trkpt lat="45.2225368" lon="7.7837381"><ele>213.39999999999998</ele><time>2026-03-29T13:34:52.098Z</time></trkpt><trkpt lat="45.2226416" lon="7.7837696"><ele>214.0</ele><time>2026-03-29T13:34:54.099Z</time></trkpt><trkpt lat="45.2227474" lon="7.7837699"><ele>213.99999999999997</ele><time>2026-03-29T13:34:56.102Z</time></trkpt><trkpt lat="45.2228867" lon="7.7837825"><ele>214.0</ele><time>2026-03-29T13:34:58.092Z</time></trkpt><trkpt lat="45.2229698" lon="7.7837909"><ele>214.0</ele><time>2026-03-29T13:34:59.1Z</time></trkpt><trkpt lat="45.2230404" lon="7.7838058"><ele>214.0</ele><time>2026-03-29T13:35:00.099Z</time></trkpt><trkpt lat="45.2231154" lon="7.7838109"><ele>213.99999999999997</ele><time>2026-03-29T13:35:01.112Z</time></trkpt><trkpt lat="45.2231868" lon="7.7838312"><ele>214.0</ele><time>2026-03-29T13:35:02.123Z</time></trkpt><trkpt lat="45.2233055" lon="7.7838424"><ele>214.0</ele><time>2026-03-29T13:35:04.106Z</time></trkpt><trkpt lat="45.2234168" lon="7.7838361"><ele>213.99999999999997</ele><time>2026-03-29T13:35:06.101Z</time></trkpt><trkpt lat="45.2234775" lon="7.783795"><ele>213.99999999999997</ele><time>2026-03-29T13:35:07.104Z</time></trkpt><trkpt lat="45.2235453" lon="7.783678"><ele>214.0</ele><time>2026-03-29T13:35:09.095Z</time></trkpt><trkpt lat="45.2235715" lon="7.7835132"><ele>214.0</ele><time>2026-03-29T13:35:11.101Z</time></trkpt><trkpt lat="45.2236082" lon="7.7833719"><ele>214.49999999999997</ele><time>2026-03-29T13:35:13.1Z</time></trkpt><trkpt lat="45.2236525" lon="7.7832366"><ele>215.0</ele><time>2026-03-29T13:35:15.106Z</time></trkpt><trkpt lat="45.2236846" lon="7.7831497"><ele>215.5</ele><time>2026-03-29T13:35:17.107Z</time></trkpt><trkpt lat="45.2237085" lon="7.7830635"><ele>216.0</ele><time>2026-03-29T13:35:21.103Z</time></trkpt><trkpt lat="45.2236777" lon="7.7829787"><ele>216.49999999999997</ele><time>2026-03-29T13:35:24.109Z</time></trkpt><trkpt lat="45.2236074" lon="7.7829397"><ele>217.0</ele><time>2026-03-29T13:35:26.107Z</time></trkpt><trkpt lat="45.2235366" lon="7.7829075"><ele>217.0</ele><time>2026-03-29T13:35:28.122Z</time></trkpt><trkpt lat="45.2234432" lon="7.7828308"><ele>217.0</ele><time>2026-03-29T13:35:30.109Z</time></trkpt><trkpt lat="45.2233483" lon="7.7827434"><ele>217.0</ele><time>2026-03-29T13:35:32.103Z</time></trkpt><trkpt lat="45.2232504" lon="7.7826483"><ele>217.0</ele><time>2026-03-29T13:35:34.103Z</time></trkpt><trkpt lat="45.2231868" lon="7.7825906"><ele>217.0</ele><time>2026-03-29T13:35:35.09Z</time></trkpt><trkpt lat="45.2231297" lon="7.7825241"><ele>217.99999999999997</ele><time>2026-03-29T13:35:36.106Z</time></trkpt><trkpt lat="45.2230784" lon="7.7824535"><ele>219.0</ele><time>2026-03-29T13:35:37.103Z</time></trkpt><trkpt lat="45.223" lon="7.7823435"><ele>220.0</ele><time>2026-03-29T13:35:39.101Z</time></trkpt><trkpt lat="45.2229288" lon="7.7822497"><ele>221.0</ele><time>2026-03-29T13:35:41.111Z</time></trkpt><trkpt lat="45.2228772" lon="7.7821946"><ele>221.99999999999997</ele><time>2026-03-29T13:35:43.103Z</time></trkpt><trkpt lat="45.2228284" lon="7.7823025"><ele>223.0</ele><time>2026-03-29T13:35:54.105Z</time></trkpt><trkpt lat="45.2228107" lon="7.7824015"><ele>223.0</ele><time>2026-03-29T13:35:55.112Z</time></trkpt><trkpt lat="45.2227863" lon="7.7825574"><ele>223.0</ele><time>2026-03-29T13:35:57.087Z</time></trkpt><trkpt lat="45.2227657" lon="7.7826802"><ele>223.0</ele><time>2026-03-29T13:35:59.088Z</time></trkpt><trkpt lat="45.2227221" lon="7.782778"><ele>223.0</ele><time>2026-03-29T13:36:01.102Z</time></trkpt><trkpt lat="45.2226624" lon="7.7828658"><ele>223.0</ele><time>2026-03-29T13:36:03.109Z</time></trkpt><trkpt lat="45.2226014" lon="7.7830039"><ele>221.83333333333331</ele><time>2026-03-29T13:36:05.105Z</time></trkpt><trkpt lat="45.2225879" lon="7.7831561"><ele>220.66666666666666</ele><time>2026-03-29T13:36:07.104Z</time></trkpt><trkpt lat="45.2225969" lon="7.7832629"><ele>219.5</ele><time>2026-03-29T13:36:09.101Z</time></trkpt><trkpt lat="45.2226021" lon="7.7833607"><ele>218.33333333333331</ele><time>2026-03-29T13:36:11.116Z</time></trkpt><trkpt lat="45.2226107" lon="7.7834898"><ele>217.16666666666666</ele><time>2026-03-29T13:36:14.102Z</time></trkpt><trkpt lat="45.222605" lon="7.7836026"><ele>216.0</ele><time>2026-03-29T13:36:17.094Z</time></trkpt><trkpt lat="45.222584" lon="7.7837028"><ele>214.0</ele><time>2026-03-29T13:36:34.1Z</time></trkpt><trkpt lat="45.2225656" lon="7.7838195"><ele>214.0</ele><time>2026-03-29T13:36:36.107Z</time></trkpt><trkpt lat="45.2225566" lon="7.7839167"><ele>214.0</ele><time>2026-03-29T13:36:40.107Z</time></trkpt></trkseg></trk></gpx>